<?xml version="1.0" encoding="UTF-8" standalone="no" ?>
<gpx xmlns="http://www.topografix.com/GPX/1/1" xmlns:xsi="http://www.w3.org/2001/XMLSchema-instance" xsi:schemaLocation="http://www.topografix.com/GPX/1/1 http://www.topografix.com/GPX/1/1/gpx.xsd" version="1.1" creator="VisuGPX - https://www.visugpx.com">
  <metadata>
    <name>NE-O-Indre Sautron Treillières Sucé St Mars Le Cellier Nantes</name>
    <desc><![CDATA[NE-O-Indre Sautron Treillières Sucé St Mars Le Cellier Nantes]]></desc>
  </metadata>
  <trk>
    <name><![CDATA[2021-08-28 11:30 +02:00]]></name>
    <trkseg>
      <trkpt lat="47.1677" lon="-1.6265">
        <ele>62</ele>
        <time>2021-08-28T09:30:16.020Z</time>
      </trkpt>
      <trkpt lat="47.16778" lon="-1.62658">
        <ele>75</ele>
        <time>2021-08-28T09:30:16.989Z</time>
      </trkpt>
      <trkpt lat="47.1678" lon="-1.62671">
        <ele>69</ele>
        <time>2021-08-28T09:32:33.000Z</time>
      </trkpt>
      <trkpt lat="47.16771" lon="-1.62678">
        <ele>69</ele>
        <time>2021-08-28T09:32:35.000Z</time>
      </trkpt>
      <trkpt lat="47.1676" lon="-1.62673">
        <ele>69</ele>
        <time>2021-08-28T09:32:37.000Z</time>
      </trkpt>
      <trkpt lat="47.16748" lon="-1.62673">
        <ele>68</ele>
        <time>2021-08-28T09:32:39.000Z</time>
      </trkpt>
      <trkpt lat="47.16737" lon="-1.6268">
        <ele>67</ele>
        <time>2021-08-28T09:32:41.000Z</time>
      </trkpt>
      <trkpt lat="47.16726" lon="-1.62687">
        <ele>67</ele>
        <time>2021-08-28T09:32:43.000Z</time>
      </trkpt>
      <trkpt lat="47.16718" lon="-1.62698">
        <ele>67</ele>
        <time>2021-08-28T09:32:45.000Z</time>
      </trkpt>
      <trkpt lat="47.16724" lon="-1.62713">
        <ele>67</ele>
        <time>2021-08-28T09:32:47.000Z</time>
      </trkpt>
      <trkpt lat="47.16732" lon="-1.62728">
        <ele>68</ele>
        <time>2021-08-28T09:32:49.000Z</time>
      </trkpt>
      <trkpt lat="47.16741" lon="-1.62742">
        <ele>69</ele>
        <time>2021-08-28T09:32:51.000Z</time>
      </trkpt>
      <trkpt lat="47.1675" lon="-1.62754">
        <ele>69</ele>
        <time>2021-08-28T09:32:53.000Z</time>
      </trkpt>
      <trkpt lat="47.1676" lon="-1.62766">
        <ele>69</ele>
        <time>2021-08-28T09:32:55.000Z</time>
      </trkpt>
      <trkpt lat="47.16771" lon="-1.62776">
        <ele>70</ele>
        <time>2021-08-28T09:32:57.000Z</time>
      </trkpt>
      <trkpt lat="47.16782" lon="-1.62785">
        <ele>70</ele>
        <time>2021-08-28T09:32:59.000Z</time>
      </trkpt>
      <trkpt lat="47.16793" lon="-1.62795">
        <ele>70</ele>
        <time>2021-08-28T09:33:01.000Z</time>
      </trkpt>
      <trkpt lat="47.16804" lon="-1.62805">
        <ele>71</ele>
        <time>2021-08-28T09:33:03.000Z</time>
      </trkpt>
      <trkpt lat="47.16815" lon="-1.62814">
        <ele>71</ele>
        <time>2021-08-28T09:33:05.000Z</time>
      </trkpt>
      <trkpt lat="47.16824" lon="-1.62823">
        <ele>72</ele>
        <time>2021-08-28T09:33:07.000Z</time>
      </trkpt>
      <trkpt lat="47.16834" lon="-1.62833">
        <ele>73</ele>
        <time>2021-08-28T09:33:09.000Z</time>
      </trkpt>
      <trkpt lat="47.16844" lon="-1.62843">
        <ele>73</ele>
        <time>2021-08-28T09:33:11.000Z</time>
      </trkpt>
      <trkpt lat="47.16854" lon="-1.62853">
        <ele>73</ele>
        <time>2021-08-28T09:33:13.000Z</time>
      </trkpt>
      <trkpt lat="47.16864" lon="-1.62863">
        <ele>74</ele>
        <time>2021-08-28T09:33:15.000Z</time>
      </trkpt>
      <trkpt lat="47.16872" lon="-1.62874">
        <ele>74</ele>
        <time>2021-08-28T09:33:17.000Z</time>
      </trkpt>
      <trkpt lat="47.1688" lon="-1.62886">
        <ele>74</ele>
        <time>2021-08-28T09:33:19.000Z</time>
      </trkpt>
      <trkpt lat="47.16887" lon="-1.62902">
        <ele>73</ele>
        <time>2021-08-28T09:33:21.000Z</time>
      </trkpt>
      <trkpt lat="47.16891" lon="-1.62919">
        <ele>73</ele>
        <time>2021-08-28T09:33:23.000Z</time>
      </trkpt>
      <trkpt lat="47.16893" lon="-1.62935">
        <ele>73</ele>
        <time>2021-08-28T09:33:25.000Z</time>
      </trkpt>
      <trkpt lat="47.16895" lon="-1.62954">
        <ele>73</ele>
        <time>2021-08-28T09:33:27.000Z</time>
      </trkpt>
      <trkpt lat="47.16895" lon="-1.62972">
        <ele>73</ele>
        <time>2021-08-28T09:33:29.000Z</time>
      </trkpt>
      <trkpt lat="47.16893" lon="-1.62991">
        <ele>73</ele>
        <time>2021-08-28T09:33:31.000Z</time>
      </trkpt>
      <trkpt lat="47.16891" lon="-1.63009">
        <ele>73</ele>
        <time>2021-08-28T09:33:33.000Z</time>
      </trkpt>
      <trkpt lat="47.1689" lon="-1.63028">
        <ele>74</ele>
        <time>2021-08-28T09:33:35.000Z</time>
      </trkpt>
      <trkpt lat="47.1689" lon="-1.63047">
        <ele>73</ele>
        <time>2021-08-28T09:33:37.000Z</time>
      </trkpt>
      <trkpt lat="47.16891" lon="-1.63066">
        <ele>73</ele>
        <time>2021-08-28T09:33:39.000Z</time>
      </trkpt>
      <trkpt lat="47.16894" lon="-1.63084">
        <ele>73</ele>
        <time>2021-08-28T09:33:41.000Z</time>
      </trkpt>
      <trkpt lat="47.16897" lon="-1.63103">
        <ele>73</ele>
        <time>2021-08-28T09:33:43.000Z</time>
      </trkpt>
      <trkpt lat="47.16901" lon="-1.63121">
        <ele>74</ele>
        <time>2021-08-28T09:33:45.000Z</time>
      </trkpt>
      <trkpt lat="47.16905" lon="-1.63138">
        <ele>74</ele>
        <time>2021-08-28T09:33:47.000Z</time>
      </trkpt>
      <trkpt lat="47.16911" lon="-1.63154">
        <ele>74</ele>
        <time>2021-08-28T09:33:49.000Z</time>
      </trkpt>
      <trkpt lat="47.16918" lon="-1.6317">
        <ele>74</ele>
        <time>2021-08-28T09:33:51.000Z</time>
      </trkpt>
      <trkpt lat="47.16925" lon="-1.63184">
        <ele>74</ele>
        <time>2021-08-28T09:33:53.000Z</time>
      </trkpt>
      <trkpt lat="47.16933" lon="-1.63198">
        <ele>74</ele>
        <time>2021-08-28T09:33:55.000Z</time>
      </trkpt>
      <trkpt lat="47.16941" lon="-1.63211">
        <ele>74</ele>
        <time>2021-08-28T09:33:57.000Z</time>
      </trkpt>
      <trkpt lat="47.16949" lon="-1.63223">
        <ele>74</ele>
        <time>2021-08-28T09:33:59.000Z</time>
      </trkpt>
      <trkpt lat="47.16957" lon="-1.63235">
        <ele>74</ele>
        <time>2021-08-28T09:34:01.000Z</time>
      </trkpt>
      <trkpt lat="47.16965" lon="-1.63245">
        <ele>74</ele>
        <time>2021-08-28T09:34:03.000Z</time>
      </trkpt>
      <trkpt lat="47.16971" lon="-1.63256">
        <ele>75</ele>
        <time>2021-08-28T09:34:06.000Z</time>
      </trkpt>
      <trkpt lat="47.16964" lon="-1.6327">
        <ele>75</ele>
        <time>2021-08-28T09:34:08.000Z</time>
      </trkpt>
      <trkpt lat="47.16956" lon="-1.63282">
        <ele>75</ele>
        <time>2021-08-28T09:34:10.000Z</time>
      </trkpt>
      <trkpt lat="47.16947" lon="-1.63297">
        <ele>75</ele>
        <time>2021-08-28T09:34:12.000Z</time>
      </trkpt>
      <trkpt lat="47.16938" lon="-1.6331">
        <ele>75</ele>
        <time>2021-08-28T09:34:14.000Z</time>
      </trkpt>
      <trkpt lat="47.16929" lon="-1.63325">
        <ele>75</ele>
        <time>2021-08-28T09:34:16.000Z</time>
      </trkpt>
      <trkpt lat="47.1692" lon="-1.63338">
        <ele>75</ele>
        <time>2021-08-28T09:34:18.000Z</time>
      </trkpt>
      <trkpt lat="47.16911" lon="-1.63351">
        <ele>76</ele>
        <time>2021-08-28T09:34:20.000Z</time>
      </trkpt>
      <trkpt lat="47.16902" lon="-1.63365">
        <ele>76</ele>
        <time>2021-08-28T09:34:22.000Z</time>
      </trkpt>
      <trkpt lat="47.16894" lon="-1.63378">
        <ele>75</ele>
        <time>2021-08-28T09:34:24.000Z</time>
      </trkpt>
      <trkpt lat="47.16885" lon="-1.63392">
        <ele>76</ele>
        <time>2021-08-28T09:34:26.000Z</time>
      </trkpt>
      <trkpt lat="47.16877" lon="-1.63407">
        <ele>76</ele>
        <time>2021-08-28T09:34:28.000Z</time>
      </trkpt>
      <trkpt lat="47.16868" lon="-1.63421">
        <ele>77</ele>
        <time>2021-08-28T09:34:30.000Z</time>
      </trkpt>
      <trkpt lat="47.1686" lon="-1.63436">
        <ele>77</ele>
        <time>2021-08-28T09:34:32.000Z</time>
      </trkpt>
      <trkpt lat="47.16852" lon="-1.63451">
        <ele>77</ele>
        <time>2021-08-28T09:34:34.000Z</time>
      </trkpt>
      <trkpt lat="47.16843" lon="-1.63466">
        <ele>77</ele>
        <time>2021-08-28T09:34:36.000Z</time>
      </trkpt>
      <trkpt lat="47.16834" lon="-1.6348">
        <ele>77</ele>
        <time>2021-08-28T09:34:38.000Z</time>
      </trkpt>
      <trkpt lat="47.16826" lon="-1.63494">
        <ele>77</ele>
        <time>2021-08-28T09:34:40.000Z</time>
      </trkpt>
      <trkpt lat="47.16817" lon="-1.63508">
        <ele>77</ele>
        <time>2021-08-28T09:34:42.000Z</time>
      </trkpt>
      <trkpt lat="47.16809" lon="-1.63523">
        <ele>76</ele>
        <time>2021-08-28T09:34:44.000Z</time>
      </trkpt>
      <trkpt lat="47.168" lon="-1.63538">
        <ele>77</ele>
        <time>2021-08-28T09:34:46.000Z</time>
      </trkpt>
      <trkpt lat="47.16791" lon="-1.63552">
        <ele>77</ele>
        <time>2021-08-28T09:34:48.000Z</time>
      </trkpt>
      <trkpt lat="47.16782" lon="-1.63568">
        <ele>77</ele>
        <time>2021-08-28T09:34:50.000Z</time>
      </trkpt>
      <trkpt lat="47.16774" lon="-1.63583">
        <ele>77</ele>
        <time>2021-08-28T09:34:52.000Z</time>
      </trkpt>
      <trkpt lat="47.16765" lon="-1.63597">
        <ele>77</ele>
        <time>2021-08-28T09:34:54.000Z</time>
      </trkpt>
      <trkpt lat="47.16756" lon="-1.63611">
        <ele>77</ele>
        <time>2021-08-28T09:34:56.000Z</time>
      </trkpt>
      <trkpt lat="47.16748" lon="-1.63624">
        <ele>77</ele>
        <time>2021-08-28T09:34:58.000Z</time>
      </trkpt>
      <trkpt lat="47.16749" lon="-1.63641">
        <ele>76</ele>
        <time>2021-08-28T09:35:00.000Z</time>
      </trkpt>
      <trkpt lat="47.16761" lon="-1.63648">
        <ele>76</ele>
        <time>2021-08-28T09:35:02.000Z</time>
      </trkpt>
      <trkpt lat="47.16773" lon="-1.63652">
        <ele>76</ele>
        <time>2021-08-28T09:35:04.000Z</time>
      </trkpt>
      <trkpt lat="47.16785" lon="-1.63657">
        <ele>75</ele>
        <time>2021-08-28T09:35:06.000Z</time>
      </trkpt>
      <trkpt lat="47.16798" lon="-1.63662">
        <ele>75</ele>
        <time>2021-08-28T09:35:08.000Z</time>
      </trkpt>
      <trkpt lat="47.16811" lon="-1.63666">
        <ele>76</ele>
        <time>2021-08-28T09:35:10.000Z</time>
      </trkpt>
      <trkpt lat="47.16824" lon="-1.63671">
        <ele>76</ele>
        <time>2021-08-28T09:35:12.000Z</time>
      </trkpt>
      <trkpt lat="47.16836" lon="-1.63676">
        <ele>76</ele>
        <time>2021-08-28T09:35:14.000Z</time>
      </trkpt>
      <trkpt lat="47.16849" lon="-1.63681">
        <ele>76</ele>
        <time>2021-08-28T09:35:16.000Z</time>
      </trkpt>
      <trkpt lat="47.16863" lon="-1.63686">
        <ele>75</ele>
        <time>2021-08-28T09:35:18.000Z</time>
      </trkpt>
      <trkpt lat="47.16876" lon="-1.63691">
        <ele>75</ele>
        <time>2021-08-28T09:35:20.000Z</time>
      </trkpt>
      <trkpt lat="47.16889" lon="-1.63695">
        <ele>75</ele>
        <time>2021-08-28T09:35:22.000Z</time>
      </trkpt>
      <trkpt lat="47.16901" lon="-1.63699">
        <ele>75</ele>
        <time>2021-08-28T09:35:24.000Z</time>
      </trkpt>
      <trkpt lat="47.16914" lon="-1.63704">
        <ele>75</ele>
        <time>2021-08-28T09:35:26.000Z</time>
      </trkpt>
      <trkpt lat="47.16927" lon="-1.63709">
        <ele>75</ele>
        <time>2021-08-28T09:35:28.000Z</time>
      </trkpt>
      <trkpt lat="47.16941" lon="-1.63715">
        <ele>76</ele>
        <time>2021-08-28T09:35:30.000Z</time>
      </trkpt>
      <trkpt lat="47.16954" lon="-1.6372">
        <ele>75</ele>
        <time>2021-08-28T09:35:32.000Z</time>
      </trkpt>
      <trkpt lat="47.16967" lon="-1.63725">
        <ele>75</ele>
        <time>2021-08-28T09:35:34.000Z</time>
      </trkpt>
      <trkpt lat="47.1698" lon="-1.63729">
        <ele>75</ele>
        <time>2021-08-28T09:35:36.000Z</time>
      </trkpt>
      <trkpt lat="47.16993" lon="-1.63734">
        <ele>75</ele>
        <time>2021-08-28T09:35:38.000Z</time>
      </trkpt>
      <trkpt lat="47.17006" lon="-1.63739">
        <ele>76</ele>
        <time>2021-08-28T09:35:40.000Z</time>
      </trkpt>
      <trkpt lat="47.17019" lon="-1.63744">
        <ele>76</ele>
        <time>2021-08-28T09:35:42.000Z</time>
      </trkpt>
      <trkpt lat="47.17031" lon="-1.63748">
        <ele>77</ele>
        <time>2021-08-28T09:35:44.000Z</time>
      </trkpt>
      <trkpt lat="47.17044" lon="-1.63753">
        <ele>77</ele>
        <time>2021-08-28T09:35:46.000Z</time>
      </trkpt>
      <trkpt lat="47.17056" lon="-1.63762">
        <ele>77</ele>
        <time>2021-08-28T09:35:48.000Z</time>
      </trkpt>
      <trkpt lat="47.17066" lon="-1.63774">
        <ele>77</ele>
        <time>2021-08-28T09:35:50.000Z</time>
      </trkpt>
      <trkpt lat="47.17072" lon="-1.63791">
        <ele>77</ele>
        <time>2021-08-28T09:35:52.000Z</time>
      </trkpt>
      <trkpt lat="47.17077" lon="-1.6381">
        <ele>77</ele>
        <time>2021-08-28T09:35:54.000Z</time>
      </trkpt>
      <trkpt lat="47.17082" lon="-1.63827">
        <ele>77</ele>
        <time>2021-08-28T09:35:56.000Z</time>
      </trkpt>
      <trkpt lat="47.17089" lon="-1.63844">
        <ele>76</ele>
        <time>2021-08-28T09:35:58.000Z</time>
      </trkpt>
      <trkpt lat="47.17094" lon="-1.63861">
        <ele>76</ele>
        <time>2021-08-28T09:36:00.000Z</time>
      </trkpt>
      <trkpt lat="47.171" lon="-1.63878">
        <ele>76</ele>
        <time>2021-08-28T09:36:02.000Z</time>
      </trkpt>
      <trkpt lat="47.17106" lon="-1.63895">
        <ele>76</ele>
        <time>2021-08-28T09:36:04.000Z</time>
      </trkpt>
      <trkpt lat="47.17112" lon="-1.63911">
        <ele>76</ele>
        <time>2021-08-28T09:36:06.000Z</time>
      </trkpt>
      <trkpt lat="47.17118" lon="-1.63926">
        <ele>76</ele>
        <time>2021-08-28T09:36:08.000Z</time>
      </trkpt>
      <trkpt lat="47.17125" lon="-1.63937">
        <ele>76</ele>
        <time>2021-08-28T09:36:10.000Z</time>
      </trkpt>
      <trkpt lat="47.17134" lon="-1.63943">
        <ele>76</ele>
        <time>2021-08-28T09:36:12.000Z</time>
      </trkpt>
      <trkpt lat="47.17141" lon="-1.6396">
        <ele>76</ele>
        <time>2021-08-28T09:36:15.000Z</time>
      </trkpt>
      <trkpt lat="47.17141" lon="-1.63978">
        <ele>76</ele>
        <time>2021-08-28T09:36:17.000Z</time>
      </trkpt>
      <trkpt lat="47.17141" lon="-1.63996">
        <ele>76</ele>
        <time>2021-08-28T09:36:19.000Z</time>
      </trkpt>
      <trkpt lat="47.17138" lon="-1.64015">
        <ele>76</ele>
        <time>2021-08-28T09:36:21.000Z</time>
      </trkpt>
      <trkpt lat="47.17136" lon="-1.64035">
        <ele>76</ele>
        <time>2021-08-28T09:36:23.000Z</time>
      </trkpt>
      <trkpt lat="47.17134" lon="-1.64055">
        <ele>76</ele>
        <time>2021-08-28T09:36:25.000Z</time>
      </trkpt>
      <trkpt lat="47.17132" lon="-1.64075">
        <ele>77</ele>
        <time>2021-08-28T09:36:27.000Z</time>
      </trkpt>
      <trkpt lat="47.1713" lon="-1.64096">
        <ele>77</ele>
        <time>2021-08-28T09:36:29.000Z</time>
      </trkpt>
      <trkpt lat="47.17129" lon="-1.64115">
        <ele>77</ele>
        <time>2021-08-28T09:36:31.000Z</time>
      </trkpt>
      <trkpt lat="47.17127" lon="-1.64135">
        <ele>77</ele>
        <time>2021-08-28T09:36:33.000Z</time>
      </trkpt>
      <trkpt lat="47.17125" lon="-1.64155">
        <ele>77</ele>
        <time>2021-08-28T09:36:35.000Z</time>
      </trkpt>
      <trkpt lat="47.17123" lon="-1.64176">
        <ele>77</ele>
        <time>2021-08-28T09:36:37.000Z</time>
      </trkpt>
      <trkpt lat="47.1712" lon="-1.64196">
        <ele>76</ele>
        <time>2021-08-28T09:36:39.000Z</time>
      </trkpt>
      <trkpt lat="47.17117" lon="-1.64216">
        <ele>76</ele>
        <time>2021-08-28T09:36:41.000Z</time>
      </trkpt>
      <trkpt lat="47.17114" lon="-1.64236">
        <ele>77</ele>
        <time>2021-08-28T09:36:43.000Z</time>
      </trkpt>
      <trkpt lat="47.17112" lon="-1.64257">
        <ele>77</ele>
        <time>2021-08-28T09:36:45.000Z</time>
      </trkpt>
      <trkpt lat="47.17111" lon="-1.64278">
        <ele>76</ele>
        <time>2021-08-28T09:36:47.000Z</time>
      </trkpt>
      <trkpt lat="47.17109" lon="-1.64299">
        <ele>77</ele>
        <time>2021-08-28T09:36:49.000Z</time>
      </trkpt>
      <trkpt lat="47.17107" lon="-1.64319">
        <ele>77</ele>
        <time>2021-08-28T09:36:51.000Z</time>
      </trkpt>
      <trkpt lat="47.17105" lon="-1.64339">
        <ele>77</ele>
        <time>2021-08-28T09:36:53.000Z</time>
      </trkpt>
      <trkpt lat="47.17102" lon="-1.64359">
        <ele>77</ele>
        <time>2021-08-28T09:36:55.000Z</time>
      </trkpt>
      <trkpt lat="47.17101" lon="-1.6438">
        <ele>78</ele>
        <time>2021-08-28T09:36:57.000Z</time>
      </trkpt>
      <trkpt lat="47.17099" lon="-1.64401">
        <ele>78</ele>
        <time>2021-08-28T09:36:59.000Z</time>
      </trkpt>
      <trkpt lat="47.17097" lon="-1.64422">
        <ele>77</ele>
        <time>2021-08-28T09:37:01.000Z</time>
      </trkpt>
      <trkpt lat="47.17096" lon="-1.64443">
        <ele>78</ele>
        <time>2021-08-28T09:37:03.000Z</time>
      </trkpt>
      <trkpt lat="47.17095" lon="-1.64464">
        <ele>78</ele>
        <time>2021-08-28T09:37:05.000Z</time>
      </trkpt>
      <trkpt lat="47.17094" lon="-1.64487">
        <ele>77</ele>
        <time>2021-08-28T09:37:07.000Z</time>
      </trkpt>
      <trkpt lat="47.17093" lon="-1.64509">
        <ele>78</ele>
        <time>2021-08-28T09:37:09.000Z</time>
      </trkpt>
      <trkpt lat="47.17092" lon="-1.64531">
        <ele>77</ele>
        <time>2021-08-28T09:37:11.000Z</time>
      </trkpt>
      <trkpt lat="47.17091" lon="-1.64553">
        <ele>77</ele>
        <time>2021-08-28T09:37:13.000Z</time>
      </trkpt>
      <trkpt lat="47.17091" lon="-1.64576">
        <ele>76</ele>
        <time>2021-08-28T09:37:15.000Z</time>
      </trkpt>
      <trkpt lat="47.1709" lon="-1.64598">
        <ele>76</ele>
        <time>2021-08-28T09:37:17.000Z</time>
      </trkpt>
      <trkpt lat="47.1709" lon="-1.6462">
        <ele>76</ele>
        <time>2021-08-28T09:37:19.000Z</time>
      </trkpt>
      <trkpt lat="47.1709" lon="-1.64642">
        <ele>76</ele>
        <time>2021-08-28T09:37:21.000Z</time>
      </trkpt>
      <trkpt lat="47.17091" lon="-1.64664">
        <ele>76</ele>
        <time>2021-08-28T09:37:23.000Z</time>
      </trkpt>
      <trkpt lat="47.17092" lon="-1.64686">
        <ele>76</ele>
        <time>2021-08-28T09:37:25.000Z</time>
      </trkpt>
      <trkpt lat="47.17092" lon="-1.64708">
        <ele>75</ele>
        <time>2021-08-28T09:37:27.000Z</time>
      </trkpt>
      <trkpt lat="47.17093" lon="-1.64731">
        <ele>75</ele>
        <time>2021-08-28T09:37:29.000Z</time>
      </trkpt>
      <trkpt lat="47.17094" lon="-1.64752">
        <ele>75</ele>
        <time>2021-08-28T09:37:31.000Z</time>
      </trkpt>
      <trkpt lat="47.17095" lon="-1.64772">
        <ele>75</ele>
        <time>2021-08-28T09:37:33.000Z</time>
      </trkpt>
      <trkpt lat="47.17097" lon="-1.64793">
        <ele>76</ele>
        <time>2021-08-28T09:37:35.000Z</time>
      </trkpt>
      <trkpt lat="47.17098" lon="-1.64814">
        <ele>76</ele>
        <time>2021-08-28T09:37:37.000Z</time>
      </trkpt>
      <trkpt lat="47.171" lon="-1.64837">
        <ele>76</ele>
        <time>2021-08-28T09:37:39.000Z</time>
      </trkpt>
      <trkpt lat="47.17101" lon="-1.64859">
        <ele>75</ele>
        <time>2021-08-28T09:37:41.000Z</time>
      </trkpt>
      <trkpt lat="47.17103" lon="-1.64881">
        <ele>75</ele>
        <time>2021-08-28T09:37:43.000Z</time>
      </trkpt>
      <trkpt lat="47.17104" lon="-1.64903">
        <ele>75</ele>
        <time>2021-08-28T09:37:45.000Z</time>
      </trkpt>
      <trkpt lat="47.17105" lon="-1.64924">
        <ele>76</ele>
        <time>2021-08-28T09:37:47.000Z</time>
      </trkpt>
      <trkpt lat="47.17106" lon="-1.64946">
        <ele>76</ele>
        <time>2021-08-28T09:37:49.000Z</time>
      </trkpt>
      <trkpt lat="47.17108" lon="-1.64968">
        <ele>76</ele>
        <time>2021-08-28T09:37:51.000Z</time>
      </trkpt>
      <trkpt lat="47.17109" lon="-1.6499">
        <ele>76</ele>
        <time>2021-08-28T09:37:53.000Z</time>
      </trkpt>
      <trkpt lat="47.17111" lon="-1.65012">
        <ele>75</ele>
        <time>2021-08-28T09:37:55.000Z</time>
      </trkpt>
      <trkpt lat="47.17113" lon="-1.65034">
        <ele>75</ele>
        <time>2021-08-28T09:37:57.000Z</time>
      </trkpt>
      <trkpt lat="47.17114" lon="-1.65055">
        <ele>75</ele>
        <time>2021-08-28T09:37:59.000Z</time>
      </trkpt>
      <trkpt lat="47.17116" lon="-1.65077">
        <ele>75</ele>
        <time>2021-08-28T09:38:01.000Z</time>
      </trkpt>
      <trkpt lat="47.17117" lon="-1.65099">
        <ele>75</ele>
        <time>2021-08-28T09:38:03.000Z</time>
      </trkpt>
      <trkpt lat="47.17119" lon="-1.65121">
        <ele>75</ele>
        <time>2021-08-28T09:38:05.000Z</time>
      </trkpt>
      <trkpt lat="47.1712" lon="-1.65143">
        <ele>75</ele>
        <time>2021-08-28T09:38:07.000Z</time>
      </trkpt>
      <trkpt lat="47.17122" lon="-1.65164">
        <ele>75</ele>
        <time>2021-08-28T09:38:09.000Z</time>
      </trkpt>
      <trkpt lat="47.17124" lon="-1.65185">
        <ele>76</ele>
        <time>2021-08-28T09:38:11.000Z</time>
      </trkpt>
      <trkpt lat="47.17125" lon="-1.65207">
        <ele>76</ele>
        <time>2021-08-28T09:38:13.000Z</time>
      </trkpt>
      <trkpt lat="47.17127" lon="-1.65228">
        <ele>76</ele>
        <time>2021-08-28T09:38:15.000Z</time>
      </trkpt>
      <trkpt lat="47.1713" lon="-1.65247">
        <ele>77</ele>
        <time>2021-08-28T09:38:17.000Z</time>
      </trkpt>
      <trkpt lat="47.17135" lon="-1.65265">
        <ele>77</ele>
        <time>2021-08-28T09:38:19.000Z</time>
      </trkpt>
      <trkpt lat="47.17144" lon="-1.65279">
        <ele>77</ele>
        <time>2021-08-28T09:38:21.000Z</time>
      </trkpt>
      <trkpt lat="47.17155" lon="-1.65291">
        <ele>76</ele>
        <time>2021-08-28T09:38:23.000Z</time>
      </trkpt>
      <trkpt lat="47.17167" lon="-1.65302">
        <ele>77</ele>
        <time>2021-08-28T09:38:25.000Z</time>
      </trkpt>
      <trkpt lat="47.17176" lon="-1.65317">
        <ele>77</ele>
        <time>2021-08-28T09:38:27.000Z</time>
      </trkpt>
      <trkpt lat="47.17181" lon="-1.65338">
        <ele>76</ele>
        <time>2021-08-28T09:38:29.000Z</time>
      </trkpt>
      <trkpt lat="47.17181" lon="-1.6536">
        <ele>76</ele>
        <time>2021-08-28T09:38:31.000Z</time>
      </trkpt>
      <trkpt lat="47.17179" lon="-1.65381">
        <ele>76</ele>
        <time>2021-08-28T09:38:33.000Z</time>
      </trkpt>
      <trkpt lat="47.17176" lon="-1.65403">
        <ele>77</ele>
        <time>2021-08-28T09:38:35.000Z</time>
      </trkpt>
      <trkpt lat="47.17173" lon="-1.65424">
        <ele>77</ele>
        <time>2021-08-28T09:38:37.000Z</time>
      </trkpt>
      <trkpt lat="47.17171" lon="-1.65445">
        <ele>77</ele>
        <time>2021-08-28T09:38:39.000Z</time>
      </trkpt>
      <trkpt lat="47.17168" lon="-1.65467">
        <ele>77</ele>
        <time>2021-08-28T09:38:41.000Z</time>
      </trkpt>
      <trkpt lat="47.17166" lon="-1.65489">
        <ele>77</ele>
        <time>2021-08-28T09:38:43.000Z</time>
      </trkpt>
      <trkpt lat="47.17164" lon="-1.6551">
        <ele>77</ele>
        <time>2021-08-28T09:38:45.000Z</time>
      </trkpt>
      <trkpt lat="47.17162" lon="-1.65531">
        <ele>78</ele>
        <time>2021-08-28T09:38:47.000Z</time>
      </trkpt>
      <trkpt lat="47.1716" lon="-1.65551">
        <ele>78</ele>
        <time>2021-08-28T09:38:49.000Z</time>
      </trkpt>
      <trkpt lat="47.17159" lon="-1.65572">
        <ele>78</ele>
        <time>2021-08-28T09:38:51.000Z</time>
      </trkpt>
      <trkpt lat="47.17158" lon="-1.65593">
        <ele>78</ele>
        <time>2021-08-28T09:38:53.000Z</time>
      </trkpt>
      <trkpt lat="47.17157" lon="-1.65614">
        <ele>78</ele>
        <time>2021-08-28T09:38:55.000Z</time>
      </trkpt>
      <trkpt lat="47.17157" lon="-1.65636">
        <ele>78</ele>
        <time>2021-08-28T09:38:57.000Z</time>
      </trkpt>
      <trkpt lat="47.17157" lon="-1.65657">
        <ele>78</ele>
        <time>2021-08-28T09:38:59.000Z</time>
      </trkpt>
      <trkpt lat="47.17158" lon="-1.65677">
        <ele>78</ele>
        <time>2021-08-28T09:39:01.000Z</time>
      </trkpt>
      <trkpt lat="47.17158" lon="-1.65699">
        <ele>78</ele>
        <time>2021-08-28T09:39:03.000Z</time>
      </trkpt>
      <trkpt lat="47.1716" lon="-1.6572">
        <ele>78</ele>
        <time>2021-08-28T09:39:05.000Z</time>
      </trkpt>
      <trkpt lat="47.17162" lon="-1.65741">
        <ele>78</ele>
        <time>2021-08-28T09:39:07.000Z</time>
      </trkpt>
      <trkpt lat="47.17163" lon="-1.65762">
        <ele>78</ele>
        <time>2021-08-28T09:39:09.000Z</time>
      </trkpt>
      <trkpt lat="47.17166" lon="-1.65783">
        <ele>78</ele>
        <time>2021-08-28T09:39:11.000Z</time>
      </trkpt>
      <trkpt lat="47.17168" lon="-1.65804">
        <ele>78</ele>
        <time>2021-08-28T09:39:13.000Z</time>
      </trkpt>
      <trkpt lat="47.17171" lon="-1.65824">
        <ele>78</ele>
        <time>2021-08-28T09:39:15.000Z</time>
      </trkpt>
      <trkpt lat="47.17174" lon="-1.65845">
        <ele>78</ele>
        <time>2021-08-28T09:39:17.000Z</time>
      </trkpt>
      <trkpt lat="47.17178" lon="-1.65865">
        <ele>78</ele>
        <time>2021-08-28T09:39:19.000Z</time>
      </trkpt>
      <trkpt lat="47.17182" lon="-1.65885">
        <ele>78</ele>
        <time>2021-08-28T09:39:21.000Z</time>
      </trkpt>
      <trkpt lat="47.17185" lon="-1.65906">
        <ele>78</ele>
        <time>2021-08-28T09:39:23.000Z</time>
      </trkpt>
      <trkpt lat="47.17189" lon="-1.65925">
        <ele>78</ele>
        <time>2021-08-28T09:39:25.000Z</time>
      </trkpt>
      <trkpt lat="47.17193" lon="-1.65946">
        <ele>78</ele>
        <time>2021-08-28T09:39:27.000Z</time>
      </trkpt>
      <trkpt lat="47.17197" lon="-1.65967">
        <ele>78</ele>
        <time>2021-08-28T09:39:29.000Z</time>
      </trkpt>
      <trkpt lat="47.172" lon="-1.65987">
        <ele>78</ele>
        <time>2021-08-28T09:39:31.000Z</time>
      </trkpt>
      <trkpt lat="47.17204" lon="-1.66007">
        <ele>78</ele>
        <time>2021-08-28T09:39:33.000Z</time>
      </trkpt>
      <trkpt lat="47.17208" lon="-1.66027">
        <ele>78</ele>
        <time>2021-08-28T09:39:35.000Z</time>
      </trkpt>
      <trkpt lat="47.17212" lon="-1.66046">
        <ele>78</ele>
        <time>2021-08-28T09:39:37.000Z</time>
      </trkpt>
      <trkpt lat="47.17215" lon="-1.66067">
        <ele>77</ele>
        <time>2021-08-28T09:39:39.000Z</time>
      </trkpt>
      <trkpt lat="47.17218" lon="-1.66088">
        <ele>77</ele>
        <time>2021-08-28T09:39:41.000Z</time>
      </trkpt>
      <trkpt lat="47.17222" lon="-1.66109">
        <ele>77</ele>
        <time>2021-08-28T09:39:43.000Z</time>
      </trkpt>
      <trkpt lat="47.17228" lon="-1.66127">
        <ele>77</ele>
        <time>2021-08-28T09:39:45.000Z</time>
      </trkpt>
      <trkpt lat="47.17234" lon="-1.66146">
        <ele>78</ele>
        <time>2021-08-28T09:39:47.000Z</time>
      </trkpt>
      <trkpt lat="47.17239" lon="-1.66165">
        <ele>78</ele>
        <time>2021-08-28T09:39:49.000Z</time>
      </trkpt>
      <trkpt lat="47.17248" lon="-1.66181">
        <ele>78</ele>
        <time>2021-08-28T09:39:51.000Z</time>
      </trkpt>
      <trkpt lat="47.17256" lon="-1.66196">
        <ele>78</ele>
        <time>2021-08-28T09:39:53.000Z</time>
      </trkpt>
      <trkpt lat="47.17263" lon="-1.66208">
        <ele>79</ele>
        <time>2021-08-28T09:39:55.000Z</time>
      </trkpt>
      <trkpt lat="47.17268" lon="-1.6622">
        <ele>79</ele>
        <time>2021-08-28T09:39:57.000Z</time>
      </trkpt>
      <trkpt lat="47.17274" lon="-1.6623">
        <ele>80</ele>
        <time>2021-08-28T09:39:59.000Z</time>
      </trkpt>
      <trkpt lat="47.1728" lon="-1.66242">
        <ele>80</ele>
        <time>2021-08-28T09:40:01.000Z</time>
      </trkpt>
      <trkpt lat="47.17288" lon="-1.66254">
        <ele>82</ele>
        <time>2021-08-28T09:40:03.000Z</time>
      </trkpt>
      <trkpt lat="47.17296" lon="-1.66268">
        <ele>84</ele>
        <time>2021-08-28T09:40:05.000Z</time>
      </trkpt>
      <trkpt lat="47.17306" lon="-1.66282">
        <ele>85</ele>
        <time>2021-08-28T09:40:07.000Z</time>
      </trkpt>
      <trkpt lat="47.17315" lon="-1.66298">
        <ele>85</ele>
        <time>2021-08-28T09:40:09.000Z</time>
      </trkpt>
      <trkpt lat="47.17323" lon="-1.66314">
        <ele>84</ele>
        <time>2021-08-28T09:40:11.000Z</time>
      </trkpt>
      <trkpt lat="47.17331" lon="-1.6633">
        <ele>84</ele>
        <time>2021-08-28T09:40:13.000Z</time>
      </trkpt>
      <trkpt lat="47.1734" lon="-1.66346">
        <ele>84</ele>
        <time>2021-08-28T09:40:15.000Z</time>
      </trkpt>
      <trkpt lat="47.17348" lon="-1.66362">
        <ele>83</ele>
        <time>2021-08-28T09:40:17.000Z</time>
      </trkpt>
      <trkpt lat="47.17355" lon="-1.66378">
        <ele>83</ele>
        <time>2021-08-28T09:40:19.000Z</time>
      </trkpt>
      <trkpt lat="47.17362" lon="-1.66393">
        <ele>83</ele>
        <time>2021-08-28T09:40:21.000Z</time>
      </trkpt>
      <trkpt lat="47.17375" lon="-1.66415">
        <ele>83</ele>
        <time>2021-08-28T09:40:24.000Z</time>
      </trkpt>
      <trkpt lat="47.17383" lon="-1.6643">
        <ele>83</ele>
        <time>2021-08-28T09:40:26.000Z</time>
      </trkpt>
      <trkpt lat="47.17392" lon="-1.66446">
        <ele>83</ele>
        <time>2021-08-28T09:40:28.000Z</time>
      </trkpt>
      <trkpt lat="47.174" lon="-1.66463">
        <ele>82</ele>
        <time>2021-08-28T09:40:30.000Z</time>
      </trkpt>
      <trkpt lat="47.17409" lon="-1.66479">
        <ele>82</ele>
        <time>2021-08-28T09:40:32.000Z</time>
      </trkpt>
      <trkpt lat="47.17418" lon="-1.66495">
        <ele>81</ele>
        <time>2021-08-28T09:40:34.000Z</time>
      </trkpt>
      <trkpt lat="47.17427" lon="-1.66511">
        <ele>82</ele>
        <time>2021-08-28T09:40:36.000Z</time>
      </trkpt>
      <trkpt lat="47.17435" lon="-1.66526">
        <ele>82</ele>
        <time>2021-08-28T09:40:38.000Z</time>
      </trkpt>
      <trkpt lat="47.17443" lon="-1.66542">
        <ele>82</ele>
        <time>2021-08-28T09:40:40.000Z</time>
      </trkpt>
      <trkpt lat="47.17451" lon="-1.66557">
        <ele>82</ele>
        <time>2021-08-28T09:40:42.000Z</time>
      </trkpt>
      <trkpt lat="47.1746" lon="-1.66572">
        <ele>82</ele>
        <time>2021-08-28T09:40:44.000Z</time>
      </trkpt>
      <trkpt lat="47.17473" lon="-1.66596">
        <ele>83</ele>
        <time>2021-08-28T09:40:47.000Z</time>
      </trkpt>
      <trkpt lat="47.17481" lon="-1.66612">
        <ele>82</ele>
        <time>2021-08-28T09:40:49.000Z</time>
      </trkpt>
      <trkpt lat="47.17489" lon="-1.66628">
        <ele>82</ele>
        <time>2021-08-28T09:40:51.000Z</time>
      </trkpt>
      <trkpt lat="47.17498" lon="-1.66644">
        <ele>82</ele>
        <time>2021-08-28T09:40:53.000Z</time>
      </trkpt>
      <trkpt lat="47.17506" lon="-1.6666">
        <ele>82</ele>
        <time>2021-08-28T09:40:55.000Z</time>
      </trkpt>
      <trkpt lat="47.17515" lon="-1.66675">
        <ele>81</ele>
        <time>2021-08-28T09:40:57.000Z</time>
      </trkpt>
      <trkpt lat="47.17523" lon="-1.66691">
        <ele>81</ele>
        <time>2021-08-28T09:40:59.000Z</time>
      </trkpt>
      <trkpt lat="47.17532" lon="-1.66706">
        <ele>81</ele>
        <time>2021-08-28T09:41:01.000Z</time>
      </trkpt>
      <trkpt lat="47.1754" lon="-1.66722">
        <ele>81</ele>
        <time>2021-08-28T09:41:03.000Z</time>
      </trkpt>
      <trkpt lat="47.17549" lon="-1.66738">
        <ele>80</ele>
        <time>2021-08-28T09:41:05.000Z</time>
      </trkpt>
      <trkpt lat="47.17558" lon="-1.66754">
        <ele>80</ele>
        <time>2021-08-28T09:41:07.000Z</time>
      </trkpt>
      <trkpt lat="47.17567" lon="-1.66771">
        <ele>80</ele>
        <time>2021-08-28T09:41:09.000Z</time>
      </trkpt>
      <trkpt lat="47.17575" lon="-1.66787">
        <ele>80</ele>
        <time>2021-08-28T09:41:11.000Z</time>
      </trkpt>
      <trkpt lat="47.17584" lon="-1.66803">
        <ele>80</ele>
        <time>2021-08-28T09:41:13.000Z</time>
      </trkpt>
      <trkpt lat="47.17592" lon="-1.66819">
        <ele>80</ele>
        <time>2021-08-28T09:41:15.000Z</time>
      </trkpt>
      <trkpt lat="47.176" lon="-1.66835">
        <ele>80</ele>
        <time>2021-08-28T09:41:17.000Z</time>
      </trkpt>
      <trkpt lat="47.17609" lon="-1.66851">
        <ele>80</ele>
        <time>2021-08-28T09:41:19.000Z</time>
      </trkpt>
      <trkpt lat="47.17618" lon="-1.66867">
        <ele>80</ele>
        <time>2021-08-28T09:41:21.000Z</time>
      </trkpt>
      <trkpt lat="47.17626" lon="-1.66883">
        <ele>79</ele>
        <time>2021-08-28T09:41:23.000Z</time>
      </trkpt>
      <trkpt lat="47.17634" lon="-1.66898">
        <ele>80</ele>
        <time>2021-08-28T09:41:25.000Z</time>
      </trkpt>
      <trkpt lat="47.17643" lon="-1.66914">
        <ele>80</ele>
        <time>2021-08-28T09:41:27.000Z</time>
      </trkpt>
      <trkpt lat="47.17651" lon="-1.6693">
        <ele>80</ele>
        <time>2021-08-28T09:41:29.000Z</time>
      </trkpt>
      <trkpt lat="47.17659" lon="-1.66946">
        <ele>80</ele>
        <time>2021-08-28T09:41:31.000Z</time>
      </trkpt>
      <trkpt lat="47.17668" lon="-1.66962">
        <ele>80</ele>
        <time>2021-08-28T09:41:33.000Z</time>
      </trkpt>
      <trkpt lat="47.17676" lon="-1.66979">
        <ele>80</ele>
        <time>2021-08-28T09:41:35.000Z</time>
      </trkpt>
      <trkpt lat="47.17685" lon="-1.66994">
        <ele>79</ele>
        <time>2021-08-28T09:41:37.000Z</time>
      </trkpt>
      <trkpt lat="47.17693" lon="-1.6701">
        <ele>79</ele>
        <time>2021-08-28T09:41:39.000Z</time>
      </trkpt>
      <trkpt lat="47.17702" lon="-1.67027">
        <ele>79</ele>
        <time>2021-08-28T09:41:41.000Z</time>
      </trkpt>
      <trkpt lat="47.17711" lon="-1.67043">
        <ele>79</ele>
        <time>2021-08-28T09:41:43.000Z</time>
      </trkpt>
      <trkpt lat="47.1772" lon="-1.67059">
        <ele>79</ele>
        <time>2021-08-28T09:41:45.000Z</time>
      </trkpt>
      <trkpt lat="47.17728" lon="-1.67075">
        <ele>79</ele>
        <time>2021-08-28T09:41:47.000Z</time>
      </trkpt>
      <trkpt lat="47.17736" lon="-1.67091">
        <ele>79</ele>
        <time>2021-08-28T09:41:49.000Z</time>
      </trkpt>
      <trkpt lat="47.17745" lon="-1.67107">
        <ele>79</ele>
        <time>2021-08-28T09:41:51.000Z</time>
      </trkpt>
      <trkpt lat="47.17754" lon="-1.67123">
        <ele>79</ele>
        <time>2021-08-28T09:41:53.000Z</time>
      </trkpt>
      <trkpt lat="47.17762" lon="-1.67138">
        <ele>78</ele>
        <time>2021-08-28T09:41:55.000Z</time>
      </trkpt>
      <trkpt lat="47.1777" lon="-1.67154">
        <ele>78</ele>
        <time>2021-08-28T09:41:57.000Z</time>
      </trkpt>
      <trkpt lat="47.17778" lon="-1.67171">
        <ele>78</ele>
        <time>2021-08-28T09:41:59.000Z</time>
      </trkpt>
      <trkpt lat="47.17786" lon="-1.67188">
        <ele>78</ele>
        <time>2021-08-28T09:42:01.000Z</time>
      </trkpt>
      <trkpt lat="47.17794" lon="-1.67201">
        <ele>78</ele>
        <time>2021-08-28T09:42:03.000Z</time>
      </trkpt>
      <trkpt lat="47.17801" lon="-1.67211">
        <ele>79</ele>
        <time>2021-08-28T09:42:05.000Z</time>
      </trkpt>
      <trkpt lat="47.17808" lon="-1.67225">
        <ele>78</ele>
        <time>2021-08-28T09:42:07.000Z</time>
      </trkpt>
      <trkpt lat="47.17817" lon="-1.67241">
        <ele>79</ele>
        <time>2021-08-28T09:42:09.000Z</time>
      </trkpt>
      <trkpt lat="47.17826" lon="-1.67259">
        <ele>79</ele>
        <time>2021-08-28T09:42:11.000Z</time>
      </trkpt>
      <trkpt lat="47.17836" lon="-1.67276">
        <ele>79</ele>
        <time>2021-08-28T09:42:13.000Z</time>
      </trkpt>
      <trkpt lat="47.17846" lon="-1.67294">
        <ele>79</ele>
        <time>2021-08-28T09:42:15.000Z</time>
      </trkpt>
      <trkpt lat="47.17855" lon="-1.67311">
        <ele>79</ele>
        <time>2021-08-28T09:42:17.000Z</time>
      </trkpt>
      <trkpt lat="47.17864" lon="-1.67328">
        <ele>79</ele>
        <time>2021-08-28T09:42:19.000Z</time>
      </trkpt>
      <trkpt lat="47.17873" lon="-1.67346">
        <ele>79</ele>
        <time>2021-08-28T09:42:21.000Z</time>
      </trkpt>
      <trkpt lat="47.17882" lon="-1.67362">
        <ele>78</ele>
        <time>2021-08-28T09:42:23.000Z</time>
      </trkpt>
      <trkpt lat="47.17889" lon="-1.67377">
        <ele>78</ele>
        <time>2021-08-28T09:42:25.000Z</time>
      </trkpt>
      <trkpt lat="47.17895" lon="-1.67388">
        <ele>78</ele>
        <time>2021-08-28T09:42:27.000Z</time>
      </trkpt>
      <trkpt lat="47.17903" lon="-1.67399">
        <ele>79</ele>
        <time>2021-08-28T09:42:30.000Z</time>
      </trkpt>
      <trkpt lat="47.17911" lon="-1.67412">
        <ele>79</ele>
        <time>2021-08-28T09:42:32.000Z</time>
      </trkpt>
      <trkpt lat="47.17917" lon="-1.67428">
        <ele>80</ele>
        <time>2021-08-28T09:42:34.000Z</time>
      </trkpt>
      <trkpt lat="47.17922" lon="-1.67448">
        <ele>80</ele>
        <time>2021-08-28T09:42:36.000Z</time>
      </trkpt>
      <trkpt lat="47.17927" lon="-1.67469">
        <ele>80</ele>
        <time>2021-08-28T09:42:38.000Z</time>
      </trkpt>
      <trkpt lat="47.17933" lon="-1.67491">
        <ele>80</ele>
        <time>2021-08-28T09:42:40.000Z</time>
      </trkpt>
      <trkpt lat="47.1794" lon="-1.67512">
        <ele>79</ele>
        <time>2021-08-28T09:42:42.000Z</time>
      </trkpt>
      <trkpt lat="47.17945" lon="-1.67532">
        <ele>79</ele>
        <time>2021-08-28T09:42:44.000Z</time>
      </trkpt>
      <trkpt lat="47.1795" lon="-1.67552">
        <ele>80</ele>
        <time>2021-08-28T09:42:46.000Z</time>
      </trkpt>
      <trkpt lat="47.17957" lon="-1.67572">
        <ele>80</ele>
        <time>2021-08-28T09:42:48.000Z</time>
      </trkpt>
      <trkpt lat="47.17962" lon="-1.67592">
        <ele>80</ele>
        <time>2021-08-28T09:42:50.000Z</time>
      </trkpt>
      <trkpt lat="47.17967" lon="-1.67612">
        <ele>79</ele>
        <time>2021-08-28T09:42:52.000Z</time>
      </trkpt>
      <trkpt lat="47.17972" lon="-1.67632">
        <ele>79</ele>
        <time>2021-08-28T09:42:54.000Z</time>
      </trkpt>
      <trkpt lat="47.17977" lon="-1.67651">
        <ele>79</ele>
        <time>2021-08-28T09:42:56.000Z</time>
      </trkpt>
      <trkpt lat="47.17982" lon="-1.67669">
        <ele>79</ele>
        <time>2021-08-28T09:42:58.000Z</time>
      </trkpt>
      <trkpt lat="47.17988" lon="-1.67687">
        <ele>80</ele>
        <time>2021-08-28T09:43:00.000Z</time>
      </trkpt>
      <trkpt lat="47.17993" lon="-1.67704">
        <ele>80</ele>
        <time>2021-08-28T09:43:02.000Z</time>
      </trkpt>
      <trkpt lat="47.17997" lon="-1.67717">
        <ele>80</ele>
        <time>2021-08-28T09:43:04.000Z</time>
      </trkpt>
      <trkpt lat="47.18007" lon="-1.67728">
        <ele>80</ele>
        <time>2021-08-28T09:43:07.000Z</time>
      </trkpt>
      <trkpt lat="47.18017" lon="-1.67725">
        <ele>79</ele>
        <time>2021-08-28T09:43:09.000Z</time>
      </trkpt>
      <trkpt lat="47.18028" lon="-1.67719">
        <ele>78</ele>
        <time>2021-08-28T09:43:11.000Z</time>
      </trkpt>
      <trkpt lat="47.1804" lon="-1.67712">
        <ele>78</ele>
        <time>2021-08-28T09:43:13.000Z</time>
      </trkpt>
      <trkpt lat="47.18053" lon="-1.67704">
        <ele>78</ele>
        <time>2021-08-28T09:43:15.000Z</time>
      </trkpt>
      <trkpt lat="47.18065" lon="-1.67696">
        <ele>78</ele>
        <time>2021-08-28T09:43:17.000Z</time>
      </trkpt>
      <trkpt lat="47.18077" lon="-1.67689">
        <ele>78</ele>
        <time>2021-08-28T09:43:19.000Z</time>
      </trkpt>
      <trkpt lat="47.1809" lon="-1.67681">
        <ele>77</ele>
        <time>2021-08-28T09:43:21.000Z</time>
      </trkpt>
      <trkpt lat="47.18102" lon="-1.67673">
        <ele>77</ele>
        <time>2021-08-28T09:43:23.000Z</time>
      </trkpt>
      <trkpt lat="47.18115" lon="-1.67665">
        <ele>77</ele>
        <time>2021-08-28T09:43:25.000Z</time>
      </trkpt>
      <trkpt lat="47.18128" lon="-1.67658">
        <ele>77</ele>
        <time>2021-08-28T09:43:27.000Z</time>
      </trkpt>
      <trkpt lat="47.1814" lon="-1.6765">
        <ele>77</ele>
        <time>2021-08-28T09:43:29.000Z</time>
      </trkpt>
      <trkpt lat="47.18153" lon="-1.67642">
        <ele>77</ele>
        <time>2021-08-28T09:43:31.000Z</time>
      </trkpt>
      <trkpt lat="47.18166" lon="-1.67635">
        <ele>76</ele>
        <time>2021-08-28T09:43:33.000Z</time>
      </trkpt>
      <trkpt lat="47.18179" lon="-1.67626">
        <ele>76</ele>
        <time>2021-08-28T09:43:35.000Z</time>
      </trkpt>
      <trkpt lat="47.18192" lon="-1.67616">
        <ele>76</ele>
        <time>2021-08-28T09:43:37.000Z</time>
      </trkpt>
      <trkpt lat="47.18204" lon="-1.67606">
        <ele>76</ele>
        <time>2021-08-28T09:43:39.000Z</time>
      </trkpt>
      <trkpt lat="47.18218" lon="-1.676">
        <ele>76</ele>
        <time>2021-08-28T09:43:41.000Z</time>
      </trkpt>
      <trkpt lat="47.18231" lon="-1.67593">
        <ele>77</ele>
        <time>2021-08-28T09:43:43.000Z</time>
      </trkpt>
      <trkpt lat="47.18243" lon="-1.67586">
        <ele>77</ele>
        <time>2021-08-28T09:43:45.000Z</time>
      </trkpt>
      <trkpt lat="47.18257" lon="-1.67578">
        <ele>77</ele>
        <time>2021-08-28T09:43:47.000Z</time>
      </trkpt>
      <trkpt lat="47.1827" lon="-1.67571">
        <ele>78</ele>
        <time>2021-08-28T09:43:49.000Z</time>
      </trkpt>
      <trkpt lat="47.18282" lon="-1.67563">
        <ele>78</ele>
        <time>2021-08-28T09:43:51.000Z</time>
      </trkpt>
      <trkpt lat="47.18295" lon="-1.67555">
        <ele>79</ele>
        <time>2021-08-28T09:43:53.000Z</time>
      </trkpt>
      <trkpt lat="47.18308" lon="-1.67547">
        <ele>79</ele>
        <time>2021-08-28T09:43:55.000Z</time>
      </trkpt>
      <trkpt lat="47.18322" lon="-1.6754">
        <ele>79</ele>
        <time>2021-08-28T09:43:57.000Z</time>
      </trkpt>
      <trkpt lat="47.18334" lon="-1.67532">
        <ele>79</ele>
        <time>2021-08-28T09:43:59.000Z</time>
      </trkpt>
      <trkpt lat="47.18347" lon="-1.67525">
        <ele>79</ele>
        <time>2021-08-28T09:44:01.000Z</time>
      </trkpt>
      <trkpt lat="47.1836" lon="-1.67517">
        <ele>79</ele>
        <time>2021-08-28T09:44:03.000Z</time>
      </trkpt>
      <trkpt lat="47.18372" lon="-1.67509">
        <ele>79</ele>
        <time>2021-08-28T09:44:05.000Z</time>
      </trkpt>
      <trkpt lat="47.18384" lon="-1.67501">
        <ele>79</ele>
        <time>2021-08-28T09:44:07.000Z</time>
      </trkpt>
      <trkpt lat="47.18395" lon="-1.67493">
        <ele>79</ele>
        <time>2021-08-28T09:44:09.000Z</time>
      </trkpt>
      <trkpt lat="47.18408" lon="-1.67486">
        <ele>80</ele>
        <time>2021-08-28T09:44:11.000Z</time>
      </trkpt>
      <trkpt lat="47.1842" lon="-1.67479">
        <ele>80</ele>
        <time>2021-08-28T09:44:13.000Z</time>
      </trkpt>
      <trkpt lat="47.18432" lon="-1.67472">
        <ele>80</ele>
        <time>2021-08-28T09:44:15.000Z</time>
      </trkpt>
      <trkpt lat="47.18443" lon="-1.67466">
        <ele>80</ele>
        <time>2021-08-28T09:44:17.000Z</time>
      </trkpt>
      <trkpt lat="47.18455" lon="-1.67459">
        <ele>80</ele>
        <time>2021-08-28T09:44:19.000Z</time>
      </trkpt>
      <trkpt lat="47.18466" lon="-1.67452">
        <ele>80</ele>
        <time>2021-08-28T09:44:21.000Z</time>
      </trkpt>
      <trkpt lat="47.18477" lon="-1.67445">
        <ele>80</ele>
        <time>2021-08-28T09:44:23.000Z</time>
      </trkpt>
      <trkpt lat="47.18488" lon="-1.67439">
        <ele>81</ele>
        <time>2021-08-28T09:44:25.000Z</time>
      </trkpt>
      <trkpt lat="47.18499" lon="-1.67433">
        <ele>82</ele>
        <time>2021-08-28T09:44:27.000Z</time>
      </trkpt>
      <trkpt lat="47.18511" lon="-1.67425">
        <ele>82</ele>
        <time>2021-08-28T09:44:29.000Z</time>
      </trkpt>
      <trkpt lat="47.1852" lon="-1.67415">
        <ele>82</ele>
        <time>2021-08-28T09:44:31.000Z</time>
      </trkpt>
      <trkpt lat="47.18529" lon="-1.6741">
        <ele>83</ele>
        <time>2021-08-28T09:44:33.000Z</time>
      </trkpt>
      <trkpt lat="47.18537" lon="-1.67422">
        <ele>83</ele>
        <time>2021-08-28T09:44:35.000Z</time>
      </trkpt>
      <trkpt lat="47.18539" lon="-1.67439">
        <ele>82</ele>
        <time>2021-08-28T09:44:37.000Z</time>
      </trkpt>
      <trkpt lat="47.18548" lon="-1.67447">
        <ele>82</ele>
        <time>2021-08-28T09:44:39.000Z</time>
      </trkpt>
      <trkpt lat="47.18559" lon="-1.67441">
        <ele>82</ele>
        <time>2021-08-28T09:44:41.000Z</time>
      </trkpt>
      <trkpt lat="47.18569" lon="-1.67433">
        <ele>82</ele>
        <time>2021-08-28T09:44:43.000Z</time>
      </trkpt>
      <trkpt lat="47.1858" lon="-1.67429">
        <ele>82</ele>
        <time>2021-08-28T09:44:45.000Z</time>
      </trkpt>
      <trkpt lat="47.18592" lon="-1.67436">
        <ele>83</ele>
        <time>2021-08-28T09:44:47.000Z</time>
      </trkpt>
      <trkpt lat="47.18601" lon="-1.6745">
        <ele>84</ele>
        <time>2021-08-28T09:44:49.000Z</time>
      </trkpt>
      <trkpt lat="47.18608" lon="-1.67466">
        <ele>84</ele>
        <time>2021-08-28T09:44:51.000Z</time>
      </trkpt>
      <trkpt lat="47.18614" lon="-1.67482">
        <ele>83</ele>
        <time>2021-08-28T09:44:53.000Z</time>
      </trkpt>
      <trkpt lat="47.1862" lon="-1.67499">
        <ele>83</ele>
        <time>2021-08-28T09:44:55.000Z</time>
      </trkpt>
      <trkpt lat="47.18626" lon="-1.67516">
        <ele>83</ele>
        <time>2021-08-28T09:44:57.000Z</time>
      </trkpt>
      <trkpt lat="47.18634" lon="-1.67531">
        <ele>84</ele>
        <time>2021-08-28T09:44:59.000Z</time>
      </trkpt>
      <trkpt lat="47.18642" lon="-1.67545">
        <ele>84</ele>
        <time>2021-08-28T09:45:01.000Z</time>
      </trkpt>
      <trkpt lat="47.18652" lon="-1.67559">
        <ele>84</ele>
        <time>2021-08-28T09:45:03.000Z</time>
      </trkpt>
      <trkpt lat="47.18661" lon="-1.67572">
        <ele>84</ele>
        <time>2021-08-28T09:45:05.000Z</time>
      </trkpt>
      <trkpt lat="47.18671" lon="-1.67584">
        <ele>84</ele>
        <time>2021-08-28T09:45:07.000Z</time>
      </trkpt>
      <trkpt lat="47.1868" lon="-1.67597">
        <ele>84</ele>
        <time>2021-08-28T09:45:09.000Z</time>
      </trkpt>
      <trkpt lat="47.1869" lon="-1.67609">
        <ele>84</ele>
        <time>2021-08-28T09:45:11.000Z</time>
      </trkpt>
      <trkpt lat="47.18701" lon="-1.67617">
        <ele>85</ele>
        <time>2021-08-28T09:45:13.000Z</time>
      </trkpt>
      <trkpt lat="47.18713" lon="-1.67618">
        <ele>83</ele>
        <time>2021-08-28T09:45:15.000Z</time>
      </trkpt>
      <trkpt lat="47.18724" lon="-1.67615">
        <ele>83</ele>
        <time>2021-08-28T09:45:17.000Z</time>
      </trkpt>
      <trkpt lat="47.18734" lon="-1.67611">
        <ele>84</ele>
        <time>2021-08-28T09:45:19.000Z</time>
      </trkpt>
      <trkpt lat="47.18745" lon="-1.67606">
        <ele>85</ele>
        <time>2021-08-28T09:45:22.000Z</time>
      </trkpt>
      <trkpt lat="47.18753" lon="-1.67614">
        <ele>85</ele>
        <time>2021-08-28T09:45:24.000Z</time>
      </trkpt>
      <trkpt lat="47.18759" lon="-1.67629">
        <ele>85</ele>
        <time>2021-08-28T09:45:26.000Z</time>
      </trkpt>
      <trkpt lat="47.18766" lon="-1.67645">
        <ele>84</ele>
        <time>2021-08-28T09:45:28.000Z</time>
      </trkpt>
      <trkpt lat="47.18774" lon="-1.67659">
        <ele>84</ele>
        <time>2021-08-28T09:45:30.000Z</time>
      </trkpt>
      <trkpt lat="47.18783" lon="-1.67674">
        <ele>83</ele>
        <time>2021-08-28T09:45:32.000Z</time>
      </trkpt>
      <trkpt lat="47.18792" lon="-1.67687">
        <ele>83</ele>
        <time>2021-08-28T09:45:34.000Z</time>
      </trkpt>
      <trkpt lat="47.18799" lon="-1.67703">
        <ele>83</ele>
        <time>2021-08-28T09:45:36.000Z</time>
      </trkpt>
      <trkpt lat="47.18804" lon="-1.6772">
        <ele>83</ele>
        <time>2021-08-28T09:45:38.000Z</time>
      </trkpt>
      <trkpt lat="47.18811" lon="-1.67738">
        <ele>83</ele>
        <time>2021-08-28T09:45:40.000Z</time>
      </trkpt>
      <trkpt lat="47.18818" lon="-1.67755">
        <ele>84</ele>
        <time>2021-08-28T09:45:42.000Z</time>
      </trkpt>
      <trkpt lat="47.18825" lon="-1.67773">
        <ele>83</ele>
        <time>2021-08-28T09:45:44.000Z</time>
      </trkpt>
      <trkpt lat="47.18832" lon="-1.67792">
        <ele>83</ele>
        <time>2021-08-28T09:45:46.000Z</time>
      </trkpt>
      <trkpt lat="47.18839" lon="-1.67812">
        <ele>81</ele>
        <time>2021-08-28T09:45:48.000Z</time>
      </trkpt>
      <trkpt lat="47.18847" lon="-1.67833">
        <ele>80</ele>
        <time>2021-08-28T09:45:50.000Z</time>
      </trkpt>
      <trkpt lat="47.18855" lon="-1.67854">
        <ele>80</ele>
        <time>2021-08-28T09:45:52.000Z</time>
      </trkpt>
      <trkpt lat="47.18866" lon="-1.67874">
        <ele>79</ele>
        <time>2021-08-28T09:45:54.000Z</time>
      </trkpt>
      <trkpt lat="47.18872" lon="-1.67883">
        <ele>78</ele>
        <time>2021-08-28T09:45:55.000Z</time>
      </trkpt>
      <trkpt lat="47.18887" lon="-1.67896">
        <ele>78</ele>
        <time>2021-08-28T09:45:57.000Z</time>
      </trkpt>
      <trkpt lat="47.18904" lon="-1.67901">
        <ele>78</ele>
        <time>2021-08-28T09:45:59.000Z</time>
      </trkpt>
      <trkpt lat="47.18919" lon="-1.6791">
        <ele>77</ele>
        <time>2021-08-28T09:46:01.000Z</time>
      </trkpt>
      <trkpt lat="47.18928" lon="-1.67926">
        <ele>78</ele>
        <time>2021-08-28T09:46:03.000Z</time>
      </trkpt>
      <trkpt lat="47.18935" lon="-1.67942">
        <ele>78</ele>
        <time>2021-08-28T09:46:05.000Z</time>
      </trkpt>
      <trkpt lat="47.18942" lon="-1.67957">
        <ele>79</ele>
        <time>2021-08-28T09:46:07.000Z</time>
      </trkpt>
      <trkpt lat="47.1895" lon="-1.67973">
        <ele>80</ele>
        <time>2021-08-28T09:46:09.000Z</time>
      </trkpt>
      <trkpt lat="47.18958" lon="-1.67988">
        <ele>80</ele>
        <time>2021-08-28T09:46:11.000Z</time>
      </trkpt>
      <trkpt lat="47.18968" lon="-1.68002">
        <ele>80</ele>
        <time>2021-08-28T09:46:13.000Z</time>
      </trkpt>
      <trkpt lat="47.18977" lon="-1.68016">
        <ele>80</ele>
        <time>2021-08-28T09:46:15.000Z</time>
      </trkpt>
      <trkpt lat="47.18986" lon="-1.6803">
        <ele>80</ele>
        <time>2021-08-28T09:46:17.000Z</time>
      </trkpt>
      <trkpt lat="47.18995" lon="-1.68037">
        <ele>80</ele>
        <time>2021-08-28T09:46:19.000Z</time>
      </trkpt>
      <trkpt lat="47.19006" lon="-1.68026">
        <ele>79</ele>
        <time>2021-08-28T09:46:21.000Z</time>
      </trkpt>
      <trkpt lat="47.19023" lon="-1.68021">
        <ele>77</ele>
        <time>2021-08-28T09:46:23.000Z</time>
      </trkpt>
      <trkpt lat="47.19041" lon="-1.68023">
        <ele>74</ele>
        <time>2021-08-28T09:46:25.000Z</time>
      </trkpt>
      <trkpt lat="47.19058" lon="-1.68029">
        <ele>73</ele>
        <time>2021-08-28T09:46:27.000Z</time>
      </trkpt>
      <trkpt lat="47.19074" lon="-1.68036">
        <ele>72</ele>
        <time>2021-08-28T09:46:29.000Z</time>
      </trkpt>
      <trkpt lat="47.19085" lon="-1.68053">
        <ele>73</ele>
        <time>2021-08-28T09:46:31.000Z</time>
      </trkpt>
      <trkpt lat="47.19091" lon="-1.68068">
        <ele>72</ele>
        <time>2021-08-28T09:46:33.000Z</time>
      </trkpt>
      <trkpt lat="47.19096" lon="-1.68079">
        <ele>73</ele>
        <time>2021-08-28T09:46:35.000Z</time>
      </trkpt>
      <trkpt lat="47.19103" lon="-1.68095">
        <ele>73</ele>
        <time>2021-08-28T09:46:38.000Z</time>
      </trkpt>
      <trkpt lat="47.19109" lon="-1.6811">
        <ele>73</ele>
        <time>2021-08-28T09:46:41.000Z</time>
      </trkpt>
      <trkpt lat="47.19113" lon="-1.68126">
        <ele>74</ele>
        <time>2021-08-28T09:46:44.000Z</time>
      </trkpt>
      <trkpt lat="47.19118" lon="-1.68142">
        <ele>73</ele>
        <time>2021-08-28T09:46:47.000Z</time>
      </trkpt>
      <trkpt lat="47.19121" lon="-1.68158">
        <ele>72</ele>
        <time>2021-08-28T09:46:50.000Z</time>
      </trkpt>
      <trkpt lat="47.19126" lon="-1.68172">
        <ele>72</ele>
        <time>2021-08-28T09:46:54.000Z</time>
      </trkpt>
      <trkpt lat="47.19129" lon="-1.68184">
        <ele>72</ele>
        <time>2021-08-28T09:47:01.000Z</time>
      </trkpt>
      <trkpt lat="47.19137" lon="-1.68174">
        <ele>70</ele>
        <time>2021-08-28T09:47:10.000Z</time>
      </trkpt>
      <trkpt lat="47.19147" lon="-1.68176">
        <ele>68</ele>
        <time>2021-08-28T09:47:15.000Z</time>
      </trkpt>
      <trkpt lat="47.19152" lon="-1.68196">
        <ele>67</ele>
        <time>2021-08-28T09:47:18.000Z</time>
      </trkpt>
      <trkpt lat="47.19161" lon="-1.68207">
        <ele>65</ele>
        <time>2021-08-28T09:47:21.000Z</time>
      </trkpt>
      <trkpt lat="47.19174" lon="-1.68214">
        <ele>63</ele>
        <time>2021-08-28T09:47:23.000Z</time>
      </trkpt>
      <trkpt lat="47.19185" lon="-1.68221">
        <ele>61</ele>
        <time>2021-08-28T09:47:25.000Z</time>
      </trkpt>
      <trkpt lat="47.19197" lon="-1.68217">
        <ele>58</ele>
        <time>2021-08-28T09:47:28.000Z</time>
      </trkpt>
      <trkpt lat="47.19206" lon="-1.68212">
        <ele>57</ele>
        <time>2021-08-28T09:47:30.000Z</time>
      </trkpt>
      <trkpt lat="47.19216" lon="-1.68205">
        <ele>55</ele>
        <time>2021-08-28T09:47:32.000Z</time>
      </trkpt>
      <trkpt lat="47.19227" lon="-1.68198">
        <ele>54</ele>
        <time>2021-08-28T09:47:34.000Z</time>
      </trkpt>
      <trkpt lat="47.19239" lon="-1.68191">
        <ele>53</ele>
        <time>2021-08-28T09:47:36.000Z</time>
      </trkpt>
      <trkpt lat="47.1925" lon="-1.68184">
        <ele>52</ele>
        <time>2021-08-28T09:47:38.000Z</time>
      </trkpt>
      <trkpt lat="47.19262" lon="-1.68176">
        <ele>52</ele>
        <time>2021-08-28T09:47:40.000Z</time>
      </trkpt>
      <trkpt lat="47.19273" lon="-1.68168">
        <ele>51</ele>
        <time>2021-08-28T09:47:42.000Z</time>
      </trkpt>
      <trkpt lat="47.19285" lon="-1.68161">
        <ele>51</ele>
        <time>2021-08-28T09:47:44.000Z</time>
      </trkpt>
      <trkpt lat="47.19298" lon="-1.68154">
        <ele>51</ele>
        <time>2021-08-28T09:47:46.000Z</time>
      </trkpt>
      <trkpt lat="47.1931" lon="-1.68146">
        <ele>51</ele>
        <time>2021-08-28T09:47:48.000Z</time>
      </trkpt>
      <trkpt lat="47.19322" lon="-1.68139">
        <ele>51</ele>
        <time>2021-08-28T09:47:50.000Z</time>
      </trkpt>
      <trkpt lat="47.19333" lon="-1.68131">
        <ele>51</ele>
        <time>2021-08-28T09:47:52.000Z</time>
      </trkpt>
      <trkpt lat="47.19344" lon="-1.68123">
        <ele>51</ele>
        <time>2021-08-28T09:47:54.000Z</time>
      </trkpt>
      <trkpt lat="47.19355" lon="-1.68114">
        <ele>51</ele>
        <time>2021-08-28T09:47:56.000Z</time>
      </trkpt>
      <trkpt lat="47.19366" lon="-1.68105">
        <ele>51</ele>
        <time>2021-08-28T09:47:58.000Z</time>
      </trkpt>
      <trkpt lat="47.19377" lon="-1.68096">
        <ele>51</ele>
        <time>2021-08-28T09:48:00.000Z</time>
      </trkpt>
      <trkpt lat="47.19387" lon="-1.68088">
        <ele>51</ele>
        <time>2021-08-28T09:48:02.000Z</time>
      </trkpt>
      <trkpt lat="47.19397" lon="-1.68081">
        <ele>51</ele>
        <time>2021-08-28T09:48:04.000Z</time>
      </trkpt>
      <trkpt lat="47.19406" lon="-1.68073">
        <ele>51</ele>
        <time>2021-08-28T09:48:06.000Z</time>
      </trkpt>
      <trkpt lat="47.19414" lon="-1.68066">
        <ele>51</ele>
        <time>2021-08-28T09:48:08.000Z</time>
      </trkpt>
      <trkpt lat="47.19419" lon="-1.68056">
        <ele>52</ele>
        <time>2021-08-28T09:48:10.000Z</time>
      </trkpt>
      <trkpt lat="47.19418" lon="-1.68039">
        <ele>52</ele>
        <time>2021-08-28T09:48:12.000Z</time>
      </trkpt>
      <trkpt lat="47.19412" lon="-1.68019">
        <ele>52</ele>
        <time>2021-08-28T09:48:14.000Z</time>
      </trkpt>
      <trkpt lat="47.19407" lon="-1.67999">
        <ele>52</ele>
        <time>2021-08-28T09:48:16.000Z</time>
      </trkpt>
      <trkpt lat="47.19402" lon="-1.6798">
        <ele>53</ele>
        <time>2021-08-28T09:48:18.000Z</time>
      </trkpt>
      <trkpt lat="47.19397" lon="-1.67962">
        <ele>53</ele>
        <time>2021-08-28T09:48:20.000Z</time>
      </trkpt>
      <trkpt lat="47.19391" lon="-1.67943">
        <ele>53</ele>
        <time>2021-08-28T09:48:22.000Z</time>
      </trkpt>
      <trkpt lat="47.19386" lon="-1.67925">
        <ele>54</ele>
        <time>2021-08-28T09:48:24.000Z</time>
      </trkpt>
      <trkpt lat="47.19381" lon="-1.67907">
        <ele>54</ele>
        <time>2021-08-28T09:48:26.000Z</time>
      </trkpt>
      <trkpt lat="47.19376" lon="-1.67889">
        <ele>54</ele>
        <time>2021-08-28T09:48:28.000Z</time>
      </trkpt>
      <trkpt lat="47.19373" lon="-1.6787">
        <ele>53</ele>
        <time>2021-08-28T09:48:30.000Z</time>
      </trkpt>
      <trkpt lat="47.1937" lon="-1.67851">
        <ele>53</ele>
        <time>2021-08-28T09:48:32.000Z</time>
      </trkpt>
      <trkpt lat="47.19368" lon="-1.67832">
        <ele>53</ele>
        <time>2021-08-28T09:48:34.000Z</time>
      </trkpt>
      <trkpt lat="47.19367" lon="-1.67812">
        <ele>52</ele>
        <time>2021-08-28T09:48:36.000Z</time>
      </trkpt>
      <trkpt lat="47.19367" lon="-1.67792">
        <ele>52</ele>
        <time>2021-08-28T09:48:38.000Z</time>
      </trkpt>
      <trkpt lat="47.19368" lon="-1.67772">
        <ele>52</ele>
        <time>2021-08-28T09:48:40.000Z</time>
      </trkpt>
      <trkpt lat="47.1937" lon="-1.67753">
        <ele>52</ele>
        <time>2021-08-28T09:48:42.000Z</time>
      </trkpt>
      <trkpt lat="47.19373" lon="-1.67733">
        <ele>51</ele>
        <time>2021-08-28T09:48:44.000Z</time>
      </trkpt>
      <trkpt lat="47.19377" lon="-1.67715">
        <ele>51</ele>
        <time>2021-08-28T09:48:46.000Z</time>
      </trkpt>
      <trkpt lat="47.19381" lon="-1.67696">
        <ele>50</ele>
        <time>2021-08-28T09:48:48.000Z</time>
      </trkpt>
      <trkpt lat="47.19387" lon="-1.67678">
        <ele>50</ele>
        <time>2021-08-28T09:48:50.000Z</time>
      </trkpt>
      <trkpt lat="47.19393" lon="-1.6766">
        <ele>49</ele>
        <time>2021-08-28T09:48:52.000Z</time>
      </trkpt>
      <trkpt lat="47.194" lon="-1.67643">
        <ele>49</ele>
        <time>2021-08-28T09:48:54.000Z</time>
      </trkpt>
      <trkpt lat="47.19408" lon="-1.67628">
        <ele>50</ele>
        <time>2021-08-28T09:48:56.000Z</time>
      </trkpt>
      <trkpt lat="47.19416" lon="-1.67613">
        <ele>49</ele>
        <time>2021-08-28T09:48:58.000Z</time>
      </trkpt>
      <trkpt lat="47.19425" lon="-1.67599">
        <ele>49</ele>
        <time>2021-08-28T09:49:00.000Z</time>
      </trkpt>
      <trkpt lat="47.19434" lon="-1.67586">
        <ele>49</ele>
        <time>2021-08-28T09:49:02.000Z</time>
      </trkpt>
      <trkpt lat="47.19444" lon="-1.67574">
        <ele>49</ele>
        <time>2021-08-28T09:49:04.000Z</time>
      </trkpt>
      <trkpt lat="47.19454" lon="-1.67564">
        <ele>50</ele>
        <time>2021-08-28T09:49:06.000Z</time>
      </trkpt>
      <trkpt lat="47.19464" lon="-1.67555">
        <ele>50</ele>
        <time>2021-08-28T09:49:08.000Z</time>
      </trkpt>
      <trkpt lat="47.19474" lon="-1.67546">
        <ele>50</ele>
        <time>2021-08-28T09:49:10.000Z</time>
      </trkpt>
      <trkpt lat="47.19483" lon="-1.67539">
        <ele>50</ele>
        <time>2021-08-28T09:49:12.000Z</time>
      </trkpt>
      <trkpt lat="47.19491" lon="-1.6753">
        <ele>51</ele>
        <time>2021-08-28T09:49:14.000Z</time>
      </trkpt>
      <trkpt lat="47.19496" lon="-1.67519">
        <ele>51</ele>
        <time>2021-08-28T09:49:16.000Z</time>
      </trkpt>
      <trkpt lat="47.19506" lon="-1.67506">
        <ele>51</ele>
        <time>2021-08-28T09:49:19.000Z</time>
      </trkpt>
      <trkpt lat="47.19515" lon="-1.67503">
        <ele>50</ele>
        <time>2021-08-28T09:49:21.000Z</time>
      </trkpt>
      <trkpt lat="47.19528" lon="-1.67504">
        <ele>51</ele>
        <time>2021-08-28T09:49:24.000Z</time>
      </trkpt>
      <trkpt lat="47.19538" lon="-1.67505">
        <ele>51</ele>
        <time>2021-08-28T09:49:27.000Z</time>
      </trkpt>
      <trkpt lat="47.19544" lon="-1.67515">
        <ele>52</ele>
        <time>2021-08-28T09:49:32.000Z</time>
      </trkpt>
      <trkpt lat="47.19551" lon="-1.67528">
        <ele>52</ele>
        <time>2021-08-28T09:51:32.000Z</time>
      </trkpt>
      <trkpt lat="47.1956" lon="-1.67541">
        <ele>51</ele>
        <time>2021-08-28T09:51:35.000Z</time>
      </trkpt>
      <trkpt lat="47.19569" lon="-1.67553">
        <ele>50</ele>
        <time>2021-08-28T09:51:37.000Z</time>
      </trkpt>
      <trkpt lat="47.19576" lon="-1.67562">
        <ele>51</ele>
        <time>2021-08-28T09:51:39.000Z</time>
      </trkpt>
      <trkpt lat="47.19581" lon="-1.67578">
        <ele>53</ele>
        <time>2021-08-28T09:51:42.000Z</time>
      </trkpt>
      <trkpt lat="47.19587" lon="-1.67588">
        <ele>54</ele>
        <time>2021-08-28T09:51:45.000Z</time>
      </trkpt>
      <trkpt lat="47.19594" lon="-1.67597">
        <ele>56</ele>
        <time>2021-08-28T09:51:48.000Z</time>
      </trkpt>
      <trkpt lat="47.19601" lon="-1.67587">
        <ele>51</ele>
        <time>2021-08-28T09:53:29.000Z</time>
      </trkpt>
      <trkpt lat="47.19606" lon="-1.67577">
        <ele>51</ele>
        <time>2021-08-28T09:54:06.000Z</time>
      </trkpt>
      <trkpt lat="47.19613" lon="-1.67567">
        <ele>46</ele>
        <time>2021-08-28T09:54:57.000Z</time>
      </trkpt>
      <trkpt lat="47.19623" lon="-1.67568">
        <ele>49</ele>
        <time>2021-08-28T09:55:05.000Z</time>
      </trkpt>
      <trkpt lat="47.19632" lon="-1.67567">
        <ele>49</ele>
        <time>2021-08-28T09:55:12.000Z</time>
      </trkpt>
      <trkpt lat="47.19641" lon="-1.67565">
        <ele>49</ele>
        <time>2021-08-28T09:55:18.000Z</time>
      </trkpt>
      <trkpt lat="47.1965" lon="-1.6756">
        <ele>48</ele>
        <time>2021-08-28T09:55:24.000Z</time>
      </trkpt>
      <trkpt lat="47.19659" lon="-1.67555">
        <ele>49</ele>
        <time>2021-08-28T09:55:31.000Z</time>
      </trkpt>
      <trkpt lat="47.19668" lon="-1.67551">
        <ele>49</ele>
        <time>2021-08-28T09:55:36.000Z</time>
      </trkpt>
      <trkpt lat="47.19677" lon="-1.67544">
        <ele>50</ele>
        <time>2021-08-28T09:55:41.000Z</time>
      </trkpt>
      <trkpt lat="47.19686" lon="-1.67537">
        <ele>50</ele>
        <time>2021-08-28T09:55:46.000Z</time>
      </trkpt>
      <trkpt lat="47.19695" lon="-1.6753">
        <ele>50</ele>
        <time>2021-08-28T09:55:51.000Z</time>
      </trkpt>
      <trkpt lat="47.19703" lon="-1.67521">
        <ele>52</ele>
        <time>2021-08-28T09:55:56.000Z</time>
      </trkpt>
      <trkpt lat="47.1971" lon="-1.67509">
        <ele>51</ele>
        <time>2021-08-28T09:56:01.000Z</time>
      </trkpt>
      <trkpt lat="47.19716" lon="-1.67497">
        <ele>50</ele>
        <time>2021-08-28T09:56:06.000Z</time>
      </trkpt>
      <trkpt lat="47.19721" lon="-1.67484">
        <ele>49</ele>
        <time>2021-08-28T09:56:11.000Z</time>
      </trkpt>
      <trkpt lat="47.19726" lon="-1.67472">
        <ele>49</ele>
        <time>2021-08-28T09:56:17.000Z</time>
      </trkpt>
      <trkpt lat="47.19731" lon="-1.67459">
        <ele>50</ele>
        <time>2021-08-28T09:56:24.000Z</time>
      </trkpt>
      <trkpt lat="47.19736" lon="-1.67447">
        <ele>49</ele>
        <time>2021-08-28T09:56:33.000Z</time>
      </trkpt>
      <trkpt lat="47.1974" lon="-1.67435">
        <ele>53</ele>
        <time>2021-08-28T09:56:47.000Z</time>
      </trkpt>
      <trkpt lat="47.19741" lon="-1.67421">
        <ele>51</ele>
        <time>2021-08-28T09:57:09.000Z</time>
      </trkpt>
      <trkpt lat="47.19742" lon="-1.67408">
        <ele>53</ele>
        <time>2021-08-28T09:57:11.000Z</time>
      </trkpt>
      <trkpt lat="47.19742" lon="-1.67391">
        <ele>55</ele>
        <time>2021-08-28T09:57:13.000Z</time>
      </trkpt>
      <trkpt lat="47.19742" lon="-1.67374">
        <ele>55</ele>
        <time>2021-08-28T09:57:15.000Z</time>
      </trkpt>
      <trkpt lat="47.19741" lon="-1.67357">
        <ele>54</ele>
        <time>2021-08-28T09:57:17.000Z</time>
      </trkpt>
      <trkpt lat="47.19746" lon="-1.6734">
        <ele>54</ele>
        <time>2021-08-28T09:57:19.000Z</time>
      </trkpt>
      <trkpt lat="47.19759" lon="-1.67329">
        <ele>52</ele>
        <time>2021-08-28T09:57:21.000Z</time>
      </trkpt>
      <trkpt lat="47.19771" lon="-1.6732">
        <ele>52</ele>
        <time>2021-08-28T09:57:23.000Z</time>
      </trkpt>
      <trkpt lat="47.19782" lon="-1.67308">
        <ele>52</ele>
        <time>2021-08-28T09:57:25.000Z</time>
      </trkpt>
      <trkpt lat="47.19792" lon="-1.67296">
        <ele>52</ele>
        <time>2021-08-28T09:57:27.000Z</time>
      </trkpt>
      <trkpt lat="47.19802" lon="-1.67295">
        <ele>52</ele>
        <time>2021-08-28T09:57:29.000Z</time>
      </trkpt>
      <trkpt lat="47.19812" lon="-1.67313">
        <ele>52</ele>
        <time>2021-08-28T09:57:31.000Z</time>
      </trkpt>
      <trkpt lat="47.19821" lon="-1.67331">
        <ele>52</ele>
        <time>2021-08-28T09:57:33.000Z</time>
      </trkpt>
      <trkpt lat="47.19831" lon="-1.67348">
        <ele>52</ele>
        <time>2021-08-28T09:57:35.000Z</time>
      </trkpt>
      <trkpt lat="47.1984" lon="-1.67365">
        <ele>52</ele>
        <time>2021-08-28T09:57:37.000Z</time>
      </trkpt>
      <trkpt lat="47.19849" lon="-1.67381">
        <ele>52</ele>
        <time>2021-08-28T09:57:39.000Z</time>
      </trkpt>
      <trkpt lat="47.19858" lon="-1.67399">
        <ele>52</ele>
        <time>2021-08-28T09:57:41.000Z</time>
      </trkpt>
      <trkpt lat="47.19866" lon="-1.67417">
        <ele>52</ele>
        <time>2021-08-28T09:57:43.000Z</time>
      </trkpt>
      <trkpt lat="47.19874" lon="-1.67434">
        <ele>52</ele>
        <time>2021-08-28T09:57:45.000Z</time>
      </trkpt>
      <trkpt lat="47.19882" lon="-1.6745">
        <ele>52</ele>
        <time>2021-08-28T09:57:47.000Z</time>
      </trkpt>
      <trkpt lat="47.1989" lon="-1.67467">
        <ele>52</ele>
        <time>2021-08-28T09:57:49.000Z</time>
      </trkpt>
      <trkpt lat="47.19898" lon="-1.67483">
        <ele>52</ele>
        <time>2021-08-28T09:57:51.000Z</time>
      </trkpt>
      <trkpt lat="47.19906" lon="-1.675">
        <ele>51</ele>
        <time>2021-08-28T09:57:53.000Z</time>
      </trkpt>
      <trkpt lat="47.19914" lon="-1.67518">
        <ele>51</ele>
        <time>2021-08-28T09:57:55.000Z</time>
      </trkpt>
      <trkpt lat="47.19922" lon="-1.67534">
        <ele>50</ele>
        <time>2021-08-28T09:57:57.000Z</time>
      </trkpt>
      <trkpt lat="47.1993" lon="-1.67551">
        <ele>51</ele>
        <time>2021-08-28T09:57:59.000Z</time>
      </trkpt>
      <trkpt lat="47.19936" lon="-1.67568">
        <ele>51</ele>
        <time>2021-08-28T09:58:01.000Z</time>
      </trkpt>
      <trkpt lat="47.19943" lon="-1.67585">
        <ele>51</ele>
        <time>2021-08-28T09:58:03.000Z</time>
      </trkpt>
      <trkpt lat="47.19951" lon="-1.67601">
        <ele>51</ele>
        <time>2021-08-28T09:58:05.000Z</time>
      </trkpt>
      <trkpt lat="47.19959" lon="-1.67617">
        <ele>52</ele>
        <time>2021-08-28T09:58:07.000Z</time>
      </trkpt>
      <trkpt lat="47.19968" lon="-1.67632">
        <ele>52</ele>
        <time>2021-08-28T09:58:09.000Z</time>
      </trkpt>
      <trkpt lat="47.19976" lon="-1.67647">
        <ele>52</ele>
        <time>2021-08-28T09:58:11.000Z</time>
      </trkpt>
      <trkpt lat="47.19986" lon="-1.67662">
        <ele>52</ele>
        <time>2021-08-28T09:58:13.000Z</time>
      </trkpt>
      <trkpt lat="47.19995" lon="-1.67676">
        <ele>51</ele>
        <time>2021-08-28T09:58:15.000Z</time>
      </trkpt>
      <trkpt lat="47.20004" lon="-1.67691">
        <ele>51</ele>
        <time>2021-08-28T09:58:17.000Z</time>
      </trkpt>
      <trkpt lat="47.20013" lon="-1.67705">
        <ele>51</ele>
        <time>2021-08-28T09:58:19.000Z</time>
      </trkpt>
      <trkpt lat="47.20021" lon="-1.67722">
        <ele>52</ele>
        <time>2021-08-28T09:58:21.000Z</time>
      </trkpt>
      <trkpt lat="47.2003" lon="-1.67737">
        <ele>52</ele>
        <time>2021-08-28T09:58:23.000Z</time>
      </trkpt>
      <trkpt lat="47.20039" lon="-1.67753">
        <ele>52</ele>
        <time>2021-08-28T09:58:25.000Z</time>
      </trkpt>
      <trkpt lat="47.20049" lon="-1.67769">
        <ele>52</ele>
        <time>2021-08-28T09:58:27.000Z</time>
      </trkpt>
      <trkpt lat="47.20057" lon="-1.67784">
        <ele>51</ele>
        <time>2021-08-28T09:58:29.000Z</time>
      </trkpt>
      <trkpt lat="47.20067" lon="-1.678">
        <ele>51</ele>
        <time>2021-08-28T09:58:31.000Z</time>
      </trkpt>
      <trkpt lat="47.20076" lon="-1.67815">
        <ele>50</ele>
        <time>2021-08-28T09:58:33.000Z</time>
      </trkpt>
      <trkpt lat="47.20085" lon="-1.67831">
        <ele>51</ele>
        <time>2021-08-28T09:58:35.000Z</time>
      </trkpt>
      <trkpt lat="47.20093" lon="-1.67848">
        <ele>51</ele>
        <time>2021-08-28T09:58:37.000Z</time>
      </trkpt>
      <trkpt lat="47.20101" lon="-1.67863">
        <ele>51</ele>
        <time>2021-08-28T09:58:39.000Z</time>
      </trkpt>
      <trkpt lat="47.2011" lon="-1.67878">
        <ele>51</ele>
        <time>2021-08-28T09:58:41.000Z</time>
      </trkpt>
      <trkpt lat="47.20119" lon="-1.67894">
        <ele>51</ele>
        <time>2021-08-28T09:58:43.000Z</time>
      </trkpt>
      <trkpt lat="47.20128" lon="-1.67908">
        <ele>51</ele>
        <time>2021-08-28T09:58:45.000Z</time>
      </trkpt>
      <trkpt lat="47.20138" lon="-1.67917">
        <ele>51</ele>
        <time>2021-08-28T09:58:47.000Z</time>
      </trkpt>
      <trkpt lat="47.2015" lon="-1.67907">
        <ele>53</ele>
        <time>2021-08-28T09:58:49.000Z</time>
      </trkpt>
      <trkpt lat="47.20161" lon="-1.67895">
        <ele>55</ele>
        <time>2021-08-28T09:58:51.000Z</time>
      </trkpt>
      <trkpt lat="47.20171" lon="-1.67886">
        <ele>56</ele>
        <time>2021-08-28T09:58:53.000Z</time>
      </trkpt>
      <trkpt lat="47.2018" lon="-1.67877">
        <ele>56</ele>
        <time>2021-08-28T09:58:55.000Z</time>
      </trkpt>
      <trkpt lat="47.20189" lon="-1.67869">
        <ele>57</ele>
        <time>2021-08-28T09:58:57.000Z</time>
      </trkpt>
      <trkpt lat="47.20198" lon="-1.67861">
        <ele>57</ele>
        <time>2021-08-28T09:58:59.000Z</time>
      </trkpt>
      <trkpt lat="47.20208" lon="-1.67852">
        <ele>57</ele>
        <time>2021-08-28T09:59:01.000Z</time>
      </trkpt>
      <trkpt lat="47.2022" lon="-1.67845">
        <ele>56</ele>
        <time>2021-08-28T09:59:03.000Z</time>
      </trkpt>
      <trkpt lat="47.20231" lon="-1.67835">
        <ele>55</ele>
        <time>2021-08-28T09:59:05.000Z</time>
      </trkpt>
      <trkpt lat="47.20229" lon="-1.6781">
        <ele>56</ele>
        <time>2021-08-28T09:59:07.000Z</time>
      </trkpt>
      <trkpt lat="47.20224" lon="-1.67797">
        <ele>56</ele>
        <time>2021-08-28T09:59:08.000Z</time>
      </trkpt>
      <trkpt lat="47.20215" lon="-1.67775">
        <ele>56</ele>
        <time>2021-08-28T09:59:10.000Z</time>
      </trkpt>
      <trkpt lat="47.20208" lon="-1.67753">
        <ele>55</ele>
        <time>2021-08-28T09:59:12.000Z</time>
      </trkpt>
      <trkpt lat="47.20202" lon="-1.67733">
        <ele>55</ele>
        <time>2021-08-28T09:59:14.000Z</time>
      </trkpt>
      <trkpt lat="47.20195" lon="-1.67715">
        <ele>54</ele>
        <time>2021-08-28T09:59:16.000Z</time>
      </trkpt>
      <trkpt lat="47.20188" lon="-1.67695">
        <ele>54</ele>
        <time>2021-08-28T09:59:18.000Z</time>
      </trkpt>
      <trkpt lat="47.20181" lon="-1.67678">
        <ele>53</ele>
        <time>2021-08-28T09:59:20.000Z</time>
      </trkpt>
      <trkpt lat="47.20174" lon="-1.67661">
        <ele>54</ele>
        <time>2021-08-28T09:59:22.000Z</time>
      </trkpt>
      <trkpt lat="47.20167" lon="-1.67644">
        <ele>54</ele>
        <time>2021-08-28T09:59:24.000Z</time>
      </trkpt>
      <trkpt lat="47.20161" lon="-1.67627">
        <ele>54</ele>
        <time>2021-08-28T09:59:26.000Z</time>
      </trkpt>
      <trkpt lat="47.20154" lon="-1.6761">
        <ele>53</ele>
        <time>2021-08-28T09:59:28.000Z</time>
      </trkpt>
      <trkpt lat="47.20148" lon="-1.67593">
        <ele>53</ele>
        <time>2021-08-28T09:59:30.000Z</time>
      </trkpt>
      <trkpt lat="47.20142" lon="-1.67576">
        <ele>53</ele>
        <time>2021-08-28T09:59:32.000Z</time>
      </trkpt>
      <trkpt lat="47.20136" lon="-1.67558">
        <ele>53</ele>
        <time>2021-08-28T09:59:34.000Z</time>
      </trkpt>
      <trkpt lat="47.2013" lon="-1.67542">
        <ele>54</ele>
        <time>2021-08-28T09:59:36.000Z</time>
      </trkpt>
      <trkpt lat="47.20124" lon="-1.67526">
        <ele>54</ele>
        <time>2021-08-28T09:59:38.000Z</time>
      </trkpt>
      <trkpt lat="47.20119" lon="-1.6751">
        <ele>54</ele>
        <time>2021-08-28T09:59:40.000Z</time>
      </trkpt>
      <trkpt lat="47.20115" lon="-1.67494">
        <ele>54</ele>
        <time>2021-08-28T09:59:42.000Z</time>
      </trkpt>
      <trkpt lat="47.20121" lon="-1.6748">
        <ele>53</ele>
        <time>2021-08-28T09:59:44.000Z</time>
      </trkpt>
      <trkpt lat="47.20135" lon="-1.67472">
        <ele>53</ele>
        <time>2021-08-28T09:59:46.000Z</time>
      </trkpt>
      <trkpt lat="47.20148" lon="-1.67466">
        <ele>52</ele>
        <time>2021-08-28T09:59:48.000Z</time>
      </trkpt>
      <trkpt lat="47.20161" lon="-1.6746">
        <ele>52</ele>
        <time>2021-08-28T09:59:50.000Z</time>
      </trkpt>
      <trkpt lat="47.20174" lon="-1.67454">
        <ele>52</ele>
        <time>2021-08-28T09:59:52.000Z</time>
      </trkpt>
      <trkpt lat="47.20187" lon="-1.67448">
        <ele>51</ele>
        <time>2021-08-28T09:59:54.000Z</time>
      </trkpt>
      <trkpt lat="47.202" lon="-1.67442">
        <ele>50</ele>
        <time>2021-08-28T09:59:56.000Z</time>
      </trkpt>
      <trkpt lat="47.20212" lon="-1.67436">
        <ele>50</ele>
        <time>2021-08-28T09:59:58.000Z</time>
      </trkpt>
      <trkpt lat="47.20225" lon="-1.6743">
        <ele>50</ele>
        <time>2021-08-28T10:00:00.000Z</time>
      </trkpt>
      <trkpt lat="47.20238" lon="-1.67423">
        <ele>50</ele>
        <time>2021-08-28T10:00:02.000Z</time>
      </trkpt>
      <trkpt lat="47.2025" lon="-1.67418">
        <ele>50</ele>
        <time>2021-08-28T10:00:04.000Z</time>
      </trkpt>
      <trkpt lat="47.20262" lon="-1.67412">
        <ele>50</ele>
        <time>2021-08-28T10:00:06.000Z</time>
      </trkpt>
      <trkpt lat="47.20274" lon="-1.67406">
        <ele>50</ele>
        <time>2021-08-28T10:00:08.000Z</time>
      </trkpt>
      <trkpt lat="47.20286" lon="-1.674">
        <ele>50</ele>
        <time>2021-08-28T10:00:10.000Z</time>
      </trkpt>
      <trkpt lat="47.20299" lon="-1.67395">
        <ele>49</ele>
        <time>2021-08-28T10:00:12.000Z</time>
      </trkpt>
      <trkpt lat="47.20312" lon="-1.67389">
        <ele>50</ele>
        <time>2021-08-28T10:00:14.000Z</time>
      </trkpt>
      <trkpt lat="47.20325" lon="-1.67387">
        <ele>50</ele>
        <time>2021-08-28T10:00:16.000Z</time>
      </trkpt>
      <trkpt lat="47.20338" lon="-1.67389">
        <ele>49</ele>
        <time>2021-08-28T10:00:18.000Z</time>
      </trkpt>
      <trkpt lat="47.2035" lon="-1.67398">
        <ele>49</ele>
        <time>2021-08-28T10:00:20.000Z</time>
      </trkpt>
      <trkpt lat="47.2036" lon="-1.67411">
        <ele>49</ele>
        <time>2021-08-28T10:00:22.000Z</time>
      </trkpt>
      <trkpt lat="47.20367" lon="-1.67428">
        <ele>49</ele>
        <time>2021-08-28T10:00:24.000Z</time>
      </trkpt>
      <trkpt lat="47.20372" lon="-1.67447">
        <ele>48</ele>
        <time>2021-08-28T10:00:26.000Z</time>
      </trkpt>
      <trkpt lat="47.20375" lon="-1.67467">
        <ele>47</ele>
        <time>2021-08-28T10:00:28.000Z</time>
      </trkpt>
      <trkpt lat="47.20378" lon="-1.67487">
        <ele>47</ele>
        <time>2021-08-28T10:00:30.000Z</time>
      </trkpt>
      <trkpt lat="47.20381" lon="-1.67507">
        <ele>46</ele>
        <time>2021-08-28T10:00:32.000Z</time>
      </trkpt>
      <trkpt lat="47.20384" lon="-1.67526">
        <ele>46</ele>
        <time>2021-08-28T10:00:34.000Z</time>
      </trkpt>
      <trkpt lat="47.20389" lon="-1.67543">
        <ele>46</ele>
        <time>2021-08-28T10:00:36.000Z</time>
      </trkpt>
      <trkpt lat="47.20401" lon="-1.67553">
        <ele>45</ele>
        <time>2021-08-28T10:00:38.000Z</time>
      </trkpt>
      <trkpt lat="47.20414" lon="-1.67547">
        <ele>45</ele>
        <time>2021-08-28T10:00:40.000Z</time>
      </trkpt>
      <trkpt lat="47.20425" lon="-1.67536">
        <ele>46</ele>
        <time>2021-08-28T10:00:42.000Z</time>
      </trkpt>
      <trkpt lat="47.20438" lon="-1.67538">
        <ele>46</ele>
        <time>2021-08-28T10:00:44.000Z</time>
      </trkpt>
      <trkpt lat="47.20447" lon="-1.67555">
        <ele>47</ele>
        <time>2021-08-28T10:00:46.000Z</time>
      </trkpt>
      <trkpt lat="47.20452" lon="-1.67575">
        <ele>47</ele>
        <time>2021-08-28T10:00:48.000Z</time>
      </trkpt>
      <trkpt lat="47.2046" lon="-1.67591">
        <ele>47</ele>
        <time>2021-08-28T10:00:50.000Z</time>
      </trkpt>
      <trkpt lat="47.2047" lon="-1.67605">
        <ele>47</ele>
        <time>2021-08-28T10:00:52.000Z</time>
      </trkpt>
      <trkpt lat="47.20479" lon="-1.6762">
        <ele>48</ele>
        <time>2021-08-28T10:00:54.000Z</time>
      </trkpt>
      <trkpt lat="47.20487" lon="-1.67637">
        <ele>48</ele>
        <time>2021-08-28T10:00:56.000Z</time>
      </trkpt>
      <trkpt lat="47.20494" lon="-1.67655">
        <ele>48</ele>
        <time>2021-08-28T10:00:58.000Z</time>
      </trkpt>
      <trkpt lat="47.205" lon="-1.67672">
        <ele>48</ele>
        <time>2021-08-28T10:01:00.000Z</time>
      </trkpt>
      <trkpt lat="47.20507" lon="-1.6769">
        <ele>48</ele>
        <time>2021-08-28T10:01:02.000Z</time>
      </trkpt>
      <trkpt lat="47.20514" lon="-1.67708">
        <ele>48</ele>
        <time>2021-08-28T10:01:04.000Z</time>
      </trkpt>
      <trkpt lat="47.2052" lon="-1.67727">
        <ele>47</ele>
        <time>2021-08-28T10:01:06.000Z</time>
      </trkpt>
      <trkpt lat="47.20527" lon="-1.67745">
        <ele>47</ele>
        <time>2021-08-28T10:01:08.000Z</time>
      </trkpt>
      <trkpt lat="47.20533" lon="-1.67763">
        <ele>47</ele>
        <time>2021-08-28T10:01:10.000Z</time>
      </trkpt>
      <trkpt lat="47.20539" lon="-1.6778">
        <ele>47</ele>
        <time>2021-08-28T10:01:12.000Z</time>
      </trkpt>
      <trkpt lat="47.20545" lon="-1.67798">
        <ele>47</ele>
        <time>2021-08-28T10:01:14.000Z</time>
      </trkpt>
      <trkpt lat="47.2055" lon="-1.67816">
        <ele>47</ele>
        <time>2021-08-28T10:01:16.000Z</time>
      </trkpt>
      <trkpt lat="47.20556" lon="-1.67834">
        <ele>47</ele>
        <time>2021-08-28T10:01:18.000Z</time>
      </trkpt>
      <trkpt lat="47.20562" lon="-1.67853">
        <ele>47</ele>
        <time>2021-08-28T10:01:20.000Z</time>
      </trkpt>
      <trkpt lat="47.20568" lon="-1.67871">
        <ele>48</ele>
        <time>2021-08-28T10:01:22.000Z</time>
      </trkpt>
      <trkpt lat="47.20573" lon="-1.67889">
        <ele>48</ele>
        <time>2021-08-28T10:01:24.000Z</time>
      </trkpt>
      <trkpt lat="47.20579" lon="-1.67907">
        <ele>47</ele>
        <time>2021-08-28T10:01:26.000Z</time>
      </trkpt>
      <trkpt lat="47.20584" lon="-1.67925">
        <ele>48</ele>
        <time>2021-08-28T10:01:28.000Z</time>
      </trkpt>
      <trkpt lat="47.2059" lon="-1.67944">
        <ele>47</ele>
        <time>2021-08-28T10:01:30.000Z</time>
      </trkpt>
      <trkpt lat="47.20595" lon="-1.67961">
        <ele>47</ele>
        <time>2021-08-28T10:01:32.000Z</time>
      </trkpt>
      <trkpt lat="47.206" lon="-1.67979">
        <ele>47</ele>
        <time>2021-08-28T10:01:34.000Z</time>
      </trkpt>
      <trkpt lat="47.20606" lon="-1.67997">
        <ele>48</ele>
        <time>2021-08-28T10:01:36.000Z</time>
      </trkpt>
      <trkpt lat="47.20611" lon="-1.68016">
        <ele>47</ele>
        <time>2021-08-28T10:01:38.000Z</time>
      </trkpt>
      <trkpt lat="47.20617" lon="-1.68035">
        <ele>47</ele>
        <time>2021-08-28T10:01:40.000Z</time>
      </trkpt>
      <trkpt lat="47.20622" lon="-1.68054">
        <ele>47</ele>
        <time>2021-08-28T10:01:42.000Z</time>
      </trkpt>
      <trkpt lat="47.20627" lon="-1.68072">
        <ele>47</ele>
        <time>2021-08-28T10:01:44.000Z</time>
      </trkpt>
      <trkpt lat="47.20633" lon="-1.6809">
        <ele>47</ele>
        <time>2021-08-28T10:01:46.000Z</time>
      </trkpt>
      <trkpt lat="47.20638" lon="-1.68109">
        <ele>46</ele>
        <time>2021-08-28T10:01:48.000Z</time>
      </trkpt>
      <trkpt lat="47.20644" lon="-1.68127">
        <ele>46</ele>
        <time>2021-08-28T10:01:50.000Z</time>
      </trkpt>
      <trkpt lat="47.20649" lon="-1.68146">
        <ele>47</ele>
        <time>2021-08-28T10:01:52.000Z</time>
      </trkpt>
      <trkpt lat="47.20655" lon="-1.68163">
        <ele>47</ele>
        <time>2021-08-28T10:01:54.000Z</time>
      </trkpt>
      <trkpt lat="47.2066" lon="-1.68182">
        <ele>47</ele>
        <time>2021-08-28T10:01:56.000Z</time>
      </trkpt>
      <trkpt lat="47.20665" lon="-1.682">
        <ele>46</ele>
        <time>2021-08-28T10:01:58.000Z</time>
      </trkpt>
      <trkpt lat="47.2067" lon="-1.68217">
        <ele>47</ele>
        <time>2021-08-28T10:02:00.000Z</time>
      </trkpt>
      <trkpt lat="47.20675" lon="-1.68235">
        <ele>47</ele>
        <time>2021-08-28T10:02:02.000Z</time>
      </trkpt>
      <trkpt lat="47.20681" lon="-1.68254">
        <ele>46</ele>
        <time>2021-08-28T10:02:04.000Z</time>
      </trkpt>
      <trkpt lat="47.20686" lon="-1.68271">
        <ele>47</ele>
        <time>2021-08-28T10:02:06.000Z</time>
      </trkpt>
      <trkpt lat="47.20691" lon="-1.68289">
        <ele>47</ele>
        <time>2021-08-28T10:02:08.000Z</time>
      </trkpt>
      <trkpt lat="47.20697" lon="-1.68306">
        <ele>47</ele>
        <time>2021-08-28T10:02:10.000Z</time>
      </trkpt>
      <trkpt lat="47.20702" lon="-1.68324">
        <ele>47</ele>
        <time>2021-08-28T10:02:12.000Z</time>
      </trkpt>
      <trkpt lat="47.20707" lon="-1.68342">
        <ele>47</ele>
        <time>2021-08-28T10:02:14.000Z</time>
      </trkpt>
      <trkpt lat="47.20713" lon="-1.68358">
        <ele>47</ele>
        <time>2021-08-28T10:02:16.000Z</time>
      </trkpt>
      <trkpt lat="47.20723" lon="-1.6837">
        <ele>46</ele>
        <time>2021-08-28T10:02:18.000Z</time>
      </trkpt>
      <trkpt lat="47.20735" lon="-1.6838">
        <ele>46</ele>
        <time>2021-08-28T10:02:20.000Z</time>
      </trkpt>
      <trkpt lat="47.20748" lon="-1.68385">
        <ele>46</ele>
        <time>2021-08-28T10:02:22.000Z</time>
      </trkpt>
      <trkpt lat="47.20761" lon="-1.68387">
        <ele>46</ele>
        <time>2021-08-28T10:02:24.000Z</time>
      </trkpt>
      <trkpt lat="47.20774" lon="-1.68388">
        <ele>46</ele>
        <time>2021-08-28T10:02:26.000Z</time>
      </trkpt>
      <trkpt lat="47.20787" lon="-1.68389">
        <ele>47</ele>
        <time>2021-08-28T10:02:28.000Z</time>
      </trkpt>
      <trkpt lat="47.20799" lon="-1.68391">
        <ele>47</ele>
        <time>2021-08-28T10:02:30.000Z</time>
      </trkpt>
      <trkpt lat="47.20812" lon="-1.68393">
        <ele>47</ele>
        <time>2021-08-28T10:02:32.000Z</time>
      </trkpt>
      <trkpt lat="47.20825" lon="-1.68394">
        <ele>48</ele>
        <time>2021-08-28T10:02:34.000Z</time>
      </trkpt>
      <trkpt lat="47.20837" lon="-1.68394">
        <ele>48</ele>
        <time>2021-08-28T10:02:36.000Z</time>
      </trkpt>
      <trkpt lat="47.2085" lon="-1.68395">
        <ele>48</ele>
        <time>2021-08-28T10:02:38.000Z</time>
      </trkpt>
      <trkpt lat="47.20863" lon="-1.68396">
        <ele>48</ele>
        <time>2021-08-28T10:02:40.000Z</time>
      </trkpt>
      <trkpt lat="47.20875" lon="-1.68397">
        <ele>48</ele>
        <time>2021-08-28T10:02:42.000Z</time>
      </trkpt>
      <trkpt lat="47.20888" lon="-1.68397">
        <ele>48</ele>
        <time>2021-08-28T10:02:44.000Z</time>
      </trkpt>
      <trkpt lat="47.20901" lon="-1.68398">
        <ele>49</ele>
        <time>2021-08-28T10:02:46.000Z</time>
      </trkpt>
      <trkpt lat="47.20914" lon="-1.68398">
        <ele>49</ele>
        <time>2021-08-28T10:02:48.000Z</time>
      </trkpt>
      <trkpt lat="47.20927" lon="-1.68399">
        <ele>49</ele>
        <time>2021-08-28T10:02:50.000Z</time>
      </trkpt>
      <trkpt lat="47.2094" lon="-1.68399">
        <ele>49</ele>
        <time>2021-08-28T10:02:52.000Z</time>
      </trkpt>
      <trkpt lat="47.20953" lon="-1.68399">
        <ele>50</ele>
        <time>2021-08-28T10:02:54.000Z</time>
      </trkpt>
      <trkpt lat="47.20965" lon="-1.684">
        <ele>50</ele>
        <time>2021-08-28T10:02:56.000Z</time>
      </trkpt>
      <trkpt lat="47.20978" lon="-1.684">
        <ele>50</ele>
        <time>2021-08-28T10:02:58.000Z</time>
      </trkpt>
      <trkpt lat="47.20991" lon="-1.68401">
        <ele>50</ele>
        <time>2021-08-28T10:03:00.000Z</time>
      </trkpt>
      <trkpt lat="47.21004" lon="-1.68401">
        <ele>50</ele>
        <time>2021-08-28T10:03:02.000Z</time>
      </trkpt>
      <trkpt lat="47.21017" lon="-1.68402">
        <ele>49</ele>
        <time>2021-08-28T10:03:04.000Z</time>
      </trkpt>
      <trkpt lat="47.21029" lon="-1.68402">
        <ele>49</ele>
        <time>2021-08-28T10:03:06.000Z</time>
      </trkpt>
      <trkpt lat="47.21041" lon="-1.68403">
        <ele>49</ele>
        <time>2021-08-28T10:03:08.000Z</time>
      </trkpt>
      <trkpt lat="47.21053" lon="-1.68403">
        <ele>48</ele>
        <time>2021-08-28T10:03:10.000Z</time>
      </trkpt>
      <trkpt lat="47.21065" lon="-1.68403">
        <ele>48</ele>
        <time>2021-08-28T10:03:12.000Z</time>
      </trkpt>
      <trkpt lat="47.21077" lon="-1.68404">
        <ele>48</ele>
        <time>2021-08-28T10:03:14.000Z</time>
      </trkpt>
      <trkpt lat="47.21089" lon="-1.68404">
        <ele>48</ele>
        <time>2021-08-28T10:03:16.000Z</time>
      </trkpt>
      <trkpt lat="47.21101" lon="-1.68405">
        <ele>48</ele>
        <time>2021-08-28T10:03:18.000Z</time>
      </trkpt>
      <trkpt lat="47.21114" lon="-1.68406">
        <ele>48</ele>
        <time>2021-08-28T10:03:20.000Z</time>
      </trkpt>
      <trkpt lat="47.21126" lon="-1.68406">
        <ele>48</ele>
        <time>2021-08-28T10:03:22.000Z</time>
      </trkpt>
      <trkpt lat="47.21137" lon="-1.68407">
        <ele>48</ele>
        <time>2021-08-28T10:03:24.000Z</time>
      </trkpt>
      <trkpt lat="47.21149" lon="-1.68408">
        <ele>49</ele>
        <time>2021-08-28T10:03:26.000Z</time>
      </trkpt>
      <trkpt lat="47.21161" lon="-1.68408">
        <ele>49</ele>
        <time>2021-08-28T10:03:28.000Z</time>
      </trkpt>
      <trkpt lat="47.21172" lon="-1.68408">
        <ele>50</ele>
        <time>2021-08-28T10:03:30.000Z</time>
      </trkpt>
      <trkpt lat="47.21182" lon="-1.68406">
        <ele>50</ele>
        <time>2021-08-28T10:03:32.000Z</time>
      </trkpt>
      <trkpt lat="47.21191" lon="-1.68398">
        <ele>51</ele>
        <time>2021-08-28T10:03:34.000Z</time>
      </trkpt>
      <trkpt lat="47.21194" lon="-1.6838">
        <ele>52</ele>
        <time>2021-08-28T10:03:37.000Z</time>
      </trkpt>
      <trkpt lat="47.21191" lon="-1.68366">
        <ele>54</ele>
        <time>2021-08-28T10:03:39.000Z</time>
      </trkpt>
      <trkpt lat="47.2119" lon="-1.68347">
        <ele>55</ele>
        <time>2021-08-28T10:03:42.000Z</time>
      </trkpt>
      <trkpt lat="47.21188" lon="-1.68329">
        <ele>56</ele>
        <time>2021-08-28T10:03:45.000Z</time>
      </trkpt>
      <trkpt lat="47.21188" lon="-1.68311">
        <ele>57</ele>
        <time>2021-08-28T10:03:48.000Z</time>
      </trkpt>
      <trkpt lat="47.21192" lon="-1.68295">
        <ele>58</ele>
        <time>2021-08-28T10:03:51.000Z</time>
      </trkpt>
      <trkpt lat="47.21202" lon="-1.68284">
        <ele>58</ele>
        <time>2021-08-28T10:03:54.000Z</time>
      </trkpt>
      <trkpt lat="47.21214" lon="-1.68278">
        <ele>59</ele>
        <time>2021-08-28T10:03:57.000Z</time>
      </trkpt>
      <trkpt lat="47.21227" lon="-1.68277">
        <ele>60</ele>
        <time>2021-08-28T10:04:00.000Z</time>
      </trkpt>
      <trkpt lat="47.21239" lon="-1.68274">
        <ele>61</ele>
        <time>2021-08-28T10:04:03.000Z</time>
      </trkpt>
      <trkpt lat="47.2125" lon="-1.68271">
        <ele>61</ele>
        <time>2021-08-28T10:04:06.000Z</time>
      </trkpt>
      <trkpt lat="47.21262" lon="-1.68266">
        <ele>62</ele>
        <time>2021-08-28T10:04:09.000Z</time>
      </trkpt>
      <trkpt lat="47.21273" lon="-1.68261">
        <ele>63</ele>
        <time>2021-08-28T10:04:12.000Z</time>
      </trkpt>
      <trkpt lat="47.21285" lon="-1.68257">
        <ele>64</ele>
        <time>2021-08-28T10:04:15.000Z</time>
      </trkpt>
      <trkpt lat="47.21296" lon="-1.68252">
        <ele>65</ele>
        <time>2021-08-28T10:04:18.000Z</time>
      </trkpt>
      <trkpt lat="47.21308" lon="-1.68245">
        <ele>66</ele>
        <time>2021-08-28T10:04:21.000Z</time>
      </trkpt>
      <trkpt lat="47.2132" lon="-1.6824">
        <ele>66</ele>
        <time>2021-08-28T10:04:24.000Z</time>
      </trkpt>
      <trkpt lat="47.21333" lon="-1.68235">
        <ele>66</ele>
        <time>2021-08-28T10:04:27.000Z</time>
      </trkpt>
      <trkpt lat="47.21345" lon="-1.68232">
        <ele>67</ele>
        <time>2021-08-28T10:04:30.000Z</time>
      </trkpt>
      <trkpt lat="47.21357" lon="-1.68229">
        <ele>68</ele>
        <time>2021-08-28T10:04:33.000Z</time>
      </trkpt>
      <trkpt lat="47.2137" lon="-1.68226">
        <ele>69</ele>
        <time>2021-08-28T10:04:36.000Z</time>
      </trkpt>
      <trkpt lat="47.2138" lon="-1.68224">
        <ele>69</ele>
        <time>2021-08-28T10:04:38.000Z</time>
      </trkpt>
      <trkpt lat="47.21389" lon="-1.68223">
        <ele>70</ele>
        <time>2021-08-28T10:04:40.000Z</time>
      </trkpt>
      <trkpt lat="47.21399" lon="-1.68222">
        <ele>70</ele>
        <time>2021-08-28T10:04:42.000Z</time>
      </trkpt>
      <trkpt lat="47.21409" lon="-1.68221">
        <ele>70</ele>
        <time>2021-08-28T10:04:44.000Z</time>
      </trkpt>
      <trkpt lat="47.2142" lon="-1.68221">
        <ele>71</ele>
        <time>2021-08-28T10:04:46.000Z</time>
      </trkpt>
      <trkpt lat="47.21432" lon="-1.6822">
        <ele>71</ele>
        <time>2021-08-28T10:04:48.000Z</time>
      </trkpt>
      <trkpt lat="47.21443" lon="-1.68219">
        <ele>70</ele>
        <time>2021-08-28T10:04:50.000Z</time>
      </trkpt>
      <trkpt lat="47.21454" lon="-1.68217">
        <ele>71</ele>
        <time>2021-08-28T10:04:52.000Z</time>
      </trkpt>
      <trkpt lat="47.21465" lon="-1.68216">
        <ele>71</ele>
        <time>2021-08-28T10:04:54.000Z</time>
      </trkpt>
      <trkpt lat="47.21476" lon="-1.68215">
        <ele>71</ele>
        <time>2021-08-28T10:04:56.000Z</time>
      </trkpt>
      <trkpt lat="47.21487" lon="-1.6821">
        <ele>72</ele>
        <time>2021-08-28T10:04:58.000Z</time>
      </trkpt>
      <trkpt lat="47.21497" lon="-1.68204">
        <ele>72</ele>
        <time>2021-08-28T10:05:00.000Z</time>
      </trkpt>
      <trkpt lat="47.21507" lon="-1.68197">
        <ele>72</ele>
        <time>2021-08-28T10:05:02.000Z</time>
      </trkpt>
      <trkpt lat="47.21517" lon="-1.6819">
        <ele>72</ele>
        <time>2021-08-28T10:05:04.000Z</time>
      </trkpt>
      <trkpt lat="47.21526" lon="-1.68182">
        <ele>72</ele>
        <time>2021-08-28T10:05:06.000Z</time>
      </trkpt>
      <trkpt lat="47.21535" lon="-1.68174">
        <ele>72</ele>
        <time>2021-08-28T10:05:08.000Z</time>
      </trkpt>
      <trkpt lat="47.21546" lon="-1.6817">
        <ele>73</ele>
        <time>2021-08-28T10:05:10.000Z</time>
      </trkpt>
      <trkpt lat="47.21558" lon="-1.68175">
        <ele>74</ele>
        <time>2021-08-28T10:05:12.000Z</time>
      </trkpt>
      <trkpt lat="47.21571" lon="-1.68178">
        <ele>75</ele>
        <time>2021-08-28T10:05:14.000Z</time>
      </trkpt>
      <trkpt lat="47.21583" lon="-1.68181">
        <ele>75</ele>
        <time>2021-08-28T10:05:16.000Z</time>
      </trkpt>
      <trkpt lat="47.21595" lon="-1.68184">
        <ele>75</ele>
        <time>2021-08-28T10:05:18.000Z</time>
      </trkpt>
      <trkpt lat="47.21607" lon="-1.68186">
        <ele>77</ele>
        <time>2021-08-28T10:05:20.000Z</time>
      </trkpt>
      <trkpt lat="47.21619" lon="-1.68189">
        <ele>77</ele>
        <time>2021-08-28T10:05:22.000Z</time>
      </trkpt>
      <trkpt lat="47.21631" lon="-1.68192">
        <ele>78</ele>
        <time>2021-08-28T10:05:24.000Z</time>
      </trkpt>
      <trkpt lat="47.21642" lon="-1.68194">
        <ele>79</ele>
        <time>2021-08-28T10:05:26.000Z</time>
      </trkpt>
      <trkpt lat="47.21654" lon="-1.68197">
        <ele>80</ele>
        <time>2021-08-28T10:05:28.000Z</time>
      </trkpt>
      <trkpt lat="47.21667" lon="-1.68199">
        <ele>80</ele>
        <time>2021-08-28T10:05:30.000Z</time>
      </trkpt>
      <trkpt lat="47.21679" lon="-1.68201">
        <ele>80</ele>
        <time>2021-08-28T10:05:32.000Z</time>
      </trkpt>
      <trkpt lat="47.21692" lon="-1.68204">
        <ele>79</ele>
        <time>2021-08-28T10:05:34.000Z</time>
      </trkpt>
      <trkpt lat="47.21704" lon="-1.68207">
        <ele>78</ele>
        <time>2021-08-28T10:05:36.000Z</time>
      </trkpt>
      <trkpt lat="47.21717" lon="-1.68209">
        <ele>78</ele>
        <time>2021-08-28T10:05:38.000Z</time>
      </trkpt>
      <trkpt lat="47.2173" lon="-1.68211">
        <ele>78</ele>
        <time>2021-08-28T10:05:40.000Z</time>
      </trkpt>
      <trkpt lat="47.21743" lon="-1.68214">
        <ele>77</ele>
        <time>2021-08-28T10:05:42.000Z</time>
      </trkpt>
      <trkpt lat="47.21756" lon="-1.68217">
        <ele>76</ele>
        <time>2021-08-28T10:05:44.000Z</time>
      </trkpt>
      <trkpt lat="47.21769" lon="-1.68221">
        <ele>76</ele>
        <time>2021-08-28T10:05:46.000Z</time>
      </trkpt>
      <trkpt lat="47.21782" lon="-1.68224">
        <ele>76</ele>
        <time>2021-08-28T10:05:48.000Z</time>
      </trkpt>
      <trkpt lat="47.21795" lon="-1.68225">
        <ele>75</ele>
        <time>2021-08-28T10:05:50.000Z</time>
      </trkpt>
      <trkpt lat="47.21809" lon="-1.68225">
        <ele>74</ele>
        <time>2021-08-28T10:05:52.000Z</time>
      </trkpt>
      <trkpt lat="47.21822" lon="-1.68227">
        <ele>74</ele>
        <time>2021-08-28T10:05:54.000Z</time>
      </trkpt>
      <trkpt lat="47.21835" lon="-1.6823">
        <ele>75</ele>
        <time>2021-08-28T10:05:56.000Z</time>
      </trkpt>
      <trkpt lat="47.21849" lon="-1.68231">
        <ele>74</ele>
        <time>2021-08-28T10:05:58.000Z</time>
      </trkpt>
      <trkpt lat="47.21862" lon="-1.68231">
        <ele>73</ele>
        <time>2021-08-28T10:06:00.000Z</time>
      </trkpt>
      <trkpt lat="47.21875" lon="-1.68228">
        <ele>73</ele>
        <time>2021-08-28T10:06:02.000Z</time>
      </trkpt>
      <trkpt lat="47.21893" lon="-1.68219">
        <ele>72</ele>
        <time>2021-08-28T10:06:05.000Z</time>
      </trkpt>
      <trkpt lat="47.21912" lon="-1.68208">
        <ele>72</ele>
        <time>2021-08-28T10:06:08.000Z</time>
      </trkpt>
      <trkpt lat="47.21923" lon="-1.68201">
        <ele>71</ele>
        <time>2021-08-28T10:06:10.000Z</time>
      </trkpt>
      <trkpt lat="47.2194" lon="-1.6819">
        <ele>71</ele>
        <time>2021-08-28T10:06:13.000Z</time>
      </trkpt>
      <trkpt lat="47.21951" lon="-1.68183">
        <ele>71</ele>
        <time>2021-08-28T10:06:15.000Z</time>
      </trkpt>
      <trkpt lat="47.21967" lon="-1.68173">
        <ele>71</ele>
        <time>2021-08-28T10:06:18.000Z</time>
      </trkpt>
      <trkpt lat="47.21978" lon="-1.68166">
        <ele>71</ele>
        <time>2021-08-28T10:06:20.000Z</time>
      </trkpt>
      <trkpt lat="47.21989" lon="-1.68159">
        <ele>71</ele>
        <time>2021-08-28T10:06:22.000Z</time>
      </trkpt>
      <trkpt lat="47.21999" lon="-1.68152">
        <ele>71</ele>
        <time>2021-08-28T10:06:24.000Z</time>
      </trkpt>
      <trkpt lat="47.22009" lon="-1.68144">
        <ele>71</ele>
        <time>2021-08-28T10:06:26.000Z</time>
      </trkpt>
      <trkpt lat="47.22019" lon="-1.68136">
        <ele>72</ele>
        <time>2021-08-28T10:06:28.000Z</time>
      </trkpt>
      <trkpt lat="47.22028" lon="-1.68127">
        <ele>72</ele>
        <time>2021-08-28T10:06:30.000Z</time>
      </trkpt>
      <trkpt lat="47.22037" lon="-1.68117">
        <ele>72</ele>
        <time>2021-08-28T10:06:32.000Z</time>
      </trkpt>
      <trkpt lat="47.22045" lon="-1.68107">
        <ele>72</ele>
        <time>2021-08-28T10:06:34.000Z</time>
      </trkpt>
      <trkpt lat="47.22053" lon="-1.68096">
        <ele>73</ele>
        <time>2021-08-28T10:06:36.000Z</time>
      </trkpt>
      <trkpt lat="47.22061" lon="-1.68085">
        <ele>73</ele>
        <time>2021-08-28T10:06:38.000Z</time>
      </trkpt>
      <trkpt lat="47.22069" lon="-1.68074">
        <ele>73</ele>
        <time>2021-08-28T10:06:40.000Z</time>
      </trkpt>
      <trkpt lat="47.22078" lon="-1.68063">
        <ele>74</ele>
        <time>2021-08-28T10:06:42.000Z</time>
      </trkpt>
      <trkpt lat="47.22086" lon="-1.68051">
        <ele>74</ele>
        <time>2021-08-28T10:06:44.000Z</time>
      </trkpt>
      <trkpt lat="47.22094" lon="-1.68041">
        <ele>75</ele>
        <time>2021-08-28T10:06:46.000Z</time>
      </trkpt>
      <trkpt lat="47.22103" lon="-1.68029">
        <ele>75</ele>
        <time>2021-08-28T10:06:48.000Z</time>
      </trkpt>
      <trkpt lat="47.2211" lon="-1.68019">
        <ele>75</ele>
        <time>2021-08-28T10:06:50.000Z</time>
      </trkpt>
      <trkpt lat="47.22119" lon="-1.68008">
        <ele>76</ele>
        <time>2021-08-28T10:06:52.000Z</time>
      </trkpt>
      <trkpt lat="47.22127" lon="-1.67999">
        <ele>76</ele>
        <time>2021-08-28T10:06:54.000Z</time>
      </trkpt>
      <trkpt lat="47.22136" lon="-1.67991">
        <ele>76</ele>
        <time>2021-08-28T10:06:56.000Z</time>
      </trkpt>
      <trkpt lat="47.22146" lon="-1.67983">
        <ele>76</ele>
        <time>2021-08-28T10:06:58.000Z</time>
      </trkpt>
      <trkpt lat="47.22156" lon="-1.67976">
        <ele>75</ele>
        <time>2021-08-28T10:07:00.000Z</time>
      </trkpt>
      <trkpt lat="47.22166" lon="-1.67969">
        <ele>75</ele>
        <time>2021-08-28T10:07:02.000Z</time>
      </trkpt>
      <trkpt lat="47.22176" lon="-1.67962">
        <ele>75</ele>
        <time>2021-08-28T10:07:04.000Z</time>
      </trkpt>
      <trkpt lat="47.22186" lon="-1.67955">
        <ele>75</ele>
        <time>2021-08-28T10:07:06.000Z</time>
      </trkpt>
      <trkpt lat="47.22197" lon="-1.67948">
        <ele>75</ele>
        <time>2021-08-28T10:07:08.000Z</time>
      </trkpt>
      <trkpt lat="47.22207" lon="-1.67941">
        <ele>74</ele>
        <time>2021-08-28T10:07:10.000Z</time>
      </trkpt>
      <trkpt lat="47.22218" lon="-1.67934">
        <ele>73</ele>
        <time>2021-08-28T10:07:12.000Z</time>
      </trkpt>
      <trkpt lat="47.22228" lon="-1.67927">
        <ele>73</ele>
        <time>2021-08-28T10:07:14.000Z</time>
      </trkpt>
      <trkpt lat="47.22239" lon="-1.6792">
        <ele>73</ele>
        <time>2021-08-28T10:07:16.000Z</time>
      </trkpt>
      <trkpt lat="47.22249" lon="-1.67913">
        <ele>72</ele>
        <time>2021-08-28T10:07:18.000Z</time>
      </trkpt>
      <trkpt lat="47.2226" lon="-1.67906">
        <ele>72</ele>
        <time>2021-08-28T10:07:20.000Z</time>
      </trkpt>
      <trkpt lat="47.2227" lon="-1.67899">
        <ele>72</ele>
        <time>2021-08-28T10:07:22.000Z</time>
      </trkpt>
      <trkpt lat="47.2228" lon="-1.67892">
        <ele>72</ele>
        <time>2021-08-28T10:07:24.000Z</time>
      </trkpt>
      <trkpt lat="47.22291" lon="-1.67885">
        <ele>71</ele>
        <time>2021-08-28T10:07:26.000Z</time>
      </trkpt>
      <trkpt lat="47.22302" lon="-1.67877">
        <ele>71</ele>
        <time>2021-08-28T10:07:28.000Z</time>
      </trkpt>
      <trkpt lat="47.22313" lon="-1.6787">
        <ele>71</ele>
        <time>2021-08-28T10:07:30.000Z</time>
      </trkpt>
      <trkpt lat="47.22325" lon="-1.67862">
        <ele>71</ele>
        <time>2021-08-28T10:07:32.000Z</time>
      </trkpt>
      <trkpt lat="47.22335" lon="-1.67855">
        <ele>71</ele>
        <time>2021-08-28T10:07:34.000Z</time>
      </trkpt>
      <trkpt lat="47.22346" lon="-1.67849">
        <ele>71</ele>
        <time>2021-08-28T10:07:36.000Z</time>
      </trkpt>
      <trkpt lat="47.22357" lon="-1.67844">
        <ele>71</ele>
        <time>2021-08-28T10:07:38.000Z</time>
      </trkpt>
      <trkpt lat="47.22367" lon="-1.6784">
        <ele>72</ele>
        <time>2021-08-28T10:07:40.000Z</time>
      </trkpt>
      <trkpt lat="47.22378" lon="-1.67836">
        <ele>72</ele>
        <time>2021-08-28T10:07:42.000Z</time>
      </trkpt>
      <trkpt lat="47.22388" lon="-1.67832">
        <ele>73</ele>
        <time>2021-08-28T10:07:44.000Z</time>
      </trkpt>
      <trkpt lat="47.22399" lon="-1.67828">
        <ele>73</ele>
        <time>2021-08-28T10:07:46.000Z</time>
      </trkpt>
      <trkpt lat="47.22409" lon="-1.67826">
        <ele>74</ele>
        <time>2021-08-28T10:07:48.000Z</time>
      </trkpt>
      <trkpt lat="47.2242" lon="-1.67825">
        <ele>75</ele>
        <time>2021-08-28T10:07:50.000Z</time>
      </trkpt>
      <trkpt lat="47.22431" lon="-1.67823">
        <ele>75</ele>
        <time>2021-08-28T10:07:52.000Z</time>
      </trkpt>
      <trkpt lat="47.22442" lon="-1.67822">
        <ele>75</ele>
        <time>2021-08-28T10:07:54.000Z</time>
      </trkpt>
      <trkpt lat="47.22453" lon="-1.67822">
        <ele>76</ele>
        <time>2021-08-28T10:07:56.000Z</time>
      </trkpt>
      <trkpt lat="47.22464" lon="-1.67823">
        <ele>76</ele>
        <time>2021-08-28T10:07:58.000Z</time>
      </trkpt>
      <trkpt lat="47.22475" lon="-1.67824">
        <ele>76</ele>
        <time>2021-08-28T10:08:00.000Z</time>
      </trkpt>
      <trkpt lat="47.22485" lon="-1.67825">
        <ele>76</ele>
        <time>2021-08-28T10:08:02.000Z</time>
      </trkpt>
      <trkpt lat="47.22495" lon="-1.67827">
        <ele>76</ele>
        <time>2021-08-28T10:08:04.000Z</time>
      </trkpt>
      <trkpt lat="47.22506" lon="-1.67829">
        <ele>76</ele>
        <time>2021-08-28T10:08:06.000Z</time>
      </trkpt>
      <trkpt lat="47.22516" lon="-1.6783">
        <ele>77</ele>
        <time>2021-08-28T10:08:08.000Z</time>
      </trkpt>
      <trkpt lat="47.22527" lon="-1.67832">
        <ele>77</ele>
        <time>2021-08-28T10:08:10.000Z</time>
      </trkpt>
      <trkpt lat="47.22537" lon="-1.67834">
        <ele>78</ele>
        <time>2021-08-28T10:08:12.000Z</time>
      </trkpt>
      <trkpt lat="47.22548" lon="-1.67835">
        <ele>79</ele>
        <time>2021-08-28T10:08:14.000Z</time>
      </trkpt>
      <trkpt lat="47.22558" lon="-1.67836">
        <ele>80</ele>
        <time>2021-08-28T10:08:16.000Z</time>
      </trkpt>
      <trkpt lat="47.22568" lon="-1.67837">
        <ele>80</ele>
        <time>2021-08-28T10:08:18.000Z</time>
      </trkpt>
      <trkpt lat="47.22577" lon="-1.67833">
        <ele>82</ele>
        <time>2021-08-28T10:08:20.000Z</time>
      </trkpt>
      <trkpt lat="47.22586" lon="-1.67826">
        <ele>82</ele>
        <time>2021-08-28T10:08:22.000Z</time>
      </trkpt>
      <trkpt lat="47.22597" lon="-1.67828">
        <ele>82</ele>
        <time>2021-08-28T10:08:24.000Z</time>
      </trkpt>
      <trkpt lat="47.22607" lon="-1.67834">
        <ele>82</ele>
        <time>2021-08-28T10:08:26.000Z</time>
      </trkpt>
      <trkpt lat="47.22617" lon="-1.67835">
        <ele>82</ele>
        <time>2021-08-28T10:08:28.000Z</time>
      </trkpt>
      <trkpt lat="47.22628" lon="-1.67833">
        <ele>83</ele>
        <time>2021-08-28T10:08:30.000Z</time>
      </trkpt>
      <trkpt lat="47.22638" lon="-1.67832">
        <ele>83</ele>
        <time>2021-08-28T10:08:32.000Z</time>
      </trkpt>
      <trkpt lat="47.22649" lon="-1.6783">
        <ele>83</ele>
        <time>2021-08-28T10:08:34.000Z</time>
      </trkpt>
      <trkpt lat="47.2266" lon="-1.67828">
        <ele>83</ele>
        <time>2021-08-28T10:08:36.000Z</time>
      </trkpt>
      <trkpt lat="47.2267" lon="-1.67826">
        <ele>84</ele>
        <time>2021-08-28T10:08:38.000Z</time>
      </trkpt>
      <trkpt lat="47.2268" lon="-1.67823">
        <ele>84</ele>
        <time>2021-08-28T10:08:40.000Z</time>
      </trkpt>
      <trkpt lat="47.2269" lon="-1.67821">
        <ele>84</ele>
        <time>2021-08-28T10:08:42.000Z</time>
      </trkpt>
      <trkpt lat="47.227" lon="-1.67818">
        <ele>84</ele>
        <time>2021-08-28T10:08:44.000Z</time>
      </trkpt>
      <trkpt lat="47.2271" lon="-1.67817">
        <ele>84</ele>
        <time>2021-08-28T10:08:46.000Z</time>
      </trkpt>
      <trkpt lat="47.2272" lon="-1.67815">
        <ele>84</ele>
        <time>2021-08-28T10:08:48.000Z</time>
      </trkpt>
      <trkpt lat="47.22729" lon="-1.67812">
        <ele>85</ele>
        <time>2021-08-28T10:08:50.000Z</time>
      </trkpt>
      <trkpt lat="47.22739" lon="-1.6781">
        <ele>86</ele>
        <time>2021-08-28T10:08:52.000Z</time>
      </trkpt>
      <trkpt lat="47.22749" lon="-1.67808">
        <ele>86</ele>
        <time>2021-08-28T10:08:54.000Z</time>
      </trkpt>
      <trkpt lat="47.22758" lon="-1.67805">
        <ele>86</ele>
        <time>2021-08-28T10:08:56.000Z</time>
      </trkpt>
      <trkpt lat="47.22768" lon="-1.67802">
        <ele>86</ele>
        <time>2021-08-28T10:08:58.000Z</time>
      </trkpt>
      <trkpt lat="47.22778" lon="-1.67798">
        <ele>87</ele>
        <time>2021-08-28T10:09:00.000Z</time>
      </trkpt>
      <trkpt lat="47.22788" lon="-1.67794">
        <ele>87</ele>
        <time>2021-08-28T10:09:02.000Z</time>
      </trkpt>
      <trkpt lat="47.22797" lon="-1.6779">
        <ele>88</ele>
        <time>2021-08-28T10:09:04.000Z</time>
      </trkpt>
      <trkpt lat="47.22807" lon="-1.67786">
        <ele>88</ele>
        <time>2021-08-28T10:09:06.000Z</time>
      </trkpt>
      <trkpt lat="47.22817" lon="-1.67782">
        <ele>88</ele>
        <time>2021-08-28T10:09:08.000Z</time>
      </trkpt>
      <trkpt lat="47.22826" lon="-1.67777">
        <ele>89</ele>
        <time>2021-08-28T10:09:10.000Z</time>
      </trkpt>
      <trkpt lat="47.22836" lon="-1.67773">
        <ele>89</ele>
        <time>2021-08-28T10:09:12.000Z</time>
      </trkpt>
      <trkpt lat="47.22845" lon="-1.67768">
        <ele>90</ele>
        <time>2021-08-28T10:09:14.000Z</time>
      </trkpt>
      <trkpt lat="47.22854" lon="-1.67762">
        <ele>90</ele>
        <time>2021-08-28T10:09:16.000Z</time>
      </trkpt>
      <trkpt lat="47.22863" lon="-1.67757">
        <ele>91</ele>
        <time>2021-08-28T10:09:18.000Z</time>
      </trkpt>
      <trkpt lat="47.22872" lon="-1.67751">
        <ele>91</ele>
        <time>2021-08-28T10:09:20.000Z</time>
      </trkpt>
      <trkpt lat="47.22882" lon="-1.67746">
        <ele>91</ele>
        <time>2021-08-28T10:09:22.000Z</time>
      </trkpt>
      <trkpt lat="47.22891" lon="-1.67741">
        <ele>91</ele>
        <time>2021-08-28T10:09:24.000Z</time>
      </trkpt>
      <trkpt lat="47.22901" lon="-1.67735">
        <ele>92</ele>
        <time>2021-08-28T10:09:26.000Z</time>
      </trkpt>
      <trkpt lat="47.22911" lon="-1.67729">
        <ele>92</ele>
        <time>2021-08-28T10:09:28.000Z</time>
      </trkpt>
      <trkpt lat="47.2292" lon="-1.67722">
        <ele>92</ele>
        <time>2021-08-28T10:09:30.000Z</time>
      </trkpt>
      <trkpt lat="47.2293" lon="-1.67715">
        <ele>92</ele>
        <time>2021-08-28T10:09:32.000Z</time>
      </trkpt>
      <trkpt lat="47.2294" lon="-1.67709">
        <ele>92</ele>
        <time>2021-08-28T10:09:34.000Z</time>
      </trkpt>
      <trkpt lat="47.22949" lon="-1.67702">
        <ele>92</ele>
        <time>2021-08-28T10:09:36.000Z</time>
      </trkpt>
      <trkpt lat="47.22959" lon="-1.67695">
        <ele>92</ele>
        <time>2021-08-28T10:09:38.000Z</time>
      </trkpt>
      <trkpt lat="47.22968" lon="-1.67688">
        <ele>92</ele>
        <time>2021-08-28T10:09:40.000Z</time>
      </trkpt>
      <trkpt lat="47.22978" lon="-1.67681">
        <ele>92</ele>
        <time>2021-08-28T10:09:42.000Z</time>
      </trkpt>
      <trkpt lat="47.22987" lon="-1.67675">
        <ele>92</ele>
        <time>2021-08-28T10:09:44.000Z</time>
      </trkpt>
      <trkpt lat="47.22997" lon="-1.67668">
        <ele>92</ele>
        <time>2021-08-28T10:09:46.000Z</time>
      </trkpt>
      <trkpt lat="47.23007" lon="-1.67661">
        <ele>92</ele>
        <time>2021-08-28T10:09:48.000Z</time>
      </trkpt>
      <trkpt lat="47.23016" lon="-1.67654">
        <ele>92</ele>
        <time>2021-08-28T10:09:50.000Z</time>
      </trkpt>
      <trkpt lat="47.23025" lon="-1.67647">
        <ele>92</ele>
        <time>2021-08-28T10:09:52.000Z</time>
      </trkpt>
      <trkpt lat="47.23033" lon="-1.67638">
        <ele>92</ele>
        <time>2021-08-28T10:09:54.000Z</time>
      </trkpt>
      <trkpt lat="47.23041" lon="-1.67627">
        <ele>92</ele>
        <time>2021-08-28T10:09:56.000Z</time>
      </trkpt>
      <trkpt lat="47.23048" lon="-1.67616">
        <ele>92</ele>
        <time>2021-08-28T10:09:58.000Z</time>
      </trkpt>
      <trkpt lat="47.23056" lon="-1.67604">
        <ele>93</ele>
        <time>2021-08-28T10:10:00.000Z</time>
      </trkpt>
      <trkpt lat="47.23064" lon="-1.67593">
        <ele>93</ele>
        <time>2021-08-28T10:10:02.000Z</time>
      </trkpt>
      <trkpt lat="47.23071" lon="-1.67581">
        <ele>93</ele>
        <time>2021-08-28T10:10:04.000Z</time>
      </trkpt>
      <trkpt lat="47.23078" lon="-1.67568">
        <ele>94</ele>
        <time>2021-08-28T10:10:06.000Z</time>
      </trkpt>
      <trkpt lat="47.23086" lon="-1.67558">
        <ele>94</ele>
        <time>2021-08-28T10:10:08.000Z</time>
      </trkpt>
      <trkpt lat="47.23095" lon="-1.67548">
        <ele>94</ele>
        <time>2021-08-28T10:10:10.000Z</time>
      </trkpt>
      <trkpt lat="47.23103" lon="-1.67537">
        <ele>94</ele>
        <time>2021-08-28T10:10:12.000Z</time>
      </trkpt>
      <trkpt lat="47.23113" lon="-1.67527">
        <ele>94</ele>
        <time>2021-08-28T10:10:14.000Z</time>
      </trkpt>
      <trkpt lat="47.23122" lon="-1.67518">
        <ele>94</ele>
        <time>2021-08-28T10:10:16.000Z</time>
      </trkpt>
      <trkpt lat="47.23131" lon="-1.67508">
        <ele>94</ele>
        <time>2021-08-28T10:10:18.000Z</time>
      </trkpt>
      <trkpt lat="47.2314" lon="-1.67498">
        <ele>94</ele>
        <time>2021-08-28T10:10:20.000Z</time>
      </trkpt>
      <trkpt lat="47.23149" lon="-1.67488">
        <ele>94</ele>
        <time>2021-08-28T10:10:22.000Z</time>
      </trkpt>
      <trkpt lat="47.23158" lon="-1.67478">
        <ele>94</ele>
        <time>2021-08-28T10:10:24.000Z</time>
      </trkpt>
      <trkpt lat="47.23166" lon="-1.67469">
        <ele>95</ele>
        <time>2021-08-28T10:10:26.000Z</time>
      </trkpt>
      <trkpt lat="47.23174" lon="-1.6746">
        <ele>95</ele>
        <time>2021-08-28T10:10:28.000Z</time>
      </trkpt>
      <trkpt lat="47.23183" lon="-1.6745">
        <ele>95</ele>
        <time>2021-08-28T10:10:30.000Z</time>
      </trkpt>
      <trkpt lat="47.23192" lon="-1.6744">
        <ele>96</ele>
        <time>2021-08-28T10:10:32.000Z</time>
      </trkpt>
      <trkpt lat="47.232" lon="-1.67431">
        <ele>97</ele>
        <time>2021-08-28T10:10:34.000Z</time>
      </trkpt>
      <trkpt lat="47.23209" lon="-1.67422">
        <ele>98</ele>
        <time>2021-08-28T10:10:36.000Z</time>
      </trkpt>
      <trkpt lat="47.23217" lon="-1.67414">
        <ele>98</ele>
        <time>2021-08-28T10:10:38.000Z</time>
      </trkpt>
      <trkpt lat="47.23225" lon="-1.67407">
        <ele>99</ele>
        <time>2021-08-28T10:10:40.000Z</time>
      </trkpt>
      <trkpt lat="47.23233" lon="-1.67399">
        <ele>99</ele>
        <time>2021-08-28T10:10:42.000Z</time>
      </trkpt>
      <trkpt lat="47.2324" lon="-1.67392">
        <ele>100</ele>
        <time>2021-08-28T10:10:44.000Z</time>
      </trkpt>
      <trkpt lat="47.23249" lon="-1.67385">
        <ele>100</ele>
        <time>2021-08-28T10:10:46.000Z</time>
      </trkpt>
      <trkpt lat="47.23258" lon="-1.67378">
        <ele>101</ele>
        <time>2021-08-28T10:10:48.000Z</time>
      </trkpt>
      <trkpt lat="47.23266" lon="-1.67372">
        <ele>102</ele>
        <time>2021-08-28T10:10:50.000Z</time>
      </trkpt>
      <trkpt lat="47.23275" lon="-1.67366">
        <ele>102</ele>
        <time>2021-08-28T10:10:52.000Z</time>
      </trkpt>
      <trkpt lat="47.23284" lon="-1.67359">
        <ele>102</ele>
        <time>2021-08-28T10:10:54.000Z</time>
      </trkpt>
      <trkpt lat="47.23293" lon="-1.67352">
        <ele>103</ele>
        <time>2021-08-28T10:10:56.000Z</time>
      </trkpt>
      <trkpt lat="47.23302" lon="-1.67346">
        <ele>103</ele>
        <time>2021-08-28T10:10:58.000Z</time>
      </trkpt>
      <trkpt lat="47.23311" lon="-1.6734">
        <ele>104</ele>
        <time>2021-08-28T10:11:00.000Z</time>
      </trkpt>
      <trkpt lat="47.2332" lon="-1.67335">
        <ele>103</ele>
        <time>2021-08-28T10:11:02.000Z</time>
      </trkpt>
      <trkpt lat="47.23329" lon="-1.67329">
        <ele>104</ele>
        <time>2021-08-28T10:11:04.000Z</time>
      </trkpt>
      <trkpt lat="47.23337" lon="-1.67323">
        <ele>104</ele>
        <time>2021-08-28T10:11:06.000Z</time>
      </trkpt>
      <trkpt lat="47.23346" lon="-1.67317">
        <ele>104</ele>
        <time>2021-08-28T10:11:08.000Z</time>
      </trkpt>
      <trkpt lat="47.23355" lon="-1.67311">
        <ele>104</ele>
        <time>2021-08-28T10:11:10.000Z</time>
      </trkpt>
      <trkpt lat="47.23364" lon="-1.67305">
        <ele>104</ele>
        <time>2021-08-28T10:11:12.000Z</time>
      </trkpt>
      <trkpt lat="47.23373" lon="-1.673">
        <ele>104</ele>
        <time>2021-08-28T10:11:14.000Z</time>
      </trkpt>
      <trkpt lat="47.23382" lon="-1.67294">
        <ele>104</ele>
        <time>2021-08-28T10:11:16.000Z</time>
      </trkpt>
      <trkpt lat="47.23391" lon="-1.67288">
        <ele>104</ele>
        <time>2021-08-28T10:11:18.000Z</time>
      </trkpt>
      <trkpt lat="47.234" lon="-1.67281">
        <ele>105</ele>
        <time>2021-08-28T10:11:20.000Z</time>
      </trkpt>
      <trkpt lat="47.23409" lon="-1.67275">
        <ele>105</ele>
        <time>2021-08-28T10:11:22.000Z</time>
      </trkpt>
      <trkpt lat="47.23418" lon="-1.67269">
        <ele>105</ele>
        <time>2021-08-28T10:11:24.000Z</time>
      </trkpt>
      <trkpt lat="47.23427" lon="-1.67262">
        <ele>105</ele>
        <time>2021-08-28T10:11:26.000Z</time>
      </trkpt>
      <trkpt lat="47.23436" lon="-1.67256">
        <ele>105</ele>
        <time>2021-08-28T10:11:28.000Z</time>
      </trkpt>
      <trkpt lat="47.23446" lon="-1.6725">
        <ele>105</ele>
        <time>2021-08-28T10:11:30.000Z</time>
      </trkpt>
      <trkpt lat="47.23455" lon="-1.67243">
        <ele>106</ele>
        <time>2021-08-28T10:11:32.000Z</time>
      </trkpt>
      <trkpt lat="47.23465" lon="-1.67237">
        <ele>106</ele>
        <time>2021-08-28T10:11:34.000Z</time>
      </trkpt>
      <trkpt lat="47.23474" lon="-1.67231">
        <ele>106</ele>
        <time>2021-08-28T10:11:36.000Z</time>
      </trkpt>
      <trkpt lat="47.23483" lon="-1.67224">
        <ele>106</ele>
        <time>2021-08-28T10:11:38.000Z</time>
      </trkpt>
      <trkpt lat="47.23493" lon="-1.67217">
        <ele>106</ele>
        <time>2021-08-28T10:11:40.000Z</time>
      </trkpt>
      <trkpt lat="47.23502" lon="-1.6721">
        <ele>106</ele>
        <time>2021-08-28T10:11:42.000Z</time>
      </trkpt>
      <trkpt lat="47.23512" lon="-1.67203">
        <ele>107</ele>
        <time>2021-08-28T10:11:44.000Z</time>
      </trkpt>
      <trkpt lat="47.23522" lon="-1.67197">
        <ele>107</ele>
        <time>2021-08-28T10:11:46.000Z</time>
      </trkpt>
      <trkpt lat="47.23533" lon="-1.67192">
        <ele>107</ele>
        <time>2021-08-28T10:11:48.000Z</time>
      </trkpt>
      <trkpt lat="47.23544" lon="-1.67188">
        <ele>106</ele>
        <time>2021-08-28T10:11:50.000Z</time>
      </trkpt>
      <trkpt lat="47.23555" lon="-1.67184">
        <ele>106</ele>
        <time>2021-08-28T10:11:52.000Z</time>
      </trkpt>
      <trkpt lat="47.23567" lon="-1.67181">
        <ele>106</ele>
        <time>2021-08-28T10:11:54.000Z</time>
      </trkpt>
      <trkpt lat="47.23579" lon="-1.67179">
        <ele>106</ele>
        <time>2021-08-28T10:11:56.000Z</time>
      </trkpt>
      <trkpt lat="47.23591" lon="-1.67177">
        <ele>106</ele>
        <time>2021-08-28T10:11:58.000Z</time>
      </trkpt>
      <trkpt lat="47.23602" lon="-1.67176">
        <ele>106</ele>
        <time>2021-08-28T10:12:00.000Z</time>
      </trkpt>
      <trkpt lat="47.23614" lon="-1.67174">
        <ele>106</ele>
        <time>2021-08-28T10:12:02.000Z</time>
      </trkpt>
      <trkpt lat="47.23625" lon="-1.6717">
        <ele>106</ele>
        <time>2021-08-28T10:12:04.000Z</time>
      </trkpt>
      <trkpt lat="47.23635" lon="-1.6716">
        <ele>107</ele>
        <time>2021-08-28T10:12:06.000Z</time>
      </trkpt>
      <trkpt lat="47.23645" lon="-1.67156">
        <ele>107</ele>
        <time>2021-08-28T10:12:08.000Z</time>
      </trkpt>
      <trkpt lat="47.23657" lon="-1.67162">
        <ele>106</ele>
        <time>2021-08-28T10:12:10.000Z</time>
      </trkpt>
      <trkpt lat="47.23667" lon="-1.6717">
        <ele>105</ele>
        <time>2021-08-28T10:12:12.000Z</time>
      </trkpt>
      <trkpt lat="47.2368" lon="-1.6717">
        <ele>105</ele>
        <time>2021-08-28T10:12:14.000Z</time>
      </trkpt>
      <trkpt lat="47.23691" lon="-1.67168">
        <ele>105</ele>
        <time>2021-08-28T10:12:16.000Z</time>
      </trkpt>
      <trkpt lat="47.23703" lon="-1.67167">
        <ele>105</ele>
        <time>2021-08-28T10:12:18.000Z</time>
      </trkpt>
      <trkpt lat="47.23715" lon="-1.67164">
        <ele>106</ele>
        <time>2021-08-28T10:12:20.000Z</time>
      </trkpt>
      <trkpt lat="47.23727" lon="-1.67161">
        <ele>105</ele>
        <time>2021-08-28T10:12:22.000Z</time>
      </trkpt>
      <trkpt lat="47.23738" lon="-1.67157">
        <ele>106</ele>
        <time>2021-08-28T10:12:24.000Z</time>
      </trkpt>
      <trkpt lat="47.2375" lon="-1.67153">
        <ele>106</ele>
        <time>2021-08-28T10:12:26.000Z</time>
      </trkpt>
      <trkpt lat="47.23761" lon="-1.67148">
        <ele>106</ele>
        <time>2021-08-28T10:12:28.000Z</time>
      </trkpt>
      <trkpt lat="47.23773" lon="-1.67144">
        <ele>107</ele>
        <time>2021-08-28T10:12:30.000Z</time>
      </trkpt>
      <trkpt lat="47.23784" lon="-1.6714">
        <ele>107</ele>
        <time>2021-08-28T10:12:32.000Z</time>
      </trkpt>
      <trkpt lat="47.23796" lon="-1.67136">
        <ele>107</ele>
        <time>2021-08-28T10:12:34.000Z</time>
      </trkpt>
      <trkpt lat="47.23807" lon="-1.67132">
        <ele>107</ele>
        <time>2021-08-28T10:12:36.000Z</time>
      </trkpt>
      <trkpt lat="47.23818" lon="-1.6713">
        <ele>107</ele>
        <time>2021-08-28T10:12:38.000Z</time>
      </trkpt>
      <trkpt lat="47.23829" lon="-1.67129">
        <ele>107</ele>
        <time>2021-08-28T10:12:40.000Z</time>
      </trkpt>
      <trkpt lat="47.2384" lon="-1.67129">
        <ele>107</ele>
        <time>2021-08-28T10:12:42.000Z</time>
      </trkpt>
      <trkpt lat="47.23852" lon="-1.67131">
        <ele>107</ele>
        <time>2021-08-28T10:12:44.000Z</time>
      </trkpt>
      <trkpt lat="47.23863" lon="-1.67134">
        <ele>108</ele>
        <time>2021-08-28T10:12:46.000Z</time>
      </trkpt>
      <trkpt lat="47.23873" lon="-1.67138">
        <ele>108</ele>
        <time>2021-08-28T10:12:48.000Z</time>
      </trkpt>
      <trkpt lat="47.23883" lon="-1.67143">
        <ele>109</ele>
        <time>2021-08-28T10:12:50.000Z</time>
      </trkpt>
      <trkpt lat="47.23893" lon="-1.67147">
        <ele>109</ele>
        <time>2021-08-28T10:12:52.000Z</time>
      </trkpt>
      <trkpt lat="47.23904" lon="-1.67153">
        <ele>109</ele>
        <time>2021-08-28T10:12:54.000Z</time>
      </trkpt>
      <trkpt lat="47.23914" lon="-1.67159">
        <ele>110</ele>
        <time>2021-08-28T10:12:56.000Z</time>
      </trkpt>
      <trkpt lat="47.23924" lon="-1.67165">
        <ele>110</ele>
        <time>2021-08-28T10:12:58.000Z</time>
      </trkpt>
      <trkpt lat="47.23934" lon="-1.67172">
        <ele>110</ele>
        <time>2021-08-28T10:13:00.000Z</time>
      </trkpt>
      <trkpt lat="47.23943" lon="-1.6718">
        <ele>110</ele>
        <time>2021-08-28T10:13:02.000Z</time>
      </trkpt>
      <trkpt lat="47.23952" lon="-1.6719">
        <ele>110</ele>
        <time>2021-08-28T10:13:04.000Z</time>
      </trkpt>
      <trkpt lat="47.2396" lon="-1.672">
        <ele>110</ele>
        <time>2021-08-28T10:13:06.000Z</time>
      </trkpt>
      <trkpt lat="47.23967" lon="-1.67211">
        <ele>109</ele>
        <time>2021-08-28T10:13:08.000Z</time>
      </trkpt>
      <trkpt lat="47.23973" lon="-1.67224">
        <ele>109</ele>
        <time>2021-08-28T10:13:10.000Z</time>
      </trkpt>
      <trkpt lat="47.23981" lon="-1.67236">
        <ele>109</ele>
        <time>2021-08-28T10:13:12.000Z</time>
      </trkpt>
      <trkpt lat="47.2399" lon="-1.67246">
        <ele>109</ele>
        <time>2021-08-28T10:13:14.000Z</time>
      </trkpt>
      <trkpt lat="47.23999" lon="-1.67255">
        <ele>108</ele>
        <time>2021-08-28T10:13:16.000Z</time>
      </trkpt>
      <trkpt lat="47.24009" lon="-1.67264">
        <ele>108</ele>
        <time>2021-08-28T10:13:18.000Z</time>
      </trkpt>
      <trkpt lat="47.2402" lon="-1.67271">
        <ele>107</ele>
        <time>2021-08-28T10:13:20.000Z</time>
      </trkpt>
      <trkpt lat="47.24032" lon="-1.67278">
        <ele>106</ele>
        <time>2021-08-28T10:13:22.000Z</time>
      </trkpt>
      <trkpt lat="47.24046" lon="-1.67282">
        <ele>105</ele>
        <time>2021-08-28T10:13:24.000Z</time>
      </trkpt>
      <trkpt lat="47.2406" lon="-1.67284">
        <ele>104</ele>
        <time>2021-08-28T10:13:26.000Z</time>
      </trkpt>
      <trkpt lat="47.24075" lon="-1.67286">
        <ele>103</ele>
        <time>2021-08-28T10:13:28.000Z</time>
      </trkpt>
      <trkpt lat="47.24091" lon="-1.67288">
        <ele>102</ele>
        <time>2021-08-28T10:13:30.000Z</time>
      </trkpt>
      <trkpt lat="47.24108" lon="-1.67289">
        <ele>102</ele>
        <time>2021-08-28T10:13:32.000Z</time>
      </trkpt>
      <trkpt lat="47.24124" lon="-1.6729">
        <ele>102</ele>
        <time>2021-08-28T10:13:34.000Z</time>
      </trkpt>
      <trkpt lat="47.24141" lon="-1.67291">
        <ele>102</ele>
        <time>2021-08-28T10:13:36.000Z</time>
      </trkpt>
      <trkpt lat="47.24157" lon="-1.6729">
        <ele>102</ele>
        <time>2021-08-28T10:13:38.000Z</time>
      </trkpt>
      <trkpt lat="47.24173" lon="-1.67286">
        <ele>102</ele>
        <time>2021-08-28T10:13:40.000Z</time>
      </trkpt>
      <trkpt lat="47.24188" lon="-1.6728">
        <ele>101</ele>
        <time>2021-08-28T10:13:42.000Z</time>
      </trkpt>
      <trkpt lat="47.24202" lon="-1.67274">
        <ele>100</ele>
        <time>2021-08-28T10:13:44.000Z</time>
      </trkpt>
      <trkpt lat="47.24215" lon="-1.67267">
        <ele>99</ele>
        <time>2021-08-28T10:13:46.000Z</time>
      </trkpt>
      <trkpt lat="47.24224" lon="-1.67252">
        <ele>99</ele>
        <time>2021-08-28T10:13:48.000Z</time>
      </trkpt>
      <trkpt lat="47.24227" lon="-1.67234">
        <ele>98</ele>
        <time>2021-08-28T10:13:50.000Z</time>
      </trkpt>
      <trkpt lat="47.24226" lon="-1.67218">
        <ele>98</ele>
        <time>2021-08-28T10:13:52.000Z</time>
      </trkpt>
      <trkpt lat="47.24228" lon="-1.67203">
        <ele>98</ele>
        <time>2021-08-28T10:13:54.000Z</time>
      </trkpt>
      <trkpt lat="47.24236" lon="-1.67194">
        <ele>99</ele>
        <time>2021-08-28T10:13:56.000Z</time>
      </trkpt>
      <trkpt lat="47.24243" lon="-1.67183">
        <ele>99</ele>
        <time>2021-08-28T10:13:58.000Z</time>
      </trkpt>
      <trkpt lat="47.24246" lon="-1.67167">
        <ele>98</ele>
        <time>2021-08-28T10:14:00.000Z</time>
      </trkpt>
      <trkpt lat="47.24245" lon="-1.6715">
        <ele>98</ele>
        <time>2021-08-28T10:14:02.000Z</time>
      </trkpt>
      <trkpt lat="47.24243" lon="-1.67132">
        <ele>98</ele>
        <time>2021-08-28T10:14:04.000Z</time>
      </trkpt>
      <trkpt lat="47.24242" lon="-1.67115">
        <ele>99</ele>
        <time>2021-08-28T10:14:06.000Z</time>
      </trkpt>
      <trkpt lat="47.24242" lon="-1.67098">
        <ele>100</ele>
        <time>2021-08-28T10:14:08.000Z</time>
      </trkpt>
      <trkpt lat="47.24241" lon="-1.67081">
        <ele>100</ele>
        <time>2021-08-28T10:14:10.000Z</time>
      </trkpt>
      <trkpt lat="47.24242" lon="-1.67064">
        <ele>101</ele>
        <time>2021-08-28T10:14:12.000Z</time>
      </trkpt>
      <trkpt lat="47.24243" lon="-1.67048">
        <ele>101</ele>
        <time>2021-08-28T10:14:14.000Z</time>
      </trkpt>
      <trkpt lat="47.24245" lon="-1.67032">
        <ele>101</ele>
        <time>2021-08-28T10:14:16.000Z</time>
      </trkpt>
      <trkpt lat="47.24247" lon="-1.67016">
        <ele>101</ele>
        <time>2021-08-28T10:14:18.000Z</time>
      </trkpt>
      <trkpt lat="47.2425" lon="-1.67">
        <ele>101</ele>
        <time>2021-08-28T10:14:20.000Z</time>
      </trkpt>
      <trkpt lat="47.24253" lon="-1.66984">
        <ele>102</ele>
        <time>2021-08-28T10:14:22.000Z</time>
      </trkpt>
      <trkpt lat="47.24256" lon="-1.66968">
        <ele>102</ele>
        <time>2021-08-28T10:14:24.000Z</time>
      </trkpt>
      <trkpt lat="47.24259" lon="-1.66952">
        <ele>102</ele>
        <time>2021-08-28T10:14:26.000Z</time>
      </trkpt>
      <trkpt lat="47.24263" lon="-1.66937">
        <ele>102</ele>
        <time>2021-08-28T10:14:28.000Z</time>
      </trkpt>
      <trkpt lat="47.24266" lon="-1.6692">
        <ele>102</ele>
        <time>2021-08-28T10:14:30.000Z</time>
      </trkpt>
      <trkpt lat="47.24269" lon="-1.66904">
        <ele>102</ele>
        <time>2021-08-28T10:14:32.000Z</time>
      </trkpt>
      <trkpt lat="47.24272" lon="-1.66887">
        <ele>102</ele>
        <time>2021-08-28T10:14:34.000Z</time>
      </trkpt>
      <trkpt lat="47.24276" lon="-1.6687">
        <ele>101</ele>
        <time>2021-08-28T10:14:36.000Z</time>
      </trkpt>
      <trkpt lat="47.24282" lon="-1.66855">
        <ele>101</ele>
        <time>2021-08-28T10:14:38.000Z</time>
      </trkpt>
      <trkpt lat="47.24286" lon="-1.66841">
        <ele>102</ele>
        <time>2021-08-28T10:14:40.000Z</time>
      </trkpt>
      <trkpt lat="47.24291" lon="-1.66825">
        <ele>102</ele>
        <time>2021-08-28T10:14:42.000Z</time>
      </trkpt>
      <trkpt lat="47.24297" lon="-1.66812">
        <ele>102</ele>
        <time>2021-08-28T10:14:44.000Z</time>
      </trkpt>
      <trkpt lat="47.2431" lon="-1.66815">
        <ele>102</ele>
        <time>2021-08-28T10:14:46.000Z</time>
      </trkpt>
      <trkpt lat="47.24321" lon="-1.66825">
        <ele>101</ele>
        <time>2021-08-28T10:14:48.000Z</time>
      </trkpt>
      <trkpt lat="47.24332" lon="-1.66838">
        <ele>100</ele>
        <time>2021-08-28T10:14:50.000Z</time>
      </trkpt>
      <trkpt lat="47.24344" lon="-1.66847">
        <ele>99</ele>
        <time>2021-08-28T10:14:52.000Z</time>
      </trkpt>
      <trkpt lat="47.24357" lon="-1.66858">
        <ele>99</ele>
        <time>2021-08-28T10:14:54.000Z</time>
      </trkpt>
      <trkpt lat="47.24368" lon="-1.6687">
        <ele>98</ele>
        <time>2021-08-28T10:14:56.000Z</time>
      </trkpt>
      <trkpt lat="47.2438" lon="-1.66883">
        <ele>97</ele>
        <time>2021-08-28T10:14:58.000Z</time>
      </trkpt>
      <trkpt lat="47.24391" lon="-1.66897">
        <ele>96</ele>
        <time>2021-08-28T10:15:00.000Z</time>
      </trkpt>
      <trkpt lat="47.24403" lon="-1.66912">
        <ele>96</ele>
        <time>2021-08-28T10:15:02.000Z</time>
      </trkpt>
      <trkpt lat="47.24414" lon="-1.66926">
        <ele>95</ele>
        <time>2021-08-28T10:15:04.000Z</time>
      </trkpt>
      <trkpt lat="47.24425" lon="-1.66942">
        <ele>94</ele>
        <time>2021-08-28T10:15:06.000Z</time>
      </trkpt>
      <trkpt lat="47.24434" lon="-1.66958">
        <ele>94</ele>
        <time>2021-08-28T10:15:08.000Z</time>
      </trkpt>
      <trkpt lat="47.24445" lon="-1.66971">
        <ele>94</ele>
        <time>2021-08-28T10:15:10.000Z</time>
      </trkpt>
      <trkpt lat="47.24456" lon="-1.66984">
        <ele>94</ele>
        <time>2021-08-28T10:15:12.000Z</time>
      </trkpt>
      <trkpt lat="47.24467" lon="-1.66998">
        <ele>94</ele>
        <time>2021-08-28T10:15:14.000Z</time>
      </trkpt>
      <trkpt lat="47.2448" lon="-1.67005">
        <ele>94</ele>
        <time>2021-08-28T10:15:16.000Z</time>
      </trkpt>
      <trkpt lat="47.24493" lon="-1.67013">
        <ele>94</ele>
        <time>2021-08-28T10:15:18.000Z</time>
      </trkpt>
      <trkpt lat="47.24505" lon="-1.6702">
        <ele>94</ele>
        <time>2021-08-28T10:15:20.000Z</time>
      </trkpt>
      <trkpt lat="47.24517" lon="-1.67026">
        <ele>94</ele>
        <time>2021-08-28T10:15:22.000Z</time>
      </trkpt>
      <trkpt lat="47.2453" lon="-1.6703">
        <ele>94</ele>
        <time>2021-08-28T10:15:24.000Z</time>
      </trkpt>
      <trkpt lat="47.24543" lon="-1.67033">
        <ele>94</ele>
        <time>2021-08-28T10:15:26.000Z</time>
      </trkpt>
      <trkpt lat="47.24555" lon="-1.67033">
        <ele>95</ele>
        <time>2021-08-28T10:15:28.000Z</time>
      </trkpt>
      <trkpt lat="47.24568" lon="-1.67033">
        <ele>95</ele>
        <time>2021-08-28T10:15:30.000Z</time>
      </trkpt>
      <trkpt lat="47.2458" lon="-1.67031">
        <ele>96</ele>
        <time>2021-08-28T10:15:32.000Z</time>
      </trkpt>
      <trkpt lat="47.24592" lon="-1.67028">
        <ele>96</ele>
        <time>2021-08-28T10:15:34.000Z</time>
      </trkpt>
      <trkpt lat="47.24605" lon="-1.67023">
        <ele>96</ele>
        <time>2021-08-28T10:15:36.000Z</time>
      </trkpt>
      <trkpt lat="47.24618" lon="-1.67018">
        <ele>96</ele>
        <time>2021-08-28T10:15:38.000Z</time>
      </trkpt>
      <trkpt lat="47.2463" lon="-1.67013">
        <ele>96</ele>
        <time>2021-08-28T10:15:40.000Z</time>
      </trkpt>
      <trkpt lat="47.24642" lon="-1.67008">
        <ele>96</ele>
        <time>2021-08-28T10:15:42.000Z</time>
      </trkpt>
      <trkpt lat="47.24655" lon="-1.67001">
        <ele>95</ele>
        <time>2021-08-28T10:15:44.000Z</time>
      </trkpt>
      <trkpt lat="47.24667" lon="-1.66992">
        <ele>95</ele>
        <time>2021-08-28T10:15:46.000Z</time>
      </trkpt>
      <trkpt lat="47.24678" lon="-1.6698">
        <ele>94</ele>
        <time>2021-08-28T10:15:48.000Z</time>
      </trkpt>
      <trkpt lat="47.24689" lon="-1.66966">
        <ele>94</ele>
        <time>2021-08-28T10:15:50.000Z</time>
      </trkpt>
      <trkpt lat="47.24698" lon="-1.66952">
        <ele>94</ele>
        <time>2021-08-28T10:15:52.000Z</time>
      </trkpt>
      <trkpt lat="47.24708" lon="-1.66939">
        <ele>94</ele>
        <time>2021-08-28T10:15:54.000Z</time>
      </trkpt>
      <trkpt lat="47.24719" lon="-1.66927">
        <ele>94</ele>
        <time>2021-08-28T10:15:56.000Z</time>
      </trkpt>
      <trkpt lat="47.2473" lon="-1.66919">
        <ele>94</ele>
        <time>2021-08-28T10:15:58.000Z</time>
      </trkpt>
      <trkpt lat="47.24742" lon="-1.66912">
        <ele>94</ele>
        <time>2021-08-28T10:16:00.000Z</time>
      </trkpt>
      <trkpt lat="47.24755" lon="-1.66905">
        <ele>94</ele>
        <time>2021-08-28T10:16:02.000Z</time>
      </trkpt>
      <trkpt lat="47.24768" lon="-1.66898">
        <ele>94</ele>
        <time>2021-08-28T10:16:04.000Z</time>
      </trkpt>
      <trkpt lat="47.2478" lon="-1.66888">
        <ele>93</ele>
        <time>2021-08-28T10:16:06.000Z</time>
      </trkpt>
      <trkpt lat="47.24792" lon="-1.66878">
        <ele>94</ele>
        <time>2021-08-28T10:16:08.000Z</time>
      </trkpt>
      <trkpt lat="47.24803" lon="-1.66865">
        <ele>94</ele>
        <time>2021-08-28T10:16:10.000Z</time>
      </trkpt>
      <trkpt lat="47.24815" lon="-1.66856">
        <ele>93</ele>
        <time>2021-08-28T10:16:12.000Z</time>
      </trkpt>
      <trkpt lat="47.24827" lon="-1.66848">
        <ele>93</ele>
        <time>2021-08-28T10:16:14.000Z</time>
      </trkpt>
      <trkpt lat="47.24841" lon="-1.66843">
        <ele>93</ele>
        <time>2021-08-28T10:16:16.000Z</time>
      </trkpt>
      <trkpt lat="47.24854" lon="-1.66838">
        <ele>93</ele>
        <time>2021-08-28T10:16:18.000Z</time>
      </trkpt>
      <trkpt lat="47.24867" lon="-1.66835">
        <ele>93</ele>
        <time>2021-08-28T10:16:20.000Z</time>
      </trkpt>
      <trkpt lat="47.24881" lon="-1.6683">
        <ele>93</ele>
        <time>2021-08-28T10:16:22.000Z</time>
      </trkpt>
      <trkpt lat="47.24895" lon="-1.66826">
        <ele>93</ele>
        <time>2021-08-28T10:16:24.000Z</time>
      </trkpt>
      <trkpt lat="47.24909" lon="-1.66822">
        <ele>93</ele>
        <time>2021-08-28T10:16:26.000Z</time>
      </trkpt>
      <trkpt lat="47.24923" lon="-1.66818">
        <ele>93</ele>
        <time>2021-08-28T10:16:28.000Z</time>
      </trkpt>
      <trkpt lat="47.24937" lon="-1.66813">
        <ele>93</ele>
        <time>2021-08-28T10:16:30.000Z</time>
      </trkpt>
      <trkpt lat="47.24951" lon="-1.66809">
        <ele>93</ele>
        <time>2021-08-28T10:16:32.000Z</time>
      </trkpt>
      <trkpt lat="47.24965" lon="-1.66804">
        <ele>93</ele>
        <time>2021-08-28T10:16:34.000Z</time>
      </trkpt>
      <trkpt lat="47.24979" lon="-1.668">
        <ele>93</ele>
        <time>2021-08-28T10:16:36.000Z</time>
      </trkpt>
      <trkpt lat="47.24994" lon="-1.66797">
        <ele>93</ele>
        <time>2021-08-28T10:16:38.000Z</time>
      </trkpt>
      <trkpt lat="47.25008" lon="-1.66793">
        <ele>93</ele>
        <time>2021-08-28T10:16:40.000Z</time>
      </trkpt>
      <trkpt lat="47.25022" lon="-1.66792">
        <ele>93</ele>
        <time>2021-08-28T10:16:42.000Z</time>
      </trkpt>
      <trkpt lat="47.25037" lon="-1.6679">
        <ele>93</ele>
        <time>2021-08-28T10:16:44.000Z</time>
      </trkpt>
      <trkpt lat="47.25051" lon="-1.66791">
        <ele>93</ele>
        <time>2021-08-28T10:16:46.000Z</time>
      </trkpt>
      <trkpt lat="47.25066" lon="-1.66793">
        <ele>92</ele>
        <time>2021-08-28T10:16:48.000Z</time>
      </trkpt>
      <trkpt lat="47.25081" lon="-1.66795">
        <ele>93</ele>
        <time>2021-08-28T10:16:50.000Z</time>
      </trkpt>
      <trkpt lat="47.25096" lon="-1.66799">
        <ele>92</ele>
        <time>2021-08-28T10:16:52.000Z</time>
      </trkpt>
      <trkpt lat="47.25112" lon="-1.66804">
        <ele>91</ele>
        <time>2021-08-28T10:16:54.000Z</time>
      </trkpt>
      <trkpt lat="47.25129" lon="-1.66809">
        <ele>90</ele>
        <time>2021-08-28T10:16:56.000Z</time>
      </trkpt>
      <trkpt lat="47.25147" lon="-1.66815">
        <ele>89</ele>
        <time>2021-08-28T10:16:58.000Z</time>
      </trkpt>
      <trkpt lat="47.25156" lon="-1.66818">
        <ele>89</ele>
        <time>2021-08-28T10:16:59.000Z</time>
      </trkpt>
      <trkpt lat="47.25165" lon="-1.66821">
        <ele>88</ele>
        <time>2021-08-28T10:17:00.000Z</time>
      </trkpt>
      <trkpt lat="47.25174" lon="-1.66823">
        <ele>88</ele>
        <time>2021-08-28T10:17:01.000Z</time>
      </trkpt>
      <trkpt lat="47.25191" lon="-1.66828">
        <ele>89</ele>
        <time>2021-08-28T10:17:03.000Z</time>
      </trkpt>
      <trkpt lat="47.25208" lon="-1.66831">
        <ele>89</ele>
        <time>2021-08-28T10:17:05.000Z</time>
      </trkpt>
      <trkpt lat="47.25225" lon="-1.66834">
        <ele>88</ele>
        <time>2021-08-28T10:17:07.000Z</time>
      </trkpt>
      <trkpt lat="47.25239" lon="-1.66837">
        <ele>88</ele>
        <time>2021-08-28T10:17:09.000Z</time>
      </trkpt>
      <trkpt lat="47.25253" lon="-1.66839">
        <ele>88</ele>
        <time>2021-08-28T10:17:11.000Z</time>
      </trkpt>
      <trkpt lat="47.25265" lon="-1.66841">
        <ele>89</ele>
        <time>2021-08-28T10:17:13.000Z</time>
      </trkpt>
      <trkpt lat="47.25277" lon="-1.66843">
        <ele>89</ele>
        <time>2021-08-28T10:17:15.000Z</time>
      </trkpt>
      <trkpt lat="47.25289" lon="-1.66845">
        <ele>90</ele>
        <time>2021-08-28T10:17:17.000Z</time>
      </trkpt>
      <trkpt lat="47.25301" lon="-1.66847">
        <ele>90</ele>
        <time>2021-08-28T10:17:19.000Z</time>
      </trkpt>
      <trkpt lat="47.25313" lon="-1.66849">
        <ele>91</ele>
        <time>2021-08-28T10:17:21.000Z</time>
      </trkpt>
      <trkpt lat="47.25324" lon="-1.66851">
        <ele>92</ele>
        <time>2021-08-28T10:17:23.000Z</time>
      </trkpt>
      <trkpt lat="47.25336" lon="-1.66853">
        <ele>92</ele>
        <time>2021-08-28T10:17:25.000Z</time>
      </trkpt>
      <trkpt lat="47.25348" lon="-1.66855">
        <ele>93</ele>
        <time>2021-08-28T10:17:27.000Z</time>
      </trkpt>
      <trkpt lat="47.2536" lon="-1.66856">
        <ele>93</ele>
        <time>2021-08-28T10:17:29.000Z</time>
      </trkpt>
      <trkpt lat="47.25373" lon="-1.66857">
        <ele>93</ele>
        <time>2021-08-28T10:17:31.000Z</time>
      </trkpt>
      <trkpt lat="47.25384" lon="-1.6686">
        <ele>94</ele>
        <time>2021-08-28T10:17:33.000Z</time>
      </trkpt>
      <trkpt lat="47.25397" lon="-1.66861">
        <ele>93</ele>
        <time>2021-08-28T10:17:35.000Z</time>
      </trkpt>
      <trkpt lat="47.25409" lon="-1.66862">
        <ele>94</ele>
        <time>2021-08-28T10:17:37.000Z</time>
      </trkpt>
      <trkpt lat="47.25421" lon="-1.66864">
        <ele>93</ele>
        <time>2021-08-28T10:17:39.000Z</time>
      </trkpt>
      <trkpt lat="47.25433" lon="-1.66866">
        <ele>94</ele>
        <time>2021-08-28T10:17:41.000Z</time>
      </trkpt>
      <trkpt lat="47.25445" lon="-1.66868">
        <ele>94</ele>
        <time>2021-08-28T10:17:43.000Z</time>
      </trkpt>
      <trkpt lat="47.25457" lon="-1.66869">
        <ele>94</ele>
        <time>2021-08-28T10:17:45.000Z</time>
      </trkpt>
      <trkpt lat="47.25469" lon="-1.66871">
        <ele>94</ele>
        <time>2021-08-28T10:17:47.000Z</time>
      </trkpt>
      <trkpt lat="47.2548" lon="-1.66873">
        <ele>94</ele>
        <time>2021-08-28T10:17:49.000Z</time>
      </trkpt>
      <trkpt lat="47.25491" lon="-1.66876">
        <ele>95</ele>
        <time>2021-08-28T10:17:51.000Z</time>
      </trkpt>
      <trkpt lat="47.25503" lon="-1.66877">
        <ele>94</ele>
        <time>2021-08-28T10:17:53.000Z</time>
      </trkpt>
      <trkpt lat="47.25512" lon="-1.66878">
        <ele>94</ele>
        <time>2021-08-28T10:17:55.000Z</time>
      </trkpt>
      <trkpt lat="47.25525" lon="-1.66872">
        <ele>95</ele>
        <time>2021-08-28T10:17:58.000Z</time>
      </trkpt>
      <trkpt lat="47.25536" lon="-1.66879">
        <ele>95</ele>
        <time>2021-08-28T10:18:01.000Z</time>
      </trkpt>
      <trkpt lat="47.25546" lon="-1.66881">
        <ele>96</ele>
        <time>2021-08-28T10:18:30.000Z</time>
      </trkpt>
      <trkpt lat="47.25555" lon="-1.66883">
        <ele>96</ele>
        <time>2021-08-28T10:18:33.000Z</time>
      </trkpt>
      <trkpt lat="47.25568" lon="-1.66885">
        <ele>97</ele>
        <time>2021-08-28T10:18:36.000Z</time>
      </trkpt>
      <trkpt lat="47.25578" lon="-1.66885">
        <ele>97</ele>
        <time>2021-08-28T10:18:38.000Z</time>
      </trkpt>
      <trkpt lat="47.25587" lon="-1.66886">
        <ele>97</ele>
        <time>2021-08-28T10:18:40.000Z</time>
      </trkpt>
      <trkpt lat="47.25597" lon="-1.66887">
        <ele>98</ele>
        <time>2021-08-28T10:18:42.000Z</time>
      </trkpt>
      <trkpt lat="47.25608" lon="-1.66888">
        <ele>98</ele>
        <time>2021-08-28T10:18:44.000Z</time>
      </trkpt>
      <trkpt lat="47.25619" lon="-1.66889">
        <ele>98</ele>
        <time>2021-08-28T10:18:46.000Z</time>
      </trkpt>
      <trkpt lat="47.25631" lon="-1.66889">
        <ele>98</ele>
        <time>2021-08-28T10:18:48.000Z</time>
      </trkpt>
      <trkpt lat="47.25642" lon="-1.6689">
        <ele>99</ele>
        <time>2021-08-28T10:18:50.000Z</time>
      </trkpt>
      <trkpt lat="47.25654" lon="-1.66891">
        <ele>98</ele>
        <time>2021-08-28T10:18:52.000Z</time>
      </trkpt>
      <trkpt lat="47.25665" lon="-1.66891">
        <ele>98</ele>
        <time>2021-08-28T10:18:54.000Z</time>
      </trkpt>
      <trkpt lat="47.25677" lon="-1.66892">
        <ele>98</ele>
        <time>2021-08-28T10:18:56.000Z</time>
      </trkpt>
      <trkpt lat="47.25688" lon="-1.66887">
        <ele>98</ele>
        <time>2021-08-28T10:18:58.000Z</time>
      </trkpt>
      <trkpt lat="47.257" lon="-1.66888">
        <ele>98</ele>
        <time>2021-08-28T10:19:00.000Z</time>
      </trkpt>
      <trkpt lat="47.25711" lon="-1.66893">
        <ele>98</ele>
        <time>2021-08-28T10:19:02.000Z</time>
      </trkpt>
      <trkpt lat="47.25724" lon="-1.66895">
        <ele>99</ele>
        <time>2021-08-28T10:19:04.000Z</time>
      </trkpt>
      <trkpt lat="47.25736" lon="-1.66897">
        <ele>99</ele>
        <time>2021-08-28T10:19:06.000Z</time>
      </trkpt>
      <trkpt lat="47.25748" lon="-1.66898">
        <ele>99</ele>
        <time>2021-08-28T10:19:08.000Z</time>
      </trkpt>
      <trkpt lat="47.2576" lon="-1.66899">
        <ele>99</ele>
        <time>2021-08-28T10:19:10.000Z</time>
      </trkpt>
      <trkpt lat="47.25772" lon="-1.66901">
        <ele>99</ele>
        <time>2021-08-28T10:19:12.000Z</time>
      </trkpt>
      <trkpt lat="47.25784" lon="-1.66903">
        <ele>99</ele>
        <time>2021-08-28T10:19:14.000Z</time>
      </trkpt>
      <trkpt lat="47.25795" lon="-1.66905">
        <ele>100</ele>
        <time>2021-08-28T10:19:16.000Z</time>
      </trkpt>
      <trkpt lat="47.25807" lon="-1.66907">
        <ele>100</ele>
        <time>2021-08-28T10:19:18.000Z</time>
      </trkpt>
      <trkpt lat="47.25818" lon="-1.6691">
        <ele>101</ele>
        <time>2021-08-28T10:19:20.000Z</time>
      </trkpt>
      <trkpt lat="47.2583" lon="-1.66913">
        <ele>101</ele>
        <time>2021-08-28T10:19:22.000Z</time>
      </trkpt>
      <trkpt lat="47.25841" lon="-1.66915">
        <ele>101</ele>
        <time>2021-08-28T10:19:24.000Z</time>
      </trkpt>
      <trkpt lat="47.25852" lon="-1.66919">
        <ele>101</ele>
        <time>2021-08-28T10:19:26.000Z</time>
      </trkpt>
      <trkpt lat="47.25862" lon="-1.66921">
        <ele>102</ele>
        <time>2021-08-28T10:19:28.000Z</time>
      </trkpt>
      <trkpt lat="47.25873" lon="-1.66924">
        <ele>102</ele>
        <time>2021-08-28T10:19:30.000Z</time>
      </trkpt>
      <trkpt lat="47.25884" lon="-1.66928">
        <ele>102</ele>
        <time>2021-08-28T10:19:32.000Z</time>
      </trkpt>
      <trkpt lat="47.25894" lon="-1.66932">
        <ele>102</ele>
        <time>2021-08-28T10:19:34.000Z</time>
      </trkpt>
      <trkpt lat="47.25904" lon="-1.66936">
        <ele>103</ele>
        <time>2021-08-28T10:19:36.000Z</time>
      </trkpt>
      <trkpt lat="47.25915" lon="-1.6694">
        <ele>104</ele>
        <time>2021-08-28T10:19:38.000Z</time>
      </trkpt>
      <trkpt lat="47.25925" lon="-1.66943">
        <ele>104</ele>
        <time>2021-08-28T10:19:40.000Z</time>
      </trkpt>
      <trkpt lat="47.25936" lon="-1.66947">
        <ele>104</ele>
        <time>2021-08-28T10:19:42.000Z</time>
      </trkpt>
      <trkpt lat="47.25947" lon="-1.66952">
        <ele>104</ele>
        <time>2021-08-28T10:19:44.000Z</time>
      </trkpt>
      <trkpt lat="47.25957" lon="-1.66956">
        <ele>104</ele>
        <time>2021-08-28T10:19:46.000Z</time>
      </trkpt>
      <trkpt lat="47.25967" lon="-1.66961">
        <ele>105</ele>
        <time>2021-08-28T10:19:48.000Z</time>
      </trkpt>
      <trkpt lat="47.25977" lon="-1.66966">
        <ele>105</ele>
        <time>2021-08-28T10:19:50.000Z</time>
      </trkpt>
      <trkpt lat="47.25988" lon="-1.66971">
        <ele>105</ele>
        <time>2021-08-28T10:19:52.000Z</time>
      </trkpt>
      <trkpt lat="47.25998" lon="-1.66976">
        <ele>105</ele>
        <time>2021-08-28T10:19:54.000Z</time>
      </trkpt>
      <trkpt lat="47.26009" lon="-1.66981">
        <ele>106</ele>
        <time>2021-08-28T10:19:56.000Z</time>
      </trkpt>
      <trkpt lat="47.26019" lon="-1.66985">
        <ele>106</ele>
        <time>2021-08-28T10:19:58.000Z</time>
      </trkpt>
      <trkpt lat="47.26029" lon="-1.6699">
        <ele>106</ele>
        <time>2021-08-28T10:20:00.000Z</time>
      </trkpt>
      <trkpt lat="47.2604" lon="-1.66995">
        <ele>107</ele>
        <time>2021-08-28T10:20:02.000Z</time>
      </trkpt>
      <trkpt lat="47.26051" lon="-1.66999">
        <ele>107</ele>
        <time>2021-08-28T10:20:04.000Z</time>
      </trkpt>
      <trkpt lat="47.26067" lon="-1.67006">
        <ele>108</ele>
        <time>2021-08-28T10:20:07.000Z</time>
      </trkpt>
      <trkpt lat="47.26077" lon="-1.67011">
        <ele>108</ele>
        <time>2021-08-28T10:20:09.000Z</time>
      </trkpt>
      <trkpt lat="47.26087" lon="-1.67016">
        <ele>109</ele>
        <time>2021-08-28T10:20:11.000Z</time>
      </trkpt>
      <trkpt lat="47.26103" lon="-1.67022">
        <ele>109</ele>
        <time>2021-08-28T10:20:14.000Z</time>
      </trkpt>
      <trkpt lat="47.26113" lon="-1.67027">
        <ele>110</ele>
        <time>2021-08-28T10:20:16.000Z</time>
      </trkpt>
      <trkpt lat="47.26124" lon="-1.67033">
        <ele>110</ele>
        <time>2021-08-28T10:20:18.000Z</time>
      </trkpt>
      <trkpt lat="47.26135" lon="-1.67038">
        <ele>110</ele>
        <time>2021-08-28T10:20:20.000Z</time>
      </trkpt>
      <trkpt lat="47.26145" lon="-1.67043">
        <ele>110</ele>
        <time>2021-08-28T10:20:22.000Z</time>
      </trkpt>
      <trkpt lat="47.26161" lon="-1.6705">
        <ele>111</ele>
        <time>2021-08-28T10:20:25.000Z</time>
      </trkpt>
      <trkpt lat="47.26171" lon="-1.67055">
        <ele>111</ele>
        <time>2021-08-28T10:20:27.000Z</time>
      </trkpt>
      <trkpt lat="47.2618" lon="-1.67059">
        <ele>112</ele>
        <time>2021-08-28T10:20:29.000Z</time>
      </trkpt>
      <trkpt lat="47.26197" lon="-1.67061">
        <ele>112</ele>
        <time>2021-08-28T10:20:33.000Z</time>
      </trkpt>
      <trkpt lat="47.26206" lon="-1.67066">
        <ele>112</ele>
        <time>2021-08-28T10:20:35.000Z</time>
      </trkpt>
      <trkpt lat="47.26212" lon="-1.67091">
        <ele>112</ele>
        <time>2021-08-28T10:20:38.000Z</time>
      </trkpt>
      <trkpt lat="47.26217" lon="-1.67116">
        <ele>112</ele>
        <time>2021-08-28T10:20:41.000Z</time>
      </trkpt>
      <trkpt lat="47.2622" lon="-1.67133">
        <ele>111</ele>
        <time>2021-08-28T10:20:43.000Z</time>
      </trkpt>
      <trkpt lat="47.26223" lon="-1.6715">
        <ele>111</ele>
        <time>2021-08-28T10:20:45.000Z</time>
      </trkpt>
      <trkpt lat="47.26227" lon="-1.67167">
        <ele>112</ele>
        <time>2021-08-28T10:20:47.000Z</time>
      </trkpt>
      <trkpt lat="47.26232" lon="-1.67192">
        <ele>112</ele>
        <time>2021-08-28T10:20:50.000Z</time>
      </trkpt>
      <trkpt lat="47.26235" lon="-1.67208">
        <ele>112</ele>
        <time>2021-08-28T10:20:52.000Z</time>
      </trkpt>
      <trkpt lat="47.26238" lon="-1.67223">
        <ele>112</ele>
        <time>2021-08-28T10:20:54.000Z</time>
      </trkpt>
      <trkpt lat="47.26241" lon="-1.67237">
        <ele>112</ele>
        <time>2021-08-28T10:20:56.000Z</time>
      </trkpt>
      <trkpt lat="47.26255" lon="-1.67242">
        <ele>113</ele>
        <time>2021-08-28T10:20:59.000Z</time>
      </trkpt>
      <trkpt lat="47.26266" lon="-1.67238">
        <ele>114</ele>
        <time>2021-08-28T10:21:01.000Z</time>
      </trkpt>
      <trkpt lat="47.26278" lon="-1.67236">
        <ele>113</ele>
        <time>2021-08-28T10:21:03.000Z</time>
      </trkpt>
      <trkpt lat="47.26289" lon="-1.67234">
        <ele>113</ele>
        <time>2021-08-28T10:21:05.000Z</time>
      </trkpt>
      <trkpt lat="47.26299" lon="-1.6723">
        <ele>113</ele>
        <time>2021-08-28T10:21:07.000Z</time>
      </trkpt>
      <trkpt lat="47.2631" lon="-1.67226">
        <ele>113</ele>
        <time>2021-08-28T10:21:09.000Z</time>
      </trkpt>
      <trkpt lat="47.26322" lon="-1.67221">
        <ele>114</ele>
        <time>2021-08-28T10:21:11.000Z</time>
      </trkpt>
      <trkpt lat="47.26333" lon="-1.67218">
        <ele>114</ele>
        <time>2021-08-28T10:21:13.000Z</time>
      </trkpt>
      <trkpt lat="47.26344" lon="-1.67217">
        <ele>113</ele>
        <time>2021-08-28T10:21:15.000Z</time>
      </trkpt>
      <trkpt lat="47.26353" lon="-1.67227">
        <ele>113</ele>
        <time>2021-08-28T10:21:17.000Z</time>
      </trkpt>
      <trkpt lat="47.26357" lon="-1.67244">
        <ele>113</ele>
        <time>2021-08-28T10:21:19.000Z</time>
      </trkpt>
      <trkpt lat="47.2636" lon="-1.67261">
        <ele>113</ele>
        <time>2021-08-28T10:21:21.000Z</time>
      </trkpt>
      <trkpt lat="47.26363" lon="-1.67278">
        <ele>113</ele>
        <time>2021-08-28T10:21:23.000Z</time>
      </trkpt>
      <trkpt lat="47.26371" lon="-1.67291">
        <ele>112</ele>
        <time>2021-08-28T10:21:25.000Z</time>
      </trkpt>
      <trkpt lat="47.26383" lon="-1.67295">
        <ele>112</ele>
        <time>2021-08-28T10:21:27.000Z</time>
      </trkpt>
      <trkpt lat="47.26395" lon="-1.67297">
        <ele>111</ele>
        <time>2021-08-28T10:21:29.000Z</time>
      </trkpt>
      <trkpt lat="47.26406" lon="-1.673">
        <ele>111</ele>
        <time>2021-08-28T10:21:31.000Z</time>
      </trkpt>
      <trkpt lat="47.26418" lon="-1.67305">
        <ele>111</ele>
        <time>2021-08-28T10:21:33.000Z</time>
      </trkpt>
      <trkpt lat="47.26429" lon="-1.67312">
        <ele>111</ele>
        <time>2021-08-28T10:21:35.000Z</time>
      </trkpt>
      <trkpt lat="47.2644" lon="-1.67316">
        <ele>111</ele>
        <time>2021-08-28T10:21:37.000Z</time>
      </trkpt>
      <trkpt lat="47.2645" lon="-1.6731">
        <ele>110</ele>
        <time>2021-08-28T10:21:39.000Z</time>
      </trkpt>
      <trkpt lat="47.26456" lon="-1.67295">
        <ele>110</ele>
        <time>2021-08-28T10:21:41.000Z</time>
      </trkpt>
      <trkpt lat="47.26462" lon="-1.67279">
        <ele>110</ele>
        <time>2021-08-28T10:21:43.000Z</time>
      </trkpt>
      <trkpt lat="47.26468" lon="-1.67264">
        <ele>110</ele>
        <time>2021-08-28T10:21:45.000Z</time>
      </trkpt>
      <trkpt lat="47.26474" lon="-1.67249">
        <ele>110</ele>
        <time>2021-08-28T10:21:47.000Z</time>
      </trkpt>
      <trkpt lat="47.2648" lon="-1.67234">
        <ele>110</ele>
        <time>2021-08-28T10:21:49.000Z</time>
      </trkpt>
      <trkpt lat="47.26487" lon="-1.67218">
        <ele>109</ele>
        <time>2021-08-28T10:21:51.000Z</time>
      </trkpt>
      <trkpt lat="47.26495" lon="-1.67201">
        <ele>109</ele>
        <time>2021-08-28T10:21:53.000Z</time>
      </trkpt>
      <trkpt lat="47.26504" lon="-1.67184">
        <ele>108</ele>
        <time>2021-08-28T10:21:55.000Z</time>
      </trkpt>
      <trkpt lat="47.26514" lon="-1.67169">
        <ele>106</ele>
        <time>2021-08-28T10:21:57.000Z</time>
      </trkpt>
      <trkpt lat="47.26526" lon="-1.67154">
        <ele>106</ele>
        <time>2021-08-28T10:21:59.000Z</time>
      </trkpt>
      <trkpt lat="47.26539" lon="-1.67141">
        <ele>105</ele>
        <time>2021-08-28T10:22:01.000Z</time>
      </trkpt>
      <trkpt lat="47.26553" lon="-1.67129">
        <ele>105</ele>
        <time>2021-08-28T10:22:03.000Z</time>
      </trkpt>
      <trkpt lat="47.26567" lon="-1.67119">
        <ele>104</ele>
        <time>2021-08-28T10:22:05.000Z</time>
      </trkpt>
      <trkpt lat="47.26581" lon="-1.67108">
        <ele>104</ele>
        <time>2021-08-28T10:22:07.000Z</time>
      </trkpt>
      <trkpt lat="47.26596" lon="-1.67095">
        <ele>103</ele>
        <time>2021-08-28T10:22:09.000Z</time>
      </trkpt>
      <trkpt lat="47.26613" lon="-1.67087">
        <ele>102</ele>
        <time>2021-08-28T10:22:11.000Z</time>
      </trkpt>
      <trkpt lat="47.26621" lon="-1.67083">
        <ele>101</ele>
        <time>2021-08-28T10:22:12.000Z</time>
      </trkpt>
      <trkpt lat="47.26629" lon="-1.67077">
        <ele>100</ele>
        <time>2021-08-28T10:22:13.000Z</time>
      </trkpt>
      <trkpt lat="47.26638" lon="-1.67071">
        <ele>99</ele>
        <time>2021-08-28T10:22:14.000Z</time>
      </trkpt>
      <trkpt lat="47.26655" lon="-1.6706">
        <ele>98</ele>
        <time>2021-08-28T10:22:16.000Z</time>
      </trkpt>
      <trkpt lat="47.26671" lon="-1.67049">
        <ele>97</ele>
        <time>2021-08-28T10:22:18.000Z</time>
      </trkpt>
      <trkpt lat="47.26687" lon="-1.67039">
        <ele>96</ele>
        <time>2021-08-28T10:22:20.000Z</time>
      </trkpt>
      <trkpt lat="47.26702" lon="-1.67029">
        <ele>95</ele>
        <time>2021-08-28T10:22:22.000Z</time>
      </trkpt>
      <trkpt lat="47.26718" lon="-1.67017">
        <ele>94</ele>
        <time>2021-08-28T10:22:24.000Z</time>
      </trkpt>
      <trkpt lat="47.26735" lon="-1.67011">
        <ele>94</ele>
        <time>2021-08-28T10:22:26.000Z</time>
      </trkpt>
      <trkpt lat="47.26745" lon="-1.67009">
        <ele>93</ele>
        <time>2021-08-28T10:22:27.000Z</time>
      </trkpt>
      <trkpt lat="47.26754" lon="-1.67009">
        <ele>93</ele>
        <time>2021-08-28T10:22:28.000Z</time>
      </trkpt>
      <trkpt lat="47.26763" lon="-1.67011">
        <ele>92</ele>
        <time>2021-08-28T10:22:29.000Z</time>
      </trkpt>
      <trkpt lat="47.26772" lon="-1.67015">
        <ele>92</ele>
        <time>2021-08-28T10:22:30.000Z</time>
      </trkpt>
      <trkpt lat="47.2678" lon="-1.67021">
        <ele>92</ele>
        <time>2021-08-28T10:22:31.000Z</time>
      </trkpt>
      <trkpt lat="47.26788" lon="-1.67028">
        <ele>92</ele>
        <time>2021-08-28T10:22:32.000Z</time>
      </trkpt>
      <trkpt lat="47.26796" lon="-1.67036">
        <ele>91</ele>
        <time>2021-08-28T10:22:33.000Z</time>
      </trkpt>
      <trkpt lat="47.26803" lon="-1.67046">
        <ele>90</ele>
        <time>2021-08-28T10:22:34.000Z</time>
      </trkpt>
      <trkpt lat="47.26809" lon="-1.67056">
        <ele>90</ele>
        <time>2021-08-28T10:22:35.000Z</time>
      </trkpt>
      <trkpt lat="47.26815" lon="-1.67067">
        <ele>89</ele>
        <time>2021-08-28T10:22:36.000Z</time>
      </trkpt>
      <trkpt lat="47.2682" lon="-1.67079">
        <ele>88</ele>
        <time>2021-08-28T10:22:37.000Z</time>
      </trkpt>
      <trkpt lat="47.26826" lon="-1.67091">
        <ele>87</ele>
        <time>2021-08-28T10:22:38.000Z</time>
      </trkpt>
      <trkpt lat="47.26833" lon="-1.671">
        <ele>86</ele>
        <time>2021-08-28T10:22:39.000Z</time>
      </trkpt>
      <trkpt lat="47.26841" lon="-1.67107">
        <ele>86</ele>
        <time>2021-08-28T10:22:40.000Z</time>
      </trkpt>
      <trkpt lat="47.26849" lon="-1.67116">
        <ele>86</ele>
        <time>2021-08-28T10:22:41.000Z</time>
      </trkpt>
      <trkpt lat="47.26856" lon="-1.67125">
        <ele>86</ele>
        <time>2021-08-28T10:22:42.000Z</time>
      </trkpt>
      <trkpt lat="47.26863" lon="-1.67135">
        <ele>85</ele>
        <time>2021-08-28T10:22:43.000Z</time>
      </trkpt>
      <trkpt lat="47.2687" lon="-1.67145">
        <ele>86</ele>
        <time>2021-08-28T10:22:44.000Z</time>
      </trkpt>
      <trkpt lat="47.26878" lon="-1.67152">
        <ele>86</ele>
        <time>2021-08-28T10:22:45.000Z</time>
      </trkpt>
      <trkpt lat="47.26893" lon="-1.67161">
        <ele>85</ele>
        <time>2021-08-28T10:22:47.000Z</time>
      </trkpt>
      <trkpt lat="47.26907" lon="-1.67162">
        <ele>86</ele>
        <time>2021-08-28T10:22:49.000Z</time>
      </trkpt>
      <trkpt lat="47.26919" lon="-1.6716">
        <ele>86</ele>
        <time>2021-08-28T10:22:51.000Z</time>
      </trkpt>
      <trkpt lat="47.26929" lon="-1.67156">
        <ele>86</ele>
        <time>2021-08-28T10:22:53.000Z</time>
      </trkpt>
      <trkpt lat="47.26938" lon="-1.67152">
        <ele>86</ele>
        <time>2021-08-28T10:22:55.000Z</time>
      </trkpt>
      <trkpt lat="47.26946" lon="-1.67147">
        <ele>87</ele>
        <time>2021-08-28T10:22:57.000Z</time>
      </trkpt>
      <trkpt lat="47.26955" lon="-1.67142">
        <ele>87</ele>
        <time>2021-08-28T10:22:59.000Z</time>
      </trkpt>
      <trkpt lat="47.26965" lon="-1.67136">
        <ele>87</ele>
        <time>2021-08-28T10:23:01.000Z</time>
      </trkpt>
      <trkpt lat="47.26974" lon="-1.67131">
        <ele>88</ele>
        <time>2021-08-28T10:23:03.000Z</time>
      </trkpt>
      <trkpt lat="47.26983" lon="-1.67127">
        <ele>88</ele>
        <time>2021-08-28T10:23:05.000Z</time>
      </trkpt>
      <trkpt lat="47.26993" lon="-1.67125">
        <ele>89</ele>
        <time>2021-08-28T10:23:07.000Z</time>
      </trkpt>
      <trkpt lat="47.27003" lon="-1.67122">
        <ele>89</ele>
        <time>2021-08-28T10:23:09.000Z</time>
      </trkpt>
      <trkpt lat="47.27013" lon="-1.6712">
        <ele>89</ele>
        <time>2021-08-28T10:23:11.000Z</time>
      </trkpt>
      <trkpt lat="47.27023" lon="-1.67119">
        <ele>90</ele>
        <time>2021-08-28T10:23:13.000Z</time>
      </trkpt>
      <trkpt lat="47.27033" lon="-1.67118">
        <ele>90</ele>
        <time>2021-08-28T10:23:15.000Z</time>
      </trkpt>
      <trkpt lat="47.27043" lon="-1.67118">
        <ele>91</ele>
        <time>2021-08-28T10:23:17.000Z</time>
      </trkpt>
      <trkpt lat="47.27054" lon="-1.67118">
        <ele>92</ele>
        <time>2021-08-28T10:23:19.000Z</time>
      </trkpt>
      <trkpt lat="47.27064" lon="-1.6712">
        <ele>92</ele>
        <time>2021-08-28T10:23:21.000Z</time>
      </trkpt>
      <trkpt lat="47.27074" lon="-1.67121">
        <ele>93</ele>
        <time>2021-08-28T10:23:23.000Z</time>
      </trkpt>
      <trkpt lat="47.27084" lon="-1.67122">
        <ele>93</ele>
        <time>2021-08-28T10:23:25.000Z</time>
      </trkpt>
      <trkpt lat="47.27094" lon="-1.67124">
        <ele>93</ele>
        <time>2021-08-28T10:23:27.000Z</time>
      </trkpt>
      <trkpt lat="47.27103" lon="-1.67127">
        <ele>94</ele>
        <time>2021-08-28T10:23:29.000Z</time>
      </trkpt>
      <trkpt lat="47.27112" lon="-1.6713">
        <ele>94</ele>
        <time>2021-08-28T10:23:31.000Z</time>
      </trkpt>
      <trkpt lat="47.27121" lon="-1.67134">
        <ele>94</ele>
        <time>2021-08-28T10:23:33.000Z</time>
      </trkpt>
      <trkpt lat="47.27131" lon="-1.67137">
        <ele>94</ele>
        <time>2021-08-28T10:23:35.000Z</time>
      </trkpt>
      <trkpt lat="47.2714" lon="-1.67141">
        <ele>95</ele>
        <time>2021-08-28T10:23:37.000Z</time>
      </trkpt>
      <trkpt lat="47.27149" lon="-1.67145">
        <ele>96</ele>
        <time>2021-08-28T10:23:39.000Z</time>
      </trkpt>
      <trkpt lat="47.27159" lon="-1.6715">
        <ele>96</ele>
        <time>2021-08-28T10:23:41.000Z</time>
      </trkpt>
      <trkpt lat="47.27168" lon="-1.67155">
        <ele>96</ele>
        <time>2021-08-28T10:23:43.000Z</time>
      </trkpt>
      <trkpt lat="47.27178" lon="-1.6716">
        <ele>95</ele>
        <time>2021-08-28T10:23:45.000Z</time>
      </trkpt>
      <trkpt lat="47.27188" lon="-1.67166">
        <ele>97</ele>
        <time>2021-08-28T10:23:47.000Z</time>
      </trkpt>
      <trkpt lat="47.27198" lon="-1.67171">
        <ele>97</ele>
        <time>2021-08-28T10:23:49.000Z</time>
      </trkpt>
      <trkpt lat="47.27209" lon="-1.67174">
        <ele>98</ele>
        <time>2021-08-28T10:23:51.000Z</time>
      </trkpt>
      <trkpt lat="47.27219" lon="-1.67177">
        <ele>99</ele>
        <time>2021-08-28T10:23:53.000Z</time>
      </trkpt>
      <trkpt lat="47.27229" lon="-1.6718">
        <ele>99</ele>
        <time>2021-08-28T10:23:55.000Z</time>
      </trkpt>
      <trkpt lat="47.27239" lon="-1.67184">
        <ele>99</ele>
        <time>2021-08-28T10:23:57.000Z</time>
      </trkpt>
      <trkpt lat="47.2725" lon="-1.67188">
        <ele>99</ele>
        <time>2021-08-28T10:23:59.000Z</time>
      </trkpt>
      <trkpt lat="47.27259" lon="-1.67192">
        <ele>100</ele>
        <time>2021-08-28T10:24:01.000Z</time>
      </trkpt>
      <trkpt lat="47.27269" lon="-1.67196">
        <ele>100</ele>
        <time>2021-08-28T10:24:03.000Z</time>
      </trkpt>
      <trkpt lat="47.27279" lon="-1.672">
        <ele>101</ele>
        <time>2021-08-28T10:24:05.000Z</time>
      </trkpt>
      <trkpt lat="47.27288" lon="-1.67203">
        <ele>101</ele>
        <time>2021-08-28T10:24:07.000Z</time>
      </trkpt>
      <trkpt lat="47.27298" lon="-1.67207">
        <ele>102</ele>
        <time>2021-08-28T10:24:09.000Z</time>
      </trkpt>
      <trkpt lat="47.27307" lon="-1.6721">
        <ele>102</ele>
        <time>2021-08-28T10:24:11.000Z</time>
      </trkpt>
      <trkpt lat="47.27317" lon="-1.67213">
        <ele>103</ele>
        <time>2021-08-28T10:24:13.000Z</time>
      </trkpt>
      <trkpt lat="47.27327" lon="-1.67215">
        <ele>102</ele>
        <time>2021-08-28T10:24:15.000Z</time>
      </trkpt>
      <trkpt lat="47.27337" lon="-1.67216">
        <ele>103</ele>
        <time>2021-08-28T10:24:17.000Z</time>
      </trkpt>
      <trkpt lat="47.27346" lon="-1.67215">
        <ele>105</ele>
        <time>2021-08-28T10:24:19.000Z</time>
      </trkpt>
      <trkpt lat="47.27356" lon="-1.67213">
        <ele>106</ele>
        <time>2021-08-28T10:24:21.000Z</time>
      </trkpt>
      <trkpt lat="47.27365" lon="-1.6721">
        <ele>106</ele>
        <time>2021-08-28T10:24:23.000Z</time>
      </trkpt>
      <trkpt lat="47.27375" lon="-1.67205">
        <ele>107</ele>
        <time>2021-08-28T10:24:25.000Z</time>
      </trkpt>
      <trkpt lat="47.27384" lon="-1.67197">
        <ele>106</ele>
        <time>2021-08-28T10:24:27.000Z</time>
      </trkpt>
      <trkpt lat="47.27393" lon="-1.6719">
        <ele>107</ele>
        <time>2021-08-28T10:24:29.000Z</time>
      </trkpt>
      <trkpt lat="47.27401" lon="-1.67183">
        <ele>108</ele>
        <time>2021-08-28T10:24:31.000Z</time>
      </trkpt>
      <trkpt lat="47.2741" lon="-1.67175">
        <ele>108</ele>
        <time>2021-08-28T10:24:33.000Z</time>
      </trkpt>
      <trkpt lat="47.27419" lon="-1.67167">
        <ele>107</ele>
        <time>2021-08-28T10:24:35.000Z</time>
      </trkpt>
      <trkpt lat="47.27427" lon="-1.67159">
        <ele>107</ele>
        <time>2021-08-28T10:24:37.000Z</time>
      </trkpt>
      <trkpt lat="47.27436" lon="-1.6715">
        <ele>107</ele>
        <time>2021-08-28T10:24:39.000Z</time>
      </trkpt>
      <trkpt lat="47.27445" lon="-1.67142">
        <ele>107</ele>
        <time>2021-08-28T10:24:41.000Z</time>
      </trkpt>
      <trkpt lat="47.27454" lon="-1.67134">
        <ele>107</ele>
        <time>2021-08-28T10:24:43.000Z</time>
      </trkpt>
      <trkpt lat="47.27463" lon="-1.67125">
        <ele>107</ele>
        <time>2021-08-28T10:24:45.000Z</time>
      </trkpt>
      <trkpt lat="47.27471" lon="-1.67116">
        <ele>107</ele>
        <time>2021-08-28T10:24:47.000Z</time>
      </trkpt>
      <trkpt lat="47.2748" lon="-1.67108">
        <ele>107</ele>
        <time>2021-08-28T10:24:49.000Z</time>
      </trkpt>
      <trkpt lat="47.27489" lon="-1.671">
        <ele>107</ele>
        <time>2021-08-28T10:24:51.000Z</time>
      </trkpt>
      <trkpt lat="47.27498" lon="-1.67091">
        <ele>107</ele>
        <time>2021-08-28T10:24:53.000Z</time>
      </trkpt>
      <trkpt lat="47.27508" lon="-1.67084">
        <ele>107</ele>
        <time>2021-08-28T10:24:55.000Z</time>
      </trkpt>
      <trkpt lat="47.27517" lon="-1.67078">
        <ele>107</ele>
        <time>2021-08-28T10:24:57.000Z</time>
      </trkpt>
      <trkpt lat="47.27526" lon="-1.67081">
        <ele>108</ele>
        <time>2021-08-28T10:24:59.000Z</time>
      </trkpt>
      <trkpt lat="47.27531" lon="-1.67094">
        <ele>107</ele>
        <time>2021-08-28T10:25:01.000Z</time>
      </trkpt>
      <trkpt lat="47.27535" lon="-1.6711">
        <ele>107</ele>
        <time>2021-08-28T10:25:03.000Z</time>
      </trkpt>
      <trkpt lat="47.27538" lon="-1.67126">
        <ele>107</ele>
        <time>2021-08-28T10:25:05.000Z</time>
      </trkpt>
      <trkpt lat="47.27541" lon="-1.67142">
        <ele>108</ele>
        <time>2021-08-28T10:25:07.000Z</time>
      </trkpt>
      <trkpt lat="47.27543" lon="-1.67157">
        <ele>108</ele>
        <time>2021-08-28T10:25:09.000Z</time>
      </trkpt>
      <trkpt lat="47.27546" lon="-1.67172">
        <ele>108</ele>
        <time>2021-08-28T10:25:11.000Z</time>
      </trkpt>
      <trkpt lat="47.27549" lon="-1.67188">
        <ele>108</ele>
        <time>2021-08-28T10:25:13.000Z</time>
      </trkpt>
      <trkpt lat="47.27551" lon="-1.67204">
        <ele>108</ele>
        <time>2021-08-28T10:25:15.000Z</time>
      </trkpt>
      <trkpt lat="47.27554" lon="-1.67219">
        <ele>108</ele>
        <time>2021-08-28T10:25:17.000Z</time>
      </trkpt>
      <trkpt lat="47.27558" lon="-1.67235">
        <ele>108</ele>
        <time>2021-08-28T10:25:19.000Z</time>
      </trkpt>
      <trkpt lat="47.27561" lon="-1.67251">
        <ele>108</ele>
        <time>2021-08-28T10:25:21.000Z</time>
      </trkpt>
      <trkpt lat="47.27564" lon="-1.67266">
        <ele>108</ele>
        <time>2021-08-28T10:25:23.000Z</time>
      </trkpt>
      <trkpt lat="47.27568" lon="-1.67282">
        <ele>108</ele>
        <time>2021-08-28T10:25:25.000Z</time>
      </trkpt>
      <trkpt lat="47.27574" lon="-1.67296">
        <ele>108</ele>
        <time>2021-08-28T10:25:27.000Z</time>
      </trkpt>
      <trkpt lat="47.27581" lon="-1.67308">
        <ele>108</ele>
        <time>2021-08-28T10:25:29.000Z</time>
      </trkpt>
      <trkpt lat="47.27589" lon="-1.67319">
        <ele>108</ele>
        <time>2021-08-28T10:25:31.000Z</time>
      </trkpt>
      <trkpt lat="47.27598" lon="-1.67331">
        <ele>108</ele>
        <time>2021-08-28T10:25:33.000Z</time>
      </trkpt>
      <trkpt lat="47.27606" lon="-1.67343">
        <ele>109</ele>
        <time>2021-08-28T10:25:35.000Z</time>
      </trkpt>
      <trkpt lat="47.27614" lon="-1.67355">
        <ele>109</ele>
        <time>2021-08-28T10:25:37.000Z</time>
      </trkpt>
      <trkpt lat="47.27624" lon="-1.67368">
        <ele>109</ele>
        <time>2021-08-28T10:25:39.000Z</time>
      </trkpt>
      <trkpt lat="47.27633" lon="-1.67379">
        <ele>109</ele>
        <time>2021-08-28T10:25:41.000Z</time>
      </trkpt>
      <trkpt lat="47.27644" lon="-1.67391">
        <ele>109</ele>
        <time>2021-08-28T10:25:43.000Z</time>
      </trkpt>
      <trkpt lat="47.27656" lon="-1.67399">
        <ele>109</ele>
        <time>2021-08-28T10:25:45.000Z</time>
      </trkpt>
      <trkpt lat="47.27668" lon="-1.67405">
        <ele>109</ele>
        <time>2021-08-28T10:25:47.000Z</time>
      </trkpt>
      <trkpt lat="47.2768" lon="-1.67411">
        <ele>109</ele>
        <time>2021-08-28T10:25:49.000Z</time>
      </trkpt>
      <trkpt lat="47.27693" lon="-1.67415">
        <ele>108</ele>
        <time>2021-08-28T10:25:51.000Z</time>
      </trkpt>
      <trkpt lat="47.27707" lon="-1.67419">
        <ele>108</ele>
        <time>2021-08-28T10:25:53.000Z</time>
      </trkpt>
      <trkpt lat="47.27721" lon="-1.67423">
        <ele>109</ele>
        <time>2021-08-28T10:25:55.000Z</time>
      </trkpt>
      <trkpt lat="47.27735" lon="-1.67426">
        <ele>109</ele>
        <time>2021-08-28T10:25:57.000Z</time>
      </trkpt>
      <trkpt lat="47.27751" lon="-1.67428">
        <ele>110</ele>
        <time>2021-08-28T10:25:59.000Z</time>
      </trkpt>
      <trkpt lat="47.27765" lon="-1.67429">
        <ele>110</ele>
        <time>2021-08-28T10:26:01.000Z</time>
      </trkpt>
      <trkpt lat="47.2778" lon="-1.6743">
        <ele>109</ele>
        <time>2021-08-28T10:26:03.000Z</time>
      </trkpt>
      <trkpt lat="47.27795" lon="-1.67431">
        <ele>108</ele>
        <time>2021-08-28T10:26:05.000Z</time>
      </trkpt>
      <trkpt lat="47.2781" lon="-1.6743">
        <ele>107</ele>
        <time>2021-08-28T10:26:07.000Z</time>
      </trkpt>
      <trkpt lat="47.27824" lon="-1.67429">
        <ele>107</ele>
        <time>2021-08-28T10:26:09.000Z</time>
      </trkpt>
      <trkpt lat="47.27839" lon="-1.67429">
        <ele>107</ele>
        <time>2021-08-28T10:26:11.000Z</time>
      </trkpt>
      <trkpt lat="47.27855" lon="-1.67428">
        <ele>106</ele>
        <time>2021-08-28T10:26:13.000Z</time>
      </trkpt>
      <trkpt lat="47.27871" lon="-1.67428">
        <ele>105</ele>
        <time>2021-08-28T10:26:15.000Z</time>
      </trkpt>
      <trkpt lat="47.27887" lon="-1.67429">
        <ele>105</ele>
        <time>2021-08-28T10:26:17.000Z</time>
      </trkpt>
      <trkpt lat="47.27903" lon="-1.67431">
        <ele>105</ele>
        <time>2021-08-28T10:26:19.000Z</time>
      </trkpt>
      <trkpt lat="47.27919" lon="-1.67434">
        <ele>104</ele>
        <time>2021-08-28T10:26:21.000Z</time>
      </trkpt>
      <trkpt lat="47.27935" lon="-1.67437">
        <ele>104</ele>
        <time>2021-08-28T10:26:23.000Z</time>
      </trkpt>
      <trkpt lat="47.2795" lon="-1.67442">
        <ele>104</ele>
        <time>2021-08-28T10:26:25.000Z</time>
      </trkpt>
      <trkpt lat="47.27965" lon="-1.67449">
        <ele>104</ele>
        <time>2021-08-28T10:26:27.000Z</time>
      </trkpt>
      <trkpt lat="47.27979" lon="-1.67455">
        <ele>104</ele>
        <time>2021-08-28T10:26:29.000Z</time>
      </trkpt>
      <trkpt lat="47.27993" lon="-1.67463">
        <ele>104</ele>
        <time>2021-08-28T10:26:31.000Z</time>
      </trkpt>
      <trkpt lat="47.28007" lon="-1.6747">
        <ele>104</ele>
        <time>2021-08-28T10:26:33.000Z</time>
      </trkpt>
      <trkpt lat="47.2802" lon="-1.67479">
        <ele>105</ele>
        <time>2021-08-28T10:26:35.000Z</time>
      </trkpt>
      <trkpt lat="47.28033" lon="-1.67486">
        <ele>105</ele>
        <time>2021-08-28T10:26:37.000Z</time>
      </trkpt>
      <trkpt lat="47.28046" lon="-1.67493">
        <ele>106</ele>
        <time>2021-08-28T10:26:39.000Z</time>
      </trkpt>
      <trkpt lat="47.28057" lon="-1.675">
        <ele>106</ele>
        <time>2021-08-28T10:26:41.000Z</time>
      </trkpt>
      <trkpt lat="47.28069" lon="-1.67506">
        <ele>107</ele>
        <time>2021-08-28T10:26:43.000Z</time>
      </trkpt>
      <trkpt lat="47.28081" lon="-1.67514">
        <ele>107</ele>
        <time>2021-08-28T10:26:45.000Z</time>
      </trkpt>
      <trkpt lat="47.28093" lon="-1.67521">
        <ele>107</ele>
        <time>2021-08-28T10:26:47.000Z</time>
      </trkpt>
      <trkpt lat="47.28104" lon="-1.67528">
        <ele>107</ele>
        <time>2021-08-28T10:26:49.000Z</time>
      </trkpt>
      <trkpt lat="47.28116" lon="-1.67535">
        <ele>107</ele>
        <time>2021-08-28T10:26:51.000Z</time>
      </trkpt>
      <trkpt lat="47.28129" lon="-1.67541">
        <ele>108</ele>
        <time>2021-08-28T10:26:53.000Z</time>
      </trkpt>
      <trkpt lat="47.28141" lon="-1.67548">
        <ele>108</ele>
        <time>2021-08-28T10:26:55.000Z</time>
      </trkpt>
      <trkpt lat="47.28152" lon="-1.67555">
        <ele>108</ele>
        <time>2021-08-28T10:26:57.000Z</time>
      </trkpt>
      <trkpt lat="47.28164" lon="-1.67563">
        <ele>108</ele>
        <time>2021-08-28T10:26:59.000Z</time>
      </trkpt>
      <trkpt lat="47.28176" lon="-1.67569">
        <ele>108</ele>
        <time>2021-08-28T10:27:01.000Z</time>
      </trkpt>
      <trkpt lat="47.28187" lon="-1.67576">
        <ele>109</ele>
        <time>2021-08-28T10:27:03.000Z</time>
      </trkpt>
      <trkpt lat="47.28198" lon="-1.67583">
        <ele>109</ele>
        <time>2021-08-28T10:27:05.000Z</time>
      </trkpt>
      <trkpt lat="47.2821" lon="-1.67591">
        <ele>109</ele>
        <time>2021-08-28T10:27:07.000Z</time>
      </trkpt>
      <trkpt lat="47.28221" lon="-1.67599">
        <ele>108</ele>
        <time>2021-08-28T10:27:09.000Z</time>
      </trkpt>
      <trkpt lat="47.28233" lon="-1.67605">
        <ele>108</ele>
        <time>2021-08-28T10:27:11.000Z</time>
      </trkpt>
      <trkpt lat="47.28245" lon="-1.67611">
        <ele>108</ele>
        <time>2021-08-28T10:27:13.000Z</time>
      </trkpt>
      <trkpt lat="47.28257" lon="-1.67615">
        <ele>108</ele>
        <time>2021-08-28T10:27:15.000Z</time>
      </trkpt>
      <trkpt lat="47.28271" lon="-1.67617">
        <ele>108</ele>
        <time>2021-08-28T10:27:17.000Z</time>
      </trkpt>
      <trkpt lat="47.28285" lon="-1.67617">
        <ele>108</ele>
        <time>2021-08-28T10:27:19.000Z</time>
      </trkpt>
      <trkpt lat="47.28299" lon="-1.67616">
        <ele>108</ele>
        <time>2021-08-28T10:27:21.000Z</time>
      </trkpt>
      <trkpt lat="47.28312" lon="-1.67613">
        <ele>108</ele>
        <time>2021-08-28T10:27:23.000Z</time>
      </trkpt>
      <trkpt lat="47.28325" lon="-1.6761">
        <ele>108</ele>
        <time>2021-08-28T10:27:25.000Z</time>
      </trkpt>
      <trkpt lat="47.28339" lon="-1.67607">
        <ele>107</ele>
        <time>2021-08-28T10:27:27.000Z</time>
      </trkpt>
      <trkpt lat="47.28353" lon="-1.67606">
        <ele>107</ele>
        <time>2021-08-28T10:27:29.000Z</time>
      </trkpt>
      <trkpt lat="47.28366" lon="-1.67604">
        <ele>107</ele>
        <time>2021-08-28T10:27:31.000Z</time>
      </trkpt>
      <trkpt lat="47.28379" lon="-1.67602">
        <ele>107</ele>
        <time>2021-08-28T10:27:33.000Z</time>
      </trkpt>
      <trkpt lat="47.28392" lon="-1.676">
        <ele>108</ele>
        <time>2021-08-28T10:27:35.000Z</time>
      </trkpt>
      <trkpt lat="47.28406" lon="-1.67599">
        <ele>108</ele>
        <time>2021-08-28T10:27:37.000Z</time>
      </trkpt>
      <trkpt lat="47.2842" lon="-1.67597">
        <ele>108</ele>
        <time>2021-08-28T10:27:39.000Z</time>
      </trkpt>
      <trkpt lat="47.28434" lon="-1.67597">
        <ele>108</ele>
        <time>2021-08-28T10:27:41.000Z</time>
      </trkpt>
      <trkpt lat="47.28447" lon="-1.67599">
        <ele>108</ele>
        <time>2021-08-28T10:27:43.000Z</time>
      </trkpt>
      <trkpt lat="47.2846" lon="-1.67604">
        <ele>108</ele>
        <time>2021-08-28T10:27:45.000Z</time>
      </trkpt>
      <trkpt lat="47.28473" lon="-1.67608">
        <ele>107</ele>
        <time>2021-08-28T10:27:47.000Z</time>
      </trkpt>
      <trkpt lat="47.28485" lon="-1.67613">
        <ele>107</ele>
        <time>2021-08-28T10:27:49.000Z</time>
      </trkpt>
      <trkpt lat="47.28498" lon="-1.67618">
        <ele>107</ele>
        <time>2021-08-28T10:27:51.000Z</time>
      </trkpt>
      <trkpt lat="47.2851" lon="-1.67621">
        <ele>108</ele>
        <time>2021-08-28T10:27:53.000Z</time>
      </trkpt>
      <trkpt lat="47.28523" lon="-1.67622">
        <ele>108</ele>
        <time>2021-08-28T10:27:55.000Z</time>
      </trkpt>
      <trkpt lat="47.28537" lon="-1.6762">
        <ele>108</ele>
        <time>2021-08-28T10:27:57.000Z</time>
      </trkpt>
      <trkpt lat="47.28549" lon="-1.67615">
        <ele>108</ele>
        <time>2021-08-28T10:27:59.000Z</time>
      </trkpt>
      <trkpt lat="47.28562" lon="-1.67608">
        <ele>107</ele>
        <time>2021-08-28T10:28:01.000Z</time>
      </trkpt>
      <trkpt lat="47.28575" lon="-1.676">
        <ele>107</ele>
        <time>2021-08-28T10:28:03.000Z</time>
      </trkpt>
      <trkpt lat="47.28588" lon="-1.67593">
        <ele>106</ele>
        <time>2021-08-28T10:28:05.000Z</time>
      </trkpt>
      <trkpt lat="47.28601" lon="-1.67586">
        <ele>105</ele>
        <time>2021-08-28T10:28:07.000Z</time>
      </trkpt>
      <trkpt lat="47.28614" lon="-1.6758">
        <ele>105</ele>
        <time>2021-08-28T10:28:09.000Z</time>
      </trkpt>
      <trkpt lat="47.28626" lon="-1.67575">
        <ele>105</ele>
        <time>2021-08-28T10:28:11.000Z</time>
      </trkpt>
      <trkpt lat="47.2864" lon="-1.67573">
        <ele>105</ele>
        <time>2021-08-28T10:28:13.000Z</time>
      </trkpt>
      <trkpt lat="47.28654" lon="-1.67575">
        <ele>105</ele>
        <time>2021-08-28T10:28:15.000Z</time>
      </trkpt>
      <trkpt lat="47.28668" lon="-1.67581">
        <ele>104</ele>
        <time>2021-08-28T10:28:17.000Z</time>
      </trkpt>
      <trkpt lat="47.28682" lon="-1.6759">
        <ele>103</ele>
        <time>2021-08-28T10:28:19.000Z</time>
      </trkpt>
      <trkpt lat="47.28695" lon="-1.67599">
        <ele>103</ele>
        <time>2021-08-28T10:28:21.000Z</time>
      </trkpt>
      <trkpt lat="47.28708" lon="-1.67608">
        <ele>103</ele>
        <time>2021-08-28T10:28:23.000Z</time>
      </trkpt>
      <trkpt lat="47.2872" lon="-1.67615">
        <ele>104</ele>
        <time>2021-08-28T10:28:25.000Z</time>
      </trkpt>
      <trkpt lat="47.28732" lon="-1.67622">
        <ele>103</ele>
        <time>2021-08-28T10:28:27.000Z</time>
      </trkpt>
      <trkpt lat="47.28742" lon="-1.67628">
        <ele>104</ele>
        <time>2021-08-28T10:28:29.000Z</time>
      </trkpt>
      <trkpt lat="47.28753" lon="-1.67623">
        <ele>104</ele>
        <time>2021-08-28T10:28:32.000Z</time>
      </trkpt>
      <trkpt lat="47.28756" lon="-1.67609">
        <ele>104</ele>
        <time>2021-08-28T10:28:34.000Z</time>
      </trkpt>
      <trkpt lat="47.28761" lon="-1.67592">
        <ele>104</ele>
        <time>2021-08-28T10:28:36.000Z</time>
      </trkpt>
      <trkpt lat="47.28765" lon="-1.67574">
        <ele>104</ele>
        <time>2021-08-28T10:28:38.000Z</time>
      </trkpt>
      <trkpt lat="47.2877" lon="-1.67555">
        <ele>104</ele>
        <time>2021-08-28T10:28:40.000Z</time>
      </trkpt>
      <trkpt lat="47.28774" lon="-1.67537">
        <ele>104</ele>
        <time>2021-08-28T10:28:42.000Z</time>
      </trkpt>
      <trkpt lat="47.28778" lon="-1.67519">
        <ele>104</ele>
        <time>2021-08-28T10:28:44.000Z</time>
      </trkpt>
      <trkpt lat="47.28782" lon="-1.67502">
        <ele>104</ele>
        <time>2021-08-28T10:28:46.000Z</time>
      </trkpt>
      <trkpt lat="47.28787" lon="-1.67484">
        <ele>104</ele>
        <time>2021-08-28T10:28:48.000Z</time>
      </trkpt>
      <trkpt lat="47.28791" lon="-1.67467">
        <ele>104</ele>
        <time>2021-08-28T10:28:50.000Z</time>
      </trkpt>
      <trkpt lat="47.28797" lon="-1.6745">
        <ele>105</ele>
        <time>2021-08-28T10:28:52.000Z</time>
      </trkpt>
      <trkpt lat="47.28802" lon="-1.67434">
        <ele>105</ele>
        <time>2021-08-28T10:28:54.000Z</time>
      </trkpt>
      <trkpt lat="47.28807" lon="-1.67416">
        <ele>106</ele>
        <time>2021-08-28T10:28:56.000Z</time>
      </trkpt>
      <trkpt lat="47.28813" lon="-1.674">
        <ele>106</ele>
        <time>2021-08-28T10:28:58.000Z</time>
      </trkpt>
      <trkpt lat="47.28819" lon="-1.67384">
        <ele>106</ele>
        <time>2021-08-28T10:29:00.000Z</time>
      </trkpt>
      <trkpt lat="47.28825" lon="-1.6737">
        <ele>107</ele>
        <time>2021-08-28T10:29:02.000Z</time>
      </trkpt>
      <trkpt lat="47.28832" lon="-1.67357">
        <ele>107</ele>
        <time>2021-08-28T10:29:04.000Z</time>
      </trkpt>
      <trkpt lat="47.28842" lon="-1.67346">
        <ele>106</ele>
        <time>2021-08-28T10:29:06.000Z</time>
      </trkpt>
      <trkpt lat="47.28852" lon="-1.67338">
        <ele>107</ele>
        <time>2021-08-28T10:29:08.000Z</time>
      </trkpt>
      <trkpt lat="47.28864" lon="-1.67336">
        <ele>107</ele>
        <time>2021-08-28T10:29:10.000Z</time>
      </trkpt>
      <trkpt lat="47.28877" lon="-1.67334">
        <ele>107</ele>
        <time>2021-08-28T10:29:12.000Z</time>
      </trkpt>
      <trkpt lat="47.28889" lon="-1.67333">
        <ele>107</ele>
        <time>2021-08-28T10:29:14.000Z</time>
      </trkpt>
      <trkpt lat="47.289" lon="-1.67331">
        <ele>107</ele>
        <time>2021-08-28T10:29:16.000Z</time>
      </trkpt>
      <trkpt lat="47.28912" lon="-1.67331">
        <ele>107</ele>
        <time>2021-08-28T10:29:18.000Z</time>
      </trkpt>
      <trkpt lat="47.28924" lon="-1.67333">
        <ele>106</ele>
        <time>2021-08-28T10:29:20.000Z</time>
      </trkpt>
      <trkpt lat="47.28935" lon="-1.67339">
        <ele>106</ele>
        <time>2021-08-28T10:29:22.000Z</time>
      </trkpt>
      <trkpt lat="47.28947" lon="-1.67344">
        <ele>106</ele>
        <time>2021-08-28T10:29:24.000Z</time>
      </trkpt>
      <trkpt lat="47.28958" lon="-1.67349">
        <ele>106</ele>
        <time>2021-08-28T10:29:26.000Z</time>
      </trkpt>
      <trkpt lat="47.2897" lon="-1.67353">
        <ele>106</ele>
        <time>2021-08-28T10:29:28.000Z</time>
      </trkpt>
      <trkpt lat="47.28982" lon="-1.67357">
        <ele>106</ele>
        <time>2021-08-28T10:29:30.000Z</time>
      </trkpt>
      <trkpt lat="47.28995" lon="-1.67358">
        <ele>106</ele>
        <time>2021-08-28T10:29:32.000Z</time>
      </trkpt>
      <trkpt lat="47.29007" lon="-1.67355">
        <ele>107</ele>
        <time>2021-08-28T10:29:34.000Z</time>
      </trkpt>
      <trkpt lat="47.29019" lon="-1.67351">
        <ele>107</ele>
        <time>2021-08-28T10:29:36.000Z</time>
      </trkpt>
      <trkpt lat="47.29031" lon="-1.67347">
        <ele>107</ele>
        <time>2021-08-28T10:29:38.000Z</time>
      </trkpt>
      <trkpt lat="47.29043" lon="-1.67342">
        <ele>108</ele>
        <time>2021-08-28T10:29:40.000Z</time>
      </trkpt>
      <trkpt lat="47.29054" lon="-1.67338">
        <ele>108</ele>
        <time>2021-08-28T10:29:42.000Z</time>
      </trkpt>
      <trkpt lat="47.29066" lon="-1.67333">
        <ele>108</ele>
        <time>2021-08-28T10:29:44.000Z</time>
      </trkpt>
      <trkpt lat="47.29078" lon="-1.67329">
        <ele>108</ele>
        <time>2021-08-28T10:29:46.000Z</time>
      </trkpt>
      <trkpt lat="47.2909" lon="-1.67324">
        <ele>108</ele>
        <time>2021-08-28T10:29:48.000Z</time>
      </trkpt>
      <trkpt lat="47.29102" lon="-1.6732">
        <ele>109</ele>
        <time>2021-08-28T10:29:50.000Z</time>
      </trkpt>
      <trkpt lat="47.29114" lon="-1.67317">
        <ele>109</ele>
        <time>2021-08-28T10:29:52.000Z</time>
      </trkpt>
      <trkpt lat="47.29126" lon="-1.67314">
        <ele>109</ele>
        <time>2021-08-28T10:29:54.000Z</time>
      </trkpt>
      <trkpt lat="47.29137" lon="-1.67314">
        <ele>109</ele>
        <time>2021-08-28T10:29:56.000Z</time>
      </trkpt>
      <trkpt lat="47.29148" lon="-1.67315">
        <ele>109</ele>
        <time>2021-08-28T10:29:58.000Z</time>
      </trkpt>
      <trkpt lat="47.2916" lon="-1.67317">
        <ele>109</ele>
        <time>2021-08-28T10:30:00.000Z</time>
      </trkpt>
      <trkpt lat="47.29171" lon="-1.67321">
        <ele>110</ele>
        <time>2021-08-28T10:30:02.000Z</time>
      </trkpt>
      <trkpt lat="47.29182" lon="-1.67324">
        <ele>110</ele>
        <time>2021-08-28T10:30:04.000Z</time>
      </trkpt>
      <trkpt lat="47.29194" lon="-1.67327">
        <ele>111</ele>
        <time>2021-08-28T10:30:06.000Z</time>
      </trkpt>
      <trkpt lat="47.29205" lon="-1.67329">
        <ele>111</ele>
        <time>2021-08-28T10:30:08.000Z</time>
      </trkpt>
      <trkpt lat="47.29216" lon="-1.6733">
        <ele>111</ele>
        <time>2021-08-28T10:30:10.000Z</time>
      </trkpt>
      <trkpt lat="47.29227" lon="-1.6733">
        <ele>112</ele>
        <time>2021-08-28T10:30:12.000Z</time>
      </trkpt>
      <trkpt lat="47.29239" lon="-1.67329">
        <ele>112</ele>
        <time>2021-08-28T10:30:14.000Z</time>
      </trkpt>
      <trkpt lat="47.2925" lon="-1.67327">
        <ele>113</ele>
        <time>2021-08-28T10:30:16.000Z</time>
      </trkpt>
      <trkpt lat="47.29262" lon="-1.67324">
        <ele>113</ele>
        <time>2021-08-28T10:30:18.000Z</time>
      </trkpt>
      <trkpt lat="47.29273" lon="-1.67318">
        <ele>112</ele>
        <time>2021-08-28T10:30:20.000Z</time>
      </trkpt>
      <trkpt lat="47.29284" lon="-1.67307">
        <ele>113</ele>
        <time>2021-08-28T10:30:22.000Z</time>
      </trkpt>
      <trkpt lat="47.29292" lon="-1.67294">
        <ele>113</ele>
        <time>2021-08-28T10:30:24.000Z</time>
      </trkpt>
      <trkpt lat="47.29299" lon="-1.67279">
        <ele>114</ele>
        <time>2021-08-28T10:30:26.000Z</time>
      </trkpt>
      <trkpt lat="47.29306" lon="-1.67263">
        <ele>114</ele>
        <time>2021-08-28T10:30:28.000Z</time>
      </trkpt>
      <trkpt lat="47.29314" lon="-1.67248">
        <ele>114</ele>
        <time>2021-08-28T10:30:30.000Z</time>
      </trkpt>
      <trkpt lat="47.29321" lon="-1.67233">
        <ele>115</ele>
        <time>2021-08-28T10:30:32.000Z</time>
      </trkpt>
      <trkpt lat="47.29328" lon="-1.67218">
        <ele>115</ele>
        <time>2021-08-28T10:30:34.000Z</time>
      </trkpt>
      <trkpt lat="47.29336" lon="-1.67203">
        <ele>115</ele>
        <time>2021-08-28T10:30:36.000Z</time>
      </trkpt>
      <trkpt lat="47.29343" lon="-1.67188">
        <ele>116</ele>
        <time>2021-08-28T10:30:38.000Z</time>
      </trkpt>
      <trkpt lat="47.2935" lon="-1.67173">
        <ele>116</ele>
        <time>2021-08-28T10:30:40.000Z</time>
      </trkpt>
      <trkpt lat="47.29357" lon="-1.67158">
        <ele>116</ele>
        <time>2021-08-28T10:30:42.000Z</time>
      </trkpt>
      <trkpt lat="47.29365" lon="-1.67142">
        <ele>116</ele>
        <time>2021-08-28T10:30:44.000Z</time>
      </trkpt>
      <trkpt lat="47.29372" lon="-1.67128">
        <ele>116</ele>
        <time>2021-08-28T10:30:46.000Z</time>
      </trkpt>
      <trkpt lat="47.29379" lon="-1.67113">
        <ele>116</ele>
        <time>2021-08-28T10:30:48.000Z</time>
      </trkpt>
      <trkpt lat="47.29387" lon="-1.67099">
        <ele>117</ele>
        <time>2021-08-28T10:30:50.000Z</time>
      </trkpt>
      <trkpt lat="47.29394" lon="-1.67084">
        <ele>117</ele>
        <time>2021-08-28T10:30:52.000Z</time>
      </trkpt>
      <trkpt lat="47.29402" lon="-1.67068">
        <ele>117</ele>
        <time>2021-08-28T10:30:54.000Z</time>
      </trkpt>
      <trkpt lat="47.29409" lon="-1.67053">
        <ele>117</ele>
        <time>2021-08-28T10:30:56.000Z</time>
      </trkpt>
      <trkpt lat="47.29416" lon="-1.67037">
        <ele>117</ele>
        <time>2021-08-28T10:30:58.000Z</time>
      </trkpt>
      <trkpt lat="47.29424" lon="-1.67022">
        <ele>117</ele>
        <time>2021-08-28T10:31:00.000Z</time>
      </trkpt>
      <trkpt lat="47.29432" lon="-1.67007">
        <ele>118</ele>
        <time>2021-08-28T10:31:02.000Z</time>
      </trkpt>
      <trkpt lat="47.29441" lon="-1.66994">
        <ele>118</ele>
        <time>2021-08-28T10:31:04.000Z</time>
      </trkpt>
      <trkpt lat="47.29451" lon="-1.66982">
        <ele>118</ele>
        <time>2021-08-28T10:31:06.000Z</time>
      </trkpt>
      <trkpt lat="47.29462" lon="-1.66972">
        <ele>118</ele>
        <time>2021-08-28T10:31:08.000Z</time>
      </trkpt>
      <trkpt lat="47.29474" lon="-1.66964">
        <ele>118</ele>
        <time>2021-08-28T10:31:10.000Z</time>
      </trkpt>
      <trkpt lat="47.29486" lon="-1.66957">
        <ele>118</ele>
        <time>2021-08-28T10:31:12.000Z</time>
      </trkpt>
      <trkpt lat="47.29498" lon="-1.66951">
        <ele>118</ele>
        <time>2021-08-28T10:31:14.000Z</time>
      </trkpt>
      <trkpt lat="47.2951" lon="-1.66944">
        <ele>118</ele>
        <time>2021-08-28T10:31:16.000Z</time>
      </trkpt>
      <trkpt lat="47.29522" lon="-1.66937">
        <ele>117</ele>
        <time>2021-08-28T10:31:18.000Z</time>
      </trkpt>
      <trkpt lat="47.29534" lon="-1.66931">
        <ele>117</ele>
        <time>2021-08-28T10:31:20.000Z</time>
      </trkpt>
      <trkpt lat="47.29547" lon="-1.66924">
        <ele>116</ele>
        <time>2021-08-28T10:31:22.000Z</time>
      </trkpt>
      <trkpt lat="47.2956" lon="-1.66917">
        <ele>116</ele>
        <time>2021-08-28T10:31:24.000Z</time>
      </trkpt>
      <trkpt lat="47.29573" lon="-1.6691">
        <ele>116</ele>
        <time>2021-08-28T10:31:26.000Z</time>
      </trkpt>
      <trkpt lat="47.29586" lon="-1.66902">
        <ele>115</ele>
        <time>2021-08-28T10:31:28.000Z</time>
      </trkpt>
      <trkpt lat="47.29599" lon="-1.66895">
        <ele>115</ele>
        <time>2021-08-28T10:31:30.000Z</time>
      </trkpt>
      <trkpt lat="47.29612" lon="-1.66888">
        <ele>114</ele>
        <time>2021-08-28T10:31:32.000Z</time>
      </trkpt>
      <trkpt lat="47.29626" lon="-1.6688">
        <ele>114</ele>
        <time>2021-08-28T10:31:34.000Z</time>
      </trkpt>
      <trkpt lat="47.29639" lon="-1.66873">
        <ele>113</ele>
        <time>2021-08-28T10:31:36.000Z</time>
      </trkpt>
      <trkpt lat="47.29651" lon="-1.66863">
        <ele>112</ele>
        <time>2021-08-28T10:31:38.000Z</time>
      </trkpt>
      <trkpt lat="47.29663" lon="-1.66851">
        <ele>112</ele>
        <time>2021-08-28T10:31:40.000Z</time>
      </trkpt>
      <trkpt lat="47.29674" lon="-1.66836">
        <ele>113</ele>
        <time>2021-08-28T10:31:42.000Z</time>
      </trkpt>
      <trkpt lat="47.29683" lon="-1.6682">
        <ele>113</ele>
        <time>2021-08-28T10:31:44.000Z</time>
      </trkpt>
      <trkpt lat="47.29693" lon="-1.66805">
        <ele>113</ele>
        <time>2021-08-28T10:31:46.000Z</time>
      </trkpt>
      <trkpt lat="47.29702" lon="-1.66789">
        <ele>112</ele>
        <time>2021-08-28T10:31:48.000Z</time>
      </trkpt>
      <trkpt lat="47.29711" lon="-1.66772">
        <ele>113</ele>
        <time>2021-08-28T10:31:50.000Z</time>
      </trkpt>
      <trkpt lat="47.2972" lon="-1.66757">
        <ele>113</ele>
        <time>2021-08-28T10:31:52.000Z</time>
      </trkpt>
      <trkpt lat="47.29729" lon="-1.66742">
        <ele>113</ele>
        <time>2021-08-28T10:31:54.000Z</time>
      </trkpt>
      <trkpt lat="47.29739" lon="-1.66727">
        <ele>113</ele>
        <time>2021-08-28T10:31:56.000Z</time>
      </trkpt>
      <trkpt lat="47.29748" lon="-1.66712">
        <ele>113</ele>
        <time>2021-08-28T10:31:58.000Z</time>
      </trkpt>
      <trkpt lat="47.29758" lon="-1.66698">
        <ele>113</ele>
        <time>2021-08-28T10:32:00.000Z</time>
      </trkpt>
      <trkpt lat="47.29768" lon="-1.66685">
        <ele>113</ele>
        <time>2021-08-28T10:32:02.000Z</time>
      </trkpt>
      <trkpt lat="47.29779" lon="-1.66673">
        <ele>114</ele>
        <time>2021-08-28T10:32:04.000Z</time>
      </trkpt>
      <trkpt lat="47.2979" lon="-1.66661">
        <ele>113</ele>
        <time>2021-08-28T10:32:06.000Z</time>
      </trkpt>
      <trkpt lat="47.29801" lon="-1.66649">
        <ele>113</ele>
        <time>2021-08-28T10:32:08.000Z</time>
      </trkpt>
      <trkpt lat="47.29812" lon="-1.66638">
        <ele>113</ele>
        <time>2021-08-28T10:32:10.000Z</time>
      </trkpt>
      <trkpt lat="47.29824" lon="-1.66626">
        <ele>113</ele>
        <time>2021-08-28T10:32:12.000Z</time>
      </trkpt>
      <trkpt lat="47.29835" lon="-1.66613">
        <ele>113</ele>
        <time>2021-08-28T10:32:14.000Z</time>
      </trkpt>
      <trkpt lat="47.29847" lon="-1.666">
        <ele>113</ele>
        <time>2021-08-28T10:32:16.000Z</time>
      </trkpt>
      <trkpt lat="47.29858" lon="-1.66587">
        <ele>113</ele>
        <time>2021-08-28T10:32:18.000Z</time>
      </trkpt>
      <trkpt lat="47.29868" lon="-1.66573">
        <ele>114</ele>
        <time>2021-08-28T10:32:20.000Z</time>
      </trkpt>
      <trkpt lat="47.29878" lon="-1.66557">
        <ele>114</ele>
        <time>2021-08-28T10:32:22.000Z</time>
      </trkpt>
      <trkpt lat="47.29888" lon="-1.66541">
        <ele>113</ele>
        <time>2021-08-28T10:32:24.000Z</time>
      </trkpt>
      <trkpt lat="47.29897" lon="-1.66525">
        <ele>114</ele>
        <time>2021-08-28T10:32:26.000Z</time>
      </trkpt>
      <trkpt lat="47.29906" lon="-1.6651">
        <ele>113</ele>
        <time>2021-08-28T10:32:28.000Z</time>
      </trkpt>
      <trkpt lat="47.29914" lon="-1.66497">
        <ele>113</ele>
        <time>2021-08-28T10:32:30.000Z</time>
      </trkpt>
      <trkpt lat="47.29922" lon="-1.66484">
        <ele>113</ele>
        <time>2021-08-28T10:32:32.000Z</time>
      </trkpt>
      <trkpt lat="47.29929" lon="-1.66472">
        <ele>113</ele>
        <time>2021-08-28T10:32:34.000Z</time>
      </trkpt>
      <trkpt lat="47.29936" lon="-1.66462">
        <ele>114</ele>
        <time>2021-08-28T10:32:36.000Z</time>
      </trkpt>
      <trkpt lat="47.29941" lon="-1.66451">
        <ele>114</ele>
        <time>2021-08-28T10:32:39.000Z</time>
      </trkpt>
      <trkpt lat="47.29951" lon="-1.66436">
        <ele>113</ele>
        <time>2021-08-28T10:32:55.000Z</time>
      </trkpt>
      <trkpt lat="47.2996" lon="-1.66424">
        <ele>113</ele>
        <time>2021-08-28T10:32:57.000Z</time>
      </trkpt>
      <trkpt lat="47.29968" lon="-1.66412">
        <ele>113</ele>
        <time>2021-08-28T10:32:59.000Z</time>
      </trkpt>
      <trkpt lat="47.29977" lon="-1.66398">
        <ele>113</ele>
        <time>2021-08-28T10:33:01.000Z</time>
      </trkpt>
      <trkpt lat="47.29986" lon="-1.66384">
        <ele>113</ele>
        <time>2021-08-28T10:33:03.000Z</time>
      </trkpt>
      <trkpt lat="47.29995" lon="-1.6637">
        <ele>113</ele>
        <time>2021-08-28T10:33:05.000Z</time>
      </trkpt>
      <trkpt lat="47.30004" lon="-1.66356">
        <ele>113</ele>
        <time>2021-08-28T10:33:07.000Z</time>
      </trkpt>
      <trkpt lat="47.30013" lon="-1.66341">
        <ele>113</ele>
        <time>2021-08-28T10:33:09.000Z</time>
      </trkpt>
      <trkpt lat="47.30023" lon="-1.66326">
        <ele>113</ele>
        <time>2021-08-28T10:33:11.000Z</time>
      </trkpt>
      <trkpt lat="47.30032" lon="-1.66312">
        <ele>112</ele>
        <time>2021-08-28T10:33:13.000Z</time>
      </trkpt>
      <trkpt lat="47.30042" lon="-1.66297">
        <ele>112</ele>
        <time>2021-08-28T10:33:15.000Z</time>
      </trkpt>
      <trkpt lat="47.30051" lon="-1.66282">
        <ele>113</ele>
        <time>2021-08-28T10:33:17.000Z</time>
      </trkpt>
      <trkpt lat="47.3006" lon="-1.66267">
        <ele>113</ele>
        <time>2021-08-28T10:33:19.000Z</time>
      </trkpt>
      <trkpt lat="47.30069" lon="-1.66253">
        <ele>113</ele>
        <time>2021-08-28T10:33:21.000Z</time>
      </trkpt>
      <trkpt lat="47.30078" lon="-1.66238">
        <ele>113</ele>
        <time>2021-08-28T10:33:23.000Z</time>
      </trkpt>
      <trkpt lat="47.30087" lon="-1.66224">
        <ele>113</ele>
        <time>2021-08-28T10:33:25.000Z</time>
      </trkpt>
      <trkpt lat="47.30097" lon="-1.6621">
        <ele>113</ele>
        <time>2021-08-28T10:33:27.000Z</time>
      </trkpt>
      <trkpt lat="47.30106" lon="-1.66196">
        <ele>114</ele>
        <time>2021-08-28T10:33:29.000Z</time>
      </trkpt>
      <trkpt lat="47.30116" lon="-1.66184">
        <ele>115</ele>
        <time>2021-08-28T10:33:31.000Z</time>
      </trkpt>
      <trkpt lat="47.30127" lon="-1.66172">
        <ele>114</ele>
        <time>2021-08-28T10:33:33.000Z</time>
      </trkpt>
      <trkpt lat="47.30138" lon="-1.66161">
        <ele>114</ele>
        <time>2021-08-28T10:33:35.000Z</time>
      </trkpt>
      <trkpt lat="47.30149" lon="-1.6615">
        <ele>114</ele>
        <time>2021-08-28T10:33:37.000Z</time>
      </trkpt>
      <trkpt lat="47.3016" lon="-1.66139">
        <ele>114</ele>
        <time>2021-08-28T10:33:39.000Z</time>
      </trkpt>
      <trkpt lat="47.3017" lon="-1.66128">
        <ele>114</ele>
        <time>2021-08-28T10:33:41.000Z</time>
      </trkpt>
      <trkpt lat="47.30181" lon="-1.66117">
        <ele>114</ele>
        <time>2021-08-28T10:33:43.000Z</time>
      </trkpt>
      <trkpt lat="47.30191" lon="-1.66106">
        <ele>114</ele>
        <time>2021-08-28T10:33:45.000Z</time>
      </trkpt>
      <trkpt lat="47.30202" lon="-1.66095">
        <ele>115</ele>
        <time>2021-08-28T10:33:47.000Z</time>
      </trkpt>
      <trkpt lat="47.30212" lon="-1.66084">
        <ele>115</ele>
        <time>2021-08-28T10:33:49.000Z</time>
      </trkpt>
      <trkpt lat="47.30223" lon="-1.66074">
        <ele>115</ele>
        <time>2021-08-28T10:33:51.000Z</time>
      </trkpt>
      <trkpt lat="47.30238" lon="-1.66058">
        <ele>115</ele>
        <time>2021-08-28T10:33:54.000Z</time>
      </trkpt>
      <trkpt lat="47.30254" lon="-1.66041">
        <ele>115</ele>
        <time>2021-08-28T10:33:57.000Z</time>
      </trkpt>
      <trkpt lat="47.30265" lon="-1.66029">
        <ele>115</ele>
        <time>2021-08-28T10:33:59.000Z</time>
      </trkpt>
      <trkpt lat="47.30275" lon="-1.66018">
        <ele>115</ele>
        <time>2021-08-28T10:34:01.000Z</time>
      </trkpt>
      <trkpt lat="47.30286" lon="-1.66008">
        <ele>115</ele>
        <time>2021-08-28T10:34:03.000Z</time>
      </trkpt>
      <trkpt lat="47.30296" lon="-1.65998">
        <ele>115</ele>
        <time>2021-08-28T10:34:05.000Z</time>
      </trkpt>
      <trkpt lat="47.30307" lon="-1.65987">
        <ele>115</ele>
        <time>2021-08-28T10:34:07.000Z</time>
      </trkpt>
      <trkpt lat="47.30317" lon="-1.65976">
        <ele>115</ele>
        <time>2021-08-28T10:34:09.000Z</time>
      </trkpt>
      <trkpt lat="47.30327" lon="-1.65965">
        <ele>115</ele>
        <time>2021-08-28T10:34:11.000Z</time>
      </trkpt>
      <trkpt lat="47.30344" lon="-1.65948">
        <ele>115</ele>
        <time>2021-08-28T10:34:14.000Z</time>
      </trkpt>
      <trkpt lat="47.30359" lon="-1.65932">
        <ele>115</ele>
        <time>2021-08-28T10:34:17.000Z</time>
      </trkpt>
      <trkpt lat="47.3037" lon="-1.65921">
        <ele>115</ele>
        <time>2021-08-28T10:34:19.000Z</time>
      </trkpt>
      <trkpt lat="47.3038" lon="-1.65911">
        <ele>115</ele>
        <time>2021-08-28T10:34:21.000Z</time>
      </trkpt>
      <trkpt lat="47.30391" lon="-1.659">
        <ele>115</ele>
        <time>2021-08-28T10:34:23.000Z</time>
      </trkpt>
      <trkpt lat="47.30401" lon="-1.6589">
        <ele>116</ele>
        <time>2021-08-28T10:34:25.000Z</time>
      </trkpt>
      <trkpt lat="47.30411" lon="-1.65879">
        <ele>116</ele>
        <time>2021-08-28T10:34:27.000Z</time>
      </trkpt>
      <trkpt lat="47.30421" lon="-1.65869">
        <ele>116</ele>
        <time>2021-08-28T10:34:29.000Z</time>
      </trkpt>
      <trkpt lat="47.30431" lon="-1.65858">
        <ele>116</ele>
        <time>2021-08-28T10:34:31.000Z</time>
      </trkpt>
      <trkpt lat="47.30442" lon="-1.65848">
        <ele>116</ele>
        <time>2021-08-28T10:34:33.000Z</time>
      </trkpt>
      <trkpt lat="47.30451" lon="-1.65838">
        <ele>116</ele>
        <time>2021-08-28T10:34:35.000Z</time>
      </trkpt>
      <trkpt lat="47.30461" lon="-1.65828">
        <ele>116</ele>
        <time>2021-08-28T10:34:37.000Z</time>
      </trkpt>
      <trkpt lat="47.30471" lon="-1.65817">
        <ele>116</ele>
        <time>2021-08-28T10:34:39.000Z</time>
      </trkpt>
      <trkpt lat="47.30481" lon="-1.65806">
        <ele>116</ele>
        <time>2021-08-28T10:34:41.000Z</time>
      </trkpt>
      <trkpt lat="47.30491" lon="-1.65795">
        <ele>115</ele>
        <time>2021-08-28T10:34:43.000Z</time>
      </trkpt>
      <trkpt lat="47.30501" lon="-1.65785">
        <ele>115</ele>
        <time>2021-08-28T10:34:45.000Z</time>
      </trkpt>
      <trkpt lat="47.30511" lon="-1.65774">
        <ele>115</ele>
        <time>2021-08-28T10:34:47.000Z</time>
      </trkpt>
      <trkpt lat="47.30521" lon="-1.65763">
        <ele>116</ele>
        <time>2021-08-28T10:34:49.000Z</time>
      </trkpt>
      <trkpt lat="47.30531" lon="-1.65753">
        <ele>115</ele>
        <time>2021-08-28T10:34:51.000Z</time>
      </trkpt>
      <trkpt lat="47.30541" lon="-1.65742">
        <ele>116</ele>
        <time>2021-08-28T10:34:53.000Z</time>
      </trkpt>
      <trkpt lat="47.30551" lon="-1.65731">
        <ele>116</ele>
        <time>2021-08-28T10:34:55.000Z</time>
      </trkpt>
      <trkpt lat="47.30562" lon="-1.65721">
        <ele>115</ele>
        <time>2021-08-28T10:34:57.000Z</time>
      </trkpt>
      <trkpt lat="47.30572" lon="-1.65711">
        <ele>116</ele>
        <time>2021-08-28T10:34:59.000Z</time>
      </trkpt>
      <trkpt lat="47.30582" lon="-1.65701">
        <ele>116</ele>
        <time>2021-08-28T10:35:01.000Z</time>
      </trkpt>
      <trkpt lat="47.30593" lon="-1.6569">
        <ele>116</ele>
        <time>2021-08-28T10:35:03.000Z</time>
      </trkpt>
      <trkpt lat="47.30603" lon="-1.65679">
        <ele>116</ele>
        <time>2021-08-28T10:35:05.000Z</time>
      </trkpt>
      <trkpt lat="47.30614" lon="-1.65668">
        <ele>116</ele>
        <time>2021-08-28T10:35:07.000Z</time>
      </trkpt>
      <trkpt lat="47.30624" lon="-1.65657">
        <ele>117</ele>
        <time>2021-08-28T10:35:09.000Z</time>
      </trkpt>
      <trkpt lat="47.30635" lon="-1.65646">
        <ele>116</ele>
        <time>2021-08-28T10:35:11.000Z</time>
      </trkpt>
      <trkpt lat="47.30645" lon="-1.65635">
        <ele>116</ele>
        <time>2021-08-28T10:35:13.000Z</time>
      </trkpt>
      <trkpt lat="47.30655" lon="-1.65625">
        <ele>116</ele>
        <time>2021-08-28T10:35:15.000Z</time>
      </trkpt>
      <trkpt lat="47.30666" lon="-1.65614">
        <ele>116</ele>
        <time>2021-08-28T10:35:17.000Z</time>
      </trkpt>
      <trkpt lat="47.30676" lon="-1.65603">
        <ele>116</ele>
        <time>2021-08-28T10:35:19.000Z</time>
      </trkpt>
      <trkpt lat="47.30686" lon="-1.65592">
        <ele>117</ele>
        <time>2021-08-28T10:35:21.000Z</time>
      </trkpt>
      <trkpt lat="47.30697" lon="-1.65581">
        <ele>116</ele>
        <time>2021-08-28T10:35:23.000Z</time>
      </trkpt>
      <trkpt lat="47.30707" lon="-1.65569">
        <ele>116</ele>
        <time>2021-08-28T10:35:25.000Z</time>
      </trkpt>
      <trkpt lat="47.30716" lon="-1.65558">
        <ele>116</ele>
        <time>2021-08-28T10:35:27.000Z</time>
      </trkpt>
      <trkpt lat="47.30726" lon="-1.65546">
        <ele>116</ele>
        <time>2021-08-28T10:35:29.000Z</time>
      </trkpt>
      <trkpt lat="47.30734" lon="-1.65534">
        <ele>116</ele>
        <time>2021-08-28T10:35:31.000Z</time>
      </trkpt>
      <trkpt lat="47.3074" lon="-1.6552">
        <ele>116</ele>
        <time>2021-08-28T10:35:33.000Z</time>
      </trkpt>
      <trkpt lat="47.30746" lon="-1.65506">
        <ele>116</ele>
        <time>2021-08-28T10:35:35.000Z</time>
      </trkpt>
      <trkpt lat="47.30753" lon="-1.65491">
        <ele>116</ele>
        <time>2021-08-28T10:35:37.000Z</time>
      </trkpt>
      <trkpt lat="47.3076" lon="-1.65478">
        <ele>117</ele>
        <time>2021-08-28T10:35:39.000Z</time>
      </trkpt>
      <trkpt lat="47.30768" lon="-1.65464">
        <ele>117</ele>
        <time>2021-08-28T10:35:41.000Z</time>
      </trkpt>
      <trkpt lat="47.30776" lon="-1.6545">
        <ele>117</ele>
        <time>2021-08-28T10:35:43.000Z</time>
      </trkpt>
      <trkpt lat="47.30784" lon="-1.65436">
        <ele>117</ele>
        <time>2021-08-28T10:35:45.000Z</time>
      </trkpt>
      <trkpt lat="47.30792" lon="-1.65422">
        <ele>116</ele>
        <time>2021-08-28T10:35:47.000Z</time>
      </trkpt>
      <trkpt lat="47.308" lon="-1.65408">
        <ele>117</ele>
        <time>2021-08-28T10:35:49.000Z</time>
      </trkpt>
      <trkpt lat="47.30807" lon="-1.65394">
        <ele>117</ele>
        <time>2021-08-28T10:35:51.000Z</time>
      </trkpt>
      <trkpt lat="47.30816" lon="-1.6538">
        <ele>117</ele>
        <time>2021-08-28T10:35:53.000Z</time>
      </trkpt>
      <trkpt lat="47.30824" lon="-1.65366">
        <ele>117</ele>
        <time>2021-08-28T10:35:55.000Z</time>
      </trkpt>
      <trkpt lat="47.30831" lon="-1.65353">
        <ele>117</ele>
        <time>2021-08-28T10:35:57.000Z</time>
      </trkpt>
      <trkpt lat="47.30839" lon="-1.65339">
        <ele>117</ele>
        <time>2021-08-28T10:35:59.000Z</time>
      </trkpt>
      <trkpt lat="47.30847" lon="-1.65324">
        <ele>116</ele>
        <time>2021-08-28T10:36:01.000Z</time>
      </trkpt>
      <trkpt lat="47.30855" lon="-1.6531">
        <ele>116</ele>
        <time>2021-08-28T10:36:03.000Z</time>
      </trkpt>
      <trkpt lat="47.30863" lon="-1.65295">
        <ele>116</ele>
        <time>2021-08-28T10:36:05.000Z</time>
      </trkpt>
      <trkpt lat="47.30872" lon="-1.6528">
        <ele>115</ele>
        <time>2021-08-28T10:36:07.000Z</time>
      </trkpt>
      <trkpt lat="47.3088" lon="-1.65265">
        <ele>115</ele>
        <time>2021-08-28T10:36:09.000Z</time>
      </trkpt>
      <trkpt lat="47.30889" lon="-1.6525">
        <ele>115</ele>
        <time>2021-08-28T10:36:11.000Z</time>
      </trkpt>
      <trkpt lat="47.30897" lon="-1.65235">
        <ele>115</ele>
        <time>2021-08-28T10:36:13.000Z</time>
      </trkpt>
      <trkpt lat="47.30906" lon="-1.6522">
        <ele>114</ele>
        <time>2021-08-28T10:36:15.000Z</time>
      </trkpt>
      <trkpt lat="47.30915" lon="-1.65205">
        <ele>114</ele>
        <time>2021-08-28T10:36:17.000Z</time>
      </trkpt>
      <trkpt lat="47.30923" lon="-1.65189">
        <ele>113</ele>
        <time>2021-08-28T10:36:19.000Z</time>
      </trkpt>
      <trkpt lat="47.30932" lon="-1.65174">
        <ele>113</ele>
        <time>2021-08-28T10:36:21.000Z</time>
      </trkpt>
      <trkpt lat="47.30941" lon="-1.65158">
        <ele>112</ele>
        <time>2021-08-28T10:36:23.000Z</time>
      </trkpt>
      <trkpt lat="47.30951" lon="-1.65141">
        <ele>112</ele>
        <time>2021-08-28T10:36:25.000Z</time>
      </trkpt>
      <trkpt lat="47.3096" lon="-1.65126">
        <ele>112</ele>
        <time>2021-08-28T10:36:27.000Z</time>
      </trkpt>
      <trkpt lat="47.30968" lon="-1.6511">
        <ele>112</ele>
        <time>2021-08-28T10:36:29.000Z</time>
      </trkpt>
      <trkpt lat="47.30977" lon="-1.65096">
        <ele>112</ele>
        <time>2021-08-28T10:36:31.000Z</time>
      </trkpt>
      <trkpt lat="47.30988" lon="-1.65084">
        <ele>112</ele>
        <time>2021-08-28T10:36:33.000Z</time>
      </trkpt>
      <trkpt lat="47.31" lon="-1.65076">
        <ele>112</ele>
        <time>2021-08-28T10:36:35.000Z</time>
      </trkpt>
      <trkpt lat="47.31012" lon="-1.65069">
        <ele>112</ele>
        <time>2021-08-28T10:36:37.000Z</time>
      </trkpt>
      <trkpt lat="47.31024" lon="-1.65061">
        <ele>112</ele>
        <time>2021-08-28T10:36:39.000Z</time>
      </trkpt>
      <trkpt lat="47.31037" lon="-1.65055">
        <ele>111</ele>
        <time>2021-08-28T10:36:41.000Z</time>
      </trkpt>
      <trkpt lat="47.3105" lon="-1.6505">
        <ele>110</ele>
        <time>2021-08-28T10:36:43.000Z</time>
      </trkpt>
      <trkpt lat="47.31063" lon="-1.65044">
        <ele>110</ele>
        <time>2021-08-28T10:36:45.000Z</time>
      </trkpt>
      <trkpt lat="47.31076" lon="-1.65039">
        <ele>110</ele>
        <time>2021-08-28T10:36:47.000Z</time>
      </trkpt>
      <trkpt lat="47.31089" lon="-1.65035">
        <ele>110</ele>
        <time>2021-08-28T10:36:49.000Z</time>
      </trkpt>
      <trkpt lat="47.31102" lon="-1.65032">
        <ele>109</ele>
        <time>2021-08-28T10:36:51.000Z</time>
      </trkpt>
      <trkpt lat="47.31116" lon="-1.6503">
        <ele>109</ele>
        <time>2021-08-28T10:36:53.000Z</time>
      </trkpt>
      <trkpt lat="47.31129" lon="-1.65031">
        <ele>110</ele>
        <time>2021-08-28T10:36:55.000Z</time>
      </trkpt>
      <trkpt lat="47.31142" lon="-1.65037">
        <ele>110</ele>
        <time>2021-08-28T10:36:57.000Z</time>
      </trkpt>
      <trkpt lat="47.31154" lon="-1.65046">
        <ele>110</ele>
        <time>2021-08-28T10:36:59.000Z</time>
      </trkpt>
      <trkpt lat="47.31165" lon="-1.65053">
        <ele>111</ele>
        <time>2021-08-28T10:37:01.000Z</time>
      </trkpt>
      <trkpt lat="47.31177" lon="-1.65057">
        <ele>111</ele>
        <time>2021-08-28T10:37:03.000Z</time>
      </trkpt>
      <trkpt lat="47.31189" lon="-1.65057">
        <ele>111</ele>
        <time>2021-08-28T10:37:05.000Z</time>
      </trkpt>
      <trkpt lat="47.31199" lon="-1.65053">
        <ele>112</ele>
        <time>2021-08-28T10:37:07.000Z</time>
      </trkpt>
      <trkpt lat="47.31209" lon="-1.65048">
        <ele>112</ele>
        <time>2021-08-28T10:37:09.000Z</time>
      </trkpt>
      <trkpt lat="47.31219" lon="-1.65043">
        <ele>113</ele>
        <time>2021-08-28T10:37:11.000Z</time>
      </trkpt>
      <trkpt lat="47.31228" lon="-1.65038">
        <ele>113</ele>
        <time>2021-08-28T10:37:13.000Z</time>
      </trkpt>
      <trkpt lat="47.31238" lon="-1.65033">
        <ele>114</ele>
        <time>2021-08-28T10:37:15.000Z</time>
      </trkpt>
      <trkpt lat="47.31247" lon="-1.65027">
        <ele>114</ele>
        <time>2021-08-28T10:37:17.000Z</time>
      </trkpt>
      <trkpt lat="47.31256" lon="-1.65022">
        <ele>115</ele>
        <time>2021-08-28T10:37:19.000Z</time>
      </trkpt>
      <trkpt lat="47.31266" lon="-1.65016">
        <ele>115</ele>
        <time>2021-08-28T10:37:21.000Z</time>
      </trkpt>
      <trkpt lat="47.31275" lon="-1.6501">
        <ele>116</ele>
        <time>2021-08-28T10:37:23.000Z</time>
      </trkpt>
      <trkpt lat="47.31286" lon="-1.65004">
        <ele>116</ele>
        <time>2021-08-28T10:37:25.000Z</time>
      </trkpt>
      <trkpt lat="47.31295" lon="-1.64998">
        <ele>116</ele>
        <time>2021-08-28T10:37:27.000Z</time>
      </trkpt>
      <trkpt lat="47.31305" lon="-1.64992">
        <ele>117</ele>
        <time>2021-08-28T10:37:29.000Z</time>
      </trkpt>
      <trkpt lat="47.31315" lon="-1.64986">
        <ele>117</ele>
        <time>2021-08-28T10:37:31.000Z</time>
      </trkpt>
      <trkpt lat="47.31325" lon="-1.6498">
        <ele>117</ele>
        <time>2021-08-28T10:37:33.000Z</time>
      </trkpt>
      <trkpt lat="47.31335" lon="-1.64973">
        <ele>117</ele>
        <time>2021-08-28T10:37:35.000Z</time>
      </trkpt>
      <trkpt lat="47.31345" lon="-1.64967">
        <ele>117</ele>
        <time>2021-08-28T10:37:37.000Z</time>
      </trkpt>
      <trkpt lat="47.31355" lon="-1.6496">
        <ele>117</ele>
        <time>2021-08-28T10:37:39.000Z</time>
      </trkpt>
      <trkpt lat="47.31366" lon="-1.64954">
        <ele>117</ele>
        <time>2021-08-28T10:37:41.000Z</time>
      </trkpt>
      <trkpt lat="47.31376" lon="-1.64946">
        <ele>117</ele>
        <time>2021-08-28T10:37:43.000Z</time>
      </trkpt>
      <trkpt lat="47.31387" lon="-1.64939">
        <ele>117</ele>
        <time>2021-08-28T10:37:45.000Z</time>
      </trkpt>
      <trkpt lat="47.31398" lon="-1.64933">
        <ele>117</ele>
        <time>2021-08-28T10:37:47.000Z</time>
      </trkpt>
      <trkpt lat="47.31409" lon="-1.64925">
        <ele>118</ele>
        <time>2021-08-28T10:37:49.000Z</time>
      </trkpt>
      <trkpt lat="47.3142" lon="-1.64919">
        <ele>118</ele>
        <time>2021-08-28T10:37:51.000Z</time>
      </trkpt>
      <trkpt lat="47.31431" lon="-1.64915">
        <ele>118</ele>
        <time>2021-08-28T10:37:53.000Z</time>
      </trkpt>
      <trkpt lat="47.31443" lon="-1.64912">
        <ele>119</ele>
        <time>2021-08-28T10:37:55.000Z</time>
      </trkpt>
      <trkpt lat="47.31457" lon="-1.64912">
        <ele>119</ele>
        <time>2021-08-28T10:37:57.000Z</time>
      </trkpt>
      <trkpt lat="47.31472" lon="-1.64911">
        <ele>118</ele>
        <time>2021-08-28T10:37:59.000Z</time>
      </trkpt>
      <trkpt lat="47.31486" lon="-1.6491">
        <ele>117</ele>
        <time>2021-08-28T10:38:01.000Z</time>
      </trkpt>
      <trkpt lat="47.315" lon="-1.64909">
        <ele>116</ele>
        <time>2021-08-28T10:38:03.000Z</time>
      </trkpt>
      <trkpt lat="47.3151" lon="-1.64907">
        <ele>115</ele>
        <time>2021-08-28T10:38:06.000Z</time>
      </trkpt>
      <trkpt lat="47.3152" lon="-1.64904">
        <ele>114</ele>
        <time>2021-08-28T10:38:11.000Z</time>
      </trkpt>
      <trkpt lat="47.31532" lon="-1.649">
        <ele>112</ele>
        <time>2021-08-28T10:38:13.000Z</time>
      </trkpt>
      <trkpt lat="47.31543" lon="-1.64893">
        <ele>111</ele>
        <time>2021-08-28T10:38:15.000Z</time>
      </trkpt>
      <trkpt lat="47.31555" lon="-1.64885">
        <ele>111</ele>
        <time>2021-08-28T10:38:17.000Z</time>
      </trkpt>
      <trkpt lat="47.31566" lon="-1.64876">
        <ele>111</ele>
        <time>2021-08-28T10:38:19.000Z</time>
      </trkpt>
      <trkpt lat="47.31577" lon="-1.64867">
        <ele>111</ele>
        <time>2021-08-28T10:38:21.000Z</time>
      </trkpt>
      <trkpt lat="47.31589" lon="-1.64858">
        <ele>111</ele>
        <time>2021-08-28T10:38:23.000Z</time>
      </trkpt>
      <trkpt lat="47.31601" lon="-1.64848">
        <ele>110</ele>
        <time>2021-08-28T10:38:25.000Z</time>
      </trkpt>
      <trkpt lat="47.31613" lon="-1.64839">
        <ele>109</ele>
        <time>2021-08-28T10:38:27.000Z</time>
      </trkpt>
      <trkpt lat="47.31624" lon="-1.64829">
        <ele>109</ele>
        <time>2021-08-28T10:38:29.000Z</time>
      </trkpt>
      <trkpt lat="47.31635" lon="-1.64816">
        <ele>108</ele>
        <time>2021-08-28T10:38:31.000Z</time>
      </trkpt>
      <trkpt lat="47.31646" lon="-1.64803">
        <ele>107</ele>
        <time>2021-08-28T10:38:33.000Z</time>
      </trkpt>
      <trkpt lat="47.31659" lon="-1.64789">
        <ele>106</ele>
        <time>2021-08-28T10:38:35.000Z</time>
      </trkpt>
      <trkpt lat="47.31671" lon="-1.64775">
        <ele>105</ele>
        <time>2021-08-28T10:38:37.000Z</time>
      </trkpt>
      <trkpt lat="47.31685" lon="-1.6476">
        <ele>105</ele>
        <time>2021-08-28T10:38:39.000Z</time>
      </trkpt>
      <trkpt lat="47.31698" lon="-1.64747">
        <ele>105</ele>
        <time>2021-08-28T10:38:41.000Z</time>
      </trkpt>
      <trkpt lat="47.31711" lon="-1.64734">
        <ele>104</ele>
        <time>2021-08-28T10:38:43.000Z</time>
      </trkpt>
      <trkpt lat="47.31724" lon="-1.64721">
        <ele>104</ele>
        <time>2021-08-28T10:38:45.000Z</time>
      </trkpt>
      <trkpt lat="47.31738" lon="-1.64709">
        <ele>104</ele>
        <time>2021-08-28T10:38:47.000Z</time>
      </trkpt>
      <trkpt lat="47.31751" lon="-1.64699">
        <ele>104</ele>
        <time>2021-08-28T10:38:49.000Z</time>
      </trkpt>
      <trkpt lat="47.31765" lon="-1.64692">
        <ele>104</ele>
        <time>2021-08-28T10:38:51.000Z</time>
      </trkpt>
      <trkpt lat="47.31779" lon="-1.64686">
        <ele>104</ele>
        <time>2021-08-28T10:38:53.000Z</time>
      </trkpt>
      <trkpt lat="47.31794" lon="-1.64681">
        <ele>104</ele>
        <time>2021-08-28T10:38:55.000Z</time>
      </trkpt>
      <trkpt lat="47.31808" lon="-1.64675">
        <ele>104</ele>
        <time>2021-08-28T10:38:57.000Z</time>
      </trkpt>
      <trkpt lat="47.31823" lon="-1.6467">
        <ele>103</ele>
        <time>2021-08-28T10:38:59.000Z</time>
      </trkpt>
      <trkpt lat="47.31837" lon="-1.64665">
        <ele>102</ele>
        <time>2021-08-28T10:39:01.000Z</time>
      </trkpt>
      <trkpt lat="47.31851" lon="-1.6466">
        <ele>101</ele>
        <time>2021-08-28T10:39:03.000Z</time>
      </trkpt>
      <trkpt lat="47.31866" lon="-1.64654">
        <ele>101</ele>
        <time>2021-08-28T10:39:05.000Z</time>
      </trkpt>
      <trkpt lat="47.31881" lon="-1.64649">
        <ele>101</ele>
        <time>2021-08-28T10:39:07.000Z</time>
      </trkpt>
      <trkpt lat="47.31895" lon="-1.64644">
        <ele>101</ele>
        <time>2021-08-28T10:39:09.000Z</time>
      </trkpt>
      <trkpt lat="47.3191" lon="-1.64639">
        <ele>100</ele>
        <time>2021-08-28T10:39:11.000Z</time>
      </trkpt>
      <trkpt lat="47.31924" lon="-1.64633">
        <ele>100</ele>
        <time>2021-08-28T10:39:13.000Z</time>
      </trkpt>
      <trkpt lat="47.31938" lon="-1.64627">
        <ele>100</ele>
        <time>2021-08-28T10:39:15.000Z</time>
      </trkpt>
      <trkpt lat="47.31953" lon="-1.64621">
        <ele>99</ele>
        <time>2021-08-28T10:39:17.000Z</time>
      </trkpt>
      <trkpt lat="47.31968" lon="-1.64615">
        <ele>99</ele>
        <time>2021-08-28T10:39:19.000Z</time>
      </trkpt>
      <trkpt lat="47.31984" lon="-1.64609">
        <ele>98</ele>
        <time>2021-08-28T10:39:21.000Z</time>
      </trkpt>
      <trkpt lat="47.32" lon="-1.64603">
        <ele>97</ele>
        <time>2021-08-28T10:39:23.000Z</time>
      </trkpt>
      <trkpt lat="47.32017" lon="-1.64598">
        <ele>97</ele>
        <time>2021-08-28T10:39:25.000Z</time>
      </trkpt>
      <trkpt lat="47.32033" lon="-1.64592">
        <ele>97</ele>
        <time>2021-08-28T10:39:27.000Z</time>
      </trkpt>
      <trkpt lat="47.32048" lon="-1.64586">
        <ele>96</ele>
        <time>2021-08-28T10:39:29.000Z</time>
      </trkpt>
      <trkpt lat="47.32064" lon="-1.6458">
        <ele>95</ele>
        <time>2021-08-28T10:39:31.000Z</time>
      </trkpt>
      <trkpt lat="47.32081" lon="-1.64574">
        <ele>94</ele>
        <time>2021-08-28T10:39:33.000Z</time>
      </trkpt>
      <trkpt lat="47.32097" lon="-1.64568">
        <ele>93</ele>
        <time>2021-08-28T10:39:35.000Z</time>
      </trkpt>
      <trkpt lat="47.32114" lon="-1.64561">
        <ele>91</ele>
        <time>2021-08-28T10:39:37.000Z</time>
      </trkpt>
      <trkpt lat="47.32123" lon="-1.64557">
        <ele>90</ele>
        <time>2021-08-28T10:39:38.000Z</time>
      </trkpt>
      <trkpt lat="47.32131" lon="-1.64554">
        <ele>89</ele>
        <time>2021-08-28T10:39:39.000Z</time>
      </trkpt>
      <trkpt lat="47.3214" lon="-1.64549">
        <ele>89</ele>
        <time>2021-08-28T10:39:40.000Z</time>
      </trkpt>
      <trkpt lat="47.32149" lon="-1.64544">
        <ele>88</ele>
        <time>2021-08-28T10:39:41.000Z</time>
      </trkpt>
      <trkpt lat="47.32157" lon="-1.64538">
        <ele>87</ele>
        <time>2021-08-28T10:39:42.000Z</time>
      </trkpt>
      <trkpt lat="47.32165" lon="-1.6453">
        <ele>87</ele>
        <time>2021-08-28T10:39:43.000Z</time>
      </trkpt>
      <trkpt lat="47.32173" lon="-1.6452">
        <ele>86</ele>
        <time>2021-08-28T10:39:44.000Z</time>
      </trkpt>
      <trkpt lat="47.32181" lon="-1.6451">
        <ele>85</ele>
        <time>2021-08-28T10:39:45.000Z</time>
      </trkpt>
      <trkpt lat="47.32188" lon="-1.64496">
        <ele>85</ele>
        <time>2021-08-28T10:39:46.000Z</time>
      </trkpt>
      <trkpt lat="47.32194" lon="-1.64483">
        <ele>85</ele>
        <time>2021-08-28T10:39:47.000Z</time>
      </trkpt>
      <trkpt lat="47.322" lon="-1.64471">
        <ele>85</ele>
        <time>2021-08-28T10:39:48.000Z</time>
      </trkpt>
      <trkpt lat="47.32206" lon="-1.6446">
        <ele>84</ele>
        <time>2021-08-28T10:39:49.000Z</time>
      </trkpt>
      <trkpt lat="47.32211" lon="-1.64449">
        <ele>83</ele>
        <time>2021-08-28T10:39:50.000Z</time>
      </trkpt>
      <trkpt lat="47.32222" lon="-1.64428">
        <ele>82</ele>
        <time>2021-08-28T10:39:52.000Z</time>
      </trkpt>
      <trkpt lat="47.32231" lon="-1.64405">
        <ele>80</ele>
        <time>2021-08-28T10:39:54.000Z</time>
      </trkpt>
      <trkpt lat="47.32235" lon="-1.64393">
        <ele>79</ele>
        <time>2021-08-28T10:39:55.000Z</time>
      </trkpt>
      <trkpt lat="47.32239" lon="-1.64381">
        <ele>78</ele>
        <time>2021-08-28T10:39:56.000Z</time>
      </trkpt>
      <trkpt lat="47.32242" lon="-1.64367">
        <ele>77</ele>
        <time>2021-08-28T10:39:57.000Z</time>
      </trkpt>
      <trkpt lat="47.32246" lon="-1.64354">
        <ele>76</ele>
        <time>2021-08-28T10:39:58.000Z</time>
      </trkpt>
      <trkpt lat="47.32249" lon="-1.64341">
        <ele>76</ele>
        <time>2021-08-28T10:39:59.000Z</time>
      </trkpt>
      <trkpt lat="47.32253" lon="-1.64319">
        <ele>75</ele>
        <time>2021-08-28T10:40:01.000Z</time>
      </trkpt>
      <trkpt lat="47.32258" lon="-1.64308">
        <ele>74</ele>
        <time>2021-08-28T10:40:03.000Z</time>
      </trkpt>
      <trkpt lat="47.32271" lon="-1.64309">
        <ele>73</ele>
        <time>2021-08-28T10:40:05.000Z</time>
      </trkpt>
      <trkpt lat="47.32285" lon="-1.64316">
        <ele>71</ele>
        <time>2021-08-28T10:40:07.000Z</time>
      </trkpt>
      <trkpt lat="47.323" lon="-1.64323">
        <ele>71</ele>
        <time>2021-08-28T10:40:09.000Z</time>
      </trkpt>
      <trkpt lat="47.32315" lon="-1.64331">
        <ele>70</ele>
        <time>2021-08-28T10:40:11.000Z</time>
      </trkpt>
      <trkpt lat="47.3233" lon="-1.64337">
        <ele>69</ele>
        <time>2021-08-28T10:40:13.000Z</time>
      </trkpt>
      <trkpt lat="47.32346" lon="-1.64342">
        <ele>69</ele>
        <time>2021-08-28T10:40:15.000Z</time>
      </trkpt>
      <trkpt lat="47.32362" lon="-1.64344">
        <ele>68</ele>
        <time>2021-08-28T10:40:17.000Z</time>
      </trkpt>
      <trkpt lat="47.32378" lon="-1.64348">
        <ele>69</ele>
        <time>2021-08-28T10:40:19.000Z</time>
      </trkpt>
      <trkpt lat="47.32393" lon="-1.64351">
        <ele>69</ele>
        <time>2021-08-28T10:40:21.000Z</time>
      </trkpt>
      <trkpt lat="47.32407" lon="-1.64353">
        <ele>68</ele>
        <time>2021-08-28T10:40:23.000Z</time>
      </trkpt>
      <trkpt lat="47.32423" lon="-1.64354">
        <ele>68</ele>
        <time>2021-08-28T10:40:25.000Z</time>
      </trkpt>
      <trkpt lat="47.32438" lon="-1.64358">
        <ele>68</ele>
        <time>2021-08-28T10:40:27.000Z</time>
      </trkpt>
      <trkpt lat="47.32453" lon="-1.64363">
        <ele>68</ele>
        <time>2021-08-28T10:40:29.000Z</time>
      </trkpt>
      <trkpt lat="47.32467" lon="-1.64372">
        <ele>68</ele>
        <time>2021-08-28T10:40:31.000Z</time>
      </trkpt>
      <trkpt lat="47.3248" lon="-1.64382">
        <ele>68</ele>
        <time>2021-08-28T10:40:33.000Z</time>
      </trkpt>
      <trkpt lat="47.32492" lon="-1.64389">
        <ele>68</ele>
        <time>2021-08-28T10:40:35.000Z</time>
      </trkpt>
      <trkpt lat="47.32504" lon="-1.64395">
        <ele>68</ele>
        <time>2021-08-28T10:40:37.000Z</time>
      </trkpt>
      <trkpt lat="47.32517" lon="-1.64398">
        <ele>68</ele>
        <time>2021-08-28T10:40:39.000Z</time>
      </trkpt>
      <trkpt lat="47.32529" lon="-1.644">
        <ele>68</ele>
        <time>2021-08-28T10:40:41.000Z</time>
      </trkpt>
      <trkpt lat="47.3254" lon="-1.64399">
        <ele>70</ele>
        <time>2021-08-28T10:40:43.000Z</time>
      </trkpt>
      <trkpt lat="47.32552" lon="-1.64396">
        <ele>71</ele>
        <time>2021-08-28T10:40:45.000Z</time>
      </trkpt>
      <trkpt lat="47.32563" lon="-1.64393">
        <ele>72</ele>
        <time>2021-08-28T10:40:47.000Z</time>
      </trkpt>
      <trkpt lat="47.32573" lon="-1.6439">
        <ele>72</ele>
        <time>2021-08-28T10:40:49.000Z</time>
      </trkpt>
      <trkpt lat="47.32583" lon="-1.64387">
        <ele>73</ele>
        <time>2021-08-28T10:40:51.000Z</time>
      </trkpt>
      <trkpt lat="47.32592" lon="-1.64385">
        <ele>73</ele>
        <time>2021-08-28T10:40:53.000Z</time>
      </trkpt>
      <trkpt lat="47.32605" lon="-1.64381">
        <ele>74</ele>
        <time>2021-08-28T10:40:56.000Z</time>
      </trkpt>
      <trkpt lat="47.32614" lon="-1.64378">
        <ele>74</ele>
        <time>2021-08-28T10:40:58.000Z</time>
      </trkpt>
      <trkpt lat="47.32623" lon="-1.64376">
        <ele>74</ele>
        <time>2021-08-28T10:41:00.000Z</time>
      </trkpt>
      <trkpt lat="47.32632" lon="-1.64373">
        <ele>75</ele>
        <time>2021-08-28T10:41:02.000Z</time>
      </trkpt>
      <trkpt lat="47.32641" lon="-1.6437">
        <ele>75</ele>
        <time>2021-08-28T10:41:04.000Z</time>
      </trkpt>
      <trkpt lat="47.3265" lon="-1.64367">
        <ele>75</ele>
        <time>2021-08-28T10:41:06.000Z</time>
      </trkpt>
      <trkpt lat="47.3266" lon="-1.64364">
        <ele>76</ele>
        <time>2021-08-28T10:41:08.000Z</time>
      </trkpt>
      <trkpt lat="47.32669" lon="-1.64361">
        <ele>76</ele>
        <time>2021-08-28T10:41:10.000Z</time>
      </trkpt>
      <trkpt lat="47.32679" lon="-1.64358">
        <ele>77</ele>
        <time>2021-08-28T10:41:12.000Z</time>
      </trkpt>
      <trkpt lat="47.32688" lon="-1.64356">
        <ele>77</ele>
        <time>2021-08-28T10:41:14.000Z</time>
      </trkpt>
      <trkpt lat="47.32701" lon="-1.64353">
        <ele>77</ele>
        <time>2021-08-28T10:41:17.000Z</time>
      </trkpt>
      <trkpt lat="47.32714" lon="-1.64349">
        <ele>77</ele>
        <time>2021-08-28T10:41:20.000Z</time>
      </trkpt>
      <trkpt lat="47.32723" lon="-1.64347">
        <ele>78</ele>
        <time>2021-08-28T10:41:22.000Z</time>
      </trkpt>
      <trkpt lat="47.32736" lon="-1.64343">
        <ele>79</ele>
        <time>2021-08-28T10:41:25.000Z</time>
      </trkpt>
      <trkpt lat="47.3275" lon="-1.64339">
        <ele>80</ele>
        <time>2021-08-28T10:41:28.000Z</time>
      </trkpt>
      <trkpt lat="47.32759" lon="-1.64337">
        <ele>81</ele>
        <time>2021-08-28T10:41:30.000Z</time>
      </trkpt>
      <trkpt lat="47.32771" lon="-1.64335">
        <ele>82</ele>
        <time>2021-08-28T10:41:33.000Z</time>
      </trkpt>
      <trkpt lat="47.3278" lon="-1.64333">
        <ele>82</ele>
        <time>2021-08-28T10:41:35.000Z</time>
      </trkpt>
      <trkpt lat="47.3279" lon="-1.64333">
        <ele>82</ele>
        <time>2021-08-28T10:41:37.000Z</time>
      </trkpt>
      <trkpt lat="47.32799" lon="-1.64331">
        <ele>82</ele>
        <time>2021-08-28T10:41:39.000Z</time>
      </trkpt>
      <trkpt lat="47.32808" lon="-1.64329">
        <ele>83</ele>
        <time>2021-08-28T10:41:41.000Z</time>
      </trkpt>
      <trkpt lat="47.32821" lon="-1.64328">
        <ele>83</ele>
        <time>2021-08-28T10:41:44.000Z</time>
      </trkpt>
      <trkpt lat="47.32834" lon="-1.64326">
        <ele>83</ele>
        <time>2021-08-28T10:41:47.000Z</time>
      </trkpt>
      <trkpt lat="47.32847" lon="-1.64324">
        <ele>84</ele>
        <time>2021-08-28T10:41:50.000Z</time>
      </trkpt>
      <trkpt lat="47.3286" lon="-1.64321">
        <ele>84</ele>
        <time>2021-08-28T10:41:53.000Z</time>
      </trkpt>
      <trkpt lat="47.32873" lon="-1.64319">
        <ele>84</ele>
        <time>2021-08-28T10:41:56.000Z</time>
      </trkpt>
      <trkpt lat="47.32885" lon="-1.64316">
        <ele>86</ele>
        <time>2021-08-28T10:41:59.000Z</time>
      </trkpt>
      <trkpt lat="47.32899" lon="-1.64313">
        <ele>87</ele>
        <time>2021-08-28T10:42:02.000Z</time>
      </trkpt>
      <trkpt lat="47.32908" lon="-1.64312">
        <ele>87</ele>
        <time>2021-08-28T10:42:04.000Z</time>
      </trkpt>
      <trkpt lat="47.32917" lon="-1.6431">
        <ele>87</ele>
        <time>2021-08-28T10:42:06.000Z</time>
      </trkpt>
      <trkpt lat="47.32931" lon="-1.64309">
        <ele>88</ele>
        <time>2021-08-28T10:42:09.000Z</time>
      </trkpt>
      <trkpt lat="47.3294" lon="-1.64307">
        <ele>89</ele>
        <time>2021-08-28T10:42:11.000Z</time>
      </trkpt>
      <trkpt lat="47.32949" lon="-1.64308">
        <ele>90</ele>
        <time>2021-08-28T10:42:13.000Z</time>
      </trkpt>
      <trkpt lat="47.32962" lon="-1.64308">
        <ele>90</ele>
        <time>2021-08-28T10:42:16.000Z</time>
      </trkpt>
      <trkpt lat="47.32972" lon="-1.64309">
        <ele>90</ele>
        <time>2021-08-28T10:42:18.000Z</time>
      </trkpt>
      <trkpt lat="47.32984" lon="-1.6431">
        <ele>91</ele>
        <time>2021-08-28T10:42:21.000Z</time>
      </trkpt>
      <trkpt lat="47.32997" lon="-1.64313">
        <ele>92</ele>
        <time>2021-08-28T10:42:24.000Z</time>
      </trkpt>
      <trkpt lat="47.33009" lon="-1.64316">
        <ele>93</ele>
        <time>2021-08-28T10:42:27.000Z</time>
      </trkpt>
      <trkpt lat="47.3302" lon="-1.6432">
        <ele>94</ele>
        <time>2021-08-28T10:42:30.000Z</time>
      </trkpt>
      <trkpt lat="47.33031" lon="-1.64322">
        <ele>94</ele>
        <time>2021-08-28T10:42:33.000Z</time>
      </trkpt>
      <trkpt lat="47.33042" lon="-1.64326">
        <ele>94</ele>
        <time>2021-08-28T10:42:36.000Z</time>
      </trkpt>
      <trkpt lat="47.33053" lon="-1.64331">
        <ele>95</ele>
        <time>2021-08-28T10:42:39.000Z</time>
      </trkpt>
      <trkpt lat="47.33063" lon="-1.64335">
        <ele>96</ele>
        <time>2021-08-28T10:42:42.000Z</time>
      </trkpt>
      <trkpt lat="47.33074" lon="-1.64339">
        <ele>97</ele>
        <time>2021-08-28T10:42:45.000Z</time>
      </trkpt>
      <trkpt lat="47.33086" lon="-1.64343">
        <ele>97</ele>
        <time>2021-08-28T10:42:48.000Z</time>
      </trkpt>
      <trkpt lat="47.33096" lon="-1.64346">
        <ele>98</ele>
        <time>2021-08-28T10:42:51.000Z</time>
      </trkpt>
      <trkpt lat="47.33105" lon="-1.64348">
        <ele>98</ele>
        <time>2021-08-28T10:42:56.000Z</time>
      </trkpt>
      <trkpt lat="47.33117" lon="-1.64346">
        <ele>99</ele>
        <time>2021-08-28T10:43:10.000Z</time>
      </trkpt>
      <trkpt lat="47.33126" lon="-1.64344">
        <ele>100</ele>
        <time>2021-08-28T10:43:12.000Z</time>
      </trkpt>
      <trkpt lat="47.33135" lon="-1.64342">
        <ele>100</ele>
        <time>2021-08-28T10:43:14.000Z</time>
      </trkpt>
      <trkpt lat="47.33148" lon="-1.64339">
        <ele>100</ele>
        <time>2021-08-28T10:43:17.000Z</time>
      </trkpt>
      <trkpt lat="47.33157" lon="-1.64336">
        <ele>101</ele>
        <time>2021-08-28T10:43:19.000Z</time>
      </trkpt>
      <trkpt lat="47.3317" lon="-1.64333">
        <ele>102</ele>
        <time>2021-08-28T10:43:22.000Z</time>
      </trkpt>
      <trkpt lat="47.33183" lon="-1.64328">
        <ele>103</ele>
        <time>2021-08-28T10:43:25.000Z</time>
      </trkpt>
      <trkpt lat="47.33196" lon="-1.64324">
        <ele>103</ele>
        <time>2021-08-28T10:43:28.000Z</time>
      </trkpt>
      <trkpt lat="47.33206" lon="-1.64321">
        <ele>103</ele>
        <time>2021-08-28T10:43:30.000Z</time>
      </trkpt>
      <trkpt lat="47.33214" lon="-1.64319">
        <ele>104</ele>
        <time>2021-08-28T10:43:32.000Z</time>
      </trkpt>
      <trkpt lat="47.33227" lon="-1.64315">
        <ele>104</ele>
        <time>2021-08-28T10:43:35.000Z</time>
      </trkpt>
      <trkpt lat="47.33237" lon="-1.64312">
        <ele>105</ele>
        <time>2021-08-28T10:43:37.000Z</time>
      </trkpt>
      <trkpt lat="47.33245" lon="-1.64308">
        <ele>106</ele>
        <time>2021-08-28T10:43:39.000Z</time>
      </trkpt>
      <trkpt lat="47.33254" lon="-1.64302">
        <ele>106</ele>
        <time>2021-08-28T10:43:41.000Z</time>
      </trkpt>
      <trkpt lat="47.33262" lon="-1.64295">
        <ele>106</ele>
        <time>2021-08-28T10:43:43.000Z</time>
      </trkpt>
      <trkpt lat="47.33269" lon="-1.64287">
        <ele>106</ele>
        <time>2021-08-28T10:43:45.000Z</time>
      </trkpt>
      <trkpt lat="47.33277" lon="-1.64278">
        <ele>106</ele>
        <time>2021-08-28T10:43:47.000Z</time>
      </trkpt>
      <trkpt lat="47.33285" lon="-1.64269">
        <ele>107</ele>
        <time>2021-08-28T10:43:49.000Z</time>
      </trkpt>
      <trkpt lat="47.33293" lon="-1.64259">
        <ele>107</ele>
        <time>2021-08-28T10:43:51.000Z</time>
      </trkpt>
      <trkpt lat="47.33301" lon="-1.64249">
        <ele>107</ele>
        <time>2021-08-28T10:43:53.000Z</time>
      </trkpt>
      <trkpt lat="47.33309" lon="-1.64239">
        <ele>108</ele>
        <time>2021-08-28T10:43:55.000Z</time>
      </trkpt>
      <trkpt lat="47.33318" lon="-1.64229">
        <ele>108</ele>
        <time>2021-08-28T10:43:57.000Z</time>
      </trkpt>
      <trkpt lat="47.33327" lon="-1.64219">
        <ele>108</ele>
        <time>2021-08-28T10:43:59.000Z</time>
      </trkpt>
      <trkpt lat="47.33336" lon="-1.64207">
        <ele>108</ele>
        <time>2021-08-28T10:44:01.000Z</time>
      </trkpt>
      <trkpt lat="47.33346" lon="-1.64197">
        <ele>108</ele>
        <time>2021-08-28T10:44:03.000Z</time>
      </trkpt>
      <trkpt lat="47.33355" lon="-1.64185">
        <ele>108</ele>
        <time>2021-08-28T10:44:05.000Z</time>
      </trkpt>
      <trkpt lat="47.33364" lon="-1.64175">
        <ele>109</ele>
        <time>2021-08-28T10:44:07.000Z</time>
      </trkpt>
      <trkpt lat="47.33373" lon="-1.64164">
        <ele>109</ele>
        <time>2021-08-28T10:44:09.000Z</time>
      </trkpt>
      <trkpt lat="47.33382" lon="-1.64154">
        <ele>109</ele>
        <time>2021-08-28T10:44:11.000Z</time>
      </trkpt>
      <trkpt lat="47.33391" lon="-1.64144">
        <ele>108</ele>
        <time>2021-08-28T10:44:13.000Z</time>
      </trkpt>
      <trkpt lat="47.334" lon="-1.64133">
        <ele>109</ele>
        <time>2021-08-28T10:44:15.000Z</time>
      </trkpt>
      <trkpt lat="47.3341" lon="-1.64122">
        <ele>109</ele>
        <time>2021-08-28T10:44:17.000Z</time>
      </trkpt>
      <trkpt lat="47.33419" lon="-1.64111">
        <ele>109</ele>
        <time>2021-08-28T10:44:19.000Z</time>
      </trkpt>
      <trkpt lat="47.33429" lon="-1.641">
        <ele>109</ele>
        <time>2021-08-28T10:44:21.000Z</time>
      </trkpt>
      <trkpt lat="47.33438" lon="-1.64089">
        <ele>109</ele>
        <time>2021-08-28T10:44:23.000Z</time>
      </trkpt>
      <trkpt lat="47.33447" lon="-1.64079">
        <ele>108</ele>
        <time>2021-08-28T10:44:25.000Z</time>
      </trkpt>
      <trkpt lat="47.33456" lon="-1.64069">
        <ele>108</ele>
        <time>2021-08-28T10:44:27.000Z</time>
      </trkpt>
      <trkpt lat="47.33465" lon="-1.64058">
        <ele>108</ele>
        <time>2021-08-28T10:44:29.000Z</time>
      </trkpt>
      <trkpt lat="47.33474" lon="-1.64047">
        <ele>108</ele>
        <time>2021-08-28T10:44:31.000Z</time>
      </trkpt>
      <trkpt lat="47.33483" lon="-1.64037">
        <ele>108</ele>
        <time>2021-08-28T10:44:33.000Z</time>
      </trkpt>
      <trkpt lat="47.33493" lon="-1.64026">
        <ele>108</ele>
        <time>2021-08-28T10:44:35.000Z</time>
      </trkpt>
      <trkpt lat="47.33502" lon="-1.64014">
        <ele>108</ele>
        <time>2021-08-28T10:44:37.000Z</time>
      </trkpt>
      <trkpt lat="47.33511" lon="-1.64003">
        <ele>108</ele>
        <time>2021-08-28T10:44:39.000Z</time>
      </trkpt>
      <trkpt lat="47.33521" lon="-1.63992">
        <ele>108</ele>
        <time>2021-08-28T10:44:41.000Z</time>
      </trkpt>
      <trkpt lat="47.3353" lon="-1.63981">
        <ele>108</ele>
        <time>2021-08-28T10:44:43.000Z</time>
      </trkpt>
      <trkpt lat="47.3354" lon="-1.6397">
        <ele>108</ele>
        <time>2021-08-28T10:44:45.000Z</time>
      </trkpt>
      <trkpt lat="47.33549" lon="-1.6396">
        <ele>108</ele>
        <time>2021-08-28T10:44:47.000Z</time>
      </trkpt>
      <trkpt lat="47.33558" lon="-1.63948">
        <ele>108</ele>
        <time>2021-08-28T10:44:49.000Z</time>
      </trkpt>
      <trkpt lat="47.33568" lon="-1.63937">
        <ele>108</ele>
        <time>2021-08-28T10:44:51.000Z</time>
      </trkpt>
      <trkpt lat="47.33577" lon="-1.63927">
        <ele>108</ele>
        <time>2021-08-28T10:44:53.000Z</time>
      </trkpt>
      <trkpt lat="47.33587" lon="-1.63915">
        <ele>108</ele>
        <time>2021-08-28T10:44:55.000Z</time>
      </trkpt>
      <trkpt lat="47.33596" lon="-1.63903">
        <ele>109</ele>
        <time>2021-08-28T10:44:57.000Z</time>
      </trkpt>
      <trkpt lat="47.33606" lon="-1.63892">
        <ele>109</ele>
        <time>2021-08-28T10:44:59.000Z</time>
      </trkpt>
      <trkpt lat="47.33615" lon="-1.63881">
        <ele>109</ele>
        <time>2021-08-28T10:45:01.000Z</time>
      </trkpt>
      <trkpt lat="47.33625" lon="-1.6387">
        <ele>109</ele>
        <time>2021-08-28T10:45:03.000Z</time>
      </trkpt>
      <trkpt lat="47.33634" lon="-1.63859">
        <ele>109</ele>
        <time>2021-08-28T10:45:05.000Z</time>
      </trkpt>
      <trkpt lat="47.33644" lon="-1.63848">
        <ele>108</ele>
        <time>2021-08-28T10:45:07.000Z</time>
      </trkpt>
      <trkpt lat="47.33654" lon="-1.63836">
        <ele>108</ele>
        <time>2021-08-28T10:45:09.000Z</time>
      </trkpt>
      <trkpt lat="47.33664" lon="-1.63824">
        <ele>108</ele>
        <time>2021-08-28T10:45:11.000Z</time>
      </trkpt>
      <trkpt lat="47.33673" lon="-1.63812">
        <ele>108</ele>
        <time>2021-08-28T10:45:13.000Z</time>
      </trkpt>
      <trkpt lat="47.33683" lon="-1.638">
        <ele>108</ele>
        <time>2021-08-28T10:45:15.000Z</time>
      </trkpt>
      <trkpt lat="47.33693" lon="-1.63789">
        <ele>108</ele>
        <time>2021-08-28T10:45:17.000Z</time>
      </trkpt>
      <trkpt lat="47.33703" lon="-1.63778">
        <ele>108</ele>
        <time>2021-08-28T10:45:19.000Z</time>
      </trkpt>
      <trkpt lat="47.33712" lon="-1.63766">
        <ele>108</ele>
        <time>2021-08-28T10:45:21.000Z</time>
      </trkpt>
      <trkpt lat="47.33722" lon="-1.63756">
        <ele>108</ele>
        <time>2021-08-28T10:45:23.000Z</time>
      </trkpt>
      <trkpt lat="47.33731" lon="-1.63744">
        <ele>108</ele>
        <time>2021-08-28T10:45:25.000Z</time>
      </trkpt>
      <trkpt lat="47.3374" lon="-1.63734">
        <ele>107</ele>
        <time>2021-08-28T10:45:27.000Z</time>
      </trkpt>
      <trkpt lat="47.3375" lon="-1.63722">
        <ele>107</ele>
        <time>2021-08-28T10:45:29.000Z</time>
      </trkpt>
      <trkpt lat="47.3376" lon="-1.63711">
        <ele>107</ele>
        <time>2021-08-28T10:45:31.000Z</time>
      </trkpt>
      <trkpt lat="47.3377" lon="-1.63699">
        <ele>107</ele>
        <time>2021-08-28T10:45:33.000Z</time>
      </trkpt>
      <trkpt lat="47.33779" lon="-1.63688">
        <ele>107</ele>
        <time>2021-08-28T10:45:35.000Z</time>
      </trkpt>
      <trkpt lat="47.33789" lon="-1.63677">
        <ele>107</ele>
        <time>2021-08-28T10:45:37.000Z</time>
      </trkpt>
      <trkpt lat="47.33799" lon="-1.63665">
        <ele>107</ele>
        <time>2021-08-28T10:45:39.000Z</time>
      </trkpt>
      <trkpt lat="47.33809" lon="-1.63653">
        <ele>107</ele>
        <time>2021-08-28T10:45:41.000Z</time>
      </trkpt>
      <trkpt lat="47.33819" lon="-1.63642">
        <ele>107</ele>
        <time>2021-08-28T10:45:43.000Z</time>
      </trkpt>
      <trkpt lat="47.33828" lon="-1.63631">
        <ele>107</ele>
        <time>2021-08-28T10:45:45.000Z</time>
      </trkpt>
      <trkpt lat="47.33837" lon="-1.63622">
        <ele>107</ele>
        <time>2021-08-28T10:45:47.000Z</time>
      </trkpt>
      <trkpt lat="47.33844" lon="-1.63613">
        <ele>107</ele>
        <time>2021-08-28T10:45:49.000Z</time>
      </trkpt>
      <trkpt lat="47.33852" lon="-1.63604">
        <ele>107</ele>
        <time>2021-08-28T10:45:51.000Z</time>
      </trkpt>
      <trkpt lat="47.33862" lon="-1.63594">
        <ele>107</ele>
        <time>2021-08-28T10:45:54.000Z</time>
      </trkpt>
      <trkpt lat="47.33872" lon="-1.6358">
        <ele>107</ele>
        <time>2021-08-28T10:45:57.000Z</time>
      </trkpt>
      <trkpt lat="47.33882" lon="-1.63569">
        <ele>107</ele>
        <time>2021-08-28T10:45:59.000Z</time>
      </trkpt>
      <trkpt lat="47.33893" lon="-1.63557">
        <ele>107</ele>
        <time>2021-08-28T10:46:01.000Z</time>
      </trkpt>
      <trkpt lat="47.33903" lon="-1.63546">
        <ele>107</ele>
        <time>2021-08-28T10:46:03.000Z</time>
      </trkpt>
      <trkpt lat="47.33913" lon="-1.63534">
        <ele>107</ele>
        <time>2021-08-28T10:46:05.000Z</time>
      </trkpt>
      <trkpt lat="47.33923" lon="-1.63524">
        <ele>108</ele>
        <time>2021-08-28T10:46:07.000Z</time>
      </trkpt>
      <trkpt lat="47.33934" lon="-1.63515">
        <ele>108</ele>
        <time>2021-08-28T10:46:09.000Z</time>
      </trkpt>
      <trkpt lat="47.33945" lon="-1.63507">
        <ele>108</ele>
        <time>2021-08-28T10:46:11.000Z</time>
      </trkpt>
      <trkpt lat="47.33956" lon="-1.635">
        <ele>108</ele>
        <time>2021-08-28T10:46:13.000Z</time>
      </trkpt>
      <trkpt lat="47.33973" lon="-1.6349">
        <ele>109</ele>
        <time>2021-08-28T10:46:16.000Z</time>
      </trkpt>
      <trkpt lat="47.33985" lon="-1.63483">
        <ele>109</ele>
        <time>2021-08-28T10:46:18.000Z</time>
      </trkpt>
      <trkpt lat="47.33995" lon="-1.63477">
        <ele>109</ele>
        <time>2021-08-28T10:46:20.000Z</time>
      </trkpt>
      <trkpt lat="47.34007" lon="-1.6347">
        <ele>108</ele>
        <time>2021-08-28T10:46:22.000Z</time>
      </trkpt>
      <trkpt lat="47.3402" lon="-1.63463">
        <ele>107</ele>
        <time>2021-08-28T10:46:24.000Z</time>
      </trkpt>
      <trkpt lat="47.34031" lon="-1.63456">
        <ele>108</ele>
        <time>2021-08-28T10:46:26.000Z</time>
      </trkpt>
      <trkpt lat="47.34043" lon="-1.6345">
        <ele>108</ele>
        <time>2021-08-28T10:46:28.000Z</time>
      </trkpt>
      <trkpt lat="47.34055" lon="-1.63443">
        <ele>108</ele>
        <time>2021-08-28T10:46:30.000Z</time>
      </trkpt>
      <trkpt lat="47.34067" lon="-1.63437">
        <ele>108</ele>
        <time>2021-08-28T10:46:32.000Z</time>
      </trkpt>
      <trkpt lat="47.34079" lon="-1.6343">
        <ele>108</ele>
        <time>2021-08-28T10:46:34.000Z</time>
      </trkpt>
      <trkpt lat="47.3409" lon="-1.63423">
        <ele>109</ele>
        <time>2021-08-28T10:46:36.000Z</time>
      </trkpt>
      <trkpt lat="47.34102" lon="-1.63416">
        <ele>109</ele>
        <time>2021-08-28T10:46:38.000Z</time>
      </trkpt>
      <trkpt lat="47.34114" lon="-1.63409">
        <ele>109</ele>
        <time>2021-08-28T10:46:40.000Z</time>
      </trkpt>
      <trkpt lat="47.34126" lon="-1.63401">
        <ele>109</ele>
        <time>2021-08-28T10:46:42.000Z</time>
      </trkpt>
      <trkpt lat="47.34137" lon="-1.63393">
        <ele>109</ele>
        <time>2021-08-28T10:46:44.000Z</time>
      </trkpt>
      <trkpt lat="47.34148" lon="-1.63385">
        <ele>109</ele>
        <time>2021-08-28T10:46:46.000Z</time>
      </trkpt>
      <trkpt lat="47.34166" lon="-1.6337">
        <ele>108</ele>
        <time>2021-08-28T10:46:49.000Z</time>
      </trkpt>
      <trkpt lat="47.34183" lon="-1.63354">
        <ele>108</ele>
        <time>2021-08-28T10:46:52.000Z</time>
      </trkpt>
      <trkpt lat="47.34193" lon="-1.63343">
        <ele>108</ele>
        <time>2021-08-28T10:46:54.000Z</time>
      </trkpt>
      <trkpt lat="47.34204" lon="-1.63332">
        <ele>108</ele>
        <time>2021-08-28T10:46:56.000Z</time>
      </trkpt>
      <trkpt lat="47.34215" lon="-1.63321">
        <ele>107</ele>
        <time>2021-08-28T10:46:58.000Z</time>
      </trkpt>
      <trkpt lat="47.34225" lon="-1.63309">
        <ele>107</ele>
        <time>2021-08-28T10:47:00.000Z</time>
      </trkpt>
      <trkpt lat="47.34238" lon="-1.63286">
        <ele>107</ele>
        <time>2021-08-28T10:47:03.000Z</time>
      </trkpt>
      <trkpt lat="47.34246" lon="-1.6327">
        <ele>106</ele>
        <time>2021-08-28T10:47:05.000Z</time>
      </trkpt>
      <trkpt lat="47.34255" lon="-1.63246">
        <ele>106</ele>
        <time>2021-08-28T10:47:08.000Z</time>
      </trkpt>
      <trkpt lat="47.34261" lon="-1.63229">
        <ele>106</ele>
        <time>2021-08-28T10:47:10.000Z</time>
      </trkpt>
      <trkpt lat="47.34267" lon="-1.63212">
        <ele>105</ele>
        <time>2021-08-28T10:47:12.000Z</time>
      </trkpt>
      <trkpt lat="47.34274" lon="-1.63195">
        <ele>105</ele>
        <time>2021-08-28T10:47:14.000Z</time>
      </trkpt>
      <trkpt lat="47.34282" lon="-1.63179">
        <ele>105</ele>
        <time>2021-08-28T10:47:16.000Z</time>
      </trkpt>
      <trkpt lat="47.34297" lon="-1.63159">
        <ele>104</ele>
        <time>2021-08-28T10:47:19.000Z</time>
      </trkpt>
      <trkpt lat="47.34307" lon="-1.63146">
        <ele>104</ele>
        <time>2021-08-28T10:47:21.000Z</time>
      </trkpt>
      <trkpt lat="47.34317" lon="-1.63133">
        <ele>103</ele>
        <time>2021-08-28T10:47:23.000Z</time>
      </trkpt>
      <trkpt lat="47.34328" lon="-1.63121">
        <ele>103</ele>
        <time>2021-08-28T10:47:25.000Z</time>
      </trkpt>
      <trkpt lat="47.34344" lon="-1.63103">
        <ele>103</ele>
        <time>2021-08-28T10:47:28.000Z</time>
      </trkpt>
      <trkpt lat="47.34356" lon="-1.63092">
        <ele>103</ele>
        <time>2021-08-28T10:47:30.000Z</time>
      </trkpt>
      <trkpt lat="47.34367" lon="-1.63081">
        <ele>103</ele>
        <time>2021-08-28T10:47:32.000Z</time>
      </trkpt>
      <trkpt lat="47.34379" lon="-1.63069">
        <ele>103</ele>
        <time>2021-08-28T10:47:34.000Z</time>
      </trkpt>
      <trkpt lat="47.3439" lon="-1.63058">
        <ele>103</ele>
        <time>2021-08-28T10:47:36.000Z</time>
      </trkpt>
      <trkpt lat="47.34401" lon="-1.63046">
        <ele>103</ele>
        <time>2021-08-28T10:47:38.000Z</time>
      </trkpt>
      <trkpt lat="47.34412" lon="-1.63035">
        <ele>103</ele>
        <time>2021-08-28T10:47:40.000Z</time>
      </trkpt>
      <trkpt lat="47.34423" lon="-1.63023">
        <ele>104</ele>
        <time>2021-08-28T10:47:42.000Z</time>
      </trkpt>
      <trkpt lat="47.34433" lon="-1.63013">
        <ele>104</ele>
        <time>2021-08-28T10:47:44.000Z</time>
      </trkpt>
      <trkpt lat="47.34443" lon="-1.63002">
        <ele>104</ele>
        <time>2021-08-28T10:47:46.000Z</time>
      </trkpt>
      <trkpt lat="47.34453" lon="-1.62991">
        <ele>103</ele>
        <time>2021-08-28T10:47:48.000Z</time>
      </trkpt>
      <trkpt lat="47.34464" lon="-1.6298">
        <ele>103</ele>
        <time>2021-08-28T10:47:50.000Z</time>
      </trkpt>
      <trkpt lat="47.34475" lon="-1.62969">
        <ele>103</ele>
        <time>2021-08-28T10:47:52.000Z</time>
      </trkpt>
      <trkpt lat="47.34485" lon="-1.62958">
        <ele>102</ele>
        <time>2021-08-28T10:47:54.000Z</time>
      </trkpt>
      <trkpt lat="47.34496" lon="-1.62947">
        <ele>103</ele>
        <time>2021-08-28T10:47:56.000Z</time>
      </trkpt>
      <trkpt lat="47.34506" lon="-1.62937">
        <ele>103</ele>
        <time>2021-08-28T10:47:58.000Z</time>
      </trkpt>
      <trkpt lat="47.34517" lon="-1.62925">
        <ele>103</ele>
        <time>2021-08-28T10:48:00.000Z</time>
      </trkpt>
      <trkpt lat="47.34527" lon="-1.62914">
        <ele>103</ele>
        <time>2021-08-28T10:48:02.000Z</time>
      </trkpt>
      <trkpt lat="47.34538" lon="-1.62904">
        <ele>103</ele>
        <time>2021-08-28T10:48:04.000Z</time>
      </trkpt>
      <trkpt lat="47.34549" lon="-1.62893">
        <ele>103</ele>
        <time>2021-08-28T10:48:06.000Z</time>
      </trkpt>
      <trkpt lat="47.34559" lon="-1.62882">
        <ele>103</ele>
        <time>2021-08-28T10:48:08.000Z</time>
      </trkpt>
      <trkpt lat="47.34569" lon="-1.62872">
        <ele>103</ele>
        <time>2021-08-28T10:48:10.000Z</time>
      </trkpt>
      <trkpt lat="47.3458" lon="-1.62861">
        <ele>103</ele>
        <time>2021-08-28T10:48:12.000Z</time>
      </trkpt>
      <trkpt lat="47.34589" lon="-1.62849">
        <ele>102</ele>
        <time>2021-08-28T10:48:14.000Z</time>
      </trkpt>
      <trkpt lat="47.34599" lon="-1.62838">
        <ele>103</ele>
        <time>2021-08-28T10:48:16.000Z</time>
      </trkpt>
      <trkpt lat="47.34608" lon="-1.62827">
        <ele>103</ele>
        <time>2021-08-28T10:48:18.000Z</time>
      </trkpt>
      <trkpt lat="47.34617" lon="-1.62815">
        <ele>103</ele>
        <time>2021-08-28T10:48:20.000Z</time>
      </trkpt>
      <trkpt lat="47.34626" lon="-1.62803">
        <ele>102</ele>
        <time>2021-08-28T10:48:22.000Z</time>
      </trkpt>
      <trkpt lat="47.34635" lon="-1.6279">
        <ele>103</ele>
        <time>2021-08-28T10:48:24.000Z</time>
      </trkpt>
      <trkpt lat="47.34644" lon="-1.62777">
        <ele>103</ele>
        <time>2021-08-28T10:48:26.000Z</time>
      </trkpt>
      <trkpt lat="47.34653" lon="-1.62764">
        <ele>103</ele>
        <time>2021-08-28T10:48:28.000Z</time>
      </trkpt>
      <trkpt lat="47.34662" lon="-1.6275">
        <ele>103</ele>
        <time>2021-08-28T10:48:30.000Z</time>
      </trkpt>
      <trkpt lat="47.34669" lon="-1.62735">
        <ele>102</ele>
        <time>2021-08-28T10:48:32.000Z</time>
      </trkpt>
      <trkpt lat="47.34676" lon="-1.6272">
        <ele>102</ele>
        <time>2021-08-28T10:48:34.000Z</time>
      </trkpt>
      <trkpt lat="47.34682" lon="-1.62704">
        <ele>102</ele>
        <time>2021-08-28T10:48:36.000Z</time>
      </trkpt>
      <trkpt lat="47.34689" lon="-1.62688">
        <ele>101</ele>
        <time>2021-08-28T10:48:38.000Z</time>
      </trkpt>
      <trkpt lat="47.34695" lon="-1.62673">
        <ele>101</ele>
        <time>2021-08-28T10:48:40.000Z</time>
      </trkpt>
      <trkpt lat="47.34701" lon="-1.62658">
        <ele>101</ele>
        <time>2021-08-28T10:48:42.000Z</time>
      </trkpt>
      <trkpt lat="47.34707" lon="-1.62643">
        <ele>101</ele>
        <time>2021-08-28T10:48:44.000Z</time>
      </trkpt>
      <trkpt lat="47.34713" lon="-1.62627">
        <ele>101</ele>
        <time>2021-08-28T10:48:46.000Z</time>
      </trkpt>
      <trkpt lat="47.34719" lon="-1.62614">
        <ele>101</ele>
        <time>2021-08-28T10:48:48.000Z</time>
      </trkpt>
      <trkpt lat="47.34724" lon="-1.62601">
        <ele>101</ele>
        <time>2021-08-28T10:48:50.000Z</time>
      </trkpt>
      <trkpt lat="47.34726" lon="-1.62587">
        <ele>101</ele>
        <time>2021-08-28T10:48:54.000Z</time>
      </trkpt>
      <trkpt lat="47.34732" lon="-1.62572">
        <ele>101</ele>
        <time>2021-08-28T10:49:02.000Z</time>
      </trkpt>
      <trkpt lat="47.34739" lon="-1.6256">
        <ele>101</ele>
        <time>2021-08-28T10:49:04.000Z</time>
      </trkpt>
      <trkpt lat="47.34746" lon="-1.62546">
        <ele>101</ele>
        <time>2021-08-28T10:49:06.000Z</time>
      </trkpt>
      <trkpt lat="47.34753" lon="-1.62528">
        <ele>101</ele>
        <time>2021-08-28T10:49:08.000Z</time>
      </trkpt>
      <trkpt lat="47.3476" lon="-1.62512">
        <ele>100</ele>
        <time>2021-08-28T10:49:10.000Z</time>
      </trkpt>
      <trkpt lat="47.34766" lon="-1.62497">
        <ele>100</ele>
        <time>2021-08-28T10:49:12.000Z</time>
      </trkpt>
      <trkpt lat="47.34774" lon="-1.62482">
        <ele>100</ele>
        <time>2021-08-28T10:49:14.000Z</time>
      </trkpt>
      <trkpt lat="47.34781" lon="-1.62467">
        <ele>99</ele>
        <time>2021-08-28T10:49:16.000Z</time>
      </trkpt>
      <trkpt lat="47.34789" lon="-1.62451">
        <ele>100</ele>
        <time>2021-08-28T10:49:18.000Z</time>
      </trkpt>
      <trkpt lat="47.34798" lon="-1.62437">
        <ele>100</ele>
        <time>2021-08-28T10:49:20.000Z</time>
      </trkpt>
      <trkpt lat="47.34806" lon="-1.62422">
        <ele>99</ele>
        <time>2021-08-28T10:49:22.000Z</time>
      </trkpt>
      <trkpt lat="47.34815" lon="-1.62408">
        <ele>99</ele>
        <time>2021-08-28T10:49:24.000Z</time>
      </trkpt>
      <trkpt lat="47.34824" lon="-1.62394">
        <ele>99</ele>
        <time>2021-08-28T10:49:26.000Z</time>
      </trkpt>
      <trkpt lat="47.34833" lon="-1.6238">
        <ele>99</ele>
        <time>2021-08-28T10:49:28.000Z</time>
      </trkpt>
      <trkpt lat="47.34842" lon="-1.62365">
        <ele>100</ele>
        <time>2021-08-28T10:49:30.000Z</time>
      </trkpt>
      <trkpt lat="47.34852" lon="-1.62351">
        <ele>100</ele>
        <time>2021-08-28T10:49:32.000Z</time>
      </trkpt>
      <trkpt lat="47.34861" lon="-1.62337">
        <ele>100</ele>
        <time>2021-08-28T10:49:34.000Z</time>
      </trkpt>
      <trkpt lat="47.34869" lon="-1.62324">
        <ele>100</ele>
        <time>2021-08-28T10:49:36.000Z</time>
      </trkpt>
      <trkpt lat="47.34877" lon="-1.6231">
        <ele>100</ele>
        <time>2021-08-28T10:49:38.000Z</time>
      </trkpt>
      <trkpt lat="47.34886" lon="-1.62297">
        <ele>99</ele>
        <time>2021-08-28T10:49:40.000Z</time>
      </trkpt>
      <trkpt lat="47.34894" lon="-1.62283">
        <ele>100</ele>
        <time>2021-08-28T10:49:42.000Z</time>
      </trkpt>
      <trkpt lat="47.34903" lon="-1.6227">
        <ele>99</ele>
        <time>2021-08-28T10:49:44.000Z</time>
      </trkpt>
      <trkpt lat="47.34912" lon="-1.62257">
        <ele>99</ele>
        <time>2021-08-28T10:49:46.000Z</time>
      </trkpt>
      <trkpt lat="47.34922" lon="-1.62245">
        <ele>100</ele>
        <time>2021-08-28T10:49:48.000Z</time>
      </trkpt>
      <trkpt lat="47.34933" lon="-1.62234">
        <ele>100</ele>
        <time>2021-08-28T10:49:50.000Z</time>
      </trkpt>
      <trkpt lat="47.34945" lon="-1.62227">
        <ele>100</ele>
        <time>2021-08-28T10:49:52.000Z</time>
      </trkpt>
      <trkpt lat="47.34957" lon="-1.6222">
        <ele>100</ele>
        <time>2021-08-28T10:49:54.000Z</time>
      </trkpt>
      <trkpt lat="47.34969" lon="-1.62215">
        <ele>100</ele>
        <time>2021-08-28T10:49:56.000Z</time>
      </trkpt>
      <trkpt lat="47.3498" lon="-1.62209">
        <ele>99</ele>
        <time>2021-08-28T10:49:58.000Z</time>
      </trkpt>
      <trkpt lat="47.34992" lon="-1.62201">
        <ele>99</ele>
        <time>2021-08-28T10:50:00.000Z</time>
      </trkpt>
      <trkpt lat="47.35004" lon="-1.62193">
        <ele>98</ele>
        <time>2021-08-28T10:50:02.000Z</time>
      </trkpt>
      <trkpt lat="47.35014" lon="-1.62181">
        <ele>98</ele>
        <time>2021-08-28T10:50:04.000Z</time>
      </trkpt>
      <trkpt lat="47.35025" lon="-1.62168">
        <ele>98</ele>
        <time>2021-08-28T10:50:06.000Z</time>
      </trkpt>
      <trkpt lat="47.35035" lon="-1.62153">
        <ele>97</ele>
        <time>2021-08-28T10:50:08.000Z</time>
      </trkpt>
      <trkpt lat="47.35045" lon="-1.62139">
        <ele>97</ele>
        <time>2021-08-28T10:50:10.000Z</time>
      </trkpt>
      <trkpt lat="47.35055" lon="-1.62126">
        <ele>97</ele>
        <time>2021-08-28T10:50:12.000Z</time>
      </trkpt>
      <trkpt lat="47.35065" lon="-1.62112">
        <ele>96</ele>
        <time>2021-08-28T10:50:14.000Z</time>
      </trkpt>
      <trkpt lat="47.35076" lon="-1.62098">
        <ele>96</ele>
        <time>2021-08-28T10:50:16.000Z</time>
      </trkpt>
      <trkpt lat="47.35087" lon="-1.62084">
        <ele>96</ele>
        <time>2021-08-28T10:50:18.000Z</time>
      </trkpt>
      <trkpt lat="47.35098" lon="-1.6207">
        <ele>96</ele>
        <time>2021-08-28T10:50:20.000Z</time>
      </trkpt>
      <trkpt lat="47.35109" lon="-1.62056">
        <ele>95</ele>
        <time>2021-08-28T10:50:22.000Z</time>
      </trkpt>
      <trkpt lat="47.3512" lon="-1.62042">
        <ele>95</ele>
        <time>2021-08-28T10:50:24.000Z</time>
      </trkpt>
      <trkpt lat="47.3513" lon="-1.62028">
        <ele>94</ele>
        <time>2021-08-28T10:50:26.000Z</time>
      </trkpt>
      <trkpt lat="47.35141" lon="-1.62014">
        <ele>94</ele>
        <time>2021-08-28T10:50:28.000Z</time>
      </trkpt>
      <trkpt lat="47.35152" lon="-1.62">
        <ele>94</ele>
        <time>2021-08-28T10:50:30.000Z</time>
      </trkpt>
      <trkpt lat="47.35162" lon="-1.61986">
        <ele>94</ele>
        <time>2021-08-28T10:50:32.000Z</time>
      </trkpt>
      <trkpt lat="47.35173" lon="-1.61973">
        <ele>93</ele>
        <time>2021-08-28T10:50:34.000Z</time>
      </trkpt>
      <trkpt lat="47.35183" lon="-1.61959">
        <ele>93</ele>
        <time>2021-08-28T10:50:36.000Z</time>
      </trkpt>
      <trkpt lat="47.35193" lon="-1.61946">
        <ele>93</ele>
        <time>2021-08-28T10:50:38.000Z</time>
      </trkpt>
      <trkpt lat="47.35204" lon="-1.61933">
        <ele>93</ele>
        <time>2021-08-28T10:50:40.000Z</time>
      </trkpt>
      <trkpt lat="47.35214" lon="-1.6192">
        <ele>93</ele>
        <time>2021-08-28T10:50:42.000Z</time>
      </trkpt>
      <trkpt lat="47.35225" lon="-1.61907">
        <ele>92</ele>
        <time>2021-08-28T10:50:44.000Z</time>
      </trkpt>
      <trkpt lat="47.35236" lon="-1.61895">
        <ele>92</ele>
        <time>2021-08-28T10:50:46.000Z</time>
      </trkpt>
      <trkpt lat="47.35246" lon="-1.61882">
        <ele>92</ele>
        <time>2021-08-28T10:50:48.000Z</time>
      </trkpt>
      <trkpt lat="47.35257" lon="-1.61869">
        <ele>92</ele>
        <time>2021-08-28T10:50:50.000Z</time>
      </trkpt>
      <trkpt lat="47.35267" lon="-1.61857">
        <ele>92</ele>
        <time>2021-08-28T10:50:52.000Z</time>
      </trkpt>
      <trkpt lat="47.35278" lon="-1.61843">
        <ele>91</ele>
        <time>2021-08-28T10:50:54.000Z</time>
      </trkpt>
      <trkpt lat="47.3529" lon="-1.61831">
        <ele>91</ele>
        <time>2021-08-28T10:50:56.000Z</time>
      </trkpt>
      <trkpt lat="47.35301" lon="-1.61818">
        <ele>91</ele>
        <time>2021-08-28T10:50:58.000Z</time>
      </trkpt>
      <trkpt lat="47.35312" lon="-1.61805">
        <ele>91</ele>
        <time>2021-08-28T10:51:00.000Z</time>
      </trkpt>
      <trkpt lat="47.35323" lon="-1.61792">
        <ele>91</ele>
        <time>2021-08-28T10:51:02.000Z</time>
      </trkpt>
      <trkpt lat="47.35335" lon="-1.61781">
        <ele>91</ele>
        <time>2021-08-28T10:51:04.000Z</time>
      </trkpt>
      <trkpt lat="47.35346" lon="-1.61768">
        <ele>91</ele>
        <time>2021-08-28T10:51:06.000Z</time>
      </trkpt>
      <trkpt lat="47.35357" lon="-1.61756">
        <ele>91</ele>
        <time>2021-08-28T10:51:08.000Z</time>
      </trkpt>
      <trkpt lat="47.35369" lon="-1.61745">
        <ele>91</ele>
        <time>2021-08-28T10:51:10.000Z</time>
      </trkpt>
      <trkpt lat="47.3538" lon="-1.61735">
        <ele>91</ele>
        <time>2021-08-28T10:51:12.000Z</time>
      </trkpt>
      <trkpt lat="47.35392" lon="-1.61725">
        <ele>91</ele>
        <time>2021-08-28T10:51:14.000Z</time>
      </trkpt>
      <trkpt lat="47.35404" lon="-1.61715">
        <ele>91</ele>
        <time>2021-08-28T10:51:16.000Z</time>
      </trkpt>
      <trkpt lat="47.35415" lon="-1.61704">
        <ele>91</ele>
        <time>2021-08-28T10:51:18.000Z</time>
      </trkpt>
      <trkpt lat="47.35427" lon="-1.61694">
        <ele>91</ele>
        <time>2021-08-28T10:51:20.000Z</time>
      </trkpt>
      <trkpt lat="47.35438" lon="-1.61684">
        <ele>91</ele>
        <time>2021-08-28T10:51:22.000Z</time>
      </trkpt>
      <trkpt lat="47.3545" lon="-1.61675">
        <ele>91</ele>
        <time>2021-08-28T10:51:24.000Z</time>
      </trkpt>
      <trkpt lat="47.35462" lon="-1.61664">
        <ele>91</ele>
        <time>2021-08-28T10:51:26.000Z</time>
      </trkpt>
      <trkpt lat="47.35474" lon="-1.61654">
        <ele>90</ele>
        <time>2021-08-28T10:51:28.000Z</time>
      </trkpt>
      <trkpt lat="47.35484" lon="-1.61645">
        <ele>90</ele>
        <time>2021-08-28T10:51:30.000Z</time>
      </trkpt>
      <trkpt lat="47.35495" lon="-1.61636">
        <ele>90</ele>
        <time>2021-08-28T10:51:32.000Z</time>
      </trkpt>
      <trkpt lat="47.35504" lon="-1.61628">
        <ele>89</ele>
        <time>2021-08-28T10:51:34.000Z</time>
      </trkpt>
      <trkpt lat="47.3551" lon="-1.6161">
        <ele>89</ele>
        <time>2021-08-28T10:51:37.000Z</time>
      </trkpt>
      <trkpt lat="47.35507" lon="-1.61592">
        <ele>89</ele>
        <time>2021-08-28T10:51:39.000Z</time>
      </trkpt>
      <trkpt lat="47.35504" lon="-1.61573">
        <ele>89</ele>
        <time>2021-08-28T10:51:41.000Z</time>
      </trkpt>
      <trkpt lat="47.35501" lon="-1.61553">
        <ele>88</ele>
        <time>2021-08-28T10:51:43.000Z</time>
      </trkpt>
      <trkpt lat="47.35497" lon="-1.61533">
        <ele>88</ele>
        <time>2021-08-28T10:51:45.000Z</time>
      </trkpt>
      <trkpt lat="47.35494" lon="-1.61513">
        <ele>88</ele>
        <time>2021-08-28T10:51:47.000Z</time>
      </trkpt>
      <trkpt lat="47.35491" lon="-1.61493">
        <ele>88</ele>
        <time>2021-08-28T10:51:49.000Z</time>
      </trkpt>
      <trkpt lat="47.35489" lon="-1.61472">
        <ele>87</ele>
        <time>2021-08-28T10:51:51.000Z</time>
      </trkpt>
      <trkpt lat="47.35485" lon="-1.6145">
        <ele>87</ele>
        <time>2021-08-28T10:51:53.000Z</time>
      </trkpt>
      <trkpt lat="47.35482" lon="-1.61428">
        <ele>87</ele>
        <time>2021-08-28T10:51:55.000Z</time>
      </trkpt>
      <trkpt lat="47.35479" lon="-1.61407">
        <ele>86</ele>
        <time>2021-08-28T10:51:57.000Z</time>
      </trkpt>
      <trkpt lat="47.35474" lon="-1.61386">
        <ele>86</ele>
        <time>2021-08-28T10:51:59.000Z</time>
      </trkpt>
      <trkpt lat="47.3547" lon="-1.61365">
        <ele>85</ele>
        <time>2021-08-28T10:52:01.000Z</time>
      </trkpt>
      <trkpt lat="47.35465" lon="-1.61344">
        <ele>84</ele>
        <time>2021-08-28T10:52:03.000Z</time>
      </trkpt>
      <trkpt lat="47.35461" lon="-1.61322">
        <ele>84</ele>
        <time>2021-08-28T10:52:05.000Z</time>
      </trkpt>
      <trkpt lat="47.35456" lon="-1.61301">
        <ele>84</ele>
        <time>2021-08-28T10:52:07.000Z</time>
      </trkpt>
      <trkpt lat="47.35451" lon="-1.6128">
        <ele>84</ele>
        <time>2021-08-28T10:52:09.000Z</time>
      </trkpt>
      <trkpt lat="47.35446" lon="-1.6126">
        <ele>84</ele>
        <time>2021-08-28T10:52:11.000Z</time>
      </trkpt>
      <trkpt lat="47.35442" lon="-1.6124">
        <ele>83</ele>
        <time>2021-08-28T10:52:13.000Z</time>
      </trkpt>
      <trkpt lat="47.3544" lon="-1.6122">
        <ele>83</ele>
        <time>2021-08-28T10:52:15.000Z</time>
      </trkpt>
      <trkpt lat="47.35437" lon="-1.612">
        <ele>83</ele>
        <time>2021-08-28T10:52:17.000Z</time>
      </trkpt>
      <trkpt lat="47.35436" lon="-1.61179">
        <ele>82</ele>
        <time>2021-08-28T10:52:19.000Z</time>
      </trkpt>
      <trkpt lat="47.35435" lon="-1.61158">
        <ele>83</ele>
        <time>2021-08-28T10:52:21.000Z</time>
      </trkpt>
      <trkpt lat="47.35435" lon="-1.61137">
        <ele>83</ele>
        <time>2021-08-28T10:52:23.000Z</time>
      </trkpt>
      <trkpt lat="47.35435" lon="-1.61117">
        <ele>83</ele>
        <time>2021-08-28T10:52:25.000Z</time>
      </trkpt>
      <trkpt lat="47.35435" lon="-1.61097">
        <ele>83</ele>
        <time>2021-08-28T10:52:27.000Z</time>
      </trkpt>
      <trkpt lat="47.35435" lon="-1.61077">
        <ele>83</ele>
        <time>2021-08-28T10:52:29.000Z</time>
      </trkpt>
      <trkpt lat="47.35435" lon="-1.61058">
        <ele>83</ele>
        <time>2021-08-28T10:52:31.000Z</time>
      </trkpt>
      <trkpt lat="47.35435" lon="-1.61038">
        <ele>84</ele>
        <time>2021-08-28T10:52:33.000Z</time>
      </trkpt>
      <trkpt lat="47.35435" lon="-1.61018">
        <ele>84</ele>
        <time>2021-08-28T10:52:35.000Z</time>
      </trkpt>
      <trkpt lat="47.35436" lon="-1.60998">
        <ele>84</ele>
        <time>2021-08-28T10:52:37.000Z</time>
      </trkpt>
      <trkpt lat="47.35436" lon="-1.60978">
        <ele>83</ele>
        <time>2021-08-28T10:52:39.000Z</time>
      </trkpt>
      <trkpt lat="47.35437" lon="-1.60958">
        <ele>83</ele>
        <time>2021-08-28T10:52:41.000Z</time>
      </trkpt>
      <trkpt lat="47.35437" lon="-1.60939">
        <ele>83</ele>
        <time>2021-08-28T10:52:43.000Z</time>
      </trkpt>
      <trkpt lat="47.35437" lon="-1.6092">
        <ele>83</ele>
        <time>2021-08-28T10:52:45.000Z</time>
      </trkpt>
      <trkpt lat="47.35436" lon="-1.60901">
        <ele>83</ele>
        <time>2021-08-28T10:52:47.000Z</time>
      </trkpt>
      <trkpt lat="47.35434" lon="-1.60883">
        <ele>83</ele>
        <time>2021-08-28T10:52:49.000Z</time>
      </trkpt>
      <trkpt lat="47.35431" lon="-1.60866">
        <ele>83</ele>
        <time>2021-08-28T10:52:51.000Z</time>
      </trkpt>
      <trkpt lat="47.35428" lon="-1.6085">
        <ele>84</ele>
        <time>2021-08-28T10:52:53.000Z</time>
      </trkpt>
      <trkpt lat="47.35424" lon="-1.60832">
        <ele>84</ele>
        <time>2021-08-28T10:52:55.000Z</time>
      </trkpt>
      <trkpt lat="47.35421" lon="-1.60815">
        <ele>85</ele>
        <time>2021-08-28T10:52:57.000Z</time>
      </trkpt>
      <trkpt lat="47.35418" lon="-1.60799">
        <ele>86</ele>
        <time>2021-08-28T10:52:59.000Z</time>
      </trkpt>
      <trkpt lat="47.35415" lon="-1.60782">
        <ele>86</ele>
        <time>2021-08-28T10:53:01.000Z</time>
      </trkpt>
      <trkpt lat="47.35412" lon="-1.60766">
        <ele>87</ele>
        <time>2021-08-28T10:53:03.000Z</time>
      </trkpt>
      <trkpt lat="47.35409" lon="-1.60749">
        <ele>88</ele>
        <time>2021-08-28T10:53:05.000Z</time>
      </trkpt>
      <trkpt lat="47.35407" lon="-1.60732">
        <ele>88</ele>
        <time>2021-08-28T10:53:07.000Z</time>
      </trkpt>
      <trkpt lat="47.35406" lon="-1.60714">
        <ele>88</ele>
        <time>2021-08-28T10:53:09.000Z</time>
      </trkpt>
      <trkpt lat="47.35406" lon="-1.60696">
        <ele>88</ele>
        <time>2021-08-28T10:53:11.000Z</time>
      </trkpt>
      <trkpt lat="47.35406" lon="-1.60678">
        <ele>88</ele>
        <time>2021-08-28T10:53:13.000Z</time>
      </trkpt>
      <trkpt lat="47.35406" lon="-1.60662">
        <ele>89</ele>
        <time>2021-08-28T10:53:15.000Z</time>
      </trkpt>
      <trkpt lat="47.35406" lon="-1.60646">
        <ele>89</ele>
        <time>2021-08-28T10:53:17.000Z</time>
      </trkpt>
      <trkpt lat="47.35407" lon="-1.60629">
        <ele>89</ele>
        <time>2021-08-28T10:53:19.000Z</time>
      </trkpt>
      <trkpt lat="47.35408" lon="-1.60612">
        <ele>89</ele>
        <time>2021-08-28T10:53:21.000Z</time>
      </trkpt>
      <trkpt lat="47.35408" lon="-1.60595">
        <ele>89</ele>
        <time>2021-08-28T10:53:23.000Z</time>
      </trkpt>
      <trkpt lat="47.35408" lon="-1.60579">
        <ele>89</ele>
        <time>2021-08-28T10:53:25.000Z</time>
      </trkpt>
      <trkpt lat="47.35408" lon="-1.60563">
        <ele>89</ele>
        <time>2021-08-28T10:53:27.000Z</time>
      </trkpt>
      <trkpt lat="47.35409" lon="-1.60548">
        <ele>89</ele>
        <time>2021-08-28T10:53:29.000Z</time>
      </trkpt>
      <trkpt lat="47.3541" lon="-1.60534">
        <ele>89</ele>
        <time>2021-08-28T10:53:31.000Z</time>
      </trkpt>
      <trkpt lat="47.3541" lon="-1.60515">
        <ele>89</ele>
        <time>2021-08-28T10:53:34.000Z</time>
      </trkpt>
      <trkpt lat="47.3541" lon="-1.605">
        <ele>90</ele>
        <time>2021-08-28T10:53:42.000Z</time>
      </trkpt>
      <trkpt lat="47.3541" lon="-1.60486">
        <ele>90</ele>
        <time>2021-08-28T10:53:44.000Z</time>
      </trkpt>
      <trkpt lat="47.35411" lon="-1.60469">
        <ele>90</ele>
        <time>2021-08-28T10:53:46.000Z</time>
      </trkpt>
      <trkpt lat="47.35412" lon="-1.6045">
        <ele>90</ele>
        <time>2021-08-28T10:53:48.000Z</time>
      </trkpt>
      <trkpt lat="47.35412" lon="-1.60432">
        <ele>89</ele>
        <time>2021-08-28T10:53:50.000Z</time>
      </trkpt>
      <trkpt lat="47.35413" lon="-1.60414">
        <ele>89</ele>
        <time>2021-08-28T10:53:52.000Z</time>
      </trkpt>
      <trkpt lat="47.35413" lon="-1.60395">
        <ele>89</ele>
        <time>2021-08-28T10:53:54.000Z</time>
      </trkpt>
      <trkpt lat="47.35414" lon="-1.60377">
        <ele>89</ele>
        <time>2021-08-28T10:53:56.000Z</time>
      </trkpt>
      <trkpt lat="47.35414" lon="-1.6036">
        <ele>89</ele>
        <time>2021-08-28T10:53:58.000Z</time>
      </trkpt>
      <trkpt lat="47.35415" lon="-1.60343">
        <ele>89</ele>
        <time>2021-08-28T10:54:00.000Z</time>
      </trkpt>
      <trkpt lat="47.35416" lon="-1.60326">
        <ele>88</ele>
        <time>2021-08-28T10:54:02.000Z</time>
      </trkpt>
      <trkpt lat="47.35416" lon="-1.60309">
        <ele>89</ele>
        <time>2021-08-28T10:54:04.000Z</time>
      </trkpt>
      <trkpt lat="47.35417" lon="-1.60292">
        <ele>88</ele>
        <time>2021-08-28T10:54:06.000Z</time>
      </trkpt>
      <trkpt lat="47.35417" lon="-1.60275">
        <ele>89</ele>
        <time>2021-08-28T10:54:08.000Z</time>
      </trkpt>
      <trkpt lat="47.35418" lon="-1.60257">
        <ele>88</ele>
        <time>2021-08-28T10:54:10.000Z</time>
      </trkpt>
      <trkpt lat="47.35418" lon="-1.6024">
        <ele>89</ele>
        <time>2021-08-28T10:54:12.000Z</time>
      </trkpt>
      <trkpt lat="47.35419" lon="-1.60223">
        <ele>88</ele>
        <time>2021-08-28T10:54:14.000Z</time>
      </trkpt>
      <trkpt lat="47.35419" lon="-1.60204">
        <ele>88</ele>
        <time>2021-08-28T10:54:16.000Z</time>
      </trkpt>
      <trkpt lat="47.3542" lon="-1.60186">
        <ele>88</ele>
        <time>2021-08-28T10:54:18.000Z</time>
      </trkpt>
      <trkpt lat="47.35419" lon="-1.60168">
        <ele>87</ele>
        <time>2021-08-28T10:54:20.000Z</time>
      </trkpt>
      <trkpt lat="47.35418" lon="-1.60149">
        <ele>87</ele>
        <time>2021-08-28T10:54:22.000Z</time>
      </trkpt>
      <trkpt lat="47.35416" lon="-1.6013">
        <ele>87</ele>
        <time>2021-08-28T10:54:24.000Z</time>
      </trkpt>
      <trkpt lat="47.35416" lon="-1.6011">
        <ele>87</ele>
        <time>2021-08-28T10:54:26.000Z</time>
      </trkpt>
      <trkpt lat="47.35417" lon="-1.60092">
        <ele>87</ele>
        <time>2021-08-28T10:54:28.000Z</time>
      </trkpt>
      <trkpt lat="47.3542" lon="-1.60073">
        <ele>86</ele>
        <time>2021-08-28T10:54:30.000Z</time>
      </trkpt>
      <trkpt lat="47.35425" lon="-1.60054">
        <ele>86</ele>
        <time>2021-08-28T10:54:32.000Z</time>
      </trkpt>
      <trkpt lat="47.35429" lon="-1.60036">
        <ele>86</ele>
        <time>2021-08-28T10:54:34.000Z</time>
      </trkpt>
      <trkpt lat="47.35435" lon="-1.60018">
        <ele>86</ele>
        <time>2021-08-28T10:54:36.000Z</time>
      </trkpt>
      <trkpt lat="47.35439" lon="-1.6">
        <ele>86</ele>
        <time>2021-08-28T10:54:38.000Z</time>
      </trkpt>
      <trkpt lat="47.35443" lon="-1.59982">
        <ele>86</ele>
        <time>2021-08-28T10:54:40.000Z</time>
      </trkpt>
      <trkpt lat="47.35446" lon="-1.59964">
        <ele>86</ele>
        <time>2021-08-28T10:54:42.000Z</time>
      </trkpt>
      <trkpt lat="47.35448" lon="-1.59946">
        <ele>87</ele>
        <time>2021-08-28T10:54:44.000Z</time>
      </trkpt>
      <trkpt lat="47.35451" lon="-1.59928">
        <ele>87</ele>
        <time>2021-08-28T10:54:46.000Z</time>
      </trkpt>
      <trkpt lat="47.35453" lon="-1.59912">
        <ele>87</ele>
        <time>2021-08-28T10:54:48.000Z</time>
      </trkpt>
      <trkpt lat="47.35455" lon="-1.59895">
        <ele>87</ele>
        <time>2021-08-28T10:54:50.000Z</time>
      </trkpt>
      <trkpt lat="47.35457" lon="-1.59878">
        <ele>87</ele>
        <time>2021-08-28T10:54:52.000Z</time>
      </trkpt>
      <trkpt lat="47.35459" lon="-1.59861">
        <ele>87</ele>
        <time>2021-08-28T10:54:54.000Z</time>
      </trkpt>
      <trkpt lat="47.35461" lon="-1.59843">
        <ele>88</ele>
        <time>2021-08-28T10:54:56.000Z</time>
      </trkpt>
      <trkpt lat="47.35463" lon="-1.59826">
        <ele>88</ele>
        <time>2021-08-28T10:54:58.000Z</time>
      </trkpt>
      <trkpt lat="47.35465" lon="-1.5981">
        <ele>88</ele>
        <time>2021-08-28T10:55:00.000Z</time>
      </trkpt>
      <trkpt lat="47.35463" lon="-1.59796">
        <ele>88</ele>
        <time>2021-08-28T10:55:03.000Z</time>
      </trkpt>
      <trkpt lat="47.35449" lon="-1.59789">
        <ele>88</ele>
        <time>2021-08-28T10:55:06.000Z</time>
      </trkpt>
      <trkpt lat="47.35437" lon="-1.59785">
        <ele>88</ele>
        <time>2021-08-28T10:55:08.000Z</time>
      </trkpt>
      <trkpt lat="47.35423" lon="-1.5978">
        <ele>87</ele>
        <time>2021-08-28T10:55:10.000Z</time>
      </trkpt>
      <trkpt lat="47.35409" lon="-1.59775">
        <ele>87</ele>
        <time>2021-08-28T10:55:12.000Z</time>
      </trkpt>
      <trkpt lat="47.35394" lon="-1.59771">
        <ele>86</ele>
        <time>2021-08-28T10:55:14.000Z</time>
      </trkpt>
      <trkpt lat="47.3538" lon="-1.59766">
        <ele>86</ele>
        <time>2021-08-28T10:55:16.000Z</time>
      </trkpt>
      <trkpt lat="47.35366" lon="-1.59761">
        <ele>85</ele>
        <time>2021-08-28T10:55:18.000Z</time>
      </trkpt>
      <trkpt lat="47.35351" lon="-1.59754">
        <ele>84</ele>
        <time>2021-08-28T10:55:20.000Z</time>
      </trkpt>
      <trkpt lat="47.35337" lon="-1.59745">
        <ele>83</ele>
        <time>2021-08-28T10:55:22.000Z</time>
      </trkpt>
      <trkpt lat="47.35322" lon="-1.59733">
        <ele>83</ele>
        <time>2021-08-28T10:55:24.000Z</time>
      </trkpt>
      <trkpt lat="47.35309" lon="-1.59718">
        <ele>82</ele>
        <time>2021-08-28T10:55:26.000Z</time>
      </trkpt>
      <trkpt lat="47.35296" lon="-1.59703">
        <ele>82</ele>
        <time>2021-08-28T10:55:28.000Z</time>
      </trkpt>
      <trkpt lat="47.35282" lon="-1.59687">
        <ele>82</ele>
        <time>2021-08-28T10:55:30.000Z</time>
      </trkpt>
      <trkpt lat="47.35275" lon="-1.59677">
        <ele>82</ele>
        <time>2021-08-28T10:55:31.000Z</time>
      </trkpt>
      <trkpt lat="47.35268" lon="-1.59668">
        <ele>81</ele>
        <time>2021-08-28T10:55:32.000Z</time>
      </trkpt>
      <trkpt lat="47.35261" lon="-1.59658">
        <ele>81</ele>
        <time>2021-08-28T10:55:33.000Z</time>
      </trkpt>
      <trkpt lat="47.35253" lon="-1.59649">
        <ele>80</ele>
        <time>2021-08-28T10:55:34.000Z</time>
      </trkpt>
      <trkpt lat="47.35246" lon="-1.5964">
        <ele>79</ele>
        <time>2021-08-28T10:55:35.000Z</time>
      </trkpt>
      <trkpt lat="47.35238" lon="-1.59631">
        <ele>79</ele>
        <time>2021-08-28T10:55:36.000Z</time>
      </trkpt>
      <trkpt lat="47.35231" lon="-1.59622">
        <ele>78</ele>
        <time>2021-08-28T10:55:37.000Z</time>
      </trkpt>
      <trkpt lat="47.35224" lon="-1.59613">
        <ele>78</ele>
        <time>2021-08-28T10:55:38.000Z</time>
      </trkpt>
      <trkpt lat="47.35216" lon="-1.59604">
        <ele>77</ele>
        <time>2021-08-28T10:55:39.000Z</time>
      </trkpt>
      <trkpt lat="47.35208" lon="-1.59595">
        <ele>76</ele>
        <time>2021-08-28T10:55:40.000Z</time>
      </trkpt>
      <trkpt lat="47.35201" lon="-1.59586">
        <ele>76</ele>
        <time>2021-08-28T10:55:41.000Z</time>
      </trkpt>
      <trkpt lat="47.35193" lon="-1.59577">
        <ele>76</ele>
        <time>2021-08-28T10:55:42.000Z</time>
      </trkpt>
      <trkpt lat="47.35185" lon="-1.59568">
        <ele>76</ele>
        <time>2021-08-28T10:55:43.000Z</time>
      </trkpt>
      <trkpt lat="47.35177" lon="-1.59558">
        <ele>75</ele>
        <time>2021-08-28T10:55:44.000Z</time>
      </trkpt>
      <trkpt lat="47.35169" lon="-1.59547">
        <ele>75</ele>
        <time>2021-08-28T10:55:45.000Z</time>
      </trkpt>
      <trkpt lat="47.35161" lon="-1.59537">
        <ele>74</ele>
        <time>2021-08-28T10:55:46.000Z</time>
      </trkpt>
      <trkpt lat="47.35154" lon="-1.59528">
        <ele>74</ele>
        <time>2021-08-28T10:55:47.000Z</time>
      </trkpt>
      <trkpt lat="47.35146" lon="-1.59519">
        <ele>73</ele>
        <time>2021-08-28T10:55:48.000Z</time>
      </trkpt>
      <trkpt lat="47.35139" lon="-1.5951">
        <ele>73</ele>
        <time>2021-08-28T10:55:49.000Z</time>
      </trkpt>
      <trkpt lat="47.35131" lon="-1.595">
        <ele>72</ele>
        <time>2021-08-28T10:55:50.000Z</time>
      </trkpt>
      <trkpt lat="47.35123" lon="-1.59491">
        <ele>72</ele>
        <time>2021-08-28T10:55:51.000Z</time>
      </trkpt>
      <trkpt lat="47.35115" lon="-1.59482">
        <ele>71</ele>
        <time>2021-08-28T10:55:52.000Z</time>
      </trkpt>
      <trkpt lat="47.35107" lon="-1.59472">
        <ele>71</ele>
        <time>2021-08-28T10:55:53.000Z</time>
      </trkpt>
      <trkpt lat="47.351" lon="-1.59462">
        <ele>70</ele>
        <time>2021-08-28T10:55:54.000Z</time>
      </trkpt>
      <trkpt lat="47.35092" lon="-1.59453">
        <ele>70</ele>
        <time>2021-08-28T10:55:55.000Z</time>
      </trkpt>
      <trkpt lat="47.35085" lon="-1.59444">
        <ele>70</ele>
        <time>2021-08-28T10:55:56.000Z</time>
      </trkpt>
      <trkpt lat="47.35077" lon="-1.59435">
        <ele>70</ele>
        <time>2021-08-28T10:55:57.000Z</time>
      </trkpt>
      <trkpt lat="47.3507" lon="-1.59426">
        <ele>70</ele>
        <time>2021-08-28T10:55:58.000Z</time>
      </trkpt>
      <trkpt lat="47.35062" lon="-1.59417">
        <ele>70</ele>
        <time>2021-08-28T10:55:59.000Z</time>
      </trkpt>
      <trkpt lat="47.35049" lon="-1.59401">
        <ele>71</ele>
        <time>2021-08-28T10:56:01.000Z</time>
      </trkpt>
      <trkpt lat="47.35037" lon="-1.59388">
        <ele>71</ele>
        <time>2021-08-28T10:56:03.000Z</time>
      </trkpt>
      <trkpt lat="47.35027" lon="-1.59375">
        <ele>72</ele>
        <time>2021-08-28T10:56:05.000Z</time>
      </trkpt>
      <trkpt lat="47.35016" lon="-1.59362">
        <ele>72</ele>
        <time>2021-08-28T10:56:07.000Z</time>
      </trkpt>
      <trkpt lat="47.35007" lon="-1.59351">
        <ele>73</ele>
        <time>2021-08-28T10:56:09.000Z</time>
      </trkpt>
      <trkpt lat="47.34998" lon="-1.5934">
        <ele>74</ele>
        <time>2021-08-28T10:56:11.000Z</time>
      </trkpt>
      <trkpt lat="47.34988" lon="-1.59328">
        <ele>75</ele>
        <time>2021-08-28T10:56:13.000Z</time>
      </trkpt>
      <trkpt lat="47.3498" lon="-1.59318">
        <ele>76</ele>
        <time>2021-08-28T10:56:15.000Z</time>
      </trkpt>
      <trkpt lat="47.3497" lon="-1.59307">
        <ele>76</ele>
        <time>2021-08-28T10:56:17.000Z</time>
      </trkpt>
      <trkpt lat="47.34961" lon="-1.59296">
        <ele>77</ele>
        <time>2021-08-28T10:56:19.000Z</time>
      </trkpt>
      <trkpt lat="47.34953" lon="-1.59285">
        <ele>77</ele>
        <time>2021-08-28T10:56:21.000Z</time>
      </trkpt>
      <trkpt lat="47.34945" lon="-1.59274">
        <ele>77</ele>
        <time>2021-08-28T10:56:23.000Z</time>
      </trkpt>
      <trkpt lat="47.34936" lon="-1.59264">
        <ele>77</ele>
        <time>2021-08-28T10:56:25.000Z</time>
      </trkpt>
      <trkpt lat="47.34928" lon="-1.59253">
        <ele>76</ele>
        <time>2021-08-28T10:56:27.000Z</time>
      </trkpt>
      <trkpt lat="47.3492" lon="-1.59242">
        <ele>77</ele>
        <time>2021-08-28T10:56:29.000Z</time>
      </trkpt>
      <trkpt lat="47.34911" lon="-1.59232">
        <ele>77</ele>
        <time>2021-08-28T10:56:31.000Z</time>
      </trkpt>
      <trkpt lat="47.34901" lon="-1.59221">
        <ele>78</ele>
        <time>2021-08-28T10:56:33.000Z</time>
      </trkpt>
      <trkpt lat="47.34892" lon="-1.59211">
        <ele>79</ele>
        <time>2021-08-28T10:56:35.000Z</time>
      </trkpt>
      <trkpt lat="47.34883" lon="-1.592">
        <ele>80</ele>
        <time>2021-08-28T10:56:37.000Z</time>
      </trkpt>
      <trkpt lat="47.34874" lon="-1.59189">
        <ele>82</ele>
        <time>2021-08-28T10:56:39.000Z</time>
      </trkpt>
      <trkpt lat="47.34865" lon="-1.59179">
        <ele>83</ele>
        <time>2021-08-28T10:56:41.000Z</time>
      </trkpt>
      <trkpt lat="47.34857" lon="-1.59169">
        <ele>84</ele>
        <time>2021-08-28T10:56:43.000Z</time>
      </trkpt>
      <trkpt lat="47.34848" lon="-1.59158">
        <ele>84</ele>
        <time>2021-08-28T10:56:45.000Z</time>
      </trkpt>
      <trkpt lat="47.34839" lon="-1.59147">
        <ele>85</ele>
        <time>2021-08-28T10:56:47.000Z</time>
      </trkpt>
      <trkpt lat="47.34831" lon="-1.59136">
        <ele>85</ele>
        <time>2021-08-28T10:56:49.000Z</time>
      </trkpt>
      <trkpt lat="47.34822" lon="-1.59125">
        <ele>86</ele>
        <time>2021-08-28T10:56:51.000Z</time>
      </trkpt>
      <trkpt lat="47.34814" lon="-1.59115">
        <ele>86</ele>
        <time>2021-08-28T10:56:53.000Z</time>
      </trkpt>
      <trkpt lat="47.34806" lon="-1.59105">
        <ele>86</ele>
        <time>2021-08-28T10:56:55.000Z</time>
      </trkpt>
      <trkpt lat="47.34797" lon="-1.59093">
        <ele>87</ele>
        <time>2021-08-28T10:56:57.000Z</time>
      </trkpt>
      <trkpt lat="47.34789" lon="-1.59082">
        <ele>87</ele>
        <time>2021-08-28T10:56:59.000Z</time>
      </trkpt>
      <trkpt lat="47.34781" lon="-1.59071">
        <ele>87</ele>
        <time>2021-08-28T10:57:01.000Z</time>
      </trkpt>
      <trkpt lat="47.34773" lon="-1.59061">
        <ele>88</ele>
        <time>2021-08-28T10:57:03.000Z</time>
      </trkpt>
      <trkpt lat="47.34763" lon="-1.59051">
        <ele>88</ele>
        <time>2021-08-28T10:57:05.000Z</time>
      </trkpt>
      <trkpt lat="47.34754" lon="-1.59041">
        <ele>88</ele>
        <time>2021-08-28T10:57:07.000Z</time>
      </trkpt>
      <trkpt lat="47.34745" lon="-1.59031">
        <ele>88</ele>
        <time>2021-08-28T10:57:09.000Z</time>
      </trkpt>
      <trkpt lat="47.34736" lon="-1.59019">
        <ele>89</ele>
        <time>2021-08-28T10:57:11.000Z</time>
      </trkpt>
      <trkpt lat="47.34728" lon="-1.59008">
        <ele>89</ele>
        <time>2021-08-28T10:57:13.000Z</time>
      </trkpt>
      <trkpt lat="47.34719" lon="-1.58997">
        <ele>89</ele>
        <time>2021-08-28T10:57:15.000Z</time>
      </trkpt>
      <trkpt lat="47.3471" lon="-1.58987">
        <ele>89</ele>
        <time>2021-08-28T10:57:17.000Z</time>
      </trkpt>
      <trkpt lat="47.34701" lon="-1.58976">
        <ele>89</ele>
        <time>2021-08-28T10:57:19.000Z</time>
      </trkpt>
      <trkpt lat="47.34692" lon="-1.58965">
        <ele>89</ele>
        <time>2021-08-28T10:57:21.000Z</time>
      </trkpt>
      <trkpt lat="47.34683" lon="-1.58954">
        <ele>89</ele>
        <time>2021-08-28T10:57:23.000Z</time>
      </trkpt>
      <trkpt lat="47.34674" lon="-1.58943">
        <ele>89</ele>
        <time>2021-08-28T10:57:25.000Z</time>
      </trkpt>
      <trkpt lat="47.34665" lon="-1.58931">
        <ele>88</ele>
        <time>2021-08-28T10:57:27.000Z</time>
      </trkpt>
      <trkpt lat="47.34655" lon="-1.5892">
        <ele>88</ele>
        <time>2021-08-28T10:57:29.000Z</time>
      </trkpt>
      <trkpt lat="47.34646" lon="-1.58908">
        <ele>88</ele>
        <time>2021-08-28T10:57:31.000Z</time>
      </trkpt>
      <trkpt lat="47.34636" lon="-1.58896">
        <ele>88</ele>
        <time>2021-08-28T10:57:33.000Z</time>
      </trkpt>
      <trkpt lat="47.34626" lon="-1.58884">
        <ele>87</ele>
        <time>2021-08-28T10:57:35.000Z</time>
      </trkpt>
      <trkpt lat="47.34617" lon="-1.58872">
        <ele>87</ele>
        <time>2021-08-28T10:57:37.000Z</time>
      </trkpt>
      <trkpt lat="47.34607" lon="-1.5886">
        <ele>87</ele>
        <time>2021-08-28T10:57:39.000Z</time>
      </trkpt>
      <trkpt lat="47.34597" lon="-1.58847">
        <ele>87</ele>
        <time>2021-08-28T10:57:41.000Z</time>
      </trkpt>
      <trkpt lat="47.34587" lon="-1.58835">
        <ele>86</ele>
        <time>2021-08-28T10:57:43.000Z</time>
      </trkpt>
      <trkpt lat="47.34576" lon="-1.58822">
        <ele>86</ele>
        <time>2021-08-28T10:57:45.000Z</time>
      </trkpt>
      <trkpt lat="47.34566" lon="-1.5881">
        <ele>86</ele>
        <time>2021-08-28T10:57:47.000Z</time>
      </trkpt>
      <trkpt lat="47.34556" lon="-1.58797">
        <ele>86</ele>
        <time>2021-08-28T10:57:49.000Z</time>
      </trkpt>
      <trkpt lat="47.34546" lon="-1.58784">
        <ele>86</ele>
        <time>2021-08-28T10:57:51.000Z</time>
      </trkpt>
      <trkpt lat="47.34535" lon="-1.58772">
        <ele>86</ele>
        <time>2021-08-28T10:57:53.000Z</time>
      </trkpt>
      <trkpt lat="47.34525" lon="-1.5876">
        <ele>86</ele>
        <time>2021-08-28T10:57:55.000Z</time>
      </trkpt>
      <trkpt lat="47.34515" lon="-1.58747">
        <ele>86</ele>
        <time>2021-08-28T10:57:57.000Z</time>
      </trkpt>
      <trkpt lat="47.34505" lon="-1.58735">
        <ele>86</ele>
        <time>2021-08-28T10:57:59.000Z</time>
      </trkpt>
      <trkpt lat="47.34496" lon="-1.58723">
        <ele>87</ele>
        <time>2021-08-28T10:58:01.000Z</time>
      </trkpt>
      <trkpt lat="47.34488" lon="-1.5871">
        <ele>87</ele>
        <time>2021-08-28T10:58:03.000Z</time>
      </trkpt>
      <trkpt lat="47.34479" lon="-1.58698">
        <ele>87</ele>
        <time>2021-08-28T10:58:05.000Z</time>
      </trkpt>
      <trkpt lat="47.34471" lon="-1.58686">
        <ele>88</ele>
        <time>2021-08-28T10:58:07.000Z</time>
      </trkpt>
      <trkpt lat="47.34462" lon="-1.58673">
        <ele>88</ele>
        <time>2021-08-28T10:58:09.000Z</time>
      </trkpt>
      <trkpt lat="47.34454" lon="-1.5866">
        <ele>88</ele>
        <time>2021-08-28T10:58:11.000Z</time>
      </trkpt>
      <trkpt lat="47.34446" lon="-1.58647">
        <ele>89</ele>
        <time>2021-08-28T10:58:13.000Z</time>
      </trkpt>
      <trkpt lat="47.34437" lon="-1.58634">
        <ele>89</ele>
        <time>2021-08-28T10:58:15.000Z</time>
      </trkpt>
      <trkpt lat="47.34429" lon="-1.58622">
        <ele>90</ele>
        <time>2021-08-28T10:58:17.000Z</time>
      </trkpt>
      <trkpt lat="47.34421" lon="-1.5861">
        <ele>90</ele>
        <time>2021-08-28T10:58:19.000Z</time>
      </trkpt>
      <trkpt lat="47.34412" lon="-1.58598">
        <ele>90</ele>
        <time>2021-08-28T10:58:21.000Z</time>
      </trkpt>
      <trkpt lat="47.34403" lon="-1.58587">
        <ele>91</ele>
        <time>2021-08-28T10:58:23.000Z</time>
      </trkpt>
      <trkpt lat="47.34394" lon="-1.58576">
        <ele>91</ele>
        <time>2021-08-28T10:58:25.000Z</time>
      </trkpt>
      <trkpt lat="47.34386" lon="-1.58565">
        <ele>91</ele>
        <time>2021-08-28T10:58:27.000Z</time>
      </trkpt>
      <trkpt lat="47.34377" lon="-1.58554">
        <ele>92</ele>
        <time>2021-08-28T10:58:29.000Z</time>
      </trkpt>
      <trkpt lat="47.34368" lon="-1.58543">
        <ele>92</ele>
        <time>2021-08-28T10:58:31.000Z</time>
      </trkpt>
      <trkpt lat="47.3436" lon="-1.58532">
        <ele>92</ele>
        <time>2021-08-28T10:58:33.000Z</time>
      </trkpt>
      <trkpt lat="47.34351" lon="-1.5852">
        <ele>92</ele>
        <time>2021-08-28T10:58:35.000Z</time>
      </trkpt>
      <trkpt lat="47.34342" lon="-1.58508">
        <ele>92</ele>
        <time>2021-08-28T10:58:37.000Z</time>
      </trkpt>
      <trkpt lat="47.34332" lon="-1.58496">
        <ele>92</ele>
        <time>2021-08-28T10:58:39.000Z</time>
      </trkpt>
      <trkpt lat="47.34324" lon="-1.58483">
        <ele>92</ele>
        <time>2021-08-28T10:58:41.000Z</time>
      </trkpt>
      <trkpt lat="47.34315" lon="-1.5847">
        <ele>91</ele>
        <time>2021-08-28T10:58:43.000Z</time>
      </trkpt>
      <trkpt lat="47.34306" lon="-1.58457">
        <ele>91</ele>
        <time>2021-08-28T10:58:45.000Z</time>
      </trkpt>
      <trkpt lat="47.34296" lon="-1.58443">
        <ele>91</ele>
        <time>2021-08-28T10:58:47.000Z</time>
      </trkpt>
      <trkpt lat="47.34286" lon="-1.5843">
        <ele>90</ele>
        <time>2021-08-28T10:58:49.000Z</time>
      </trkpt>
      <trkpt lat="47.34275" lon="-1.58416">
        <ele>90</ele>
        <time>2021-08-28T10:58:51.000Z</time>
      </trkpt>
      <trkpt lat="47.34265" lon="-1.58402">
        <ele>90</ele>
        <time>2021-08-28T10:58:53.000Z</time>
      </trkpt>
      <trkpt lat="47.34255" lon="-1.58387">
        <ele>89</ele>
        <time>2021-08-28T10:58:55.000Z</time>
      </trkpt>
      <trkpt lat="47.34244" lon="-1.58373">
        <ele>89</ele>
        <time>2021-08-28T10:58:57.000Z</time>
      </trkpt>
      <trkpt lat="47.34233" lon="-1.58359">
        <ele>89</ele>
        <time>2021-08-28T10:58:59.000Z</time>
      </trkpt>
      <trkpt lat="47.34222" lon="-1.58344">
        <ele>89</ele>
        <time>2021-08-28T10:59:01.000Z</time>
      </trkpt>
      <trkpt lat="47.34212" lon="-1.58329">
        <ele>89</ele>
        <time>2021-08-28T10:59:03.000Z</time>
      </trkpt>
      <trkpt lat="47.342" lon="-1.58314">
        <ele>88</ele>
        <time>2021-08-28T10:59:05.000Z</time>
      </trkpt>
      <trkpt lat="47.34189" lon="-1.58299">
        <ele>88</ele>
        <time>2021-08-28T10:59:07.000Z</time>
      </trkpt>
      <trkpt lat="47.34178" lon="-1.58284">
        <ele>88</ele>
        <time>2021-08-28T10:59:09.000Z</time>
      </trkpt>
      <trkpt lat="47.34167" lon="-1.58269">
        <ele>87</ele>
        <time>2021-08-28T10:59:11.000Z</time>
      </trkpt>
      <trkpt lat="47.34156" lon="-1.58254">
        <ele>87</ele>
        <time>2021-08-28T10:59:13.000Z</time>
      </trkpt>
      <trkpt lat="47.34144" lon="-1.58239">
        <ele>86</ele>
        <time>2021-08-28T10:59:15.000Z</time>
      </trkpt>
      <trkpt lat="47.34134" lon="-1.58223">
        <ele>86</ele>
        <time>2021-08-28T10:59:17.000Z</time>
      </trkpt>
      <trkpt lat="47.34123" lon="-1.58207">
        <ele>86</ele>
        <time>2021-08-28T10:59:19.000Z</time>
      </trkpt>
      <trkpt lat="47.34111" lon="-1.58192">
        <ele>86</ele>
        <time>2021-08-28T10:59:21.000Z</time>
      </trkpt>
      <trkpt lat="47.341" lon="-1.58177">
        <ele>85</ele>
        <time>2021-08-28T10:59:23.000Z</time>
      </trkpt>
      <trkpt lat="47.3409" lon="-1.58163">
        <ele>85</ele>
        <time>2021-08-28T10:59:25.000Z</time>
      </trkpt>
      <trkpt lat="47.34079" lon="-1.5815">
        <ele>85</ele>
        <time>2021-08-28T10:59:27.000Z</time>
      </trkpt>
      <trkpt lat="47.34069" lon="-1.58135">
        <ele>85</ele>
        <time>2021-08-28T10:59:29.000Z</time>
      </trkpt>
      <trkpt lat="47.34057" lon="-1.58118">
        <ele>85</ele>
        <time>2021-08-28T10:59:31.000Z</time>
      </trkpt>
      <trkpt lat="47.34046" lon="-1.58103">
        <ele>84</ele>
        <time>2021-08-28T10:59:33.000Z</time>
      </trkpt>
      <trkpt lat="47.34034" lon="-1.58088">
        <ele>84</ele>
        <time>2021-08-28T10:59:35.000Z</time>
      </trkpt>
      <trkpt lat="47.34023" lon="-1.58072">
        <ele>84</ele>
        <time>2021-08-28T10:59:37.000Z</time>
      </trkpt>
      <trkpt lat="47.34012" lon="-1.58056">
        <ele>84</ele>
        <time>2021-08-28T10:59:39.000Z</time>
      </trkpt>
      <trkpt lat="47.34001" lon="-1.58041">
        <ele>83</ele>
        <time>2021-08-28T10:59:41.000Z</time>
      </trkpt>
      <trkpt lat="47.33989" lon="-1.58025">
        <ele>83</ele>
        <time>2021-08-28T10:59:43.000Z</time>
      </trkpt>
      <trkpt lat="47.33977" lon="-1.5801">
        <ele>83</ele>
        <time>2021-08-28T10:59:45.000Z</time>
      </trkpt>
      <trkpt lat="47.33967" lon="-1.57995">
        <ele>83</ele>
        <time>2021-08-28T10:59:47.000Z</time>
      </trkpt>
      <trkpt lat="47.33957" lon="-1.57981">
        <ele>83</ele>
        <time>2021-08-28T10:59:49.000Z</time>
      </trkpt>
      <trkpt lat="47.33946" lon="-1.57966">
        <ele>82</ele>
        <time>2021-08-28T10:59:51.000Z</time>
      </trkpt>
      <trkpt lat="47.33937" lon="-1.57952">
        <ele>82</ele>
        <time>2021-08-28T10:59:53.000Z</time>
      </trkpt>
      <trkpt lat="47.33927" lon="-1.57939">
        <ele>83</ele>
        <time>2021-08-28T10:59:55.000Z</time>
      </trkpt>
      <trkpt lat="47.33917" lon="-1.57926">
        <ele>83</ele>
        <time>2021-08-28T10:59:57.000Z</time>
      </trkpt>
      <trkpt lat="47.33908" lon="-1.57913">
        <ele>83</ele>
        <time>2021-08-28T10:59:59.000Z</time>
      </trkpt>
      <trkpt lat="47.33898" lon="-1.57901">
        <ele>83</ele>
        <time>2021-08-28T11:00:01.000Z</time>
      </trkpt>
      <trkpt lat="47.33889" lon="-1.57888">
        <ele>84</ele>
        <time>2021-08-28T11:00:03.000Z</time>
      </trkpt>
      <trkpt lat="47.33876" lon="-1.57871">
        <ele>84</ele>
        <time>2021-08-28T11:00:06.000Z</time>
      </trkpt>
      <trkpt lat="47.33866" lon="-1.5786">
        <ele>84</ele>
        <time>2021-08-28T11:00:08.000Z</time>
      </trkpt>
      <trkpt lat="47.33857" lon="-1.57851">
        <ele>84</ele>
        <time>2021-08-28T11:00:10.000Z</time>
      </trkpt>
      <trkpt lat="47.33849" lon="-1.57844">
        <ele>84</ele>
        <time>2021-08-28T11:00:12.000Z</time>
      </trkpt>
      <trkpt lat="47.33841" lon="-1.57836">
        <ele>84</ele>
        <time>2021-08-28T11:00:15.000Z</time>
      </trkpt>
      <trkpt lat="47.33837" lon="-1.57823">
        <ele>85</ele>
        <time>2021-08-28T11:00:19.000Z</time>
      </trkpt>
      <trkpt lat="47.33839" lon="-1.57803">
        <ele>85</ele>
        <time>2021-08-28T11:00:22.000Z</time>
      </trkpt>
      <trkpt lat="47.33844" lon="-1.57788">
        <ele>85</ele>
        <time>2021-08-28T11:00:24.000Z</time>
      </trkpt>
      <trkpt lat="47.33849" lon="-1.57771">
        <ele>85</ele>
        <time>2021-08-28T11:00:26.000Z</time>
      </trkpt>
      <trkpt lat="47.33854" lon="-1.57754">
        <ele>85</ele>
        <time>2021-08-28T11:00:28.000Z</time>
      </trkpt>
      <trkpt lat="47.33859" lon="-1.57737">
        <ele>85</ele>
        <time>2021-08-28T11:00:30.000Z</time>
      </trkpt>
      <trkpt lat="47.33863" lon="-1.57721">
        <ele>85</ele>
        <time>2021-08-28T11:00:32.000Z</time>
      </trkpt>
      <trkpt lat="47.33868" lon="-1.57705">
        <ele>86</ele>
        <time>2021-08-28T11:00:34.000Z</time>
      </trkpt>
      <trkpt lat="47.33873" lon="-1.57688">
        <ele>86</ele>
        <time>2021-08-28T11:00:36.000Z</time>
      </trkpt>
      <trkpt lat="47.33877" lon="-1.57671">
        <ele>86</ele>
        <time>2021-08-28T11:00:38.000Z</time>
      </trkpt>
      <trkpt lat="47.33883" lon="-1.57654">
        <ele>86</ele>
        <time>2021-08-28T11:00:40.000Z</time>
      </trkpt>
      <trkpt lat="47.3389" lon="-1.5763">
        <ele>86</ele>
        <time>2021-08-28T11:00:43.000Z</time>
      </trkpt>
      <trkpt lat="47.33894" lon="-1.57614">
        <ele>86</ele>
        <time>2021-08-28T11:00:45.000Z</time>
      </trkpt>
      <trkpt lat="47.33899" lon="-1.57597">
        <ele>86</ele>
        <time>2021-08-28T11:00:47.000Z</time>
      </trkpt>
      <trkpt lat="47.33903" lon="-1.5758">
        <ele>85</ele>
        <time>2021-08-28T11:00:49.000Z</time>
      </trkpt>
      <trkpt lat="47.33908" lon="-1.57562">
        <ele>85</ele>
        <time>2021-08-28T11:00:51.000Z</time>
      </trkpt>
      <trkpt lat="47.33914" lon="-1.57545">
        <ele>85</ele>
        <time>2021-08-28T11:00:53.000Z</time>
      </trkpt>
      <trkpt lat="47.33919" lon="-1.57526">
        <ele>85</ele>
        <time>2021-08-28T11:00:55.000Z</time>
      </trkpt>
      <trkpt lat="47.33927" lon="-1.57498">
        <ele>84</ele>
        <time>2021-08-28T11:00:58.000Z</time>
      </trkpt>
      <trkpt lat="47.33933" lon="-1.5748">
        <ele>84</ele>
        <time>2021-08-28T11:01:00.000Z</time>
      </trkpt>
      <trkpt lat="47.33938" lon="-1.5746">
        <ele>83</ele>
        <time>2021-08-28T11:01:02.000Z</time>
      </trkpt>
      <trkpt lat="47.33944" lon="-1.5744">
        <ele>82</ele>
        <time>2021-08-28T11:01:04.000Z</time>
      </trkpt>
      <trkpt lat="47.3395" lon="-1.57419">
        <ele>81</ele>
        <time>2021-08-28T11:01:06.000Z</time>
      </trkpt>
      <trkpt lat="47.33956" lon="-1.57399">
        <ele>80</ele>
        <time>2021-08-28T11:01:08.000Z</time>
      </trkpt>
      <trkpt lat="47.33962" lon="-1.5738">
        <ele>79</ele>
        <time>2021-08-28T11:01:10.000Z</time>
      </trkpt>
      <trkpt lat="47.33967" lon="-1.5736">
        <ele>78</ele>
        <time>2021-08-28T11:01:12.000Z</time>
      </trkpt>
      <trkpt lat="47.33973" lon="-1.57339">
        <ele>77</ele>
        <time>2021-08-28T11:01:14.000Z</time>
      </trkpt>
      <trkpt lat="47.33978" lon="-1.57318">
        <ele>77</ele>
        <time>2021-08-28T11:01:16.000Z</time>
      </trkpt>
      <trkpt lat="47.33981" lon="-1.57297">
        <ele>76</ele>
        <time>2021-08-28T11:01:18.000Z</time>
      </trkpt>
      <trkpt lat="47.33983" lon="-1.57274">
        <ele>76</ele>
        <time>2021-08-28T11:01:20.000Z</time>
      </trkpt>
      <trkpt lat="47.33985" lon="-1.57253">
        <ele>76</ele>
        <time>2021-08-28T11:01:22.000Z</time>
      </trkpt>
      <trkpt lat="47.33987" lon="-1.57232">
        <ele>76</ele>
        <time>2021-08-28T11:01:24.000Z</time>
      </trkpt>
      <trkpt lat="47.33989" lon="-1.57211">
        <ele>76</ele>
        <time>2021-08-28T11:01:26.000Z</time>
      </trkpt>
      <trkpt lat="47.3399" lon="-1.5719">
        <ele>76</ele>
        <time>2021-08-28T11:01:28.000Z</time>
      </trkpt>
      <trkpt lat="47.33991" lon="-1.57169">
        <ele>76</ele>
        <time>2021-08-28T11:01:30.000Z</time>
      </trkpt>
      <trkpt lat="47.33991" lon="-1.57149">
        <ele>76</ele>
        <time>2021-08-28T11:01:32.000Z</time>
      </trkpt>
      <trkpt lat="47.33992" lon="-1.5713">
        <ele>76</ele>
        <time>2021-08-28T11:01:34.000Z</time>
      </trkpt>
      <trkpt lat="47.33991" lon="-1.57109">
        <ele>76</ele>
        <time>2021-08-28T11:01:36.000Z</time>
      </trkpt>
      <trkpt lat="47.33991" lon="-1.57089">
        <ele>75</ele>
        <time>2021-08-28T11:01:38.000Z</time>
      </trkpt>
      <trkpt lat="47.33991" lon="-1.57067">
        <ele>75</ele>
        <time>2021-08-28T11:01:40.000Z</time>
      </trkpt>
      <trkpt lat="47.33991" lon="-1.57046">
        <ele>74</ele>
        <time>2021-08-28T11:01:42.000Z</time>
      </trkpt>
      <trkpt lat="47.33991" lon="-1.57025">
        <ele>74</ele>
        <time>2021-08-28T11:01:44.000Z</time>
      </trkpt>
      <trkpt lat="47.33992" lon="-1.57004">
        <ele>74</ele>
        <time>2021-08-28T11:01:46.000Z</time>
      </trkpt>
      <trkpt lat="47.33993" lon="-1.56983">
        <ele>74</ele>
        <time>2021-08-28T11:01:48.000Z</time>
      </trkpt>
      <trkpt lat="47.33993" lon="-1.56962">
        <ele>73</ele>
        <time>2021-08-28T11:01:50.000Z</time>
      </trkpt>
      <trkpt lat="47.33994" lon="-1.56941">
        <ele>73</ele>
        <time>2021-08-28T11:01:52.000Z</time>
      </trkpt>
      <trkpt lat="47.33995" lon="-1.56919">
        <ele>73</ele>
        <time>2021-08-28T11:01:54.000Z</time>
      </trkpt>
      <trkpt lat="47.33996" lon="-1.56896">
        <ele>72</ele>
        <time>2021-08-28T11:01:56.000Z</time>
      </trkpt>
      <trkpt lat="47.33997" lon="-1.56873">
        <ele>73</ele>
        <time>2021-08-28T11:01:58.000Z</time>
      </trkpt>
      <trkpt lat="47.33998" lon="-1.56851">
        <ele>73</ele>
        <time>2021-08-28T11:02:00.000Z</time>
      </trkpt>
      <trkpt lat="47.33999" lon="-1.5683">
        <ele>74</ele>
        <time>2021-08-28T11:02:02.000Z</time>
      </trkpt>
      <trkpt lat="47.34" lon="-1.5681">
        <ele>74</ele>
        <time>2021-08-28T11:02:04.000Z</time>
      </trkpt>
      <trkpt lat="47.34001" lon="-1.56789">
        <ele>74</ele>
        <time>2021-08-28T11:02:06.000Z</time>
      </trkpt>
      <trkpt lat="47.34002" lon="-1.5677">
        <ele>74</ele>
        <time>2021-08-28T11:02:08.000Z</time>
      </trkpt>
      <trkpt lat="47.34003" lon="-1.56749">
        <ele>74</ele>
        <time>2021-08-28T11:02:10.000Z</time>
      </trkpt>
      <trkpt lat="47.34004" lon="-1.5673">
        <ele>74</ele>
        <time>2021-08-28T11:02:12.000Z</time>
      </trkpt>
      <trkpt lat="47.34005" lon="-1.56712">
        <ele>74</ele>
        <time>2021-08-28T11:02:14.000Z</time>
      </trkpt>
      <trkpt lat="47.34005" lon="-1.56693">
        <ele>74</ele>
        <time>2021-08-28T11:02:16.000Z</time>
      </trkpt>
      <trkpt lat="47.34007" lon="-1.56673">
        <ele>73</ele>
        <time>2021-08-28T11:02:18.000Z</time>
      </trkpt>
      <trkpt lat="47.34008" lon="-1.56653">
        <ele>73</ele>
        <time>2021-08-28T11:02:20.000Z</time>
      </trkpt>
      <trkpt lat="47.34008" lon="-1.56633">
        <ele>72</ele>
        <time>2021-08-28T11:02:22.000Z</time>
      </trkpt>
      <trkpt lat="47.34009" lon="-1.56612">
        <ele>72</ele>
        <time>2021-08-28T11:02:24.000Z</time>
      </trkpt>
      <trkpt lat="47.3401" lon="-1.5659">
        <ele>71</ele>
        <time>2021-08-28T11:02:26.000Z</time>
      </trkpt>
      <trkpt lat="47.34011" lon="-1.56568">
        <ele>70</ele>
        <time>2021-08-28T11:02:28.000Z</time>
      </trkpt>
      <trkpt lat="47.34013" lon="-1.56546">
        <ele>70</ele>
        <time>2021-08-28T11:02:30.000Z</time>
      </trkpt>
      <trkpt lat="47.34013" lon="-1.56522">
        <ele>69</ele>
        <time>2021-08-28T11:02:32.000Z</time>
      </trkpt>
      <trkpt lat="47.34014" lon="-1.56499">
        <ele>68</ele>
        <time>2021-08-28T11:02:34.000Z</time>
      </trkpt>
      <trkpt lat="47.34015" lon="-1.56475">
        <ele>68</ele>
        <time>2021-08-28T11:02:36.000Z</time>
      </trkpt>
      <trkpt lat="47.34016" lon="-1.56451">
        <ele>68</ele>
        <time>2021-08-28T11:02:38.000Z</time>
      </trkpt>
      <trkpt lat="47.34017" lon="-1.56428">
        <ele>68</ele>
        <time>2021-08-28T11:02:40.000Z</time>
      </trkpt>
      <trkpt lat="47.34018" lon="-1.56406">
        <ele>68</ele>
        <time>2021-08-28T11:02:42.000Z</time>
      </trkpt>
      <trkpt lat="47.34018" lon="-1.56385">
        <ele>68</ele>
        <time>2021-08-28T11:02:44.000Z</time>
      </trkpt>
      <trkpt lat="47.34018" lon="-1.56365">
        <ele>68</ele>
        <time>2021-08-28T11:02:46.000Z</time>
      </trkpt>
      <trkpt lat="47.34017" lon="-1.56346">
        <ele>68</ele>
        <time>2021-08-28T11:02:48.000Z</time>
      </trkpt>
      <trkpt lat="47.34014" lon="-1.56328">
        <ele>68</ele>
        <time>2021-08-28T11:02:50.000Z</time>
      </trkpt>
      <trkpt lat="47.34012" lon="-1.56308">
        <ele>69</ele>
        <time>2021-08-28T11:02:52.000Z</time>
      </trkpt>
      <trkpt lat="47.34009" lon="-1.56287">
        <ele>69</ele>
        <time>2021-08-28T11:02:54.000Z</time>
      </trkpt>
      <trkpt lat="47.34005" lon="-1.56264">
        <ele>69</ele>
        <time>2021-08-28T11:02:56.000Z</time>
      </trkpt>
      <trkpt lat="47.34002" lon="-1.56241">
        <ele>68</ele>
        <time>2021-08-28T11:02:58.000Z</time>
      </trkpt>
      <trkpt lat="47.33998" lon="-1.56219">
        <ele>68</ele>
        <time>2021-08-28T11:03:00.000Z</time>
      </trkpt>
      <trkpt lat="47.33994" lon="-1.56194">
        <ele>68</ele>
        <time>2021-08-28T11:03:02.000Z</time>
      </trkpt>
      <trkpt lat="47.33992" lon="-1.56168">
        <ele>68</ele>
        <time>2021-08-28T11:03:04.000Z</time>
      </trkpt>
      <trkpt lat="47.33989" lon="-1.56144">
        <ele>67</ele>
        <time>2021-08-28T11:03:06.000Z</time>
      </trkpt>
      <trkpt lat="47.33985" lon="-1.56118">
        <ele>67</ele>
        <time>2021-08-28T11:03:08.000Z</time>
      </trkpt>
      <trkpt lat="47.33983" lon="-1.56105">
        <ele>67</ele>
        <time>2021-08-28T11:03:09.000Z</time>
      </trkpt>
      <trkpt lat="47.33982" lon="-1.56092">
        <ele>67</ele>
        <time>2021-08-28T11:03:10.000Z</time>
      </trkpt>
      <trkpt lat="47.33981" lon="-1.56078">
        <ele>66</ele>
        <time>2021-08-28T11:03:11.000Z</time>
      </trkpt>
      <trkpt lat="47.33981" lon="-1.56064">
        <ele>66</ele>
        <time>2021-08-28T11:03:12.000Z</time>
      </trkpt>
      <trkpt lat="47.33981" lon="-1.5605">
        <ele>65</ele>
        <time>2021-08-28T11:03:13.000Z</time>
      </trkpt>
      <trkpt lat="47.33984" lon="-1.56037">
        <ele>64</ele>
        <time>2021-08-28T11:03:14.000Z</time>
      </trkpt>
      <trkpt lat="47.33989" lon="-1.56025">
        <ele>63</ele>
        <time>2021-08-28T11:03:15.000Z</time>
      </trkpt>
      <trkpt lat="47.33995" lon="-1.56013">
        <ele>62</ele>
        <time>2021-08-28T11:03:16.000Z</time>
      </trkpt>
      <trkpt lat="47.34001" lon="-1.56002">
        <ele>60</ele>
        <time>2021-08-28T11:03:17.000Z</time>
      </trkpt>
      <trkpt lat="47.34008" lon="-1.55992">
        <ele>59</ele>
        <time>2021-08-28T11:03:18.000Z</time>
      </trkpt>
      <trkpt lat="47.34015" lon="-1.55982">
        <ele>58</ele>
        <time>2021-08-28T11:03:19.000Z</time>
      </trkpt>
      <trkpt lat="47.34023" lon="-1.55973">
        <ele>57</ele>
        <time>2021-08-28T11:03:20.000Z</time>
      </trkpt>
      <trkpt lat="47.34031" lon="-1.55965">
        <ele>57</ele>
        <time>2021-08-28T11:03:21.000Z</time>
      </trkpt>
      <trkpt lat="47.34038" lon="-1.55957">
        <ele>56</ele>
        <time>2021-08-28T11:03:22.000Z</time>
      </trkpt>
      <trkpt lat="47.34045" lon="-1.55949">
        <ele>56</ele>
        <time>2021-08-28T11:03:23.000Z</time>
      </trkpt>
      <trkpt lat="47.34058" lon="-1.55931">
        <ele>55</ele>
        <time>2021-08-28T11:03:25.000Z</time>
      </trkpt>
      <trkpt lat="47.34066" lon="-1.55911">
        <ele>56</ele>
        <time>2021-08-28T11:03:27.000Z</time>
      </trkpt>
      <trkpt lat="47.34067" lon="-1.5589">
        <ele>57</ele>
        <time>2021-08-28T11:03:29.000Z</time>
      </trkpt>
      <trkpt lat="47.34064" lon="-1.55873">
        <ele>58</ele>
        <time>2021-08-28T11:03:31.000Z</time>
      </trkpt>
      <trkpt lat="47.3406" lon="-1.55858">
        <ele>59</ele>
        <time>2021-08-28T11:03:33.000Z</time>
      </trkpt>
      <trkpt lat="47.34057" lon="-1.55842">
        <ele>59</ele>
        <time>2021-08-28T11:03:35.000Z</time>
      </trkpt>
      <trkpt lat="47.34054" lon="-1.55828">
        <ele>59</ele>
        <time>2021-08-28T11:03:37.000Z</time>
      </trkpt>
      <trkpt lat="47.34053" lon="-1.55814">
        <ele>59</ele>
        <time>2021-08-28T11:03:39.000Z</time>
      </trkpt>
      <trkpt lat="47.34052" lon="-1.55799">
        <ele>59</ele>
        <time>2021-08-28T11:03:41.000Z</time>
      </trkpt>
      <trkpt lat="47.34052" lon="-1.55784">
        <ele>60</ele>
        <time>2021-08-28T11:03:43.000Z</time>
      </trkpt>
      <trkpt lat="47.34052" lon="-1.55768">
        <ele>60</ele>
        <time>2021-08-28T11:03:45.000Z</time>
      </trkpt>
      <trkpt lat="47.34054" lon="-1.55752">
        <ele>61</ele>
        <time>2021-08-28T11:03:47.000Z</time>
      </trkpt>
      <trkpt lat="47.34056" lon="-1.55736">
        <ele>61</ele>
        <time>2021-08-28T11:03:49.000Z</time>
      </trkpt>
      <trkpt lat="47.34059" lon="-1.5572">
        <ele>61</ele>
        <time>2021-08-28T11:03:51.000Z</time>
      </trkpt>
      <trkpt lat="47.34063" lon="-1.55704">
        <ele>62</ele>
        <time>2021-08-28T11:03:53.000Z</time>
      </trkpt>
      <trkpt lat="47.34066" lon="-1.55688">
        <ele>61</ele>
        <time>2021-08-28T11:03:55.000Z</time>
      </trkpt>
      <trkpt lat="47.3407" lon="-1.55672">
        <ele>61</ele>
        <time>2021-08-28T11:03:57.000Z</time>
      </trkpt>
      <trkpt lat="47.34073" lon="-1.55656">
        <ele>61</ele>
        <time>2021-08-28T11:03:59.000Z</time>
      </trkpt>
      <trkpt lat="47.34077" lon="-1.5564">
        <ele>61</ele>
        <time>2021-08-28T11:04:01.000Z</time>
      </trkpt>
      <trkpt lat="47.3408" lon="-1.55624">
        <ele>61</ele>
        <time>2021-08-28T11:04:03.000Z</time>
      </trkpt>
      <trkpt lat="47.34084" lon="-1.55608">
        <ele>62</ele>
        <time>2021-08-28T11:04:05.000Z</time>
      </trkpt>
      <trkpt lat="47.34088" lon="-1.55593">
        <ele>62</ele>
        <time>2021-08-28T11:04:07.000Z</time>
      </trkpt>
      <trkpt lat="47.34092" lon="-1.55578">
        <ele>61</ele>
        <time>2021-08-28T11:04:09.000Z</time>
      </trkpt>
      <trkpt lat="47.34097" lon="-1.55563">
        <ele>61</ele>
        <time>2021-08-28T11:04:11.000Z</time>
      </trkpt>
      <trkpt lat="47.34103" lon="-1.55547">
        <ele>62</ele>
        <time>2021-08-28T11:04:13.000Z</time>
      </trkpt>
      <trkpt lat="47.3411" lon="-1.55532">
        <ele>62</ele>
        <time>2021-08-28T11:04:15.000Z</time>
      </trkpt>
      <trkpt lat="47.34116" lon="-1.55516">
        <ele>62</ele>
        <time>2021-08-28T11:04:17.000Z</time>
      </trkpt>
      <trkpt lat="47.34123" lon="-1.55504">
        <ele>62</ele>
        <time>2021-08-28T11:04:19.000Z</time>
      </trkpt>
      <trkpt lat="47.3413" lon="-1.55491">
        <ele>62</ele>
        <time>2021-08-28T11:04:21.000Z</time>
      </trkpt>
      <trkpt lat="47.34137" lon="-1.55479">
        <ele>62</ele>
        <time>2021-08-28T11:04:23.000Z</time>
      </trkpt>
      <trkpt lat="47.34145" lon="-1.55467">
        <ele>62</ele>
        <time>2021-08-28T11:04:25.000Z</time>
      </trkpt>
      <trkpt lat="47.34152" lon="-1.55456">
        <ele>62</ele>
        <time>2021-08-28T11:04:27.000Z</time>
      </trkpt>
      <trkpt lat="47.34159" lon="-1.55445">
        <ele>63</ele>
        <time>2021-08-28T11:04:29.000Z</time>
      </trkpt>
      <trkpt lat="47.34166" lon="-1.55434">
        <ele>63</ele>
        <time>2021-08-28T11:04:31.000Z</time>
      </trkpt>
      <trkpt lat="47.34174" lon="-1.55422">
        <ele>63</ele>
        <time>2021-08-28T11:04:33.000Z</time>
      </trkpt>
      <trkpt lat="47.34181" lon="-1.55411">
        <ele>64</ele>
        <time>2021-08-28T11:04:35.000Z</time>
      </trkpt>
      <trkpt lat="47.34189" lon="-1.554">
        <ele>63</ele>
        <time>2021-08-28T11:04:37.000Z</time>
      </trkpt>
      <trkpt lat="47.34196" lon="-1.55388">
        <ele>63</ele>
        <time>2021-08-28T11:04:39.000Z</time>
      </trkpt>
      <trkpt lat="47.34204" lon="-1.55376">
        <ele>63</ele>
        <time>2021-08-28T11:04:41.000Z</time>
      </trkpt>
      <trkpt lat="47.34212" lon="-1.55364">
        <ele>63</ele>
        <time>2021-08-28T11:04:43.000Z</time>
      </trkpt>
      <trkpt lat="47.34221" lon="-1.55352">
        <ele>63</ele>
        <time>2021-08-28T11:04:45.000Z</time>
      </trkpt>
      <trkpt lat="47.34229" lon="-1.55339">
        <ele>63</ele>
        <time>2021-08-28T11:04:47.000Z</time>
      </trkpt>
      <trkpt lat="47.34238" lon="-1.55325">
        <ele>62</ele>
        <time>2021-08-28T11:04:49.000Z</time>
      </trkpt>
      <trkpt lat="47.34248" lon="-1.55311">
        <ele>62</ele>
        <time>2021-08-28T11:04:51.000Z</time>
      </trkpt>
      <trkpt lat="47.34258" lon="-1.55297">
        <ele>61</ele>
        <time>2021-08-28T11:04:53.000Z</time>
      </trkpt>
      <trkpt lat="47.34268" lon="-1.55282">
        <ele>61</ele>
        <time>2021-08-28T11:04:55.000Z</time>
      </trkpt>
      <trkpt lat="47.34278" lon="-1.55266">
        <ele>60</ele>
        <time>2021-08-28T11:04:57.000Z</time>
      </trkpt>
      <trkpt lat="47.34289" lon="-1.55249">
        <ele>60</ele>
        <time>2021-08-28T11:04:59.000Z</time>
      </trkpt>
      <trkpt lat="47.34297" lon="-1.55231">
        <ele>59</ele>
        <time>2021-08-28T11:05:01.000Z</time>
      </trkpt>
      <trkpt lat="47.34303" lon="-1.5521">
        <ele>59</ele>
        <time>2021-08-28T11:05:03.000Z</time>
      </trkpt>
      <trkpt lat="47.34307" lon="-1.55188">
        <ele>59</ele>
        <time>2021-08-28T11:05:05.000Z</time>
      </trkpt>
      <trkpt lat="47.3431" lon="-1.55166">
        <ele>58</ele>
        <time>2021-08-28T11:05:07.000Z</time>
      </trkpt>
      <trkpt lat="47.34312" lon="-1.55143">
        <ele>58</ele>
        <time>2021-08-28T11:05:09.000Z</time>
      </trkpt>
      <trkpt lat="47.34314" lon="-1.55119">
        <ele>58</ele>
        <time>2021-08-28T11:05:11.000Z</time>
      </trkpt>
      <trkpt lat="47.34316" lon="-1.55096">
        <ele>58</ele>
        <time>2021-08-28T11:05:13.000Z</time>
      </trkpt>
      <trkpt lat="47.34318" lon="-1.55074">
        <ele>58</ele>
        <time>2021-08-28T11:05:15.000Z</time>
      </trkpt>
      <trkpt lat="47.34319" lon="-1.55054">
        <ele>59</ele>
        <time>2021-08-28T11:05:17.000Z</time>
      </trkpt>
      <trkpt lat="47.34321" lon="-1.55036">
        <ele>59</ele>
        <time>2021-08-28T11:05:19.000Z</time>
      </trkpt>
      <trkpt lat="47.34323" lon="-1.5502">
        <ele>60</ele>
        <time>2021-08-28T11:05:21.000Z</time>
      </trkpt>
      <trkpt lat="47.34324" lon="-1.55005">
        <ele>60</ele>
        <time>2021-08-28T11:05:23.000Z</time>
      </trkpt>
      <trkpt lat="47.34325" lon="-1.54992">
        <ele>61</ele>
        <time>2021-08-28T11:05:25.000Z</time>
      </trkpt>
      <trkpt lat="47.34327" lon="-1.54978">
        <ele>61</ele>
        <time>2021-08-28T11:05:27.000Z</time>
      </trkpt>
      <trkpt lat="47.34329" lon="-1.54964">
        <ele>61</ele>
        <time>2021-08-28T11:05:29.000Z</time>
      </trkpt>
      <trkpt lat="47.3433" lon="-1.5495">
        <ele>62</ele>
        <time>2021-08-28T11:05:31.000Z</time>
      </trkpt>
      <trkpt lat="47.34331" lon="-1.54937">
        <ele>62</ele>
        <time>2021-08-28T11:05:33.000Z</time>
      </trkpt>
      <trkpt lat="47.34332" lon="-1.54922">
        <ele>63</ele>
        <time>2021-08-28T11:05:35.000Z</time>
      </trkpt>
      <trkpt lat="47.34333" lon="-1.54908">
        <ele>64</ele>
        <time>2021-08-28T11:05:37.000Z</time>
      </trkpt>
      <trkpt lat="47.34334" lon="-1.54894">
        <ele>64</ele>
        <time>2021-08-28T11:05:39.000Z</time>
      </trkpt>
      <trkpt lat="47.34335" lon="-1.5488">
        <ele>64</ele>
        <time>2021-08-28T11:05:41.000Z</time>
      </trkpt>
      <trkpt lat="47.34337" lon="-1.54866">
        <ele>65</ele>
        <time>2021-08-28T11:05:43.000Z</time>
      </trkpt>
      <trkpt lat="47.34338" lon="-1.54852">
        <ele>66</ele>
        <time>2021-08-28T11:05:45.000Z</time>
      </trkpt>
      <trkpt lat="47.34339" lon="-1.54838">
        <ele>66</ele>
        <time>2021-08-28T11:05:47.000Z</time>
      </trkpt>
      <trkpt lat="47.3434" lon="-1.54824">
        <ele>67</ele>
        <time>2021-08-28T11:05:49.000Z</time>
      </trkpt>
      <trkpt lat="47.34341" lon="-1.5481">
        <ele>67</ele>
        <time>2021-08-28T11:05:51.000Z</time>
      </trkpt>
      <trkpt lat="47.34343" lon="-1.54797">
        <ele>67</ele>
        <time>2021-08-28T11:05:53.000Z</time>
      </trkpt>
      <trkpt lat="47.34344" lon="-1.54783">
        <ele>67</ele>
        <time>2021-08-28T11:05:55.000Z</time>
      </trkpt>
      <trkpt lat="47.34346" lon="-1.54769">
        <ele>68</ele>
        <time>2021-08-28T11:05:57.000Z</time>
      </trkpt>
      <trkpt lat="47.34349" lon="-1.54756">
        <ele>69</ele>
        <time>2021-08-28T11:05:59.000Z</time>
      </trkpt>
      <trkpt lat="47.34353" lon="-1.54743">
        <ele>70</ele>
        <time>2021-08-28T11:06:01.000Z</time>
      </trkpt>
      <trkpt lat="47.34358" lon="-1.54731">
        <ele>70</ele>
        <time>2021-08-28T11:06:03.000Z</time>
      </trkpt>
      <trkpt lat="47.34364" lon="-1.5472">
        <ele>71</ele>
        <time>2021-08-28T11:06:05.000Z</time>
      </trkpt>
      <trkpt lat="47.3437" lon="-1.5471">
        <ele>71</ele>
        <time>2021-08-28T11:06:07.000Z</time>
      </trkpt>
      <trkpt lat="47.34377" lon="-1.54701">
        <ele>72</ele>
        <time>2021-08-28T11:06:09.000Z</time>
      </trkpt>
      <trkpt lat="47.34384" lon="-1.54692">
        <ele>72</ele>
        <time>2021-08-28T11:06:11.000Z</time>
      </trkpt>
      <trkpt lat="47.34392" lon="-1.54684">
        <ele>72</ele>
        <time>2021-08-28T11:06:13.000Z</time>
      </trkpt>
      <trkpt lat="47.344" lon="-1.54676">
        <ele>72</ele>
        <time>2021-08-28T11:06:15.000Z</time>
      </trkpt>
      <trkpt lat="47.34407" lon="-1.54667">
        <ele>72</ele>
        <time>2021-08-28T11:06:17.000Z</time>
      </trkpt>
      <trkpt lat="47.34415" lon="-1.54657">
        <ele>72</ele>
        <time>2021-08-28T11:06:19.000Z</time>
      </trkpt>
      <trkpt lat="47.34421" lon="-1.54646">
        <ele>72</ele>
        <time>2021-08-28T11:06:21.000Z</time>
      </trkpt>
      <trkpt lat="47.34425" lon="-1.54633">
        <ele>72</ele>
        <time>2021-08-28T11:06:23.000Z</time>
      </trkpt>
      <trkpt lat="47.34427" lon="-1.5462">
        <ele>73</ele>
        <time>2021-08-28T11:06:25.000Z</time>
      </trkpt>
      <trkpt lat="47.34427" lon="-1.54606">
        <ele>73</ele>
        <time>2021-08-28T11:06:27.000Z</time>
      </trkpt>
      <trkpt lat="47.34425" lon="-1.54591">
        <ele>74</ele>
        <time>2021-08-28T11:06:29.000Z</time>
      </trkpt>
      <trkpt lat="47.34422" lon="-1.54577">
        <ele>74</ele>
        <time>2021-08-28T11:06:31.000Z</time>
      </trkpt>
      <trkpt lat="47.34419" lon="-1.54563">
        <ele>74</ele>
        <time>2021-08-28T11:06:33.000Z</time>
      </trkpt>
      <trkpt lat="47.34417" lon="-1.5455">
        <ele>75</ele>
        <time>2021-08-28T11:06:35.000Z</time>
      </trkpt>
      <trkpt lat="47.34414" lon="-1.54536">
        <ele>76</ele>
        <time>2021-08-28T11:06:37.000Z</time>
      </trkpt>
      <trkpt lat="47.34411" lon="-1.54523">
        <ele>76</ele>
        <time>2021-08-28T11:06:39.000Z</time>
      </trkpt>
      <trkpt lat="47.34408" lon="-1.54509">
        <ele>77</ele>
        <time>2021-08-28T11:06:41.000Z</time>
      </trkpt>
      <trkpt lat="47.34405" lon="-1.5449">
        <ele>77</ele>
        <time>2021-08-28T11:06:44.000Z</time>
      </trkpt>
      <trkpt lat="47.344" lon="-1.5447">
        <ele>77</ele>
        <time>2021-08-28T11:06:47.000Z</time>
      </trkpt>
      <trkpt lat="47.34398" lon="-1.54457">
        <ele>78</ele>
        <time>2021-08-28T11:06:49.000Z</time>
      </trkpt>
      <trkpt lat="47.34395" lon="-1.54443">
        <ele>79</ele>
        <time>2021-08-28T11:06:51.000Z</time>
      </trkpt>
      <trkpt lat="47.34393" lon="-1.54429">
        <ele>79</ele>
        <time>2021-08-28T11:06:53.000Z</time>
      </trkpt>
      <trkpt lat="47.34389" lon="-1.54416">
        <ele>79</ele>
        <time>2021-08-28T11:06:55.000Z</time>
      </trkpt>
      <trkpt lat="47.34386" lon="-1.54403">
        <ele>79</ele>
        <time>2021-08-28T11:06:57.000Z</time>
      </trkpt>
      <trkpt lat="47.34383" lon="-1.5439">
        <ele>80</ele>
        <time>2021-08-28T11:06:59.000Z</time>
      </trkpt>
      <trkpt lat="47.34379" lon="-1.54377">
        <ele>80</ele>
        <time>2021-08-28T11:07:01.000Z</time>
      </trkpt>
      <trkpt lat="47.34376" lon="-1.54364">
        <ele>80</ele>
        <time>2021-08-28T11:07:03.000Z</time>
      </trkpt>
      <trkpt lat="47.34372" lon="-1.54352">
        <ele>80</ele>
        <time>2021-08-28T11:07:05.000Z</time>
      </trkpt>
      <trkpt lat="47.34367" lon="-1.54339">
        <ele>80</ele>
        <time>2021-08-28T11:07:07.000Z</time>
      </trkpt>
      <trkpt lat="47.34363" lon="-1.54327">
        <ele>81</ele>
        <time>2021-08-28T11:07:09.000Z</time>
      </trkpt>
      <trkpt lat="47.34359" lon="-1.54315">
        <ele>81</ele>
        <time>2021-08-28T11:07:11.000Z</time>
      </trkpt>
      <trkpt lat="47.34354" lon="-1.54302">
        <ele>81</ele>
        <time>2021-08-28T11:07:13.000Z</time>
      </trkpt>
      <trkpt lat="47.3435" lon="-1.54289">
        <ele>81</ele>
        <time>2021-08-28T11:07:15.000Z</time>
      </trkpt>
      <trkpt lat="47.34344" lon="-1.54276">
        <ele>81</ele>
        <time>2021-08-28T11:07:17.000Z</time>
      </trkpt>
      <trkpt lat="47.34338" lon="-1.54261">
        <ele>81</ele>
        <time>2021-08-28T11:07:19.000Z</time>
      </trkpt>
      <trkpt lat="47.34333" lon="-1.54247">
        <ele>81</ele>
        <time>2021-08-28T11:07:21.000Z</time>
      </trkpt>
      <trkpt lat="47.34326" lon="-1.54233">
        <ele>81</ele>
        <time>2021-08-28T11:07:23.000Z</time>
      </trkpt>
      <trkpt lat="47.3432" lon="-1.54218">
        <ele>81</ele>
        <time>2021-08-28T11:07:25.000Z</time>
      </trkpt>
      <trkpt lat="47.34313" lon="-1.54202">
        <ele>81</ele>
        <time>2021-08-28T11:07:27.000Z</time>
      </trkpt>
      <trkpt lat="47.34307" lon="-1.54186">
        <ele>80</ele>
        <time>2021-08-28T11:07:29.000Z</time>
      </trkpt>
      <trkpt lat="47.34301" lon="-1.5417">
        <ele>80</ele>
        <time>2021-08-28T11:07:31.000Z</time>
      </trkpt>
      <trkpt lat="47.34296" lon="-1.54153">
        <ele>80</ele>
        <time>2021-08-28T11:07:33.000Z</time>
      </trkpt>
      <trkpt lat="47.34293" lon="-1.54134">
        <ele>79</ele>
        <time>2021-08-28T11:07:35.000Z</time>
      </trkpt>
      <trkpt lat="47.3429" lon="-1.54114">
        <ele>79</ele>
        <time>2021-08-28T11:07:37.000Z</time>
      </trkpt>
      <trkpt lat="47.34287" lon="-1.54095">
        <ele>78</ele>
        <time>2021-08-28T11:07:39.000Z</time>
      </trkpt>
      <trkpt lat="47.34284" lon="-1.54075">
        <ele>78</ele>
        <time>2021-08-28T11:07:41.000Z</time>
      </trkpt>
      <trkpt lat="47.34281" lon="-1.54056">
        <ele>78</ele>
        <time>2021-08-28T11:07:43.000Z</time>
      </trkpt>
      <trkpt lat="47.34277" lon="-1.54037">
        <ele>78</ele>
        <time>2021-08-28T11:07:45.000Z</time>
      </trkpt>
      <trkpt lat="47.34272" lon="-1.54017">
        <ele>77</ele>
        <time>2021-08-28T11:07:47.000Z</time>
      </trkpt>
      <trkpt lat="47.34267" lon="-1.53999">
        <ele>77</ele>
        <time>2021-08-28T11:07:49.000Z</time>
      </trkpt>
      <trkpt lat="47.34259" lon="-1.53982">
        <ele>77</ele>
        <time>2021-08-28T11:07:51.000Z</time>
      </trkpt>
      <trkpt lat="47.34252" lon="-1.53965">
        <ele>77</ele>
        <time>2021-08-28T11:07:53.000Z</time>
      </trkpt>
      <trkpt lat="47.34246" lon="-1.53947">
        <ele>77</ele>
        <time>2021-08-28T11:07:55.000Z</time>
      </trkpt>
      <trkpt lat="47.34238" lon="-1.53931">
        <ele>77</ele>
        <time>2021-08-28T11:07:57.000Z</time>
      </trkpt>
      <trkpt lat="47.34229" lon="-1.53916">
        <ele>77</ele>
        <time>2021-08-28T11:07:59.000Z</time>
      </trkpt>
      <trkpt lat="47.3422" lon="-1.53903">
        <ele>77</ele>
        <time>2021-08-28T11:08:01.000Z</time>
      </trkpt>
      <trkpt lat="47.34211" lon="-1.53891">
        <ele>77</ele>
        <time>2021-08-28T11:08:03.000Z</time>
      </trkpt>
      <trkpt lat="47.34202" lon="-1.53879">
        <ele>78</ele>
        <time>2021-08-28T11:08:05.000Z</time>
      </trkpt>
      <trkpt lat="47.34192" lon="-1.53867">
        <ele>78</ele>
        <time>2021-08-28T11:08:07.000Z</time>
      </trkpt>
      <trkpt lat="47.34182" lon="-1.53855">
        <ele>79</ele>
        <time>2021-08-28T11:08:09.000Z</time>
      </trkpt>
      <trkpt lat="47.3417" lon="-1.53845">
        <ele>78</ele>
        <time>2021-08-28T11:08:11.000Z</time>
      </trkpt>
      <trkpt lat="47.34158" lon="-1.53836">
        <ele>78</ele>
        <time>2021-08-28T11:08:13.000Z</time>
      </trkpt>
      <trkpt lat="47.34146" lon="-1.53825">
        <ele>79</ele>
        <time>2021-08-28T11:08:15.000Z</time>
      </trkpt>
      <trkpt lat="47.34136" lon="-1.53813">
        <ele>79</ele>
        <time>2021-08-28T11:08:17.000Z</time>
      </trkpt>
      <trkpt lat="47.34125" lon="-1.53801">
        <ele>79</ele>
        <time>2021-08-28T11:08:19.000Z</time>
      </trkpt>
      <trkpt lat="47.34114" lon="-1.53789">
        <ele>79</ele>
        <time>2021-08-28T11:08:21.000Z</time>
      </trkpt>
      <trkpt lat="47.34104" lon="-1.53778">
        <ele>79</ele>
        <time>2021-08-28T11:08:23.000Z</time>
      </trkpt>
      <trkpt lat="47.34093" lon="-1.53768">
        <ele>79</ele>
        <time>2021-08-28T11:08:25.000Z</time>
      </trkpt>
      <trkpt lat="47.34083" lon="-1.53757">
        <ele>79</ele>
        <time>2021-08-28T11:08:27.000Z</time>
      </trkpt>
      <trkpt lat="47.34072" lon="-1.53744">
        <ele>78</ele>
        <time>2021-08-28T11:08:29.000Z</time>
      </trkpt>
      <trkpt lat="47.34062" lon="-1.53733">
        <ele>78</ele>
        <time>2021-08-28T11:08:31.000Z</time>
      </trkpt>
      <trkpt lat="47.34051" lon="-1.53721">
        <ele>78</ele>
        <time>2021-08-28T11:08:33.000Z</time>
      </trkpt>
      <trkpt lat="47.34039" lon="-1.53709">
        <ele>78</ele>
        <time>2021-08-28T11:08:35.000Z</time>
      </trkpt>
      <trkpt lat="47.34028" lon="-1.53697">
        <ele>78</ele>
        <time>2021-08-28T11:08:37.000Z</time>
      </trkpt>
      <trkpt lat="47.34016" lon="-1.53686">
        <ele>78</ele>
        <time>2021-08-28T11:08:39.000Z</time>
      </trkpt>
      <trkpt lat="47.34004" lon="-1.53674">
        <ele>77</ele>
        <time>2021-08-28T11:08:41.000Z</time>
      </trkpt>
      <trkpt lat="47.33993" lon="-1.53662">
        <ele>76</ele>
        <time>2021-08-28T11:08:43.000Z</time>
      </trkpt>
      <trkpt lat="47.3398" lon="-1.5365">
        <ele>75</ele>
        <time>2021-08-28T11:08:45.000Z</time>
      </trkpt>
      <trkpt lat="47.33968" lon="-1.53638">
        <ele>74</ele>
        <time>2021-08-28T11:08:47.000Z</time>
      </trkpt>
      <trkpt lat="47.33955" lon="-1.53624">
        <ele>74</ele>
        <time>2021-08-28T11:08:49.000Z</time>
      </trkpt>
      <trkpt lat="47.33943" lon="-1.53612">
        <ele>73</ele>
        <time>2021-08-28T11:08:51.000Z</time>
      </trkpt>
      <trkpt lat="47.33931" lon="-1.53597">
        <ele>73</ele>
        <time>2021-08-28T11:08:53.000Z</time>
      </trkpt>
      <trkpt lat="47.33919" lon="-1.53581">
        <ele>73</ele>
        <time>2021-08-28T11:08:55.000Z</time>
      </trkpt>
      <trkpt lat="47.33913" lon="-1.53559">
        <ele>73</ele>
        <time>2021-08-28T11:08:57.000Z</time>
      </trkpt>
      <trkpt lat="47.3391" lon="-1.53535">
        <ele>72</ele>
        <time>2021-08-28T11:08:59.000Z</time>
      </trkpt>
      <trkpt lat="47.33911" lon="-1.5351">
        <ele>71</ele>
        <time>2021-08-28T11:09:01.000Z</time>
      </trkpt>
      <trkpt lat="47.33912" lon="-1.53486">
        <ele>70</ele>
        <time>2021-08-28T11:09:03.000Z</time>
      </trkpt>
      <trkpt lat="47.33912" lon="-1.53461">
        <ele>69</ele>
        <time>2021-08-28T11:09:05.000Z</time>
      </trkpt>
      <trkpt lat="47.33905" lon="-1.53438">
        <ele>68</ele>
        <time>2021-08-28T11:09:07.000Z</time>
      </trkpt>
      <trkpt lat="47.33898" lon="-1.53418">
        <ele>67</ele>
        <time>2021-08-28T11:09:09.000Z</time>
      </trkpt>
      <trkpt lat="47.33894" lon="-1.53396">
        <ele>67</ele>
        <time>2021-08-28T11:09:11.000Z</time>
      </trkpt>
      <trkpt lat="47.33897" lon="-1.5337">
        <ele>66</ele>
        <time>2021-08-28T11:09:13.000Z</time>
      </trkpt>
      <trkpt lat="47.33905" lon="-1.53349">
        <ele>64</ele>
        <time>2021-08-28T11:09:15.000Z</time>
      </trkpt>
      <trkpt lat="47.33914" lon="-1.53327">
        <ele>63</ele>
        <time>2021-08-28T11:09:17.000Z</time>
      </trkpt>
      <trkpt lat="47.33922" lon="-1.53306">
        <ele>62</ele>
        <time>2021-08-28T11:09:19.000Z</time>
      </trkpt>
      <trkpt lat="47.3393" lon="-1.53286">
        <ele>62</ele>
        <time>2021-08-28T11:09:21.000Z</time>
      </trkpt>
      <trkpt lat="47.33939" lon="-1.53266">
        <ele>61</ele>
        <time>2021-08-28T11:09:23.000Z</time>
      </trkpt>
      <trkpt lat="47.33947" lon="-1.53246">
        <ele>59</ele>
        <time>2021-08-28T11:09:25.000Z</time>
      </trkpt>
      <trkpt lat="47.33955" lon="-1.53227">
        <ele>59</ele>
        <time>2021-08-28T11:09:27.000Z</time>
      </trkpt>
      <trkpt lat="47.33959" lon="-1.53213">
        <ele>58</ele>
        <time>2021-08-28T11:09:29.000Z</time>
      </trkpt>
      <trkpt lat="47.33951" lon="-1.53199">
        <ele>58</ele>
        <time>2021-08-28T11:09:49.000Z</time>
      </trkpt>
      <trkpt lat="47.33946" lon="-1.53186">
        <ele>57</ele>
        <time>2021-08-28T11:09:51.000Z</time>
      </trkpt>
      <trkpt lat="47.33939" lon="-1.53173">
        <ele>57</ele>
        <time>2021-08-28T11:09:53.000Z</time>
      </trkpt>
      <trkpt lat="47.33931" lon="-1.53157">
        <ele>57</ele>
        <time>2021-08-28T11:09:55.000Z</time>
      </trkpt>
      <trkpt lat="47.33923" lon="-1.53141">
        <ele>56</ele>
        <time>2021-08-28T11:09:57.000Z</time>
      </trkpt>
      <trkpt lat="47.33915" lon="-1.53124">
        <ele>56</ele>
        <time>2021-08-28T11:09:59.000Z</time>
      </trkpt>
      <trkpt lat="47.33906" lon="-1.53105">
        <ele>54</ele>
        <time>2021-08-28T11:10:01.000Z</time>
      </trkpt>
      <trkpt lat="47.33898" lon="-1.53089">
        <ele>54</ele>
        <time>2021-08-28T11:10:03.000Z</time>
      </trkpt>
      <trkpt lat="47.33892" lon="-1.53078">
        <ele>53</ele>
        <time>2021-08-28T11:10:05.000Z</time>
      </trkpt>
      <trkpt lat="47.33893" lon="-1.5306">
        <ele>53</ele>
        <time>2021-08-28T11:10:08.000Z</time>
      </trkpt>
      <trkpt lat="47.339" lon="-1.53044">
        <ele>53</ele>
        <time>2021-08-28T11:10:10.000Z</time>
      </trkpt>
      <trkpt lat="47.33906" lon="-1.53026">
        <ele>53</ele>
        <time>2021-08-28T11:10:12.000Z</time>
      </trkpt>
      <trkpt lat="47.33913" lon="-1.53008">
        <ele>52</ele>
        <time>2021-08-28T11:10:14.000Z</time>
      </trkpt>
      <trkpt lat="47.3392" lon="-1.52992">
        <ele>52</ele>
        <time>2021-08-28T11:10:16.000Z</time>
      </trkpt>
      <trkpt lat="47.33926" lon="-1.52974">
        <ele>52</ele>
        <time>2021-08-28T11:10:18.000Z</time>
      </trkpt>
      <trkpt lat="47.33933" lon="-1.52957">
        <ele>52</ele>
        <time>2021-08-28T11:10:20.000Z</time>
      </trkpt>
      <trkpt lat="47.33938" lon="-1.52942">
        <ele>53</ele>
        <time>2021-08-28T11:10:22.000Z</time>
      </trkpt>
      <trkpt lat="47.33943" lon="-1.52928">
        <ele>53</ele>
        <time>2021-08-28T11:10:24.000Z</time>
      </trkpt>
      <trkpt lat="47.33949" lon="-1.52913">
        <ele>53</ele>
        <time>2021-08-28T11:10:26.000Z</time>
      </trkpt>
      <trkpt lat="47.33954" lon="-1.52899">
        <ele>53</ele>
        <time>2021-08-28T11:10:28.000Z</time>
      </trkpt>
      <trkpt lat="47.33959" lon="-1.52886">
        <ele>53</ele>
        <time>2021-08-28T11:10:30.000Z</time>
      </trkpt>
      <trkpt lat="47.33965" lon="-1.52871">
        <ele>53</ele>
        <time>2021-08-28T11:10:33.000Z</time>
      </trkpt>
      <trkpt lat="47.33964" lon="-1.52857">
        <ele>54</ele>
        <time>2021-08-28T11:10:41.000Z</time>
      </trkpt>
      <trkpt lat="47.33956" lon="-1.52851">
        <ele>54</ele>
        <time>2021-08-28T11:10:43.000Z</time>
      </trkpt>
      <trkpt lat="47.33946" lon="-1.52844">
        <ele>54</ele>
        <time>2021-08-28T11:10:45.000Z</time>
      </trkpt>
      <trkpt lat="47.33935" lon="-1.52836">
        <ele>55</ele>
        <time>2021-08-28T11:10:47.000Z</time>
      </trkpt>
      <trkpt lat="47.33924" lon="-1.52827">
        <ele>54</ele>
        <time>2021-08-28T11:10:49.000Z</time>
      </trkpt>
      <trkpt lat="47.33912" lon="-1.52818">
        <ele>55</ele>
        <time>2021-08-28T11:10:51.000Z</time>
      </trkpt>
      <trkpt lat="47.33905" lon="-1.52806">
        <ele>55</ele>
        <time>2021-08-28T11:10:53.000Z</time>
      </trkpt>
      <trkpt lat="47.33906" lon="-1.52792">
        <ele>55</ele>
        <time>2021-08-28T11:10:55.000Z</time>
      </trkpt>
      <trkpt lat="47.3391" lon="-1.52778">
        <ele>55</ele>
        <time>2021-08-28T11:10:57.000Z</time>
      </trkpt>
      <trkpt lat="47.33911" lon="-1.52763">
        <ele>55</ele>
        <time>2021-08-28T11:10:59.000Z</time>
      </trkpt>
      <trkpt lat="47.33914" lon="-1.52745">
        <ele>54</ele>
        <time>2021-08-28T11:11:01.000Z</time>
      </trkpt>
      <trkpt lat="47.33917" lon="-1.52724">
        <ele>55</ele>
        <time>2021-08-28T11:11:03.000Z</time>
      </trkpt>
      <trkpt lat="47.3392" lon="-1.52703">
        <ele>54</ele>
        <time>2021-08-28T11:11:05.000Z</time>
      </trkpt>
      <trkpt lat="47.33924" lon="-1.52684">
        <ele>54</ele>
        <time>2021-08-28T11:11:07.000Z</time>
      </trkpt>
      <trkpt lat="47.33927" lon="-1.52666">
        <ele>54</ele>
        <time>2021-08-28T11:11:09.000Z</time>
      </trkpt>
      <trkpt lat="47.3393" lon="-1.52649">
        <ele>54</ele>
        <time>2021-08-28T11:11:11.000Z</time>
      </trkpt>
      <trkpt lat="47.33933" lon="-1.52632">
        <ele>54</ele>
        <time>2021-08-28T11:11:13.000Z</time>
      </trkpt>
      <trkpt lat="47.33935" lon="-1.52618">
        <ele>54</ele>
        <time>2021-08-28T11:11:15.000Z</time>
      </trkpt>
      <trkpt lat="47.3393" lon="-1.52603">
        <ele>54</ele>
        <time>2021-08-28T11:11:18.000Z</time>
      </trkpt>
      <trkpt lat="47.3392" lon="-1.52599">
        <ele>54</ele>
        <time>2021-08-28T11:11:20.000Z</time>
      </trkpt>
      <trkpt lat="47.33909" lon="-1.52594">
        <ele>54</ele>
        <time>2021-08-28T11:11:22.000Z</time>
      </trkpt>
      <trkpt lat="47.33898" lon="-1.52589">
        <ele>53</ele>
        <time>2021-08-28T11:11:24.000Z</time>
      </trkpt>
      <trkpt lat="47.33886" lon="-1.52584">
        <ele>53</ele>
        <time>2021-08-28T11:11:26.000Z</time>
      </trkpt>
      <trkpt lat="47.33874" lon="-1.52579">
        <ele>54</ele>
        <time>2021-08-28T11:11:28.000Z</time>
      </trkpt>
      <trkpt lat="47.33862" lon="-1.52574">
        <ele>54</ele>
        <time>2021-08-28T11:11:30.000Z</time>
      </trkpt>
      <trkpt lat="47.3385" lon="-1.52569">
        <ele>55</ele>
        <time>2021-08-28T11:11:32.000Z</time>
      </trkpt>
      <trkpt lat="47.33837" lon="-1.52565">
        <ele>55</ele>
        <time>2021-08-28T11:11:34.000Z</time>
      </trkpt>
      <trkpt lat="47.33825" lon="-1.52561">
        <ele>55</ele>
        <time>2021-08-28T11:11:36.000Z</time>
      </trkpt>
      <trkpt lat="47.33812" lon="-1.52556">
        <ele>55</ele>
        <time>2021-08-28T11:11:38.000Z</time>
      </trkpt>
      <trkpt lat="47.33799" lon="-1.52551">
        <ele>56</ele>
        <time>2021-08-28T11:11:40.000Z</time>
      </trkpt>
      <trkpt lat="47.33786" lon="-1.52546">
        <ele>56</ele>
        <time>2021-08-28T11:11:42.000Z</time>
      </trkpt>
      <trkpt lat="47.33775" lon="-1.52541">
        <ele>57</ele>
        <time>2021-08-28T11:11:44.000Z</time>
      </trkpt>
      <trkpt lat="47.33761" lon="-1.52536">
        <ele>56</ele>
        <time>2021-08-28T11:11:46.000Z</time>
      </trkpt>
      <trkpt lat="47.33746" lon="-1.52531">
        <ele>56</ele>
        <time>2021-08-28T11:11:48.000Z</time>
      </trkpt>
      <trkpt lat="47.33732" lon="-1.52525">
        <ele>56</ele>
        <time>2021-08-28T11:11:50.000Z</time>
      </trkpt>
      <trkpt lat="47.33718" lon="-1.52516">
        <ele>56</ele>
        <time>2021-08-28T11:11:52.000Z</time>
      </trkpt>
      <trkpt lat="47.33706" lon="-1.52504">
        <ele>56</ele>
        <time>2021-08-28T11:11:54.000Z</time>
      </trkpt>
      <trkpt lat="47.33696" lon="-1.52492">
        <ele>56</ele>
        <time>2021-08-28T11:11:56.000Z</time>
      </trkpt>
      <trkpt lat="47.3369" lon="-1.52478">
        <ele>56</ele>
        <time>2021-08-28T11:11:58.000Z</time>
      </trkpt>
      <trkpt lat="47.33697" lon="-1.52461">
        <ele>57</ele>
        <time>2021-08-28T11:12:00.000Z</time>
      </trkpt>
      <trkpt lat="47.33701" lon="-1.52446">
        <ele>57</ele>
        <time>2021-08-28T11:12:02.000Z</time>
      </trkpt>
      <trkpt lat="47.33705" lon="-1.52431">
        <ele>58</ele>
        <time>2021-08-28T11:12:04.000Z</time>
      </trkpt>
      <trkpt lat="47.33707" lon="-1.52415">
        <ele>58</ele>
        <time>2021-08-28T11:12:06.000Z</time>
      </trkpt>
      <trkpt lat="47.3371" lon="-1.524">
        <ele>59</ele>
        <time>2021-08-28T11:12:08.000Z</time>
      </trkpt>
      <trkpt lat="47.33714" lon="-1.52383">
        <ele>59</ele>
        <time>2021-08-28T11:12:10.000Z</time>
      </trkpt>
      <trkpt lat="47.33718" lon="-1.52366">
        <ele>60</ele>
        <time>2021-08-28T11:12:12.000Z</time>
      </trkpt>
      <trkpt lat="47.33721" lon="-1.52349">
        <ele>60</ele>
        <time>2021-08-28T11:12:14.000Z</time>
      </trkpt>
      <trkpt lat="47.33724" lon="-1.52332">
        <ele>59</ele>
        <time>2021-08-28T11:12:16.000Z</time>
      </trkpt>
      <trkpt lat="47.33727" lon="-1.52316">
        <ele>60</ele>
        <time>2021-08-28T11:12:18.000Z</time>
      </trkpt>
      <trkpt lat="47.3373" lon="-1.52299">
        <ele>60</ele>
        <time>2021-08-28T11:12:20.000Z</time>
      </trkpt>
      <trkpt lat="47.33733" lon="-1.52282">
        <ele>61</ele>
        <time>2021-08-28T11:12:22.000Z</time>
      </trkpt>
      <trkpt lat="47.33736" lon="-1.52266">
        <ele>61</ele>
        <time>2021-08-28T11:12:24.000Z</time>
      </trkpt>
      <trkpt lat="47.33739" lon="-1.5225">
        <ele>61</ele>
        <time>2021-08-28T11:12:26.000Z</time>
      </trkpt>
      <trkpt lat="47.33742" lon="-1.52232">
        <ele>61</ele>
        <time>2021-08-28T11:12:28.000Z</time>
      </trkpt>
      <trkpt lat="47.33746" lon="-1.52216">
        <ele>62</ele>
        <time>2021-08-28T11:12:30.000Z</time>
      </trkpt>
      <trkpt lat="47.33748" lon="-1.52199">
        <ele>61</ele>
        <time>2021-08-28T11:12:32.000Z</time>
      </trkpt>
      <trkpt lat="47.3375" lon="-1.52182">
        <ele>61</ele>
        <time>2021-08-28T11:12:34.000Z</time>
      </trkpt>
      <trkpt lat="47.33751" lon="-1.52164">
        <ele>61</ele>
        <time>2021-08-28T11:12:36.000Z</time>
      </trkpt>
      <trkpt lat="47.33752" lon="-1.52148">
        <ele>62</ele>
        <time>2021-08-28T11:12:38.000Z</time>
      </trkpt>
      <trkpt lat="47.33752" lon="-1.52131">
        <ele>62</ele>
        <time>2021-08-28T11:12:40.000Z</time>
      </trkpt>
      <trkpt lat="47.33753" lon="-1.52114">
        <ele>62</ele>
        <time>2021-08-28T11:12:42.000Z</time>
      </trkpt>
      <trkpt lat="47.33755" lon="-1.52099">
        <ele>63</ele>
        <time>2021-08-28T11:12:44.000Z</time>
      </trkpt>
      <trkpt lat="47.33757" lon="-1.52084">
        <ele>64</ele>
        <time>2021-08-28T11:12:46.000Z</time>
      </trkpt>
      <trkpt lat="47.33758" lon="-1.52068">
        <ele>65</ele>
        <time>2021-08-28T11:12:48.000Z</time>
      </trkpt>
      <trkpt lat="47.33758" lon="-1.52054">
        <ele>65</ele>
        <time>2021-08-28T11:12:50.000Z</time>
      </trkpt>
      <trkpt lat="47.33757" lon="-1.5204">
        <ele>65</ele>
        <time>2021-08-28T11:12:52.000Z</time>
      </trkpt>
      <trkpt lat="47.33758" lon="-1.52025">
        <ele>65</ele>
        <time>2021-08-28T11:12:54.000Z</time>
      </trkpt>
      <trkpt lat="47.33757" lon="-1.52009">
        <ele>66</ele>
        <time>2021-08-28T11:12:56.000Z</time>
      </trkpt>
      <trkpt lat="47.33754" lon="-1.51994">
        <ele>66</ele>
        <time>2021-08-28T11:12:58.000Z</time>
      </trkpt>
      <trkpt lat="47.33751" lon="-1.51977">
        <ele>67</ele>
        <time>2021-08-28T11:13:00.000Z</time>
      </trkpt>
      <trkpt lat="47.33749" lon="-1.51961">
        <ele>67</ele>
        <time>2021-08-28T11:13:02.000Z</time>
      </trkpt>
      <trkpt lat="47.33747" lon="-1.51945">
        <ele>68</ele>
        <time>2021-08-28T11:13:04.000Z</time>
      </trkpt>
      <trkpt lat="47.33746" lon="-1.51931">
        <ele>68</ele>
        <time>2021-08-28T11:13:06.000Z</time>
      </trkpt>
      <trkpt lat="47.33744" lon="-1.51915">
        <ele>69</ele>
        <time>2021-08-28T11:13:08.000Z</time>
      </trkpt>
      <trkpt lat="47.33743" lon="-1.51899">
        <ele>69</ele>
        <time>2021-08-28T11:13:10.000Z</time>
      </trkpt>
      <trkpt lat="47.33742" lon="-1.51883">
        <ele>70</ele>
        <time>2021-08-28T11:13:12.000Z</time>
      </trkpt>
      <trkpt lat="47.33742" lon="-1.51866">
        <ele>70</ele>
        <time>2021-08-28T11:13:14.000Z</time>
      </trkpt>
      <trkpt lat="47.33741" lon="-1.51851">
        <ele>70</ele>
        <time>2021-08-28T11:13:16.000Z</time>
      </trkpt>
      <trkpt lat="47.3374" lon="-1.51837">
        <ele>71</ele>
        <time>2021-08-28T11:13:18.000Z</time>
      </trkpt>
      <trkpt lat="47.3374" lon="-1.51822">
        <ele>71</ele>
        <time>2021-08-28T11:13:20.000Z</time>
      </trkpt>
      <trkpt lat="47.33739" lon="-1.51806">
        <ele>72</ele>
        <time>2021-08-28T11:13:22.000Z</time>
      </trkpt>
      <trkpt lat="47.33739" lon="-1.51783">
        <ele>72</ele>
        <time>2021-08-28T11:13:25.000Z</time>
      </trkpt>
      <trkpt lat="47.33738" lon="-1.51769">
        <ele>72</ele>
        <time>2021-08-28T11:13:27.000Z</time>
      </trkpt>
      <trkpt lat="47.33738" lon="-1.51754">
        <ele>73</ele>
        <time>2021-08-28T11:13:29.000Z</time>
      </trkpt>
      <trkpt lat="47.33736" lon="-1.5173">
        <ele>72</ele>
        <time>2021-08-28T11:13:32.000Z</time>
      </trkpt>
      <trkpt lat="47.33735" lon="-1.51714">
        <ele>72</ele>
        <time>2021-08-28T11:13:34.000Z</time>
      </trkpt>
      <trkpt lat="47.33734" lon="-1.51698">
        <ele>72</ele>
        <time>2021-08-28T11:13:36.000Z</time>
      </trkpt>
      <trkpt lat="47.33732" lon="-1.51682">
        <ele>72</ele>
        <time>2021-08-28T11:13:38.000Z</time>
      </trkpt>
      <trkpt lat="47.33729" lon="-1.51666">
        <ele>72</ele>
        <time>2021-08-28T11:13:40.000Z</time>
      </trkpt>
      <trkpt lat="47.33726" lon="-1.51649">
        <ele>71</ele>
        <time>2021-08-28T11:13:42.000Z</time>
      </trkpt>
      <trkpt lat="47.33722" lon="-1.51632">
        <ele>71</ele>
        <time>2021-08-28T11:13:44.000Z</time>
      </trkpt>
      <trkpt lat="47.33717" lon="-1.51616">
        <ele>70</ele>
        <time>2021-08-28T11:13:46.000Z</time>
      </trkpt>
      <trkpt lat="47.33712" lon="-1.51601">
        <ele>70</ele>
        <time>2021-08-28T11:13:48.000Z</time>
      </trkpt>
      <trkpt lat="47.33706" lon="-1.51574">
        <ele>70</ele>
        <time>2021-08-28T11:13:51.000Z</time>
      </trkpt>
      <trkpt lat="47.33702" lon="-1.51557">
        <ele>70</ele>
        <time>2021-08-28T11:13:53.000Z</time>
      </trkpt>
      <trkpt lat="47.33698" lon="-1.51538">
        <ele>69</ele>
        <time>2021-08-28T11:13:55.000Z</time>
      </trkpt>
      <trkpt lat="47.33695" lon="-1.51519">
        <ele>69</ele>
        <time>2021-08-28T11:13:57.000Z</time>
      </trkpt>
      <trkpt lat="47.33692" lon="-1.515">
        <ele>68</ele>
        <time>2021-08-28T11:13:59.000Z</time>
      </trkpt>
      <trkpt lat="47.3369" lon="-1.5147">
        <ele>68</ele>
        <time>2021-08-28T11:14:02.000Z</time>
      </trkpt>
      <trkpt lat="47.33689" lon="-1.51449">
        <ele>68</ele>
        <time>2021-08-28T11:14:04.000Z</time>
      </trkpt>
      <trkpt lat="47.33686" lon="-1.51427">
        <ele>67</ele>
        <time>2021-08-28T11:14:06.000Z</time>
      </trkpt>
      <trkpt lat="47.33681" lon="-1.51406">
        <ele>66</ele>
        <time>2021-08-28T11:14:08.000Z</time>
      </trkpt>
      <trkpt lat="47.33676" lon="-1.51384">
        <ele>65</ele>
        <time>2021-08-28T11:14:10.000Z</time>
      </trkpt>
      <trkpt lat="47.33671" lon="-1.51362">
        <ele>65</ele>
        <time>2021-08-28T11:14:12.000Z</time>
      </trkpt>
      <trkpt lat="47.33666" lon="-1.5134">
        <ele>65</ele>
        <time>2021-08-28T11:14:14.000Z</time>
      </trkpt>
      <trkpt lat="47.33662" lon="-1.51319">
        <ele>64</ele>
        <time>2021-08-28T11:14:16.000Z</time>
      </trkpt>
      <trkpt lat="47.33659" lon="-1.51296">
        <ele>64</ele>
        <time>2021-08-28T11:14:18.000Z</time>
      </trkpt>
      <trkpt lat="47.33656" lon="-1.51275">
        <ele>64</ele>
        <time>2021-08-28T11:14:20.000Z</time>
      </trkpt>
      <trkpt lat="47.33654" lon="-1.51254">
        <ele>63</ele>
        <time>2021-08-28T11:14:22.000Z</time>
      </trkpt>
      <trkpt lat="47.33652" lon="-1.51232">
        <ele>63</ele>
        <time>2021-08-28T11:14:24.000Z</time>
      </trkpt>
      <trkpt lat="47.33651" lon="-1.5121">
        <ele>63</ele>
        <time>2021-08-28T11:14:26.000Z</time>
      </trkpt>
      <trkpt lat="47.3365" lon="-1.51189">
        <ele>62</ele>
        <time>2021-08-28T11:14:28.000Z</time>
      </trkpt>
      <trkpt lat="47.33649" lon="-1.51167">
        <ele>63</ele>
        <time>2021-08-28T11:14:30.000Z</time>
      </trkpt>
      <trkpt lat="47.33649" lon="-1.51146">
        <ele>63</ele>
        <time>2021-08-28T11:14:32.000Z</time>
      </trkpt>
      <trkpt lat="47.33648" lon="-1.51125">
        <ele>63</ele>
        <time>2021-08-28T11:14:34.000Z</time>
      </trkpt>
      <trkpt lat="47.33648" lon="-1.51104">
        <ele>63</ele>
        <time>2021-08-28T11:14:36.000Z</time>
      </trkpt>
      <trkpt lat="47.33649" lon="-1.51084">
        <ele>63</ele>
        <time>2021-08-28T11:14:38.000Z</time>
      </trkpt>
      <trkpt lat="47.33656" lon="-1.51065">
        <ele>62</ele>
        <time>2021-08-28T11:14:40.000Z</time>
      </trkpt>
      <trkpt lat="47.33662" lon="-1.51046">
        <ele>62</ele>
        <time>2021-08-28T11:14:42.000Z</time>
      </trkpt>
      <trkpt lat="47.33667" lon="-1.51026">
        <ele>62</ele>
        <time>2021-08-28T11:14:44.000Z</time>
      </trkpt>
      <trkpt lat="47.33671" lon="-1.51006">
        <ele>62</ele>
        <time>2021-08-28T11:14:46.000Z</time>
      </trkpt>
      <trkpt lat="47.33675" lon="-1.50987">
        <ele>62</ele>
        <time>2021-08-28T11:14:48.000Z</time>
      </trkpt>
      <trkpt lat="47.33679" lon="-1.50966">
        <ele>61</ele>
        <time>2021-08-28T11:14:50.000Z</time>
      </trkpt>
      <trkpt lat="47.33683" lon="-1.50945">
        <ele>60</ele>
        <time>2021-08-28T11:14:52.000Z</time>
      </trkpt>
      <trkpt lat="47.33686" lon="-1.50924">
        <ele>59</ele>
        <time>2021-08-28T11:14:54.000Z</time>
      </trkpt>
      <trkpt lat="47.3369" lon="-1.50904">
        <ele>59</ele>
        <time>2021-08-28T11:14:56.000Z</time>
      </trkpt>
      <trkpt lat="47.33694" lon="-1.50884">
        <ele>58</ele>
        <time>2021-08-28T11:14:58.000Z</time>
      </trkpt>
      <trkpt lat="47.33699" lon="-1.50863">
        <ele>57</ele>
        <time>2021-08-28T11:15:00.000Z</time>
      </trkpt>
      <trkpt lat="47.33702" lon="-1.50843">
        <ele>57</ele>
        <time>2021-08-28T11:15:02.000Z</time>
      </trkpt>
      <trkpt lat="47.33706" lon="-1.50823">
        <ele>57</ele>
        <time>2021-08-28T11:15:04.000Z</time>
      </trkpt>
      <trkpt lat="47.3371" lon="-1.50802">
        <ele>57</ele>
        <time>2021-08-28T11:15:06.000Z</time>
      </trkpt>
      <trkpt lat="47.33714" lon="-1.50781">
        <ele>57</ele>
        <time>2021-08-28T11:15:08.000Z</time>
      </trkpt>
      <trkpt lat="47.33718" lon="-1.50761">
        <ele>57</ele>
        <time>2021-08-28T11:15:10.000Z</time>
      </trkpt>
      <trkpt lat="47.33722" lon="-1.50741">
        <ele>56</ele>
        <time>2021-08-28T11:15:12.000Z</time>
      </trkpt>
      <trkpt lat="47.33726" lon="-1.50721">
        <ele>56</ele>
        <time>2021-08-28T11:15:14.000Z</time>
      </trkpt>
      <trkpt lat="47.3373" lon="-1.50701">
        <ele>56</ele>
        <time>2021-08-28T11:15:16.000Z</time>
      </trkpt>
      <trkpt lat="47.33733" lon="-1.5068">
        <ele>56</ele>
        <time>2021-08-28T11:15:18.000Z</time>
      </trkpt>
      <trkpt lat="47.33737" lon="-1.5066">
        <ele>56</ele>
        <time>2021-08-28T11:15:20.000Z</time>
      </trkpt>
      <trkpt lat="47.33741" lon="-1.50639">
        <ele>56</ele>
        <time>2021-08-28T11:15:22.000Z</time>
      </trkpt>
      <trkpt lat="47.33746" lon="-1.50619">
        <ele>55</ele>
        <time>2021-08-28T11:15:24.000Z</time>
      </trkpt>
      <trkpt lat="47.33749" lon="-1.50598">
        <ele>55</ele>
        <time>2021-08-28T11:15:26.000Z</time>
      </trkpt>
      <trkpt lat="47.33754" lon="-1.50578">
        <ele>55</ele>
        <time>2021-08-28T11:15:28.000Z</time>
      </trkpt>
      <trkpt lat="47.33757" lon="-1.50557">
        <ele>54</ele>
        <time>2021-08-28T11:15:30.000Z</time>
      </trkpt>
      <trkpt lat="47.33761" lon="-1.50537">
        <ele>54</ele>
        <time>2021-08-28T11:15:32.000Z</time>
      </trkpt>
      <trkpt lat="47.33765" lon="-1.50517">
        <ele>54</ele>
        <time>2021-08-28T11:15:34.000Z</time>
      </trkpt>
      <trkpt lat="47.33769" lon="-1.50497">
        <ele>54</ele>
        <time>2021-08-28T11:15:36.000Z</time>
      </trkpt>
      <trkpt lat="47.33773" lon="-1.50478">
        <ele>54</ele>
        <time>2021-08-28T11:15:38.000Z</time>
      </trkpt>
      <trkpt lat="47.33777" lon="-1.50457">
        <ele>54</ele>
        <time>2021-08-28T11:15:40.000Z</time>
      </trkpt>
      <trkpt lat="47.33781" lon="-1.50437">
        <ele>54</ele>
        <time>2021-08-28T11:15:42.000Z</time>
      </trkpt>
      <trkpt lat="47.33785" lon="-1.50417">
        <ele>54</ele>
        <time>2021-08-28T11:15:44.000Z</time>
      </trkpt>
      <trkpt lat="47.33788" lon="-1.50397">
        <ele>54</ele>
        <time>2021-08-28T11:15:46.000Z</time>
      </trkpt>
      <trkpt lat="47.33789" lon="-1.50376">
        <ele>54</ele>
        <time>2021-08-28T11:15:48.000Z</time>
      </trkpt>
      <trkpt lat="47.33788" lon="-1.50356">
        <ele>54</ele>
        <time>2021-08-28T11:15:50.000Z</time>
      </trkpt>
      <trkpt lat="47.33785" lon="-1.50337">
        <ele>55</ele>
        <time>2021-08-28T11:15:52.000Z</time>
      </trkpt>
      <trkpt lat="47.33782" lon="-1.50317">
        <ele>55</ele>
        <time>2021-08-28T11:15:54.000Z</time>
      </trkpt>
      <trkpt lat="47.33779" lon="-1.50299">
        <ele>56</ele>
        <time>2021-08-28T11:15:56.000Z</time>
      </trkpt>
      <trkpt lat="47.33776" lon="-1.50281">
        <ele>56</ele>
        <time>2021-08-28T11:15:58.000Z</time>
      </trkpt>
      <trkpt lat="47.33773" lon="-1.50264">
        <ele>57</ele>
        <time>2021-08-28T11:16:00.000Z</time>
      </trkpt>
      <trkpt lat="47.33771" lon="-1.50246">
        <ele>57</ele>
        <time>2021-08-28T11:16:02.000Z</time>
      </trkpt>
      <trkpt lat="47.33767" lon="-1.50229">
        <ele>57</ele>
        <time>2021-08-28T11:16:04.000Z</time>
      </trkpt>
      <trkpt lat="47.33765" lon="-1.50212">
        <ele>58</ele>
        <time>2021-08-28T11:16:06.000Z</time>
      </trkpt>
      <trkpt lat="47.33762" lon="-1.50194">
        <ele>58</ele>
        <time>2021-08-28T11:16:08.000Z</time>
      </trkpt>
      <trkpt lat="47.33759" lon="-1.50176">
        <ele>58</ele>
        <time>2021-08-28T11:16:10.000Z</time>
      </trkpt>
      <trkpt lat="47.33757" lon="-1.50159">
        <ele>59</ele>
        <time>2021-08-28T11:16:12.000Z</time>
      </trkpt>
      <trkpt lat="47.33754" lon="-1.50142">
        <ele>58</ele>
        <time>2021-08-28T11:16:14.000Z</time>
      </trkpt>
      <trkpt lat="47.33752" lon="-1.50124">
        <ele>58</ele>
        <time>2021-08-28T11:16:16.000Z</time>
      </trkpt>
      <trkpt lat="47.33752" lon="-1.50107">
        <ele>58</ele>
        <time>2021-08-28T11:16:18.000Z</time>
      </trkpt>
      <trkpt lat="47.33751" lon="-1.5009">
        <ele>59</ele>
        <time>2021-08-28T11:16:20.000Z</time>
      </trkpt>
      <trkpt lat="47.3375" lon="-1.50073">
        <ele>59</ele>
        <time>2021-08-28T11:16:22.000Z</time>
      </trkpt>
      <trkpt lat="47.33749" lon="-1.50056">
        <ele>59</ele>
        <time>2021-08-28T11:16:24.000Z</time>
      </trkpt>
      <trkpt lat="47.33747" lon="-1.50039">
        <ele>60</ele>
        <time>2021-08-28T11:16:26.000Z</time>
      </trkpt>
      <trkpt lat="47.33744" lon="-1.50023">
        <ele>59</ele>
        <time>2021-08-28T11:16:28.000Z</time>
      </trkpt>
      <trkpt lat="47.3374" lon="-1.50006">
        <ele>60</ele>
        <time>2021-08-28T11:16:30.000Z</time>
      </trkpt>
      <trkpt lat="47.33737" lon="-1.4999">
        <ele>60</ele>
        <time>2021-08-28T11:16:32.000Z</time>
      </trkpt>
      <trkpt lat="47.33733" lon="-1.49974">
        <ele>60</ele>
        <time>2021-08-28T11:16:34.000Z</time>
      </trkpt>
      <trkpt lat="47.33728" lon="-1.49957">
        <ele>60</ele>
        <time>2021-08-28T11:16:36.000Z</time>
      </trkpt>
      <trkpt lat="47.33721" lon="-1.4994">
        <ele>59</ele>
        <time>2021-08-28T11:16:38.000Z</time>
      </trkpt>
      <trkpt lat="47.33712" lon="-1.49923">
        <ele>58</ele>
        <time>2021-08-28T11:16:40.000Z</time>
      </trkpt>
      <trkpt lat="47.33699" lon="-1.49909">
        <ele>57</ele>
        <time>2021-08-28T11:16:42.000Z</time>
      </trkpt>
      <trkpt lat="47.33686" lon="-1.49895">
        <ele>56</ele>
        <time>2021-08-28T11:16:44.000Z</time>
      </trkpt>
      <trkpt lat="47.33674" lon="-1.49878">
        <ele>55</ele>
        <time>2021-08-28T11:16:46.000Z</time>
      </trkpt>
      <trkpt lat="47.33664" lon="-1.49857">
        <ele>55</ele>
        <time>2021-08-28T11:16:48.000Z</time>
      </trkpt>
      <trkpt lat="47.33657" lon="-1.49835">
        <ele>54</ele>
        <time>2021-08-28T11:16:50.000Z</time>
      </trkpt>
      <trkpt lat="47.33652" lon="-1.49811">
        <ele>54</ele>
        <time>2021-08-28T11:16:52.000Z</time>
      </trkpt>
      <trkpt lat="47.33651" lon="-1.49787">
        <ele>53</ele>
        <time>2021-08-28T11:16:54.000Z</time>
      </trkpt>
      <trkpt lat="47.33649" lon="-1.49764">
        <ele>53</ele>
        <time>2021-08-28T11:16:56.000Z</time>
      </trkpt>
      <trkpt lat="47.33647" lon="-1.4974">
        <ele>52</ele>
        <time>2021-08-28T11:16:58.000Z</time>
      </trkpt>
      <trkpt lat="47.33643" lon="-1.49717">
        <ele>52</ele>
        <time>2021-08-28T11:17:00.000Z</time>
      </trkpt>
      <trkpt lat="47.33641" lon="-1.49694">
        <ele>53</ele>
        <time>2021-08-28T11:17:02.000Z</time>
      </trkpt>
      <trkpt lat="47.33638" lon="-1.49673">
        <ele>53</ele>
        <time>2021-08-28T11:17:04.000Z</time>
      </trkpt>
      <trkpt lat="47.33636" lon="-1.49653">
        <ele>53</ele>
        <time>2021-08-28T11:17:06.000Z</time>
      </trkpt>
      <trkpt lat="47.33636" lon="-1.49632">
        <ele>53</ele>
        <time>2021-08-28T11:17:08.000Z</time>
      </trkpt>
      <trkpt lat="47.33638" lon="-1.49612">
        <ele>54</ele>
        <time>2021-08-28T11:17:10.000Z</time>
      </trkpt>
      <trkpt lat="47.33638" lon="-1.49593">
        <ele>54</ele>
        <time>2021-08-28T11:17:12.000Z</time>
      </trkpt>
      <trkpt lat="47.33638" lon="-1.49574">
        <ele>54</ele>
        <time>2021-08-28T11:17:14.000Z</time>
      </trkpt>
      <trkpt lat="47.33636" lon="-1.49556">
        <ele>54</ele>
        <time>2021-08-28T11:17:16.000Z</time>
      </trkpt>
      <trkpt lat="47.33633" lon="-1.49538">
        <ele>54</ele>
        <time>2021-08-28T11:17:18.000Z</time>
      </trkpt>
      <trkpt lat="47.33628" lon="-1.49519">
        <ele>55</ele>
        <time>2021-08-28T11:17:20.000Z</time>
      </trkpt>
      <trkpt lat="47.33624" lon="-1.495">
        <ele>56</ele>
        <time>2021-08-28T11:17:22.000Z</time>
      </trkpt>
      <trkpt lat="47.33618" lon="-1.49481">
        <ele>56</ele>
        <time>2021-08-28T11:17:24.000Z</time>
      </trkpt>
      <trkpt lat="47.3361" lon="-1.49463">
        <ele>56</ele>
        <time>2021-08-28T11:17:26.000Z</time>
      </trkpt>
      <trkpt lat="47.33603" lon="-1.49444">
        <ele>55</ele>
        <time>2021-08-28T11:17:28.000Z</time>
      </trkpt>
      <trkpt lat="47.33595" lon="-1.49427">
        <ele>55</ele>
        <time>2021-08-28T11:17:30.000Z</time>
      </trkpt>
      <trkpt lat="47.33588" lon="-1.4941">
        <ele>55</ele>
        <time>2021-08-28T11:17:32.000Z</time>
      </trkpt>
      <trkpt lat="47.3358" lon="-1.49393">
        <ele>54</ele>
        <time>2021-08-28T11:17:34.000Z</time>
      </trkpt>
      <trkpt lat="47.33573" lon="-1.49376">
        <ele>54</ele>
        <time>2021-08-28T11:17:36.000Z</time>
      </trkpt>
      <trkpt lat="47.33567" lon="-1.4936">
        <ele>54</ele>
        <time>2021-08-28T11:17:38.000Z</time>
      </trkpt>
      <trkpt lat="47.33562" lon="-1.49344">
        <ele>53</ele>
        <time>2021-08-28T11:17:40.000Z</time>
      </trkpt>
      <trkpt lat="47.33564" lon="-1.49326">
        <ele>53</ele>
        <time>2021-08-28T11:17:42.000Z</time>
      </trkpt>
      <trkpt lat="47.33574" lon="-1.49314">
        <ele>53</ele>
        <time>2021-08-28T11:17:44.000Z</time>
      </trkpt>
      <trkpt lat="47.33585" lon="-1.49301">
        <ele>53</ele>
        <time>2021-08-28T11:17:46.000Z</time>
      </trkpt>
      <trkpt lat="47.33595" lon="-1.49288">
        <ele>53</ele>
        <time>2021-08-28T11:17:48.000Z</time>
      </trkpt>
      <trkpt lat="47.33605" lon="-1.49274">
        <ele>54</ele>
        <time>2021-08-28T11:17:50.000Z</time>
      </trkpt>
      <trkpt lat="47.33615" lon="-1.49262">
        <ele>54</ele>
        <time>2021-08-28T11:17:52.000Z</time>
      </trkpt>
      <trkpt lat="47.33625" lon="-1.49249">
        <ele>55</ele>
        <time>2021-08-28T11:17:54.000Z</time>
      </trkpt>
      <trkpt lat="47.33634" lon="-1.49237">
        <ele>55</ele>
        <time>2021-08-28T11:17:56.000Z</time>
      </trkpt>
      <trkpt lat="47.33644" lon="-1.49225">
        <ele>55</ele>
        <time>2021-08-28T11:17:58.000Z</time>
      </trkpt>
      <trkpt lat="47.33653" lon="-1.49214">
        <ele>55</ele>
        <time>2021-08-28T11:18:00.000Z</time>
      </trkpt>
      <trkpt lat="47.33663" lon="-1.49203">
        <ele>55</ele>
        <time>2021-08-28T11:18:02.000Z</time>
      </trkpt>
      <trkpt lat="47.33672" lon="-1.49191">
        <ele>55</ele>
        <time>2021-08-28T11:18:04.000Z</time>
      </trkpt>
      <trkpt lat="47.3368" lon="-1.4918">
        <ele>55</ele>
        <time>2021-08-28T11:18:06.000Z</time>
      </trkpt>
      <trkpt lat="47.33687" lon="-1.49167">
        <ele>55</ele>
        <time>2021-08-28T11:18:08.000Z</time>
      </trkpt>
      <trkpt lat="47.33693" lon="-1.49152">
        <ele>55</ele>
        <time>2021-08-28T11:18:10.000Z</time>
      </trkpt>
      <trkpt lat="47.33695" lon="-1.49136">
        <ele>55</ele>
        <time>2021-08-28T11:18:12.000Z</time>
      </trkpt>
      <trkpt lat="47.33697" lon="-1.49119">
        <ele>56</ele>
        <time>2021-08-28T11:18:14.000Z</time>
      </trkpt>
      <trkpt lat="47.33698" lon="-1.49103">
        <ele>57</ele>
        <time>2021-08-28T11:18:16.000Z</time>
      </trkpt>
      <trkpt lat="47.33702" lon="-1.49088">
        <ele>57</ele>
        <time>2021-08-28T11:18:18.000Z</time>
      </trkpt>
      <trkpt lat="47.33709" lon="-1.49076">
        <ele>58</ele>
        <time>2021-08-28T11:18:20.000Z</time>
      </trkpt>
      <trkpt lat="47.33717" lon="-1.49065">
        <ele>58</ele>
        <time>2021-08-28T11:18:22.000Z</time>
      </trkpt>
      <trkpt lat="47.33724" lon="-1.49056">
        <ele>58</ele>
        <time>2021-08-28T11:18:24.000Z</time>
      </trkpt>
      <trkpt lat="47.33732" lon="-1.49047">
        <ele>58</ele>
        <time>2021-08-28T11:18:26.000Z</time>
      </trkpt>
      <trkpt lat="47.3374" lon="-1.49038">
        <ele>59</ele>
        <time>2021-08-28T11:18:28.000Z</time>
      </trkpt>
      <trkpt lat="47.33748" lon="-1.49029">
        <ele>59</ele>
        <time>2021-08-28T11:18:30.000Z</time>
      </trkpt>
      <trkpt lat="47.33756" lon="-1.4902">
        <ele>59</ele>
        <time>2021-08-28T11:18:32.000Z</time>
      </trkpt>
      <trkpt lat="47.33765" lon="-1.4901">
        <ele>59</ele>
        <time>2021-08-28T11:18:34.000Z</time>
      </trkpt>
      <trkpt lat="47.33772" lon="-1.49001">
        <ele>60</ele>
        <time>2021-08-28T11:18:36.000Z</time>
      </trkpt>
      <trkpt lat="47.3378" lon="-1.4899">
        <ele>60</ele>
        <time>2021-08-28T11:18:38.000Z</time>
      </trkpt>
      <trkpt lat="47.33788" lon="-1.4898">
        <ele>60</ele>
        <time>2021-08-28T11:18:40.000Z</time>
      </trkpt>
      <trkpt lat="47.33797" lon="-1.4897">
        <ele>60</ele>
        <time>2021-08-28T11:18:42.000Z</time>
      </trkpt>
      <trkpt lat="47.33805" lon="-1.48958">
        <ele>59</ele>
        <time>2021-08-28T11:18:44.000Z</time>
      </trkpt>
      <trkpt lat="47.33813" lon="-1.48946">
        <ele>59</ele>
        <time>2021-08-28T11:18:46.000Z</time>
      </trkpt>
      <trkpt lat="47.33821" lon="-1.48933">
        <ele>59</ele>
        <time>2021-08-28T11:18:48.000Z</time>
      </trkpt>
      <trkpt lat="47.33829" lon="-1.4892">
        <ele>58</ele>
        <time>2021-08-28T11:18:50.000Z</time>
      </trkpt>
      <trkpt lat="47.33838" lon="-1.48907">
        <ele>58</ele>
        <time>2021-08-28T11:18:52.000Z</time>
      </trkpt>
      <trkpt lat="47.33847" lon="-1.48893">
        <ele>58</ele>
        <time>2021-08-28T11:18:54.000Z</time>
      </trkpt>
      <trkpt lat="47.33855" lon="-1.4888">
        <ele>57</ele>
        <time>2021-08-28T11:18:56.000Z</time>
      </trkpt>
      <trkpt lat="47.33864" lon="-1.48866">
        <ele>57</ele>
        <time>2021-08-28T11:18:58.000Z</time>
      </trkpt>
      <trkpt lat="47.33873" lon="-1.48854">
        <ele>57</ele>
        <time>2021-08-28T11:19:00.000Z</time>
      </trkpt>
      <trkpt lat="47.33881" lon="-1.4884">
        <ele>56</ele>
        <time>2021-08-28T11:19:02.000Z</time>
      </trkpt>
      <trkpt lat="47.3389" lon="-1.48826">
        <ele>56</ele>
        <time>2021-08-28T11:19:04.000Z</time>
      </trkpt>
      <trkpt lat="47.33899" lon="-1.48812">
        <ele>55</ele>
        <time>2021-08-28T11:19:06.000Z</time>
      </trkpt>
      <trkpt lat="47.33908" lon="-1.48797">
        <ele>55</ele>
        <time>2021-08-28T11:19:08.000Z</time>
      </trkpt>
      <trkpt lat="47.33917" lon="-1.48782">
        <ele>55</ele>
        <time>2021-08-28T11:19:10.000Z</time>
      </trkpt>
      <trkpt lat="47.33927" lon="-1.48767">
        <ele>54</ele>
        <time>2021-08-28T11:19:12.000Z</time>
      </trkpt>
      <trkpt lat="47.33937" lon="-1.48751">
        <ele>54</ele>
        <time>2021-08-28T11:19:14.000Z</time>
      </trkpt>
      <trkpt lat="47.33947" lon="-1.48736">
        <ele>54</ele>
        <time>2021-08-28T11:19:16.000Z</time>
      </trkpt>
      <trkpt lat="47.33956" lon="-1.4872">
        <ele>53</ele>
        <time>2021-08-28T11:19:18.000Z</time>
      </trkpt>
      <trkpt lat="47.33967" lon="-1.48705">
        <ele>53</ele>
        <time>2021-08-28T11:19:20.000Z</time>
      </trkpt>
      <trkpt lat="47.33976" lon="-1.48689">
        <ele>53</ele>
        <time>2021-08-28T11:19:22.000Z</time>
      </trkpt>
      <trkpt lat="47.33986" lon="-1.48672">
        <ele>53</ele>
        <time>2021-08-28T11:19:24.000Z</time>
      </trkpt>
      <trkpt lat="47.33996" lon="-1.48655">
        <ele>52</ele>
        <time>2021-08-28T11:19:26.000Z</time>
      </trkpt>
      <trkpt lat="47.34005" lon="-1.48639">
        <ele>52</ele>
        <time>2021-08-28T11:19:28.000Z</time>
      </trkpt>
      <trkpt lat="47.34015" lon="-1.48623">
        <ele>52</ele>
        <time>2021-08-28T11:19:30.000Z</time>
      </trkpt>
      <trkpt lat="47.34024" lon="-1.48607">
        <ele>52</ele>
        <time>2021-08-28T11:19:32.000Z</time>
      </trkpt>
      <trkpt lat="47.34033" lon="-1.48591">
        <ele>52</ele>
        <time>2021-08-28T11:19:34.000Z</time>
      </trkpt>
      <trkpt lat="47.34042" lon="-1.48575">
        <ele>52</ele>
        <time>2021-08-28T11:19:36.000Z</time>
      </trkpt>
      <trkpt lat="47.34049" lon="-1.4856">
        <ele>52</ele>
        <time>2021-08-28T11:19:38.000Z</time>
      </trkpt>
      <trkpt lat="47.34057" lon="-1.48544">
        <ele>52</ele>
        <time>2021-08-28T11:19:40.000Z</time>
      </trkpt>
      <trkpt lat="47.34065" lon="-1.48528">
        <ele>52</ele>
        <time>2021-08-28T11:19:42.000Z</time>
      </trkpt>
      <trkpt lat="47.34072" lon="-1.48513">
        <ele>52</ele>
        <time>2021-08-28T11:19:44.000Z</time>
      </trkpt>
      <trkpt lat="47.34079" lon="-1.48496">
        <ele>52</ele>
        <time>2021-08-28T11:19:46.000Z</time>
      </trkpt>
      <trkpt lat="47.34087" lon="-1.4848">
        <ele>52</ele>
        <time>2021-08-28T11:19:48.000Z</time>
      </trkpt>
      <trkpt lat="47.34095" lon="-1.48464">
        <ele>52</ele>
        <time>2021-08-28T11:19:50.000Z</time>
      </trkpt>
      <trkpt lat="47.34102" lon="-1.48448">
        <ele>51</ele>
        <time>2021-08-28T11:19:52.000Z</time>
      </trkpt>
      <trkpt lat="47.3411" lon="-1.48431">
        <ele>51</ele>
        <time>2021-08-28T11:19:54.000Z</time>
      </trkpt>
      <trkpt lat="47.34118" lon="-1.48415">
        <ele>51</ele>
        <time>2021-08-28T11:19:56.000Z</time>
      </trkpt>
      <trkpt lat="47.34126" lon="-1.48398">
        <ele>51</ele>
        <time>2021-08-28T11:19:58.000Z</time>
      </trkpt>
      <trkpt lat="47.34133" lon="-1.48382">
        <ele>51</ele>
        <time>2021-08-28T11:20:00.000Z</time>
      </trkpt>
      <trkpt lat="47.34141" lon="-1.48366">
        <ele>52</ele>
        <time>2021-08-28T11:20:02.000Z</time>
      </trkpt>
      <trkpt lat="47.34149" lon="-1.4835">
        <ele>52</ele>
        <time>2021-08-28T11:20:04.000Z</time>
      </trkpt>
      <trkpt lat="47.34157" lon="-1.48334">
        <ele>52</ele>
        <time>2021-08-28T11:20:06.000Z</time>
      </trkpt>
      <trkpt lat="47.34165" lon="-1.48317">
        <ele>52</ele>
        <time>2021-08-28T11:20:08.000Z</time>
      </trkpt>
      <trkpt lat="47.34173" lon="-1.48301">
        <ele>52</ele>
        <time>2021-08-28T11:20:10.000Z</time>
      </trkpt>
      <trkpt lat="47.3418" lon="-1.48285">
        <ele>52</ele>
        <time>2021-08-28T11:20:12.000Z</time>
      </trkpt>
      <trkpt lat="47.34188" lon="-1.48269">
        <ele>51</ele>
        <time>2021-08-28T11:20:14.000Z</time>
      </trkpt>
      <trkpt lat="47.34196" lon="-1.48255">
        <ele>51</ele>
        <time>2021-08-28T11:20:16.000Z</time>
      </trkpt>
      <trkpt lat="47.34204" lon="-1.4824">
        <ele>51</ele>
        <time>2021-08-28T11:20:18.000Z</time>
      </trkpt>
      <trkpt lat="47.34213" lon="-1.48226">
        <ele>51</ele>
        <time>2021-08-28T11:20:20.000Z</time>
      </trkpt>
      <trkpt lat="47.34222" lon="-1.48211">
        <ele>50</ele>
        <time>2021-08-28T11:20:22.000Z</time>
      </trkpt>
      <trkpt lat="47.34231" lon="-1.48196">
        <ele>50</ele>
        <time>2021-08-28T11:20:24.000Z</time>
      </trkpt>
      <trkpt lat="47.3424" lon="-1.48182">
        <ele>50</ele>
        <time>2021-08-28T11:20:26.000Z</time>
      </trkpt>
      <trkpt lat="47.34249" lon="-1.48167">
        <ele>50</ele>
        <time>2021-08-28T11:20:28.000Z</time>
      </trkpt>
      <trkpt lat="47.34258" lon="-1.48153">
        <ele>50</ele>
        <time>2021-08-28T11:20:30.000Z</time>
      </trkpt>
      <trkpt lat="47.34267" lon="-1.48139">
        <ele>50</ele>
        <time>2021-08-28T11:20:32.000Z</time>
      </trkpt>
      <trkpt lat="47.34276" lon="-1.48124">
        <ele>51</ele>
        <time>2021-08-28T11:20:34.000Z</time>
      </trkpt>
      <trkpt lat="47.34284" lon="-1.4811">
        <ele>51</ele>
        <time>2021-08-28T11:20:36.000Z</time>
      </trkpt>
      <trkpt lat="47.34292" lon="-1.48096">
        <ele>51</ele>
        <time>2021-08-28T11:20:38.000Z</time>
      </trkpt>
      <trkpt lat="47.34302" lon="-1.48082">
        <ele>51</ele>
        <time>2021-08-28T11:20:40.000Z</time>
      </trkpt>
      <trkpt lat="47.34311" lon="-1.48067">
        <ele>51</ele>
        <time>2021-08-28T11:20:42.000Z</time>
      </trkpt>
      <trkpt lat="47.3432" lon="-1.48053">
        <ele>51</ele>
        <time>2021-08-28T11:20:44.000Z</time>
      </trkpt>
      <trkpt lat="47.34329" lon="-1.48038">
        <ele>51</ele>
        <time>2021-08-28T11:20:46.000Z</time>
      </trkpt>
      <trkpt lat="47.34337" lon="-1.48025">
        <ele>51</ele>
        <time>2021-08-28T11:20:48.000Z</time>
      </trkpt>
      <trkpt lat="47.34346" lon="-1.48011">
        <ele>51</ele>
        <time>2021-08-28T11:20:50.000Z</time>
      </trkpt>
      <trkpt lat="47.34355" lon="-1.47997">
        <ele>51</ele>
        <time>2021-08-28T11:20:52.000Z</time>
      </trkpt>
      <trkpt lat="47.34363" lon="-1.47984">
        <ele>50</ele>
        <time>2021-08-28T11:20:54.000Z</time>
      </trkpt>
      <trkpt lat="47.34372" lon="-1.4797">
        <ele>50</ele>
        <time>2021-08-28T11:20:56.000Z</time>
      </trkpt>
      <trkpt lat="47.34381" lon="-1.47957">
        <ele>50</ele>
        <time>2021-08-28T11:20:58.000Z</time>
      </trkpt>
      <trkpt lat="47.34389" lon="-1.47944">
        <ele>51</ele>
        <time>2021-08-28T11:21:00.000Z</time>
      </trkpt>
      <trkpt lat="47.34398" lon="-1.4793">
        <ele>51</ele>
        <time>2021-08-28T11:21:02.000Z</time>
      </trkpt>
      <trkpt lat="47.34408" lon="-1.47917">
        <ele>51</ele>
        <time>2021-08-28T11:21:04.000Z</time>
      </trkpt>
      <trkpt lat="47.34417" lon="-1.47905">
        <ele>52</ele>
        <time>2021-08-28T11:21:06.000Z</time>
      </trkpt>
      <trkpt lat="47.34426" lon="-1.47893">
        <ele>52</ele>
        <time>2021-08-28T11:21:08.000Z</time>
      </trkpt>
      <trkpt lat="47.34436" lon="-1.47881">
        <ele>52</ele>
        <time>2021-08-28T11:21:10.000Z</time>
      </trkpt>
      <trkpt lat="47.34445" lon="-1.47871">
        <ele>52</ele>
        <time>2021-08-28T11:21:12.000Z</time>
      </trkpt>
      <trkpt lat="47.34455" lon="-1.47859">
        <ele>52</ele>
        <time>2021-08-28T11:21:14.000Z</time>
      </trkpt>
      <trkpt lat="47.34465" lon="-1.47848">
        <ele>52</ele>
        <time>2021-08-28T11:21:16.000Z</time>
      </trkpt>
      <trkpt lat="47.34475" lon="-1.47836">
        <ele>52</ele>
        <time>2021-08-28T11:21:18.000Z</time>
      </trkpt>
      <trkpt lat="47.34485" lon="-1.47824">
        <ele>51</ele>
        <time>2021-08-28T11:21:20.000Z</time>
      </trkpt>
      <trkpt lat="47.34494" lon="-1.47814">
        <ele>52</ele>
        <time>2021-08-28T11:21:22.000Z</time>
      </trkpt>
      <trkpt lat="47.34503" lon="-1.47804">
        <ele>51</ele>
        <time>2021-08-28T11:21:24.000Z</time>
      </trkpt>
      <trkpt lat="47.34513" lon="-1.47793">
        <ele>51</ele>
        <time>2021-08-28T11:21:26.000Z</time>
      </trkpt>
      <trkpt lat="47.34523" lon="-1.47782">
        <ele>51</ele>
        <time>2021-08-28T11:21:28.000Z</time>
      </trkpt>
      <trkpt lat="47.34532" lon="-1.47771">
        <ele>51</ele>
        <time>2021-08-28T11:21:30.000Z</time>
      </trkpt>
      <trkpt lat="47.34542" lon="-1.47761">
        <ele>51</ele>
        <time>2021-08-28T11:21:32.000Z</time>
      </trkpt>
      <trkpt lat="47.34552" lon="-1.4775">
        <ele>51</ele>
        <time>2021-08-28T11:21:34.000Z</time>
      </trkpt>
      <trkpt lat="47.34561" lon="-1.47738">
        <ele>51</ele>
        <time>2021-08-28T11:21:36.000Z</time>
      </trkpt>
      <trkpt lat="47.34571" lon="-1.47728">
        <ele>51</ele>
        <time>2021-08-28T11:21:38.000Z</time>
      </trkpt>
      <trkpt lat="47.34581" lon="-1.47717">
        <ele>51</ele>
        <time>2021-08-28T11:21:40.000Z</time>
      </trkpt>
      <trkpt lat="47.34591" lon="-1.47705">
        <ele>51</ele>
        <time>2021-08-28T11:21:42.000Z</time>
      </trkpt>
      <trkpt lat="47.346" lon="-1.47694">
        <ele>51</ele>
        <time>2021-08-28T11:21:44.000Z</time>
      </trkpt>
      <trkpt lat="47.3461" lon="-1.47684">
        <ele>51</ele>
        <time>2021-08-28T11:21:46.000Z</time>
      </trkpt>
      <trkpt lat="47.34619" lon="-1.47674">
        <ele>51</ele>
        <time>2021-08-28T11:21:48.000Z</time>
      </trkpt>
      <trkpt lat="47.34629" lon="-1.47663">
        <ele>52</ele>
        <time>2021-08-28T11:21:50.000Z</time>
      </trkpt>
      <trkpt lat="47.34638" lon="-1.47652">
        <ele>51</ele>
        <time>2021-08-28T11:21:52.000Z</time>
      </trkpt>
      <trkpt lat="47.34647" lon="-1.47643">
        <ele>52</ele>
        <time>2021-08-28T11:21:54.000Z</time>
      </trkpt>
      <trkpt lat="47.34656" lon="-1.47632">
        <ele>52</ele>
        <time>2021-08-28T11:21:56.000Z</time>
      </trkpt>
      <trkpt lat="47.34666" lon="-1.47622">
        <ele>52</ele>
        <time>2021-08-28T11:21:58.000Z</time>
      </trkpt>
      <trkpt lat="47.34675" lon="-1.47612">
        <ele>52</ele>
        <time>2021-08-28T11:22:00.000Z</time>
      </trkpt>
      <trkpt lat="47.34685" lon="-1.47601">
        <ele>52</ele>
        <time>2021-08-28T11:22:02.000Z</time>
      </trkpt>
      <trkpt lat="47.34694" lon="-1.47591">
        <ele>52</ele>
        <time>2021-08-28T11:22:04.000Z</time>
      </trkpt>
      <trkpt lat="47.34703" lon="-1.47581">
        <ele>52</ele>
        <time>2021-08-28T11:22:06.000Z</time>
      </trkpt>
      <trkpt lat="47.34711" lon="-1.47571">
        <ele>52</ele>
        <time>2021-08-28T11:22:08.000Z</time>
      </trkpt>
      <trkpt lat="47.3472" lon="-1.47562">
        <ele>52</ele>
        <time>2021-08-28T11:22:10.000Z</time>
      </trkpt>
      <trkpt lat="47.34729" lon="-1.47551">
        <ele>52</ele>
        <time>2021-08-28T11:22:12.000Z</time>
      </trkpt>
      <trkpt lat="47.34738" lon="-1.47541">
        <ele>52</ele>
        <time>2021-08-28T11:22:14.000Z</time>
      </trkpt>
      <trkpt lat="47.34747" lon="-1.4753">
        <ele>52</ele>
        <time>2021-08-28T11:22:16.000Z</time>
      </trkpt>
      <trkpt lat="47.34756" lon="-1.47518">
        <ele>52</ele>
        <time>2021-08-28T11:22:18.000Z</time>
      </trkpt>
      <trkpt lat="47.34765" lon="-1.47505">
        <ele>52</ele>
        <time>2021-08-28T11:22:20.000Z</time>
      </trkpt>
      <trkpt lat="47.34773" lon="-1.47492">
        <ele>51</ele>
        <time>2021-08-28T11:22:22.000Z</time>
      </trkpt>
      <trkpt lat="47.34781" lon="-1.47478">
        <ele>51</ele>
        <time>2021-08-28T11:22:24.000Z</time>
      </trkpt>
      <trkpt lat="47.34788" lon="-1.47462">
        <ele>51</ele>
        <time>2021-08-28T11:22:26.000Z</time>
      </trkpt>
      <trkpt lat="47.34794" lon="-1.47446">
        <ele>51</ele>
        <time>2021-08-28T11:22:28.000Z</time>
      </trkpt>
      <trkpt lat="47.34799" lon="-1.47429">
        <ele>51</ele>
        <time>2021-08-28T11:22:30.000Z</time>
      </trkpt>
      <trkpt lat="47.34805" lon="-1.47413">
        <ele>51</ele>
        <time>2021-08-28T11:22:32.000Z</time>
      </trkpt>
      <trkpt lat="47.34812" lon="-1.47398">
        <ele>51</ele>
        <time>2021-08-28T11:22:34.000Z</time>
      </trkpt>
      <trkpt lat="47.34819" lon="-1.47383">
        <ele>51</ele>
        <time>2021-08-28T11:22:36.000Z</time>
      </trkpt>
      <trkpt lat="47.34826" lon="-1.47369">
        <ele>51</ele>
        <time>2021-08-28T11:22:38.000Z</time>
      </trkpt>
      <trkpt lat="47.34835" lon="-1.47356">
        <ele>52</ele>
        <time>2021-08-28T11:22:40.000Z</time>
      </trkpt>
      <trkpt lat="47.34844" lon="-1.47343">
        <ele>52</ele>
        <time>2021-08-28T11:22:42.000Z</time>
      </trkpt>
      <trkpt lat="47.34854" lon="-1.47332">
        <ele>52</ele>
        <time>2021-08-28T11:22:44.000Z</time>
      </trkpt>
      <trkpt lat="47.34864" lon="-1.47322">
        <ele>52</ele>
        <time>2021-08-28T11:22:46.000Z</time>
      </trkpt>
      <trkpt lat="47.34875" lon="-1.47313">
        <ele>52</ele>
        <time>2021-08-28T11:22:48.000Z</time>
      </trkpt>
      <trkpt lat="47.34886" lon="-1.47305">
        <ele>52</ele>
        <time>2021-08-28T11:22:50.000Z</time>
      </trkpt>
      <trkpt lat="47.34896" lon="-1.47297">
        <ele>53</ele>
        <time>2021-08-28T11:22:52.000Z</time>
      </trkpt>
      <trkpt lat="47.34906" lon="-1.47289">
        <ele>53</ele>
        <time>2021-08-28T11:22:54.000Z</time>
      </trkpt>
      <trkpt lat="47.34916" lon="-1.47281">
        <ele>53</ele>
        <time>2021-08-28T11:22:56.000Z</time>
      </trkpt>
      <trkpt lat="47.34926" lon="-1.47275">
        <ele>54</ele>
        <time>2021-08-28T11:22:58.000Z</time>
      </trkpt>
      <trkpt lat="47.34936" lon="-1.47269">
        <ele>53</ele>
        <time>2021-08-28T11:23:00.000Z</time>
      </trkpt>
      <trkpt lat="47.34946" lon="-1.47262">
        <ele>54</ele>
        <time>2021-08-28T11:23:02.000Z</time>
      </trkpt>
      <trkpt lat="47.34956" lon="-1.47257">
        <ele>54</ele>
        <time>2021-08-28T11:23:04.000Z</time>
      </trkpt>
      <trkpt lat="47.34966" lon="-1.47253">
        <ele>55</ele>
        <time>2021-08-28T11:23:06.000Z</time>
      </trkpt>
      <trkpt lat="47.34977" lon="-1.47248">
        <ele>55</ele>
        <time>2021-08-28T11:23:08.000Z</time>
      </trkpt>
      <trkpt lat="47.34987" lon="-1.47241">
        <ele>56</ele>
        <time>2021-08-28T11:23:10.000Z</time>
      </trkpt>
      <trkpt lat="47.34996" lon="-1.47231">
        <ele>56</ele>
        <time>2021-08-28T11:23:12.000Z</time>
      </trkpt>
      <trkpt lat="47.35005" lon="-1.47222">
        <ele>56</ele>
        <time>2021-08-28T11:23:14.000Z</time>
      </trkpt>
      <trkpt lat="47.35015" lon="-1.47215">
        <ele>56</ele>
        <time>2021-08-28T11:23:16.000Z</time>
      </trkpt>
      <trkpt lat="47.35025" lon="-1.47211">
        <ele>55</ele>
        <time>2021-08-28T11:23:18.000Z</time>
      </trkpt>
      <trkpt lat="47.35036" lon="-1.47212">
        <ele>56</ele>
        <time>2021-08-28T11:23:20.000Z</time>
      </trkpt>
      <trkpt lat="47.35048" lon="-1.47218">
        <ele>56</ele>
        <time>2021-08-28T11:23:22.000Z</time>
      </trkpt>
      <trkpt lat="47.35058" lon="-1.47223">
        <ele>55</ele>
        <time>2021-08-28T11:23:24.000Z</time>
      </trkpt>
      <trkpt lat="47.35069" lon="-1.47227">
        <ele>55</ele>
        <time>2021-08-28T11:23:26.000Z</time>
      </trkpt>
      <trkpt lat="47.35081" lon="-1.47229">
        <ele>55</ele>
        <time>2021-08-28T11:23:28.000Z</time>
      </trkpt>
      <trkpt lat="47.35092" lon="-1.47232">
        <ele>56</ele>
        <time>2021-08-28T11:23:30.000Z</time>
      </trkpt>
      <trkpt lat="47.35104" lon="-1.47235">
        <ele>56</ele>
        <time>2021-08-28T11:23:32.000Z</time>
      </trkpt>
      <trkpt lat="47.35116" lon="-1.47238">
        <ele>55</ele>
        <time>2021-08-28T11:23:34.000Z</time>
      </trkpt>
      <trkpt lat="47.35129" lon="-1.47241">
        <ele>55</ele>
        <time>2021-08-28T11:23:36.000Z</time>
      </trkpt>
      <trkpt lat="47.35141" lon="-1.47243">
        <ele>55</ele>
        <time>2021-08-28T11:23:38.000Z</time>
      </trkpt>
      <trkpt lat="47.35153" lon="-1.47243">
        <ele>54</ele>
        <time>2021-08-28T11:23:40.000Z</time>
      </trkpt>
      <trkpt lat="47.35165" lon="-1.47241">
        <ele>54</ele>
        <time>2021-08-28T11:23:42.000Z</time>
      </trkpt>
      <trkpt lat="47.35177" lon="-1.47237">
        <ele>55</ele>
        <time>2021-08-28T11:23:44.000Z</time>
      </trkpt>
      <trkpt lat="47.35188" lon="-1.47233">
        <ele>54</ele>
        <time>2021-08-28T11:23:46.000Z</time>
      </trkpt>
      <trkpt lat="47.352" lon="-1.47232">
        <ele>54</ele>
        <time>2021-08-28T11:23:48.000Z</time>
      </trkpt>
      <trkpt lat="47.35212" lon="-1.47238">
        <ele>54</ele>
        <time>2021-08-28T11:23:50.000Z</time>
      </trkpt>
      <trkpt lat="47.35221" lon="-1.4725">
        <ele>54</ele>
        <time>2021-08-28T11:23:52.000Z</time>
      </trkpt>
      <trkpt lat="47.35229" lon="-1.47264">
        <ele>54</ele>
        <time>2021-08-28T11:23:54.000Z</time>
      </trkpt>
      <trkpt lat="47.35236" lon="-1.47278">
        <ele>54</ele>
        <time>2021-08-28T11:23:56.000Z</time>
      </trkpt>
      <trkpt lat="47.35242" lon="-1.47291">
        <ele>54</ele>
        <time>2021-08-28T11:23:58.000Z</time>
      </trkpt>
      <trkpt lat="47.35252" lon="-1.47301">
        <ele>53</ele>
        <time>2021-08-28T11:24:00.000Z</time>
      </trkpt>
      <trkpt lat="47.35263" lon="-1.47296">
        <ele>53</ele>
        <time>2021-08-28T11:24:02.000Z</time>
      </trkpt>
      <trkpt lat="47.35273" lon="-1.47286">
        <ele>52</ele>
        <time>2021-08-28T11:24:04.000Z</time>
      </trkpt>
      <trkpt lat="47.35285" lon="-1.47281">
        <ele>53</ele>
        <time>2021-08-28T11:24:06.000Z</time>
      </trkpt>
      <trkpt lat="47.35297" lon="-1.47279">
        <ele>53</ele>
        <time>2021-08-28T11:24:08.000Z</time>
      </trkpt>
      <trkpt lat="47.35309" lon="-1.47279">
        <ele>53</ele>
        <time>2021-08-28T11:24:10.000Z</time>
      </trkpt>
      <trkpt lat="47.3532" lon="-1.47278">
        <ele>54</ele>
        <time>2021-08-28T11:24:12.000Z</time>
      </trkpt>
      <trkpt lat="47.35331" lon="-1.47278">
        <ele>55</ele>
        <time>2021-08-28T11:24:14.000Z</time>
      </trkpt>
      <trkpt lat="47.35341" lon="-1.47278">
        <ele>55</ele>
        <time>2021-08-28T11:24:16.000Z</time>
      </trkpt>
      <trkpt lat="47.3535" lon="-1.47276">
        <ele>56</ele>
        <time>2021-08-28T11:24:18.000Z</time>
      </trkpt>
      <trkpt lat="47.35363" lon="-1.47274">
        <ele>57</ele>
        <time>2021-08-28T11:24:21.000Z</time>
      </trkpt>
      <trkpt lat="47.35374" lon="-1.47269">
        <ele>57</ele>
        <time>2021-08-28T11:24:24.000Z</time>
      </trkpt>
      <trkpt lat="47.35385" lon="-1.4726">
        <ele>58</ele>
        <time>2021-08-28T11:24:27.000Z</time>
      </trkpt>
      <trkpt lat="47.35396" lon="-1.47251">
        <ele>59</ele>
        <time>2021-08-28T11:24:30.000Z</time>
      </trkpt>
      <trkpt lat="47.35407" lon="-1.4724">
        <ele>60</ele>
        <time>2021-08-28T11:24:33.000Z</time>
      </trkpt>
      <trkpt lat="47.35418" lon="-1.4723">
        <ele>61</ele>
        <time>2021-08-28T11:24:36.000Z</time>
      </trkpt>
      <trkpt lat="47.35429" lon="-1.47221">
        <ele>61</ele>
        <time>2021-08-28T11:24:39.000Z</time>
      </trkpt>
      <trkpt lat="47.3544" lon="-1.47212">
        <ele>62</ele>
        <time>2021-08-28T11:24:42.000Z</time>
      </trkpt>
      <trkpt lat="47.35451" lon="-1.47202">
        <ele>63</ele>
        <time>2021-08-28T11:24:45.000Z</time>
      </trkpt>
      <trkpt lat="47.35462" lon="-1.47192">
        <ele>64</ele>
        <time>2021-08-28T11:24:48.000Z</time>
      </trkpt>
      <trkpt lat="47.35472" lon="-1.47183">
        <ele>65</ele>
        <time>2021-08-28T11:24:51.000Z</time>
      </trkpt>
      <trkpt lat="47.35482" lon="-1.47175">
        <ele>66</ele>
        <time>2021-08-28T11:24:54.000Z</time>
      </trkpt>
      <trkpt lat="47.35493" lon="-1.47166">
        <ele>66</ele>
        <time>2021-08-28T11:24:57.000Z</time>
      </trkpt>
      <trkpt lat="47.35504" lon="-1.47156">
        <ele>67</ele>
        <time>2021-08-28T11:25:00.000Z</time>
      </trkpt>
      <trkpt lat="47.35512" lon="-1.47149">
        <ele>66</ele>
        <time>2021-08-28T11:25:02.000Z</time>
      </trkpt>
      <trkpt lat="47.35521" lon="-1.47142">
        <ele>66</ele>
        <time>2021-08-28T11:25:04.000Z</time>
      </trkpt>
      <trkpt lat="47.3553" lon="-1.47133">
        <ele>66</ele>
        <time>2021-08-28T11:25:06.000Z</time>
      </trkpt>
      <trkpt lat="47.3554" lon="-1.47125">
        <ele>66</ele>
        <time>2021-08-28T11:25:08.000Z</time>
      </trkpt>
      <trkpt lat="47.3555" lon="-1.47116">
        <ele>66</ele>
        <time>2021-08-28T11:25:10.000Z</time>
      </trkpt>
      <trkpt lat="47.3556" lon="-1.47108">
        <ele>66</ele>
        <time>2021-08-28T11:25:12.000Z</time>
      </trkpt>
      <trkpt lat="47.35569" lon="-1.471">
        <ele>66</ele>
        <time>2021-08-28T11:25:14.000Z</time>
      </trkpt>
      <trkpt lat="47.35578" lon="-1.47093">
        <ele>67</ele>
        <time>2021-08-28T11:25:16.000Z</time>
      </trkpt>
      <trkpt lat="47.35587" lon="-1.47084">
        <ele>67</ele>
        <time>2021-08-28T11:25:18.000Z</time>
      </trkpt>
      <trkpt lat="47.35597" lon="-1.47076">
        <ele>66</ele>
        <time>2021-08-28T11:25:20.000Z</time>
      </trkpt>
      <trkpt lat="47.35607" lon="-1.47068">
        <ele>65</ele>
        <time>2021-08-28T11:25:22.000Z</time>
      </trkpt>
      <trkpt lat="47.35618" lon="-1.47058">
        <ele>64</ele>
        <time>2021-08-28T11:25:24.000Z</time>
      </trkpt>
      <trkpt lat="47.3563" lon="-1.47047">
        <ele>64</ele>
        <time>2021-08-28T11:25:26.000Z</time>
      </trkpt>
      <trkpt lat="47.35644" lon="-1.47035">
        <ele>62</ele>
        <time>2021-08-28T11:25:28.000Z</time>
      </trkpt>
      <trkpt lat="47.35659" lon="-1.47021">
        <ele>61</ele>
        <time>2021-08-28T11:25:30.000Z</time>
      </trkpt>
      <trkpt lat="47.35667" lon="-1.47014">
        <ele>60</ele>
        <time>2021-08-28T11:25:31.000Z</time>
      </trkpt>
      <trkpt lat="47.35676" lon="-1.47007">
        <ele>59</ele>
        <time>2021-08-28T11:25:32.000Z</time>
      </trkpt>
      <trkpt lat="47.35685" lon="-1.46999">
        <ele>58</ele>
        <time>2021-08-28T11:25:33.000Z</time>
      </trkpt>
      <trkpt lat="47.35694" lon="-1.4699">
        <ele>57</ele>
        <time>2021-08-28T11:25:34.000Z</time>
      </trkpt>
      <trkpt lat="47.35704" lon="-1.46981">
        <ele>57</ele>
        <time>2021-08-28T11:25:35.000Z</time>
      </trkpt>
      <trkpt lat="47.35713" lon="-1.46973">
        <ele>56</ele>
        <time>2021-08-28T11:25:36.000Z</time>
      </trkpt>
      <trkpt lat="47.35722" lon="-1.46967">
        <ele>56</ele>
        <time>2021-08-28T11:25:37.000Z</time>
      </trkpt>
      <trkpt lat="47.35736" lon="-1.46953">
        <ele>55</ele>
        <time>2021-08-28T11:25:39.000Z</time>
      </trkpt>
      <trkpt lat="47.35744" lon="-1.46937">
        <ele>54</ele>
        <time>2021-08-28T11:25:41.000Z</time>
      </trkpt>
      <trkpt lat="47.35744" lon="-1.46916">
        <ele>53</ele>
        <time>2021-08-28T11:25:43.000Z</time>
      </trkpt>
      <trkpt lat="47.3574" lon="-1.46895">
        <ele>53</ele>
        <time>2021-08-28T11:25:45.000Z</time>
      </trkpt>
      <trkpt lat="47.35738" lon="-1.46875">
        <ele>53</ele>
        <time>2021-08-28T11:25:47.000Z</time>
      </trkpt>
      <trkpt lat="47.35736" lon="-1.46856">
        <ele>53</ele>
        <time>2021-08-28T11:25:49.000Z</time>
      </trkpt>
      <trkpt lat="47.35733" lon="-1.46836">
        <ele>53</ele>
        <time>2021-08-28T11:25:51.000Z</time>
      </trkpt>
      <trkpt lat="47.35732" lon="-1.46815">
        <ele>52</ele>
        <time>2021-08-28T11:25:53.000Z</time>
      </trkpt>
      <trkpt lat="47.35733" lon="-1.46795">
        <ele>51</ele>
        <time>2021-08-28T11:25:55.000Z</time>
      </trkpt>
      <trkpt lat="47.35735" lon="-1.46774">
        <ele>51</ele>
        <time>2021-08-28T11:25:57.000Z</time>
      </trkpt>
      <trkpt lat="47.35738" lon="-1.46754">
        <ele>50</ele>
        <time>2021-08-28T11:25:59.000Z</time>
      </trkpt>
      <trkpt lat="47.35741" lon="-1.46734">
        <ele>50</ele>
        <time>2021-08-28T11:26:01.000Z</time>
      </trkpt>
      <trkpt lat="47.35744" lon="-1.46714">
        <ele>50</ele>
        <time>2021-08-28T11:26:03.000Z</time>
      </trkpt>
      <trkpt lat="47.35747" lon="-1.46694">
        <ele>50</ele>
        <time>2021-08-28T11:26:05.000Z</time>
      </trkpt>
      <trkpt lat="47.35751" lon="-1.46673">
        <ele>51</ele>
        <time>2021-08-28T11:26:07.000Z</time>
      </trkpt>
      <trkpt lat="47.35757" lon="-1.46655">
        <ele>51</ele>
        <time>2021-08-28T11:26:09.000Z</time>
      </trkpt>
      <trkpt lat="47.35767" lon="-1.4664">
        <ele>51</ele>
        <time>2021-08-28T11:26:11.000Z</time>
      </trkpt>
      <trkpt lat="47.35778" lon="-1.46628">
        <ele>51</ele>
        <time>2021-08-28T11:26:13.000Z</time>
      </trkpt>
      <trkpt lat="47.3579" lon="-1.46618">
        <ele>51</ele>
        <time>2021-08-28T11:26:15.000Z</time>
      </trkpt>
      <trkpt lat="47.35802" lon="-1.46608">
        <ele>51</ele>
        <time>2021-08-28T11:26:17.000Z</time>
      </trkpt>
      <trkpt lat="47.35813" lon="-1.46599">
        <ele>51</ele>
        <time>2021-08-28T11:26:19.000Z</time>
      </trkpt>
      <trkpt lat="47.35825" lon="-1.46589">
        <ele>50</ele>
        <time>2021-08-28T11:26:21.000Z</time>
      </trkpt>
      <trkpt lat="47.35844" lon="-1.46575">
        <ele>50</ele>
        <time>2021-08-28T11:26:24.000Z</time>
      </trkpt>
      <trkpt lat="47.35855" lon="-1.46565">
        <ele>51</ele>
        <time>2021-08-28T11:26:26.000Z</time>
      </trkpt>
      <trkpt lat="47.35867" lon="-1.46556">
        <ele>51</ele>
        <time>2021-08-28T11:26:28.000Z</time>
      </trkpt>
      <trkpt lat="47.35878" lon="-1.46545">
        <ele>50</ele>
        <time>2021-08-28T11:26:30.000Z</time>
      </trkpt>
      <trkpt lat="47.35886" lon="-1.46529">
        <ele>50</ele>
        <time>2021-08-28T11:26:32.000Z</time>
      </trkpt>
      <trkpt lat="47.3589" lon="-1.46509">
        <ele>50</ele>
        <time>2021-08-28T11:26:34.000Z</time>
      </trkpt>
      <trkpt lat="47.35894" lon="-1.4649">
        <ele>50</ele>
        <time>2021-08-28T11:26:36.000Z</time>
      </trkpt>
      <trkpt lat="47.35897" lon="-1.4647">
        <ele>50</ele>
        <time>2021-08-28T11:26:38.000Z</time>
      </trkpt>
      <trkpt lat="47.35901" lon="-1.46451">
        <ele>50</ele>
        <time>2021-08-28T11:26:40.000Z</time>
      </trkpt>
      <trkpt lat="47.35904" lon="-1.46432">
        <ele>50</ele>
        <time>2021-08-28T11:26:42.000Z</time>
      </trkpt>
      <trkpt lat="47.35907" lon="-1.46414">
        <ele>50</ele>
        <time>2021-08-28T11:26:44.000Z</time>
      </trkpt>
      <trkpt lat="47.35909" lon="-1.46389">
        <ele>51</ele>
        <time>2021-08-28T11:26:47.000Z</time>
      </trkpt>
      <trkpt lat="47.35905" lon="-1.46372">
        <ele>50</ele>
        <time>2021-08-28T11:26:49.000Z</time>
      </trkpt>
      <trkpt lat="47.35895" lon="-1.46358">
        <ele>51</ele>
        <time>2021-08-28T11:26:51.000Z</time>
      </trkpt>
      <trkpt lat="47.35881" lon="-1.46336">
        <ele>51</ele>
        <time>2021-08-28T11:26:54.000Z</time>
      </trkpt>
      <trkpt lat="47.35865" lon="-1.46316">
        <ele>52</ele>
        <time>2021-08-28T11:26:57.000Z</time>
      </trkpt>
      <trkpt lat="47.35854" lon="-1.46302">
        <ele>52</ele>
        <time>2021-08-28T11:26:59.000Z</time>
      </trkpt>
      <trkpt lat="47.35842" lon="-1.46278">
        <ele>53</ele>
        <time>2021-08-28T11:27:02.000Z</time>
      </trkpt>
      <trkpt lat="47.35835" lon="-1.4625">
        <ele>52</ele>
        <time>2021-08-28T11:27:05.000Z</time>
      </trkpt>
      <trkpt lat="47.35835" lon="-1.4623">
        <ele>52</ele>
        <time>2021-08-28T11:27:07.000Z</time>
      </trkpt>
      <trkpt lat="47.3584" lon="-1.46211">
        <ele>53</ele>
        <time>2021-08-28T11:27:09.000Z</time>
      </trkpt>
      <trkpt lat="47.35844" lon="-1.46194">
        <ele>53</ele>
        <time>2021-08-28T11:27:11.000Z</time>
      </trkpt>
      <trkpt lat="47.35844" lon="-1.46176">
        <ele>54</ele>
        <time>2021-08-28T11:27:13.000Z</time>
      </trkpt>
      <trkpt lat="47.35841" lon="-1.46156">
        <ele>53</ele>
        <time>2021-08-28T11:27:15.000Z</time>
      </trkpt>
      <trkpt lat="47.35837" lon="-1.46138">
        <ele>53</ele>
        <time>2021-08-28T11:27:17.000Z</time>
      </trkpt>
      <trkpt lat="47.35833" lon="-1.46119">
        <ele>53</ele>
        <time>2021-08-28T11:27:19.000Z</time>
      </trkpt>
      <trkpt lat="47.3583" lon="-1.46102">
        <ele>53</ele>
        <time>2021-08-28T11:27:21.000Z</time>
      </trkpt>
      <trkpt lat="47.35825" lon="-1.46084">
        <ele>53</ele>
        <time>2021-08-28T11:27:23.000Z</time>
      </trkpt>
      <trkpt lat="47.35819" lon="-1.46068">
        <ele>53</ele>
        <time>2021-08-28T11:27:25.000Z</time>
      </trkpt>
      <trkpt lat="47.35814" lon="-1.46052">
        <ele>53</ele>
        <time>2021-08-28T11:27:27.000Z</time>
      </trkpt>
      <trkpt lat="47.35809" lon="-1.46036">
        <ele>54</ele>
        <time>2021-08-28T11:27:29.000Z</time>
      </trkpt>
      <trkpt lat="47.35805" lon="-1.4602">
        <ele>54</ele>
        <time>2021-08-28T11:27:31.000Z</time>
      </trkpt>
      <trkpt lat="47.35802" lon="-1.46004">
        <ele>54</ele>
        <time>2021-08-28T11:27:33.000Z</time>
      </trkpt>
      <trkpt lat="47.358" lon="-1.45989">
        <ele>54</ele>
        <time>2021-08-28T11:27:35.000Z</time>
      </trkpt>
      <trkpt lat="47.358" lon="-1.45972">
        <ele>55</ele>
        <time>2021-08-28T11:27:37.000Z</time>
      </trkpt>
      <trkpt lat="47.358" lon="-1.45956">
        <ele>54</ele>
        <time>2021-08-28T11:27:39.000Z</time>
      </trkpt>
      <trkpt lat="47.358" lon="-1.4594">
        <ele>55</ele>
        <time>2021-08-28T11:27:41.000Z</time>
      </trkpt>
      <trkpt lat="47.35799" lon="-1.45924">
        <ele>55</ele>
        <time>2021-08-28T11:27:43.000Z</time>
      </trkpt>
      <trkpt lat="47.358" lon="-1.45908">
        <ele>56</ele>
        <time>2021-08-28T11:27:45.000Z</time>
      </trkpt>
      <trkpt lat="47.358" lon="-1.45893">
        <ele>56</ele>
        <time>2021-08-28T11:27:47.000Z</time>
      </trkpt>
      <trkpt lat="47.35799" lon="-1.45878">
        <ele>57</ele>
        <time>2021-08-28T11:27:49.000Z</time>
      </trkpt>
      <trkpt lat="47.35798" lon="-1.45861">
        <ele>57</ele>
        <time>2021-08-28T11:27:51.000Z</time>
      </trkpt>
      <trkpt lat="47.35797" lon="-1.45845">
        <ele>57</ele>
        <time>2021-08-28T11:27:53.000Z</time>
      </trkpt>
      <trkpt lat="47.35797" lon="-1.45829">
        <ele>57</ele>
        <time>2021-08-28T11:27:55.000Z</time>
      </trkpt>
      <trkpt lat="47.35796" lon="-1.45813">
        <ele>57</ele>
        <time>2021-08-28T11:27:57.000Z</time>
      </trkpt>
      <trkpt lat="47.35796" lon="-1.45797">
        <ele>57</ele>
        <time>2021-08-28T11:27:59.000Z</time>
      </trkpt>
      <trkpt lat="47.35796" lon="-1.45781">
        <ele>57</ele>
        <time>2021-08-28T11:28:01.000Z</time>
      </trkpt>
      <trkpt lat="47.35796" lon="-1.45764">
        <ele>57</ele>
        <time>2021-08-28T11:28:03.000Z</time>
      </trkpt>
      <trkpt lat="47.35795" lon="-1.4575">
        <ele>57</ele>
        <time>2021-08-28T11:28:05.000Z</time>
      </trkpt>
      <trkpt lat="47.35793" lon="-1.45734">
        <ele>57</ele>
        <time>2021-08-28T11:28:08.000Z</time>
      </trkpt>
      <trkpt lat="47.35786" lon="-1.4572">
        <ele>57</ele>
        <time>2021-08-28T11:28:13.000Z</time>
      </trkpt>
      <trkpt lat="47.35784" lon="-1.45704">
        <ele>57</ele>
        <time>2021-08-28T11:28:15.000Z</time>
      </trkpt>
      <trkpt lat="47.3578" lon="-1.45688">
        <ele>58</ele>
        <time>2021-08-28T11:28:17.000Z</time>
      </trkpt>
      <trkpt lat="47.35776" lon="-1.45672">
        <ele>59</ele>
        <time>2021-08-28T11:28:19.000Z</time>
      </trkpt>
      <trkpt lat="47.35772" lon="-1.45654">
        <ele>59</ele>
        <time>2021-08-28T11:28:21.000Z</time>
      </trkpt>
      <trkpt lat="47.35768" lon="-1.45636">
        <ele>59</ele>
        <time>2021-08-28T11:28:23.000Z</time>
      </trkpt>
      <trkpt lat="47.35764" lon="-1.45618">
        <ele>60</ele>
        <time>2021-08-28T11:28:25.000Z</time>
      </trkpt>
      <trkpt lat="47.35762" lon="-1.456">
        <ele>60</ele>
        <time>2021-08-28T11:28:27.000Z</time>
      </trkpt>
      <trkpt lat="47.35762" lon="-1.45582">
        <ele>60</ele>
        <time>2021-08-28T11:28:29.000Z</time>
      </trkpt>
      <trkpt lat="47.35763" lon="-1.45563">
        <ele>60</ele>
        <time>2021-08-28T11:28:31.000Z</time>
      </trkpt>
      <trkpt lat="47.35766" lon="-1.45545">
        <ele>60</ele>
        <time>2021-08-28T11:28:33.000Z</time>
      </trkpt>
      <trkpt lat="47.3577" lon="-1.45528">
        <ele>60</ele>
        <time>2021-08-28T11:28:35.000Z</time>
      </trkpt>
      <trkpt lat="47.35776" lon="-1.45511">
        <ele>60</ele>
        <time>2021-08-28T11:28:37.000Z</time>
      </trkpt>
      <trkpt lat="47.35781" lon="-1.45495">
        <ele>60</ele>
        <time>2021-08-28T11:28:39.000Z</time>
      </trkpt>
      <trkpt lat="47.35786" lon="-1.45479">
        <ele>60</ele>
        <time>2021-08-28T11:28:41.000Z</time>
      </trkpt>
      <trkpt lat="47.35792" lon="-1.45462">
        <ele>59</ele>
        <time>2021-08-28T11:28:43.000Z</time>
      </trkpt>
      <trkpt lat="47.35796" lon="-1.45445">
        <ele>59</ele>
        <time>2021-08-28T11:28:45.000Z</time>
      </trkpt>
      <trkpt lat="47.35799" lon="-1.45427">
        <ele>59</ele>
        <time>2021-08-28T11:28:47.000Z</time>
      </trkpt>
      <trkpt lat="47.358" lon="-1.45409">
        <ele>60</ele>
        <time>2021-08-28T11:28:49.000Z</time>
      </trkpt>
      <trkpt lat="47.358" lon="-1.45391">
        <ele>60</ele>
        <time>2021-08-28T11:28:51.000Z</time>
      </trkpt>
      <trkpt lat="47.35797" lon="-1.45373">
        <ele>59</ele>
        <time>2021-08-28T11:28:53.000Z</time>
      </trkpt>
      <trkpt lat="47.35795" lon="-1.45356">
        <ele>60</ele>
        <time>2021-08-28T11:28:55.000Z</time>
      </trkpt>
      <trkpt lat="47.35792" lon="-1.45339">
        <ele>60</ele>
        <time>2021-08-28T11:28:57.000Z</time>
      </trkpt>
      <trkpt lat="47.35789" lon="-1.45323">
        <ele>60</ele>
        <time>2021-08-28T11:28:59.000Z</time>
      </trkpt>
      <trkpt lat="47.35786" lon="-1.45306">
        <ele>60</ele>
        <time>2021-08-28T11:29:01.000Z</time>
      </trkpt>
      <trkpt lat="47.35784" lon="-1.45289">
        <ele>61</ele>
        <time>2021-08-28T11:29:03.000Z</time>
      </trkpt>
      <trkpt lat="47.35781" lon="-1.45272">
        <ele>61</ele>
        <time>2021-08-28T11:29:05.000Z</time>
      </trkpt>
      <trkpt lat="47.35778" lon="-1.45255">
        <ele>61</ele>
        <time>2021-08-28T11:29:07.000Z</time>
      </trkpt>
      <trkpt lat="47.35775" lon="-1.45237">
        <ele>62</ele>
        <time>2021-08-28T11:29:09.000Z</time>
      </trkpt>
      <trkpt lat="47.35772" lon="-1.4522">
        <ele>62</ele>
        <time>2021-08-28T11:29:11.000Z</time>
      </trkpt>
      <trkpt lat="47.3577" lon="-1.45202">
        <ele>63</ele>
        <time>2021-08-28T11:29:13.000Z</time>
      </trkpt>
      <trkpt lat="47.35767" lon="-1.45185">
        <ele>63</ele>
        <time>2021-08-28T11:29:15.000Z</time>
      </trkpt>
      <trkpt lat="47.35765" lon="-1.45168">
        <ele>63</ele>
        <time>2021-08-28T11:29:17.000Z</time>
      </trkpt>
      <trkpt lat="47.35764" lon="-1.45151">
        <ele>63</ele>
        <time>2021-08-28T11:29:19.000Z</time>
      </trkpt>
      <trkpt lat="47.35764" lon="-1.45135">
        <ele>63</ele>
        <time>2021-08-28T11:29:21.000Z</time>
      </trkpt>
      <trkpt lat="47.35765" lon="-1.45118">
        <ele>63</ele>
        <time>2021-08-28T11:29:23.000Z</time>
      </trkpt>
      <trkpt lat="47.35767" lon="-1.45101">
        <ele>64</ele>
        <time>2021-08-28T11:29:25.000Z</time>
      </trkpt>
      <trkpt lat="47.3577" lon="-1.45084">
        <ele>64</ele>
        <time>2021-08-28T11:29:27.000Z</time>
      </trkpt>
      <trkpt lat="47.35772" lon="-1.45067">
        <ele>65</ele>
        <time>2021-08-28T11:29:29.000Z</time>
      </trkpt>
      <trkpt lat="47.35775" lon="-1.4505">
        <ele>65</ele>
        <time>2021-08-28T11:29:31.000Z</time>
      </trkpt>
      <trkpt lat="47.35776" lon="-1.45034">
        <ele>65</ele>
        <time>2021-08-28T11:29:33.000Z</time>
      </trkpt>
      <trkpt lat="47.35778" lon="-1.45017">
        <ele>66</ele>
        <time>2021-08-28T11:29:35.000Z</time>
      </trkpt>
      <trkpt lat="47.35779" lon="-1.45">
        <ele>66</ele>
        <time>2021-08-28T11:29:37.000Z</time>
      </trkpt>
      <trkpt lat="47.35779" lon="-1.44984">
        <ele>66</ele>
        <time>2021-08-28T11:29:39.000Z</time>
      </trkpt>
      <trkpt lat="47.3578" lon="-1.44967">
        <ele>67</ele>
        <time>2021-08-28T11:29:41.000Z</time>
      </trkpt>
      <trkpt lat="47.35781" lon="-1.44951">
        <ele>67</ele>
        <time>2021-08-28T11:29:43.000Z</time>
      </trkpt>
      <trkpt lat="47.35781" lon="-1.44935">
        <ele>67</ele>
        <time>2021-08-28T11:29:45.000Z</time>
      </trkpt>
      <trkpt lat="47.35781" lon="-1.44918">
        <ele>68</ele>
        <time>2021-08-28T11:29:47.000Z</time>
      </trkpt>
      <trkpt lat="47.35781" lon="-1.44901">
        <ele>68</ele>
        <time>2021-08-28T11:29:49.000Z</time>
      </trkpt>
      <trkpt lat="47.35782" lon="-1.44884">
        <ele>68</ele>
        <time>2021-08-28T11:29:51.000Z</time>
      </trkpt>
      <trkpt lat="47.35783" lon="-1.44867">
        <ele>69</ele>
        <time>2021-08-28T11:29:53.000Z</time>
      </trkpt>
      <trkpt lat="47.35783" lon="-1.44851">
        <ele>69</ele>
        <time>2021-08-28T11:29:55.000Z</time>
      </trkpt>
      <trkpt lat="47.35783" lon="-1.44835">
        <ele>69</ele>
        <time>2021-08-28T11:29:57.000Z</time>
      </trkpt>
      <trkpt lat="47.35783" lon="-1.44819">
        <ele>69</ele>
        <time>2021-08-28T11:29:59.000Z</time>
      </trkpt>
      <trkpt lat="47.35783" lon="-1.44804">
        <ele>70</ele>
        <time>2021-08-28T11:30:01.000Z</time>
      </trkpt>
      <trkpt lat="47.35784" lon="-1.44789">
        <ele>70</ele>
        <time>2021-08-28T11:30:03.000Z</time>
      </trkpt>
      <trkpt lat="47.35784" lon="-1.44774">
        <ele>71</ele>
        <time>2021-08-28T11:30:05.000Z</time>
      </trkpt>
      <trkpt lat="47.35785" lon="-1.44759">
        <ele>71</ele>
        <time>2021-08-28T11:30:07.000Z</time>
      </trkpt>
      <trkpt lat="47.35785" lon="-1.44744">
        <ele>72</ele>
        <time>2021-08-28T11:30:09.000Z</time>
      </trkpt>
      <trkpt lat="47.35785" lon="-1.44729">
        <ele>72</ele>
        <time>2021-08-28T11:30:11.000Z</time>
      </trkpt>
      <trkpt lat="47.35786" lon="-1.44714">
        <ele>73</ele>
        <time>2021-08-28T11:30:13.000Z</time>
      </trkpt>
      <trkpt lat="47.35786" lon="-1.44698">
        <ele>73</ele>
        <time>2021-08-28T11:30:15.000Z</time>
      </trkpt>
      <trkpt lat="47.35786" lon="-1.44683">
        <ele>74</ele>
        <time>2021-08-28T11:30:17.000Z</time>
      </trkpt>
      <trkpt lat="47.35787" lon="-1.44668">
        <ele>75</ele>
        <time>2021-08-28T11:30:19.000Z</time>
      </trkpt>
      <trkpt lat="47.35787" lon="-1.44654">
        <ele>75</ele>
        <time>2021-08-28T11:30:21.000Z</time>
      </trkpt>
      <trkpt lat="47.35788" lon="-1.44639">
        <ele>75</ele>
        <time>2021-08-28T11:30:23.000Z</time>
      </trkpt>
      <trkpt lat="47.35788" lon="-1.44624">
        <ele>76</ele>
        <time>2021-08-28T11:30:25.000Z</time>
      </trkpt>
      <trkpt lat="47.35789" lon="-1.44609">
        <ele>76</ele>
        <time>2021-08-28T11:30:27.000Z</time>
      </trkpt>
      <trkpt lat="47.3579" lon="-1.44595">
        <ele>77</ele>
        <time>2021-08-28T11:30:29.000Z</time>
      </trkpt>
      <trkpt lat="47.35791" lon="-1.44581">
        <ele>77</ele>
        <time>2021-08-28T11:30:31.000Z</time>
      </trkpt>
      <trkpt lat="47.35793" lon="-1.44567">
        <ele>77</ele>
        <time>2021-08-28T11:30:33.000Z</time>
      </trkpt>
      <trkpt lat="47.35795" lon="-1.44554">
        <ele>78</ele>
        <time>2021-08-28T11:30:35.000Z</time>
      </trkpt>
      <trkpt lat="47.35797" lon="-1.4454">
        <ele>78</ele>
        <time>2021-08-28T11:30:37.000Z</time>
      </trkpt>
      <trkpt lat="47.35798" lon="-1.44525">
        <ele>79</ele>
        <time>2021-08-28T11:30:39.000Z</time>
      </trkpt>
      <trkpt lat="47.358" lon="-1.44511">
        <ele>79</ele>
        <time>2021-08-28T11:30:41.000Z</time>
      </trkpt>
      <trkpt lat="47.35801" lon="-1.44496">
        <ele>79</ele>
        <time>2021-08-28T11:30:43.000Z</time>
      </trkpt>
      <trkpt lat="47.35802" lon="-1.44481">
        <ele>79</ele>
        <time>2021-08-28T11:30:45.000Z</time>
      </trkpt>
      <trkpt lat="47.35804" lon="-1.44466">
        <ele>80</ele>
        <time>2021-08-28T11:30:47.000Z</time>
      </trkpt>
      <trkpt lat="47.35804" lon="-1.44449">
        <ele>79</ele>
        <time>2021-08-28T11:30:49.000Z</time>
      </trkpt>
      <trkpt lat="47.35805" lon="-1.44432">
        <ele>79</ele>
        <time>2021-08-28T11:30:51.000Z</time>
      </trkpt>
      <trkpt lat="47.35805" lon="-1.44415">
        <ele>79</ele>
        <time>2021-08-28T11:30:53.000Z</time>
      </trkpt>
      <trkpt lat="47.35806" lon="-1.44398">
        <ele>79</ele>
        <time>2021-08-28T11:30:55.000Z</time>
      </trkpt>
      <trkpt lat="47.35805" lon="-1.44381">
        <ele>79</ele>
        <time>2021-08-28T11:30:57.000Z</time>
      </trkpt>
      <trkpt lat="47.35805" lon="-1.44364">
        <ele>79</ele>
        <time>2021-08-28T11:30:59.000Z</time>
      </trkpt>
      <trkpt lat="47.35806" lon="-1.44346">
        <ele>79</ele>
        <time>2021-08-28T11:31:01.000Z</time>
      </trkpt>
      <trkpt lat="47.35807" lon="-1.44328">
        <ele>79</ele>
        <time>2021-08-28T11:31:03.000Z</time>
      </trkpt>
      <trkpt lat="47.35808" lon="-1.44309">
        <ele>79</ele>
        <time>2021-08-28T11:31:05.000Z</time>
      </trkpt>
      <trkpt lat="47.3581" lon="-1.44291">
        <ele>79</ele>
        <time>2021-08-28T11:31:07.000Z</time>
      </trkpt>
      <trkpt lat="47.35814" lon="-1.44274">
        <ele>79</ele>
        <time>2021-08-28T11:31:09.000Z</time>
      </trkpt>
      <trkpt lat="47.35821" lon="-1.44259">
        <ele>79</ele>
        <time>2021-08-28T11:31:11.000Z</time>
      </trkpt>
      <trkpt lat="47.35828" lon="-1.44245">
        <ele>79</ele>
        <time>2021-08-28T11:31:13.000Z</time>
      </trkpt>
      <trkpt lat="47.35838" lon="-1.44232">
        <ele>78</ele>
        <time>2021-08-28T11:31:15.000Z</time>
      </trkpt>
      <trkpt lat="47.35847" lon="-1.44219">
        <ele>78</ele>
        <time>2021-08-28T11:31:17.000Z</time>
      </trkpt>
      <trkpt lat="47.35856" lon="-1.44206">
        <ele>78</ele>
        <time>2021-08-28T11:31:19.000Z</time>
      </trkpt>
      <trkpt lat="47.35866" lon="-1.44194">
        <ele>78</ele>
        <time>2021-08-28T11:31:21.000Z</time>
      </trkpt>
      <trkpt lat="47.35875" lon="-1.44181">
        <ele>78</ele>
        <time>2021-08-28T11:31:23.000Z</time>
      </trkpt>
      <trkpt lat="47.35884" lon="-1.44168">
        <ele>78</ele>
        <time>2021-08-28T11:31:25.000Z</time>
      </trkpt>
      <trkpt lat="47.35893" lon="-1.44156">
        <ele>78</ele>
        <time>2021-08-28T11:31:27.000Z</time>
      </trkpt>
      <trkpt lat="47.35902" lon="-1.44143">
        <ele>78</ele>
        <time>2021-08-28T11:31:29.000Z</time>
      </trkpt>
      <trkpt lat="47.35912" lon="-1.44131">
        <ele>78</ele>
        <time>2021-08-28T11:31:31.000Z</time>
      </trkpt>
      <trkpt lat="47.35921" lon="-1.44118">
        <ele>78</ele>
        <time>2021-08-28T11:31:33.000Z</time>
      </trkpt>
      <trkpt lat="47.3593" lon="-1.44105">
        <ele>78</ele>
        <time>2021-08-28T11:31:35.000Z</time>
      </trkpt>
      <trkpt lat="47.35939" lon="-1.44092">
        <ele>78</ele>
        <time>2021-08-28T11:31:37.000Z</time>
      </trkpt>
      <trkpt lat="47.35948" lon="-1.4408">
        <ele>79</ele>
        <time>2021-08-28T11:31:39.000Z</time>
      </trkpt>
      <trkpt lat="47.35958" lon="-1.44068">
        <ele>79</ele>
        <time>2021-08-28T11:31:41.000Z</time>
      </trkpt>
      <trkpt lat="47.35967" lon="-1.44056">
        <ele>79</ele>
        <time>2021-08-28T11:31:43.000Z</time>
      </trkpt>
      <trkpt lat="47.35977" lon="-1.44045">
        <ele>79</ele>
        <time>2021-08-28T11:31:45.000Z</time>
      </trkpt>
      <trkpt lat="47.35987" lon="-1.44032">
        <ele>79</ele>
        <time>2021-08-28T11:31:47.000Z</time>
      </trkpt>
      <trkpt lat="47.35996" lon="-1.4402">
        <ele>79</ele>
        <time>2021-08-28T11:31:49.000Z</time>
      </trkpt>
      <trkpt lat="47.36006" lon="-1.44009">
        <ele>79</ele>
        <time>2021-08-28T11:31:51.000Z</time>
      </trkpt>
      <trkpt lat="47.36015" lon="-1.43997">
        <ele>79</ele>
        <time>2021-08-28T11:31:53.000Z</time>
      </trkpt>
      <trkpt lat="47.36024" lon="-1.43984">
        <ele>79</ele>
        <time>2021-08-28T11:31:55.000Z</time>
      </trkpt>
      <trkpt lat="47.36033" lon="-1.4397">
        <ele>78</ele>
        <time>2021-08-28T11:31:57.000Z</time>
      </trkpt>
      <trkpt lat="47.36041" lon="-1.43954">
        <ele>78</ele>
        <time>2021-08-28T11:31:59.000Z</time>
      </trkpt>
      <trkpt lat="47.36048" lon="-1.43937">
        <ele>78</ele>
        <time>2021-08-28T11:32:01.000Z</time>
      </trkpt>
      <trkpt lat="47.36053" lon="-1.43919">
        <ele>78</ele>
        <time>2021-08-28T11:32:03.000Z</time>
      </trkpt>
      <trkpt lat="47.36058" lon="-1.43899">
        <ele>77</ele>
        <time>2021-08-28T11:32:05.000Z</time>
      </trkpt>
      <trkpt lat="47.36062" lon="-1.43878">
        <ele>77</ele>
        <time>2021-08-28T11:32:07.000Z</time>
      </trkpt>
      <trkpt lat="47.36065" lon="-1.43857">
        <ele>76</ele>
        <time>2021-08-28T11:32:09.000Z</time>
      </trkpt>
      <trkpt lat="47.36067" lon="-1.43834">
        <ele>75</ele>
        <time>2021-08-28T11:32:11.000Z</time>
      </trkpt>
      <trkpt lat="47.3607" lon="-1.4381">
        <ele>75</ele>
        <time>2021-08-28T11:32:13.000Z</time>
      </trkpt>
      <trkpt lat="47.36073" lon="-1.43786">
        <ele>74</ele>
        <time>2021-08-28T11:32:15.000Z</time>
      </trkpt>
      <trkpt lat="47.36078" lon="-1.43761">
        <ele>73</ele>
        <time>2021-08-28T11:32:17.000Z</time>
      </trkpt>
      <trkpt lat="47.36085" lon="-1.43738">
        <ele>73</ele>
        <time>2021-08-28T11:32:19.000Z</time>
      </trkpt>
      <trkpt lat="47.36093" lon="-1.43715">
        <ele>72</ele>
        <time>2021-08-28T11:32:21.000Z</time>
      </trkpt>
      <trkpt lat="47.36104" lon="-1.43695">
        <ele>73</ele>
        <time>2021-08-28T11:32:23.000Z</time>
      </trkpt>
      <trkpt lat="47.36115" lon="-1.43676">
        <ele>73</ele>
        <time>2021-08-28T11:32:25.000Z</time>
      </trkpt>
      <trkpt lat="47.36126" lon="-1.43659">
        <ele>73</ele>
        <time>2021-08-28T11:32:27.000Z</time>
      </trkpt>
      <trkpt lat="47.36135" lon="-1.43641">
        <ele>72</ele>
        <time>2021-08-28T11:32:29.000Z</time>
      </trkpt>
      <trkpt lat="47.36144" lon="-1.43625">
        <ele>72</ele>
        <time>2021-08-28T11:32:31.000Z</time>
      </trkpt>
      <trkpt lat="47.36152" lon="-1.43609">
        <ele>72</ele>
        <time>2021-08-28T11:32:33.000Z</time>
      </trkpt>
      <trkpt lat="47.36159" lon="-1.43593">
        <ele>71</ele>
        <time>2021-08-28T11:32:35.000Z</time>
      </trkpt>
      <trkpt lat="47.36167" lon="-1.43577">
        <ele>72</ele>
        <time>2021-08-28T11:32:37.000Z</time>
      </trkpt>
      <trkpt lat="47.36174" lon="-1.43561">
        <ele>72</ele>
        <time>2021-08-28T11:32:39.000Z</time>
      </trkpt>
      <trkpt lat="47.36181" lon="-1.43545">
        <ele>72</ele>
        <time>2021-08-28T11:32:41.000Z</time>
      </trkpt>
      <trkpt lat="47.36189" lon="-1.43531">
        <ele>72</ele>
        <time>2021-08-28T11:32:43.000Z</time>
      </trkpt>
      <trkpt lat="47.36197" lon="-1.43517">
        <ele>72</ele>
        <time>2021-08-28T11:32:45.000Z</time>
      </trkpt>
      <trkpt lat="47.36205" lon="-1.43506">
        <ele>72</ele>
        <time>2021-08-28T11:32:47.000Z</time>
      </trkpt>
      <trkpt lat="47.36212" lon="-1.43495">
        <ele>72</ele>
        <time>2021-08-28T11:32:49.000Z</time>
      </trkpt>
      <trkpt lat="47.36219" lon="-1.43486">
        <ele>72</ele>
        <time>2021-08-28T11:32:51.000Z</time>
      </trkpt>
      <trkpt lat="47.36226" lon="-1.43477">
        <ele>72</ele>
        <time>2021-08-28T11:32:53.000Z</time>
      </trkpt>
      <trkpt lat="47.36234" lon="-1.43469">
        <ele>72</ele>
        <time>2021-08-28T11:32:55.000Z</time>
      </trkpt>
      <trkpt lat="47.36241" lon="-1.4346">
        <ele>73</ele>
        <time>2021-08-28T11:32:57.000Z</time>
      </trkpt>
      <trkpt lat="47.36249" lon="-1.43453">
        <ele>74</ele>
        <time>2021-08-28T11:32:59.000Z</time>
      </trkpt>
      <trkpt lat="47.3626" lon="-1.43442">
        <ele>74</ele>
        <time>2021-08-28T11:33:02.000Z</time>
      </trkpt>
      <trkpt lat="47.3627" lon="-1.43432">
        <ele>75</ele>
        <time>2021-08-28T11:33:05.000Z</time>
      </trkpt>
      <trkpt lat="47.36281" lon="-1.43421">
        <ele>76</ele>
        <time>2021-08-28T11:33:08.000Z</time>
      </trkpt>
      <trkpt lat="47.36292" lon="-1.43411">
        <ele>76</ele>
        <time>2021-08-28T11:33:11.000Z</time>
      </trkpt>
      <trkpt lat="47.36302" lon="-1.434">
        <ele>77</ele>
        <time>2021-08-28T11:33:14.000Z</time>
      </trkpt>
      <trkpt lat="47.36312" lon="-1.4339">
        <ele>78</ele>
        <time>2021-08-28T11:33:17.000Z</time>
      </trkpt>
      <trkpt lat="47.36321" lon="-1.4338">
        <ele>79</ele>
        <time>2021-08-28T11:33:20.000Z</time>
      </trkpt>
      <trkpt lat="47.36332" lon="-1.4337">
        <ele>79</ele>
        <time>2021-08-28T11:33:23.000Z</time>
      </trkpt>
      <trkpt lat="47.36342" lon="-1.43359">
        <ele>80</ele>
        <time>2021-08-28T11:33:26.000Z</time>
      </trkpt>
      <trkpt lat="47.36351" lon="-1.4335">
        <ele>81</ele>
        <time>2021-08-28T11:33:29.000Z</time>
      </trkpt>
      <trkpt lat="47.36361" lon="-1.4334">
        <ele>82</ele>
        <time>2021-08-28T11:33:32.000Z</time>
      </trkpt>
      <trkpt lat="47.3637" lon="-1.4333">
        <ele>83</ele>
        <time>2021-08-28T11:33:35.000Z</time>
      </trkpt>
      <trkpt lat="47.3638" lon="-1.4332">
        <ele>84</ele>
        <time>2021-08-28T11:33:38.000Z</time>
      </trkpt>
      <trkpt lat="47.3639" lon="-1.4331">
        <ele>84</ele>
        <time>2021-08-28T11:33:41.000Z</time>
      </trkpt>
      <trkpt lat="47.36399" lon="-1.433">
        <ele>85</ele>
        <time>2021-08-28T11:33:44.000Z</time>
      </trkpt>
      <trkpt lat="47.36409" lon="-1.4329">
        <ele>86</ele>
        <time>2021-08-28T11:33:47.000Z</time>
      </trkpt>
      <trkpt lat="47.36418" lon="-1.4328">
        <ele>87</ele>
        <time>2021-08-28T11:33:50.000Z</time>
      </trkpt>
      <trkpt lat="47.36425" lon="-1.43269">
        <ele>88</ele>
        <time>2021-08-28T11:33:53.000Z</time>
      </trkpt>
      <trkpt lat="47.36434" lon="-1.43259">
        <ele>89</ele>
        <time>2021-08-28T11:33:56.000Z</time>
      </trkpt>
      <trkpt lat="47.36441" lon="-1.43246">
        <ele>89</ele>
        <time>2021-08-28T11:33:59.000Z</time>
      </trkpt>
      <trkpt lat="47.36448" lon="-1.43233">
        <ele>90</ele>
        <time>2021-08-28T11:34:02.000Z</time>
      </trkpt>
      <trkpt lat="47.36455" lon="-1.43219">
        <ele>90</ele>
        <time>2021-08-28T11:34:05.000Z</time>
      </trkpt>
      <trkpt lat="47.36462" lon="-1.43205">
        <ele>91</ele>
        <time>2021-08-28T11:34:08.000Z</time>
      </trkpt>
      <trkpt lat="47.36469" lon="-1.4319">
        <ele>92</ele>
        <time>2021-08-28T11:34:11.000Z</time>
      </trkpt>
      <trkpt lat="47.36475" lon="-1.43176">
        <ele>92</ele>
        <time>2021-08-28T11:34:14.000Z</time>
      </trkpt>
      <trkpt lat="47.36482" lon="-1.43161">
        <ele>92</ele>
        <time>2021-08-28T11:34:17.000Z</time>
      </trkpt>
      <trkpt lat="47.36488" lon="-1.43146">
        <ele>92</ele>
        <time>2021-08-28T11:34:20.000Z</time>
      </trkpt>
      <trkpt lat="47.36495" lon="-1.43132">
        <ele>93</ele>
        <time>2021-08-28T11:34:23.000Z</time>
      </trkpt>
      <trkpt lat="47.36501" lon="-1.43116">
        <ele>93</ele>
        <time>2021-08-28T11:34:26.000Z</time>
      </trkpt>
      <trkpt lat="47.36506" lon="-1.43099">
        <ele>93</ele>
        <time>2021-08-28T11:34:29.000Z</time>
      </trkpt>
      <trkpt lat="47.36511" lon="-1.43081">
        <ele>93</ele>
        <time>2021-08-28T11:34:32.000Z</time>
      </trkpt>
      <trkpt lat="47.36515" lon="-1.43062">
        <ele>93</ele>
        <time>2021-08-28T11:34:35.000Z</time>
      </trkpt>
      <trkpt lat="47.36516" lon="-1.43049">
        <ele>93</ele>
        <time>2021-08-28T11:34:37.000Z</time>
      </trkpt>
      <trkpt lat="47.36517" lon="-1.43036">
        <ele>93</ele>
        <time>2021-08-28T11:34:39.000Z</time>
      </trkpt>
      <trkpt lat="47.36519" lon="-1.43022">
        <ele>93</ele>
        <time>2021-08-28T11:34:41.000Z</time>
      </trkpt>
      <trkpt lat="47.36521" lon="-1.43008">
        <ele>94</ele>
        <time>2021-08-28T11:34:43.000Z</time>
      </trkpt>
      <trkpt lat="47.36526" lon="-1.42991">
        <ele>94</ele>
        <time>2021-08-28T11:34:46.000Z</time>
      </trkpt>
      <trkpt lat="47.36538" lon="-1.42981">
        <ele>94</ele>
        <time>2021-08-28T11:34:49.000Z</time>
      </trkpt>
      <trkpt lat="47.36547" lon="-1.4298">
        <ele>93</ele>
        <time>2021-08-28T11:34:51.000Z</time>
      </trkpt>
      <trkpt lat="47.36558" lon="-1.42979">
        <ele>94</ele>
        <time>2021-08-28T11:34:53.000Z</time>
      </trkpt>
      <trkpt lat="47.36569" lon="-1.42978">
        <ele>94</ele>
        <time>2021-08-28T11:34:55.000Z</time>
      </trkpt>
      <trkpt lat="47.36581" lon="-1.42978">
        <ele>94</ele>
        <time>2021-08-28T11:34:57.000Z</time>
      </trkpt>
      <trkpt lat="47.36594" lon="-1.42977">
        <ele>93</ele>
        <time>2021-08-28T11:34:59.000Z</time>
      </trkpt>
      <trkpt lat="47.36607" lon="-1.42977">
        <ele>93</ele>
        <time>2021-08-28T11:35:01.000Z</time>
      </trkpt>
      <trkpt lat="47.3662" lon="-1.42977">
        <ele>93</ele>
        <time>2021-08-28T11:35:03.000Z</time>
      </trkpt>
      <trkpt lat="47.36632" lon="-1.42977">
        <ele>94</ele>
        <time>2021-08-28T11:35:05.000Z</time>
      </trkpt>
      <trkpt lat="47.36644" lon="-1.42976">
        <ele>94</ele>
        <time>2021-08-28T11:35:07.000Z</time>
      </trkpt>
      <trkpt lat="47.36656" lon="-1.42975">
        <ele>94</ele>
        <time>2021-08-28T11:35:09.000Z</time>
      </trkpt>
      <trkpt lat="47.36668" lon="-1.42975">
        <ele>94</ele>
        <time>2021-08-28T11:35:11.000Z</time>
      </trkpt>
      <trkpt lat="47.36679" lon="-1.42977">
        <ele>94</ele>
        <time>2021-08-28T11:35:13.000Z</time>
      </trkpt>
      <trkpt lat="47.36688" lon="-1.42972">
        <ele>94</ele>
        <time>2021-08-28T11:35:15.000Z</time>
      </trkpt>
      <trkpt lat="47.36694" lon="-1.4296">
        <ele>94</ele>
        <time>2021-08-28T11:35:17.000Z</time>
      </trkpt>
      <trkpt lat="47.36697" lon="-1.42944">
        <ele>94</ele>
        <time>2021-08-28T11:35:19.000Z</time>
      </trkpt>
      <trkpt lat="47.36702" lon="-1.42928">
        <ele>94</ele>
        <time>2021-08-28T11:35:21.000Z</time>
      </trkpt>
      <trkpt lat="47.36706" lon="-1.42911">
        <ele>94</ele>
        <time>2021-08-28T11:35:23.000Z</time>
      </trkpt>
      <trkpt lat="47.36711" lon="-1.42895">
        <ele>94</ele>
        <time>2021-08-28T11:35:25.000Z</time>
      </trkpt>
      <trkpt lat="47.36716" lon="-1.42879">
        <ele>94</ele>
        <time>2021-08-28T11:35:27.000Z</time>
      </trkpt>
      <trkpt lat="47.3672" lon="-1.42863">
        <ele>94</ele>
        <time>2021-08-28T11:35:29.000Z</time>
      </trkpt>
      <trkpt lat="47.36724" lon="-1.42847">
        <ele>94</ele>
        <time>2021-08-28T11:35:31.000Z</time>
      </trkpt>
      <trkpt lat="47.36727" lon="-1.4283">
        <ele>94</ele>
        <time>2021-08-28T11:35:33.000Z</time>
      </trkpt>
      <trkpt lat="47.3673" lon="-1.42814">
        <ele>94</ele>
        <time>2021-08-28T11:35:35.000Z</time>
      </trkpt>
      <trkpt lat="47.36733" lon="-1.42797">
        <ele>94</ele>
        <time>2021-08-28T11:35:37.000Z</time>
      </trkpt>
      <trkpt lat="47.36735" lon="-1.4278">
        <ele>94</ele>
        <time>2021-08-28T11:35:39.000Z</time>
      </trkpt>
      <trkpt lat="47.36736" lon="-1.42763">
        <ele>94</ele>
        <time>2021-08-28T11:35:41.000Z</time>
      </trkpt>
      <trkpt lat="47.36737" lon="-1.42745">
        <ele>94</ele>
        <time>2021-08-28T11:35:43.000Z</time>
      </trkpt>
      <trkpt lat="47.36738" lon="-1.42728">
        <ele>94</ele>
        <time>2021-08-28T11:35:45.000Z</time>
      </trkpt>
      <trkpt lat="47.36737" lon="-1.42711">
        <ele>94</ele>
        <time>2021-08-28T11:35:47.000Z</time>
      </trkpt>
      <trkpt lat="47.36736" lon="-1.42693">
        <ele>95</ele>
        <time>2021-08-28T11:35:49.000Z</time>
      </trkpt>
      <trkpt lat="47.36735" lon="-1.42676">
        <ele>95</ele>
        <time>2021-08-28T11:35:51.000Z</time>
      </trkpt>
      <trkpt lat="47.36733" lon="-1.42658">
        <ele>96</ele>
        <time>2021-08-28T11:35:53.000Z</time>
      </trkpt>
      <trkpt lat="47.36731" lon="-1.42642">
        <ele>96</ele>
        <time>2021-08-28T11:35:55.000Z</time>
      </trkpt>
      <trkpt lat="47.36729" lon="-1.42624">
        <ele>96</ele>
        <time>2021-08-28T11:35:57.000Z</time>
      </trkpt>
      <trkpt lat="47.36727" lon="-1.42607">
        <ele>96</ele>
        <time>2021-08-28T11:35:59.000Z</time>
      </trkpt>
      <trkpt lat="47.36724" lon="-1.4259">
        <ele>96</ele>
        <time>2021-08-28T11:36:01.000Z</time>
      </trkpt>
      <trkpt lat="47.36721" lon="-1.42573">
        <ele>96</ele>
        <time>2021-08-28T11:36:03.000Z</time>
      </trkpt>
      <trkpt lat="47.36719" lon="-1.42557">
        <ele>96</ele>
        <time>2021-08-28T11:36:05.000Z</time>
      </trkpt>
      <trkpt lat="47.36716" lon="-1.42539">
        <ele>96</ele>
        <time>2021-08-28T11:36:07.000Z</time>
      </trkpt>
      <trkpt lat="47.36713" lon="-1.42522">
        <ele>96</ele>
        <time>2021-08-28T11:36:09.000Z</time>
      </trkpt>
      <trkpt lat="47.3671" lon="-1.42505">
        <ele>96</ele>
        <time>2021-08-28T11:36:11.000Z</time>
      </trkpt>
      <trkpt lat="47.36708" lon="-1.42488">
        <ele>97</ele>
        <time>2021-08-28T11:36:13.000Z</time>
      </trkpt>
      <trkpt lat="47.36705" lon="-1.42471">
        <ele>97</ele>
        <time>2021-08-28T11:36:15.000Z</time>
      </trkpt>
      <trkpt lat="47.36702" lon="-1.42454">
        <ele>97</ele>
        <time>2021-08-28T11:36:17.000Z</time>
      </trkpt>
      <trkpt lat="47.367" lon="-1.42438">
        <ele>97</ele>
        <time>2021-08-28T11:36:19.000Z</time>
      </trkpt>
      <trkpt lat="47.36697" lon="-1.42421">
        <ele>97</ele>
        <time>2021-08-28T11:36:21.000Z</time>
      </trkpt>
      <trkpt lat="47.36694" lon="-1.42404">
        <ele>97</ele>
        <time>2021-08-28T11:36:23.000Z</time>
      </trkpt>
      <trkpt lat="47.36691" lon="-1.42387">
        <ele>97</ele>
        <time>2021-08-28T11:36:25.000Z</time>
      </trkpt>
      <trkpt lat="47.36689" lon="-1.42371">
        <ele>97</ele>
        <time>2021-08-28T11:36:27.000Z</time>
      </trkpt>
      <trkpt lat="47.36686" lon="-1.42353">
        <ele>97</ele>
        <time>2021-08-28T11:36:29.000Z</time>
      </trkpt>
      <trkpt lat="47.36684" lon="-1.42337">
        <ele>98</ele>
        <time>2021-08-28T11:36:31.000Z</time>
      </trkpt>
      <trkpt lat="47.36682" lon="-1.42321">
        <ele>98</ele>
        <time>2021-08-28T11:36:33.000Z</time>
      </trkpt>
      <trkpt lat="47.36679" lon="-1.42304">
        <ele>98</ele>
        <time>2021-08-28T11:36:35.000Z</time>
      </trkpt>
      <trkpt lat="47.36677" lon="-1.42289">
        <ele>98</ele>
        <time>2021-08-28T11:36:37.000Z</time>
      </trkpt>
      <trkpt lat="47.36676" lon="-1.42273">
        <ele>99</ele>
        <time>2021-08-28T11:36:39.000Z</time>
      </trkpt>
      <trkpt lat="47.36674" lon="-1.42257">
        <ele>99</ele>
        <time>2021-08-28T11:36:41.000Z</time>
      </trkpt>
      <trkpt lat="47.36673" lon="-1.42241">
        <ele>99</ele>
        <time>2021-08-28T11:36:43.000Z</time>
      </trkpt>
      <trkpt lat="47.36671" lon="-1.42225">
        <ele>99</ele>
        <time>2021-08-28T11:36:45.000Z</time>
      </trkpt>
      <trkpt lat="47.3667" lon="-1.4221">
        <ele>100</ele>
        <time>2021-08-28T11:36:47.000Z</time>
      </trkpt>
      <trkpt lat="47.36669" lon="-1.42196">
        <ele>100</ele>
        <time>2021-08-28T11:36:49.000Z</time>
      </trkpt>
      <trkpt lat="47.36667" lon="-1.42181">
        <ele>100</ele>
        <time>2021-08-28T11:36:51.000Z</time>
      </trkpt>
      <trkpt lat="47.36666" lon="-1.42166">
        <ele>100</ele>
        <time>2021-08-28T11:36:53.000Z</time>
      </trkpt>
      <trkpt lat="47.36665" lon="-1.42151">
        <ele>100</ele>
        <time>2021-08-28T11:36:55.000Z</time>
      </trkpt>
      <trkpt lat="47.36664" lon="-1.42137">
        <ele>100</ele>
        <time>2021-08-28T11:36:57.000Z</time>
      </trkpt>
      <trkpt lat="47.36662" lon="-1.42122">
        <ele>101</ele>
        <time>2021-08-28T11:36:59.000Z</time>
      </trkpt>
      <trkpt lat="47.36661" lon="-1.42108">
        <ele>101</ele>
        <time>2021-08-28T11:37:01.000Z</time>
      </trkpt>
      <trkpt lat="47.3666" lon="-1.42093">
        <ele>101</ele>
        <time>2021-08-28T11:37:03.000Z</time>
      </trkpt>
      <trkpt lat="47.36658" lon="-1.42078">
        <ele>102</ele>
        <time>2021-08-28T11:37:05.000Z</time>
      </trkpt>
      <trkpt lat="47.36657" lon="-1.42063">
        <ele>102</ele>
        <time>2021-08-28T11:37:07.000Z</time>
      </trkpt>
      <trkpt lat="47.36656" lon="-1.42048">
        <ele>102</ele>
        <time>2021-08-28T11:37:09.000Z</time>
      </trkpt>
      <trkpt lat="47.36655" lon="-1.42034">
        <ele>102</ele>
        <time>2021-08-28T11:37:11.000Z</time>
      </trkpt>
      <trkpt lat="47.36653" lon="-1.42019">
        <ele>103</ele>
        <time>2021-08-28T11:37:13.000Z</time>
      </trkpt>
      <trkpt lat="47.36652" lon="-1.42005">
        <ele>103</ele>
        <time>2021-08-28T11:37:15.000Z</time>
      </trkpt>
      <trkpt lat="47.36651" lon="-1.4199">
        <ele>103</ele>
        <time>2021-08-28T11:37:17.000Z</time>
      </trkpt>
      <trkpt lat="47.36649" lon="-1.41974">
        <ele>104</ele>
        <time>2021-08-28T11:37:19.000Z</time>
      </trkpt>
      <trkpt lat="47.36648" lon="-1.41959">
        <ele>104</ele>
        <time>2021-08-28T11:37:21.000Z</time>
      </trkpt>
      <trkpt lat="47.36646" lon="-1.41944">
        <ele>104</ele>
        <time>2021-08-28T11:37:23.000Z</time>
      </trkpt>
      <trkpt lat="47.36645" lon="-1.4193">
        <ele>105</ele>
        <time>2021-08-28T11:37:25.000Z</time>
      </trkpt>
      <trkpt lat="47.36643" lon="-1.41915">
        <ele>105</ele>
        <time>2021-08-28T11:37:27.000Z</time>
      </trkpt>
      <trkpt lat="47.36643" lon="-1.419">
        <ele>106</ele>
        <time>2021-08-28T11:37:29.000Z</time>
      </trkpt>
      <trkpt lat="47.36641" lon="-1.41885">
        <ele>106</ele>
        <time>2021-08-28T11:37:31.000Z</time>
      </trkpt>
      <trkpt lat="47.3664" lon="-1.4187">
        <ele>107</ele>
        <time>2021-08-28T11:37:33.000Z</time>
      </trkpt>
      <trkpt lat="47.36639" lon="-1.41856">
        <ele>107</ele>
        <time>2021-08-28T11:37:35.000Z</time>
      </trkpt>
      <trkpt lat="47.36637" lon="-1.41841">
        <ele>107</ele>
        <time>2021-08-28T11:37:37.000Z</time>
      </trkpt>
      <trkpt lat="47.36636" lon="-1.41828">
        <ele>108</ele>
        <time>2021-08-28T11:37:39.000Z</time>
      </trkpt>
      <trkpt lat="47.36634" lon="-1.41814">
        <ele>108</ele>
        <time>2021-08-28T11:37:41.000Z</time>
      </trkpt>
      <trkpt lat="47.36633" lon="-1.418">
        <ele>108</ele>
        <time>2021-08-28T11:37:43.000Z</time>
      </trkpt>
      <trkpt lat="47.36632" lon="-1.41785">
        <ele>109</ele>
        <time>2021-08-28T11:37:45.000Z</time>
      </trkpt>
      <trkpt lat="47.36631" lon="-1.4177">
        <ele>110</ele>
        <time>2021-08-28T11:37:47.000Z</time>
      </trkpt>
      <trkpt lat="47.3663" lon="-1.41754">
        <ele>110</ele>
        <time>2021-08-28T11:37:49.000Z</time>
      </trkpt>
      <trkpt lat="47.36628" lon="-1.41739">
        <ele>110</ele>
        <time>2021-08-28T11:37:51.000Z</time>
      </trkpt>
      <trkpt lat="47.36626" lon="-1.41723">
        <ele>110</ele>
        <time>2021-08-28T11:37:53.000Z</time>
      </trkpt>
      <trkpt lat="47.36626" lon="-1.41707">
        <ele>109</ele>
        <time>2021-08-28T11:37:55.000Z</time>
      </trkpt>
      <trkpt lat="47.36625" lon="-1.41692">
        <ele>109</ele>
        <time>2021-08-28T11:37:57.000Z</time>
      </trkpt>
      <trkpt lat="47.36625" lon="-1.41678">
        <ele>109</ele>
        <time>2021-08-28T11:37:59.000Z</time>
      </trkpt>
      <trkpt lat="47.36624" lon="-1.41663">
        <ele>108</ele>
        <time>2021-08-28T11:38:01.000Z</time>
      </trkpt>
      <trkpt lat="47.36624" lon="-1.41647">
        <ele>108</ele>
        <time>2021-08-28T11:38:03.000Z</time>
      </trkpt>
      <trkpt lat="47.36624" lon="-1.41632">
        <ele>109</ele>
        <time>2021-08-28T11:38:05.000Z</time>
      </trkpt>
      <trkpt lat="47.36625" lon="-1.41616">
        <ele>109</ele>
        <time>2021-08-28T11:38:07.000Z</time>
      </trkpt>
      <trkpt lat="47.36625" lon="-1.41602">
        <ele>109</ele>
        <time>2021-08-28T11:38:09.000Z</time>
      </trkpt>
      <trkpt lat="47.36626" lon="-1.41587">
        <ele>110</ele>
        <time>2021-08-28T11:38:11.000Z</time>
      </trkpt>
      <trkpt lat="47.36627" lon="-1.41572">
        <ele>111</ele>
        <time>2021-08-28T11:38:13.000Z</time>
      </trkpt>
      <trkpt lat="47.36628" lon="-1.41557">
        <ele>111</ele>
        <time>2021-08-28T11:38:15.000Z</time>
      </trkpt>
      <trkpt lat="47.36629" lon="-1.41542">
        <ele>110</ele>
        <time>2021-08-28T11:38:17.000Z</time>
      </trkpt>
      <trkpt lat="47.36633" lon="-1.41527">
        <ele>111</ele>
        <time>2021-08-28T11:38:19.000Z</time>
      </trkpt>
      <trkpt lat="47.36637" lon="-1.41512">
        <ele>112</ele>
        <time>2021-08-28T11:38:21.000Z</time>
      </trkpt>
      <trkpt lat="47.36641" lon="-1.41497">
        <ele>112</ele>
        <time>2021-08-28T11:38:23.000Z</time>
      </trkpt>
      <trkpt lat="47.36644" lon="-1.41482">
        <ele>112</ele>
        <time>2021-08-28T11:38:25.000Z</time>
      </trkpt>
      <trkpt lat="47.36648" lon="-1.41466">
        <ele>112</ele>
        <time>2021-08-28T11:38:27.000Z</time>
      </trkpt>
      <trkpt lat="47.36653" lon="-1.41451">
        <ele>112</ele>
        <time>2021-08-28T11:38:29.000Z</time>
      </trkpt>
      <trkpt lat="47.36657" lon="-1.41436">
        <ele>112</ele>
        <time>2021-08-28T11:38:31.000Z</time>
      </trkpt>
      <trkpt lat="47.36663" lon="-1.4142">
        <ele>112</ele>
        <time>2021-08-28T11:38:33.000Z</time>
      </trkpt>
      <trkpt lat="47.36669" lon="-1.41404">
        <ele>112</ele>
        <time>2021-08-28T11:38:35.000Z</time>
      </trkpt>
      <trkpt lat="47.36675" lon="-1.41389">
        <ele>112</ele>
        <time>2021-08-28T11:38:37.000Z</time>
      </trkpt>
      <trkpt lat="47.3668" lon="-1.41373">
        <ele>112</ele>
        <time>2021-08-28T11:38:39.000Z</time>
      </trkpt>
      <trkpt lat="47.36687" lon="-1.41357">
        <ele>112</ele>
        <time>2021-08-28T11:38:41.000Z</time>
      </trkpt>
      <trkpt lat="47.36693" lon="-1.4134">
        <ele>112</ele>
        <time>2021-08-28T11:38:43.000Z</time>
      </trkpt>
      <trkpt lat="47.36699" lon="-1.41323">
        <ele>111</ele>
        <time>2021-08-28T11:38:45.000Z</time>
      </trkpt>
      <trkpt lat="47.36705" lon="-1.41307">
        <ele>111</ele>
        <time>2021-08-28T11:38:47.000Z</time>
      </trkpt>
      <trkpt lat="47.36711" lon="-1.4129">
        <ele>110</ele>
        <time>2021-08-28T11:38:49.000Z</time>
      </trkpt>
      <trkpt lat="47.36718" lon="-1.41274">
        <ele>110</ele>
        <time>2021-08-28T11:38:51.000Z</time>
      </trkpt>
      <trkpt lat="47.36724" lon="-1.41258">
        <ele>109</ele>
        <time>2021-08-28T11:38:53.000Z</time>
      </trkpt>
      <trkpt lat="47.36729" lon="-1.41241">
        <ele>109</ele>
        <time>2021-08-28T11:38:55.000Z</time>
      </trkpt>
      <trkpt lat="47.36735" lon="-1.41226">
        <ele>108</ele>
        <time>2021-08-28T11:38:57.000Z</time>
      </trkpt>
      <trkpt lat="47.36739" lon="-1.41208">
        <ele>108</ele>
        <time>2021-08-28T11:38:59.000Z</time>
      </trkpt>
      <trkpt lat="47.36741" lon="-1.4119">
        <ele>107</ele>
        <time>2021-08-28T11:39:01.000Z</time>
      </trkpt>
      <trkpt lat="47.3674" lon="-1.4117">
        <ele>107</ele>
        <time>2021-08-28T11:39:03.000Z</time>
      </trkpt>
      <trkpt lat="47.36738" lon="-1.41151">
        <ele>107</ele>
        <time>2021-08-28T11:39:05.000Z</time>
      </trkpt>
      <trkpt lat="47.36735" lon="-1.41132">
        <ele>106</ele>
        <time>2021-08-28T11:39:07.000Z</time>
      </trkpt>
      <trkpt lat="47.36731" lon="-1.41114">
        <ele>106</ele>
        <time>2021-08-28T11:39:09.000Z</time>
      </trkpt>
      <trkpt lat="47.36726" lon="-1.41097">
        <ele>105</ele>
        <time>2021-08-28T11:39:11.000Z</time>
      </trkpt>
      <trkpt lat="47.36721" lon="-1.41079">
        <ele>105</ele>
        <time>2021-08-28T11:39:13.000Z</time>
      </trkpt>
      <trkpt lat="47.36717" lon="-1.41061">
        <ele>104</ele>
        <time>2021-08-28T11:39:15.000Z</time>
      </trkpt>
      <trkpt lat="47.36712" lon="-1.41043">
        <ele>104</ele>
        <time>2021-08-28T11:39:17.000Z</time>
      </trkpt>
      <trkpt lat="47.36707" lon="-1.41025">
        <ele>104</ele>
        <time>2021-08-28T11:39:19.000Z</time>
      </trkpt>
      <trkpt lat="47.36703" lon="-1.41007">
        <ele>104</ele>
        <time>2021-08-28T11:39:21.000Z</time>
      </trkpt>
      <trkpt lat="47.36698" lon="-1.4099">
        <ele>104</ele>
        <time>2021-08-28T11:39:23.000Z</time>
      </trkpt>
      <trkpt lat="47.36694" lon="-1.40973">
        <ele>104</ele>
        <time>2021-08-28T11:39:25.000Z</time>
      </trkpt>
      <trkpt lat="47.36691" lon="-1.40956">
        <ele>104</ele>
        <time>2021-08-28T11:39:27.000Z</time>
      </trkpt>
      <trkpt lat="47.36689" lon="-1.4094">
        <ele>105</ele>
        <time>2021-08-28T11:39:29.000Z</time>
      </trkpt>
      <trkpt lat="47.36688" lon="-1.40924">
        <ele>105</ele>
        <time>2021-08-28T11:39:31.000Z</time>
      </trkpt>
      <trkpt lat="47.36688" lon="-1.40908">
        <ele>105</ele>
        <time>2021-08-28T11:39:33.000Z</time>
      </trkpt>
      <trkpt lat="47.36689" lon="-1.40891">
        <ele>106</ele>
        <time>2021-08-28T11:39:35.000Z</time>
      </trkpt>
      <trkpt lat="47.3669" lon="-1.40875">
        <ele>106</ele>
        <time>2021-08-28T11:39:37.000Z</time>
      </trkpt>
      <trkpt lat="47.3669" lon="-1.40859">
        <ele>106</ele>
        <time>2021-08-28T11:39:39.000Z</time>
      </trkpt>
      <trkpt lat="47.3669" lon="-1.40834">
        <ele>106</ele>
        <time>2021-08-28T11:39:42.000Z</time>
      </trkpt>
      <trkpt lat="47.3669" lon="-1.40819">
        <ele>107</ele>
        <time>2021-08-28T11:39:44.000Z</time>
      </trkpt>
      <trkpt lat="47.3669" lon="-1.40802">
        <ele>107</ele>
        <time>2021-08-28T11:39:46.000Z</time>
      </trkpt>
      <trkpt lat="47.36691" lon="-1.40786">
        <ele>107</ele>
        <time>2021-08-28T11:39:48.000Z</time>
      </trkpt>
      <trkpt lat="47.36691" lon="-1.40771">
        <ele>107</ele>
        <time>2021-08-28T11:39:50.000Z</time>
      </trkpt>
      <trkpt lat="47.36691" lon="-1.40754">
        <ele>108</ele>
        <time>2021-08-28T11:39:52.000Z</time>
      </trkpt>
      <trkpt lat="47.36692" lon="-1.40737">
        <ele>108</ele>
        <time>2021-08-28T11:39:54.000Z</time>
      </trkpt>
      <trkpt lat="47.36692" lon="-1.4072">
        <ele>108</ele>
        <time>2021-08-28T11:39:56.000Z</time>
      </trkpt>
      <trkpt lat="47.36693" lon="-1.40703">
        <ele>108</ele>
        <time>2021-08-28T11:39:58.000Z</time>
      </trkpt>
      <trkpt lat="47.36693" lon="-1.40686">
        <ele>108</ele>
        <time>2021-08-28T11:40:00.000Z</time>
      </trkpt>
      <trkpt lat="47.36694" lon="-1.40669">
        <ele>108</ele>
        <time>2021-08-28T11:40:02.000Z</time>
      </trkpt>
      <trkpt lat="47.36695" lon="-1.40652">
        <ele>107</ele>
        <time>2021-08-28T11:40:04.000Z</time>
      </trkpt>
      <trkpt lat="47.36696" lon="-1.40634">
        <ele>107</ele>
        <time>2021-08-28T11:40:06.000Z</time>
      </trkpt>
      <trkpt lat="47.36696" lon="-1.40617">
        <ele>106</ele>
        <time>2021-08-28T11:40:08.000Z</time>
      </trkpt>
      <trkpt lat="47.36697" lon="-1.406">
        <ele>106</ele>
        <time>2021-08-28T11:40:10.000Z</time>
      </trkpt>
      <trkpt lat="47.36697" lon="-1.40581">
        <ele>106</ele>
        <time>2021-08-28T11:40:12.000Z</time>
      </trkpt>
      <trkpt lat="47.36697" lon="-1.40563">
        <ele>105</ele>
        <time>2021-08-28T11:40:14.000Z</time>
      </trkpt>
      <trkpt lat="47.36696" lon="-1.40546">
        <ele>105</ele>
        <time>2021-08-28T11:40:16.000Z</time>
      </trkpt>
      <trkpt lat="47.36694" lon="-1.40531">
        <ele>105</ele>
        <time>2021-08-28T11:40:18.000Z</time>
      </trkpt>
      <trkpt lat="47.36701" lon="-1.40516">
        <ele>104</ele>
        <time>2021-08-28T11:40:21.000Z</time>
      </trkpt>
      <trkpt lat="47.36712" lon="-1.40515">
        <ele>103</ele>
        <time>2021-08-28T11:40:23.000Z</time>
      </trkpt>
      <trkpt lat="47.36722" lon="-1.40507">
        <ele>102</ele>
        <time>2021-08-28T11:40:25.000Z</time>
      </trkpt>
      <trkpt lat="47.36726" lon="-1.40491">
        <ele>101</ele>
        <time>2021-08-28T11:40:27.000Z</time>
      </trkpt>
      <trkpt lat="47.36728" lon="-1.40474">
        <ele>102</ele>
        <time>2021-08-28T11:40:29.000Z</time>
      </trkpt>
      <trkpt lat="47.36729" lon="-1.40457">
        <ele>102</ele>
        <time>2021-08-28T11:40:31.000Z</time>
      </trkpt>
      <trkpt lat="47.36729" lon="-1.40441">
        <ele>102</ele>
        <time>2021-08-28T11:40:33.000Z</time>
      </trkpt>
      <trkpt lat="47.3673" lon="-1.40424">
        <ele>102</ele>
        <time>2021-08-28T11:40:35.000Z</time>
      </trkpt>
      <trkpt lat="47.36735" lon="-1.40398">
        <ele>101</ele>
        <time>2021-08-28T11:40:38.000Z</time>
      </trkpt>
      <trkpt lat="47.36737" lon="-1.40381">
        <ele>101</ele>
        <time>2021-08-28T11:40:40.000Z</time>
      </trkpt>
      <trkpt lat="47.3674" lon="-1.40363">
        <ele>100</ele>
        <time>2021-08-28T11:40:42.000Z</time>
      </trkpt>
      <trkpt lat="47.36744" lon="-1.40336">
        <ele>100</ele>
        <time>2021-08-28T11:40:45.000Z</time>
      </trkpt>
      <trkpt lat="47.36748" lon="-1.4031">
        <ele>100</ele>
        <time>2021-08-28T11:40:48.000Z</time>
      </trkpt>
      <trkpt lat="47.36753" lon="-1.40283">
        <ele>99</ele>
        <time>2021-08-28T11:40:51.000Z</time>
      </trkpt>
      <trkpt lat="47.36756" lon="-1.40264">
        <ele>99</ele>
        <time>2021-08-28T11:40:53.000Z</time>
      </trkpt>
      <trkpt lat="47.36759" lon="-1.40236">
        <ele>98</ele>
        <time>2021-08-28T11:40:56.000Z</time>
      </trkpt>
      <trkpt lat="47.36761" lon="-1.40216">
        <ele>98</ele>
        <time>2021-08-28T11:40:58.000Z</time>
      </trkpt>
      <trkpt lat="47.36763" lon="-1.40196">
        <ele>98</ele>
        <time>2021-08-28T11:41:00.000Z</time>
      </trkpt>
      <trkpt lat="47.36763" lon="-1.40177">
        <ele>99</ele>
        <time>2021-08-28T11:41:02.000Z</time>
      </trkpt>
      <trkpt lat="47.36763" lon="-1.40158">
        <ele>99</ele>
        <time>2021-08-28T11:41:04.000Z</time>
      </trkpt>
      <trkpt lat="47.36763" lon="-1.40139">
        <ele>99</ele>
        <time>2021-08-28T11:41:06.000Z</time>
      </trkpt>
      <trkpt lat="47.36763" lon="-1.40121">
        <ele>100</ele>
        <time>2021-08-28T11:41:08.000Z</time>
      </trkpt>
      <trkpt lat="47.36763" lon="-1.40103">
        <ele>100</ele>
        <time>2021-08-28T11:41:10.000Z</time>
      </trkpt>
      <trkpt lat="47.36763" lon="-1.40085">
        <ele>101</ele>
        <time>2021-08-28T11:41:12.000Z</time>
      </trkpt>
      <trkpt lat="47.36763" lon="-1.40068">
        <ele>101</ele>
        <time>2021-08-28T11:41:14.000Z</time>
      </trkpt>
      <trkpt lat="47.36764" lon="-1.40052">
        <ele>101</ele>
        <time>2021-08-28T11:41:16.000Z</time>
      </trkpt>
      <trkpt lat="47.36765" lon="-1.40035">
        <ele>101</ele>
        <time>2021-08-28T11:41:18.000Z</time>
      </trkpt>
      <trkpt lat="47.36765" lon="-1.40018">
        <ele>101</ele>
        <time>2021-08-28T11:41:20.000Z</time>
      </trkpt>
      <trkpt lat="47.36765" lon="-1.40001">
        <ele>102</ele>
        <time>2021-08-28T11:41:22.000Z</time>
      </trkpt>
      <trkpt lat="47.36765" lon="-1.39983">
        <ele>103</ele>
        <time>2021-08-28T11:41:24.000Z</time>
      </trkpt>
      <trkpt lat="47.36765" lon="-1.39966">
        <ele>103</ele>
        <time>2021-08-28T11:41:26.000Z</time>
      </trkpt>
      <trkpt lat="47.36764" lon="-1.39949">
        <ele>104</ele>
        <time>2021-08-28T11:41:28.000Z</time>
      </trkpt>
      <trkpt lat="47.36764" lon="-1.39932">
        <ele>104</ele>
        <time>2021-08-28T11:41:30.000Z</time>
      </trkpt>
      <trkpt lat="47.36764" lon="-1.39917">
        <ele>104</ele>
        <time>2021-08-28T11:41:32.000Z</time>
      </trkpt>
      <trkpt lat="47.36764" lon="-1.39902">
        <ele>104</ele>
        <time>2021-08-28T11:41:34.000Z</time>
      </trkpt>
      <trkpt lat="47.36764" lon="-1.39887">
        <ele>104</ele>
        <time>2021-08-28T11:41:36.000Z</time>
      </trkpt>
      <trkpt lat="47.36764" lon="-1.39872">
        <ele>104</ele>
        <time>2021-08-28T11:41:38.000Z</time>
      </trkpt>
      <trkpt lat="47.36764" lon="-1.39857">
        <ele>104</ele>
        <time>2021-08-28T11:41:40.000Z</time>
      </trkpt>
      <trkpt lat="47.36764" lon="-1.39842">
        <ele>105</ele>
        <time>2021-08-28T11:41:42.000Z</time>
      </trkpt>
      <trkpt lat="47.36763" lon="-1.39826">
        <ele>105</ele>
        <time>2021-08-28T11:41:44.000Z</time>
      </trkpt>
      <trkpt lat="47.36763" lon="-1.3981">
        <ele>106</ele>
        <time>2021-08-28T11:41:46.000Z</time>
      </trkpt>
      <trkpt lat="47.36764" lon="-1.39795">
        <ele>106</ele>
        <time>2021-08-28T11:41:48.000Z</time>
      </trkpt>
      <trkpt lat="47.36764" lon="-1.3978">
        <ele>106</ele>
        <time>2021-08-28T11:41:50.000Z</time>
      </trkpt>
      <trkpt lat="47.36763" lon="-1.39764">
        <ele>106</ele>
        <time>2021-08-28T11:41:52.000Z</time>
      </trkpt>
      <trkpt lat="47.36763" lon="-1.3975">
        <ele>106</ele>
        <time>2021-08-28T11:41:54.000Z</time>
      </trkpt>
      <trkpt lat="47.36763" lon="-1.39735">
        <ele>106</ele>
        <time>2021-08-28T11:41:56.000Z</time>
      </trkpt>
      <trkpt lat="47.36763" lon="-1.39719">
        <ele>107</ele>
        <time>2021-08-28T11:41:58.000Z</time>
      </trkpt>
      <trkpt lat="47.36764" lon="-1.39705">
        <ele>107</ele>
        <time>2021-08-28T11:42:00.000Z</time>
      </trkpt>
      <trkpt lat="47.36764" lon="-1.3969">
        <ele>107</ele>
        <time>2021-08-28T11:42:02.000Z</time>
      </trkpt>
      <trkpt lat="47.36764" lon="-1.39674">
        <ele>107</ele>
        <time>2021-08-28T11:42:04.000Z</time>
      </trkpt>
      <trkpt lat="47.36764" lon="-1.39659">
        <ele>108</ele>
        <time>2021-08-28T11:42:06.000Z</time>
      </trkpt>
      <trkpt lat="47.36764" lon="-1.39643">
        <ele>108</ele>
        <time>2021-08-28T11:42:08.000Z</time>
      </trkpt>
      <trkpt lat="47.36764" lon="-1.39629">
        <ele>108</ele>
        <time>2021-08-28T11:42:10.000Z</time>
      </trkpt>
      <trkpt lat="47.36764" lon="-1.39615">
        <ele>108</ele>
        <time>2021-08-28T11:42:12.000Z</time>
      </trkpt>
      <trkpt lat="47.36764" lon="-1.39599">
        <ele>108</ele>
        <time>2021-08-28T11:42:14.000Z</time>
      </trkpt>
      <trkpt lat="47.36764" lon="-1.39585">
        <ele>108</ele>
        <time>2021-08-28T11:42:16.000Z</time>
      </trkpt>
      <trkpt lat="47.36765" lon="-1.3957">
        <ele>107</ele>
        <time>2021-08-28T11:42:18.000Z</time>
      </trkpt>
      <trkpt lat="47.36765" lon="-1.39555">
        <ele>107</ele>
        <time>2021-08-28T11:42:20.000Z</time>
      </trkpt>
      <trkpt lat="47.36765" lon="-1.3954">
        <ele>107</ele>
        <time>2021-08-28T11:42:22.000Z</time>
      </trkpt>
      <trkpt lat="47.36765" lon="-1.39524">
        <ele>107</ele>
        <time>2021-08-28T11:42:24.000Z</time>
      </trkpt>
      <trkpt lat="47.36765" lon="-1.39509">
        <ele>108</ele>
        <time>2021-08-28T11:42:26.000Z</time>
      </trkpt>
      <trkpt lat="47.36765" lon="-1.39494">
        <ele>108</ele>
        <time>2021-08-28T11:42:28.000Z</time>
      </trkpt>
      <trkpt lat="47.36765" lon="-1.39479">
        <ele>108</ele>
        <time>2021-08-28T11:42:30.000Z</time>
      </trkpt>
      <trkpt lat="47.36764" lon="-1.39463">
        <ele>108</ele>
        <time>2021-08-28T11:42:32.000Z</time>
      </trkpt>
      <trkpt lat="47.36764" lon="-1.39447">
        <ele>108</ele>
        <time>2021-08-28T11:42:34.000Z</time>
      </trkpt>
      <trkpt lat="47.36765" lon="-1.39431">
        <ele>108</ele>
        <time>2021-08-28T11:42:36.000Z</time>
      </trkpt>
      <trkpt lat="47.36765" lon="-1.39416">
        <ele>108</ele>
        <time>2021-08-28T11:42:38.000Z</time>
      </trkpt>
      <trkpt lat="47.36765" lon="-1.394">
        <ele>108</ele>
        <time>2021-08-28T11:42:40.000Z</time>
      </trkpt>
      <trkpt lat="47.36765" lon="-1.39385">
        <ele>108</ele>
        <time>2021-08-28T11:42:42.000Z</time>
      </trkpt>
      <trkpt lat="47.36764" lon="-1.39369">
        <ele>108</ele>
        <time>2021-08-28T11:42:44.000Z</time>
      </trkpt>
      <trkpt lat="47.36764" lon="-1.39354">
        <ele>108</ele>
        <time>2021-08-28T11:42:46.000Z</time>
      </trkpt>
      <trkpt lat="47.36763" lon="-1.39338">
        <ele>108</ele>
        <time>2021-08-28T11:42:48.000Z</time>
      </trkpt>
      <trkpt lat="47.36761" lon="-1.39323">
        <ele>108</ele>
        <time>2021-08-28T11:42:50.000Z</time>
      </trkpt>
      <trkpt lat="47.36758" lon="-1.39308">
        <ele>108</ele>
        <time>2021-08-28T11:42:52.000Z</time>
      </trkpt>
      <trkpt lat="47.36755" lon="-1.39294">
        <ele>108</ele>
        <time>2021-08-28T11:42:54.000Z</time>
      </trkpt>
      <trkpt lat="47.36751" lon="-1.3928">
        <ele>108</ele>
        <time>2021-08-28T11:42:56.000Z</time>
      </trkpt>
      <trkpt lat="47.36747" lon="-1.39266">
        <ele>108</ele>
        <time>2021-08-28T11:42:58.000Z</time>
      </trkpt>
      <trkpt lat="47.36742" lon="-1.39254">
        <ele>109</ele>
        <time>2021-08-28T11:43:00.000Z</time>
      </trkpt>
      <trkpt lat="47.36736" lon="-1.39241">
        <ele>109</ele>
        <time>2021-08-28T11:43:02.000Z</time>
      </trkpt>
      <trkpt lat="47.36731" lon="-1.39228">
        <ele>109</ele>
        <time>2021-08-28T11:43:04.000Z</time>
      </trkpt>
      <trkpt lat="47.36725" lon="-1.39216">
        <ele>109</ele>
        <time>2021-08-28T11:43:06.000Z</time>
      </trkpt>
      <trkpt lat="47.36719" lon="-1.39204">
        <ele>109</ele>
        <time>2021-08-28T11:43:08.000Z</time>
      </trkpt>
      <trkpt lat="47.36713" lon="-1.39191">
        <ele>110</ele>
        <time>2021-08-28T11:43:10.000Z</time>
      </trkpt>
      <trkpt lat="47.36707" lon="-1.39178">
        <ele>110</ele>
        <time>2021-08-28T11:43:12.000Z</time>
      </trkpt>
      <trkpt lat="47.367" lon="-1.39165">
        <ele>110</ele>
        <time>2021-08-28T11:43:14.000Z</time>
      </trkpt>
      <trkpt lat="47.36694" lon="-1.39152">
        <ele>111</ele>
        <time>2021-08-28T11:43:16.000Z</time>
      </trkpt>
      <trkpt lat="47.36688" lon="-1.39139">
        <ele>111</ele>
        <time>2021-08-28T11:43:18.000Z</time>
      </trkpt>
      <trkpt lat="47.36682" lon="-1.39126">
        <ele>111</ele>
        <time>2021-08-28T11:43:20.000Z</time>
      </trkpt>
      <trkpt lat="47.36676" lon="-1.39113">
        <ele>111</ele>
        <time>2021-08-28T11:43:22.000Z</time>
      </trkpt>
      <trkpt lat="47.36669" lon="-1.391">
        <ele>111</ele>
        <time>2021-08-28T11:43:24.000Z</time>
      </trkpt>
      <trkpt lat="47.36663" lon="-1.39086">
        <ele>111</ele>
        <time>2021-08-28T11:43:26.000Z</time>
      </trkpt>
      <trkpt lat="47.36656" lon="-1.39072">
        <ele>111</ele>
        <time>2021-08-28T11:43:28.000Z</time>
      </trkpt>
      <trkpt lat="47.3665" lon="-1.39059">
        <ele>111</ele>
        <time>2021-08-28T11:43:30.000Z</time>
      </trkpt>
      <trkpt lat="47.36643" lon="-1.39045">
        <ele>112</ele>
        <time>2021-08-28T11:43:32.000Z</time>
      </trkpt>
      <trkpt lat="47.36637" lon="-1.39032">
        <ele>112</ele>
        <time>2021-08-28T11:43:34.000Z</time>
      </trkpt>
      <trkpt lat="47.3663" lon="-1.39018">
        <ele>111</ele>
        <time>2021-08-28T11:43:36.000Z</time>
      </trkpt>
      <trkpt lat="47.36623" lon="-1.39003">
        <ele>111</ele>
        <time>2021-08-28T11:43:38.000Z</time>
      </trkpt>
      <trkpt lat="47.36616" lon="-1.38989">
        <ele>112</ele>
        <time>2021-08-28T11:43:40.000Z</time>
      </trkpt>
      <trkpt lat="47.36609" lon="-1.38975">
        <ele>112</ele>
        <time>2021-08-28T11:43:42.000Z</time>
      </trkpt>
      <trkpt lat="47.36603" lon="-1.38961">
        <ele>112</ele>
        <time>2021-08-28T11:43:44.000Z</time>
      </trkpt>
      <trkpt lat="47.36596" lon="-1.38948">
        <ele>112</ele>
        <time>2021-08-28T11:43:46.000Z</time>
      </trkpt>
      <trkpt lat="47.3659" lon="-1.38935">
        <ele>112</ele>
        <time>2021-08-28T11:43:48.000Z</time>
      </trkpt>
      <trkpt lat="47.36585" lon="-1.38921">
        <ele>113</ele>
        <time>2021-08-28T11:43:50.000Z</time>
      </trkpt>
      <trkpt lat="47.36578" lon="-1.38908">
        <ele>113</ele>
        <time>2021-08-28T11:43:52.000Z</time>
      </trkpt>
      <trkpt lat="47.36571" lon="-1.38894">
        <ele>113</ele>
        <time>2021-08-28T11:43:54.000Z</time>
      </trkpt>
      <trkpt lat="47.36564" lon="-1.38881">
        <ele>113</ele>
        <time>2021-08-28T11:43:56.000Z</time>
      </trkpt>
      <trkpt lat="47.36558" lon="-1.38867">
        <ele>113</ele>
        <time>2021-08-28T11:43:58.000Z</time>
      </trkpt>
      <trkpt lat="47.36552" lon="-1.38854">
        <ele>113</ele>
        <time>2021-08-28T11:44:00.000Z</time>
      </trkpt>
      <trkpt lat="47.36546" lon="-1.38841">
        <ele>113</ele>
        <time>2021-08-28T11:44:02.000Z</time>
      </trkpt>
      <trkpt lat="47.36539" lon="-1.38827">
        <ele>113</ele>
        <time>2021-08-28T11:44:04.000Z</time>
      </trkpt>
      <trkpt lat="47.36533" lon="-1.38814">
        <ele>113</ele>
        <time>2021-08-28T11:44:06.000Z</time>
      </trkpt>
      <trkpt lat="47.36526" lon="-1.388">
        <ele>113</ele>
        <time>2021-08-28T11:44:08.000Z</time>
      </trkpt>
      <trkpt lat="47.36519" lon="-1.38786">
        <ele>114</ele>
        <time>2021-08-28T11:44:10.000Z</time>
      </trkpt>
      <trkpt lat="47.36513" lon="-1.38772">
        <ele>114</ele>
        <time>2021-08-28T11:44:12.000Z</time>
      </trkpt>
      <trkpt lat="47.36506" lon="-1.38757">
        <ele>114</ele>
        <time>2021-08-28T11:44:14.000Z</time>
      </trkpt>
      <trkpt lat="47.365" lon="-1.38743">
        <ele>115</ele>
        <time>2021-08-28T11:44:16.000Z</time>
      </trkpt>
      <trkpt lat="47.36493" lon="-1.38729">
        <ele>114</ele>
        <time>2021-08-28T11:44:18.000Z</time>
      </trkpt>
      <trkpt lat="47.36486" lon="-1.38716">
        <ele>114</ele>
        <time>2021-08-28T11:44:20.000Z</time>
      </trkpt>
      <trkpt lat="47.3648" lon="-1.38702">
        <ele>115</ele>
        <time>2021-08-28T11:44:22.000Z</time>
      </trkpt>
      <trkpt lat="47.36474" lon="-1.38688">
        <ele>115</ele>
        <time>2021-08-28T11:44:24.000Z</time>
      </trkpt>
      <trkpt lat="47.36467" lon="-1.38675">
        <ele>115</ele>
        <time>2021-08-28T11:44:26.000Z</time>
      </trkpt>
      <trkpt lat="47.36461" lon="-1.38662">
        <ele>115</ele>
        <time>2021-08-28T11:44:28.000Z</time>
      </trkpt>
      <trkpt lat="47.36454" lon="-1.38648">
        <ele>116</ele>
        <time>2021-08-28T11:44:30.000Z</time>
      </trkpt>
      <trkpt lat="47.36448" lon="-1.38635">
        <ele>115</ele>
        <time>2021-08-28T11:44:32.000Z</time>
      </trkpt>
      <trkpt lat="47.36441" lon="-1.38621">
        <ele>115</ele>
        <time>2021-08-28T11:44:34.000Z</time>
      </trkpt>
      <trkpt lat="47.36434" lon="-1.38607">
        <ele>115</ele>
        <time>2021-08-28T11:44:36.000Z</time>
      </trkpt>
      <trkpt lat="47.36427" lon="-1.38593">
        <ele>115</ele>
        <time>2021-08-28T11:44:38.000Z</time>
      </trkpt>
      <trkpt lat="47.3642" lon="-1.38579">
        <ele>115</ele>
        <time>2021-08-28T11:44:40.000Z</time>
      </trkpt>
      <trkpt lat="47.36413" lon="-1.38565">
        <ele>115</ele>
        <time>2021-08-28T11:44:42.000Z</time>
      </trkpt>
      <trkpt lat="47.36405" lon="-1.38552">
        <ele>115</ele>
        <time>2021-08-28T11:44:44.000Z</time>
      </trkpt>
      <trkpt lat="47.36397" lon="-1.38539">
        <ele>115</ele>
        <time>2021-08-28T11:44:46.000Z</time>
      </trkpt>
      <trkpt lat="47.36389" lon="-1.38527">
        <ele>115</ele>
        <time>2021-08-28T11:44:48.000Z</time>
      </trkpt>
      <trkpt lat="47.36381" lon="-1.38514">
        <ele>115</ele>
        <time>2021-08-28T11:44:50.000Z</time>
      </trkpt>
      <trkpt lat="47.36373" lon="-1.38502">
        <ele>115</ele>
        <time>2021-08-28T11:44:52.000Z</time>
      </trkpt>
      <trkpt lat="47.36364" lon="-1.38489">
        <ele>115</ele>
        <time>2021-08-28T11:44:54.000Z</time>
      </trkpt>
      <trkpt lat="47.36356" lon="-1.38476">
        <ele>115</ele>
        <time>2021-08-28T11:44:56.000Z</time>
      </trkpt>
      <trkpt lat="47.36347" lon="-1.38464">
        <ele>115</ele>
        <time>2021-08-28T11:44:58.000Z</time>
      </trkpt>
      <trkpt lat="47.36339" lon="-1.38451">
        <ele>115</ele>
        <time>2021-08-28T11:45:00.000Z</time>
      </trkpt>
      <trkpt lat="47.3633" lon="-1.38438">
        <ele>115</ele>
        <time>2021-08-28T11:45:02.000Z</time>
      </trkpt>
      <trkpt lat="47.36321" lon="-1.38426">
        <ele>115</ele>
        <time>2021-08-28T11:45:04.000Z</time>
      </trkpt>
      <trkpt lat="47.36313" lon="-1.38412">
        <ele>114</ele>
        <time>2021-08-28T11:45:06.000Z</time>
      </trkpt>
      <trkpt lat="47.36304" lon="-1.38399">
        <ele>114</ele>
        <time>2021-08-28T11:45:08.000Z</time>
      </trkpt>
      <trkpt lat="47.36295" lon="-1.38385">
        <ele>114</ele>
        <time>2021-08-28T11:45:10.000Z</time>
      </trkpt>
      <trkpt lat="47.36286" lon="-1.38372">
        <ele>114</ele>
        <time>2021-08-28T11:45:12.000Z</time>
      </trkpt>
      <trkpt lat="47.36277" lon="-1.38359">
        <ele>114</ele>
        <time>2021-08-28T11:45:14.000Z</time>
      </trkpt>
      <trkpt lat="47.36269" lon="-1.38345">
        <ele>114</ele>
        <time>2021-08-28T11:45:16.000Z</time>
      </trkpt>
      <trkpt lat="47.36259" lon="-1.38331">
        <ele>114</ele>
        <time>2021-08-28T11:45:18.000Z</time>
      </trkpt>
      <trkpt lat="47.3625" lon="-1.38317">
        <ele>114</ele>
        <time>2021-08-28T11:45:20.000Z</time>
      </trkpt>
      <trkpt lat="47.36241" lon="-1.38304">
        <ele>113</ele>
        <time>2021-08-28T11:45:22.000Z</time>
      </trkpt>
      <trkpt lat="47.36232" lon="-1.38291">
        <ele>113</ele>
        <time>2021-08-28T11:45:24.000Z</time>
      </trkpt>
      <trkpt lat="47.36223" lon="-1.38276">
        <ele>113</ele>
        <time>2021-08-28T11:45:26.000Z</time>
      </trkpt>
      <trkpt lat="47.36214" lon="-1.38263">
        <ele>113</ele>
        <time>2021-08-28T11:45:28.000Z</time>
      </trkpt>
      <trkpt lat="47.36204" lon="-1.38249">
        <ele>113</ele>
        <time>2021-08-28T11:45:30.000Z</time>
      </trkpt>
      <trkpt lat="47.36196" lon="-1.38236">
        <ele>113</ele>
        <time>2021-08-28T11:45:32.000Z</time>
      </trkpt>
      <trkpt lat="47.36187" lon="-1.38223">
        <ele>113</ele>
        <time>2021-08-28T11:45:34.000Z</time>
      </trkpt>
      <trkpt lat="47.36178" lon="-1.38209">
        <ele>113</ele>
        <time>2021-08-28T11:45:36.000Z</time>
      </trkpt>
      <trkpt lat="47.36169" lon="-1.38196">
        <ele>114</ele>
        <time>2021-08-28T11:45:38.000Z</time>
      </trkpt>
      <trkpt lat="47.3616" lon="-1.38183">
        <ele>114</ele>
        <time>2021-08-28T11:45:40.000Z</time>
      </trkpt>
      <trkpt lat="47.36151" lon="-1.3817">
        <ele>114</ele>
        <time>2021-08-28T11:45:42.000Z</time>
      </trkpt>
      <trkpt lat="47.36143" lon="-1.38157">
        <ele>114</ele>
        <time>2021-08-28T11:45:44.000Z</time>
      </trkpt>
      <trkpt lat="47.36134" lon="-1.38144">
        <ele>114</ele>
        <time>2021-08-28T11:45:46.000Z</time>
      </trkpt>
      <trkpt lat="47.36126" lon="-1.38131">
        <ele>114</ele>
        <time>2021-08-28T11:45:48.000Z</time>
      </trkpt>
      <trkpt lat="47.36118" lon="-1.38118">
        <ele>114</ele>
        <time>2021-08-28T11:45:50.000Z</time>
      </trkpt>
      <trkpt lat="47.36109" lon="-1.38106">
        <ele>114</ele>
        <time>2021-08-28T11:45:52.000Z</time>
      </trkpt>
      <trkpt lat="47.361" lon="-1.38094">
        <ele>114</ele>
        <time>2021-08-28T11:45:54.000Z</time>
      </trkpt>
      <trkpt lat="47.36092" lon="-1.38081">
        <ele>115</ele>
        <time>2021-08-28T11:45:56.000Z</time>
      </trkpt>
      <trkpt lat="47.36084" lon="-1.38068">
        <ele>115</ele>
        <time>2021-08-28T11:45:58.000Z</time>
      </trkpt>
      <trkpt lat="47.36075" lon="-1.38056">
        <ele>115</ele>
        <time>2021-08-28T11:46:00.000Z</time>
      </trkpt>
      <trkpt lat="47.36066" lon="-1.38043">
        <ele>116</ele>
        <time>2021-08-28T11:46:02.000Z</time>
      </trkpt>
      <trkpt lat="47.36057" lon="-1.3803">
        <ele>116</ele>
        <time>2021-08-28T11:46:04.000Z</time>
      </trkpt>
      <trkpt lat="47.36049" lon="-1.38017">
        <ele>116</ele>
        <time>2021-08-28T11:46:06.000Z</time>
      </trkpt>
      <trkpt lat="47.36041" lon="-1.38005">
        <ele>116</ele>
        <time>2021-08-28T11:46:08.000Z</time>
      </trkpt>
      <trkpt lat="47.36033" lon="-1.37992">
        <ele>116</ele>
        <time>2021-08-28T11:46:10.000Z</time>
      </trkpt>
      <trkpt lat="47.36025" lon="-1.3798">
        <ele>116</ele>
        <time>2021-08-28T11:46:12.000Z</time>
      </trkpt>
      <trkpt lat="47.36016" lon="-1.37968">
        <ele>117</ele>
        <time>2021-08-28T11:46:14.000Z</time>
      </trkpt>
      <trkpt lat="47.36008" lon="-1.37955">
        <ele>117</ele>
        <time>2021-08-28T11:46:16.000Z</time>
      </trkpt>
      <trkpt lat="47.36" lon="-1.37943">
        <ele>117</ele>
        <time>2021-08-28T11:46:18.000Z</time>
      </trkpt>
      <trkpt lat="47.35992" lon="-1.37931">
        <ele>117</ele>
        <time>2021-08-28T11:46:20.000Z</time>
      </trkpt>
      <trkpt lat="47.35983" lon="-1.37918">
        <ele>118</ele>
        <time>2021-08-28T11:46:22.000Z</time>
      </trkpt>
      <trkpt lat="47.35975" lon="-1.37905">
        <ele>118</ele>
        <time>2021-08-28T11:46:24.000Z</time>
      </trkpt>
      <trkpt lat="47.35967" lon="-1.37892">
        <ele>118</ele>
        <time>2021-08-28T11:46:26.000Z</time>
      </trkpt>
      <trkpt lat="47.35959" lon="-1.3788">
        <ele>119</ele>
        <time>2021-08-28T11:46:28.000Z</time>
      </trkpt>
      <trkpt lat="47.35951" lon="-1.37868">
        <ele>119</ele>
        <time>2021-08-28T11:46:30.000Z</time>
      </trkpt>
      <trkpt lat="47.35942" lon="-1.37855">
        <ele>119</ele>
        <time>2021-08-28T11:46:32.000Z</time>
      </trkpt>
      <trkpt lat="47.35934" lon="-1.37843">
        <ele>120</ele>
        <time>2021-08-28T11:46:34.000Z</time>
      </trkpt>
      <trkpt lat="47.35925" lon="-1.37831">
        <ele>120</ele>
        <time>2021-08-28T11:46:36.000Z</time>
      </trkpt>
      <trkpt lat="47.35917" lon="-1.37818">
        <ele>120</ele>
        <time>2021-08-28T11:46:38.000Z</time>
      </trkpt>
      <trkpt lat="47.35909" lon="-1.37806">
        <ele>120</ele>
        <time>2021-08-28T11:46:40.000Z</time>
      </trkpt>
      <trkpt lat="47.35901" lon="-1.37793">
        <ele>120</ele>
        <time>2021-08-28T11:46:42.000Z</time>
      </trkpt>
      <trkpt lat="47.35892" lon="-1.37781">
        <ele>121</ele>
        <time>2021-08-28T11:46:44.000Z</time>
      </trkpt>
      <trkpt lat="47.35884" lon="-1.37768">
        <ele>121</ele>
        <time>2021-08-28T11:46:46.000Z</time>
      </trkpt>
      <trkpt lat="47.35876" lon="-1.37756">
        <ele>121</ele>
        <time>2021-08-28T11:46:48.000Z</time>
      </trkpt>
      <trkpt lat="47.35867" lon="-1.37743">
        <ele>121</ele>
        <time>2021-08-28T11:46:50.000Z</time>
      </trkpt>
      <trkpt lat="47.35859" lon="-1.37731">
        <ele>121</ele>
        <time>2021-08-28T11:46:52.000Z</time>
      </trkpt>
      <trkpt lat="47.35851" lon="-1.37719">
        <ele>121</ele>
        <time>2021-08-28T11:46:54.000Z</time>
      </trkpt>
      <trkpt lat="47.35843" lon="-1.37706">
        <ele>122</ele>
        <time>2021-08-28T11:46:56.000Z</time>
      </trkpt>
      <trkpt lat="47.35834" lon="-1.37694">
        <ele>122</ele>
        <time>2021-08-28T11:46:58.000Z</time>
      </trkpt>
      <trkpt lat="47.35826" lon="-1.37681">
        <ele>122</ele>
        <time>2021-08-28T11:47:00.000Z</time>
      </trkpt>
      <trkpt lat="47.35818" lon="-1.37669">
        <ele>123</ele>
        <time>2021-08-28T11:47:02.000Z</time>
      </trkpt>
      <trkpt lat="47.3581" lon="-1.37657">
        <ele>123</ele>
        <time>2021-08-28T11:47:04.000Z</time>
      </trkpt>
      <trkpt lat="47.35801" lon="-1.37645">
        <ele>123</ele>
        <time>2021-08-28T11:47:06.000Z</time>
      </trkpt>
      <trkpt lat="47.35792" lon="-1.37633">
        <ele>123</ele>
        <time>2021-08-28T11:47:08.000Z</time>
      </trkpt>
      <trkpt lat="47.35784" lon="-1.3762">
        <ele>124</ele>
        <time>2021-08-28T11:47:10.000Z</time>
      </trkpt>
      <trkpt lat="47.35776" lon="-1.37607">
        <ele>124</ele>
        <time>2021-08-28T11:47:12.000Z</time>
      </trkpt>
      <trkpt lat="47.35767" lon="-1.37595">
        <ele>124</ele>
        <time>2021-08-28T11:47:14.000Z</time>
      </trkpt>
      <trkpt lat="47.35759" lon="-1.37582">
        <ele>124</ele>
        <time>2021-08-28T11:47:16.000Z</time>
      </trkpt>
      <trkpt lat="47.35751" lon="-1.3757">
        <ele>124</ele>
        <time>2021-08-28T11:47:18.000Z</time>
      </trkpt>
      <trkpt lat="47.35743" lon="-1.37557">
        <ele>124</ele>
        <time>2021-08-28T11:47:20.000Z</time>
      </trkpt>
      <trkpt lat="47.35735" lon="-1.37545">
        <ele>124</ele>
        <time>2021-08-28T11:47:22.000Z</time>
      </trkpt>
      <trkpt lat="47.35727" lon="-1.37533">
        <ele>124</ele>
        <time>2021-08-28T11:47:24.000Z</time>
      </trkpt>
      <trkpt lat="47.35719" lon="-1.3752">
        <ele>124</ele>
        <time>2021-08-28T11:47:26.000Z</time>
      </trkpt>
      <trkpt lat="47.35711" lon="-1.37507">
        <ele>124</ele>
        <time>2021-08-28T11:47:28.000Z</time>
      </trkpt>
      <trkpt lat="47.35703" lon="-1.37495">
        <ele>124</ele>
        <time>2021-08-28T11:47:30.000Z</time>
      </trkpt>
      <trkpt lat="47.35694" lon="-1.37482">
        <ele>124</ele>
        <time>2021-08-28T11:47:32.000Z</time>
      </trkpt>
      <trkpt lat="47.35686" lon="-1.37469">
        <ele>124</ele>
        <time>2021-08-28T11:47:34.000Z</time>
      </trkpt>
      <trkpt lat="47.35677" lon="-1.37457">
        <ele>124</ele>
        <time>2021-08-28T11:47:36.000Z</time>
      </trkpt>
      <trkpt lat="47.35669" lon="-1.37444">
        <ele>124</ele>
        <time>2021-08-28T11:47:38.000Z</time>
      </trkpt>
      <trkpt lat="47.3566" lon="-1.37431">
        <ele>124</ele>
        <time>2021-08-28T11:47:40.000Z</time>
      </trkpt>
      <trkpt lat="47.35651" lon="-1.37418">
        <ele>124</ele>
        <time>2021-08-28T11:47:42.000Z</time>
      </trkpt>
      <trkpt lat="47.35642" lon="-1.37405">
        <ele>124</ele>
        <time>2021-08-28T11:47:44.000Z</time>
      </trkpt>
      <trkpt lat="47.35633" lon="-1.37392">
        <ele>124</ele>
        <time>2021-08-28T11:47:46.000Z</time>
      </trkpt>
      <trkpt lat="47.35625" lon="-1.37379">
        <ele>125</ele>
        <time>2021-08-28T11:47:48.000Z</time>
      </trkpt>
      <trkpt lat="47.35616" lon="-1.37366">
        <ele>125</ele>
        <time>2021-08-28T11:47:50.000Z</time>
      </trkpt>
      <trkpt lat="47.35607" lon="-1.37353">
        <ele>125</ele>
        <time>2021-08-28T11:47:52.000Z</time>
      </trkpt>
      <trkpt lat="47.35598" lon="-1.3734">
        <ele>125</ele>
        <time>2021-08-28T11:47:54.000Z</time>
      </trkpt>
      <trkpt lat="47.35589" lon="-1.37326">
        <ele>125</ele>
        <time>2021-08-28T11:47:56.000Z</time>
      </trkpt>
      <trkpt lat="47.3558" lon="-1.37313">
        <ele>124</ele>
        <time>2021-08-28T11:47:58.000Z</time>
      </trkpt>
      <trkpt lat="47.3557" lon="-1.373">
        <ele>124</ele>
        <time>2021-08-28T11:48:00.000Z</time>
      </trkpt>
      <trkpt lat="47.35561" lon="-1.37286">
        <ele>125</ele>
        <time>2021-08-28T11:48:02.000Z</time>
      </trkpt>
      <trkpt lat="47.35552" lon="-1.37273">
        <ele>125</ele>
        <time>2021-08-28T11:48:04.000Z</time>
      </trkpt>
      <trkpt lat="47.35543" lon="-1.3726">
        <ele>125</ele>
        <time>2021-08-28T11:48:06.000Z</time>
      </trkpt>
      <trkpt lat="47.35534" lon="-1.37245">
        <ele>124</ele>
        <time>2021-08-28T11:48:08.000Z</time>
      </trkpt>
      <trkpt lat="47.35524" lon="-1.37231">
        <ele>125</ele>
        <time>2021-08-28T11:48:10.000Z</time>
      </trkpt>
      <trkpt lat="47.35515" lon="-1.37217">
        <ele>125</ele>
        <time>2021-08-28T11:48:12.000Z</time>
      </trkpt>
      <trkpt lat="47.35506" lon="-1.37206">
        <ele>125</ele>
        <time>2021-08-28T11:48:14.000Z</time>
      </trkpt>
      <trkpt lat="47.35497" lon="-1.37193">
        <ele>125</ele>
        <time>2021-08-28T11:48:16.000Z</time>
      </trkpt>
      <trkpt lat="47.35489" lon="-1.3718">
        <ele>126</ele>
        <time>2021-08-28T11:48:18.000Z</time>
      </trkpt>
      <trkpt lat="47.3548" lon="-1.37167">
        <ele>126</ele>
        <time>2021-08-28T11:48:20.000Z</time>
      </trkpt>
      <trkpt lat="47.35471" lon="-1.37155">
        <ele>127</ele>
        <time>2021-08-28T11:48:22.000Z</time>
      </trkpt>
      <trkpt lat="47.35461" lon="-1.37141">
        <ele>127</ele>
        <time>2021-08-28T11:48:24.000Z</time>
      </trkpt>
      <trkpt lat="47.35453" lon="-1.37128">
        <ele>128</ele>
        <time>2021-08-28T11:48:26.000Z</time>
      </trkpt>
      <trkpt lat="47.35445" lon="-1.37113">
        <ele>128</ele>
        <time>2021-08-28T11:48:28.000Z</time>
      </trkpt>
      <trkpt lat="47.35437" lon="-1.371">
        <ele>128</ele>
        <time>2021-08-28T11:48:30.000Z</time>
      </trkpt>
      <trkpt lat="47.35428" lon="-1.37089">
        <ele>128</ele>
        <time>2021-08-28T11:48:32.000Z</time>
      </trkpt>
      <trkpt lat="47.3542" lon="-1.37077">
        <ele>128</ele>
        <time>2021-08-28T11:48:34.000Z</time>
      </trkpt>
      <trkpt lat="47.35411" lon="-1.37064">
        <ele>129</ele>
        <time>2021-08-28T11:48:36.000Z</time>
      </trkpt>
      <trkpt lat="47.35402" lon="-1.37051">
        <ele>129</ele>
        <time>2021-08-28T11:48:38.000Z</time>
      </trkpt>
      <trkpt lat="47.35394" lon="-1.37037">
        <ele>128</ele>
        <time>2021-08-28T11:48:40.000Z</time>
      </trkpt>
      <trkpt lat="47.35385" lon="-1.37024">
        <ele>129</ele>
        <time>2021-08-28T11:48:42.000Z</time>
      </trkpt>
      <trkpt lat="47.35377" lon="-1.3701">
        <ele>129</ele>
        <time>2021-08-28T11:48:44.000Z</time>
      </trkpt>
      <trkpt lat="47.35369" lon="-1.36996">
        <ele>129</ele>
        <time>2021-08-28T11:48:46.000Z</time>
      </trkpt>
      <trkpt lat="47.3536" lon="-1.36982">
        <ele>129</ele>
        <time>2021-08-28T11:48:48.000Z</time>
      </trkpt>
      <trkpt lat="47.35352" lon="-1.36969">
        <ele>129</ele>
        <time>2021-08-28T11:48:50.000Z</time>
      </trkpt>
      <trkpt lat="47.35344" lon="-1.36957">
        <ele>129</ele>
        <time>2021-08-28T11:48:52.000Z</time>
      </trkpt>
      <trkpt lat="47.35336" lon="-1.36944">
        <ele>129</ele>
        <time>2021-08-28T11:48:54.000Z</time>
      </trkpt>
      <trkpt lat="47.35327" lon="-1.36931">
        <ele>129</ele>
        <time>2021-08-28T11:48:56.000Z</time>
      </trkpt>
      <trkpt lat="47.35319" lon="-1.36918">
        <ele>129</ele>
        <time>2021-08-28T11:48:58.000Z</time>
      </trkpt>
      <trkpt lat="47.35311" lon="-1.36905">
        <ele>129</ele>
        <time>2021-08-28T11:49:00.000Z</time>
      </trkpt>
      <trkpt lat="47.35303" lon="-1.36892">
        <ele>128</ele>
        <time>2021-08-28T11:49:02.000Z</time>
      </trkpt>
      <trkpt lat="47.35294" lon="-1.36879">
        <ele>128</ele>
        <time>2021-08-28T11:49:04.000Z</time>
      </trkpt>
      <trkpt lat="47.35285" lon="-1.36867">
        <ele>128</ele>
        <time>2021-08-28T11:49:06.000Z</time>
      </trkpt>
      <trkpt lat="47.35276" lon="-1.36854">
        <ele>128</ele>
        <time>2021-08-28T11:49:08.000Z</time>
      </trkpt>
      <trkpt lat="47.35268" lon="-1.36841">
        <ele>128</ele>
        <time>2021-08-28T11:49:10.000Z</time>
      </trkpt>
      <trkpt lat="47.35259" lon="-1.36828">
        <ele>128</ele>
        <time>2021-08-28T11:49:12.000Z</time>
      </trkpt>
      <trkpt lat="47.3525" lon="-1.36814">
        <ele>128</ele>
        <time>2021-08-28T11:49:14.000Z</time>
      </trkpt>
      <trkpt lat="47.35241" lon="-1.36801">
        <ele>128</ele>
        <time>2021-08-28T11:49:16.000Z</time>
      </trkpt>
      <trkpt lat="47.35233" lon="-1.36788">
        <ele>128</ele>
        <time>2021-08-28T11:49:18.000Z</time>
      </trkpt>
      <trkpt lat="47.35224" lon="-1.36775">
        <ele>128</ele>
        <time>2021-08-28T11:49:20.000Z</time>
      </trkpt>
      <trkpt lat="47.35215" lon="-1.36762">
        <ele>128</ele>
        <time>2021-08-28T11:49:22.000Z</time>
      </trkpt>
      <trkpt lat="47.35207" lon="-1.36748">
        <ele>128</ele>
        <time>2021-08-28T11:49:24.000Z</time>
      </trkpt>
      <trkpt lat="47.35198" lon="-1.36735">
        <ele>128</ele>
        <time>2021-08-28T11:49:26.000Z</time>
      </trkpt>
      <trkpt lat="47.35189" lon="-1.36722">
        <ele>129</ele>
        <time>2021-08-28T11:49:28.000Z</time>
      </trkpt>
      <trkpt lat="47.3518" lon="-1.36709">
        <ele>129</ele>
        <time>2021-08-28T11:49:30.000Z</time>
      </trkpt>
      <trkpt lat="47.35171" lon="-1.36696">
        <ele>129</ele>
        <time>2021-08-28T11:49:32.000Z</time>
      </trkpt>
      <trkpt lat="47.35162" lon="-1.36683">
        <ele>129</ele>
        <time>2021-08-28T11:49:34.000Z</time>
      </trkpt>
      <trkpt lat="47.35153" lon="-1.36669">
        <ele>130</ele>
        <time>2021-08-28T11:49:36.000Z</time>
      </trkpt>
      <trkpt lat="47.35144" lon="-1.36656">
        <ele>130</ele>
        <time>2021-08-28T11:49:38.000Z</time>
      </trkpt>
      <trkpt lat="47.35136" lon="-1.36642">
        <ele>130</ele>
        <time>2021-08-28T11:49:40.000Z</time>
      </trkpt>
      <trkpt lat="47.35127" lon="-1.3663">
        <ele>130</ele>
        <time>2021-08-28T11:49:42.000Z</time>
      </trkpt>
      <trkpt lat="47.35119" lon="-1.36616">
        <ele>130</ele>
        <time>2021-08-28T11:49:44.000Z</time>
      </trkpt>
      <trkpt lat="47.3511" lon="-1.36605">
        <ele>130</ele>
        <time>2021-08-28T11:49:46.000Z</time>
      </trkpt>
      <trkpt lat="47.351" lon="-1.36592">
        <ele>130</ele>
        <time>2021-08-28T11:49:48.000Z</time>
      </trkpt>
      <trkpt lat="47.35092" lon="-1.36579">
        <ele>131</ele>
        <time>2021-08-28T11:49:50.000Z</time>
      </trkpt>
      <trkpt lat="47.35083" lon="-1.36565">
        <ele>130</ele>
        <time>2021-08-28T11:49:52.000Z</time>
      </trkpt>
      <trkpt lat="47.35075" lon="-1.36551">
        <ele>130</ele>
        <time>2021-08-28T11:49:54.000Z</time>
      </trkpt>
      <trkpt lat="47.35066" lon="-1.36537">
        <ele>130</ele>
        <time>2021-08-28T11:49:56.000Z</time>
      </trkpt>
      <trkpt lat="47.35057" lon="-1.36523">
        <ele>130</ele>
        <time>2021-08-28T11:49:58.000Z</time>
      </trkpt>
      <trkpt lat="47.35049" lon="-1.36509">
        <ele>130</ele>
        <time>2021-08-28T11:50:00.000Z</time>
      </trkpt>
      <trkpt lat="47.3504" lon="-1.36495">
        <ele>130</ele>
        <time>2021-08-28T11:50:02.000Z</time>
      </trkpt>
      <trkpt lat="47.35031" lon="-1.36481">
        <ele>130</ele>
        <time>2021-08-28T11:50:04.000Z</time>
      </trkpt>
      <trkpt lat="47.35022" lon="-1.36466">
        <ele>129</ele>
        <time>2021-08-28T11:50:06.000Z</time>
      </trkpt>
      <trkpt lat="47.35012" lon="-1.36453">
        <ele>129</ele>
        <time>2021-08-28T11:50:08.000Z</time>
      </trkpt>
      <trkpt lat="47.35003" lon="-1.36441">
        <ele>129</ele>
        <time>2021-08-28T11:50:10.000Z</time>
      </trkpt>
      <trkpt lat="47.34993" lon="-1.36429">
        <ele>129</ele>
        <time>2021-08-28T11:50:12.000Z</time>
      </trkpt>
      <trkpt lat="47.34983" lon="-1.36417">
        <ele>129</ele>
        <time>2021-08-28T11:50:14.000Z</time>
      </trkpt>
      <trkpt lat="47.34973" lon="-1.36404">
        <ele>129</ele>
        <time>2021-08-28T11:50:16.000Z</time>
      </trkpt>
      <trkpt lat="47.34963" lon="-1.36392">
        <ele>128</ele>
        <time>2021-08-28T11:50:18.000Z</time>
      </trkpt>
      <trkpt lat="47.34954" lon="-1.36379">
        <ele>128</ele>
        <time>2021-08-28T11:50:20.000Z</time>
      </trkpt>
      <trkpt lat="47.34944" lon="-1.36367">
        <ele>128</ele>
        <time>2021-08-28T11:50:22.000Z</time>
      </trkpt>
      <trkpt lat="47.34934" lon="-1.36355">
        <ele>128</ele>
        <time>2021-08-28T11:50:24.000Z</time>
      </trkpt>
      <trkpt lat="47.34924" lon="-1.36343">
        <ele>128</ele>
        <time>2021-08-28T11:50:26.000Z</time>
      </trkpt>
      <trkpt lat="47.34915" lon="-1.3633">
        <ele>128</ele>
        <time>2021-08-28T11:50:28.000Z</time>
      </trkpt>
      <trkpt lat="47.34906" lon="-1.36318">
        <ele>128</ele>
        <time>2021-08-28T11:50:30.000Z</time>
      </trkpt>
      <trkpt lat="47.34898" lon="-1.36305">
        <ele>128</ele>
        <time>2021-08-28T11:50:32.000Z</time>
      </trkpt>
      <trkpt lat="47.3489" lon="-1.36292">
        <ele>128</ele>
        <time>2021-08-28T11:50:34.000Z</time>
      </trkpt>
      <trkpt lat="47.34882" lon="-1.36279">
        <ele>128</ele>
        <time>2021-08-28T11:50:36.000Z</time>
      </trkpt>
      <trkpt lat="47.34874" lon="-1.36266">
        <ele>129</ele>
        <time>2021-08-28T11:50:38.000Z</time>
      </trkpt>
      <trkpt lat="47.34866" lon="-1.36252">
        <ele>128</ele>
        <time>2021-08-28T11:50:40.000Z</time>
      </trkpt>
      <trkpt lat="47.34857" lon="-1.36239">
        <ele>128</ele>
        <time>2021-08-28T11:50:42.000Z</time>
      </trkpt>
      <trkpt lat="47.34849" lon="-1.36227">
        <ele>128</ele>
        <time>2021-08-28T11:50:44.000Z</time>
      </trkpt>
      <trkpt lat="47.34841" lon="-1.36214">
        <ele>128</ele>
        <time>2021-08-28T11:50:46.000Z</time>
      </trkpt>
      <trkpt lat="47.34832" lon="-1.36201">
        <ele>128</ele>
        <time>2021-08-28T11:50:48.000Z</time>
      </trkpt>
      <trkpt lat="47.34824" lon="-1.36188">
        <ele>129</ele>
        <time>2021-08-28T11:50:50.000Z</time>
      </trkpt>
      <trkpt lat="47.34816" lon="-1.36175">
        <ele>129</ele>
        <time>2021-08-28T11:50:52.000Z</time>
      </trkpt>
      <trkpt lat="47.34808" lon="-1.36163">
        <ele>129</ele>
        <time>2021-08-28T11:50:54.000Z</time>
      </trkpt>
      <trkpt lat="47.34799" lon="-1.36151">
        <ele>129</ele>
        <time>2021-08-28T11:50:56.000Z</time>
      </trkpt>
      <trkpt lat="47.3479" lon="-1.36139">
        <ele>129</ele>
        <time>2021-08-28T11:50:58.000Z</time>
      </trkpt>
      <trkpt lat="47.34781" lon="-1.36127">
        <ele>129</ele>
        <time>2021-08-28T11:51:00.000Z</time>
      </trkpt>
      <trkpt lat="47.34771" lon="-1.36115">
        <ele>129</ele>
        <time>2021-08-28T11:51:02.000Z</time>
      </trkpt>
      <trkpt lat="47.34762" lon="-1.36104">
        <ele>129</ele>
        <time>2021-08-28T11:51:04.000Z</time>
      </trkpt>
      <trkpt lat="47.34752" lon="-1.36093">
        <ele>129</ele>
        <time>2021-08-28T11:51:06.000Z</time>
      </trkpt>
      <trkpt lat="47.34743" lon="-1.36082">
        <ele>129</ele>
        <time>2021-08-28T11:51:08.000Z</time>
      </trkpt>
      <trkpt lat="47.34733" lon="-1.36071">
        <ele>129</ele>
        <time>2021-08-28T11:51:10.000Z</time>
      </trkpt>
      <trkpt lat="47.34724" lon="-1.36059">
        <ele>128</ele>
        <time>2021-08-28T11:51:12.000Z</time>
      </trkpt>
      <trkpt lat="47.34714" lon="-1.36047">
        <ele>128</ele>
        <time>2021-08-28T11:51:14.000Z</time>
      </trkpt>
      <trkpt lat="47.34704" lon="-1.36036">
        <ele>128</ele>
        <time>2021-08-28T11:51:16.000Z</time>
      </trkpt>
      <trkpt lat="47.34694" lon="-1.36024">
        <ele>128</ele>
        <time>2021-08-28T11:51:18.000Z</time>
      </trkpt>
      <trkpt lat="47.34683" lon="-1.36013">
        <ele>127</ele>
        <time>2021-08-28T11:51:20.000Z</time>
      </trkpt>
      <trkpt lat="47.34673" lon="-1.36001">
        <ele>127</ele>
        <time>2021-08-28T11:51:22.000Z</time>
      </trkpt>
      <trkpt lat="47.34661" lon="-1.35989">
        <ele>126</ele>
        <time>2021-08-28T11:51:24.000Z</time>
      </trkpt>
      <trkpt lat="47.3465" lon="-1.35976">
        <ele>126</ele>
        <time>2021-08-28T11:51:26.000Z</time>
      </trkpt>
      <trkpt lat="47.34638" lon="-1.35964">
        <ele>126</ele>
        <time>2021-08-28T11:51:28.000Z</time>
      </trkpt>
      <trkpt lat="47.34627" lon="-1.35951">
        <ele>125</ele>
        <time>2021-08-28T11:51:30.000Z</time>
      </trkpt>
      <trkpt lat="47.34615" lon="-1.35939">
        <ele>125</ele>
        <time>2021-08-28T11:51:32.000Z</time>
      </trkpt>
      <trkpt lat="47.34604" lon="-1.35926">
        <ele>125</ele>
        <time>2021-08-28T11:51:34.000Z</time>
      </trkpt>
      <trkpt lat="47.34593" lon="-1.35913">
        <ele>125</ele>
        <time>2021-08-28T11:51:36.000Z</time>
      </trkpt>
      <trkpt lat="47.34583" lon="-1.359">
        <ele>126</ele>
        <time>2021-08-28T11:51:38.000Z</time>
      </trkpt>
      <trkpt lat="47.34573" lon="-1.35887">
        <ele>126</ele>
        <time>2021-08-28T11:51:40.000Z</time>
      </trkpt>
      <trkpt lat="47.34563" lon="-1.35874">
        <ele>126</ele>
        <time>2021-08-28T11:51:42.000Z</time>
      </trkpt>
      <trkpt lat="47.34555" lon="-1.35861">
        <ele>127</ele>
        <time>2021-08-28T11:51:44.000Z</time>
      </trkpt>
      <trkpt lat="47.34546" lon="-1.35847">
        <ele>127</ele>
        <time>2021-08-28T11:51:46.000Z</time>
      </trkpt>
      <trkpt lat="47.34538" lon="-1.35833">
        <ele>127</ele>
        <time>2021-08-28T11:51:48.000Z</time>
      </trkpt>
      <trkpt lat="47.3453" lon="-1.35819">
        <ele>128</ele>
        <time>2021-08-28T11:51:50.000Z</time>
      </trkpt>
      <trkpt lat="47.34522" lon="-1.35806">
        <ele>128</ele>
        <time>2021-08-28T11:51:52.000Z</time>
      </trkpt>
      <trkpt lat="47.34514" lon="-1.35792">
        <ele>129</ele>
        <time>2021-08-28T11:51:54.000Z</time>
      </trkpt>
      <trkpt lat="47.34506" lon="-1.35779">
        <ele>129</ele>
        <time>2021-08-28T11:51:56.000Z</time>
      </trkpt>
      <trkpt lat="47.34498" lon="-1.35765">
        <ele>129</ele>
        <time>2021-08-28T11:51:58.000Z</time>
      </trkpt>
      <trkpt lat="47.3449" lon="-1.35752">
        <ele>129</ele>
        <time>2021-08-28T11:52:00.000Z</time>
      </trkpt>
      <trkpt lat="47.34483" lon="-1.35738">
        <ele>129</ele>
        <time>2021-08-28T11:52:02.000Z</time>
      </trkpt>
      <trkpt lat="47.34475" lon="-1.35725">
        <ele>129</ele>
        <time>2021-08-28T11:52:04.000Z</time>
      </trkpt>
      <trkpt lat="47.34468" lon="-1.35711">
        <ele>129</ele>
        <time>2021-08-28T11:52:06.000Z</time>
      </trkpt>
      <trkpt lat="47.3446" lon="-1.35696">
        <ele>129</ele>
        <time>2021-08-28T11:52:08.000Z</time>
      </trkpt>
      <trkpt lat="47.34452" lon="-1.35684">
        <ele>129</ele>
        <time>2021-08-28T11:52:10.000Z</time>
      </trkpt>
      <trkpt lat="47.34444" lon="-1.35671">
        <ele>130</ele>
        <time>2021-08-28T11:52:12.000Z</time>
      </trkpt>
      <trkpt lat="47.34435" lon="-1.35659">
        <ele>129</ele>
        <time>2021-08-28T11:52:14.000Z</time>
      </trkpt>
      <trkpt lat="47.34427" lon="-1.35646">
        <ele>129</ele>
        <time>2021-08-28T11:52:16.000Z</time>
      </trkpt>
      <trkpt lat="47.34419" lon="-1.35632">
        <ele>130</ele>
        <time>2021-08-28T11:52:18.000Z</time>
      </trkpt>
      <trkpt lat="47.34411" lon="-1.35618">
        <ele>130</ele>
        <time>2021-08-28T11:52:20.000Z</time>
      </trkpt>
      <trkpt lat="47.34402" lon="-1.35605">
        <ele>130</ele>
        <time>2021-08-28T11:52:22.000Z</time>
      </trkpt>
      <trkpt lat="47.34394" lon="-1.35591">
        <ele>130</ele>
        <time>2021-08-28T11:52:24.000Z</time>
      </trkpt>
      <trkpt lat="47.34386" lon="-1.35577">
        <ele>130</ele>
        <time>2021-08-28T11:52:26.000Z</time>
      </trkpt>
      <trkpt lat="47.34378" lon="-1.35563">
        <ele>130</ele>
        <time>2021-08-28T11:52:28.000Z</time>
      </trkpt>
      <trkpt lat="47.3437" lon="-1.35548">
        <ele>130</ele>
        <time>2021-08-28T11:52:30.000Z</time>
      </trkpt>
      <trkpt lat="47.34363" lon="-1.35534">
        <ele>130</ele>
        <time>2021-08-28T11:52:32.000Z</time>
      </trkpt>
      <trkpt lat="47.34355" lon="-1.35519">
        <ele>130</ele>
        <time>2021-08-28T11:52:34.000Z</time>
      </trkpt>
      <trkpt lat="47.34347" lon="-1.35504">
        <ele>130</ele>
        <time>2021-08-28T11:52:36.000Z</time>
      </trkpt>
      <trkpt lat="47.34338" lon="-1.3549">
        <ele>130</ele>
        <time>2021-08-28T11:52:38.000Z</time>
      </trkpt>
      <trkpt lat="47.3433" lon="-1.35476">
        <ele>131</ele>
        <time>2021-08-28T11:52:40.000Z</time>
      </trkpt>
      <trkpt lat="47.34322" lon="-1.35462">
        <ele>130</ele>
        <time>2021-08-28T11:52:42.000Z</time>
      </trkpt>
      <trkpt lat="47.34313" lon="-1.35447">
        <ele>130</ele>
        <time>2021-08-28T11:52:44.000Z</time>
      </trkpt>
      <trkpt lat="47.34305" lon="-1.35433">
        <ele>130</ele>
        <time>2021-08-28T11:52:46.000Z</time>
      </trkpt>
      <trkpt lat="47.34296" lon="-1.35419">
        <ele>130</ele>
        <time>2021-08-28T11:52:48.000Z</time>
      </trkpt>
      <trkpt lat="47.34288" lon="-1.35404">
        <ele>130</ele>
        <time>2021-08-28T11:52:50.000Z</time>
      </trkpt>
      <trkpt lat="47.3428" lon="-1.3539">
        <ele>130</ele>
        <time>2021-08-28T11:52:52.000Z</time>
      </trkpt>
      <trkpt lat="47.34271" lon="-1.35376">
        <ele>131</ele>
        <time>2021-08-28T11:52:54.000Z</time>
      </trkpt>
      <trkpt lat="47.34263" lon="-1.35362">
        <ele>131</ele>
        <time>2021-08-28T11:52:56.000Z</time>
      </trkpt>
      <trkpt lat="47.34255" lon="-1.35347">
        <ele>131</ele>
        <time>2021-08-28T11:52:58.000Z</time>
      </trkpt>
      <trkpt lat="47.34246" lon="-1.35333">
        <ele>131</ele>
        <time>2021-08-28T11:53:00.000Z</time>
      </trkpt>
      <trkpt lat="47.34238" lon="-1.35319">
        <ele>131</ele>
        <time>2021-08-28T11:53:02.000Z</time>
      </trkpt>
      <trkpt lat="47.34229" lon="-1.35306">
        <ele>131</ele>
        <time>2021-08-28T11:53:04.000Z</time>
      </trkpt>
      <trkpt lat="47.34221" lon="-1.35293">
        <ele>131</ele>
        <time>2021-08-28T11:53:06.000Z</time>
      </trkpt>
      <trkpt lat="47.34213" lon="-1.35279">
        <ele>130</ele>
        <time>2021-08-28T11:53:08.000Z</time>
      </trkpt>
      <trkpt lat="47.34205" lon="-1.35264">
        <ele>130</ele>
        <time>2021-08-28T11:53:10.000Z</time>
      </trkpt>
      <trkpt lat="47.34193" lon="-1.35244">
        <ele>130</ele>
        <time>2021-08-28T11:53:13.000Z</time>
      </trkpt>
      <trkpt lat="47.34185" lon="-1.35231">
        <ele>131</ele>
        <time>2021-08-28T11:53:15.000Z</time>
      </trkpt>
      <trkpt lat="47.34177" lon="-1.35216">
        <ele>130</ele>
        <time>2021-08-28T11:53:17.000Z</time>
      </trkpt>
      <trkpt lat="47.34168" lon="-1.35203">
        <ele>130</ele>
        <time>2021-08-28T11:53:19.000Z</time>
      </trkpt>
      <trkpt lat="47.3416" lon="-1.35188">
        <ele>130</ele>
        <time>2021-08-28T11:53:21.000Z</time>
      </trkpt>
      <trkpt lat="47.34151" lon="-1.35173">
        <ele>130</ele>
        <time>2021-08-28T11:53:23.000Z</time>
      </trkpt>
      <trkpt lat="47.34142" lon="-1.35159">
        <ele>129</ele>
        <time>2021-08-28T11:53:25.000Z</time>
      </trkpt>
      <trkpt lat="47.34134" lon="-1.35144">
        <ele>129</ele>
        <time>2021-08-28T11:53:27.000Z</time>
      </trkpt>
      <trkpt lat="47.34125" lon="-1.35129">
        <ele>129</ele>
        <time>2021-08-28T11:53:29.000Z</time>
      </trkpt>
      <trkpt lat="47.34117" lon="-1.35115">
        <ele>129</ele>
        <time>2021-08-28T11:53:31.000Z</time>
      </trkpt>
      <trkpt lat="47.34104" lon="-1.35094">
        <ele>129</ele>
        <time>2021-08-28T11:53:34.000Z</time>
      </trkpt>
      <trkpt lat="47.34095" lon="-1.3508">
        <ele>129</ele>
        <time>2021-08-28T11:53:36.000Z</time>
      </trkpt>
      <trkpt lat="47.34086" lon="-1.35066">
        <ele>128</ele>
        <time>2021-08-28T11:53:38.000Z</time>
      </trkpt>
      <trkpt lat="47.34078" lon="-1.35052">
        <ele>129</ele>
        <time>2021-08-28T11:53:40.000Z</time>
      </trkpt>
      <trkpt lat="47.34066" lon="-1.3503">
        <ele>129</ele>
        <time>2021-08-28T11:53:43.000Z</time>
      </trkpt>
      <trkpt lat="47.34058" lon="-1.35016">
        <ele>129</ele>
        <time>2021-08-28T11:53:45.000Z</time>
      </trkpt>
      <trkpt lat="47.3405" lon="-1.35002">
        <ele>129</ele>
        <time>2021-08-28T11:53:47.000Z</time>
      </trkpt>
      <trkpt lat="47.34041" lon="-1.34989">
        <ele>129</ele>
        <time>2021-08-28T11:53:49.000Z</time>
      </trkpt>
      <trkpt lat="47.34032" lon="-1.34976">
        <ele>129</ele>
        <time>2021-08-28T11:53:51.000Z</time>
      </trkpt>
      <trkpt lat="47.34022" lon="-1.34966">
        <ele>129</ele>
        <time>2021-08-28T11:53:53.000Z</time>
      </trkpt>
      <trkpt lat="47.34012" lon="-1.3496">
        <ele>129</ele>
        <time>2021-08-28T11:53:55.000Z</time>
      </trkpt>
      <trkpt lat="47.33995" lon="-1.34951">
        <ele>129</ele>
        <time>2021-08-28T11:53:58.000Z</time>
      </trkpt>
      <trkpt lat="47.33987" lon="-1.34936">
        <ele>128</ele>
        <time>2021-08-28T11:54:00.000Z</time>
      </trkpt>
      <trkpt lat="47.3398" lon="-1.3492">
        <ele>128</ele>
        <time>2021-08-28T11:54:02.000Z</time>
      </trkpt>
      <trkpt lat="47.33969" lon="-1.34908">
        <ele>127</ele>
        <time>2021-08-28T11:54:04.000Z</time>
      </trkpt>
      <trkpt lat="47.33958" lon="-1.34896">
        <ele>127</ele>
        <time>2021-08-28T11:54:06.000Z</time>
      </trkpt>
      <trkpt lat="47.33946" lon="-1.34884">
        <ele>127</ele>
        <time>2021-08-28T11:54:08.000Z</time>
      </trkpt>
      <trkpt lat="47.33934" lon="-1.34873">
        <ele>127</ele>
        <time>2021-08-28T11:54:10.000Z</time>
      </trkpt>
      <trkpt lat="47.33923" lon="-1.34862">
        <ele>127</ele>
        <time>2021-08-28T11:54:12.000Z</time>
      </trkpt>
      <trkpt lat="47.33912" lon="-1.34851">
        <ele>127</ele>
        <time>2021-08-28T11:54:14.000Z</time>
      </trkpt>
      <trkpt lat="47.33901" lon="-1.3484">
        <ele>127</ele>
        <time>2021-08-28T11:54:16.000Z</time>
      </trkpt>
      <trkpt lat="47.33891" lon="-1.34827">
        <ele>127</ele>
        <time>2021-08-28T11:54:18.000Z</time>
      </trkpt>
      <trkpt lat="47.3388" lon="-1.34813">
        <ele>126</ele>
        <time>2021-08-28T11:54:20.000Z</time>
      </trkpt>
      <trkpt lat="47.33871" lon="-1.348">
        <ele>126</ele>
        <time>2021-08-28T11:54:22.000Z</time>
      </trkpt>
      <trkpt lat="47.33861" lon="-1.34786">
        <ele>126</ele>
        <time>2021-08-28T11:54:24.000Z</time>
      </trkpt>
      <trkpt lat="47.33851" lon="-1.34773">
        <ele>126</ele>
        <time>2021-08-28T11:54:26.000Z</time>
      </trkpt>
      <trkpt lat="47.33841" lon="-1.3476">
        <ele>126</ele>
        <time>2021-08-28T11:54:28.000Z</time>
      </trkpt>
      <trkpt lat="47.33832" lon="-1.34747">
        <ele>126</ele>
        <time>2021-08-28T11:54:30.000Z</time>
      </trkpt>
      <trkpt lat="47.33822" lon="-1.34733">
        <ele>126</ele>
        <time>2021-08-28T11:54:32.000Z</time>
      </trkpt>
      <trkpt lat="47.33812" lon="-1.3472">
        <ele>126</ele>
        <time>2021-08-28T11:54:34.000Z</time>
      </trkpt>
      <trkpt lat="47.33803" lon="-1.34706">
        <ele>126</ele>
        <time>2021-08-28T11:54:36.000Z</time>
      </trkpt>
      <trkpt lat="47.33793" lon="-1.34693">
        <ele>126</ele>
        <time>2021-08-28T11:54:38.000Z</time>
      </trkpt>
      <trkpt lat="47.33783" lon="-1.34681">
        <ele>126</ele>
        <time>2021-08-28T11:54:40.000Z</time>
      </trkpt>
      <trkpt lat="47.33774" lon="-1.34668">
        <ele>126</ele>
        <time>2021-08-28T11:54:42.000Z</time>
      </trkpt>
      <trkpt lat="47.33765" lon="-1.34655">
        <ele>126</ele>
        <time>2021-08-28T11:54:44.000Z</time>
      </trkpt>
      <trkpt lat="47.33755" lon="-1.34642">
        <ele>126</ele>
        <time>2021-08-28T11:54:46.000Z</time>
      </trkpt>
      <trkpt lat="47.33746" lon="-1.3463">
        <ele>126</ele>
        <time>2021-08-28T11:54:48.000Z</time>
      </trkpt>
      <trkpt lat="47.33737" lon="-1.34616">
        <ele>127</ele>
        <time>2021-08-28T11:54:50.000Z</time>
      </trkpt>
      <trkpt lat="47.33727" lon="-1.34603">
        <ele>127</ele>
        <time>2021-08-28T11:54:52.000Z</time>
      </trkpt>
      <trkpt lat="47.33718" lon="-1.3459">
        <ele>127</ele>
        <time>2021-08-28T11:54:54.000Z</time>
      </trkpt>
      <trkpt lat="47.33709" lon="-1.34576">
        <ele>127</ele>
        <time>2021-08-28T11:54:56.000Z</time>
      </trkpt>
      <trkpt lat="47.33699" lon="-1.34563">
        <ele>127</ele>
        <time>2021-08-28T11:54:58.000Z</time>
      </trkpt>
      <trkpt lat="47.33689" lon="-1.3455">
        <ele>127</ele>
        <time>2021-08-28T11:55:00.000Z</time>
      </trkpt>
      <trkpt lat="47.3368" lon="-1.34536">
        <ele>127</ele>
        <time>2021-08-28T11:55:02.000Z</time>
      </trkpt>
      <trkpt lat="47.3367" lon="-1.34522">
        <ele>127</ele>
        <time>2021-08-28T11:55:04.000Z</time>
      </trkpt>
      <trkpt lat="47.33659" lon="-1.34509">
        <ele>127</ele>
        <time>2021-08-28T11:55:06.000Z</time>
      </trkpt>
      <trkpt lat="47.33649" lon="-1.34495">
        <ele>126</ele>
        <time>2021-08-28T11:55:08.000Z</time>
      </trkpt>
      <trkpt lat="47.33639" lon="-1.34482">
        <ele>126</ele>
        <time>2021-08-28T11:55:10.000Z</time>
      </trkpt>
      <trkpt lat="47.33628" lon="-1.34471">
        <ele>126</ele>
        <time>2021-08-28T11:55:12.000Z</time>
      </trkpt>
      <trkpt lat="47.33615" lon="-1.34462">
        <ele>126</ele>
        <time>2021-08-28T11:55:14.000Z</time>
      </trkpt>
      <trkpt lat="47.33602" lon="-1.34455">
        <ele>126</ele>
        <time>2021-08-28T11:55:16.000Z</time>
      </trkpt>
      <trkpt lat="47.33589" lon="-1.34448">
        <ele>125</ele>
        <time>2021-08-28T11:55:18.000Z</time>
      </trkpt>
      <trkpt lat="47.33576" lon="-1.34442">
        <ele>125</ele>
        <time>2021-08-28T11:55:20.000Z</time>
      </trkpt>
      <trkpt lat="47.33562" lon="-1.34435">
        <ele>125</ele>
        <time>2021-08-28T11:55:22.000Z</time>
      </trkpt>
      <trkpt lat="47.33549" lon="-1.34429">
        <ele>125</ele>
        <time>2021-08-28T11:55:24.000Z</time>
      </trkpt>
      <trkpt lat="47.33536" lon="-1.34422">
        <ele>124</ele>
        <time>2021-08-28T11:55:26.000Z</time>
      </trkpt>
      <trkpt lat="47.33522" lon="-1.34416">
        <ele>124</ele>
        <time>2021-08-28T11:55:28.000Z</time>
      </trkpt>
      <trkpt lat="47.33508" lon="-1.34409">
        <ele>124</ele>
        <time>2021-08-28T11:55:30.000Z</time>
      </trkpt>
      <trkpt lat="47.33495" lon="-1.34402">
        <ele>124</ele>
        <time>2021-08-28T11:55:32.000Z</time>
      </trkpt>
      <trkpt lat="47.33482" lon="-1.34396">
        <ele>123</ele>
        <time>2021-08-28T11:55:34.000Z</time>
      </trkpt>
      <trkpt lat="47.33468" lon="-1.34389">
        <ele>123</ele>
        <time>2021-08-28T11:55:36.000Z</time>
      </trkpt>
      <trkpt lat="47.33455" lon="-1.34383">
        <ele>123</ele>
        <time>2021-08-28T11:55:38.000Z</time>
      </trkpt>
      <trkpt lat="47.33441" lon="-1.34376">
        <ele>123</ele>
        <time>2021-08-28T11:55:40.000Z</time>
      </trkpt>
      <trkpt lat="47.33427" lon="-1.3437">
        <ele>122</ele>
        <time>2021-08-28T11:55:42.000Z</time>
      </trkpt>
      <trkpt lat="47.33414" lon="-1.34364">
        <ele>122</ele>
        <time>2021-08-28T11:55:44.000Z</time>
      </trkpt>
      <trkpt lat="47.33399" lon="-1.34357">
        <ele>122</ele>
        <time>2021-08-28T11:55:46.000Z</time>
      </trkpt>
      <trkpt lat="47.33385" lon="-1.34349">
        <ele>122</ele>
        <time>2021-08-28T11:55:48.000Z</time>
      </trkpt>
      <trkpt lat="47.33372" lon="-1.34343">
        <ele>122</ele>
        <time>2021-08-28T11:55:50.000Z</time>
      </trkpt>
      <trkpt lat="47.33358" lon="-1.34336">
        <ele>122</ele>
        <time>2021-08-28T11:55:52.000Z</time>
      </trkpt>
      <trkpt lat="47.33344" lon="-1.34329">
        <ele>121</ele>
        <time>2021-08-28T11:55:54.000Z</time>
      </trkpt>
      <trkpt lat="47.3333" lon="-1.34321">
        <ele>121</ele>
        <time>2021-08-28T11:55:56.000Z</time>
      </trkpt>
      <trkpt lat="47.33316" lon="-1.34315">
        <ele>121</ele>
        <time>2021-08-28T11:55:58.000Z</time>
      </trkpt>
      <trkpt lat="47.33302" lon="-1.34311">
        <ele>121</ele>
        <time>2021-08-28T11:56:00.000Z</time>
      </trkpt>
      <trkpt lat="47.33289" lon="-1.34308">
        <ele>121</ele>
        <time>2021-08-28T11:56:02.000Z</time>
      </trkpt>
      <trkpt lat="47.33275" lon="-1.34306">
        <ele>121</ele>
        <time>2021-08-28T11:56:04.000Z</time>
      </trkpt>
      <trkpt lat="47.33262" lon="-1.34304">
        <ele>120</ele>
        <time>2021-08-28T11:56:06.000Z</time>
      </trkpt>
      <trkpt lat="47.33248" lon="-1.34302">
        <ele>120</ele>
        <time>2021-08-28T11:56:08.000Z</time>
      </trkpt>
      <trkpt lat="47.33234" lon="-1.34301">
        <ele>120</ele>
        <time>2021-08-28T11:56:10.000Z</time>
      </trkpt>
      <trkpt lat="47.33219" lon="-1.34299">
        <ele>120</ele>
        <time>2021-08-28T11:56:12.000Z</time>
      </trkpt>
      <trkpt lat="47.33205" lon="-1.34297">
        <ele>119</ele>
        <time>2021-08-28T11:56:14.000Z</time>
      </trkpt>
      <trkpt lat="47.3319" lon="-1.34294">
        <ele>118</ele>
        <time>2021-08-28T11:56:16.000Z</time>
      </trkpt>
      <trkpt lat="47.33174" lon="-1.34291">
        <ele>118</ele>
        <time>2021-08-28T11:56:18.000Z</time>
      </trkpt>
      <trkpt lat="47.3316" lon="-1.34287">
        <ele>117</ele>
        <time>2021-08-28T11:56:20.000Z</time>
      </trkpt>
      <trkpt lat="47.33145" lon="-1.34279">
        <ele>117</ele>
        <time>2021-08-28T11:56:22.000Z</time>
      </trkpt>
      <trkpt lat="47.33131" lon="-1.3427">
        <ele>117</ele>
        <time>2021-08-28T11:56:24.000Z</time>
      </trkpt>
      <trkpt lat="47.33117" lon="-1.34261">
        <ele>117</ele>
        <time>2021-08-28T11:56:26.000Z</time>
      </trkpt>
      <trkpt lat="47.33102" lon="-1.34251">
        <ele>117</ele>
        <time>2021-08-28T11:56:28.000Z</time>
      </trkpt>
      <trkpt lat="47.33088" lon="-1.34241">
        <ele>116</ele>
        <time>2021-08-28T11:56:30.000Z</time>
      </trkpt>
      <trkpt lat="47.33072" lon="-1.34231">
        <ele>115</ele>
        <time>2021-08-28T11:56:32.000Z</time>
      </trkpt>
      <trkpt lat="47.33057" lon="-1.3422">
        <ele>114</ele>
        <time>2021-08-28T11:56:34.000Z</time>
      </trkpt>
      <trkpt lat="47.33042" lon="-1.3421">
        <ele>114</ele>
        <time>2021-08-28T11:56:36.000Z</time>
      </trkpt>
      <trkpt lat="47.33026" lon="-1.34199">
        <ele>114</ele>
        <time>2021-08-28T11:56:38.000Z</time>
      </trkpt>
      <trkpt lat="47.33011" lon="-1.34189">
        <ele>113</ele>
        <time>2021-08-28T11:56:40.000Z</time>
      </trkpt>
      <trkpt lat="47.32995" lon="-1.34179">
        <ele>113</ele>
        <time>2021-08-28T11:56:42.000Z</time>
      </trkpt>
      <trkpt lat="47.32987" lon="-1.34173">
        <ele>112</ele>
        <time>2021-08-28T11:56:43.000Z</time>
      </trkpt>
      <trkpt lat="47.32979" lon="-1.34166">
        <ele>113</ele>
        <time>2021-08-28T11:56:44.000Z</time>
      </trkpt>
      <trkpt lat="47.32971" lon="-1.34159">
        <ele>112</ele>
        <time>2021-08-28T11:56:45.000Z</time>
      </trkpt>
      <trkpt lat="47.32963" lon="-1.3415">
        <ele>112</ele>
        <time>2021-08-28T11:56:46.000Z</time>
      </trkpt>
      <trkpt lat="47.32957" lon="-1.3414">
        <ele>112</ele>
        <time>2021-08-28T11:56:47.000Z</time>
      </trkpt>
      <trkpt lat="47.32951" lon="-1.34128">
        <ele>111</ele>
        <time>2021-08-28T11:56:48.000Z</time>
      </trkpt>
      <trkpt lat="47.32947" lon="-1.34117">
        <ele>111</ele>
        <time>2021-08-28T11:56:49.000Z</time>
      </trkpt>
      <trkpt lat="47.32943" lon="-1.34105">
        <ele>110</ele>
        <time>2021-08-28T11:56:50.000Z</time>
      </trkpt>
      <trkpt lat="47.32939" lon="-1.34092">
        <ele>110</ele>
        <time>2021-08-28T11:56:51.000Z</time>
      </trkpt>
      <trkpt lat="47.32937" lon="-1.3408">
        <ele>110</ele>
        <time>2021-08-28T11:56:52.000Z</time>
      </trkpt>
      <trkpt lat="47.32936" lon="-1.34066">
        <ele>110</ele>
        <time>2021-08-28T11:56:53.000Z</time>
      </trkpt>
      <trkpt lat="47.32938" lon="-1.3404">
        <ele>109</ele>
        <time>2021-08-28T11:56:55.000Z</time>
      </trkpt>
      <trkpt lat="47.3294" lon="-1.34027">
        <ele>109</ele>
        <time>2021-08-28T11:56:56.000Z</time>
      </trkpt>
      <trkpt lat="47.32943" lon="-1.34014">
        <ele>109</ele>
        <time>2021-08-28T11:56:57.000Z</time>
      </trkpt>
      <trkpt lat="47.32951" lon="-1.3399">
        <ele>107</ele>
        <time>2021-08-28T11:56:59.000Z</time>
      </trkpt>
      <trkpt lat="47.32955" lon="-1.33978">
        <ele>107</ele>
        <time>2021-08-28T11:57:00.000Z</time>
      </trkpt>
      <trkpt lat="47.3296" lon="-1.33966">
        <ele>106</ele>
        <time>2021-08-28T11:57:01.000Z</time>
      </trkpt>
      <trkpt lat="47.32964" lon="-1.33954">
        <ele>106</ele>
        <time>2021-08-28T11:57:02.000Z</time>
      </trkpt>
      <trkpt lat="47.32969" lon="-1.33942">
        <ele>105</ele>
        <time>2021-08-28T11:57:03.000Z</time>
      </trkpt>
      <trkpt lat="47.32973" lon="-1.3393">
        <ele>105</ele>
        <time>2021-08-28T11:57:04.000Z</time>
      </trkpt>
      <trkpt lat="47.32977" lon="-1.33918">
        <ele>105</ele>
        <time>2021-08-28T11:57:05.000Z</time>
      </trkpt>
      <trkpt lat="47.32982" lon="-1.33906">
        <ele>104</ele>
        <time>2021-08-28T11:57:06.000Z</time>
      </trkpt>
      <trkpt lat="47.32986" lon="-1.33894">
        <ele>103</ele>
        <time>2021-08-28T11:57:07.000Z</time>
      </trkpt>
      <trkpt lat="47.32991" lon="-1.33882">
        <ele>103</ele>
        <time>2021-08-28T11:57:08.000Z</time>
      </trkpt>
      <trkpt lat="47.32995" lon="-1.3387">
        <ele>102</ele>
        <time>2021-08-28T11:57:09.000Z</time>
      </trkpt>
      <trkpt lat="47.33004" lon="-1.33847">
        <ele>101</ele>
        <time>2021-08-28T11:57:11.000Z</time>
      </trkpt>
      <trkpt lat="47.33008" lon="-1.33835">
        <ele>101</ele>
        <time>2021-08-28T11:57:12.000Z</time>
      </trkpt>
      <trkpt lat="47.33012" lon="-1.33823">
        <ele>100</ele>
        <time>2021-08-28T11:57:13.000Z</time>
      </trkpt>
      <trkpt lat="47.33021" lon="-1.338">
        <ele>99</ele>
        <time>2021-08-28T11:57:15.000Z</time>
      </trkpt>
      <trkpt lat="47.33026" lon="-1.33789">
        <ele>99</ele>
        <time>2021-08-28T11:57:16.000Z</time>
      </trkpt>
      <trkpt lat="47.33032" lon="-1.33778">
        <ele>99</ele>
        <time>2021-08-28T11:57:17.000Z</time>
      </trkpt>
      <trkpt lat="47.33037" lon="-1.33767">
        <ele>98</ele>
        <time>2021-08-28T11:57:18.000Z</time>
      </trkpt>
      <trkpt lat="47.33043" lon="-1.33756">
        <ele>98</ele>
        <time>2021-08-28T11:57:19.000Z</time>
      </trkpt>
      <trkpt lat="47.33049" lon="-1.33745">
        <ele>98</ele>
        <time>2021-08-28T11:57:20.000Z</time>
      </trkpt>
      <trkpt lat="47.33054" lon="-1.33734">
        <ele>97</ele>
        <time>2021-08-28T11:57:21.000Z</time>
      </trkpt>
      <trkpt lat="47.3306" lon="-1.33724">
        <ele>97</ele>
        <time>2021-08-28T11:57:22.000Z</time>
      </trkpt>
      <trkpt lat="47.33066" lon="-1.33712">
        <ele>96</ele>
        <time>2021-08-28T11:57:23.000Z</time>
      </trkpt>
      <trkpt lat="47.33072" lon="-1.33701">
        <ele>96</ele>
        <time>2021-08-28T11:57:24.000Z</time>
      </trkpt>
      <trkpt lat="47.33077" lon="-1.33689">
        <ele>96</ele>
        <time>2021-08-28T11:57:25.000Z</time>
      </trkpt>
      <trkpt lat="47.33082" lon="-1.33677">
        <ele>95</ele>
        <time>2021-08-28T11:57:26.000Z</time>
      </trkpt>
      <trkpt lat="47.33087" lon="-1.33664">
        <ele>94</ele>
        <time>2021-08-28T11:57:27.000Z</time>
      </trkpt>
      <trkpt lat="47.33092" lon="-1.33652">
        <ele>94</ele>
        <time>2021-08-28T11:57:28.000Z</time>
      </trkpt>
      <trkpt lat="47.33096" lon="-1.33639">
        <ele>93</ele>
        <time>2021-08-28T11:57:29.000Z</time>
      </trkpt>
      <trkpt lat="47.33101" lon="-1.33627">
        <ele>92</ele>
        <time>2021-08-28T11:57:30.000Z</time>
      </trkpt>
      <trkpt lat="47.33104" lon="-1.33614">
        <ele>91</ele>
        <time>2021-08-28T11:57:31.000Z</time>
      </trkpt>
      <trkpt lat="47.33108" lon="-1.33601">
        <ele>90</ele>
        <time>2021-08-28T11:57:32.000Z</time>
      </trkpt>
      <trkpt lat="47.33112" lon="-1.33588">
        <ele>90</ele>
        <time>2021-08-28T11:57:33.000Z</time>
      </trkpt>
      <trkpt lat="47.33115" lon="-1.33574">
        <ele>89</ele>
        <time>2021-08-28T11:57:34.000Z</time>
      </trkpt>
      <trkpt lat="47.33118" lon="-1.33561">
        <ele>89</ele>
        <time>2021-08-28T11:57:35.000Z</time>
      </trkpt>
      <trkpt lat="47.33121" lon="-1.33547">
        <ele>88</ele>
        <time>2021-08-28T11:57:36.000Z</time>
      </trkpt>
      <trkpt lat="47.33122" lon="-1.33533">
        <ele>88</ele>
        <time>2021-08-28T11:57:37.000Z</time>
      </trkpt>
      <trkpt lat="47.3312" lon="-1.33518">
        <ele>87</ele>
        <time>2021-08-28T11:57:38.000Z</time>
      </trkpt>
      <trkpt lat="47.33118" lon="-1.33502">
        <ele>86</ele>
        <time>2021-08-28T11:57:39.000Z</time>
      </trkpt>
      <trkpt lat="47.33114" lon="-1.33487">
        <ele>86</ele>
        <time>2021-08-28T11:57:40.000Z</time>
      </trkpt>
      <trkpt lat="47.33109" lon="-1.33473">
        <ele>85</ele>
        <time>2021-08-28T11:57:41.000Z</time>
      </trkpt>
      <trkpt lat="47.33103" lon="-1.33461">
        <ele>85</ele>
        <time>2021-08-28T11:57:42.000Z</time>
      </trkpt>
      <trkpt lat="47.33097" lon="-1.33451">
        <ele>85</ele>
        <time>2021-08-28T11:57:43.000Z</time>
      </trkpt>
      <trkpt lat="47.33089" lon="-1.33443">
        <ele>85</ele>
        <time>2021-08-28T11:57:44.000Z</time>
      </trkpt>
      <trkpt lat="47.33081" lon="-1.33435">
        <ele>84</ele>
        <time>2021-08-28T11:57:45.000Z</time>
      </trkpt>
      <trkpt lat="47.33073" lon="-1.33427">
        <ele>84</ele>
        <time>2021-08-28T11:57:46.000Z</time>
      </trkpt>
      <trkpt lat="47.33064" lon="-1.33419">
        <ele>84</ele>
        <time>2021-08-28T11:57:47.000Z</time>
      </trkpt>
      <trkpt lat="47.33056" lon="-1.3341">
        <ele>84</ele>
        <time>2021-08-28T11:57:48.000Z</time>
      </trkpt>
      <trkpt lat="47.33049" lon="-1.33402">
        <ele>84</ele>
        <time>2021-08-28T11:57:49.000Z</time>
      </trkpt>
      <trkpt lat="47.33041" lon="-1.33394">
        <ele>84</ele>
        <time>2021-08-28T11:57:50.000Z</time>
      </trkpt>
      <trkpt lat="47.33033" lon="-1.33385">
        <ele>84</ele>
        <time>2021-08-28T11:57:51.000Z</time>
      </trkpt>
      <trkpt lat="47.33026" lon="-1.33377">
        <ele>83</ele>
        <time>2021-08-28T11:57:52.000Z</time>
      </trkpt>
      <trkpt lat="47.33018" lon="-1.33367">
        <ele>83</ele>
        <time>2021-08-28T11:57:53.000Z</time>
      </trkpt>
      <trkpt lat="47.3301" lon="-1.33358">
        <ele>82</ele>
        <time>2021-08-28T11:57:54.000Z</time>
      </trkpt>
      <trkpt lat="47.33002" lon="-1.33349">
        <ele>82</ele>
        <time>2021-08-28T11:57:55.000Z</time>
      </trkpt>
      <trkpt lat="47.32994" lon="-1.33341">
        <ele>82</ele>
        <time>2021-08-28T11:57:56.000Z</time>
      </trkpt>
      <trkpt lat="47.32986" lon="-1.33332">
        <ele>81</ele>
        <time>2021-08-28T11:57:57.000Z</time>
      </trkpt>
      <trkpt lat="47.32978" lon="-1.33323">
        <ele>81</ele>
        <time>2021-08-28T11:57:58.000Z</time>
      </trkpt>
      <trkpt lat="47.3297" lon="-1.33314">
        <ele>81</ele>
        <time>2021-08-28T11:57:59.000Z</time>
      </trkpt>
      <trkpt lat="47.32962" lon="-1.33305">
        <ele>81</ele>
        <time>2021-08-28T11:58:00.000Z</time>
      </trkpt>
      <trkpt lat="47.32954" lon="-1.33296">
        <ele>81</ele>
        <time>2021-08-28T11:58:01.000Z</time>
      </trkpt>
      <trkpt lat="47.32947" lon="-1.33286">
        <ele>80</ele>
        <time>2021-08-28T11:58:02.000Z</time>
      </trkpt>
      <trkpt lat="47.3294" lon="-1.33277">
        <ele>80</ele>
        <time>2021-08-28T11:58:03.000Z</time>
      </trkpt>
      <trkpt lat="47.32932" lon="-1.33268">
        <ele>80</ele>
        <time>2021-08-28T11:58:04.000Z</time>
      </trkpt>
      <trkpt lat="47.32923" lon="-1.3326">
        <ele>79</ele>
        <time>2021-08-28T11:58:05.000Z</time>
      </trkpt>
      <trkpt lat="47.32915" lon="-1.33251">
        <ele>79</ele>
        <time>2021-08-28T11:58:06.000Z</time>
      </trkpt>
      <trkpt lat="47.32907" lon="-1.33241">
        <ele>78</ele>
        <time>2021-08-28T11:58:07.000Z</time>
      </trkpt>
      <trkpt lat="47.32899" lon="-1.33232">
        <ele>77</ele>
        <time>2021-08-28T11:58:08.000Z</time>
      </trkpt>
      <trkpt lat="47.3289" lon="-1.33223">
        <ele>76</ele>
        <time>2021-08-28T11:58:09.000Z</time>
      </trkpt>
      <trkpt lat="47.3288" lon="-1.33216">
        <ele>75</ele>
        <time>2021-08-28T11:58:10.000Z</time>
      </trkpt>
      <trkpt lat="47.32871" lon="-1.33208">
        <ele>75</ele>
        <time>2021-08-28T11:58:11.000Z</time>
      </trkpt>
      <trkpt lat="47.32862" lon="-1.33201">
        <ele>75</ele>
        <time>2021-08-28T11:58:12.000Z</time>
      </trkpt>
      <trkpt lat="47.32853" lon="-1.33193">
        <ele>74</ele>
        <time>2021-08-28T11:58:13.000Z</time>
      </trkpt>
      <trkpt lat="47.32844" lon="-1.33186">
        <ele>73</ele>
        <time>2021-08-28T11:58:14.000Z</time>
      </trkpt>
      <trkpt lat="47.32835" lon="-1.33178">
        <ele>73</ele>
        <time>2021-08-28T11:58:15.000Z</time>
      </trkpt>
      <trkpt lat="47.32827" lon="-1.33171">
        <ele>73</ele>
        <time>2021-08-28T11:58:16.000Z</time>
      </trkpt>
      <trkpt lat="47.32818" lon="-1.33163">
        <ele>73</ele>
        <time>2021-08-28T11:58:17.000Z</time>
      </trkpt>
      <trkpt lat="47.32809" lon="-1.33155">
        <ele>72</ele>
        <time>2021-08-28T11:58:18.000Z</time>
      </trkpt>
      <trkpt lat="47.32801" lon="-1.33148">
        <ele>71</ele>
        <time>2021-08-28T11:58:19.000Z</time>
      </trkpt>
      <trkpt lat="47.32792" lon="-1.33141">
        <ele>71</ele>
        <time>2021-08-28T11:58:20.000Z</time>
      </trkpt>
      <trkpt lat="47.32784" lon="-1.33133">
        <ele>70</ele>
        <time>2021-08-28T11:58:21.000Z</time>
      </trkpt>
      <trkpt lat="47.32775" lon="-1.33125">
        <ele>70</ele>
        <time>2021-08-28T11:58:22.000Z</time>
      </trkpt>
      <trkpt lat="47.32767" lon="-1.33117">
        <ele>69</ele>
        <time>2021-08-28T11:58:23.000Z</time>
      </trkpt>
      <trkpt lat="47.32758" lon="-1.33108">
        <ele>68</ele>
        <time>2021-08-28T11:58:24.000Z</time>
      </trkpt>
      <trkpt lat="47.32749" lon="-1.331">
        <ele>67</ele>
        <time>2021-08-28T11:58:25.000Z</time>
      </trkpt>
      <trkpt lat="47.32741" lon="-1.33091">
        <ele>66</ele>
        <time>2021-08-28T11:58:26.000Z</time>
      </trkpt>
      <trkpt lat="47.32733" lon="-1.33082">
        <ele>65</ele>
        <time>2021-08-28T11:58:27.000Z</time>
      </trkpt>
      <trkpt lat="47.32724" lon="-1.33073">
        <ele>64</ele>
        <time>2021-08-28T11:58:28.000Z</time>
      </trkpt>
      <trkpt lat="47.32716" lon="-1.33064">
        <ele>64</ele>
        <time>2021-08-28T11:58:29.000Z</time>
      </trkpt>
      <trkpt lat="47.32708" lon="-1.33055">
        <ele>63</ele>
        <time>2021-08-28T11:58:30.000Z</time>
      </trkpt>
      <trkpt lat="47.327" lon="-1.33047">
        <ele>63</ele>
        <time>2021-08-28T11:58:31.000Z</time>
      </trkpt>
      <trkpt lat="47.32691" lon="-1.33039">
        <ele>63</ele>
        <time>2021-08-28T11:58:32.000Z</time>
      </trkpt>
      <trkpt lat="47.32682" lon="-1.33032">
        <ele>63</ele>
        <time>2021-08-28T11:58:33.000Z</time>
      </trkpt>
      <trkpt lat="47.32673" lon="-1.33024">
        <ele>62</ele>
        <time>2021-08-28T11:58:34.000Z</time>
      </trkpt>
      <trkpt lat="47.32664" lon="-1.33016">
        <ele>62</ele>
        <time>2021-08-28T11:58:35.000Z</time>
      </trkpt>
      <trkpt lat="47.32656" lon="-1.33008">
        <ele>62</ele>
        <time>2021-08-28T11:58:36.000Z</time>
      </trkpt>
      <trkpt lat="47.32648" lon="-1.33">
        <ele>61</ele>
        <time>2021-08-28T11:58:37.000Z</time>
      </trkpt>
      <trkpt lat="47.32636" lon="-1.32984">
        <ele>58</ele>
        <time>2021-08-28T11:58:39.000Z</time>
      </trkpt>
      <trkpt lat="47.32628" lon="-1.32968">
        <ele>56</ele>
        <time>2021-08-28T11:58:41.000Z</time>
      </trkpt>
      <trkpt lat="47.3262" lon="-1.32954">
        <ele>55</ele>
        <time>2021-08-28T11:58:43.000Z</time>
      </trkpt>
      <trkpt lat="47.32612" lon="-1.32952">
        <ele>56</ele>
        <time>2021-08-28T11:58:45.000Z</time>
      </trkpt>
      <trkpt lat="47.32603" lon="-1.32962">
        <ele>55</ele>
        <time>2021-08-28T11:58:47.000Z</time>
      </trkpt>
      <trkpt lat="47.32595" lon="-1.32978">
        <ele>54</ele>
        <time>2021-08-28T11:58:50.000Z</time>
      </trkpt>
      <trkpt lat="47.32587" lon="-1.32988">
        <ele>54</ele>
        <time>2021-08-28T11:58:52.000Z</time>
      </trkpt>
      <trkpt lat="47.32579" lon="-1.32997">
        <ele>54</ele>
        <time>2021-08-28T11:58:54.000Z</time>
      </trkpt>
      <trkpt lat="47.32571" lon="-1.33007">
        <ele>55</ele>
        <time>2021-08-28T11:58:56.000Z</time>
      </trkpt>
      <trkpt lat="47.32563" lon="-1.33015">
        <ele>55</ele>
        <time>2021-08-28T11:58:58.000Z</time>
      </trkpt>
      <trkpt lat="47.32555" lon="-1.33024">
        <ele>55</ele>
        <time>2021-08-28T11:59:00.000Z</time>
      </trkpt>
      <trkpt lat="47.32546" lon="-1.33033">
        <ele>55</ele>
        <time>2021-08-28T11:59:02.000Z</time>
      </trkpt>
      <trkpt lat="47.32535" lon="-1.33041">
        <ele>55</ele>
        <time>2021-08-28T11:59:04.000Z</time>
      </trkpt>
      <trkpt lat="47.32524" lon="-1.33051">
        <ele>55</ele>
        <time>2021-08-28T11:59:06.000Z</time>
      </trkpt>
      <trkpt lat="47.32513" lon="-1.33063">
        <ele>55</ele>
        <time>2021-08-28T11:59:08.000Z</time>
      </trkpt>
      <trkpt lat="47.32501" lon="-1.33075">
        <ele>55</ele>
        <time>2021-08-28T11:59:10.000Z</time>
      </trkpt>
      <trkpt lat="47.3249" lon="-1.33086">
        <ele>55</ele>
        <time>2021-08-28T11:59:12.000Z</time>
      </trkpt>
      <trkpt lat="47.32479" lon="-1.33098">
        <ele>54</ele>
        <time>2021-08-28T11:59:14.000Z</time>
      </trkpt>
      <trkpt lat="47.32469" lon="-1.3311">
        <ele>54</ele>
        <time>2021-08-28T11:59:16.000Z</time>
      </trkpt>
      <trkpt lat="47.32459" lon="-1.33122">
        <ele>54</ele>
        <time>2021-08-28T11:59:18.000Z</time>
      </trkpt>
      <trkpt lat="47.32451" lon="-1.33132">
        <ele>54</ele>
        <time>2021-08-28T11:59:20.000Z</time>
      </trkpt>
      <trkpt lat="47.32443" lon="-1.33142">
        <ele>54</ele>
        <time>2021-08-28T11:59:22.000Z</time>
      </trkpt>
      <trkpt lat="47.32431" lon="-1.33145">
        <ele>54</ele>
        <time>2021-08-28T11:59:25.000Z</time>
      </trkpt>
      <trkpt lat="47.32421" lon="-1.33146">
        <ele>54</ele>
        <time>2021-08-28T11:59:28.000Z</time>
      </trkpt>
      <trkpt lat="47.32413" lon="-1.33157">
        <ele>54</ele>
        <time>2021-08-28T11:59:30.000Z</time>
      </trkpt>
      <trkpt lat="47.32405" lon="-1.33169">
        <ele>53</ele>
        <time>2021-08-28T11:59:32.000Z</time>
      </trkpt>
      <trkpt lat="47.32398" lon="-1.33181">
        <ele>53</ele>
        <time>2021-08-28T11:59:34.000Z</time>
      </trkpt>
      <trkpt lat="47.32391" lon="-1.33193">
        <ele>52</ele>
        <time>2021-08-28T11:59:36.000Z</time>
      </trkpt>
      <trkpt lat="47.32383" lon="-1.33204">
        <ele>52</ele>
        <time>2021-08-28T11:59:38.000Z</time>
      </trkpt>
      <trkpt lat="47.32375" lon="-1.33216">
        <ele>51</ele>
        <time>2021-08-28T11:59:40.000Z</time>
      </trkpt>
      <trkpt lat="47.32368" lon="-1.33229">
        <ele>51</ele>
        <time>2021-08-28T11:59:42.000Z</time>
      </trkpt>
      <trkpt lat="47.32362" lon="-1.33243">
        <ele>52</ele>
        <time>2021-08-28T11:59:44.000Z</time>
      </trkpt>
      <trkpt lat="47.32356" lon="-1.33256">
        <ele>51</ele>
        <time>2021-08-28T11:59:46.000Z</time>
      </trkpt>
      <trkpt lat="47.32348" lon="-1.33271">
        <ele>50</ele>
        <time>2021-08-28T11:59:48.000Z</time>
      </trkpt>
      <trkpt lat="47.32341" lon="-1.33286">
        <ele>50</ele>
        <time>2021-08-28T11:59:50.000Z</time>
      </trkpt>
      <trkpt lat="47.32334" lon="-1.333">
        <ele>51</ele>
        <time>2021-08-28T11:59:52.000Z</time>
      </trkpt>
      <trkpt lat="47.32327" lon="-1.33316">
        <ele>50</ele>
        <time>2021-08-28T11:59:54.000Z</time>
      </trkpt>
      <trkpt lat="47.3232" lon="-1.33331">
        <ele>50</ele>
        <time>2021-08-28T11:59:56.000Z</time>
      </trkpt>
      <trkpt lat="47.32313" lon="-1.33347">
        <ele>51</ele>
        <time>2021-08-28T11:59:58.000Z</time>
      </trkpt>
      <trkpt lat="47.32306" lon="-1.33363">
        <ele>51</ele>
        <time>2021-08-28T12:00:00.000Z</time>
      </trkpt>
      <trkpt lat="47.32299" lon="-1.33379">
        <ele>52</ele>
        <time>2021-08-28T12:00:02.000Z</time>
      </trkpt>
      <trkpt lat="47.32292" lon="-1.33394">
        <ele>52</ele>
        <time>2021-08-28T12:00:04.000Z</time>
      </trkpt>
      <trkpt lat="47.32285" lon="-1.3341">
        <ele>52</ele>
        <time>2021-08-28T12:00:06.000Z</time>
      </trkpt>
      <trkpt lat="47.32278" lon="-1.33426">
        <ele>52</ele>
        <time>2021-08-28T12:00:08.000Z</time>
      </trkpt>
      <trkpt lat="47.3227" lon="-1.33442">
        <ele>52</ele>
        <time>2021-08-28T12:00:10.000Z</time>
      </trkpt>
      <trkpt lat="47.32262" lon="-1.33458">
        <ele>51</ele>
        <time>2021-08-28T12:00:12.000Z</time>
      </trkpt>
      <trkpt lat="47.32254" lon="-1.33473">
        <ele>51</ele>
        <time>2021-08-28T12:00:14.000Z</time>
      </trkpt>
      <trkpt lat="47.32247" lon="-1.33488">
        <ele>52</ele>
        <time>2021-08-28T12:00:16.000Z</time>
      </trkpt>
      <trkpt lat="47.32241" lon="-1.33504">
        <ele>52</ele>
        <time>2021-08-28T12:00:18.000Z</time>
      </trkpt>
      <trkpt lat="47.32234" lon="-1.33518">
        <ele>52</ele>
        <time>2021-08-28T12:00:20.000Z</time>
      </trkpt>
      <trkpt lat="47.32227" lon="-1.33533">
        <ele>52</ele>
        <time>2021-08-28T12:00:22.000Z</time>
      </trkpt>
      <trkpt lat="47.32219" lon="-1.33546">
        <ele>52</ele>
        <time>2021-08-28T12:00:24.000Z</time>
      </trkpt>
      <trkpt lat="47.32212" lon="-1.33561">
        <ele>52</ele>
        <time>2021-08-28T12:00:26.000Z</time>
      </trkpt>
      <trkpt lat="47.32206" lon="-1.33576">
        <ele>52</ele>
        <time>2021-08-28T12:00:28.000Z</time>
      </trkpt>
      <trkpt lat="47.322" lon="-1.3359">
        <ele>52</ele>
        <time>2021-08-28T12:00:30.000Z</time>
      </trkpt>
      <trkpt lat="47.32194" lon="-1.33605">
        <ele>52</ele>
        <time>2021-08-28T12:00:32.000Z</time>
      </trkpt>
      <trkpt lat="47.32188" lon="-1.33619">
        <ele>52</ele>
        <time>2021-08-28T12:00:34.000Z</time>
      </trkpt>
      <trkpt lat="47.32184" lon="-1.33633">
        <ele>52</ele>
        <time>2021-08-28T12:00:36.000Z</time>
      </trkpt>
      <trkpt lat="47.32177" lon="-1.33644">
        <ele>52</ele>
        <time>2021-08-28T12:00:38.000Z</time>
      </trkpt>
      <trkpt lat="47.32173" lon="-1.3366">
        <ele>52</ele>
        <time>2021-08-28T12:00:41.000Z</time>
      </trkpt>
      <trkpt lat="47.32169" lon="-1.33673">
        <ele>52</ele>
        <time>2021-08-28T12:00:43.000Z</time>
      </trkpt>
      <trkpt lat="47.32164" lon="-1.33689">
        <ele>53</ele>
        <time>2021-08-28T12:00:45.000Z</time>
      </trkpt>
      <trkpt lat="47.32158" lon="-1.33707">
        <ele>53</ele>
        <time>2021-08-28T12:00:47.000Z</time>
      </trkpt>
      <trkpt lat="47.32151" lon="-1.33723">
        <ele>53</ele>
        <time>2021-08-28T12:00:49.000Z</time>
      </trkpt>
      <trkpt lat="47.32144" lon="-1.33739">
        <ele>53</ele>
        <time>2021-08-28T12:00:51.000Z</time>
      </trkpt>
      <trkpt lat="47.32137" lon="-1.33755">
        <ele>54</ele>
        <time>2021-08-28T12:00:53.000Z</time>
      </trkpt>
      <trkpt lat="47.3213" lon="-1.33771">
        <ele>54</ele>
        <time>2021-08-28T12:00:55.000Z</time>
      </trkpt>
      <trkpt lat="47.32124" lon="-1.33787">
        <ele>54</ele>
        <time>2021-08-28T12:00:57.000Z</time>
      </trkpt>
      <trkpt lat="47.32118" lon="-1.33802">
        <ele>55</ele>
        <time>2021-08-28T12:00:59.000Z</time>
      </trkpt>
      <trkpt lat="47.3211" lon="-1.33817">
        <ele>55</ele>
        <time>2021-08-28T12:01:01.000Z</time>
      </trkpt>
      <trkpt lat="47.32103" lon="-1.33832">
        <ele>55</ele>
        <time>2021-08-28T12:01:03.000Z</time>
      </trkpt>
      <trkpt lat="47.32095" lon="-1.33846">
        <ele>55</ele>
        <time>2021-08-28T12:01:05.000Z</time>
      </trkpt>
      <trkpt lat="47.32088" lon="-1.33861">
        <ele>56</ele>
        <time>2021-08-28T12:01:07.000Z</time>
      </trkpt>
      <trkpt lat="47.3208" lon="-1.33875">
        <ele>56</ele>
        <time>2021-08-28T12:01:09.000Z</time>
      </trkpt>
      <trkpt lat="47.32073" lon="-1.3389">
        <ele>55</ele>
        <time>2021-08-28T12:01:11.000Z</time>
      </trkpt>
      <trkpt lat="47.32065" lon="-1.33904">
        <ele>55</ele>
        <time>2021-08-28T12:01:13.000Z</time>
      </trkpt>
      <trkpt lat="47.32056" lon="-1.33918">
        <ele>54</ele>
        <time>2021-08-28T12:01:15.000Z</time>
      </trkpt>
      <trkpt lat="47.32047" lon="-1.33931">
        <ele>54</ele>
        <time>2021-08-28T12:01:17.000Z</time>
      </trkpt>
      <trkpt lat="47.3204" lon="-1.33945">
        <ele>54</ele>
        <time>2021-08-28T12:01:19.000Z</time>
      </trkpt>
      <trkpt lat="47.32033" lon="-1.33959">
        <ele>54</ele>
        <time>2021-08-28T12:01:21.000Z</time>
      </trkpt>
      <trkpt lat="47.32027" lon="-1.33971">
        <ele>54</ele>
        <time>2021-08-28T12:01:23.000Z</time>
      </trkpt>
      <trkpt lat="47.3202" lon="-1.33983">
        <ele>54</ele>
        <time>2021-08-28T12:01:25.000Z</time>
      </trkpt>
      <trkpt lat="47.32012" lon="-1.33994">
        <ele>54</ele>
        <time>2021-08-28T12:01:27.000Z</time>
      </trkpt>
      <trkpt lat="47.32003" lon="-1.34007">
        <ele>54</ele>
        <time>2021-08-28T12:01:29.000Z</time>
      </trkpt>
      <trkpt lat="47.31995" lon="-1.3402">
        <ele>54</ele>
        <time>2021-08-28T12:01:31.000Z</time>
      </trkpt>
      <trkpt lat="47.31987" lon="-1.34033">
        <ele>55</ele>
        <time>2021-08-28T12:01:33.000Z</time>
      </trkpt>
      <trkpt lat="47.31979" lon="-1.34046">
        <ele>54</ele>
        <time>2021-08-28T12:01:35.000Z</time>
      </trkpt>
      <trkpt lat="47.3197" lon="-1.34059">
        <ele>55</ele>
        <time>2021-08-28T12:01:37.000Z</time>
      </trkpt>
      <trkpt lat="47.31962" lon="-1.34072">
        <ele>55</ele>
        <time>2021-08-28T12:01:39.000Z</time>
      </trkpt>
      <trkpt lat="47.31954" lon="-1.34086">
        <ele>55</ele>
        <time>2021-08-28T12:01:41.000Z</time>
      </trkpt>
      <trkpt lat="47.31946" lon="-1.34099">
        <ele>55</ele>
        <time>2021-08-28T12:01:43.000Z</time>
      </trkpt>
      <trkpt lat="47.31938" lon="-1.34113">
        <ele>55</ele>
        <time>2021-08-28T12:01:45.000Z</time>
      </trkpt>
      <trkpt lat="47.31931" lon="-1.34125">
        <ele>55</ele>
        <time>2021-08-28T12:01:47.000Z</time>
      </trkpt>
      <trkpt lat="47.31922" lon="-1.34138">
        <ele>55</ele>
        <time>2021-08-28T12:01:49.000Z</time>
      </trkpt>
      <trkpt lat="47.31913" lon="-1.3415">
        <ele>54</ele>
        <time>2021-08-28T12:01:51.000Z</time>
      </trkpt>
      <trkpt lat="47.31905" lon="-1.34162">
        <ele>54</ele>
        <time>2021-08-28T12:01:53.000Z</time>
      </trkpt>
      <trkpt lat="47.31896" lon="-1.34175">
        <ele>54</ele>
        <time>2021-08-28T12:01:55.000Z</time>
      </trkpt>
      <trkpt lat="47.31886" lon="-1.34189">
        <ele>54</ele>
        <time>2021-08-28T12:01:57.000Z</time>
      </trkpt>
      <trkpt lat="47.31875" lon="-1.34204">
        <ele>54</ele>
        <time>2021-08-28T12:01:59.000Z</time>
      </trkpt>
      <trkpt lat="47.31865" lon="-1.34218">
        <ele>53</ele>
        <time>2021-08-28T12:02:01.000Z</time>
      </trkpt>
      <trkpt lat="47.31856" lon="-1.34234">
        <ele>53</ele>
        <time>2021-08-28T12:02:03.000Z</time>
      </trkpt>
      <trkpt lat="47.31847" lon="-1.34247">
        <ele>52</ele>
        <time>2021-08-28T12:02:05.000Z</time>
      </trkpt>
      <trkpt lat="47.31838" lon="-1.34261">
        <ele>52</ele>
        <time>2021-08-28T12:02:07.000Z</time>
      </trkpt>
      <trkpt lat="47.31829" lon="-1.34276">
        <ele>51</ele>
        <time>2021-08-28T12:02:09.000Z</time>
      </trkpt>
      <trkpt lat="47.31821" lon="-1.3429">
        <ele>51</ele>
        <time>2021-08-28T12:02:11.000Z</time>
      </trkpt>
      <trkpt lat="47.31812" lon="-1.34303">
        <ele>51</ele>
        <time>2021-08-28T12:02:13.000Z</time>
      </trkpt>
      <trkpt lat="47.31802" lon="-1.34317">
        <ele>50</ele>
        <time>2021-08-28T12:02:15.000Z</time>
      </trkpt>
      <trkpt lat="47.31794" lon="-1.34331">
        <ele>51</ele>
        <time>2021-08-28T12:02:17.000Z</time>
      </trkpt>
      <trkpt lat="47.31785" lon="-1.34345">
        <ele>50</ele>
        <time>2021-08-28T12:02:19.000Z</time>
      </trkpt>
      <trkpt lat="47.31776" lon="-1.34359">
        <ele>50</ele>
        <time>2021-08-28T12:02:21.000Z</time>
      </trkpt>
      <trkpt lat="47.31767" lon="-1.34373">
        <ele>51</ele>
        <time>2021-08-28T12:02:23.000Z</time>
      </trkpt>
      <trkpt lat="47.31758" lon="-1.34386">
        <ele>51</ele>
        <time>2021-08-28T12:02:25.000Z</time>
      </trkpt>
      <trkpt lat="47.3175" lon="-1.344">
        <ele>52</ele>
        <time>2021-08-28T12:02:27.000Z</time>
      </trkpt>
      <trkpt lat="47.31741" lon="-1.34414">
        <ele>51</ele>
        <time>2021-08-28T12:02:29.000Z</time>
      </trkpt>
      <trkpt lat="47.31733" lon="-1.34428">
        <ele>51</ele>
        <time>2021-08-28T12:02:31.000Z</time>
      </trkpt>
      <trkpt lat="47.31724" lon="-1.34442">
        <ele>51</ele>
        <time>2021-08-28T12:02:33.000Z</time>
      </trkpt>
      <trkpt lat="47.31715" lon="-1.34457">
        <ele>51</ele>
        <time>2021-08-28T12:02:35.000Z</time>
      </trkpt>
      <trkpt lat="47.31706" lon="-1.3447">
        <ele>50</ele>
        <time>2021-08-28T12:02:37.000Z</time>
      </trkpt>
      <trkpt lat="47.31696" lon="-1.34484">
        <ele>50</ele>
        <time>2021-08-28T12:02:39.000Z</time>
      </trkpt>
      <trkpt lat="47.31687" lon="-1.34497">
        <ele>50</ele>
        <time>2021-08-28T12:02:41.000Z</time>
      </trkpt>
      <trkpt lat="47.31679" lon="-1.34511">
        <ele>50</ele>
        <time>2021-08-28T12:02:43.000Z</time>
      </trkpt>
      <trkpt lat="47.3167" lon="-1.34525">
        <ele>50</ele>
        <time>2021-08-28T12:02:45.000Z</time>
      </trkpt>
      <trkpt lat="47.31661" lon="-1.34539">
        <ele>50</ele>
        <time>2021-08-28T12:02:47.000Z</time>
      </trkpt>
      <trkpt lat="47.31652" lon="-1.34552">
        <ele>49</ele>
        <time>2021-08-28T12:02:49.000Z</time>
      </trkpt>
      <trkpt lat="47.31644" lon="-1.34567">
        <ele>50</ele>
        <time>2021-08-28T12:02:51.000Z</time>
      </trkpt>
      <trkpt lat="47.31637" lon="-1.3458">
        <ele>51</ele>
        <time>2021-08-28T12:02:53.000Z</time>
      </trkpt>
      <trkpt lat="47.31629" lon="-1.34592">
        <ele>51</ele>
        <time>2021-08-28T12:02:55.000Z</time>
      </trkpt>
      <trkpt lat="47.31621" lon="-1.34605">
        <ele>51</ele>
        <time>2021-08-28T12:02:57.000Z</time>
      </trkpt>
      <trkpt lat="47.31612" lon="-1.34619">
        <ele>51</ele>
        <time>2021-08-28T12:02:59.000Z</time>
      </trkpt>
      <trkpt lat="47.31603" lon="-1.34633">
        <ele>51</ele>
        <time>2021-08-28T12:03:01.000Z</time>
      </trkpt>
      <trkpt lat="47.31594" lon="-1.34646">
        <ele>51</ele>
        <time>2021-08-28T12:03:03.000Z</time>
      </trkpt>
      <trkpt lat="47.31585" lon="-1.34661">
        <ele>51</ele>
        <time>2021-08-28T12:03:05.000Z</time>
      </trkpt>
      <trkpt lat="47.31577" lon="-1.34674">
        <ele>51</ele>
        <time>2021-08-28T12:03:07.000Z</time>
      </trkpt>
      <trkpt lat="47.31569" lon="-1.34686">
        <ele>51</ele>
        <time>2021-08-28T12:03:09.000Z</time>
      </trkpt>
      <trkpt lat="47.3156" lon="-1.347">
        <ele>51</ele>
        <time>2021-08-28T12:03:11.000Z</time>
      </trkpt>
      <trkpt lat="47.31552" lon="-1.34714">
        <ele>51</ele>
        <time>2021-08-28T12:03:13.000Z</time>
      </trkpt>
      <trkpt lat="47.31543" lon="-1.34728">
        <ele>52</ele>
        <time>2021-08-28T12:03:15.000Z</time>
      </trkpt>
      <trkpt lat="47.31535" lon="-1.34742">
        <ele>52</ele>
        <time>2021-08-28T12:03:17.000Z</time>
      </trkpt>
      <trkpt lat="47.31526" lon="-1.34755">
        <ele>52</ele>
        <time>2021-08-28T12:03:19.000Z</time>
      </trkpt>
      <trkpt lat="47.31517" lon="-1.34768">
        <ele>52</ele>
        <time>2021-08-28T12:03:21.000Z</time>
      </trkpt>
      <trkpt lat="47.31508" lon="-1.34782">
        <ele>52</ele>
        <time>2021-08-28T12:03:23.000Z</time>
      </trkpt>
      <trkpt lat="47.315" lon="-1.34795">
        <ele>52</ele>
        <time>2021-08-28T12:03:25.000Z</time>
      </trkpt>
      <trkpt lat="47.31491" lon="-1.34809">
        <ele>52</ele>
        <time>2021-08-28T12:03:27.000Z</time>
      </trkpt>
      <trkpt lat="47.31483" lon="-1.34821">
        <ele>52</ele>
        <time>2021-08-28T12:03:29.000Z</time>
      </trkpt>
      <trkpt lat="47.31474" lon="-1.34835">
        <ele>51</ele>
        <time>2021-08-28T12:03:31.000Z</time>
      </trkpt>
      <trkpt lat="47.31466" lon="-1.34849">
        <ele>51</ele>
        <time>2021-08-28T12:03:33.000Z</time>
      </trkpt>
      <trkpt lat="47.31458" lon="-1.34862">
        <ele>51</ele>
        <time>2021-08-28T12:03:35.000Z</time>
      </trkpt>
      <trkpt lat="47.31449" lon="-1.34876">
        <ele>51</ele>
        <time>2021-08-28T12:03:37.000Z</time>
      </trkpt>
      <trkpt lat="47.3144" lon="-1.34891">
        <ele>51</ele>
        <time>2021-08-28T12:03:39.000Z</time>
      </trkpt>
      <trkpt lat="47.31431" lon="-1.34904">
        <ele>51</ele>
        <time>2021-08-28T12:03:41.000Z</time>
      </trkpt>
      <trkpt lat="47.31422" lon="-1.34918">
        <ele>52</ele>
        <time>2021-08-28T12:03:43.000Z</time>
      </trkpt>
      <trkpt lat="47.31414" lon="-1.34931">
        <ele>52</ele>
        <time>2021-08-28T12:03:45.000Z</time>
      </trkpt>
      <trkpt lat="47.31405" lon="-1.34945">
        <ele>52</ele>
        <time>2021-08-28T12:03:47.000Z</time>
      </trkpt>
      <trkpt lat="47.31397" lon="-1.34958">
        <ele>52</ele>
        <time>2021-08-28T12:03:49.000Z</time>
      </trkpt>
      <trkpt lat="47.31388" lon="-1.34972">
        <ele>52</ele>
        <time>2021-08-28T12:03:51.000Z</time>
      </trkpt>
      <trkpt lat="47.3138" lon="-1.34987">
        <ele>52</ele>
        <time>2021-08-28T12:03:53.000Z</time>
      </trkpt>
      <trkpt lat="47.31373" lon="-1.35001">
        <ele>52</ele>
        <time>2021-08-28T12:03:55.000Z</time>
      </trkpt>
      <trkpt lat="47.31365" lon="-1.35015">
        <ele>52</ele>
        <time>2021-08-28T12:03:57.000Z</time>
      </trkpt>
      <trkpt lat="47.31357" lon="-1.35029">
        <ele>52</ele>
        <time>2021-08-28T12:03:59.000Z</time>
      </trkpt>
      <trkpt lat="47.31349" lon="-1.35043">
        <ele>52</ele>
        <time>2021-08-28T12:04:01.000Z</time>
      </trkpt>
      <trkpt lat="47.31341" lon="-1.35055">
        <ele>52</ele>
        <time>2021-08-28T12:04:03.000Z</time>
      </trkpt>
      <trkpt lat="47.31333" lon="-1.35068">
        <ele>53</ele>
        <time>2021-08-28T12:04:05.000Z</time>
      </trkpt>
      <trkpt lat="47.31325" lon="-1.3508">
        <ele>52</ele>
        <time>2021-08-28T12:04:07.000Z</time>
      </trkpt>
      <trkpt lat="47.31315" lon="-1.35087">
        <ele>52</ele>
        <time>2021-08-28T12:04:09.000Z</time>
      </trkpt>
      <trkpt lat="47.31303" lon="-1.35092">
        <ele>53</ele>
        <time>2021-08-28T12:04:11.000Z</time>
      </trkpt>
      <trkpt lat="47.31294" lon="-1.35105">
        <ele>53</ele>
        <time>2021-08-28T12:04:13.000Z</time>
      </trkpt>
      <trkpt lat="47.31287" lon="-1.35118">
        <ele>54</ele>
        <time>2021-08-28T12:04:15.000Z</time>
      </trkpt>
      <trkpt lat="47.31282" lon="-1.35132">
        <ele>53</ele>
        <time>2021-08-28T12:04:17.000Z</time>
      </trkpt>
      <trkpt lat="47.31275" lon="-1.35147">
        <ele>53</ele>
        <time>2021-08-28T12:04:19.000Z</time>
      </trkpt>
      <trkpt lat="47.31269" lon="-1.35161">
        <ele>54</ele>
        <time>2021-08-28T12:04:21.000Z</time>
      </trkpt>
      <trkpt lat="47.31261" lon="-1.35175">
        <ele>54</ele>
        <time>2021-08-28T12:04:23.000Z</time>
      </trkpt>
      <trkpt lat="47.31252" lon="-1.35189">
        <ele>54</ele>
        <time>2021-08-28T12:04:25.000Z</time>
      </trkpt>
      <trkpt lat="47.31244" lon="-1.35203">
        <ele>54</ele>
        <time>2021-08-28T12:04:27.000Z</time>
      </trkpt>
      <trkpt lat="47.31236" lon="-1.35216">
        <ele>54</ele>
        <time>2021-08-28T12:04:29.000Z</time>
      </trkpt>
      <trkpt lat="47.31227" lon="-1.35229">
        <ele>54</ele>
        <time>2021-08-28T12:04:31.000Z</time>
      </trkpt>
      <trkpt lat="47.31219" lon="-1.35243">
        <ele>54</ele>
        <time>2021-08-28T12:04:33.000Z</time>
      </trkpt>
      <trkpt lat="47.3121" lon="-1.35257">
        <ele>54</ele>
        <time>2021-08-28T12:04:35.000Z</time>
      </trkpt>
      <trkpt lat="47.31201" lon="-1.3527">
        <ele>54</ele>
        <time>2021-08-28T12:04:37.000Z</time>
      </trkpt>
      <trkpt lat="47.31193" lon="-1.35285">
        <ele>54</ele>
        <time>2021-08-28T12:04:39.000Z</time>
      </trkpt>
      <trkpt lat="47.31184" lon="-1.35299">
        <ele>54</ele>
        <time>2021-08-28T12:04:41.000Z</time>
      </trkpt>
      <trkpt lat="47.31176" lon="-1.35313">
        <ele>54</ele>
        <time>2021-08-28T12:04:43.000Z</time>
      </trkpt>
      <trkpt lat="47.31167" lon="-1.35326">
        <ele>53</ele>
        <time>2021-08-28T12:04:45.000Z</time>
      </trkpt>
      <trkpt lat="47.31158" lon="-1.3534">
        <ele>53</ele>
        <time>2021-08-28T12:04:47.000Z</time>
      </trkpt>
      <trkpt lat="47.31149" lon="-1.35353">
        <ele>53</ele>
        <time>2021-08-28T12:04:49.000Z</time>
      </trkpt>
      <trkpt lat="47.31141" lon="-1.35366">
        <ele>53</ele>
        <time>2021-08-28T12:04:51.000Z</time>
      </trkpt>
      <trkpt lat="47.31132" lon="-1.3538">
        <ele>53</ele>
        <time>2021-08-28T12:04:53.000Z</time>
      </trkpt>
      <trkpt lat="47.31123" lon="-1.35393">
        <ele>53</ele>
        <time>2021-08-28T12:04:55.000Z</time>
      </trkpt>
      <trkpt lat="47.31114" lon="-1.35407">
        <ele>53</ele>
        <time>2021-08-28T12:04:57.000Z</time>
      </trkpt>
      <trkpt lat="47.31105" lon="-1.3542">
        <ele>53</ele>
        <time>2021-08-28T12:04:59.000Z</time>
      </trkpt>
      <trkpt lat="47.31096" lon="-1.35433">
        <ele>53</ele>
        <time>2021-08-28T12:05:01.000Z</time>
      </trkpt>
      <trkpt lat="47.31086" lon="-1.35446">
        <ele>53</ele>
        <time>2021-08-28T12:05:03.000Z</time>
      </trkpt>
      <trkpt lat="47.31076" lon="-1.35459">
        <ele>53</ele>
        <time>2021-08-28T12:05:05.000Z</time>
      </trkpt>
      <trkpt lat="47.31066" lon="-1.35472">
        <ele>53</ele>
        <time>2021-08-28T12:05:07.000Z</time>
      </trkpt>
      <trkpt lat="47.31056" lon="-1.35484">
        <ele>53</ele>
        <time>2021-08-28T12:05:09.000Z</time>
      </trkpt>
      <trkpt lat="47.31046" lon="-1.35496">
        <ele>53</ele>
        <time>2021-08-28T12:05:11.000Z</time>
      </trkpt>
      <trkpt lat="47.31036" lon="-1.35508">
        <ele>53</ele>
        <time>2021-08-28T12:05:13.000Z</time>
      </trkpt>
      <trkpt lat="47.31026" lon="-1.35519">
        <ele>53</ele>
        <time>2021-08-28T12:05:15.000Z</time>
      </trkpt>
      <trkpt lat="47.31016" lon="-1.35531">
        <ele>53</ele>
        <time>2021-08-28T12:05:17.000Z</time>
      </trkpt>
      <trkpt lat="47.31005" lon="-1.35543">
        <ele>54</ele>
        <time>2021-08-28T12:05:19.000Z</time>
      </trkpt>
      <trkpt lat="47.30995" lon="-1.35556">
        <ele>54</ele>
        <time>2021-08-28T12:05:21.000Z</time>
      </trkpt>
      <trkpt lat="47.30984" lon="-1.35569">
        <ele>54</ele>
        <time>2021-08-28T12:05:23.000Z</time>
      </trkpt>
      <trkpt lat="47.30973" lon="-1.35581">
        <ele>53</ele>
        <time>2021-08-28T12:05:25.000Z</time>
      </trkpt>
      <trkpt lat="47.30963" lon="-1.35594">
        <ele>54</ele>
        <time>2021-08-28T12:05:27.000Z</time>
      </trkpt>
      <trkpt lat="47.30952" lon="-1.35606">
        <ele>53</ele>
        <time>2021-08-28T12:05:29.000Z</time>
      </trkpt>
      <trkpt lat="47.30942" lon="-1.35618">
        <ele>53</ele>
        <time>2021-08-28T12:05:31.000Z</time>
      </trkpt>
      <trkpt lat="47.30932" lon="-1.3563">
        <ele>53</ele>
        <time>2021-08-28T12:05:33.000Z</time>
      </trkpt>
      <trkpt lat="47.30922" lon="-1.35642">
        <ele>52</ele>
        <time>2021-08-28T12:05:35.000Z</time>
      </trkpt>
      <trkpt lat="47.30911" lon="-1.35655">
        <ele>52</ele>
        <time>2021-08-28T12:05:37.000Z</time>
      </trkpt>
      <trkpt lat="47.30901" lon="-1.35666">
        <ele>52</ele>
        <time>2021-08-28T12:05:39.000Z</time>
      </trkpt>
      <trkpt lat="47.3089" lon="-1.35678">
        <ele>52</ele>
        <time>2021-08-28T12:05:41.000Z</time>
      </trkpt>
      <trkpt lat="47.3088" lon="-1.3569">
        <ele>53</ele>
        <time>2021-08-28T12:05:43.000Z</time>
      </trkpt>
      <trkpt lat="47.30869" lon="-1.35702">
        <ele>53</ele>
        <time>2021-08-28T12:05:45.000Z</time>
      </trkpt>
      <trkpt lat="47.30859" lon="-1.35715">
        <ele>53</ele>
        <time>2021-08-28T12:05:47.000Z</time>
      </trkpt>
      <trkpt lat="47.30848" lon="-1.35727">
        <ele>53</ele>
        <time>2021-08-28T12:05:49.000Z</time>
      </trkpt>
      <trkpt lat="47.30838" lon="-1.3574">
        <ele>53</ele>
        <time>2021-08-28T12:05:51.000Z</time>
      </trkpt>
      <trkpt lat="47.30828" lon="-1.35752">
        <ele>53</ele>
        <time>2021-08-28T12:05:53.000Z</time>
      </trkpt>
      <trkpt lat="47.30818" lon="-1.35762">
        <ele>53</ele>
        <time>2021-08-28T12:05:55.000Z</time>
      </trkpt>
      <trkpt lat="47.30807" lon="-1.35775">
        <ele>53</ele>
        <time>2021-08-28T12:05:57.000Z</time>
      </trkpt>
      <trkpt lat="47.30797" lon="-1.35787">
        <ele>53</ele>
        <time>2021-08-28T12:05:59.000Z</time>
      </trkpt>
      <trkpt lat="47.30787" lon="-1.358">
        <ele>53</ele>
        <time>2021-08-28T12:06:01.000Z</time>
      </trkpt>
      <trkpt lat="47.30776" lon="-1.35811">
        <ele>53</ele>
        <time>2021-08-28T12:06:03.000Z</time>
      </trkpt>
      <trkpt lat="47.30765" lon="-1.35824">
        <ele>52</ele>
        <time>2021-08-28T12:06:05.000Z</time>
      </trkpt>
      <trkpt lat="47.30755" lon="-1.35836">
        <ele>51</ele>
        <time>2021-08-28T12:06:07.000Z</time>
      </trkpt>
      <trkpt lat="47.30744" lon="-1.35848">
        <ele>51</ele>
        <time>2021-08-28T12:06:09.000Z</time>
      </trkpt>
      <trkpt lat="47.30734" lon="-1.3586">
        <ele>51</ele>
        <time>2021-08-28T12:06:11.000Z</time>
      </trkpt>
      <trkpt lat="47.30724" lon="-1.35871">
        <ele>52</ele>
        <time>2021-08-28T12:06:13.000Z</time>
      </trkpt>
      <trkpt lat="47.30714" lon="-1.35883">
        <ele>52</ele>
        <time>2021-08-28T12:06:15.000Z</time>
      </trkpt>
      <trkpt lat="47.30704" lon="-1.35895">
        <ele>52</ele>
        <time>2021-08-28T12:06:17.000Z</time>
      </trkpt>
      <trkpt lat="47.30693" lon="-1.35906">
        <ele>52</ele>
        <time>2021-08-28T12:06:19.000Z</time>
      </trkpt>
      <trkpt lat="47.30683" lon="-1.35919">
        <ele>53</ele>
        <time>2021-08-28T12:06:21.000Z</time>
      </trkpt>
      <trkpt lat="47.30673" lon="-1.35931">
        <ele>53</ele>
        <time>2021-08-28T12:06:23.000Z</time>
      </trkpt>
      <trkpt lat="47.30662" lon="-1.35943">
        <ele>53</ele>
        <time>2021-08-28T12:06:25.000Z</time>
      </trkpt>
      <trkpt lat="47.30653" lon="-1.35955">
        <ele>53</ele>
        <time>2021-08-28T12:06:27.000Z</time>
      </trkpt>
      <trkpt lat="47.30643" lon="-1.35967">
        <ele>53</ele>
        <time>2021-08-28T12:06:29.000Z</time>
      </trkpt>
      <trkpt lat="47.30633" lon="-1.3598">
        <ele>53</ele>
        <time>2021-08-28T12:06:31.000Z</time>
      </trkpt>
      <trkpt lat="47.30623" lon="-1.35991">
        <ele>53</ele>
        <time>2021-08-28T12:06:33.000Z</time>
      </trkpt>
      <trkpt lat="47.30613" lon="-1.36002">
        <ele>53</ele>
        <time>2021-08-28T12:06:35.000Z</time>
      </trkpt>
      <trkpt lat="47.30599" lon="-1.36014">
        <ele>53</ele>
        <time>2021-08-28T12:06:38.000Z</time>
      </trkpt>
      <trkpt lat="47.30589" lon="-1.36023">
        <ele>52</ele>
        <time>2021-08-28T12:06:40.000Z</time>
      </trkpt>
      <trkpt lat="47.30582" lon="-1.36033">
        <ele>52</ele>
        <time>2021-08-28T12:06:42.000Z</time>
      </trkpt>
      <trkpt lat="47.30576" lon="-1.3605">
        <ele>51</ele>
        <time>2021-08-28T12:06:45.000Z</time>
      </trkpt>
      <trkpt lat="47.30569" lon="-1.3606">
        <ele>52</ele>
        <time>2021-08-28T12:06:47.000Z</time>
      </trkpt>
      <trkpt lat="47.30561" lon="-1.36072">
        <ele>52</ele>
        <time>2021-08-28T12:06:49.000Z</time>
      </trkpt>
      <trkpt lat="47.30552" lon="-1.36085">
        <ele>52</ele>
        <time>2021-08-28T12:06:51.000Z</time>
      </trkpt>
      <trkpt lat="47.30543" lon="-1.36097">
        <ele>51</ele>
        <time>2021-08-28T12:06:53.000Z</time>
      </trkpt>
      <trkpt lat="47.30534" lon="-1.36111">
        <ele>51</ele>
        <time>2021-08-28T12:06:55.000Z</time>
      </trkpt>
      <trkpt lat="47.30525" lon="-1.36124">
        <ele>51</ele>
        <time>2021-08-28T12:06:57.000Z</time>
      </trkpt>
      <trkpt lat="47.30518" lon="-1.36138">
        <ele>51</ele>
        <time>2021-08-28T12:06:59.000Z</time>
      </trkpt>
      <trkpt lat="47.30509" lon="-1.36152">
        <ele>52</ele>
        <time>2021-08-28T12:07:01.000Z</time>
      </trkpt>
      <trkpt lat="47.30501" lon="-1.36166">
        <ele>52</ele>
        <time>2021-08-28T12:07:03.000Z</time>
      </trkpt>
      <trkpt lat="47.30493" lon="-1.36181">
        <ele>52</ele>
        <time>2021-08-28T12:07:05.000Z</time>
      </trkpt>
      <trkpt lat="47.30485" lon="-1.36195">
        <ele>51</ele>
        <time>2021-08-28T12:07:07.000Z</time>
      </trkpt>
      <trkpt lat="47.30478" lon="-1.3621">
        <ele>51</ele>
        <time>2021-08-28T12:07:09.000Z</time>
      </trkpt>
      <trkpt lat="47.30471" lon="-1.36225">
        <ele>51</ele>
        <time>2021-08-28T12:07:11.000Z</time>
      </trkpt>
      <trkpt lat="47.30463" lon="-1.3624">
        <ele>51</ele>
        <time>2021-08-28T12:07:13.000Z</time>
      </trkpt>
      <trkpt lat="47.30456" lon="-1.36254">
        <ele>51</ele>
        <time>2021-08-28T12:07:15.000Z</time>
      </trkpt>
      <trkpt lat="47.30448" lon="-1.3627">
        <ele>51</ele>
        <time>2021-08-28T12:07:17.000Z</time>
      </trkpt>
      <trkpt lat="47.30441" lon="-1.36284">
        <ele>51</ele>
        <time>2021-08-28T12:07:19.000Z</time>
      </trkpt>
      <trkpt lat="47.30433" lon="-1.363">
        <ele>51</ele>
        <time>2021-08-28T12:07:21.000Z</time>
      </trkpt>
      <trkpt lat="47.30426" lon="-1.36315">
        <ele>51</ele>
        <time>2021-08-28T12:07:23.000Z</time>
      </trkpt>
      <trkpt lat="47.30419" lon="-1.36331">
        <ele>51</ele>
        <time>2021-08-28T12:07:25.000Z</time>
      </trkpt>
      <trkpt lat="47.30411" lon="-1.36346">
        <ele>51</ele>
        <time>2021-08-28T12:07:27.000Z</time>
      </trkpt>
      <trkpt lat="47.30404" lon="-1.36361">
        <ele>51</ele>
        <time>2021-08-28T12:07:29.000Z</time>
      </trkpt>
      <trkpt lat="47.30397" lon="-1.36376">
        <ele>51</ele>
        <time>2021-08-28T12:07:31.000Z</time>
      </trkpt>
      <trkpt lat="47.3039" lon="-1.36391">
        <ele>51</ele>
        <time>2021-08-28T12:07:33.000Z</time>
      </trkpt>
      <trkpt lat="47.30382" lon="-1.36406">
        <ele>51</ele>
        <time>2021-08-28T12:07:35.000Z</time>
      </trkpt>
      <trkpt lat="47.30375" lon="-1.36422">
        <ele>51</ele>
        <time>2021-08-28T12:07:37.000Z</time>
      </trkpt>
      <trkpt lat="47.30367" lon="-1.36438">
        <ele>52</ele>
        <time>2021-08-28T12:07:39.000Z</time>
      </trkpt>
      <trkpt lat="47.30359" lon="-1.36453">
        <ele>52</ele>
        <time>2021-08-28T12:07:41.000Z</time>
      </trkpt>
      <trkpt lat="47.30352" lon="-1.36469">
        <ele>52</ele>
        <time>2021-08-28T12:07:43.000Z</time>
      </trkpt>
      <trkpt lat="47.30344" lon="-1.36485">
        <ele>52</ele>
        <time>2021-08-28T12:07:45.000Z</time>
      </trkpt>
      <trkpt lat="47.30336" lon="-1.36501">
        <ele>52</ele>
        <time>2021-08-28T12:07:47.000Z</time>
      </trkpt>
      <trkpt lat="47.30327" lon="-1.36517">
        <ele>52</ele>
        <time>2021-08-28T12:07:49.000Z</time>
      </trkpt>
      <trkpt lat="47.3032" lon="-1.36533">
        <ele>51</ele>
        <time>2021-08-28T12:07:51.000Z</time>
      </trkpt>
      <trkpt lat="47.30312" lon="-1.36548">
        <ele>51</ele>
        <time>2021-08-28T12:07:53.000Z</time>
      </trkpt>
      <trkpt lat="47.30304" lon="-1.36564">
        <ele>51</ele>
        <time>2021-08-28T12:07:55.000Z</time>
      </trkpt>
      <trkpt lat="47.30296" lon="-1.3658">
        <ele>51</ele>
        <time>2021-08-28T12:07:57.000Z</time>
      </trkpt>
      <trkpt lat="47.30289" lon="-1.36596">
        <ele>51</ele>
        <time>2021-08-28T12:07:59.000Z</time>
      </trkpt>
      <trkpt lat="47.30283" lon="-1.36611">
        <ele>51</ele>
        <time>2021-08-28T12:08:01.000Z</time>
      </trkpt>
      <trkpt lat="47.30277" lon="-1.36627">
        <ele>51</ele>
        <time>2021-08-28T12:08:03.000Z</time>
      </trkpt>
      <trkpt lat="47.3027" lon="-1.36642">
        <ele>51</ele>
        <time>2021-08-28T12:08:05.000Z</time>
      </trkpt>
      <trkpt lat="47.30263" lon="-1.36658">
        <ele>51</ele>
        <time>2021-08-28T12:08:07.000Z</time>
      </trkpt>
      <trkpt lat="47.30255" lon="-1.36673">
        <ele>51</ele>
        <time>2021-08-28T12:08:09.000Z</time>
      </trkpt>
      <trkpt lat="47.30248" lon="-1.36689">
        <ele>51</ele>
        <time>2021-08-28T12:08:11.000Z</time>
      </trkpt>
      <trkpt lat="47.3024" lon="-1.36704">
        <ele>51</ele>
        <time>2021-08-28T12:08:13.000Z</time>
      </trkpt>
      <trkpt lat="47.30232" lon="-1.36719">
        <ele>51</ele>
        <time>2021-08-28T12:08:15.000Z</time>
      </trkpt>
      <trkpt lat="47.30225" lon="-1.36734">
        <ele>51</ele>
        <time>2021-08-28T12:08:17.000Z</time>
      </trkpt>
      <trkpt lat="47.30217" lon="-1.3675">
        <ele>51</ele>
        <time>2021-08-28T12:08:19.000Z</time>
      </trkpt>
      <trkpt lat="47.30209" lon="-1.36766">
        <ele>51</ele>
        <time>2021-08-28T12:08:21.000Z</time>
      </trkpt>
      <trkpt lat="47.30201" lon="-1.36782">
        <ele>51</ele>
        <time>2021-08-28T12:08:23.000Z</time>
      </trkpt>
      <trkpt lat="47.30194" lon="-1.36797">
        <ele>51</ele>
        <time>2021-08-28T12:08:25.000Z</time>
      </trkpt>
      <trkpt lat="47.30186" lon="-1.36813">
        <ele>51</ele>
        <time>2021-08-28T12:08:27.000Z</time>
      </trkpt>
      <trkpt lat="47.30178" lon="-1.36829">
        <ele>51</ele>
        <time>2021-08-28T12:08:29.000Z</time>
      </trkpt>
      <trkpt lat="47.30171" lon="-1.36844">
        <ele>52</ele>
        <time>2021-08-28T12:08:31.000Z</time>
      </trkpt>
      <trkpt lat="47.30163" lon="-1.36859">
        <ele>52</ele>
        <time>2021-08-28T12:08:33.000Z</time>
      </trkpt>
      <trkpt lat="47.30156" lon="-1.36874">
        <ele>52</ele>
        <time>2021-08-28T12:08:35.000Z</time>
      </trkpt>
      <trkpt lat="47.30149" lon="-1.36889">
        <ele>51</ele>
        <time>2021-08-28T12:08:37.000Z</time>
      </trkpt>
      <trkpt lat="47.30142" lon="-1.36904">
        <ele>52</ele>
        <time>2021-08-28T12:08:39.000Z</time>
      </trkpt>
      <trkpt lat="47.30135" lon="-1.3692">
        <ele>52</ele>
        <time>2021-08-28T12:08:41.000Z</time>
      </trkpt>
      <trkpt lat="47.30127" lon="-1.36935">
        <ele>52</ele>
        <time>2021-08-28T12:08:43.000Z</time>
      </trkpt>
      <trkpt lat="47.3012" lon="-1.3695">
        <ele>52</ele>
        <time>2021-08-28T12:08:45.000Z</time>
      </trkpt>
      <trkpt lat="47.30115" lon="-1.36966">
        <ele>52</ele>
        <time>2021-08-28T12:08:47.000Z</time>
      </trkpt>
      <trkpt lat="47.3011" lon="-1.3698">
        <ele>51</ele>
        <time>2021-08-28T12:08:49.000Z</time>
      </trkpt>
      <trkpt lat="47.30103" lon="-1.36994">
        <ele>51</ele>
        <time>2021-08-28T12:08:51.000Z</time>
      </trkpt>
      <trkpt lat="47.30096" lon="-1.37008">
        <ele>52</ele>
        <time>2021-08-28T12:08:53.000Z</time>
      </trkpt>
      <trkpt lat="47.30089" lon="-1.37022">
        <ele>52</ele>
        <time>2021-08-28T12:08:55.000Z</time>
      </trkpt>
      <trkpt lat="47.30081" lon="-1.37037">
        <ele>52</ele>
        <time>2021-08-28T12:08:57.000Z</time>
      </trkpt>
      <trkpt lat="47.30073" lon="-1.37051">
        <ele>52</ele>
        <time>2021-08-28T12:08:59.000Z</time>
      </trkpt>
      <trkpt lat="47.30066" lon="-1.37064">
        <ele>52</ele>
        <time>2021-08-28T12:09:01.000Z</time>
      </trkpt>
      <trkpt lat="47.30059" lon="-1.37076">
        <ele>52</ele>
        <time>2021-08-28T12:09:03.000Z</time>
      </trkpt>
      <trkpt lat="47.30051" lon="-1.37089">
        <ele>53</ele>
        <time>2021-08-28T12:09:05.000Z</time>
      </trkpt>
      <trkpt lat="47.30044" lon="-1.37102">
        <ele>53</ele>
        <time>2021-08-28T12:09:07.000Z</time>
      </trkpt>
      <trkpt lat="47.30037" lon="-1.37112">
        <ele>53</ele>
        <time>2021-08-28T12:09:09.000Z</time>
      </trkpt>
      <trkpt lat="47.30029" lon="-1.37125">
        <ele>54</ele>
        <time>2021-08-28T12:09:11.000Z</time>
      </trkpt>
      <trkpt lat="47.30018" lon="-1.37141">
        <ele>54</ele>
        <time>2021-08-28T12:09:13.000Z</time>
      </trkpt>
      <trkpt lat="47.30007" lon="-1.37159">
        <ele>54</ele>
        <time>2021-08-28T12:09:15.000Z</time>
      </trkpt>
      <trkpt lat="47.29996" lon="-1.37177">
        <ele>53</ele>
        <time>2021-08-28T12:09:17.000Z</time>
      </trkpt>
      <trkpt lat="47.29984" lon="-1.37195">
        <ele>53</ele>
        <time>2021-08-28T12:09:19.000Z</time>
      </trkpt>
      <trkpt lat="47.29973" lon="-1.37213">
        <ele>53</ele>
        <time>2021-08-28T12:09:21.000Z</time>
      </trkpt>
      <trkpt lat="47.29962" lon="-1.37229">
        <ele>52</ele>
        <time>2021-08-28T12:09:23.000Z</time>
      </trkpt>
      <trkpt lat="47.29951" lon="-1.37245">
        <ele>52</ele>
        <time>2021-08-28T12:09:25.000Z</time>
      </trkpt>
      <trkpt lat="47.29941" lon="-1.37261">
        <ele>51</ele>
        <time>2021-08-28T12:09:27.000Z</time>
      </trkpt>
      <trkpt lat="47.2993" lon="-1.37278">
        <ele>51</ele>
        <time>2021-08-28T12:09:29.000Z</time>
      </trkpt>
      <trkpt lat="47.2992" lon="-1.37294">
        <ele>51</ele>
        <time>2021-08-28T12:09:31.000Z</time>
      </trkpt>
      <trkpt lat="47.29909" lon="-1.3731">
        <ele>51</ele>
        <time>2021-08-28T12:09:33.000Z</time>
      </trkpt>
      <trkpt lat="47.29899" lon="-1.37326">
        <ele>51</ele>
        <time>2021-08-28T12:09:35.000Z</time>
      </trkpt>
      <trkpt lat="47.29889" lon="-1.37342">
        <ele>51</ele>
        <time>2021-08-28T12:09:37.000Z</time>
      </trkpt>
      <trkpt lat="47.29879" lon="-1.37357">
        <ele>51</ele>
        <time>2021-08-28T12:09:39.000Z</time>
      </trkpt>
      <trkpt lat="47.29869" lon="-1.37373">
        <ele>51</ele>
        <time>2021-08-28T12:09:41.000Z</time>
      </trkpt>
      <trkpt lat="47.2986" lon="-1.37388">
        <ele>51</ele>
        <time>2021-08-28T12:09:43.000Z</time>
      </trkpt>
      <trkpt lat="47.2985" lon="-1.37403">
        <ele>51</ele>
        <time>2021-08-28T12:09:45.000Z</time>
      </trkpt>
      <trkpt lat="47.2984" lon="-1.37418">
        <ele>51</ele>
        <time>2021-08-28T12:09:47.000Z</time>
      </trkpt>
      <trkpt lat="47.2983" lon="-1.37433">
        <ele>51</ele>
        <time>2021-08-28T12:09:49.000Z</time>
      </trkpt>
      <trkpt lat="47.29821" lon="-1.37447">
        <ele>51</ele>
        <time>2021-08-28T12:09:51.000Z</time>
      </trkpt>
      <trkpt lat="47.29813" lon="-1.37462">
        <ele>51</ele>
        <time>2021-08-28T12:09:53.000Z</time>
      </trkpt>
      <trkpt lat="47.29803" lon="-1.37476">
        <ele>51</ele>
        <time>2021-08-28T12:09:55.000Z</time>
      </trkpt>
      <trkpt lat="47.29794" lon="-1.37492">
        <ele>52</ele>
        <time>2021-08-28T12:09:57.000Z</time>
      </trkpt>
      <trkpt lat="47.29785" lon="-1.37508">
        <ele>52</ele>
        <time>2021-08-28T12:09:59.000Z</time>
      </trkpt>
      <trkpt lat="47.29776" lon="-1.37524">
        <ele>51</ele>
        <time>2021-08-28T12:10:01.000Z</time>
      </trkpt>
      <trkpt lat="47.29768" lon="-1.37541">
        <ele>51</ele>
        <time>2021-08-28T12:10:03.000Z</time>
      </trkpt>
      <trkpt lat="47.29759" lon="-1.37557">
        <ele>51</ele>
        <time>2021-08-28T12:10:05.000Z</time>
      </trkpt>
      <trkpt lat="47.29751" lon="-1.37574">
        <ele>51</ele>
        <time>2021-08-28T12:10:07.000Z</time>
      </trkpt>
      <trkpt lat="47.29742" lon="-1.37591">
        <ele>51</ele>
        <time>2021-08-28T12:10:09.000Z</time>
      </trkpt>
      <trkpt lat="47.29734" lon="-1.37607">
        <ele>51</ele>
        <time>2021-08-28T12:10:11.000Z</time>
      </trkpt>
      <trkpt lat="47.29725" lon="-1.37623">
        <ele>51</ele>
        <time>2021-08-28T12:10:13.000Z</time>
      </trkpt>
      <trkpt lat="47.29717" lon="-1.37639">
        <ele>51</ele>
        <time>2021-08-28T12:10:15.000Z</time>
      </trkpt>
      <trkpt lat="47.29709" lon="-1.37655">
        <ele>52</ele>
        <time>2021-08-28T12:10:17.000Z</time>
      </trkpt>
      <trkpt lat="47.29701" lon="-1.37671">
        <ele>52</ele>
        <time>2021-08-28T12:10:19.000Z</time>
      </trkpt>
      <trkpt lat="47.29693" lon="-1.37687">
        <ele>52</ele>
        <time>2021-08-28T12:10:21.000Z</time>
      </trkpt>
      <trkpt lat="47.29685" lon="-1.37702">
        <ele>52</ele>
        <time>2021-08-28T12:10:23.000Z</time>
      </trkpt>
      <trkpt lat="47.29677" lon="-1.37718">
        <ele>52</ele>
        <time>2021-08-28T12:10:25.000Z</time>
      </trkpt>
      <trkpt lat="47.29668" lon="-1.37734">
        <ele>52</ele>
        <time>2021-08-28T12:10:27.000Z</time>
      </trkpt>
      <trkpt lat="47.2966" lon="-1.3775">
        <ele>52</ele>
        <time>2021-08-28T12:10:29.000Z</time>
      </trkpt>
      <trkpt lat="47.29652" lon="-1.37766">
        <ele>52</ele>
        <time>2021-08-28T12:10:31.000Z</time>
      </trkpt>
      <trkpt lat="47.29644" lon="-1.37781">
        <ele>53</ele>
        <time>2021-08-28T12:10:33.000Z</time>
      </trkpt>
      <trkpt lat="47.29636" lon="-1.37796">
        <ele>53</ele>
        <time>2021-08-28T12:10:35.000Z</time>
      </trkpt>
      <trkpt lat="47.29627" lon="-1.37808">
        <ele>52</ele>
        <time>2021-08-28T12:10:37.000Z</time>
      </trkpt>
      <trkpt lat="47.2962" lon="-1.37822">
        <ele>52</ele>
        <time>2021-08-28T12:10:39.000Z</time>
      </trkpt>
      <trkpt lat="47.29613" lon="-1.37837">
        <ele>52</ele>
        <time>2021-08-28T12:10:41.000Z</time>
      </trkpt>
      <trkpt lat="47.29606" lon="-1.37853">
        <ele>51</ele>
        <time>2021-08-28T12:10:43.000Z</time>
      </trkpt>
      <trkpt lat="47.29599" lon="-1.37869">
        <ele>52</ele>
        <time>2021-08-28T12:10:45.000Z</time>
      </trkpt>
      <trkpt lat="47.29592" lon="-1.37883">
        <ele>52</ele>
        <time>2021-08-28T12:10:47.000Z</time>
      </trkpt>
      <trkpt lat="47.29586" lon="-1.37897">
        <ele>52</ele>
        <time>2021-08-28T12:10:49.000Z</time>
      </trkpt>
      <trkpt lat="47.29579" lon="-1.37912">
        <ele>52</ele>
        <time>2021-08-28T12:10:51.000Z</time>
      </trkpt>
      <trkpt lat="47.29573" lon="-1.37927">
        <ele>52</ele>
        <time>2021-08-28T12:10:53.000Z</time>
      </trkpt>
      <trkpt lat="47.29567" lon="-1.37943">
        <ele>52</ele>
        <time>2021-08-28T12:10:55.000Z</time>
      </trkpt>
      <trkpt lat="47.2956" lon="-1.37959">
        <ele>52</ele>
        <time>2021-08-28T12:10:57.000Z</time>
      </trkpt>
      <trkpt lat="47.29553" lon="-1.37976">
        <ele>52</ele>
        <time>2021-08-28T12:10:59.000Z</time>
      </trkpt>
      <trkpt lat="47.29547" lon="-1.37993">
        <ele>53</ele>
        <time>2021-08-28T12:11:01.000Z</time>
      </trkpt>
      <trkpt lat="47.29541" lon="-1.3801">
        <ele>53</ele>
        <time>2021-08-28T12:11:03.000Z</time>
      </trkpt>
      <trkpt lat="47.29536" lon="-1.38028">
        <ele>53</ele>
        <time>2021-08-28T12:11:05.000Z</time>
      </trkpt>
      <trkpt lat="47.29529" lon="-1.38045">
        <ele>53</ele>
        <time>2021-08-28T12:11:07.000Z</time>
      </trkpt>
      <trkpt lat="47.29523" lon="-1.38063">
        <ele>53</ele>
        <time>2021-08-28T12:11:09.000Z</time>
      </trkpt>
      <trkpt lat="47.29517" lon="-1.38081">
        <ele>53</ele>
        <time>2021-08-28T12:11:11.000Z</time>
      </trkpt>
      <trkpt lat="47.29512" lon="-1.38098">
        <ele>52</ele>
        <time>2021-08-28T12:11:13.000Z</time>
      </trkpt>
      <trkpt lat="47.29507" lon="-1.38116">
        <ele>53</ele>
        <time>2021-08-28T12:11:15.000Z</time>
      </trkpt>
      <trkpt lat="47.29502" lon="-1.38133">
        <ele>53</ele>
        <time>2021-08-28T12:11:17.000Z</time>
      </trkpt>
      <trkpt lat="47.29497" lon="-1.38151">
        <ele>54</ele>
        <time>2021-08-28T12:11:19.000Z</time>
      </trkpt>
      <trkpt lat="47.29492" lon="-1.38169">
        <ele>54</ele>
        <time>2021-08-28T12:11:21.000Z</time>
      </trkpt>
      <trkpt lat="47.29487" lon="-1.38188">
        <ele>54</ele>
        <time>2021-08-28T12:11:23.000Z</time>
      </trkpt>
      <trkpt lat="47.29482" lon="-1.38206">
        <ele>54</ele>
        <time>2021-08-28T12:11:25.000Z</time>
      </trkpt>
      <trkpt lat="47.29477" lon="-1.38223">
        <ele>53</ele>
        <time>2021-08-28T12:11:27.000Z</time>
      </trkpt>
      <trkpt lat="47.29471" lon="-1.38241">
        <ele>54</ele>
        <time>2021-08-28T12:11:29.000Z</time>
      </trkpt>
      <trkpt lat="47.29466" lon="-1.38259">
        <ele>53</ele>
        <time>2021-08-28T12:11:31.000Z</time>
      </trkpt>
      <trkpt lat="47.29462" lon="-1.38277">
        <ele>54</ele>
        <time>2021-08-28T12:11:33.000Z</time>
      </trkpt>
      <trkpt lat="47.29457" lon="-1.38295">
        <ele>54</ele>
        <time>2021-08-28T12:11:35.000Z</time>
      </trkpt>
      <trkpt lat="47.29452" lon="-1.38311">
        <ele>55</ele>
        <time>2021-08-28T12:11:37.000Z</time>
      </trkpt>
      <trkpt lat="47.29445" lon="-1.38324">
        <ele>56</ele>
        <time>2021-08-28T12:11:39.000Z</time>
      </trkpt>
      <trkpt lat="47.29438" lon="-1.38336">
        <ele>56</ele>
        <time>2021-08-28T12:11:41.000Z</time>
      </trkpt>
      <trkpt lat="47.29434" lon="-1.38352">
        <ele>55</ele>
        <time>2021-08-28T12:11:43.000Z</time>
      </trkpt>
      <trkpt lat="47.29432" lon="-1.38371">
        <ele>55</ele>
        <time>2021-08-28T12:11:45.000Z</time>
      </trkpt>
      <trkpt lat="47.29428" lon="-1.3839">
        <ele>54</ele>
        <time>2021-08-28T12:11:47.000Z</time>
      </trkpt>
      <trkpt lat="47.29423" lon="-1.3841">
        <ele>54</ele>
        <time>2021-08-28T12:11:49.000Z</time>
      </trkpt>
      <trkpt lat="47.29418" lon="-1.38429">
        <ele>54</ele>
        <time>2021-08-28T12:11:51.000Z</time>
      </trkpt>
      <trkpt lat="47.29413" lon="-1.38449">
        <ele>54</ele>
        <time>2021-08-28T12:11:53.000Z</time>
      </trkpt>
      <trkpt lat="47.29409" lon="-1.38468">
        <ele>53</ele>
        <time>2021-08-28T12:11:55.000Z</time>
      </trkpt>
      <trkpt lat="47.29404" lon="-1.38486">
        <ele>53</ele>
        <time>2021-08-28T12:11:57.000Z</time>
      </trkpt>
      <trkpt lat="47.29399" lon="-1.38504">
        <ele>53</ele>
        <time>2021-08-28T12:11:59.000Z</time>
      </trkpt>
      <trkpt lat="47.29394" lon="-1.38521">
        <ele>54</ele>
        <time>2021-08-28T12:12:01.000Z</time>
      </trkpt>
      <trkpt lat="47.29389" lon="-1.38538">
        <ele>54</ele>
        <time>2021-08-28T12:12:03.000Z</time>
      </trkpt>
      <trkpt lat="47.29378" lon="-1.38552">
        <ele>53</ele>
        <time>2021-08-28T12:12:05.000Z</time>
      </trkpt>
      <trkpt lat="47.2937" lon="-1.3857">
        <ele>53</ele>
        <time>2021-08-28T12:12:07.000Z</time>
      </trkpt>
      <trkpt lat="47.29363" lon="-1.3859">
        <ele>52</ele>
        <time>2021-08-28T12:12:09.000Z</time>
      </trkpt>
      <trkpt lat="47.29356" lon="-1.38611">
        <ele>52</ele>
        <time>2021-08-28T12:12:11.000Z</time>
      </trkpt>
      <trkpt lat="47.2935" lon="-1.38632">
        <ele>52</ele>
        <time>2021-08-28T12:12:13.000Z</time>
      </trkpt>
      <trkpt lat="47.29344" lon="-1.38652">
        <ele>52</ele>
        <time>2021-08-28T12:12:15.000Z</time>
      </trkpt>
      <trkpt lat="47.29338" lon="-1.38672">
        <ele>52</ele>
        <time>2021-08-28T12:12:17.000Z</time>
      </trkpt>
      <trkpt lat="47.29332" lon="-1.3869">
        <ele>52</ele>
        <time>2021-08-28T12:12:19.000Z</time>
      </trkpt>
      <trkpt lat="47.29325" lon="-1.38709">
        <ele>52</ele>
        <time>2021-08-28T12:12:21.000Z</time>
      </trkpt>
      <trkpt lat="47.29321" lon="-1.38729">
        <ele>51</ele>
        <time>2021-08-28T12:12:23.000Z</time>
      </trkpt>
      <trkpt lat="47.29318" lon="-1.38748">
        <ele>52</ele>
        <time>2021-08-28T12:12:25.000Z</time>
      </trkpt>
      <trkpt lat="47.29314" lon="-1.38767">
        <ele>52</ele>
        <time>2021-08-28T12:12:27.000Z</time>
      </trkpt>
      <trkpt lat="47.29309" lon="-1.38786">
        <ele>52</ele>
        <time>2021-08-28T12:12:29.000Z</time>
      </trkpt>
      <trkpt lat="47.29304" lon="-1.38806">
        <ele>52</ele>
        <time>2021-08-28T12:12:31.000Z</time>
      </trkpt>
      <trkpt lat="47.29298" lon="-1.38827">
        <ele>52</ele>
        <time>2021-08-28T12:12:33.000Z</time>
      </trkpt>
      <trkpt lat="47.29292" lon="-1.38846">
        <ele>52</ele>
        <time>2021-08-28T12:12:35.000Z</time>
      </trkpt>
      <trkpt lat="47.29287" lon="-1.38866">
        <ele>52</ele>
        <time>2021-08-28T12:12:37.000Z</time>
      </trkpt>
      <trkpt lat="47.29281" lon="-1.38886">
        <ele>52</ele>
        <time>2021-08-28T12:12:39.000Z</time>
      </trkpt>
      <trkpt lat="47.29276" lon="-1.38905">
        <ele>52</ele>
        <time>2021-08-28T12:12:41.000Z</time>
      </trkpt>
      <trkpt lat="47.29271" lon="-1.38924">
        <ele>52</ele>
        <time>2021-08-28T12:12:43.000Z</time>
      </trkpt>
      <trkpt lat="47.29265" lon="-1.38944">
        <ele>52</ele>
        <time>2021-08-28T12:12:45.000Z</time>
      </trkpt>
      <trkpt lat="47.2926" lon="-1.38964">
        <ele>51</ele>
        <time>2021-08-28T12:12:47.000Z</time>
      </trkpt>
      <trkpt lat="47.29255" lon="-1.38984">
        <ele>52</ele>
        <time>2021-08-28T12:12:49.000Z</time>
      </trkpt>
      <trkpt lat="47.2925" lon="-1.39002">
        <ele>52</ele>
        <time>2021-08-28T12:12:51.000Z</time>
      </trkpt>
      <trkpt lat="47.29245" lon="-1.39021">
        <ele>52</ele>
        <time>2021-08-28T12:12:53.000Z</time>
      </trkpt>
      <trkpt lat="47.2924" lon="-1.3904">
        <ele>52</ele>
        <time>2021-08-28T12:12:55.000Z</time>
      </trkpt>
      <trkpt lat="47.29235" lon="-1.39058">
        <ele>52</ele>
        <time>2021-08-28T12:12:57.000Z</time>
      </trkpt>
      <trkpt lat="47.2923" lon="-1.39077">
        <ele>52</ele>
        <time>2021-08-28T12:12:59.000Z</time>
      </trkpt>
      <trkpt lat="47.29223" lon="-1.39095">
        <ele>53</ele>
        <time>2021-08-28T12:13:01.000Z</time>
      </trkpt>
      <trkpt lat="47.29215" lon="-1.39111">
        <ele>53</ele>
        <time>2021-08-28T12:13:03.000Z</time>
      </trkpt>
      <trkpt lat="47.29205" lon="-1.39127">
        <ele>53</ele>
        <time>2021-08-28T12:13:05.000Z</time>
      </trkpt>
      <trkpt lat="47.29194" lon="-1.39141">
        <ele>52</ele>
        <time>2021-08-28T12:13:07.000Z</time>
      </trkpt>
      <trkpt lat="47.29183" lon="-1.39154">
        <ele>52</ele>
        <time>2021-08-28T12:13:09.000Z</time>
      </trkpt>
      <trkpt lat="47.29172" lon="-1.39167">
        <ele>52</ele>
        <time>2021-08-28T12:13:11.000Z</time>
      </trkpt>
      <trkpt lat="47.29161" lon="-1.3918">
        <ele>52</ele>
        <time>2021-08-28T12:13:13.000Z</time>
      </trkpt>
      <trkpt lat="47.2915" lon="-1.39193">
        <ele>51</ele>
        <time>2021-08-28T12:13:15.000Z</time>
      </trkpt>
      <trkpt lat="47.29139" lon="-1.39207">
        <ele>51</ele>
        <time>2021-08-28T12:13:17.000Z</time>
      </trkpt>
      <trkpt lat="47.29127" lon="-1.3922">
        <ele>51</ele>
        <time>2021-08-28T12:13:19.000Z</time>
      </trkpt>
      <trkpt lat="47.29117" lon="-1.39234">
        <ele>51</ele>
        <time>2021-08-28T12:13:21.000Z</time>
      </trkpt>
      <trkpt lat="47.29106" lon="-1.39248">
        <ele>52</ele>
        <time>2021-08-28T12:13:23.000Z</time>
      </trkpt>
      <trkpt lat="47.29097" lon="-1.39263">
        <ele>52</ele>
        <time>2021-08-28T12:13:25.000Z</time>
      </trkpt>
      <trkpt lat="47.29088" lon="-1.39279">
        <ele>52</ele>
        <time>2021-08-28T12:13:27.000Z</time>
      </trkpt>
      <trkpt lat="47.29079" lon="-1.39293">
        <ele>52</ele>
        <time>2021-08-28T12:13:29.000Z</time>
      </trkpt>
      <trkpt lat="47.29068" lon="-1.39305">
        <ele>52</ele>
        <time>2021-08-28T12:13:31.000Z</time>
      </trkpt>
      <trkpt lat="47.29056" lon="-1.39316">
        <ele>53</ele>
        <time>2021-08-28T12:13:33.000Z</time>
      </trkpt>
      <trkpt lat="47.29045" lon="-1.39328">
        <ele>53</ele>
        <time>2021-08-28T12:13:35.000Z</time>
      </trkpt>
      <trkpt lat="47.29035" lon="-1.3934">
        <ele>53</ele>
        <time>2021-08-28T12:13:37.000Z</time>
      </trkpt>
      <trkpt lat="47.29025" lon="-1.39353">
        <ele>53</ele>
        <time>2021-08-28T12:13:39.000Z</time>
      </trkpt>
      <trkpt lat="47.29015" lon="-1.39367">
        <ele>53</ele>
        <time>2021-08-28T12:13:41.000Z</time>
      </trkpt>
      <trkpt lat="47.29006" lon="-1.39382">
        <ele>53</ele>
        <time>2021-08-28T12:13:43.000Z</time>
      </trkpt>
      <trkpt lat="47.28996" lon="-1.39396">
        <ele>53</ele>
        <time>2021-08-28T12:13:45.000Z</time>
      </trkpt>
      <trkpt lat="47.28986" lon="-1.39409">
        <ele>53</ele>
        <time>2021-08-28T12:13:47.000Z</time>
      </trkpt>
      <trkpt lat="47.28976" lon="-1.39422">
        <ele>53</ele>
        <time>2021-08-28T12:13:49.000Z</time>
      </trkpt>
      <trkpt lat="47.28965" lon="-1.39435">
        <ele>53</ele>
        <time>2021-08-28T12:13:51.000Z</time>
      </trkpt>
      <trkpt lat="47.28954" lon="-1.39448">
        <ele>53</ele>
        <time>2021-08-28T12:13:53.000Z</time>
      </trkpt>
      <trkpt lat="47.28943" lon="-1.39461">
        <ele>53</ele>
        <time>2021-08-28T12:13:55.000Z</time>
      </trkpt>
      <trkpt lat="47.28932" lon="-1.39474">
        <ele>53</ele>
        <time>2021-08-28T12:13:57.000Z</time>
      </trkpt>
      <trkpt lat="47.28921" lon="-1.39487">
        <ele>53</ele>
        <time>2021-08-28T12:13:59.000Z</time>
      </trkpt>
      <trkpt lat="47.2891" lon="-1.395">
        <ele>53</ele>
        <time>2021-08-28T12:14:01.000Z</time>
      </trkpt>
      <trkpt lat="47.28899" lon="-1.39512">
        <ele>52</ele>
        <time>2021-08-28T12:14:03.000Z</time>
      </trkpt>
      <trkpt lat="47.28888" lon="-1.39524">
        <ele>52</ele>
        <time>2021-08-28T12:14:05.000Z</time>
      </trkpt>
      <trkpt lat="47.28878" lon="-1.39537">
        <ele>52</ele>
        <time>2021-08-28T12:14:07.000Z</time>
      </trkpt>
      <trkpt lat="47.28867" lon="-1.3955">
        <ele>52</ele>
        <time>2021-08-28T12:14:09.000Z</time>
      </trkpt>
      <trkpt lat="47.28857" lon="-1.39563">
        <ele>52</ele>
        <time>2021-08-28T12:14:11.000Z</time>
      </trkpt>
      <trkpt lat="47.28846" lon="-1.39576">
        <ele>51</ele>
        <time>2021-08-28T12:14:13.000Z</time>
      </trkpt>
      <trkpt lat="47.28836" lon="-1.39589">
        <ele>51</ele>
        <time>2021-08-28T12:14:15.000Z</time>
      </trkpt>
      <trkpt lat="47.28825" lon="-1.39601">
        <ele>51</ele>
        <time>2021-08-28T12:14:17.000Z</time>
      </trkpt>
      <trkpt lat="47.28814" lon="-1.39613">
        <ele>51</ele>
        <time>2021-08-28T12:14:19.000Z</time>
      </trkpt>
      <trkpt lat="47.28804" lon="-1.39626">
        <ele>51</ele>
        <time>2021-08-28T12:14:21.000Z</time>
      </trkpt>
      <trkpt lat="47.28793" lon="-1.39639">
        <ele>51</ele>
        <time>2021-08-28T12:14:23.000Z</time>
      </trkpt>
      <trkpt lat="47.28783" lon="-1.39651">
        <ele>51</ele>
        <time>2021-08-28T12:14:25.000Z</time>
      </trkpt>
      <trkpt lat="47.28772" lon="-1.39664">
        <ele>51</ele>
        <time>2021-08-28T12:14:27.000Z</time>
      </trkpt>
      <trkpt lat="47.28762" lon="-1.39677">
        <ele>51</ele>
        <time>2021-08-28T12:14:29.000Z</time>
      </trkpt>
      <trkpt lat="47.28751" lon="-1.3969">
        <ele>50</ele>
        <time>2021-08-28T12:14:31.000Z</time>
      </trkpt>
      <trkpt lat="47.28741" lon="-1.39702">
        <ele>51</ele>
        <time>2021-08-28T12:14:33.000Z</time>
      </trkpt>
      <trkpt lat="47.28731" lon="-1.39715">
        <ele>51</ele>
        <time>2021-08-28T12:14:35.000Z</time>
      </trkpt>
      <trkpt lat="47.2872" lon="-1.39727">
        <ele>51</ele>
        <time>2021-08-28T12:14:37.000Z</time>
      </trkpt>
      <trkpt lat="47.2871" lon="-1.39739">
        <ele>52</ele>
        <time>2021-08-28T12:14:39.000Z</time>
      </trkpt>
      <trkpt lat="47.287" lon="-1.39753">
        <ele>52</ele>
        <time>2021-08-28T12:14:41.000Z</time>
      </trkpt>
      <trkpt lat="47.2869" lon="-1.39765">
        <ele>52</ele>
        <time>2021-08-28T12:14:43.000Z</time>
      </trkpt>
      <trkpt lat="47.2868" lon="-1.39777">
        <ele>53</ele>
        <time>2021-08-28T12:14:45.000Z</time>
      </trkpt>
      <trkpt lat="47.28669" lon="-1.39791">
        <ele>52</ele>
        <time>2021-08-28T12:14:47.000Z</time>
      </trkpt>
      <trkpt lat="47.2866" lon="-1.39805">
        <ele>52</ele>
        <time>2021-08-28T12:14:49.000Z</time>
      </trkpt>
      <trkpt lat="47.2865" lon="-1.3982">
        <ele>52</ele>
        <time>2021-08-28T12:14:51.000Z</time>
      </trkpt>
      <trkpt lat="47.28641" lon="-1.39835">
        <ele>52</ele>
        <time>2021-08-28T12:14:53.000Z</time>
      </trkpt>
      <trkpt lat="47.28632" lon="-1.3985">
        <ele>52</ele>
        <time>2021-08-28T12:14:55.000Z</time>
      </trkpt>
      <trkpt lat="47.28622" lon="-1.39864">
        <ele>53</ele>
        <time>2021-08-28T12:14:57.000Z</time>
      </trkpt>
      <trkpt lat="47.28613" lon="-1.39878">
        <ele>53</ele>
        <time>2021-08-28T12:14:59.000Z</time>
      </trkpt>
      <trkpt lat="47.28603" lon="-1.39893">
        <ele>53</ele>
        <time>2021-08-28T12:15:01.000Z</time>
      </trkpt>
      <trkpt lat="47.28594" lon="-1.39907">
        <ele>53</ele>
        <time>2021-08-28T12:15:03.000Z</time>
      </trkpt>
      <trkpt lat="47.28584" lon="-1.39921">
        <ele>53</ele>
        <time>2021-08-28T12:15:05.000Z</time>
      </trkpt>
      <trkpt lat="47.28574" lon="-1.39935">
        <ele>52</ele>
        <time>2021-08-28T12:15:07.000Z</time>
      </trkpt>
      <trkpt lat="47.28565" lon="-1.39949">
        <ele>53</ele>
        <time>2021-08-28T12:15:09.000Z</time>
      </trkpt>
      <trkpt lat="47.28555" lon="-1.39964">
        <ele>53</ele>
        <time>2021-08-28T12:15:11.000Z</time>
      </trkpt>
      <trkpt lat="47.28545" lon="-1.39978">
        <ele>53</ele>
        <time>2021-08-28T12:15:13.000Z</time>
      </trkpt>
      <trkpt lat="47.28536" lon="-1.39991">
        <ele>53</ele>
        <time>2021-08-28T12:15:15.000Z</time>
      </trkpt>
      <trkpt lat="47.28526" lon="-1.40004">
        <ele>53</ele>
        <time>2021-08-28T12:15:17.000Z</time>
      </trkpt>
      <trkpt lat="47.28517" lon="-1.40017">
        <ele>53</ele>
        <time>2021-08-28T12:15:19.000Z</time>
      </trkpt>
      <trkpt lat="47.28509" lon="-1.40031">
        <ele>53</ele>
        <time>2021-08-28T12:15:21.000Z</time>
      </trkpt>
      <trkpt lat="47.285" lon="-1.40045">
        <ele>53</ele>
        <time>2021-08-28T12:15:23.000Z</time>
      </trkpt>
      <trkpt lat="47.28491" lon="-1.40061">
        <ele>52</ele>
        <time>2021-08-28T12:15:25.000Z</time>
      </trkpt>
      <trkpt lat="47.28484" lon="-1.40079">
        <ele>52</ele>
        <time>2021-08-28T12:15:27.000Z</time>
      </trkpt>
      <trkpt lat="47.28477" lon="-1.40095">
        <ele>52</ele>
        <time>2021-08-28T12:15:29.000Z</time>
      </trkpt>
      <trkpt lat="47.28469" lon="-1.40111">
        <ele>52</ele>
        <time>2021-08-28T12:15:31.000Z</time>
      </trkpt>
      <trkpt lat="47.28462" lon="-1.4013">
        <ele>52</ele>
        <time>2021-08-28T12:15:33.000Z</time>
      </trkpt>
      <trkpt lat="47.28455" lon="-1.40148">
        <ele>52</ele>
        <time>2021-08-28T12:15:35.000Z</time>
      </trkpt>
      <trkpt lat="47.28448" lon="-1.40166">
        <ele>52</ele>
        <time>2021-08-28T12:15:37.000Z</time>
      </trkpt>
      <trkpt lat="47.28441" lon="-1.40183">
        <ele>52</ele>
        <time>2021-08-28T12:15:39.000Z</time>
      </trkpt>
      <trkpt lat="47.28434" lon="-1.40201">
        <ele>51</ele>
        <time>2021-08-28T12:15:41.000Z</time>
      </trkpt>
      <trkpt lat="47.28427" lon="-1.40218">
        <ele>51</ele>
        <time>2021-08-28T12:15:43.000Z</time>
      </trkpt>
      <trkpt lat="47.28421" lon="-1.40235">
        <ele>51</ele>
        <time>2021-08-28T12:15:45.000Z</time>
      </trkpt>
      <trkpt lat="47.28414" lon="-1.40252">
        <ele>52</ele>
        <time>2021-08-28T12:15:47.000Z</time>
      </trkpt>
      <trkpt lat="47.28407" lon="-1.40268">
        <ele>52</ele>
        <time>2021-08-28T12:15:49.000Z</time>
      </trkpt>
      <trkpt lat="47.28399" lon="-1.40285">
        <ele>52</ele>
        <time>2021-08-28T12:15:51.000Z</time>
      </trkpt>
      <trkpt lat="47.28392" lon="-1.40301">
        <ele>52</ele>
        <time>2021-08-28T12:15:53.000Z</time>
      </trkpt>
      <trkpt lat="47.28383" lon="-1.40317">
        <ele>52</ele>
        <time>2021-08-28T12:15:55.000Z</time>
      </trkpt>
      <trkpt lat="47.28374" lon="-1.40332">
        <ele>52</ele>
        <time>2021-08-28T12:15:57.000Z</time>
      </trkpt>
      <trkpt lat="47.28365" lon="-1.40346">
        <ele>53</ele>
        <time>2021-08-28T12:15:59.000Z</time>
      </trkpt>
      <trkpt lat="47.28355" lon="-1.40359">
        <ele>53</ele>
        <time>2021-08-28T12:16:01.000Z</time>
      </trkpt>
      <trkpt lat="47.28345" lon="-1.40372">
        <ele>52</ele>
        <time>2021-08-28T12:16:03.000Z</time>
      </trkpt>
      <trkpt lat="47.28335" lon="-1.40385">
        <ele>52</ele>
        <time>2021-08-28T12:16:05.000Z</time>
      </trkpt>
      <trkpt lat="47.28325" lon="-1.40399">
        <ele>52</ele>
        <time>2021-08-28T12:16:07.000Z</time>
      </trkpt>
      <trkpt lat="47.28315" lon="-1.40412">
        <ele>52</ele>
        <time>2021-08-28T12:16:09.000Z</time>
      </trkpt>
      <trkpt lat="47.28303" lon="-1.40424">
        <ele>52</ele>
        <time>2021-08-28T12:16:11.000Z</time>
      </trkpt>
      <trkpt lat="47.28292" lon="-1.40435">
        <ele>52</ele>
        <time>2021-08-28T12:16:13.000Z</time>
      </trkpt>
      <trkpt lat="47.28281" lon="-1.40447">
        <ele>52</ele>
        <time>2021-08-28T12:16:15.000Z</time>
      </trkpt>
      <trkpt lat="47.28268" lon="-1.40458">
        <ele>51</ele>
        <time>2021-08-28T12:16:17.000Z</time>
      </trkpt>
      <trkpt lat="47.28257" lon="-1.4047">
        <ele>52</ele>
        <time>2021-08-28T12:16:19.000Z</time>
      </trkpt>
      <trkpt lat="47.28246" lon="-1.40481">
        <ele>52</ele>
        <time>2021-08-28T12:16:21.000Z</time>
      </trkpt>
      <trkpt lat="47.28235" lon="-1.40493">
        <ele>53</ele>
        <time>2021-08-28T12:16:23.000Z</time>
      </trkpt>
      <trkpt lat="47.28223" lon="-1.40504">
        <ele>53</ele>
        <time>2021-08-28T12:16:25.000Z</time>
      </trkpt>
      <trkpt lat="47.28211" lon="-1.40515">
        <ele>53</ele>
        <time>2021-08-28T12:16:27.000Z</time>
      </trkpt>
      <trkpt lat="47.28199" lon="-1.40527">
        <ele>53</ele>
        <time>2021-08-28T12:16:29.000Z</time>
      </trkpt>
      <trkpt lat="47.28187" lon="-1.40538">
        <ele>52</ele>
        <time>2021-08-28T12:16:31.000Z</time>
      </trkpt>
      <trkpt lat="47.28176" lon="-1.40549">
        <ele>52</ele>
        <time>2021-08-28T12:16:33.000Z</time>
      </trkpt>
      <trkpt lat="47.28164" lon="-1.4056">
        <ele>51</ele>
        <time>2021-08-28T12:16:35.000Z</time>
      </trkpt>
      <trkpt lat="47.28152" lon="-1.40571">
        <ele>51</ele>
        <time>2021-08-28T12:16:37.000Z</time>
      </trkpt>
      <trkpt lat="47.28141" lon="-1.40582">
        <ele>51</ele>
        <time>2021-08-28T12:16:39.000Z</time>
      </trkpt>
      <trkpt lat="47.2813" lon="-1.40593">
        <ele>51</ele>
        <time>2021-08-28T12:16:41.000Z</time>
      </trkpt>
      <trkpt lat="47.28118" lon="-1.40604">
        <ele>51</ele>
        <time>2021-08-28T12:16:43.000Z</time>
      </trkpt>
      <trkpt lat="47.28106" lon="-1.40615">
        <ele>51</ele>
        <time>2021-08-28T12:16:45.000Z</time>
      </trkpt>
      <trkpt lat="47.28095" lon="-1.40626">
        <ele>51</ele>
        <time>2021-08-28T12:16:47.000Z</time>
      </trkpt>
      <trkpt lat="47.28083" lon="-1.40637">
        <ele>51</ele>
        <time>2021-08-28T12:16:49.000Z</time>
      </trkpt>
      <trkpt lat="47.28072" lon="-1.40647">
        <ele>51</ele>
        <time>2021-08-28T12:16:51.000Z</time>
      </trkpt>
      <trkpt lat="47.28061" lon="-1.40658">
        <ele>51</ele>
        <time>2021-08-28T12:16:53.000Z</time>
      </trkpt>
      <trkpt lat="47.2805" lon="-1.40669">
        <ele>51</ele>
        <time>2021-08-28T12:16:55.000Z</time>
      </trkpt>
      <trkpt lat="47.28038" lon="-1.40681">
        <ele>51</ele>
        <time>2021-08-28T12:16:57.000Z</time>
      </trkpt>
      <trkpt lat="47.28027" lon="-1.40693">
        <ele>51</ele>
        <time>2021-08-28T12:16:59.000Z</time>
      </trkpt>
      <trkpt lat="47.28016" lon="-1.40705">
        <ele>51</ele>
        <time>2021-08-28T12:17:01.000Z</time>
      </trkpt>
      <trkpt lat="47.28005" lon="-1.40716">
        <ele>51</ele>
        <time>2021-08-28T12:17:03.000Z</time>
      </trkpt>
      <trkpt lat="47.27994" lon="-1.40727">
        <ele>51</ele>
        <time>2021-08-28T12:17:05.000Z</time>
      </trkpt>
      <trkpt lat="47.27983" lon="-1.40738">
        <ele>51</ele>
        <time>2021-08-28T12:17:07.000Z</time>
      </trkpt>
      <trkpt lat="47.27971" lon="-1.40748">
        <ele>51</ele>
        <time>2021-08-28T12:17:09.000Z</time>
      </trkpt>
      <trkpt lat="47.27959" lon="-1.40759">
        <ele>51</ele>
        <time>2021-08-28T12:17:11.000Z</time>
      </trkpt>
      <trkpt lat="47.27948" lon="-1.40769">
        <ele>51</ele>
        <time>2021-08-28T12:17:13.000Z</time>
      </trkpt>
      <trkpt lat="47.27936" lon="-1.40779">
        <ele>51</ele>
        <time>2021-08-28T12:17:15.000Z</time>
      </trkpt>
      <trkpt lat="47.27924" lon="-1.4079">
        <ele>51</ele>
        <time>2021-08-28T12:17:17.000Z</time>
      </trkpt>
      <trkpt lat="47.27913" lon="-1.40801">
        <ele>51</ele>
        <time>2021-08-28T12:17:19.000Z</time>
      </trkpt>
      <trkpt lat="47.27902" lon="-1.40812">
        <ele>51</ele>
        <time>2021-08-28T12:17:21.000Z</time>
      </trkpt>
      <trkpt lat="47.2789" lon="-1.40824">
        <ele>51</ele>
        <time>2021-08-28T12:17:23.000Z</time>
      </trkpt>
      <trkpt lat="47.2788" lon="-1.40838">
        <ele>51</ele>
        <time>2021-08-28T12:17:25.000Z</time>
      </trkpt>
      <trkpt lat="47.27872" lon="-1.40854">
        <ele>51</ele>
        <time>2021-08-28T12:17:27.000Z</time>
      </trkpt>
      <trkpt lat="47.27865" lon="-1.40871">
        <ele>51</ele>
        <time>2021-08-28T12:17:29.000Z</time>
      </trkpt>
      <trkpt lat="47.27857" lon="-1.40887">
        <ele>51</ele>
        <time>2021-08-28T12:17:31.000Z</time>
      </trkpt>
      <trkpt lat="47.2785" lon="-1.40903">
        <ele>51</ele>
        <time>2021-08-28T12:17:33.000Z</time>
      </trkpt>
      <trkpt lat="47.27841" lon="-1.4092">
        <ele>51</ele>
        <time>2021-08-28T12:17:35.000Z</time>
      </trkpt>
      <trkpt lat="47.27834" lon="-1.40936">
        <ele>51</ele>
        <time>2021-08-28T12:17:37.000Z</time>
      </trkpt>
      <trkpt lat="47.27826" lon="-1.40952">
        <ele>52</ele>
        <time>2021-08-28T12:17:39.000Z</time>
      </trkpt>
      <trkpt lat="47.27818" lon="-1.40968">
        <ele>52</ele>
        <time>2021-08-28T12:17:41.000Z</time>
      </trkpt>
      <trkpt lat="47.27809" lon="-1.40983">
        <ele>52</ele>
        <time>2021-08-28T12:17:43.000Z</time>
      </trkpt>
      <trkpt lat="47.27801" lon="-1.40996">
        <ele>52</ele>
        <time>2021-08-28T12:17:45.000Z</time>
      </trkpt>
      <trkpt lat="47.27793" lon="-1.41008">
        <ele>52</ele>
        <time>2021-08-28T12:17:47.000Z</time>
      </trkpt>
      <trkpt lat="47.27785" lon="-1.41018">
        <ele>52</ele>
        <time>2021-08-28T12:17:49.000Z</time>
      </trkpt>
      <trkpt lat="47.27777" lon="-1.41029">
        <ele>52</ele>
        <time>2021-08-28T12:17:51.000Z</time>
      </trkpt>
      <trkpt lat="47.27772" lon="-1.41045">
        <ele>52</ele>
        <time>2021-08-28T12:17:53.000Z</time>
      </trkpt>
      <trkpt lat="47.27766" lon="-1.41063">
        <ele>52</ele>
        <time>2021-08-28T12:17:55.000Z</time>
      </trkpt>
      <trkpt lat="47.27754" lon="-1.41077">
        <ele>52</ele>
        <time>2021-08-28T12:17:57.000Z</time>
      </trkpt>
      <trkpt lat="47.27742" lon="-1.41091">
        <ele>51</ele>
        <time>2021-08-28T12:17:59.000Z</time>
      </trkpt>
      <trkpt lat="47.2773" lon="-1.41103">
        <ele>51</ele>
        <time>2021-08-28T12:18:01.000Z</time>
      </trkpt>
      <trkpt lat="47.27718" lon="-1.41116">
        <ele>51</ele>
        <time>2021-08-28T12:18:03.000Z</time>
      </trkpt>
      <trkpt lat="47.27705" lon="-1.41129">
        <ele>51</ele>
        <time>2021-08-28T12:18:05.000Z</time>
      </trkpt>
      <trkpt lat="47.27693" lon="-1.41141">
        <ele>52</ele>
        <time>2021-08-28T12:18:07.000Z</time>
      </trkpt>
      <trkpt lat="47.27682" lon="-1.41154">
        <ele>52</ele>
        <time>2021-08-28T12:18:09.000Z</time>
      </trkpt>
      <trkpt lat="47.27671" lon="-1.41168">
        <ele>52</ele>
        <time>2021-08-28T12:18:11.000Z</time>
      </trkpt>
      <trkpt lat="47.27659" lon="-1.41181">
        <ele>52</ele>
        <time>2021-08-28T12:18:13.000Z</time>
      </trkpt>
      <trkpt lat="47.27647" lon="-1.41193">
        <ele>52</ele>
        <time>2021-08-28T12:18:15.000Z</time>
      </trkpt>
      <trkpt lat="47.27635" lon="-1.41205">
        <ele>52</ele>
        <time>2021-08-28T12:18:17.000Z</time>
      </trkpt>
      <trkpt lat="47.27624" lon="-1.41217">
        <ele>52</ele>
        <time>2021-08-28T12:18:19.000Z</time>
      </trkpt>
      <trkpt lat="47.27612" lon="-1.41228">
        <ele>52</ele>
        <time>2021-08-28T12:18:21.000Z</time>
      </trkpt>
      <trkpt lat="47.27601" lon="-1.4124">
        <ele>51</ele>
        <time>2021-08-28T12:18:23.000Z</time>
      </trkpt>
      <trkpt lat="47.27589" lon="-1.41252">
        <ele>51</ele>
        <time>2021-08-28T12:18:25.000Z</time>
      </trkpt>
      <trkpt lat="47.27578" lon="-1.41265">
        <ele>51</ele>
        <time>2021-08-28T12:18:27.000Z</time>
      </trkpt>
      <trkpt lat="47.27566" lon="-1.41279">
        <ele>51</ele>
        <time>2021-08-28T12:18:29.000Z</time>
      </trkpt>
      <trkpt lat="47.27556" lon="-1.41292">
        <ele>51</ele>
        <time>2021-08-28T12:18:31.000Z</time>
      </trkpt>
      <trkpt lat="47.27545" lon="-1.41306">
        <ele>50</ele>
        <time>2021-08-28T12:18:33.000Z</time>
      </trkpt>
      <trkpt lat="47.27535" lon="-1.4132">
        <ele>51</ele>
        <time>2021-08-28T12:18:35.000Z</time>
      </trkpt>
      <trkpt lat="47.27524" lon="-1.41334">
        <ele>51</ele>
        <time>2021-08-28T12:18:37.000Z</time>
      </trkpt>
      <trkpt lat="47.27514" lon="-1.41348">
        <ele>51</ele>
        <time>2021-08-28T12:18:39.000Z</time>
      </trkpt>
      <trkpt lat="47.27504" lon="-1.41362">
        <ele>51</ele>
        <time>2021-08-28T12:18:41.000Z</time>
      </trkpt>
      <trkpt lat="47.27494" lon="-1.41378">
        <ele>51</ele>
        <time>2021-08-28T12:18:43.000Z</time>
      </trkpt>
      <trkpt lat="47.27485" lon="-1.41393">
        <ele>51</ele>
        <time>2021-08-28T12:18:45.000Z</time>
      </trkpt>
      <trkpt lat="47.27476" lon="-1.41408">
        <ele>51</ele>
        <time>2021-08-28T12:18:47.000Z</time>
      </trkpt>
      <trkpt lat="47.27468" lon="-1.41424">
        <ele>52</ele>
        <time>2021-08-28T12:18:49.000Z</time>
      </trkpt>
      <trkpt lat="47.27459" lon="-1.4144">
        <ele>51</ele>
        <time>2021-08-28T12:18:51.000Z</time>
      </trkpt>
      <trkpt lat="47.2745" lon="-1.41456">
        <ele>51</ele>
        <time>2021-08-28T12:18:53.000Z</time>
      </trkpt>
      <trkpt lat="47.27441" lon="-1.41471">
        <ele>51</ele>
        <time>2021-08-28T12:18:55.000Z</time>
      </trkpt>
      <trkpt lat="47.27432" lon="-1.41487">
        <ele>51</ele>
        <time>2021-08-28T12:18:57.000Z</time>
      </trkpt>
      <trkpt lat="47.27423" lon="-1.41502">
        <ele>51</ele>
        <time>2021-08-28T12:18:59.000Z</time>
      </trkpt>
      <trkpt lat="47.27414" lon="-1.41517">
        <ele>51</ele>
        <time>2021-08-28T12:19:01.000Z</time>
      </trkpt>
      <trkpt lat="47.27404" lon="-1.41532">
        <ele>51</ele>
        <time>2021-08-28T12:19:03.000Z</time>
      </trkpt>
      <trkpt lat="47.27395" lon="-1.41547">
        <ele>51</ele>
        <time>2021-08-28T12:19:05.000Z</time>
      </trkpt>
      <trkpt lat="47.27386" lon="-1.41562">
        <ele>51</ele>
        <time>2021-08-28T12:19:07.000Z</time>
      </trkpt>
      <trkpt lat="47.27376" lon="-1.41577">
        <ele>51</ele>
        <time>2021-08-28T12:19:09.000Z</time>
      </trkpt>
      <trkpt lat="47.27367" lon="-1.41591">
        <ele>52</ele>
        <time>2021-08-28T12:19:11.000Z</time>
      </trkpt>
      <trkpt lat="47.27357" lon="-1.41605">
        <ele>52</ele>
        <time>2021-08-28T12:19:13.000Z</time>
      </trkpt>
      <trkpt lat="47.27347" lon="-1.4162">
        <ele>51</ele>
        <time>2021-08-28T12:19:15.000Z</time>
      </trkpt>
      <trkpt lat="47.27337" lon="-1.41634">
        <ele>51</ele>
        <time>2021-08-28T12:19:17.000Z</time>
      </trkpt>
      <trkpt lat="47.27328" lon="-1.41649">
        <ele>51</ele>
        <time>2021-08-28T12:19:19.000Z</time>
      </trkpt>
      <trkpt lat="47.2732" lon="-1.41664">
        <ele>51</ele>
        <time>2021-08-28T12:19:21.000Z</time>
      </trkpt>
      <trkpt lat="47.27311" lon="-1.41679">
        <ele>50</ele>
        <time>2021-08-28T12:19:23.000Z</time>
      </trkpt>
      <trkpt lat="47.27303" lon="-1.41695">
        <ele>51</ele>
        <time>2021-08-28T12:19:25.000Z</time>
      </trkpt>
      <trkpt lat="47.27296" lon="-1.41711">
        <ele>51</ele>
        <time>2021-08-28T12:19:27.000Z</time>
      </trkpt>
      <trkpt lat="47.27287" lon="-1.41727">
        <ele>51</ele>
        <time>2021-08-28T12:19:29.000Z</time>
      </trkpt>
      <trkpt lat="47.27279" lon="-1.41743">
        <ele>50</ele>
        <time>2021-08-28T12:19:31.000Z</time>
      </trkpt>
      <trkpt lat="47.27271" lon="-1.4176">
        <ele>51</ele>
        <time>2021-08-28T12:19:33.000Z</time>
      </trkpt>
      <trkpt lat="47.27262" lon="-1.41775">
        <ele>50</ele>
        <time>2021-08-28T12:19:35.000Z</time>
      </trkpt>
      <trkpt lat="47.27253" lon="-1.41791">
        <ele>51</ele>
        <time>2021-08-28T12:19:37.000Z</time>
      </trkpt>
      <trkpt lat="47.27245" lon="-1.41806">
        <ele>50</ele>
        <time>2021-08-28T12:19:39.000Z</time>
      </trkpt>
      <trkpt lat="47.27236" lon="-1.41821">
        <ele>51</ele>
        <time>2021-08-28T12:19:41.000Z</time>
      </trkpt>
      <trkpt lat="47.27228" lon="-1.41837">
        <ele>51</ele>
        <time>2021-08-28T12:19:43.000Z</time>
      </trkpt>
      <trkpt lat="47.27219" lon="-1.41853">
        <ele>51</ele>
        <time>2021-08-28T12:19:45.000Z</time>
      </trkpt>
      <trkpt lat="47.27211" lon="-1.41869">
        <ele>51</ele>
        <time>2021-08-28T12:19:47.000Z</time>
      </trkpt>
      <trkpt lat="47.27202" lon="-1.41884">
        <ele>51</ele>
        <time>2021-08-28T12:19:49.000Z</time>
      </trkpt>
      <trkpt lat="47.27193" lon="-1.41899">
        <ele>51</ele>
        <time>2021-08-28T12:19:51.000Z</time>
      </trkpt>
      <trkpt lat="47.27179" lon="-1.41923">
        <ele>50</ele>
        <time>2021-08-28T12:19:54.000Z</time>
      </trkpt>
      <trkpt lat="47.2717" lon="-1.41938">
        <ele>50</ele>
        <time>2021-08-28T12:19:56.000Z</time>
      </trkpt>
      <trkpt lat="47.27161" lon="-1.41954">
        <ele>51</ele>
        <time>2021-08-28T12:19:58.000Z</time>
      </trkpt>
      <trkpt lat="47.27152" lon="-1.41971">
        <ele>51</ele>
        <time>2021-08-28T12:20:00.000Z</time>
      </trkpt>
      <trkpt lat="47.27143" lon="-1.41987">
        <ele>51</ele>
        <time>2021-08-28T12:20:02.000Z</time>
      </trkpt>
      <trkpt lat="47.2713" lon="-1.4201">
        <ele>51</ele>
        <time>2021-08-28T12:20:05.000Z</time>
      </trkpt>
      <trkpt lat="47.27121" lon="-1.42025">
        <ele>51</ele>
        <time>2021-08-28T12:20:07.000Z</time>
      </trkpt>
      <trkpt lat="47.27112" lon="-1.42039">
        <ele>51</ele>
        <time>2021-08-28T12:20:09.000Z</time>
      </trkpt>
      <trkpt lat="47.27103" lon="-1.42054">
        <ele>51</ele>
        <time>2021-08-28T12:20:11.000Z</time>
      </trkpt>
      <trkpt lat="47.27093" lon="-1.42069">
        <ele>51</ele>
        <time>2021-08-28T12:20:13.000Z</time>
      </trkpt>
      <trkpt lat="47.27084" lon="-1.42083">
        <ele>51</ele>
        <time>2021-08-28T12:20:15.000Z</time>
      </trkpt>
      <trkpt lat="47.27075" lon="-1.42098">
        <ele>51</ele>
        <time>2021-08-28T12:20:17.000Z</time>
      </trkpt>
      <trkpt lat="47.27066" lon="-1.42113">
        <ele>52</ele>
        <time>2021-08-28T12:20:19.000Z</time>
      </trkpt>
      <trkpt lat="47.27057" lon="-1.42129">
        <ele>51</ele>
        <time>2021-08-28T12:20:21.000Z</time>
      </trkpt>
      <trkpt lat="47.27049" lon="-1.42145">
        <ele>51</ele>
        <time>2021-08-28T12:20:23.000Z</time>
      </trkpt>
      <trkpt lat="47.27041" lon="-1.42161">
        <ele>51</ele>
        <time>2021-08-28T12:20:25.000Z</time>
      </trkpt>
      <trkpt lat="47.27032" lon="-1.42177">
        <ele>51</ele>
        <time>2021-08-28T12:20:27.000Z</time>
      </trkpt>
      <trkpt lat="47.27023" lon="-1.42192">
        <ele>51</ele>
        <time>2021-08-28T12:20:29.000Z</time>
      </trkpt>
      <trkpt lat="47.27014" lon="-1.42208">
        <ele>51</ele>
        <time>2021-08-28T12:20:31.000Z</time>
      </trkpt>
      <trkpt lat="47.27005" lon="-1.42223">
        <ele>51</ele>
        <time>2021-08-28T12:20:33.000Z</time>
      </trkpt>
      <trkpt lat="47.26996" lon="-1.42239">
        <ele>51</ele>
        <time>2021-08-28T12:20:35.000Z</time>
      </trkpt>
      <trkpt lat="47.26987" lon="-1.42254">
        <ele>51</ele>
        <time>2021-08-28T12:20:37.000Z</time>
      </trkpt>
      <trkpt lat="47.26979" lon="-1.4227">
        <ele>51</ele>
        <time>2021-08-28T12:20:39.000Z</time>
      </trkpt>
      <trkpt lat="47.2697" lon="-1.42286">
        <ele>52</ele>
        <time>2021-08-28T12:20:41.000Z</time>
      </trkpt>
      <trkpt lat="47.26962" lon="-1.42302">
        <ele>52</ele>
        <time>2021-08-28T12:20:43.000Z</time>
      </trkpt>
      <trkpt lat="47.26953" lon="-1.42319">
        <ele>52</ele>
        <time>2021-08-28T12:20:45.000Z</time>
      </trkpt>
      <trkpt lat="47.26945" lon="-1.42335">
        <ele>52</ele>
        <time>2021-08-28T12:20:47.000Z</time>
      </trkpt>
      <trkpt lat="47.26936" lon="-1.42352">
        <ele>52</ele>
        <time>2021-08-28T12:20:49.000Z</time>
      </trkpt>
      <trkpt lat="47.26928" lon="-1.4237">
        <ele>52</ele>
        <time>2021-08-28T12:20:51.000Z</time>
      </trkpt>
      <trkpt lat="47.2692" lon="-1.42387">
        <ele>52</ele>
        <time>2021-08-28T12:20:53.000Z</time>
      </trkpt>
      <trkpt lat="47.26911" lon="-1.42404">
        <ele>52</ele>
        <time>2021-08-28T12:20:55.000Z</time>
      </trkpt>
      <trkpt lat="47.26902" lon="-1.42421">
        <ele>52</ele>
        <time>2021-08-28T12:20:57.000Z</time>
      </trkpt>
      <trkpt lat="47.26893" lon="-1.42438">
        <ele>52</ele>
        <time>2021-08-28T12:20:59.000Z</time>
      </trkpt>
      <trkpt lat="47.26884" lon="-1.42454">
        <ele>52</ele>
        <time>2021-08-28T12:21:01.000Z</time>
      </trkpt>
      <trkpt lat="47.26875" lon="-1.4247">
        <ele>52</ele>
        <time>2021-08-28T12:21:03.000Z</time>
      </trkpt>
      <trkpt lat="47.26866" lon="-1.42486">
        <ele>52</ele>
        <time>2021-08-28T12:21:05.000Z</time>
      </trkpt>
      <trkpt lat="47.26857" lon="-1.42503">
        <ele>52</ele>
        <time>2021-08-28T12:21:07.000Z</time>
      </trkpt>
      <trkpt lat="47.26848" lon="-1.42519">
        <ele>52</ele>
        <time>2021-08-28T12:21:09.000Z</time>
      </trkpt>
      <trkpt lat="47.26839" lon="-1.42536">
        <ele>52</ele>
        <time>2021-08-28T12:21:11.000Z</time>
      </trkpt>
      <trkpt lat="47.26831" lon="-1.42553">
        <ele>51</ele>
        <time>2021-08-28T12:21:13.000Z</time>
      </trkpt>
      <trkpt lat="47.26823" lon="-1.4257">
        <ele>51</ele>
        <time>2021-08-28T12:21:15.000Z</time>
      </trkpt>
      <trkpt lat="47.26815" lon="-1.42587">
        <ele>51</ele>
        <time>2021-08-28T12:21:17.000Z</time>
      </trkpt>
      <trkpt lat="47.26808" lon="-1.42604">
        <ele>51</ele>
        <time>2021-08-28T12:21:19.000Z</time>
      </trkpt>
      <trkpt lat="47.26801" lon="-1.42622">
        <ele>50</ele>
        <time>2021-08-28T12:21:21.000Z</time>
      </trkpt>
      <trkpt lat="47.26794" lon="-1.4264">
        <ele>51</ele>
        <time>2021-08-28T12:21:23.000Z</time>
      </trkpt>
      <trkpt lat="47.26787" lon="-1.42658">
        <ele>51</ele>
        <time>2021-08-28T12:21:25.000Z</time>
      </trkpt>
      <trkpt lat="47.2678" lon="-1.42676">
        <ele>51</ele>
        <time>2021-08-28T12:21:27.000Z</time>
      </trkpt>
      <trkpt lat="47.26773" lon="-1.42694">
        <ele>52</ele>
        <time>2021-08-28T12:21:29.000Z</time>
      </trkpt>
      <trkpt lat="47.26766" lon="-1.42712">
        <ele>52</ele>
        <time>2021-08-28T12:21:31.000Z</time>
      </trkpt>
      <trkpt lat="47.26759" lon="-1.4273">
        <ele>53</ele>
        <time>2021-08-28T12:21:33.000Z</time>
      </trkpt>
      <trkpt lat="47.26751" lon="-1.42747">
        <ele>53</ele>
        <time>2021-08-28T12:21:35.000Z</time>
      </trkpt>
      <trkpt lat="47.26742" lon="-1.42764">
        <ele>53</ele>
        <time>2021-08-28T12:21:37.000Z</time>
      </trkpt>
      <trkpt lat="47.26734" lon="-1.42781">
        <ele>53</ele>
        <time>2021-08-28T12:21:39.000Z</time>
      </trkpt>
      <trkpt lat="47.26729" lon="-1.428">
        <ele>54</ele>
        <time>2021-08-28T12:21:41.000Z</time>
      </trkpt>
      <trkpt lat="47.26726" lon="-1.42818">
        <ele>54</ele>
        <time>2021-08-28T12:21:43.000Z</time>
      </trkpt>
      <trkpt lat="47.26722" lon="-1.42837">
        <ele>54</ele>
        <time>2021-08-28T12:21:45.000Z</time>
      </trkpt>
      <trkpt lat="47.26715" lon="-1.42855">
        <ele>55</ele>
        <time>2021-08-28T12:21:47.000Z</time>
      </trkpt>
      <trkpt lat="47.26707" lon="-1.42872">
        <ele>56</ele>
        <time>2021-08-28T12:21:49.000Z</time>
      </trkpt>
      <trkpt lat="47.26699" lon="-1.42888">
        <ele>56</ele>
        <time>2021-08-28T12:21:51.000Z</time>
      </trkpt>
      <trkpt lat="47.26689" lon="-1.42904">
        <ele>56</ele>
        <time>2021-08-28T12:21:53.000Z</time>
      </trkpt>
      <trkpt lat="47.2668" lon="-1.42922">
        <ele>55</ele>
        <time>2021-08-28T12:21:55.000Z</time>
      </trkpt>
      <trkpt lat="47.26671" lon="-1.42939">
        <ele>54</ele>
        <time>2021-08-28T12:21:57.000Z</time>
      </trkpt>
      <trkpt lat="47.26662" lon="-1.42956">
        <ele>54</ele>
        <time>2021-08-28T12:21:59.000Z</time>
      </trkpt>
      <trkpt lat="47.26653" lon="-1.42973">
        <ele>53</ele>
        <time>2021-08-28T12:22:01.000Z</time>
      </trkpt>
      <trkpt lat="47.26646" lon="-1.42991">
        <ele>53</ele>
        <time>2021-08-28T12:22:03.000Z</time>
      </trkpt>
      <trkpt lat="47.26637" lon="-1.43008">
        <ele>53</ele>
        <time>2021-08-28T12:22:05.000Z</time>
      </trkpt>
      <trkpt lat="47.26629" lon="-1.43025">
        <ele>52</ele>
        <time>2021-08-28T12:22:07.000Z</time>
      </trkpt>
      <trkpt lat="47.2662" lon="-1.43042">
        <ele>53</ele>
        <time>2021-08-28T12:22:09.000Z</time>
      </trkpt>
      <trkpt lat="47.26611" lon="-1.43058">
        <ele>53</ele>
        <time>2021-08-28T12:22:11.000Z</time>
      </trkpt>
      <trkpt lat="47.26602" lon="-1.43075">
        <ele>53</ele>
        <time>2021-08-28T12:22:13.000Z</time>
      </trkpt>
      <trkpt lat="47.26593" lon="-1.43091">
        <ele>53</ele>
        <time>2021-08-28T12:22:15.000Z</time>
      </trkpt>
      <trkpt lat="47.26584" lon="-1.43106">
        <ele>52</ele>
        <time>2021-08-28T12:22:17.000Z</time>
      </trkpt>
      <trkpt lat="47.26575" lon="-1.43122">
        <ele>52</ele>
        <time>2021-08-28T12:22:19.000Z</time>
      </trkpt>
      <trkpt lat="47.26565" lon="-1.43137">
        <ele>52</ele>
        <time>2021-08-28T12:22:21.000Z</time>
      </trkpt>
      <trkpt lat="47.26556" lon="-1.43152">
        <ele>53</ele>
        <time>2021-08-28T12:22:23.000Z</time>
      </trkpt>
      <trkpt lat="47.26547" lon="-1.43166">
        <ele>53</ele>
        <time>2021-08-28T12:22:25.000Z</time>
      </trkpt>
      <trkpt lat="47.26538" lon="-1.43181">
        <ele>52</ele>
        <time>2021-08-28T12:22:27.000Z</time>
      </trkpt>
      <trkpt lat="47.26529" lon="-1.43195">
        <ele>53</ele>
        <time>2021-08-28T12:22:29.000Z</time>
      </trkpt>
      <trkpt lat="47.26518" lon="-1.4321">
        <ele>53</ele>
        <time>2021-08-28T12:22:31.000Z</time>
      </trkpt>
      <trkpt lat="47.26509" lon="-1.43224">
        <ele>52</ele>
        <time>2021-08-28T12:22:33.000Z</time>
      </trkpt>
      <trkpt lat="47.26499" lon="-1.43237">
        <ele>53</ele>
        <time>2021-08-28T12:22:35.000Z</time>
      </trkpt>
      <trkpt lat="47.26489" lon="-1.4325">
        <ele>53</ele>
        <time>2021-08-28T12:22:37.000Z</time>
      </trkpt>
      <trkpt lat="47.26479" lon="-1.43264">
        <ele>53</ele>
        <time>2021-08-28T12:22:39.000Z</time>
      </trkpt>
      <trkpt lat="47.26469" lon="-1.43279">
        <ele>53</ele>
        <time>2021-08-28T12:22:41.000Z</time>
      </trkpt>
      <trkpt lat="47.2646" lon="-1.43292">
        <ele>54</ele>
        <time>2021-08-28T12:22:43.000Z</time>
      </trkpt>
      <trkpt lat="47.2645" lon="-1.43305">
        <ele>54</ele>
        <time>2021-08-28T12:22:45.000Z</time>
      </trkpt>
      <trkpt lat="47.26442" lon="-1.43321">
        <ele>55</ele>
        <time>2021-08-28T12:22:47.000Z</time>
      </trkpt>
      <trkpt lat="47.26432" lon="-1.43336">
        <ele>54</ele>
        <time>2021-08-28T12:22:49.000Z</time>
      </trkpt>
      <trkpt lat="47.26422" lon="-1.43349">
        <ele>54</ele>
        <time>2021-08-28T12:22:51.000Z</time>
      </trkpt>
      <trkpt lat="47.26411" lon="-1.43361">
        <ele>53</ele>
        <time>2021-08-28T12:22:53.000Z</time>
      </trkpt>
      <trkpt lat="47.264" lon="-1.43375">
        <ele>53</ele>
        <time>2021-08-28T12:22:55.000Z</time>
      </trkpt>
      <trkpt lat="47.2639" lon="-1.43387">
        <ele>53</ele>
        <time>2021-08-28T12:22:57.000Z</time>
      </trkpt>
      <trkpt lat="47.26379" lon="-1.43399">
        <ele>53</ele>
        <time>2021-08-28T12:22:59.000Z</time>
      </trkpt>
      <trkpt lat="47.26367" lon="-1.43411">
        <ele>53</ele>
        <time>2021-08-28T12:23:01.000Z</time>
      </trkpt>
      <trkpt lat="47.26356" lon="-1.43422">
        <ele>53</ele>
        <time>2021-08-28T12:23:03.000Z</time>
      </trkpt>
      <trkpt lat="47.26345" lon="-1.43434">
        <ele>53</ele>
        <time>2021-08-28T12:23:05.000Z</time>
      </trkpt>
      <trkpt lat="47.26334" lon="-1.43445">
        <ele>53</ele>
        <time>2021-08-28T12:23:07.000Z</time>
      </trkpt>
      <trkpt lat="47.26323" lon="-1.43457">
        <ele>53</ele>
        <time>2021-08-28T12:23:09.000Z</time>
      </trkpt>
      <trkpt lat="47.26312" lon="-1.43468">
        <ele>53</ele>
        <time>2021-08-28T12:23:11.000Z</time>
      </trkpt>
      <trkpt lat="47.26302" lon="-1.43479">
        <ele>53</ele>
        <time>2021-08-28T12:23:13.000Z</time>
      </trkpt>
      <trkpt lat="47.26291" lon="-1.43486">
        <ele>54</ele>
        <time>2021-08-28T12:23:15.000Z</time>
      </trkpt>
      <trkpt lat="47.26279" lon="-1.43489">
        <ele>54</ele>
        <time>2021-08-28T12:23:17.000Z</time>
      </trkpt>
      <trkpt lat="47.26268" lon="-1.43493">
        <ele>54</ele>
        <time>2021-08-28T12:23:19.000Z</time>
      </trkpt>
      <trkpt lat="47.26255" lon="-1.43502">
        <ele>53</ele>
        <time>2021-08-28T12:23:21.000Z</time>
      </trkpt>
      <trkpt lat="47.26244" lon="-1.43513">
        <ele>54</ele>
        <time>2021-08-28T12:23:23.000Z</time>
      </trkpt>
      <trkpt lat="47.26233" lon="-1.43524">
        <ele>54</ele>
        <time>2021-08-28T12:23:25.000Z</time>
      </trkpt>
      <trkpt lat="47.26223" lon="-1.43535">
        <ele>54</ele>
        <time>2021-08-28T12:23:27.000Z</time>
      </trkpt>
      <trkpt lat="47.26215" lon="-1.43549">
        <ele>54</ele>
        <time>2021-08-28T12:23:29.000Z</time>
      </trkpt>
      <trkpt lat="47.26213" lon="-1.43568">
        <ele>54</ele>
        <time>2021-08-28T12:23:31.000Z</time>
      </trkpt>
      <trkpt lat="47.26208" lon="-1.43586">
        <ele>55</ele>
        <time>2021-08-28T12:23:33.000Z</time>
      </trkpt>
      <trkpt lat="47.262" lon="-1.43602">
        <ele>55</ele>
        <time>2021-08-28T12:23:35.000Z</time>
      </trkpt>
      <trkpt lat="47.2619" lon="-1.43618">
        <ele>54</ele>
        <time>2021-08-28T12:23:37.000Z</time>
      </trkpt>
      <trkpt lat="47.26181" lon="-1.43632">
        <ele>54</ele>
        <time>2021-08-28T12:23:39.000Z</time>
      </trkpt>
      <trkpt lat="47.26173" lon="-1.43648">
        <ele>54</ele>
        <time>2021-08-28T12:23:41.000Z</time>
      </trkpt>
      <trkpt lat="47.26163" lon="-1.43663">
        <ele>54</ele>
        <time>2021-08-28T12:23:43.000Z</time>
      </trkpt>
      <trkpt lat="47.26153" lon="-1.43678">
        <ele>54</ele>
        <time>2021-08-28T12:23:45.000Z</time>
      </trkpt>
      <trkpt lat="47.26143" lon="-1.43692">
        <ele>53</ele>
        <time>2021-08-28T12:23:47.000Z</time>
      </trkpt>
      <trkpt lat="47.26134" lon="-1.43707">
        <ele>53</ele>
        <time>2021-08-28T12:23:49.000Z</time>
      </trkpt>
      <trkpt lat="47.26126" lon="-1.43721">
        <ele>53</ele>
        <time>2021-08-28T12:23:51.000Z</time>
      </trkpt>
      <trkpt lat="47.26116" lon="-1.43735">
        <ele>53</ele>
        <time>2021-08-28T12:23:53.000Z</time>
      </trkpt>
      <trkpt lat="47.26107" lon="-1.43748">
        <ele>54</ele>
        <time>2021-08-28T12:23:55.000Z</time>
      </trkpt>
      <trkpt lat="47.26096" lon="-1.43761">
        <ele>53</ele>
        <time>2021-08-28T12:23:57.000Z</time>
      </trkpt>
      <trkpt lat="47.26085" lon="-1.43775">
        <ele>53</ele>
        <time>2021-08-28T12:23:59.000Z</time>
      </trkpt>
      <trkpt lat="47.26075" lon="-1.43788">
        <ele>54</ele>
        <time>2021-08-28T12:24:01.000Z</time>
      </trkpt>
      <trkpt lat="47.26064" lon="-1.43801">
        <ele>54</ele>
        <time>2021-08-28T12:24:03.000Z</time>
      </trkpt>
      <trkpt lat="47.26055" lon="-1.43816">
        <ele>54</ele>
        <time>2021-08-28T12:24:05.000Z</time>
      </trkpt>
      <trkpt lat="47.26047" lon="-1.43832">
        <ele>54</ele>
        <time>2021-08-28T12:24:07.000Z</time>
      </trkpt>
      <trkpt lat="47.26041" lon="-1.43849">
        <ele>54</ele>
        <time>2021-08-28T12:24:09.000Z</time>
      </trkpt>
      <trkpt lat="47.26031" lon="-1.43864">
        <ele>55</ele>
        <time>2021-08-28T12:24:11.000Z</time>
      </trkpt>
      <trkpt lat="47.2602" lon="-1.43875">
        <ele>54</ele>
        <time>2021-08-28T12:24:13.000Z</time>
      </trkpt>
      <trkpt lat="47.26008" lon="-1.43886">
        <ele>54</ele>
        <time>2021-08-28T12:24:15.000Z</time>
      </trkpt>
      <trkpt lat="47.25998" lon="-1.43897">
        <ele>54</ele>
        <time>2021-08-28T12:24:17.000Z</time>
      </trkpt>
      <trkpt lat="47.25988" lon="-1.43909">
        <ele>54</ele>
        <time>2021-08-28T12:24:19.000Z</time>
      </trkpt>
      <trkpt lat="47.25976" lon="-1.43922">
        <ele>53</ele>
        <time>2021-08-28T12:24:21.000Z</time>
      </trkpt>
      <trkpt lat="47.25965" lon="-1.43935">
        <ele>53</ele>
        <time>2021-08-28T12:24:23.000Z</time>
      </trkpt>
      <trkpt lat="47.25955" lon="-1.43948">
        <ele>53</ele>
        <time>2021-08-28T12:24:25.000Z</time>
      </trkpt>
      <trkpt lat="47.25946" lon="-1.43961">
        <ele>54</ele>
        <time>2021-08-28T12:24:27.000Z</time>
      </trkpt>
      <trkpt lat="47.25936" lon="-1.43973">
        <ele>54</ele>
        <time>2021-08-28T12:24:29.000Z</time>
      </trkpt>
      <trkpt lat="47.25926" lon="-1.43986">
        <ele>54</ele>
        <time>2021-08-28T12:24:31.000Z</time>
      </trkpt>
      <trkpt lat="47.25914" lon="-1.43998">
        <ele>54</ele>
        <time>2021-08-28T12:24:33.000Z</time>
      </trkpt>
      <trkpt lat="47.25903" lon="-1.44009">
        <ele>53</ele>
        <time>2021-08-28T12:24:35.000Z</time>
      </trkpt>
      <trkpt lat="47.25892" lon="-1.44022">
        <ele>53</ele>
        <time>2021-08-28T12:24:37.000Z</time>
      </trkpt>
      <trkpt lat="47.25882" lon="-1.44036">
        <ele>52</ele>
        <time>2021-08-28T12:24:39.000Z</time>
      </trkpt>
      <trkpt lat="47.25873" lon="-1.44052">
        <ele>52</ele>
        <time>2021-08-28T12:24:41.000Z</time>
      </trkpt>
      <trkpt lat="47.25867" lon="-1.4407">
        <ele>52</ele>
        <time>2021-08-28T12:24:43.000Z</time>
      </trkpt>
      <trkpt lat="47.25859" lon="-1.44087">
        <ele>53</ele>
        <time>2021-08-28T12:24:45.000Z</time>
      </trkpt>
      <trkpt lat="47.2585" lon="-1.441">
        <ele>53</ele>
        <time>2021-08-28T12:24:47.000Z</time>
      </trkpt>
      <trkpt lat="47.25839" lon="-1.44113">
        <ele>53</ele>
        <time>2021-08-28T12:24:49.000Z</time>
      </trkpt>
      <trkpt lat="47.25829" lon="-1.44125">
        <ele>53</ele>
        <time>2021-08-28T12:24:51.000Z</time>
      </trkpt>
      <trkpt lat="47.25818" lon="-1.44138">
        <ele>52</ele>
        <time>2021-08-28T12:24:53.000Z</time>
      </trkpt>
      <trkpt lat="47.25806" lon="-1.44149">
        <ele>52</ele>
        <time>2021-08-28T12:24:55.000Z</time>
      </trkpt>
      <trkpt lat="47.25795" lon="-1.44162">
        <ele>52</ele>
        <time>2021-08-28T12:24:57.000Z</time>
      </trkpt>
      <trkpt lat="47.25784" lon="-1.44174">
        <ele>52</ele>
        <time>2021-08-28T12:24:59.000Z</time>
      </trkpt>
      <trkpt lat="47.25773" lon="-1.44186">
        <ele>52</ele>
        <time>2021-08-28T12:25:01.000Z</time>
      </trkpt>
      <trkpt lat="47.25762" lon="-1.44199">
        <ele>52</ele>
        <time>2021-08-28T12:25:03.000Z</time>
      </trkpt>
      <trkpt lat="47.25752" lon="-1.44212">
        <ele>53</ele>
        <time>2021-08-28T12:25:05.000Z</time>
      </trkpt>
      <trkpt lat="47.25741" lon="-1.44226">
        <ele>53</ele>
        <time>2021-08-28T12:25:07.000Z</time>
      </trkpt>
      <trkpt lat="47.25731" lon="-1.4424">
        <ele>53</ele>
        <time>2021-08-28T12:25:09.000Z</time>
      </trkpt>
      <trkpt lat="47.25721" lon="-1.44252">
        <ele>53</ele>
        <time>2021-08-28T12:25:11.000Z</time>
      </trkpt>
      <trkpt lat="47.25711" lon="-1.44265">
        <ele>54</ele>
        <time>2021-08-28T12:25:13.000Z</time>
      </trkpt>
      <trkpt lat="47.25699" lon="-1.44277">
        <ele>53</ele>
        <time>2021-08-28T12:25:15.000Z</time>
      </trkpt>
      <trkpt lat="47.25689" lon="-1.4429">
        <ele>54</ele>
        <time>2021-08-28T12:25:17.000Z</time>
      </trkpt>
      <trkpt lat="47.25678" lon="-1.44302">
        <ele>54</ele>
        <time>2021-08-28T12:25:19.000Z</time>
      </trkpt>
      <trkpt lat="47.25669" lon="-1.44315">
        <ele>54</ele>
        <time>2021-08-28T12:25:21.000Z</time>
      </trkpt>
      <trkpt lat="47.25659" lon="-1.44329">
        <ele>53</ele>
        <time>2021-08-28T12:25:23.000Z</time>
      </trkpt>
      <trkpt lat="47.25649" lon="-1.44341">
        <ele>53</ele>
        <time>2021-08-28T12:25:25.000Z</time>
      </trkpt>
      <trkpt lat="47.25637" lon="-1.44353">
        <ele>53</ele>
        <time>2021-08-28T12:25:27.000Z</time>
      </trkpt>
      <trkpt lat="47.25626" lon="-1.44365">
        <ele>54</ele>
        <time>2021-08-28T12:25:29.000Z</time>
      </trkpt>
      <trkpt lat="47.25615" lon="-1.44377">
        <ele>54</ele>
        <time>2021-08-28T12:25:31.000Z</time>
      </trkpt>
      <trkpt lat="47.25604" lon="-1.44389">
        <ele>53</ele>
        <time>2021-08-28T12:25:33.000Z</time>
      </trkpt>
      <trkpt lat="47.25594" lon="-1.44403">
        <ele>53</ele>
        <time>2021-08-28T12:25:35.000Z</time>
      </trkpt>
      <trkpt lat="47.25583" lon="-1.44416">
        <ele>53</ele>
        <time>2021-08-28T12:25:37.000Z</time>
      </trkpt>
      <trkpt lat="47.25573" lon="-1.4443">
        <ele>53</ele>
        <time>2021-08-28T12:25:39.000Z</time>
      </trkpt>
      <trkpt lat="47.25562" lon="-1.44443">
        <ele>53</ele>
        <time>2021-08-28T12:25:41.000Z</time>
      </trkpt>
      <trkpt lat="47.25551" lon="-1.44458">
        <ele>52</ele>
        <time>2021-08-28T12:25:43.000Z</time>
      </trkpt>
      <trkpt lat="47.25541" lon="-1.44472">
        <ele>53</ele>
        <time>2021-08-28T12:25:45.000Z</time>
      </trkpt>
      <trkpt lat="47.2553" lon="-1.44487">
        <ele>52</ele>
        <time>2021-08-28T12:25:47.000Z</time>
      </trkpt>
      <trkpt lat="47.25521" lon="-1.44502">
        <ele>52</ele>
        <time>2021-08-28T12:25:49.000Z</time>
      </trkpt>
      <trkpt lat="47.2551" lon="-1.44518">
        <ele>53</ele>
        <time>2021-08-28T12:25:51.000Z</time>
      </trkpt>
      <trkpt lat="47.255" lon="-1.44532">
        <ele>52</ele>
        <time>2021-08-28T12:25:53.000Z</time>
      </trkpt>
      <trkpt lat="47.2549" lon="-1.44547">
        <ele>52</ele>
        <time>2021-08-28T12:25:55.000Z</time>
      </trkpt>
      <trkpt lat="47.2548" lon="-1.44561">
        <ele>52</ele>
        <time>2021-08-28T12:25:57.000Z</time>
      </trkpt>
      <trkpt lat="47.2547" lon="-1.44576">
        <ele>53</ele>
        <time>2021-08-28T12:25:59.000Z</time>
      </trkpt>
      <trkpt lat="47.25461" lon="-1.4459">
        <ele>52</ele>
        <time>2021-08-28T12:26:01.000Z</time>
      </trkpt>
      <trkpt lat="47.25451" lon="-1.44605">
        <ele>53</ele>
        <time>2021-08-28T12:26:03.000Z</time>
      </trkpt>
      <trkpt lat="47.25442" lon="-1.44619">
        <ele>53</ele>
        <time>2021-08-28T12:26:05.000Z</time>
      </trkpt>
      <trkpt lat="47.25432" lon="-1.44633">
        <ele>53</ele>
        <time>2021-08-28T12:26:07.000Z</time>
      </trkpt>
      <trkpt lat="47.25423" lon="-1.44647">
        <ele>53</ele>
        <time>2021-08-28T12:26:09.000Z</time>
      </trkpt>
      <trkpt lat="47.25412" lon="-1.4466">
        <ele>53</ele>
        <time>2021-08-28T12:26:11.000Z</time>
      </trkpt>
      <trkpt lat="47.25402" lon="-1.44673">
        <ele>53</ele>
        <time>2021-08-28T12:26:13.000Z</time>
      </trkpt>
      <trkpt lat="47.25391" lon="-1.44687">
        <ele>53</ele>
        <time>2021-08-28T12:26:15.000Z</time>
      </trkpt>
      <trkpt lat="47.25381" lon="-1.447">
        <ele>53</ele>
        <time>2021-08-28T12:26:17.000Z</time>
      </trkpt>
      <trkpt lat="47.2537" lon="-1.44713">
        <ele>54</ele>
        <time>2021-08-28T12:26:19.000Z</time>
      </trkpt>
      <trkpt lat="47.2536" lon="-1.44725">
        <ele>54</ele>
        <time>2021-08-28T12:26:21.000Z</time>
      </trkpt>
      <trkpt lat="47.25349" lon="-1.44736">
        <ele>54</ele>
        <time>2021-08-28T12:26:23.000Z</time>
      </trkpt>
      <trkpt lat="47.25338" lon="-1.44746">
        <ele>54</ele>
        <time>2021-08-28T12:26:25.000Z</time>
      </trkpt>
      <trkpt lat="47.25326" lon="-1.44757">
        <ele>54</ele>
        <time>2021-08-28T12:26:27.000Z</time>
      </trkpt>
      <trkpt lat="47.25315" lon="-1.44768">
        <ele>53</ele>
        <time>2021-08-28T12:26:29.000Z</time>
      </trkpt>
      <trkpt lat="47.25304" lon="-1.44779">
        <ele>53</ele>
        <time>2021-08-28T12:26:31.000Z</time>
      </trkpt>
      <trkpt lat="47.25294" lon="-1.44791">
        <ele>53</ele>
        <time>2021-08-28T12:26:33.000Z</time>
      </trkpt>
      <trkpt lat="47.25285" lon="-1.44803">
        <ele>54</ele>
        <time>2021-08-28T12:26:35.000Z</time>
      </trkpt>
      <trkpt lat="47.25275" lon="-1.44815">
        <ele>55</ele>
        <time>2021-08-28T12:26:37.000Z</time>
      </trkpt>
      <trkpt lat="47.25264" lon="-1.44829">
        <ele>56</ele>
        <time>2021-08-28T12:26:39.000Z</time>
      </trkpt>
      <trkpt lat="47.25253" lon="-1.44841">
        <ele>57</ele>
        <time>2021-08-28T12:26:41.000Z</time>
      </trkpt>
      <trkpt lat="47.25242" lon="-1.44853">
        <ele>56</ele>
        <time>2021-08-28T12:26:43.000Z</time>
      </trkpt>
      <trkpt lat="47.25231" lon="-1.44864">
        <ele>56</ele>
        <time>2021-08-28T12:26:45.000Z</time>
      </trkpt>
      <trkpt lat="47.25219" lon="-1.44874">
        <ele>56</ele>
        <time>2021-08-28T12:26:47.000Z</time>
      </trkpt>
      <trkpt lat="47.25207" lon="-1.44885">
        <ele>56</ele>
        <time>2021-08-28T12:26:49.000Z</time>
      </trkpt>
      <trkpt lat="47.25195" lon="-1.44895">
        <ele>56</ele>
        <time>2021-08-28T12:26:51.000Z</time>
      </trkpt>
      <trkpt lat="47.25183" lon="-1.44905">
        <ele>56</ele>
        <time>2021-08-28T12:26:53.000Z</time>
      </trkpt>
      <trkpt lat="47.25171" lon="-1.44914">
        <ele>56</ele>
        <time>2021-08-28T12:26:55.000Z</time>
      </trkpt>
      <trkpt lat="47.2516" lon="-1.44925">
        <ele>56</ele>
        <time>2021-08-28T12:26:57.000Z</time>
      </trkpt>
      <trkpt lat="47.25149" lon="-1.44935">
        <ele>56</ele>
        <time>2021-08-28T12:26:59.000Z</time>
      </trkpt>
      <trkpt lat="47.25137" lon="-1.44946">
        <ele>56</ele>
        <time>2021-08-28T12:27:01.000Z</time>
      </trkpt>
      <trkpt lat="47.25126" lon="-1.44956">
        <ele>56</ele>
        <time>2021-08-28T12:27:03.000Z</time>
      </trkpt>
      <trkpt lat="47.25115" lon="-1.44968">
        <ele>55</ele>
        <time>2021-08-28T12:27:05.000Z</time>
      </trkpt>
      <trkpt lat="47.25103" lon="-1.44979">
        <ele>55</ele>
        <time>2021-08-28T12:27:07.000Z</time>
      </trkpt>
      <trkpt lat="47.25091" lon="-1.44989">
        <ele>55</ele>
        <time>2021-08-28T12:27:09.000Z</time>
      </trkpt>
      <trkpt lat="47.25079" lon="-1.44999">
        <ele>54</ele>
        <time>2021-08-28T12:27:11.000Z</time>
      </trkpt>
      <trkpt lat="47.25068" lon="-1.45009">
        <ele>54</ele>
        <time>2021-08-28T12:27:13.000Z</time>
      </trkpt>
      <trkpt lat="47.25056" lon="-1.45018">
        <ele>54</ele>
        <time>2021-08-28T12:27:15.000Z</time>
      </trkpt>
      <trkpt lat="47.25044" lon="-1.45027">
        <ele>53</ele>
        <time>2021-08-28T12:27:17.000Z</time>
      </trkpt>
      <trkpt lat="47.25031" lon="-1.45037">
        <ele>52</ele>
        <time>2021-08-28T12:27:19.000Z</time>
      </trkpt>
      <trkpt lat="47.25019" lon="-1.45047">
        <ele>52</ele>
        <time>2021-08-28T12:27:21.000Z</time>
      </trkpt>
      <trkpt lat="47.25007" lon="-1.45056">
        <ele>52</ele>
        <time>2021-08-28T12:27:23.000Z</time>
      </trkpt>
      <trkpt lat="47.24996" lon="-1.45068">
        <ele>52</ele>
        <time>2021-08-28T12:27:25.000Z</time>
      </trkpt>
      <trkpt lat="47.24986" lon="-1.45081">
        <ele>52</ele>
        <time>2021-08-28T12:27:27.000Z</time>
      </trkpt>
      <trkpt lat="47.24975" lon="-1.45093">
        <ele>53</ele>
        <time>2021-08-28T12:27:29.000Z</time>
      </trkpt>
      <trkpt lat="47.24965" lon="-1.45105">
        <ele>53</ele>
        <time>2021-08-28T12:27:31.000Z</time>
      </trkpt>
      <trkpt lat="47.24953" lon="-1.45116">
        <ele>54</ele>
        <time>2021-08-28T12:27:33.000Z</time>
      </trkpt>
      <trkpt lat="47.24942" lon="-1.45128">
        <ele>55</ele>
        <time>2021-08-28T12:27:35.000Z</time>
      </trkpt>
      <trkpt lat="47.24932" lon="-1.45139">
        <ele>54</ele>
        <time>2021-08-28T12:27:37.000Z</time>
      </trkpt>
      <trkpt lat="47.24921" lon="-1.4515">
        <ele>54</ele>
        <time>2021-08-28T12:27:39.000Z</time>
      </trkpt>
      <trkpt lat="47.24909" lon="-1.45162">
        <ele>54</ele>
        <time>2021-08-28T12:27:41.000Z</time>
      </trkpt>
      <trkpt lat="47.24899" lon="-1.45173">
        <ele>54</ele>
        <time>2021-08-28T12:27:43.000Z</time>
      </trkpt>
      <trkpt lat="47.24889" lon="-1.45187">
        <ele>53</ele>
        <time>2021-08-28T12:27:45.000Z</time>
      </trkpt>
      <trkpt lat="47.24881" lon="-1.45202">
        <ele>54</ele>
        <time>2021-08-28T12:27:47.000Z</time>
      </trkpt>
      <trkpt lat="47.24872" lon="-1.45215">
        <ele>54</ele>
        <time>2021-08-28T12:27:49.000Z</time>
      </trkpt>
      <trkpt lat="47.24862" lon="-1.45228">
        <ele>54</ele>
        <time>2021-08-28T12:27:51.000Z</time>
      </trkpt>
      <trkpt lat="47.24852" lon="-1.45241">
        <ele>53</ele>
        <time>2021-08-28T12:27:53.000Z</time>
      </trkpt>
      <trkpt lat="47.24843" lon="-1.45256">
        <ele>54</ele>
        <time>2021-08-28T12:27:55.000Z</time>
      </trkpt>
      <trkpt lat="47.24834" lon="-1.45271">
        <ele>54</ele>
        <time>2021-08-28T12:27:57.000Z</time>
      </trkpt>
      <trkpt lat="47.24826" lon="-1.45287">
        <ele>54</ele>
        <time>2021-08-28T12:27:59.000Z</time>
      </trkpt>
      <trkpt lat="47.24818" lon="-1.45301">
        <ele>53</ele>
        <time>2021-08-28T12:28:01.000Z</time>
      </trkpt>
      <trkpt lat="47.2481" lon="-1.45318">
        <ele>53</ele>
        <time>2021-08-28T12:28:03.000Z</time>
      </trkpt>
      <trkpt lat="47.24802" lon="-1.45333">
        <ele>53</ele>
        <time>2021-08-28T12:28:05.000Z</time>
      </trkpt>
      <trkpt lat="47.24795" lon="-1.45349">
        <ele>54</ele>
        <time>2021-08-28T12:28:07.000Z</time>
      </trkpt>
      <trkpt lat="47.24788" lon="-1.45364">
        <ele>54</ele>
        <time>2021-08-28T12:28:09.000Z</time>
      </trkpt>
      <trkpt lat="47.24781" lon="-1.4538">
        <ele>53</ele>
        <time>2021-08-28T12:28:11.000Z</time>
      </trkpt>
      <trkpt lat="47.24775" lon="-1.45397">
        <ele>53</ele>
        <time>2021-08-28T12:28:13.000Z</time>
      </trkpt>
      <trkpt lat="47.24768" lon="-1.45414">
        <ele>53</ele>
        <time>2021-08-28T12:28:15.000Z</time>
      </trkpt>
      <trkpt lat="47.24762" lon="-1.4543">
        <ele>53</ele>
        <time>2021-08-28T12:28:17.000Z</time>
      </trkpt>
      <trkpt lat="47.24756" lon="-1.45447">
        <ele>53</ele>
        <time>2021-08-28T12:28:19.000Z</time>
      </trkpt>
      <trkpt lat="47.2475" lon="-1.45464">
        <ele>53</ele>
        <time>2021-08-28T12:28:21.000Z</time>
      </trkpt>
      <trkpt lat="47.24744" lon="-1.45481">
        <ele>53</ele>
        <time>2021-08-28T12:28:23.000Z</time>
      </trkpt>
      <trkpt lat="47.24737" lon="-1.45496">
        <ele>53</ele>
        <time>2021-08-28T12:28:25.000Z</time>
      </trkpt>
      <trkpt lat="47.2473" lon="-1.45513">
        <ele>53</ele>
        <time>2021-08-28T12:28:27.000Z</time>
      </trkpt>
      <trkpt lat="47.24724" lon="-1.4553">
        <ele>53</ele>
        <time>2021-08-28T12:28:29.000Z</time>
      </trkpt>
      <trkpt lat="47.24718" lon="-1.45547">
        <ele>53</ele>
        <time>2021-08-28T12:28:31.000Z</time>
      </trkpt>
      <trkpt lat="47.24711" lon="-1.45564">
        <ele>53</ele>
        <time>2021-08-28T12:28:33.000Z</time>
      </trkpt>
      <trkpt lat="47.24705" lon="-1.45582">
        <ele>53</ele>
        <time>2021-08-28T12:28:35.000Z</time>
      </trkpt>
      <trkpt lat="47.247" lon="-1.456">
        <ele>53</ele>
        <time>2021-08-28T12:28:37.000Z</time>
      </trkpt>
      <trkpt lat="47.24694" lon="-1.45618">
        <ele>53</ele>
        <time>2021-08-28T12:28:39.000Z</time>
      </trkpt>
      <trkpt lat="47.24688" lon="-1.45636">
        <ele>53</ele>
        <time>2021-08-28T12:28:41.000Z</time>
      </trkpt>
      <trkpt lat="47.24683" lon="-1.45653">
        <ele>53</ele>
        <time>2021-08-28T12:28:43.000Z</time>
      </trkpt>
      <trkpt lat="47.24677" lon="-1.4567">
        <ele>53</ele>
        <time>2021-08-28T12:28:45.000Z</time>
      </trkpt>
      <trkpt lat="47.24673" lon="-1.45687">
        <ele>53</ele>
        <time>2021-08-28T12:28:47.000Z</time>
      </trkpt>
      <trkpt lat="47.24668" lon="-1.45706">
        <ele>53</ele>
        <time>2021-08-28T12:28:49.000Z</time>
      </trkpt>
      <trkpt lat="47.24663" lon="-1.45725">
        <ele>53</ele>
        <time>2021-08-28T12:28:51.000Z</time>
      </trkpt>
      <trkpt lat="47.24659" lon="-1.45744">
        <ele>53</ele>
        <time>2021-08-28T12:28:53.000Z</time>
      </trkpt>
      <trkpt lat="47.24655" lon="-1.45762">
        <ele>52</ele>
        <time>2021-08-28T12:28:55.000Z</time>
      </trkpt>
      <trkpt lat="47.2465" lon="-1.4578">
        <ele>52</ele>
        <time>2021-08-28T12:28:57.000Z</time>
      </trkpt>
      <trkpt lat="47.24646" lon="-1.45797">
        <ele>53</ele>
        <time>2021-08-28T12:28:59.000Z</time>
      </trkpt>
      <trkpt lat="47.24641" lon="-1.45816">
        <ele>53</ele>
        <time>2021-08-28T12:29:01.000Z</time>
      </trkpt>
      <trkpt lat="47.24635" lon="-1.45833">
        <ele>53</ele>
        <time>2021-08-28T12:29:03.000Z</time>
      </trkpt>
      <trkpt lat="47.2463" lon="-1.45852">
        <ele>54</ele>
        <time>2021-08-28T12:29:05.000Z</time>
      </trkpt>
      <trkpt lat="47.24625" lon="-1.45871">
        <ele>54</ele>
        <time>2021-08-28T12:29:07.000Z</time>
      </trkpt>
      <trkpt lat="47.24619" lon="-1.45891">
        <ele>54</ele>
        <time>2021-08-28T12:29:09.000Z</time>
      </trkpt>
      <trkpt lat="47.24614" lon="-1.4591">
        <ele>55</ele>
        <time>2021-08-28T12:29:11.000Z</time>
      </trkpt>
      <trkpt lat="47.24608" lon="-1.45928">
        <ele>55</ele>
        <time>2021-08-28T12:29:13.000Z</time>
      </trkpt>
      <trkpt lat="47.24602" lon="-1.45945">
        <ele>55</ele>
        <time>2021-08-28T12:29:15.000Z</time>
      </trkpt>
      <trkpt lat="47.24594" lon="-1.45961">
        <ele>56</ele>
        <time>2021-08-28T12:29:17.000Z</time>
      </trkpt>
      <trkpt lat="47.24586" lon="-1.45977">
        <ele>56</ele>
        <time>2021-08-28T12:29:19.000Z</time>
      </trkpt>
      <trkpt lat="47.24578" lon="-1.45994">
        <ele>56</ele>
        <time>2021-08-28T12:29:21.000Z</time>
      </trkpt>
      <trkpt lat="47.2457" lon="-1.4601">
        <ele>57</ele>
        <time>2021-08-28T12:29:23.000Z</time>
      </trkpt>
      <trkpt lat="47.24562" lon="-1.46027">
        <ele>56</ele>
        <time>2021-08-28T12:29:25.000Z</time>
      </trkpt>
      <trkpt lat="47.24554" lon="-1.46042">
        <ele>56</ele>
        <time>2021-08-28T12:29:27.000Z</time>
      </trkpt>
      <trkpt lat="47.24546" lon="-1.46058">
        <ele>56</ele>
        <time>2021-08-28T12:29:29.000Z</time>
      </trkpt>
      <trkpt lat="47.24538" lon="-1.46073">
        <ele>56</ele>
        <time>2021-08-28T12:29:31.000Z</time>
      </trkpt>
      <trkpt lat="47.2453" lon="-1.46088">
        <ele>55</ele>
        <time>2021-08-28T12:29:33.000Z</time>
      </trkpt>
      <trkpt lat="47.24521" lon="-1.46103">
        <ele>55</ele>
        <time>2021-08-28T12:29:35.000Z</time>
      </trkpt>
      <trkpt lat="47.24511" lon="-1.46116">
        <ele>54</ele>
        <time>2021-08-28T12:29:37.000Z</time>
      </trkpt>
      <trkpt lat="47.245" lon="-1.46129">
        <ele>54</ele>
        <time>2021-08-28T12:29:39.000Z</time>
      </trkpt>
      <trkpt lat="47.24489" lon="-1.46141">
        <ele>54</ele>
        <time>2021-08-28T12:29:41.000Z</time>
      </trkpt>
      <trkpt lat="47.24479" lon="-1.46155">
        <ele>53</ele>
        <time>2021-08-28T12:29:43.000Z</time>
      </trkpt>
      <trkpt lat="47.24469" lon="-1.46168">
        <ele>53</ele>
        <time>2021-08-28T12:29:45.000Z</time>
      </trkpt>
      <trkpt lat="47.24458" lon="-1.4618">
        <ele>53</ele>
        <time>2021-08-28T12:29:47.000Z</time>
      </trkpt>
      <trkpt lat="47.24448" lon="-1.46193">
        <ele>53</ele>
        <time>2021-08-28T12:29:49.000Z</time>
      </trkpt>
      <trkpt lat="47.24438" lon="-1.46206">
        <ele>53</ele>
        <time>2021-08-28T12:29:51.000Z</time>
      </trkpt>
      <trkpt lat="47.24427" lon="-1.4622">
        <ele>53</ele>
        <time>2021-08-28T12:29:53.000Z</time>
      </trkpt>
      <trkpt lat="47.24417" lon="-1.46234">
        <ele>53</ele>
        <time>2021-08-28T12:29:55.000Z</time>
      </trkpt>
      <trkpt lat="47.24406" lon="-1.46248">
        <ele>53</ele>
        <time>2021-08-28T12:29:57.000Z</time>
      </trkpt>
      <trkpt lat="47.24397" lon="-1.46261">
        <ele>53</ele>
        <time>2021-08-28T12:29:59.000Z</time>
      </trkpt>
      <trkpt lat="47.24387" lon="-1.46275">
        <ele>53</ele>
        <time>2021-08-28T12:30:01.000Z</time>
      </trkpt>
      <trkpt lat="47.24378" lon="-1.46289">
        <ele>54</ele>
        <time>2021-08-28T12:30:03.000Z</time>
      </trkpt>
      <trkpt lat="47.24368" lon="-1.46303">
        <ele>54</ele>
        <time>2021-08-28T12:30:05.000Z</time>
      </trkpt>
      <trkpt lat="47.24358" lon="-1.46318">
        <ele>53</ele>
        <time>2021-08-28T12:30:07.000Z</time>
      </trkpt>
      <trkpt lat="47.24349" lon="-1.46332">
        <ele>53</ele>
        <time>2021-08-28T12:30:09.000Z</time>
      </trkpt>
      <trkpt lat="47.24341" lon="-1.46345">
        <ele>53</ele>
        <time>2021-08-28T12:30:11.000Z</time>
      </trkpt>
      <trkpt lat="47.24332" lon="-1.4636">
        <ele>53</ele>
        <time>2021-08-28T12:30:13.000Z</time>
      </trkpt>
      <trkpt lat="47.24322" lon="-1.46376">
        <ele>53</ele>
        <time>2021-08-28T12:30:15.000Z</time>
      </trkpt>
      <trkpt lat="47.24314" lon="-1.46391">
        <ele>53</ele>
        <time>2021-08-28T12:30:17.000Z</time>
      </trkpt>
      <trkpt lat="47.24305" lon="-1.46407">
        <ele>53</ele>
        <time>2021-08-28T12:30:19.000Z</time>
      </trkpt>
      <trkpt lat="47.24296" lon="-1.46422">
        <ele>53</ele>
        <time>2021-08-28T12:30:21.000Z</time>
      </trkpt>
      <trkpt lat="47.24288" lon="-1.46436">
        <ele>54</ele>
        <time>2021-08-28T12:30:23.000Z</time>
      </trkpt>
      <trkpt lat="47.24279" lon="-1.46449">
        <ele>54</ele>
        <time>2021-08-28T12:30:25.000Z</time>
      </trkpt>
      <trkpt lat="47.24269" lon="-1.46463">
        <ele>55</ele>
        <time>2021-08-28T12:30:27.000Z</time>
      </trkpt>
      <trkpt lat="47.24259" lon="-1.46475">
        <ele>55</ele>
        <time>2021-08-28T12:30:29.000Z</time>
      </trkpt>
      <trkpt lat="47.2425" lon="-1.46487">
        <ele>54</ele>
        <time>2021-08-28T12:30:31.000Z</time>
      </trkpt>
      <trkpt lat="47.2424" lon="-1.465">
        <ele>53</ele>
        <time>2021-08-28T12:30:33.000Z</time>
      </trkpt>
      <trkpt lat="47.2423" lon="-1.46513">
        <ele>53</ele>
        <time>2021-08-28T12:30:35.000Z</time>
      </trkpt>
      <trkpt lat="47.24221" lon="-1.46526">
        <ele>53</ele>
        <time>2021-08-28T12:30:37.000Z</time>
      </trkpt>
      <trkpt lat="47.24211" lon="-1.46538">
        <ele>53</ele>
        <time>2021-08-28T12:30:39.000Z</time>
      </trkpt>
      <trkpt lat="47.242" lon="-1.46551">
        <ele>53</ele>
        <time>2021-08-28T12:30:41.000Z</time>
      </trkpt>
      <trkpt lat="47.2419" lon="-1.46564">
        <ele>53</ele>
        <time>2021-08-28T12:30:43.000Z</time>
      </trkpt>
      <trkpt lat="47.2418" lon="-1.46576">
        <ele>53</ele>
        <time>2021-08-28T12:30:45.000Z</time>
      </trkpt>
      <trkpt lat="47.2417" lon="-1.46589">
        <ele>53</ele>
        <time>2021-08-28T12:30:47.000Z</time>
      </trkpt>
      <trkpt lat="47.2416" lon="-1.46602">
        <ele>53</ele>
        <time>2021-08-28T12:30:49.000Z</time>
      </trkpt>
      <trkpt lat="47.2415" lon="-1.46614">
        <ele>53</ele>
        <time>2021-08-28T12:30:51.000Z</time>
      </trkpt>
      <trkpt lat="47.24141" lon="-1.46627">
        <ele>53</ele>
        <time>2021-08-28T12:30:53.000Z</time>
      </trkpt>
      <trkpt lat="47.2413" lon="-1.4664">
        <ele>53</ele>
        <time>2021-08-28T12:30:55.000Z</time>
      </trkpt>
      <trkpt lat="47.24121" lon="-1.46654">
        <ele>53</ele>
        <time>2021-08-28T12:30:57.000Z</time>
      </trkpt>
      <trkpt lat="47.24111" lon="-1.46667">
        <ele>53</ele>
        <time>2021-08-28T12:30:59.000Z</time>
      </trkpt>
      <trkpt lat="47.24102" lon="-1.46681">
        <ele>53</ele>
        <time>2021-08-28T12:31:01.000Z</time>
      </trkpt>
      <trkpt lat="47.24092" lon="-1.46694">
        <ele>53</ele>
        <time>2021-08-28T12:31:03.000Z</time>
      </trkpt>
      <trkpt lat="47.24085" lon="-1.46707">
        <ele>54</ele>
        <time>2021-08-28T12:31:05.000Z</time>
      </trkpt>
      <trkpt lat="47.2408" lon="-1.46723">
        <ele>54</ele>
        <time>2021-08-28T12:31:07.000Z</time>
      </trkpt>
      <trkpt lat="47.24072" lon="-1.46738">
        <ele>55</ele>
        <time>2021-08-28T12:31:09.000Z</time>
      </trkpt>
      <trkpt lat="47.24058" lon="-1.46747">
        <ele>55</ele>
        <time>2021-08-28T12:31:11.000Z</time>
      </trkpt>
      <trkpt lat="47.24046" lon="-1.46758">
        <ele>55</ele>
        <time>2021-08-28T12:31:13.000Z</time>
      </trkpt>
      <trkpt lat="47.24035" lon="-1.4677">
        <ele>54</ele>
        <time>2021-08-28T12:31:15.000Z</time>
      </trkpt>
      <trkpt lat="47.24024" lon="-1.46782">
        <ele>54</ele>
        <time>2021-08-28T12:31:17.000Z</time>
      </trkpt>
      <trkpt lat="47.24013" lon="-1.46794">
        <ele>55</ele>
        <time>2021-08-28T12:31:19.000Z</time>
      </trkpt>
      <trkpt lat="47.24002" lon="-1.46807">
        <ele>55</ele>
        <time>2021-08-28T12:31:21.000Z</time>
      </trkpt>
      <trkpt lat="47.2399" lon="-1.46818">
        <ele>55</ele>
        <time>2021-08-28T12:31:23.000Z</time>
      </trkpt>
      <trkpt lat="47.23979" lon="-1.4683">
        <ele>55</ele>
        <time>2021-08-28T12:31:25.000Z</time>
      </trkpt>
      <trkpt lat="47.23968" lon="-1.46842">
        <ele>55</ele>
        <time>2021-08-28T12:31:27.000Z</time>
      </trkpt>
      <trkpt lat="47.23955" lon="-1.46852">
        <ele>55</ele>
        <time>2021-08-28T12:31:29.000Z</time>
      </trkpt>
      <trkpt lat="47.23943" lon="-1.46862">
        <ele>55</ele>
        <time>2021-08-28T12:31:31.000Z</time>
      </trkpt>
      <trkpt lat="47.23931" lon="-1.46872">
        <ele>55</ele>
        <time>2021-08-28T12:31:33.000Z</time>
      </trkpt>
      <trkpt lat="47.2392" lon="-1.46884">
        <ele>55</ele>
        <time>2021-08-28T12:31:35.000Z</time>
      </trkpt>
      <trkpt lat="47.2391" lon="-1.46898">
        <ele>55</ele>
        <time>2021-08-28T12:31:37.000Z</time>
      </trkpt>
      <trkpt lat="47.239" lon="-1.46911">
        <ele>55</ele>
        <time>2021-08-28T12:31:39.000Z</time>
      </trkpt>
      <trkpt lat="47.23891" lon="-1.46924">
        <ele>55</ele>
        <time>2021-08-28T12:31:41.000Z</time>
      </trkpt>
      <trkpt lat="47.23881" lon="-1.46937">
        <ele>55</ele>
        <time>2021-08-28T12:31:43.000Z</time>
      </trkpt>
      <trkpt lat="47.2387" lon="-1.46952">
        <ele>56</ele>
        <time>2021-08-28T12:31:45.000Z</time>
      </trkpt>
      <trkpt lat="47.2386" lon="-1.46965">
        <ele>56</ele>
        <time>2021-08-28T12:31:47.000Z</time>
      </trkpt>
      <trkpt lat="47.2385" lon="-1.46978">
        <ele>55</ele>
        <time>2021-08-28T12:31:49.000Z</time>
      </trkpt>
      <trkpt lat="47.2384" lon="-1.46992">
        <ele>55</ele>
        <time>2021-08-28T12:31:51.000Z</time>
      </trkpt>
      <trkpt lat="47.23831" lon="-1.47006">
        <ele>55</ele>
        <time>2021-08-28T12:31:53.000Z</time>
      </trkpt>
      <trkpt lat="47.23821" lon="-1.4702">
        <ele>54</ele>
        <time>2021-08-28T12:31:55.000Z</time>
      </trkpt>
      <trkpt lat="47.23811" lon="-1.47035">
        <ele>55</ele>
        <time>2021-08-28T12:31:57.000Z</time>
      </trkpt>
      <trkpt lat="47.23802" lon="-1.47049">
        <ele>54</ele>
        <time>2021-08-28T12:31:59.000Z</time>
      </trkpt>
      <trkpt lat="47.23792" lon="-1.47063">
        <ele>55</ele>
        <time>2021-08-28T12:32:01.000Z</time>
      </trkpt>
      <trkpt lat="47.23781" lon="-1.47077">
        <ele>55</ele>
        <time>2021-08-28T12:32:03.000Z</time>
      </trkpt>
      <trkpt lat="47.23772" lon="-1.47091">
        <ele>54</ele>
        <time>2021-08-28T12:32:05.000Z</time>
      </trkpt>
      <trkpt lat="47.23762" lon="-1.47104">
        <ele>54</ele>
        <time>2021-08-28T12:32:07.000Z</time>
      </trkpt>
      <trkpt lat="47.23752" lon="-1.47119">
        <ele>54</ele>
        <time>2021-08-28T12:32:09.000Z</time>
      </trkpt>
      <trkpt lat="47.23741" lon="-1.47131">
        <ele>53</ele>
        <time>2021-08-28T12:32:11.000Z</time>
      </trkpt>
      <trkpt lat="47.2373" lon="-1.47144">
        <ele>54</ele>
        <time>2021-08-28T12:32:13.000Z</time>
      </trkpt>
      <trkpt lat="47.23719" lon="-1.47157">
        <ele>54</ele>
        <time>2021-08-28T12:32:15.000Z</time>
      </trkpt>
      <trkpt lat="47.23709" lon="-1.47171">
        <ele>54</ele>
        <time>2021-08-28T12:32:17.000Z</time>
      </trkpt>
      <trkpt lat="47.23699" lon="-1.47185">
        <ele>54</ele>
        <time>2021-08-28T12:32:19.000Z</time>
      </trkpt>
      <trkpt lat="47.23689" lon="-1.472">
        <ele>54</ele>
        <time>2021-08-28T12:32:21.000Z</time>
      </trkpt>
      <trkpt lat="47.23682" lon="-1.47216">
        <ele>54</ele>
        <time>2021-08-28T12:32:23.000Z</time>
      </trkpt>
      <trkpt lat="47.23671" lon="-1.47229">
        <ele>54</ele>
        <time>2021-08-28T12:32:25.000Z</time>
      </trkpt>
      <trkpt lat="47.2366" lon="-1.47241">
        <ele>53</ele>
        <time>2021-08-28T12:32:27.000Z</time>
      </trkpt>
      <trkpt lat="47.23648" lon="-1.47253">
        <ele>53</ele>
        <time>2021-08-28T12:32:29.000Z</time>
      </trkpt>
      <trkpt lat="47.23638" lon="-1.47265">
        <ele>53</ele>
        <time>2021-08-28T12:32:31.000Z</time>
      </trkpt>
      <trkpt lat="47.23627" lon="-1.47278">
        <ele>54</ele>
        <time>2021-08-28T12:32:33.000Z</time>
      </trkpt>
      <trkpt lat="47.23616" lon="-1.4729">
        <ele>54</ele>
        <time>2021-08-28T12:32:35.000Z</time>
      </trkpt>
      <trkpt lat="47.23605" lon="-1.47301">
        <ele>54</ele>
        <time>2021-08-28T12:32:37.000Z</time>
      </trkpt>
      <trkpt lat="47.23594" lon="-1.47313">
        <ele>54</ele>
        <time>2021-08-28T12:32:39.000Z</time>
      </trkpt>
      <trkpt lat="47.23583" lon="-1.47323">
        <ele>55</ele>
        <time>2021-08-28T12:32:41.000Z</time>
      </trkpt>
      <trkpt lat="47.23566" lon="-1.47338">
        <ele>55</ele>
        <time>2021-08-28T12:32:44.000Z</time>
      </trkpt>
      <trkpt lat="47.23554" lon="-1.47348">
        <ele>55</ele>
        <time>2021-08-28T12:32:46.000Z</time>
      </trkpt>
      <trkpt lat="47.23541" lon="-1.47358">
        <ele>54</ele>
        <time>2021-08-28T12:32:48.000Z</time>
      </trkpt>
      <trkpt lat="47.2353" lon="-1.47368">
        <ele>54</ele>
        <time>2021-08-28T12:32:50.000Z</time>
      </trkpt>
      <trkpt lat="47.23518" lon="-1.47377">
        <ele>54</ele>
        <time>2021-08-28T12:32:52.000Z</time>
      </trkpt>
      <trkpt lat="47.23506" lon="-1.47387">
        <ele>54</ele>
        <time>2021-08-28T12:32:54.000Z</time>
      </trkpt>
      <trkpt lat="47.23495" lon="-1.47396">
        <ele>55</ele>
        <time>2021-08-28T12:32:56.000Z</time>
      </trkpt>
      <trkpt lat="47.23483" lon="-1.47404">
        <ele>55</ele>
        <time>2021-08-28T12:32:58.000Z</time>
      </trkpt>
      <trkpt lat="47.23464" lon="-1.47412">
        <ele>55</ele>
        <time>2021-08-28T12:33:01.000Z</time>
      </trkpt>
      <trkpt lat="47.23451" lon="-1.47416">
        <ele>54</ele>
        <time>2021-08-28T12:33:03.000Z</time>
      </trkpt>
      <trkpt lat="47.23438" lon="-1.47421">
        <ele>54</ele>
        <time>2021-08-28T12:33:05.000Z</time>
      </trkpt>
      <trkpt lat="47.23425" lon="-1.47427">
        <ele>54</ele>
        <time>2021-08-28T12:33:07.000Z</time>
      </trkpt>
      <trkpt lat="47.23413" lon="-1.47436">
        <ele>54</ele>
        <time>2021-08-28T12:33:09.000Z</time>
      </trkpt>
      <trkpt lat="47.23402" lon="-1.47445">
        <ele>55</ele>
        <time>2021-08-28T12:33:11.000Z</time>
      </trkpt>
      <trkpt lat="47.23389" lon="-1.47454">
        <ele>55</ele>
        <time>2021-08-28T12:33:13.000Z</time>
      </trkpt>
      <trkpt lat="47.23377" lon="-1.47461">
        <ele>55</ele>
        <time>2021-08-28T12:33:15.000Z</time>
      </trkpt>
      <trkpt lat="47.23364" lon="-1.47467">
        <ele>55</ele>
        <time>2021-08-28T12:33:17.000Z</time>
      </trkpt>
      <trkpt lat="47.2335" lon="-1.47472">
        <ele>55</ele>
        <time>2021-08-28T12:33:19.000Z</time>
      </trkpt>
      <trkpt lat="47.23339" lon="-1.47478">
        <ele>55</ele>
        <time>2021-08-28T12:33:21.000Z</time>
      </trkpt>
      <trkpt lat="47.23328" lon="-1.47487">
        <ele>54</ele>
        <time>2021-08-28T12:33:23.000Z</time>
      </trkpt>
      <trkpt lat="47.23316" lon="-1.47497">
        <ele>55</ele>
        <time>2021-08-28T12:33:25.000Z</time>
      </trkpt>
      <trkpt lat="47.23303" lon="-1.47506">
        <ele>55</ele>
        <time>2021-08-28T12:33:27.000Z</time>
      </trkpt>
      <trkpt lat="47.2329" lon="-1.47512">
        <ele>56</ele>
        <time>2021-08-28T12:33:29.000Z</time>
      </trkpt>
      <trkpt lat="47.23278" lon="-1.47519">
        <ele>55</ele>
        <time>2021-08-28T12:33:31.000Z</time>
      </trkpt>
      <trkpt lat="47.23266" lon="-1.47527">
        <ele>55</ele>
        <time>2021-08-28T12:33:33.000Z</time>
      </trkpt>
      <trkpt lat="47.23257" lon="-1.4754">
        <ele>55</ele>
        <time>2021-08-28T12:33:35.000Z</time>
      </trkpt>
      <trkpt lat="47.23249" lon="-1.47556">
        <ele>55</ele>
        <time>2021-08-28T12:33:37.000Z</time>
      </trkpt>
      <trkpt lat="47.23241" lon="-1.47571">
        <ele>55</ele>
        <time>2021-08-28T12:33:39.000Z</time>
      </trkpt>
      <trkpt lat="47.23233" lon="-1.47585">
        <ele>55</ele>
        <time>2021-08-28T12:33:41.000Z</time>
      </trkpt>
      <trkpt lat="47.23225" lon="-1.476">
        <ele>55</ele>
        <time>2021-08-28T12:33:43.000Z</time>
      </trkpt>
      <trkpt lat="47.23217" lon="-1.47617">
        <ele>55</ele>
        <time>2021-08-28T12:33:45.000Z</time>
      </trkpt>
      <trkpt lat="47.2321" lon="-1.47634">
        <ele>55</ele>
        <time>2021-08-28T12:33:47.000Z</time>
      </trkpt>
      <trkpt lat="47.23204" lon="-1.4765">
        <ele>55</ele>
        <time>2021-08-28T12:33:49.000Z</time>
      </trkpt>
      <trkpt lat="47.23197" lon="-1.47667">
        <ele>54</ele>
        <time>2021-08-28T12:33:51.000Z</time>
      </trkpt>
      <trkpt lat="47.2319" lon="-1.47684">
        <ele>54</ele>
        <time>2021-08-28T12:33:53.000Z</time>
      </trkpt>
      <trkpt lat="47.23183" lon="-1.477">
        <ele>54</ele>
        <time>2021-08-28T12:33:55.000Z</time>
      </trkpt>
      <trkpt lat="47.23176" lon="-1.47717">
        <ele>54</ele>
        <time>2021-08-28T12:33:57.000Z</time>
      </trkpt>
      <trkpt lat="47.23169" lon="-1.47734">
        <ele>54</ele>
        <time>2021-08-28T12:33:59.000Z</time>
      </trkpt>
      <trkpt lat="47.23161" lon="-1.4775">
        <ele>54</ele>
        <time>2021-08-28T12:34:01.000Z</time>
      </trkpt>
      <trkpt lat="47.23154" lon="-1.47767">
        <ele>54</ele>
        <time>2021-08-28T12:34:03.000Z</time>
      </trkpt>
      <trkpt lat="47.23147" lon="-1.47784">
        <ele>53</ele>
        <time>2021-08-28T12:34:05.000Z</time>
      </trkpt>
      <trkpt lat="47.23142" lon="-1.47799">
        <ele>54</ele>
        <time>2021-08-28T12:34:07.000Z</time>
      </trkpt>
      <trkpt lat="47.23136" lon="-1.47816">
        <ele>54</ele>
        <time>2021-08-28T12:34:09.000Z</time>
      </trkpt>
      <trkpt lat="47.23131" lon="-1.47833">
        <ele>54</ele>
        <time>2021-08-28T12:34:11.000Z</time>
      </trkpt>
      <trkpt lat="47.23123" lon="-1.4785">
        <ele>54</ele>
        <time>2021-08-28T12:34:13.000Z</time>
      </trkpt>
      <trkpt lat="47.23114" lon="-1.47865">
        <ele>55</ele>
        <time>2021-08-28T12:34:15.000Z</time>
      </trkpt>
      <trkpt lat="47.23104" lon="-1.4788">
        <ele>54</ele>
        <time>2021-08-28T12:34:17.000Z</time>
      </trkpt>
      <trkpt lat="47.23095" lon="-1.47893">
        <ele>54</ele>
        <time>2021-08-28T12:34:19.000Z</time>
      </trkpt>
      <trkpt lat="47.23085" lon="-1.47905">
        <ele>53</ele>
        <time>2021-08-28T12:34:21.000Z</time>
      </trkpt>
      <trkpt lat="47.23075" lon="-1.47918">
        <ele>53</ele>
        <time>2021-08-28T12:34:23.000Z</time>
      </trkpt>
      <trkpt lat="47.23066" lon="-1.47931">
        <ele>53</ele>
        <time>2021-08-28T12:34:25.000Z</time>
      </trkpt>
      <trkpt lat="47.23055" lon="-1.47944">
        <ele>54</ele>
        <time>2021-08-28T12:34:27.000Z</time>
      </trkpt>
      <trkpt lat="47.23045" lon="-1.47958">
        <ele>54</ele>
        <time>2021-08-28T12:34:29.000Z</time>
      </trkpt>
      <trkpt lat="47.23035" lon="-1.47971">
        <ele>54</ele>
        <time>2021-08-28T12:34:31.000Z</time>
      </trkpt>
      <trkpt lat="47.23026" lon="-1.47985">
        <ele>54</ele>
        <time>2021-08-28T12:34:33.000Z</time>
      </trkpt>
      <trkpt lat="47.23016" lon="-1.47999">
        <ele>53</ele>
        <time>2021-08-28T12:34:35.000Z</time>
      </trkpt>
      <trkpt lat="47.23007" lon="-1.48013">
        <ele>53</ele>
        <time>2021-08-28T12:34:37.000Z</time>
      </trkpt>
      <trkpt lat="47.22998" lon="-1.48027">
        <ele>52</ele>
        <time>2021-08-28T12:34:39.000Z</time>
      </trkpt>
      <trkpt lat="47.22989" lon="-1.48042">
        <ele>52</ele>
        <time>2021-08-28T12:34:41.000Z</time>
      </trkpt>
      <trkpt lat="47.2298" lon="-1.48056">
        <ele>52</ele>
        <time>2021-08-28T12:34:43.000Z</time>
      </trkpt>
      <trkpt lat="47.22972" lon="-1.48071">
        <ele>52</ele>
        <time>2021-08-28T12:34:45.000Z</time>
      </trkpt>
      <trkpt lat="47.22964" lon="-1.48083">
        <ele>52</ele>
        <time>2021-08-28T12:34:47.000Z</time>
      </trkpt>
      <trkpt lat="47.22957" lon="-1.48094">
        <ele>52</ele>
        <time>2021-08-28T12:34:49.000Z</time>
      </trkpt>
      <trkpt lat="47.22949" lon="-1.48107">
        <ele>53</ele>
        <time>2021-08-28T12:34:51.000Z</time>
      </trkpt>
      <trkpt lat="47.22938" lon="-1.48111">
        <ele>52</ele>
        <time>2021-08-28T12:34:53.000Z</time>
      </trkpt>
      <trkpt lat="47.22926" lon="-1.48111">
        <ele>52</ele>
        <time>2021-08-28T12:34:55.000Z</time>
      </trkpt>
      <trkpt lat="47.22913" lon="-1.48117">
        <ele>53</ele>
        <time>2021-08-28T12:34:57.000Z</time>
      </trkpt>
      <trkpt lat="47.22902" lon="-1.48128">
        <ele>52</ele>
        <time>2021-08-28T12:34:59.000Z</time>
      </trkpt>
      <trkpt lat="47.22891" lon="-1.48141">
        <ele>52</ele>
        <time>2021-08-28T12:35:01.000Z</time>
      </trkpt>
      <trkpt lat="47.22882" lon="-1.48154">
        <ele>52</ele>
        <time>2021-08-28T12:35:03.000Z</time>
      </trkpt>
      <trkpt lat="47.22873" lon="-1.48169">
        <ele>52</ele>
        <time>2021-08-28T12:35:05.000Z</time>
      </trkpt>
      <trkpt lat="47.22863" lon="-1.48184">
        <ele>52</ele>
        <time>2021-08-28T12:35:07.000Z</time>
      </trkpt>
      <trkpt lat="47.22854" lon="-1.48199">
        <ele>52</ele>
        <time>2021-08-28T12:35:09.000Z</time>
      </trkpt>
      <trkpt lat="47.22844" lon="-1.48214">
        <ele>52</ele>
        <time>2021-08-28T12:35:11.000Z</time>
      </trkpt>
      <trkpt lat="47.22835" lon="-1.48229">
        <ele>53</ele>
        <time>2021-08-28T12:35:13.000Z</time>
      </trkpt>
      <trkpt lat="47.22825" lon="-1.48243">
        <ele>53</ele>
        <time>2021-08-28T12:35:15.000Z</time>
      </trkpt>
      <trkpt lat="47.22816" lon="-1.48257">
        <ele>54</ele>
        <time>2021-08-28T12:35:17.000Z</time>
      </trkpt>
      <trkpt lat="47.22807" lon="-1.48271">
        <ele>54</ele>
        <time>2021-08-28T12:35:19.000Z</time>
      </trkpt>
      <trkpt lat="47.22797" lon="-1.48286">
        <ele>54</ele>
        <time>2021-08-28T12:35:21.000Z</time>
      </trkpt>
      <trkpt lat="47.22788" lon="-1.48302">
        <ele>53</ele>
        <time>2021-08-28T12:35:23.000Z</time>
      </trkpt>
      <trkpt lat="47.22779" lon="-1.48317">
        <ele>53</ele>
        <time>2021-08-28T12:35:25.000Z</time>
      </trkpt>
      <trkpt lat="47.22769" lon="-1.48331">
        <ele>53</ele>
        <time>2021-08-28T12:35:27.000Z</time>
      </trkpt>
      <trkpt lat="47.22759" lon="-1.48344">
        <ele>54</ele>
        <time>2021-08-28T12:35:29.000Z</time>
      </trkpt>
      <trkpt lat="47.22748" lon="-1.48358">
        <ele>54</ele>
        <time>2021-08-28T12:35:31.000Z</time>
      </trkpt>
      <trkpt lat="47.22738" lon="-1.48373">
        <ele>54</ele>
        <time>2021-08-28T12:35:33.000Z</time>
      </trkpt>
      <trkpt lat="47.22727" lon="-1.48388">
        <ele>54</ele>
        <time>2021-08-28T12:35:35.000Z</time>
      </trkpt>
      <trkpt lat="47.22717" lon="-1.48403">
        <ele>54</ele>
        <time>2021-08-28T12:35:37.000Z</time>
      </trkpt>
      <trkpt lat="47.22707" lon="-1.48419">
        <ele>53</ele>
        <time>2021-08-28T12:35:39.000Z</time>
      </trkpt>
      <trkpt lat="47.227" lon="-1.48438">
        <ele>54</ele>
        <time>2021-08-28T12:35:41.000Z</time>
      </trkpt>
      <trkpt lat="47.22694" lon="-1.48456">
        <ele>54</ele>
        <time>2021-08-28T12:35:43.000Z</time>
      </trkpt>
      <trkpt lat="47.22687" lon="-1.48474">
        <ele>54</ele>
        <time>2021-08-28T12:35:45.000Z</time>
      </trkpt>
      <trkpt lat="47.22679" lon="-1.48491">
        <ele>54</ele>
        <time>2021-08-28T12:35:47.000Z</time>
      </trkpt>
      <trkpt lat="47.22671" lon="-1.48509">
        <ele>54</ele>
        <time>2021-08-28T12:35:49.000Z</time>
      </trkpt>
      <trkpt lat="47.22666" lon="-1.48528">
        <ele>54</ele>
        <time>2021-08-28T12:35:51.000Z</time>
      </trkpt>
      <trkpt lat="47.2266" lon="-1.48549">
        <ele>54</ele>
        <time>2021-08-28T12:35:53.000Z</time>
      </trkpt>
      <trkpt lat="47.22654" lon="-1.48568">
        <ele>54</ele>
        <time>2021-08-28T12:35:55.000Z</time>
      </trkpt>
      <trkpt lat="47.22646" lon="-1.48586">
        <ele>54</ele>
        <time>2021-08-28T12:35:57.000Z</time>
      </trkpt>
      <trkpt lat="47.22639" lon="-1.48603">
        <ele>54</ele>
        <time>2021-08-28T12:35:59.000Z</time>
      </trkpt>
      <trkpt lat="47.22631" lon="-1.48621">
        <ele>54</ele>
        <time>2021-08-28T12:36:01.000Z</time>
      </trkpt>
      <trkpt lat="47.22625" lon="-1.4864">
        <ele>54</ele>
        <time>2021-08-28T12:36:03.000Z</time>
      </trkpt>
      <trkpt lat="47.22619" lon="-1.48657">
        <ele>54</ele>
        <time>2021-08-28T12:36:05.000Z</time>
      </trkpt>
      <trkpt lat="47.22613" lon="-1.48674">
        <ele>53</ele>
        <time>2021-08-28T12:36:07.000Z</time>
      </trkpt>
      <trkpt lat="47.22607" lon="-1.48693">
        <ele>53</ele>
        <time>2021-08-28T12:36:09.000Z</time>
      </trkpt>
      <trkpt lat="47.22602" lon="-1.48712">
        <ele>53</ele>
        <time>2021-08-28T12:36:11.000Z</time>
      </trkpt>
      <trkpt lat="47.22596" lon="-1.48731">
        <ele>53</ele>
        <time>2021-08-28T12:36:13.000Z</time>
      </trkpt>
      <trkpt lat="47.22592" lon="-1.48751">
        <ele>54</ele>
        <time>2021-08-28T12:36:15.000Z</time>
      </trkpt>
      <trkpt lat="47.22586" lon="-1.4877">
        <ele>53</ele>
        <time>2021-08-28T12:36:17.000Z</time>
      </trkpt>
      <trkpt lat="47.22581" lon="-1.48787">
        <ele>53</ele>
        <time>2021-08-28T12:36:19.000Z</time>
      </trkpt>
      <trkpt lat="47.22575" lon="-1.48807">
        <ele>53</ele>
        <time>2021-08-28T12:36:21.000Z</time>
      </trkpt>
      <trkpt lat="47.22568" lon="-1.48825">
        <ele>52</ele>
        <time>2021-08-28T12:36:23.000Z</time>
      </trkpt>
      <trkpt lat="47.22562" lon="-1.48842">
        <ele>52</ele>
        <time>2021-08-28T12:36:25.000Z</time>
      </trkpt>
      <trkpt lat="47.22557" lon="-1.48859">
        <ele>52</ele>
        <time>2021-08-28T12:36:27.000Z</time>
      </trkpt>
      <trkpt lat="47.22551" lon="-1.48878">
        <ele>52</ele>
        <time>2021-08-28T12:36:29.000Z</time>
      </trkpt>
      <trkpt lat="47.22547" lon="-1.48895">
        <ele>51</ele>
        <time>2021-08-28T12:36:31.000Z</time>
      </trkpt>
      <trkpt lat="47.22541" lon="-1.48913">
        <ele>51</ele>
        <time>2021-08-28T12:36:33.000Z</time>
      </trkpt>
      <trkpt lat="47.22535" lon="-1.48932">
        <ele>51</ele>
        <time>2021-08-28T12:36:35.000Z</time>
      </trkpt>
      <trkpt lat="47.22529" lon="-1.48951">
        <ele>51</ele>
        <time>2021-08-28T12:36:37.000Z</time>
      </trkpt>
      <trkpt lat="47.22523" lon="-1.48969">
        <ele>51</ele>
        <time>2021-08-28T12:36:39.000Z</time>
      </trkpt>
      <trkpt lat="47.22516" lon="-1.48986">
        <ele>52</ele>
        <time>2021-08-28T12:36:41.000Z</time>
      </trkpt>
      <trkpt lat="47.2251" lon="-1.49004">
        <ele>53</ele>
        <time>2021-08-28T12:36:43.000Z</time>
      </trkpt>
      <trkpt lat="47.22505" lon="-1.49022">
        <ele>53</ele>
        <time>2021-08-28T12:36:45.000Z</time>
      </trkpt>
      <trkpt lat="47.225" lon="-1.49039">
        <ele>54</ele>
        <time>2021-08-28T12:36:47.000Z</time>
      </trkpt>
      <trkpt lat="47.22495" lon="-1.49057">
        <ele>54</ele>
        <time>2021-08-28T12:36:49.000Z</time>
      </trkpt>
      <trkpt lat="47.22489" lon="-1.49075">
        <ele>54</ele>
        <time>2021-08-28T12:36:51.000Z</time>
      </trkpt>
      <trkpt lat="47.22483" lon="-1.49094">
        <ele>54</ele>
        <time>2021-08-28T12:36:53.000Z</time>
      </trkpt>
      <trkpt lat="47.22478" lon="-1.49113">
        <ele>54</ele>
        <time>2021-08-28T12:36:55.000Z</time>
      </trkpt>
      <trkpt lat="47.22472" lon="-1.49133">
        <ele>54</ele>
        <time>2021-08-28T12:36:57.000Z</time>
      </trkpt>
      <trkpt lat="47.22467" lon="-1.49153">
        <ele>54</ele>
        <time>2021-08-28T12:36:59.000Z</time>
      </trkpt>
      <trkpt lat="47.22461" lon="-1.4917">
        <ele>54</ele>
        <time>2021-08-28T12:37:01.000Z</time>
      </trkpt>
      <trkpt lat="47.22453" lon="-1.49188">
        <ele>54</ele>
        <time>2021-08-28T12:37:03.000Z</time>
      </trkpt>
      <trkpt lat="47.22446" lon="-1.49206">
        <ele>55</ele>
        <time>2021-08-28T12:37:05.000Z</time>
      </trkpt>
      <trkpt lat="47.22439" lon="-1.49224">
        <ele>55</ele>
        <time>2021-08-28T12:37:07.000Z</time>
      </trkpt>
      <trkpt lat="47.22433" lon="-1.49242">
        <ele>55</ele>
        <time>2021-08-28T12:37:09.000Z</time>
      </trkpt>
      <trkpt lat="47.22426" lon="-1.49259">
        <ele>56</ele>
        <time>2021-08-28T12:37:11.000Z</time>
      </trkpt>
      <trkpt lat="47.22419" lon="-1.49276">
        <ele>56</ele>
        <time>2021-08-28T12:37:13.000Z</time>
      </trkpt>
      <trkpt lat="47.22412" lon="-1.49293">
        <ele>55</ele>
        <time>2021-08-28T12:37:15.000Z</time>
      </trkpt>
      <trkpt lat="47.22406" lon="-1.4931">
        <ele>55</ele>
        <time>2021-08-28T12:37:17.000Z</time>
      </trkpt>
      <trkpt lat="47.224" lon="-1.49328">
        <ele>56</ele>
        <time>2021-08-28T12:37:19.000Z</time>
      </trkpt>
      <trkpt lat="47.22394" lon="-1.49345">
        <ele>56</ele>
        <time>2021-08-28T12:37:21.000Z</time>
      </trkpt>
      <trkpt lat="47.22387" lon="-1.49361">
        <ele>56</ele>
        <time>2021-08-28T12:37:23.000Z</time>
      </trkpt>
      <trkpt lat="47.2238" lon="-1.49377">
        <ele>56</ele>
        <time>2021-08-28T12:37:25.000Z</time>
      </trkpt>
      <trkpt lat="47.22373" lon="-1.49393">
        <ele>56</ele>
        <time>2021-08-28T12:37:27.000Z</time>
      </trkpt>
      <trkpt lat="47.22365" lon="-1.4941">
        <ele>56</ele>
        <time>2021-08-28T12:37:29.000Z</time>
      </trkpt>
      <trkpt lat="47.22358" lon="-1.49426">
        <ele>56</ele>
        <time>2021-08-28T12:37:31.000Z</time>
      </trkpt>
      <trkpt lat="47.22351" lon="-1.49444">
        <ele>56</ele>
        <time>2021-08-28T12:37:33.000Z</time>
      </trkpt>
      <trkpt lat="47.22344" lon="-1.49461">
        <ele>56</ele>
        <time>2021-08-28T12:37:35.000Z</time>
      </trkpt>
      <trkpt lat="47.22339" lon="-1.4948">
        <ele>57</ele>
        <time>2021-08-28T12:37:37.000Z</time>
      </trkpt>
      <trkpt lat="47.22333" lon="-1.49499">
        <ele>57</ele>
        <time>2021-08-28T12:37:39.000Z</time>
      </trkpt>
      <trkpt lat="47.22328" lon="-1.49518">
        <ele>57</ele>
        <time>2021-08-28T12:37:41.000Z</time>
      </trkpt>
      <trkpt lat="47.22322" lon="-1.49537">
        <ele>57</ele>
        <time>2021-08-28T12:37:43.000Z</time>
      </trkpt>
      <trkpt lat="47.22315" lon="-1.49555">
        <ele>57</ele>
        <time>2021-08-28T12:37:45.000Z</time>
      </trkpt>
      <trkpt lat="47.22309" lon="-1.49573">
        <ele>57</ele>
        <time>2021-08-28T12:37:47.000Z</time>
      </trkpt>
      <trkpt lat="47.22302" lon="-1.49591">
        <ele>57</ele>
        <time>2021-08-28T12:37:49.000Z</time>
      </trkpt>
      <trkpt lat="47.22296" lon="-1.49608">
        <ele>56</ele>
        <time>2021-08-28T12:37:51.000Z</time>
      </trkpt>
      <trkpt lat="47.22291" lon="-1.49625">
        <ele>57</ele>
        <time>2021-08-28T12:37:53.000Z</time>
      </trkpt>
      <trkpt lat="47.22287" lon="-1.49643">
        <ele>57</ele>
        <time>2021-08-28T12:37:55.000Z</time>
      </trkpt>
      <trkpt lat="47.22282" lon="-1.49661">
        <ele>57</ele>
        <time>2021-08-28T12:37:57.000Z</time>
      </trkpt>
      <trkpt lat="47.22277" lon="-1.49679">
        <ele>57</ele>
        <time>2021-08-28T12:37:59.000Z</time>
      </trkpt>
      <trkpt lat="47.22272" lon="-1.49697">
        <ele>57</ele>
        <time>2021-08-28T12:38:01.000Z</time>
      </trkpt>
      <trkpt lat="47.22265" lon="-1.49714">
        <ele>57</ele>
        <time>2021-08-28T12:38:03.000Z</time>
      </trkpt>
      <trkpt lat="47.2226" lon="-1.49732">
        <ele>57</ele>
        <time>2021-08-28T12:38:05.000Z</time>
      </trkpt>
      <trkpt lat="47.22255" lon="-1.4975">
        <ele>56</ele>
        <time>2021-08-28T12:38:07.000Z</time>
      </trkpt>
      <trkpt lat="47.22252" lon="-1.49768">
        <ele>56</ele>
        <time>2021-08-28T12:38:09.000Z</time>
      </trkpt>
      <trkpt lat="47.22249" lon="-1.49787">
        <ele>56</ele>
        <time>2021-08-28T12:38:11.000Z</time>
      </trkpt>
      <trkpt lat="47.22247" lon="-1.49807">
        <ele>56</ele>
        <time>2021-08-28T12:38:13.000Z</time>
      </trkpt>
      <trkpt lat="47.22244" lon="-1.49826">
        <ele>57</ele>
        <time>2021-08-28T12:38:15.000Z</time>
      </trkpt>
      <trkpt lat="47.2224" lon="-1.49845">
        <ele>57</ele>
        <time>2021-08-28T12:38:17.000Z</time>
      </trkpt>
      <trkpt lat="47.22236" lon="-1.49863">
        <ele>57</ele>
        <time>2021-08-28T12:38:19.000Z</time>
      </trkpt>
      <trkpt lat="47.22231" lon="-1.49882">
        <ele>57</ele>
        <time>2021-08-28T12:38:21.000Z</time>
      </trkpt>
      <trkpt lat="47.22226" lon="-1.49902">
        <ele>57</ele>
        <time>2021-08-28T12:38:23.000Z</time>
      </trkpt>
      <trkpt lat="47.22221" lon="-1.49921">
        <ele>57</ele>
        <time>2021-08-28T12:38:25.000Z</time>
      </trkpt>
      <trkpt lat="47.22215" lon="-1.4994">
        <ele>57</ele>
        <time>2021-08-28T12:38:27.000Z</time>
      </trkpt>
      <trkpt lat="47.22211" lon="-1.49959">
        <ele>57</ele>
        <time>2021-08-28T12:38:29.000Z</time>
      </trkpt>
      <trkpt lat="47.22206" lon="-1.49977">
        <ele>57</ele>
        <time>2021-08-28T12:38:31.000Z</time>
      </trkpt>
      <trkpt lat="47.222" lon="-1.49994">
        <ele>57</ele>
        <time>2021-08-28T12:38:33.000Z</time>
      </trkpt>
      <trkpt lat="47.22194" lon="-1.50013">
        <ele>57</ele>
        <time>2021-08-28T12:38:35.000Z</time>
      </trkpt>
      <trkpt lat="47.2219" lon="-1.50031">
        <ele>57</ele>
        <time>2021-08-28T12:38:37.000Z</time>
      </trkpt>
      <trkpt lat="47.22187" lon="-1.5005">
        <ele>58</ele>
        <time>2021-08-28T12:38:39.000Z</time>
      </trkpt>
      <trkpt lat="47.22182" lon="-1.50069">
        <ele>57</ele>
        <time>2021-08-28T12:38:41.000Z</time>
      </trkpt>
      <trkpt lat="47.22178" lon="-1.50087">
        <ele>57</ele>
        <time>2021-08-28T12:38:43.000Z</time>
      </trkpt>
      <trkpt lat="47.22173" lon="-1.50105">
        <ele>56</ele>
        <time>2021-08-28T12:38:45.000Z</time>
      </trkpt>
      <trkpt lat="47.22168" lon="-1.50123">
        <ele>56</ele>
        <time>2021-08-28T12:38:47.000Z</time>
      </trkpt>
      <trkpt lat="47.22162" lon="-1.50141">
        <ele>56</ele>
        <time>2021-08-28T12:38:49.000Z</time>
      </trkpt>
      <trkpt lat="47.22156" lon="-1.50158">
        <ele>55</ele>
        <time>2021-08-28T12:38:51.000Z</time>
      </trkpt>
      <trkpt lat="47.2215" lon="-1.50176">
        <ele>55</ele>
        <time>2021-08-28T12:38:53.000Z</time>
      </trkpt>
      <trkpt lat="47.22146" lon="-1.50194">
        <ele>55</ele>
        <time>2021-08-28T12:38:55.000Z</time>
      </trkpt>
      <trkpt lat="47.22143" lon="-1.50212">
        <ele>55</ele>
        <time>2021-08-28T12:38:57.000Z</time>
      </trkpt>
      <trkpt lat="47.22139" lon="-1.50229">
        <ele>55</ele>
        <time>2021-08-28T12:38:59.000Z</time>
      </trkpt>
      <trkpt lat="47.22133" lon="-1.50243">
        <ele>54</ele>
        <time>2021-08-28T12:39:01.000Z</time>
      </trkpt>
      <trkpt lat="47.22129" lon="-1.50259">
        <ele>54</ele>
        <time>2021-08-28T12:39:03.000Z</time>
      </trkpt>
      <trkpt lat="47.22122" lon="-1.50276">
        <ele>55</ele>
        <time>2021-08-28T12:39:05.000Z</time>
      </trkpt>
      <trkpt lat="47.22114" lon="-1.50292">
        <ele>54</ele>
        <time>2021-08-28T12:39:07.000Z</time>
      </trkpt>
      <trkpt lat="47.22107" lon="-1.50308">
        <ele>54</ele>
        <time>2021-08-28T12:39:09.000Z</time>
      </trkpt>
      <trkpt lat="47.221" lon="-1.50323">
        <ele>54</ele>
        <time>2021-08-28T12:39:11.000Z</time>
      </trkpt>
      <trkpt lat="47.22093" lon="-1.50339">
        <ele>54</ele>
        <time>2021-08-28T12:39:13.000Z</time>
      </trkpt>
      <trkpt lat="47.22089" lon="-1.50358">
        <ele>54</ele>
        <time>2021-08-28T12:39:15.000Z</time>
      </trkpt>
      <trkpt lat="47.22084" lon="-1.50377">
        <ele>55</ele>
        <time>2021-08-28T12:39:17.000Z</time>
      </trkpt>
      <trkpt lat="47.22079" lon="-1.50395">
        <ele>54</ele>
        <time>2021-08-28T12:39:19.000Z</time>
      </trkpt>
      <trkpt lat="47.22075" lon="-1.50411">
        <ele>54</ele>
        <time>2021-08-28T12:39:21.000Z</time>
      </trkpt>
      <trkpt lat="47.22071" lon="-1.50429">
        <ele>54</ele>
        <time>2021-08-28T12:39:23.000Z</time>
      </trkpt>
      <trkpt lat="47.22067" lon="-1.50448">
        <ele>54</ele>
        <time>2021-08-28T12:39:25.000Z</time>
      </trkpt>
      <trkpt lat="47.22064" lon="-1.50467">
        <ele>54</ele>
        <time>2021-08-28T12:39:27.000Z</time>
      </trkpt>
      <trkpt lat="47.22062" lon="-1.50485">
        <ele>53</ele>
        <time>2021-08-28T12:39:29.000Z</time>
      </trkpt>
      <trkpt lat="47.22061" lon="-1.50504">
        <ele>53</ele>
        <time>2021-08-28T12:39:31.000Z</time>
      </trkpt>
      <trkpt lat="47.22059" lon="-1.50524">
        <ele>52</ele>
        <time>2021-08-28T12:39:33.000Z</time>
      </trkpt>
      <trkpt lat="47.22058" lon="-1.50544">
        <ele>52</ele>
        <time>2021-08-28T12:39:35.000Z</time>
      </trkpt>
      <trkpt lat="47.22057" lon="-1.50564">
        <ele>52</ele>
        <time>2021-08-28T12:39:37.000Z</time>
      </trkpt>
      <trkpt lat="47.22056" lon="-1.50583">
        <ele>52</ele>
        <time>2021-08-28T12:39:39.000Z</time>
      </trkpt>
      <trkpt lat="47.22056" lon="-1.50604">
        <ele>52</ele>
        <time>2021-08-28T12:39:41.000Z</time>
      </trkpt>
      <trkpt lat="47.22054" lon="-1.50624">
        <ele>52</ele>
        <time>2021-08-28T12:39:43.000Z</time>
      </trkpt>
      <trkpt lat="47.22052" lon="-1.50644">
        <ele>53</ele>
        <time>2021-08-28T12:39:45.000Z</time>
      </trkpt>
      <trkpt lat="47.2205" lon="-1.50664">
        <ele>53</ele>
        <time>2021-08-28T12:39:47.000Z</time>
      </trkpt>
      <trkpt lat="47.22048" lon="-1.50683">
        <ele>53</ele>
        <time>2021-08-28T12:39:49.000Z</time>
      </trkpt>
      <trkpt lat="47.22046" lon="-1.50703">
        <ele>53</ele>
        <time>2021-08-28T12:39:51.000Z</time>
      </trkpt>
      <trkpt lat="47.22044" lon="-1.50722">
        <ele>54</ele>
        <time>2021-08-28T12:39:53.000Z</time>
      </trkpt>
      <trkpt lat="47.22042" lon="-1.50742">
        <ele>54</ele>
        <time>2021-08-28T12:39:55.000Z</time>
      </trkpt>
      <trkpt lat="47.22039" lon="-1.50761">
        <ele>54</ele>
        <time>2021-08-28T12:39:57.000Z</time>
      </trkpt>
      <trkpt lat="47.22035" lon="-1.5078">
        <ele>55</ele>
        <time>2021-08-28T12:39:59.000Z</time>
      </trkpt>
      <trkpt lat="47.22031" lon="-1.50798">
        <ele>55</ele>
        <time>2021-08-28T12:40:01.000Z</time>
      </trkpt>
      <trkpt lat="47.22027" lon="-1.50815">
        <ele>55</ele>
        <time>2021-08-28T12:40:03.000Z</time>
      </trkpt>
      <trkpt lat="47.22021" lon="-1.50831">
        <ele>55</ele>
        <time>2021-08-28T12:40:05.000Z</time>
      </trkpt>
      <trkpt lat="47.22013" lon="-1.50846">
        <ele>55</ele>
        <time>2021-08-28T12:40:07.000Z</time>
      </trkpt>
      <trkpt lat="47.22005" lon="-1.50864">
        <ele>54</ele>
        <time>2021-08-28T12:40:09.000Z</time>
      </trkpt>
      <trkpt lat="47.21997" lon="-1.50881">
        <ele>54</ele>
        <time>2021-08-28T12:40:11.000Z</time>
      </trkpt>
      <trkpt lat="47.21992" lon="-1.50899">
        <ele>54</ele>
        <time>2021-08-28T12:40:13.000Z</time>
      </trkpt>
      <trkpt lat="47.21987" lon="-1.50917">
        <ele>54</ele>
        <time>2021-08-28T12:40:15.000Z</time>
      </trkpt>
      <trkpt lat="47.21983" lon="-1.50935">
        <ele>53</ele>
        <time>2021-08-28T12:40:17.000Z</time>
      </trkpt>
      <trkpt lat="47.21979" lon="-1.50954">
        <ele>53</ele>
        <time>2021-08-28T12:40:19.000Z</time>
      </trkpt>
      <trkpt lat="47.21974" lon="-1.50972">
        <ele>52</ele>
        <time>2021-08-28T12:40:21.000Z</time>
      </trkpt>
      <trkpt lat="47.21969" lon="-1.5099">
        <ele>52</ele>
        <time>2021-08-28T12:40:23.000Z</time>
      </trkpt>
      <trkpt lat="47.21964" lon="-1.51008">
        <ele>52</ele>
        <time>2021-08-28T12:40:25.000Z</time>
      </trkpt>
      <trkpt lat="47.21958" lon="-1.51025">
        <ele>52</ele>
        <time>2021-08-28T12:40:27.000Z</time>
      </trkpt>
      <trkpt lat="47.21954" lon="-1.51041">
        <ele>52</ele>
        <time>2021-08-28T12:40:29.000Z</time>
      </trkpt>
      <trkpt lat="47.2195" lon="-1.51055">
        <ele>52</ele>
        <time>2021-08-28T12:40:31.000Z</time>
      </trkpt>
      <trkpt lat="47.21943" lon="-1.51068">
        <ele>54</ele>
        <time>2021-08-28T12:40:33.000Z</time>
      </trkpt>
      <trkpt lat="47.21934" lon="-1.51081">
        <ele>55</ele>
        <time>2021-08-28T12:40:35.000Z</time>
      </trkpt>
      <trkpt lat="47.21928" lon="-1.51098">
        <ele>55</ele>
        <time>2021-08-28T12:40:37.000Z</time>
      </trkpt>
      <trkpt lat="47.21921" lon="-1.51116">
        <ele>54</ele>
        <time>2021-08-28T12:40:39.000Z</time>
      </trkpt>
      <trkpt lat="47.21916" lon="-1.51134">
        <ele>54</ele>
        <time>2021-08-28T12:40:41.000Z</time>
      </trkpt>
      <trkpt lat="47.2191" lon="-1.51152">
        <ele>54</ele>
        <time>2021-08-28T12:40:43.000Z</time>
      </trkpt>
      <trkpt lat="47.21904" lon="-1.5117">
        <ele>54</ele>
        <time>2021-08-28T12:40:45.000Z</time>
      </trkpt>
      <trkpt lat="47.21897" lon="-1.51188">
        <ele>53</ele>
        <time>2021-08-28T12:40:47.000Z</time>
      </trkpt>
      <trkpt lat="47.21891" lon="-1.51206">
        <ele>53</ele>
        <time>2021-08-28T12:40:49.000Z</time>
      </trkpt>
      <trkpt lat="47.21885" lon="-1.51224">
        <ele>53</ele>
        <time>2021-08-28T12:40:51.000Z</time>
      </trkpt>
      <trkpt lat="47.21879" lon="-1.51242">
        <ele>53</ele>
        <time>2021-08-28T12:40:53.000Z</time>
      </trkpt>
      <trkpt lat="47.21873" lon="-1.5126">
        <ele>53</ele>
        <time>2021-08-28T12:40:55.000Z</time>
      </trkpt>
      <trkpt lat="47.21868" lon="-1.51278">
        <ele>53</ele>
        <time>2021-08-28T12:40:57.000Z</time>
      </trkpt>
      <trkpt lat="47.21862" lon="-1.51297">
        <ele>54</ele>
        <time>2021-08-28T12:40:59.000Z</time>
      </trkpt>
      <trkpt lat="47.21856" lon="-1.51314">
        <ele>53</ele>
        <time>2021-08-28T12:41:01.000Z</time>
      </trkpt>
      <trkpt lat="47.2185" lon="-1.51333">
        <ele>53</ele>
        <time>2021-08-28T12:41:03.000Z</time>
      </trkpt>
      <trkpt lat="47.21845" lon="-1.51351">
        <ele>54</ele>
        <time>2021-08-28T12:41:05.000Z</time>
      </trkpt>
      <trkpt lat="47.2184" lon="-1.51369">
        <ele>54</ele>
        <time>2021-08-28T12:41:07.000Z</time>
      </trkpt>
      <trkpt lat="47.21836" lon="-1.51387">
        <ele>54</ele>
        <time>2021-08-28T12:41:09.000Z</time>
      </trkpt>
      <trkpt lat="47.21832" lon="-1.51405">
        <ele>53</ele>
        <time>2021-08-28T12:41:11.000Z</time>
      </trkpt>
      <trkpt lat="47.21828" lon="-1.51423">
        <ele>53</ele>
        <time>2021-08-28T12:41:13.000Z</time>
      </trkpt>
      <trkpt lat="47.21824" lon="-1.51441">
        <ele>53</ele>
        <time>2021-08-28T12:41:15.000Z</time>
      </trkpt>
      <trkpt lat="47.21821" lon="-1.51459">
        <ele>53</ele>
        <time>2021-08-28T12:41:17.000Z</time>
      </trkpt>
      <trkpt lat="47.21817" lon="-1.51477">
        <ele>53</ele>
        <time>2021-08-28T12:41:19.000Z</time>
      </trkpt>
      <trkpt lat="47.21812" lon="-1.51494">
        <ele>53</ele>
        <time>2021-08-28T12:41:21.000Z</time>
      </trkpt>
      <trkpt lat="47.21805" lon="-1.51509">
        <ele>53</ele>
        <time>2021-08-28T12:41:23.000Z</time>
      </trkpt>
      <trkpt lat="47.21799" lon="-1.51526">
        <ele>53</ele>
        <time>2021-08-28T12:41:25.000Z</time>
      </trkpt>
      <trkpt lat="47.21792" lon="-1.51543">
        <ele>53</ele>
        <time>2021-08-28T12:41:27.000Z</time>
      </trkpt>
      <trkpt lat="47.21785" lon="-1.5156">
        <ele>53</ele>
        <time>2021-08-28T12:41:29.000Z</time>
      </trkpt>
      <trkpt lat="47.21776" lon="-1.51576">
        <ele>53</ele>
        <time>2021-08-28T12:41:31.000Z</time>
      </trkpt>
      <trkpt lat="47.21768" lon="-1.5159">
        <ele>53</ele>
        <time>2021-08-28T12:41:33.000Z</time>
      </trkpt>
      <trkpt lat="47.21758" lon="-1.51603">
        <ele>54</ele>
        <time>2021-08-28T12:41:35.000Z</time>
      </trkpt>
      <trkpt lat="47.2175" lon="-1.51618">
        <ele>54</ele>
        <time>2021-08-28T12:41:37.000Z</time>
      </trkpt>
      <trkpt lat="47.21742" lon="-1.51633">
        <ele>53</ele>
        <time>2021-08-28T12:41:39.000Z</time>
      </trkpt>
      <trkpt lat="47.21735" lon="-1.5165">
        <ele>54</ele>
        <time>2021-08-28T12:41:41.000Z</time>
      </trkpt>
      <trkpt lat="47.21728" lon="-1.51667">
        <ele>53</ele>
        <time>2021-08-28T12:41:43.000Z</time>
      </trkpt>
      <trkpt lat="47.2172" lon="-1.51683">
        <ele>53</ele>
        <time>2021-08-28T12:41:45.000Z</time>
      </trkpt>
      <trkpt lat="47.21713" lon="-1.51698">
        <ele>52</ele>
        <time>2021-08-28T12:41:47.000Z</time>
      </trkpt>
      <trkpt lat="47.21707" lon="-1.51714">
        <ele>52</ele>
        <time>2021-08-28T12:41:49.000Z</time>
      </trkpt>
      <trkpt lat="47.217" lon="-1.51731">
        <ele>52</ele>
        <time>2021-08-28T12:41:51.000Z</time>
      </trkpt>
      <trkpt lat="47.21691" lon="-1.51749">
        <ele>52</ele>
        <time>2021-08-28T12:41:53.000Z</time>
      </trkpt>
      <trkpt lat="47.21683" lon="-1.51767">
        <ele>53</ele>
        <time>2021-08-28T12:41:55.000Z</time>
      </trkpt>
      <trkpt lat="47.21676" lon="-1.51784">
        <ele>53</ele>
        <time>2021-08-28T12:41:57.000Z</time>
      </trkpt>
      <trkpt lat="47.21668" lon="-1.51801">
        <ele>53</ele>
        <time>2021-08-28T12:41:59.000Z</time>
      </trkpt>
      <trkpt lat="47.21661" lon="-1.51817">
        <ele>53</ele>
        <time>2021-08-28T12:42:01.000Z</time>
      </trkpt>
      <trkpt lat="47.21654" lon="-1.51834">
        <ele>53</ele>
        <time>2021-08-28T12:42:03.000Z</time>
      </trkpt>
      <trkpt lat="47.21648" lon="-1.51851">
        <ele>54</ele>
        <time>2021-08-28T12:42:05.000Z</time>
      </trkpt>
      <trkpt lat="47.21645" lon="-1.51869">
        <ele>55</ele>
        <time>2021-08-28T12:42:07.000Z</time>
      </trkpt>
      <trkpt lat="47.21641" lon="-1.51887">
        <ele>55</ele>
        <time>2021-08-28T12:42:09.000Z</time>
      </trkpt>
      <trkpt lat="47.21633" lon="-1.51902">
        <ele>55</ele>
        <time>2021-08-28T12:42:11.000Z</time>
      </trkpt>
      <trkpt lat="47.21627" lon="-1.51918">
        <ele>55</ele>
        <time>2021-08-28T12:42:13.000Z</time>
      </trkpt>
      <trkpt lat="47.21622" lon="-1.51937">
        <ele>55</ele>
        <time>2021-08-28T12:42:15.000Z</time>
      </trkpt>
      <trkpt lat="47.21619" lon="-1.51955">
        <ele>55</ele>
        <time>2021-08-28T12:42:17.000Z</time>
      </trkpt>
      <trkpt lat="47.21615" lon="-1.51972">
        <ele>54</ele>
        <time>2021-08-28T12:42:19.000Z</time>
      </trkpt>
      <trkpt lat="47.21607" lon="-1.51985">
        <ele>54</ele>
        <time>2021-08-28T12:42:21.000Z</time>
      </trkpt>
      <trkpt lat="47.21602" lon="-1.51999">
        <ele>54</ele>
        <time>2021-08-28T12:42:23.000Z</time>
      </trkpt>
      <trkpt lat="47.21597" lon="-1.52018">
        <ele>54</ele>
        <time>2021-08-28T12:42:25.000Z</time>
      </trkpt>
      <trkpt lat="47.2159" lon="-1.52037">
        <ele>54</ele>
        <time>2021-08-28T12:42:27.000Z</time>
      </trkpt>
      <trkpt lat="47.21583" lon="-1.52056">
        <ele>54</ele>
        <time>2021-08-28T12:42:29.000Z</time>
      </trkpt>
      <trkpt lat="47.21577" lon="-1.52075">
        <ele>54</ele>
        <time>2021-08-28T12:42:31.000Z</time>
      </trkpt>
      <trkpt lat="47.21571" lon="-1.52094">
        <ele>54</ele>
        <time>2021-08-28T12:42:33.000Z</time>
      </trkpt>
      <trkpt lat="47.21564" lon="-1.52113">
        <ele>54</ele>
        <time>2021-08-28T12:42:35.000Z</time>
      </trkpt>
      <trkpt lat="47.21559" lon="-1.52132">
        <ele>53</ele>
        <time>2021-08-28T12:42:37.000Z</time>
      </trkpt>
      <trkpt lat="47.21553" lon="-1.52151">
        <ele>53</ele>
        <time>2021-08-28T12:42:39.000Z</time>
      </trkpt>
      <trkpt lat="47.21547" lon="-1.5217">
        <ele>53</ele>
        <time>2021-08-28T12:42:41.000Z</time>
      </trkpt>
      <trkpt lat="47.2154" lon="-1.52188">
        <ele>53</ele>
        <time>2021-08-28T12:42:43.000Z</time>
      </trkpt>
      <trkpt lat="47.21534" lon="-1.52207">
        <ele>53</ele>
        <time>2021-08-28T12:42:45.000Z</time>
      </trkpt>
      <trkpt lat="47.21529" lon="-1.52226">
        <ele>53</ele>
        <time>2021-08-28T12:42:47.000Z</time>
      </trkpt>
      <trkpt lat="47.21523" lon="-1.52244">
        <ele>54</ele>
        <time>2021-08-28T12:42:49.000Z</time>
      </trkpt>
      <trkpt lat="47.21517" lon="-1.52262">
        <ele>54</ele>
        <time>2021-08-28T12:42:51.000Z</time>
      </trkpt>
      <trkpt lat="47.21511" lon="-1.52282">
        <ele>54</ele>
        <time>2021-08-28T12:42:53.000Z</time>
      </trkpt>
      <trkpt lat="47.21504" lon="-1.52301">
        <ele>54</ele>
        <time>2021-08-28T12:42:55.000Z</time>
      </trkpt>
      <trkpt lat="47.21498" lon="-1.5232">
        <ele>54</ele>
        <time>2021-08-28T12:42:57.000Z</time>
      </trkpt>
      <trkpt lat="47.21492" lon="-1.52338">
        <ele>54</ele>
        <time>2021-08-28T12:42:59.000Z</time>
      </trkpt>
      <trkpt lat="47.21487" lon="-1.52356">
        <ele>55</ele>
        <time>2021-08-28T12:43:01.000Z</time>
      </trkpt>
      <trkpt lat="47.21481" lon="-1.52375">
        <ele>54</ele>
        <time>2021-08-28T12:43:03.000Z</time>
      </trkpt>
      <trkpt lat="47.21475" lon="-1.52392">
        <ele>55</ele>
        <time>2021-08-28T12:43:05.000Z</time>
      </trkpt>
      <trkpt lat="47.2147" lon="-1.52412">
        <ele>55</ele>
        <time>2021-08-28T12:43:07.000Z</time>
      </trkpt>
      <trkpt lat="47.21463" lon="-1.5243">
        <ele>55</ele>
        <time>2021-08-28T12:43:09.000Z</time>
      </trkpt>
      <trkpt lat="47.21457" lon="-1.52449">
        <ele>55</ele>
        <time>2021-08-28T12:43:11.000Z</time>
      </trkpt>
      <trkpt lat="47.21451" lon="-1.52467">
        <ele>55</ele>
        <time>2021-08-28T12:43:13.000Z</time>
      </trkpt>
      <trkpt lat="47.21445" lon="-1.52486">
        <ele>56</ele>
        <time>2021-08-28T12:43:15.000Z</time>
      </trkpt>
      <trkpt lat="47.21439" lon="-1.52505">
        <ele>55</ele>
        <time>2021-08-28T12:43:17.000Z</time>
      </trkpt>
      <trkpt lat="47.21432" lon="-1.52524">
        <ele>55</ele>
        <time>2021-08-28T12:43:19.000Z</time>
      </trkpt>
      <trkpt lat="47.21426" lon="-1.52542">
        <ele>55</ele>
        <time>2021-08-28T12:43:21.000Z</time>
      </trkpt>
      <trkpt lat="47.21421" lon="-1.5256">
        <ele>55</ele>
        <time>2021-08-28T12:43:23.000Z</time>
      </trkpt>
      <trkpt lat="47.21415" lon="-1.52578">
        <ele>54</ele>
        <time>2021-08-28T12:43:25.000Z</time>
      </trkpt>
      <trkpt lat="47.21409" lon="-1.52596">
        <ele>54</ele>
        <time>2021-08-28T12:43:27.000Z</time>
      </trkpt>
      <trkpt lat="47.21404" lon="-1.52614">
        <ele>54</ele>
        <time>2021-08-28T12:43:29.000Z</time>
      </trkpt>
      <trkpt lat="47.21398" lon="-1.52632">
        <ele>53</ele>
        <time>2021-08-28T12:43:31.000Z</time>
      </trkpt>
      <trkpt lat="47.21392" lon="-1.52651">
        <ele>53</ele>
        <time>2021-08-28T12:43:33.000Z</time>
      </trkpt>
      <trkpt lat="47.21387" lon="-1.5267">
        <ele>53</ele>
        <time>2021-08-28T12:43:35.000Z</time>
      </trkpt>
      <trkpt lat="47.21383" lon="-1.52689">
        <ele>53</ele>
        <time>2021-08-28T12:43:37.000Z</time>
      </trkpt>
      <trkpt lat="47.21378" lon="-1.52708">
        <ele>54</ele>
        <time>2021-08-28T12:43:39.000Z</time>
      </trkpt>
      <trkpt lat="47.21374" lon="-1.52727">
        <ele>54</ele>
        <time>2021-08-28T12:43:41.000Z</time>
      </trkpt>
      <trkpt lat="47.21371" lon="-1.52748">
        <ele>54</ele>
        <time>2021-08-28T12:43:43.000Z</time>
      </trkpt>
      <trkpt lat="47.21367" lon="-1.5277">
        <ele>54</ele>
        <time>2021-08-28T12:43:45.000Z</time>
      </trkpt>
      <trkpt lat="47.21364" lon="-1.52789">
        <ele>56</ele>
        <time>2021-08-28T12:43:47.000Z</time>
      </trkpt>
      <trkpt lat="47.21362" lon="-1.52808">
        <ele>56</ele>
        <time>2021-08-28T12:43:49.000Z</time>
      </trkpt>
      <trkpt lat="47.21358" lon="-1.52826">
        <ele>56</ele>
        <time>2021-08-28T12:43:51.000Z</time>
      </trkpt>
      <trkpt lat="47.21354" lon="-1.52844">
        <ele>55</ele>
        <time>2021-08-28T12:43:53.000Z</time>
      </trkpt>
      <trkpt lat="47.21349" lon="-1.52865">
        <ele>55</ele>
        <time>2021-08-28T12:43:55.000Z</time>
      </trkpt>
      <trkpt lat="47.21345" lon="-1.52886">
        <ele>55</ele>
        <time>2021-08-28T12:43:57.000Z</time>
      </trkpt>
      <trkpt lat="47.21342" lon="-1.52907">
        <ele>54</ele>
        <time>2021-08-28T12:43:59.000Z</time>
      </trkpt>
      <trkpt lat="47.21339" lon="-1.52927">
        <ele>54</ele>
        <time>2021-08-28T12:44:01.000Z</time>
      </trkpt>
      <trkpt lat="47.21336" lon="-1.52947">
        <ele>53</ele>
        <time>2021-08-28T12:44:03.000Z</time>
      </trkpt>
      <trkpt lat="47.21334" lon="-1.52964">
        <ele>54</ele>
        <time>2021-08-28T12:44:05.000Z</time>
      </trkpt>
      <trkpt lat="47.21331" lon="-1.52986">
        <ele>54</ele>
        <time>2021-08-28T12:44:07.000Z</time>
      </trkpt>
      <trkpt lat="47.2133" lon="-1.53007">
        <ele>54</ele>
        <time>2021-08-28T12:44:09.000Z</time>
      </trkpt>
      <trkpt lat="47.2133" lon="-1.53028">
        <ele>54</ele>
        <time>2021-08-28T12:44:11.000Z</time>
      </trkpt>
      <trkpt lat="47.21328" lon="-1.53047">
        <ele>54</ele>
        <time>2021-08-28T12:44:13.000Z</time>
      </trkpt>
      <trkpt lat="47.21326" lon="-1.53067">
        <ele>54</ele>
        <time>2021-08-28T12:44:15.000Z</time>
      </trkpt>
      <trkpt lat="47.21325" lon="-1.53085">
        <ele>54</ele>
        <time>2021-08-28T12:44:17.000Z</time>
      </trkpt>
      <trkpt lat="47.21324" lon="-1.53103">
        <ele>54</ele>
        <time>2021-08-28T12:44:19.000Z</time>
      </trkpt>
      <trkpt lat="47.21321" lon="-1.53122">
        <ele>55</ele>
        <time>2021-08-28T12:44:21.000Z</time>
      </trkpt>
      <trkpt lat="47.21318" lon="-1.53141">
        <ele>54</ele>
        <time>2021-08-28T12:44:23.000Z</time>
      </trkpt>
      <trkpt lat="47.21315" lon="-1.5316">
        <ele>54</ele>
        <time>2021-08-28T12:44:25.000Z</time>
      </trkpt>
      <trkpt lat="47.21312" lon="-1.53181">
        <ele>53</ele>
        <time>2021-08-28T12:44:27.000Z</time>
      </trkpt>
      <trkpt lat="47.2131" lon="-1.53201">
        <ele>54</ele>
        <time>2021-08-28T12:44:29.000Z</time>
      </trkpt>
      <trkpt lat="47.21308" lon="-1.53222">
        <ele>54</ele>
        <time>2021-08-28T12:44:31.000Z</time>
      </trkpt>
      <trkpt lat="47.21307" lon="-1.53242">
        <ele>53</ele>
        <time>2021-08-28T12:44:33.000Z</time>
      </trkpt>
      <trkpt lat="47.21308" lon="-1.53261">
        <ele>53</ele>
        <time>2021-08-28T12:44:35.000Z</time>
      </trkpt>
      <trkpt lat="47.21309" lon="-1.53279">
        <ele>54</ele>
        <time>2021-08-28T12:44:37.000Z</time>
      </trkpt>
      <trkpt lat="47.21308" lon="-1.53299">
        <ele>54</ele>
        <time>2021-08-28T12:44:39.000Z</time>
      </trkpt>
      <trkpt lat="47.21306" lon="-1.53318">
        <ele>54</ele>
        <time>2021-08-28T12:44:41.000Z</time>
      </trkpt>
      <trkpt lat="47.21303" lon="-1.53338">
        <ele>53</ele>
        <time>2021-08-28T12:44:43.000Z</time>
      </trkpt>
      <trkpt lat="47.21299" lon="-1.53356">
        <ele>53</ele>
        <time>2021-08-28T12:44:45.000Z</time>
      </trkpt>
      <trkpt lat="47.21296" lon="-1.53375">
        <ele>53</ele>
        <time>2021-08-28T12:44:47.000Z</time>
      </trkpt>
      <trkpt lat="47.21293" lon="-1.53395">
        <ele>53</ele>
        <time>2021-08-28T12:44:49.000Z</time>
      </trkpt>
      <trkpt lat="47.21292" lon="-1.53414">
        <ele>52</ele>
        <time>2021-08-28T12:44:51.000Z</time>
      </trkpt>
      <trkpt lat="47.2129" lon="-1.53434">
        <ele>52</ele>
        <time>2021-08-28T12:44:53.000Z</time>
      </trkpt>
      <trkpt lat="47.21289" lon="-1.53452">
        <ele>52</ele>
        <time>2021-08-28T12:44:55.000Z</time>
      </trkpt>
      <trkpt lat="47.21294" lon="-1.53468">
        <ele>53</ele>
        <time>2021-08-28T12:44:57.000Z</time>
      </trkpt>
      <trkpt lat="47.21298" lon="-1.53485">
        <ele>54</ele>
        <time>2021-08-28T12:44:59.000Z</time>
      </trkpt>
      <trkpt lat="47.213" lon="-1.53503">
        <ele>54</ele>
        <time>2021-08-28T12:45:01.000Z</time>
      </trkpt>
      <trkpt lat="47.213" lon="-1.53522">
        <ele>55</ele>
        <time>2021-08-28T12:45:03.000Z</time>
      </trkpt>
      <trkpt lat="47.213" lon="-1.5354">
        <ele>55</ele>
        <time>2021-08-28T12:45:05.000Z</time>
      </trkpt>
      <trkpt lat="47.21301" lon="-1.5356">
        <ele>55</ele>
        <time>2021-08-28T12:45:07.000Z</time>
      </trkpt>
      <trkpt lat="47.21302" lon="-1.53578">
        <ele>56</ele>
        <time>2021-08-28T12:45:09.000Z</time>
      </trkpt>
      <trkpt lat="47.21303" lon="-1.53596">
        <ele>56</ele>
        <time>2021-08-28T12:45:11.000Z</time>
      </trkpt>
      <trkpt lat="47.21303" lon="-1.53612">
        <ele>56</ele>
        <time>2021-08-28T12:45:13.000Z</time>
      </trkpt>
      <trkpt lat="47.21301" lon="-1.53627">
        <ele>57</ele>
        <time>2021-08-28T12:45:15.000Z</time>
      </trkpt>
      <trkpt lat="47.21294" lon="-1.53637">
        <ele>57</ele>
        <time>2021-08-28T12:45:17.000Z</time>
      </trkpt>
      <trkpt lat="47.21292" lon="-1.5365">
        <ele>56</ele>
        <time>2021-08-28T12:45:19.000Z</time>
      </trkpt>
      <trkpt lat="47.2129" lon="-1.53665">
        <ele>56</ele>
        <time>2021-08-28T12:45:21.000Z</time>
      </trkpt>
      <trkpt lat="47.21296" lon="-1.53677">
        <ele>55</ele>
        <time>2021-08-28T12:45:23.000Z</time>
      </trkpt>
      <trkpt lat="47.21301" lon="-1.53691">
        <ele>55</ele>
        <time>2021-08-28T12:45:25.000Z</time>
      </trkpt>
      <trkpt lat="47.21304" lon="-1.53708">
        <ele>55</ele>
        <time>2021-08-28T12:45:27.000Z</time>
      </trkpt>
      <trkpt lat="47.21306" lon="-1.53724">
        <ele>55</ele>
        <time>2021-08-28T12:45:29.000Z</time>
      </trkpt>
      <trkpt lat="47.2131" lon="-1.53741">
        <ele>55</ele>
        <time>2021-08-28T12:45:31.000Z</time>
      </trkpt>
      <trkpt lat="47.21314" lon="-1.53759">
        <ele>55</ele>
        <time>2021-08-28T12:45:33.000Z</time>
      </trkpt>
      <trkpt lat="47.21317" lon="-1.53777">
        <ele>55</ele>
        <time>2021-08-28T12:45:35.000Z</time>
      </trkpt>
      <trkpt lat="47.21319" lon="-1.53796">
        <ele>55</ele>
        <time>2021-08-28T12:45:37.000Z</time>
      </trkpt>
      <trkpt lat="47.21322" lon="-1.53814">
        <ele>54</ele>
        <time>2021-08-28T12:45:39.000Z</time>
      </trkpt>
      <trkpt lat="47.21325" lon="-1.53833">
        <ele>54</ele>
        <time>2021-08-28T12:45:41.000Z</time>
      </trkpt>
      <trkpt lat="47.21328" lon="-1.53851">
        <ele>54</ele>
        <time>2021-08-28T12:45:43.000Z</time>
      </trkpt>
      <trkpt lat="47.21331" lon="-1.5387">
        <ele>54</ele>
        <time>2021-08-28T12:45:45.000Z</time>
      </trkpt>
      <trkpt lat="47.21334" lon="-1.53887">
        <ele>55</ele>
        <time>2021-08-28T12:45:47.000Z</time>
      </trkpt>
      <trkpt lat="47.21336" lon="-1.53903">
        <ele>56</ele>
        <time>2021-08-28T12:45:49.000Z</time>
      </trkpt>
      <trkpt lat="47.21338" lon="-1.53921">
        <ele>56</ele>
        <time>2021-08-28T12:45:52.000Z</time>
      </trkpt>
      <trkpt lat="47.21349" lon="-1.53924">
        <ele>58</ele>
        <time>2021-08-28T12:46:00.000Z</time>
      </trkpt>
      <trkpt lat="47.2136" lon="-1.5393">
        <ele>58</ele>
        <time>2021-08-28T12:46:02.000Z</time>
      </trkpt>
      <trkpt lat="47.21372" lon="-1.53932">
        <ele>58</ele>
        <time>2021-08-28T12:46:04.000Z</time>
      </trkpt>
      <trkpt lat="47.21384" lon="-1.53941">
        <ele>58</ele>
        <time>2021-08-28T12:46:06.000Z</time>
      </trkpt>
      <trkpt lat="47.21388" lon="-1.53973">
        <ele>57</ele>
        <time>2021-08-28T12:46:09.000Z</time>
      </trkpt>
      <trkpt lat="47.21383" lon="-1.53993">
        <ele>56</ele>
        <time>2021-08-28T12:46:11.000Z</time>
      </trkpt>
      <trkpt lat="47.21391" lon="-1.54011">
        <ele>56</ele>
        <time>2021-08-28T12:46:13.000Z</time>
      </trkpt>
      <trkpt lat="47.21402" lon="-1.54024">
        <ele>56</ele>
        <time>2021-08-28T12:46:15.000Z</time>
      </trkpt>
      <trkpt lat="47.21411" lon="-1.54037">
        <ele>56</ele>
        <time>2021-08-28T12:46:17.000Z</time>
      </trkpt>
      <trkpt lat="47.2142" lon="-1.5405">
        <ele>56</ele>
        <time>2021-08-28T12:46:19.000Z</time>
      </trkpt>
      <trkpt lat="47.21429" lon="-1.54064">
        <ele>56</ele>
        <time>2021-08-28T12:46:21.000Z</time>
      </trkpt>
      <trkpt lat="47.21439" lon="-1.54076">
        <ele>56</ele>
        <time>2021-08-28T12:46:23.000Z</time>
      </trkpt>
      <trkpt lat="47.21448" lon="-1.54091">
        <ele>56</ele>
        <time>2021-08-28T12:46:25.000Z</time>
      </trkpt>
      <trkpt lat="47.21458" lon="-1.54105">
        <ele>56</ele>
        <time>2021-08-28T12:46:27.000Z</time>
      </trkpt>
      <trkpt lat="47.21468" lon="-1.54119">
        <ele>56</ele>
        <time>2021-08-28T12:46:29.000Z</time>
      </trkpt>
      <trkpt lat="47.21482" lon="-1.5414">
        <ele>56</ele>
        <time>2021-08-28T12:46:32.000Z</time>
      </trkpt>
      <trkpt lat="47.21491" lon="-1.54154">
        <ele>56</ele>
        <time>2021-08-28T12:46:34.000Z</time>
      </trkpt>
      <trkpt lat="47.21499" lon="-1.54167">
        <ele>56</ele>
        <time>2021-08-28T12:46:36.000Z</time>
      </trkpt>
      <trkpt lat="47.21509" lon="-1.54188">
        <ele>57</ele>
        <time>2021-08-28T12:46:39.000Z</time>
      </trkpt>
      <trkpt lat="47.21518" lon="-1.54202">
        <ele>57</ele>
        <time>2021-08-28T12:46:41.000Z</time>
      </trkpt>
      <trkpt lat="47.21527" lon="-1.54216">
        <ele>57</ele>
        <time>2021-08-28T12:46:43.000Z</time>
      </trkpt>
      <trkpt lat="47.21535" lon="-1.54229">
        <ele>57</ele>
        <time>2021-08-28T12:46:45.000Z</time>
      </trkpt>
      <trkpt lat="47.21542" lon="-1.54241">
        <ele>57</ele>
        <time>2021-08-28T12:46:47.000Z</time>
      </trkpt>
      <trkpt lat="47.21548" lon="-1.54253">
        <ele>58</ele>
        <time>2021-08-28T12:46:49.000Z</time>
      </trkpt>
      <trkpt lat="47.21556" lon="-1.54265">
        <ele>58</ele>
        <time>2021-08-28T12:46:51.000Z</time>
      </trkpt>
      <trkpt lat="47.21562" lon="-1.54276">
        <ele>58</ele>
        <time>2021-08-28T12:46:53.000Z</time>
      </trkpt>
      <trkpt lat="47.2157" lon="-1.54287">
        <ele>57</ele>
        <time>2021-08-28T12:46:55.000Z</time>
      </trkpt>
      <trkpt lat="47.21578" lon="-1.54298">
        <ele>57</ele>
        <time>2021-08-28T12:46:57.000Z</time>
      </trkpt>
      <trkpt lat="47.21585" lon="-1.54309">
        <ele>56</ele>
        <time>2021-08-28T12:46:59.000Z</time>
      </trkpt>
      <trkpt lat="47.21592" lon="-1.54322">
        <ele>56</ele>
        <time>2021-08-28T12:47:01.000Z</time>
      </trkpt>
      <trkpt lat="47.21599" lon="-1.54335">
        <ele>56</ele>
        <time>2021-08-28T12:47:03.000Z</time>
      </trkpt>
      <trkpt lat="47.21606" lon="-1.54349">
        <ele>56</ele>
        <time>2021-08-28T12:47:05.000Z</time>
      </trkpt>
      <trkpt lat="47.2161" lon="-1.54364">
        <ele>57</ele>
        <time>2021-08-28T12:47:07.000Z</time>
      </trkpt>
      <trkpt lat="47.21616" lon="-1.54382">
        <ele>58</ele>
        <time>2021-08-28T12:47:10.000Z</time>
      </trkpt>
      <trkpt lat="47.2162" lon="-1.54396">
        <ele>57</ele>
        <time>2021-08-28T12:47:12.000Z</time>
      </trkpt>
      <trkpt lat="47.21619" lon="-1.54413">
        <ele>59</ele>
        <time>2021-08-28T12:47:14.000Z</time>
      </trkpt>
      <trkpt lat="47.21615" lon="-1.54431">
        <ele>58</ele>
        <time>2021-08-28T12:47:16.000Z</time>
      </trkpt>
      <trkpt lat="47.21612" lon="-1.5445">
        <ele>58</ele>
        <time>2021-08-28T12:47:18.000Z</time>
      </trkpt>
      <trkpt lat="47.21609" lon="-1.54469">
        <ele>58</ele>
        <time>2021-08-28T12:47:20.000Z</time>
      </trkpt>
      <trkpt lat="47.21606" lon="-1.54487">
        <ele>58</ele>
        <time>2021-08-28T12:47:22.000Z</time>
      </trkpt>
      <trkpt lat="47.21602" lon="-1.54505">
        <ele>58</ele>
        <time>2021-08-28T12:47:24.000Z</time>
      </trkpt>
      <trkpt lat="47.21597" lon="-1.54523">
        <ele>58</ele>
        <time>2021-08-28T12:47:26.000Z</time>
      </trkpt>
      <trkpt lat="47.2159" lon="-1.54539">
        <ele>59</ele>
        <time>2021-08-28T12:47:28.000Z</time>
      </trkpt>
      <trkpt lat="47.21583" lon="-1.54555">
        <ele>59</ele>
        <time>2021-08-28T12:47:30.000Z</time>
      </trkpt>
      <trkpt lat="47.21577" lon="-1.54574">
        <ele>59</ele>
        <time>2021-08-28T12:47:32.000Z</time>
      </trkpt>
      <trkpt lat="47.2157" lon="-1.54594">
        <ele>58</ele>
        <time>2021-08-28T12:47:34.000Z</time>
      </trkpt>
      <trkpt lat="47.21563" lon="-1.54615">
        <ele>57</ele>
        <time>2021-08-28T12:47:36.000Z</time>
      </trkpt>
      <trkpt lat="47.21555" lon="-1.54636">
        <ele>56</ele>
        <time>2021-08-28T12:47:38.000Z</time>
      </trkpt>
      <trkpt lat="47.21547" lon="-1.54655">
        <ele>57</ele>
        <time>2021-08-28T12:47:40.000Z</time>
      </trkpt>
      <trkpt lat="47.2154" lon="-1.54671">
        <ele>56</ele>
        <time>2021-08-28T12:47:42.000Z</time>
      </trkpt>
      <trkpt lat="47.21535" lon="-1.54692">
        <ele>58</ele>
        <time>2021-08-28T12:47:44.000Z</time>
      </trkpt>
      <trkpt lat="47.21531" lon="-1.54711">
        <ele>58</ele>
        <time>2021-08-28T12:47:46.000Z</time>
      </trkpt>
      <trkpt lat="47.21523" lon="-1.5473">
        <ele>58</ele>
        <time>2021-08-28T12:47:48.000Z</time>
      </trkpt>
      <trkpt lat="47.21516" lon="-1.54748">
        <ele>58</ele>
        <time>2021-08-28T12:47:50.000Z</time>
      </trkpt>
      <trkpt lat="47.21508" lon="-1.54766">
        <ele>57</ele>
        <time>2021-08-28T12:47:52.000Z</time>
      </trkpt>
      <trkpt lat="47.215" lon="-1.54786">
        <ele>57</ele>
        <time>2021-08-28T12:47:54.000Z</time>
      </trkpt>
      <trkpt lat="47.21491" lon="-1.54805">
        <ele>57</ele>
        <time>2021-08-28T12:47:56.000Z</time>
      </trkpt>
      <trkpt lat="47.21483" lon="-1.54823">
        <ele>57</ele>
        <time>2021-08-28T12:47:58.000Z</time>
      </trkpt>
      <trkpt lat="47.21474" lon="-1.5484">
        <ele>57</ele>
        <time>2021-08-28T12:48:00.000Z</time>
      </trkpt>
      <trkpt lat="47.21466" lon="-1.54858">
        <ele>57</ele>
        <time>2021-08-28T12:48:02.000Z</time>
      </trkpt>
      <trkpt lat="47.21457" lon="-1.54875">
        <ele>56</ele>
        <time>2021-08-28T12:48:04.000Z</time>
      </trkpt>
      <trkpt lat="47.21449" lon="-1.54893">
        <ele>56</ele>
        <time>2021-08-28T12:48:06.000Z</time>
      </trkpt>
      <trkpt lat="47.2144" lon="-1.5491">
        <ele>56</ele>
        <time>2021-08-28T12:48:08.000Z</time>
      </trkpt>
      <trkpt lat="47.21431" lon="-1.54927">
        <ele>55</ele>
        <time>2021-08-28T12:48:10.000Z</time>
      </trkpt>
      <trkpt lat="47.21423" lon="-1.54945">
        <ele>55</ele>
        <time>2021-08-28T12:48:12.000Z</time>
      </trkpt>
      <trkpt lat="47.21414" lon="-1.54963">
        <ele>55</ele>
        <time>2021-08-28T12:48:14.000Z</time>
      </trkpt>
      <trkpt lat="47.21406" lon="-1.54981">
        <ele>55</ele>
        <time>2021-08-28T12:48:16.000Z</time>
      </trkpt>
      <trkpt lat="47.21399" lon="-1.55">
        <ele>56</ele>
        <time>2021-08-28T12:48:18.000Z</time>
      </trkpt>
      <trkpt lat="47.21391" lon="-1.55019">
        <ele>56</ele>
        <time>2021-08-28T12:48:20.000Z</time>
      </trkpt>
      <trkpt lat="47.21384" lon="-1.55036">
        <ele>56</ele>
        <time>2021-08-28T12:48:22.000Z</time>
      </trkpt>
      <trkpt lat="47.21376" lon="-1.55054">
        <ele>55</ele>
        <time>2021-08-28T12:48:24.000Z</time>
      </trkpt>
      <trkpt lat="47.21369" lon="-1.55073">
        <ele>56</ele>
        <time>2021-08-28T12:48:26.000Z</time>
      </trkpt>
      <trkpt lat="47.21361" lon="-1.55092">
        <ele>56</ele>
        <time>2021-08-28T12:48:28.000Z</time>
      </trkpt>
      <trkpt lat="47.21354" lon="-1.55109">
        <ele>56</ele>
        <time>2021-08-28T12:48:30.000Z</time>
      </trkpt>
      <trkpt lat="47.21346" lon="-1.55126">
        <ele>56</ele>
        <time>2021-08-28T12:48:32.000Z</time>
      </trkpt>
      <trkpt lat="47.21338" lon="-1.55144">
        <ele>56</ele>
        <time>2021-08-28T12:48:34.000Z</time>
      </trkpt>
      <trkpt lat="47.21331" lon="-1.55164">
        <ele>56</ele>
        <time>2021-08-28T12:48:36.000Z</time>
      </trkpt>
      <trkpt lat="47.21323" lon="-1.55184">
        <ele>56</ele>
        <time>2021-08-28T12:48:38.000Z</time>
      </trkpt>
      <trkpt lat="47.21316" lon="-1.55203">
        <ele>56</ele>
        <time>2021-08-28T12:48:40.000Z</time>
      </trkpt>
      <trkpt lat="47.21308" lon="-1.55223">
        <ele>56</ele>
        <time>2021-08-28T12:48:42.000Z</time>
      </trkpt>
      <trkpt lat="47.213" lon="-1.55242">
        <ele>56</ele>
        <time>2021-08-28T12:48:44.000Z</time>
      </trkpt>
      <trkpt lat="47.21293" lon="-1.5526">
        <ele>56</ele>
        <time>2021-08-28T12:48:46.000Z</time>
      </trkpt>
      <trkpt lat="47.21286" lon="-1.55278">
        <ele>57</ele>
        <time>2021-08-28T12:48:48.000Z</time>
      </trkpt>
      <trkpt lat="47.21279" lon="-1.55294">
        <ele>57</ele>
        <time>2021-08-28T12:48:50.000Z</time>
      </trkpt>
      <trkpt lat="47.21268" lon="-1.55296">
        <ele>57</ele>
        <time>2021-08-28T12:48:52.000Z</time>
      </trkpt>
      <trkpt lat="47.21256" lon="-1.55296">
        <ele>57</ele>
        <time>2021-08-28T12:48:54.000Z</time>
      </trkpt>
      <trkpt lat="47.21252" lon="-1.55312">
        <ele>57</ele>
        <time>2021-08-28T12:48:56.000Z</time>
      </trkpt>
      <trkpt lat="47.21259" lon="-1.5533">
        <ele>58</ele>
        <time>2021-08-28T12:48:58.000Z</time>
      </trkpt>
      <trkpt lat="47.21269" lon="-1.55345">
        <ele>58</ele>
        <time>2021-08-28T12:49:00.000Z</time>
      </trkpt>
      <trkpt lat="47.21279" lon="-1.55357">
        <ele>57</ele>
        <time>2021-08-28T12:49:02.000Z</time>
      </trkpt>
      <trkpt lat="47.21282" lon="-1.55373">
        <ele>58</ele>
        <time>2021-08-28T12:49:04.000Z</time>
      </trkpt>
      <trkpt lat="47.21277" lon="-1.55388">
        <ele>57</ele>
        <time>2021-08-28T12:49:06.000Z</time>
      </trkpt>
      <trkpt lat="47.21269" lon="-1.554">
        <ele>57</ele>
        <time>2021-08-28T12:49:09.000Z</time>
      </trkpt>
      <trkpt lat="47.21259" lon="-1.55417">
        <ele>57</ele>
        <time>2021-08-28T12:49:12.000Z</time>
      </trkpt>
      <trkpt lat="47.2125" lon="-1.55432">
        <ele>57</ele>
        <time>2021-08-28T12:49:14.000Z</time>
      </trkpt>
      <trkpt lat="47.21239" lon="-1.55448">
        <ele>57</ele>
        <time>2021-08-28T12:49:16.000Z</time>
      </trkpt>
      <trkpt lat="47.21229" lon="-1.55465">
        <ele>57</ele>
        <time>2021-08-28T12:49:18.000Z</time>
      </trkpt>
      <trkpt lat="47.21219" lon="-1.55483">
        <ele>57</ele>
        <time>2021-08-28T12:49:20.000Z</time>
      </trkpt>
      <trkpt lat="47.21212" lon="-1.55502">
        <ele>57</ele>
        <time>2021-08-28T12:49:22.000Z</time>
      </trkpt>
      <trkpt lat="47.21207" lon="-1.55523">
        <ele>57</ele>
        <time>2021-08-28T12:49:24.000Z</time>
      </trkpt>
      <trkpt lat="47.21202" lon="-1.55542">
        <ele>58</ele>
        <time>2021-08-28T12:49:26.000Z</time>
      </trkpt>
      <trkpt lat="47.21197" lon="-1.55562">
        <ele>58</ele>
        <time>2021-08-28T12:49:28.000Z</time>
      </trkpt>
      <trkpt lat="47.21191" lon="-1.55582">
        <ele>57</ele>
        <time>2021-08-28T12:49:30.000Z</time>
      </trkpt>
      <trkpt lat="47.21185" lon="-1.55601">
        <ele>57</ele>
        <time>2021-08-28T12:49:32.000Z</time>
      </trkpt>
      <trkpt lat="47.21178" lon="-1.5562">
        <ele>57</ele>
        <time>2021-08-28T12:49:34.000Z</time>
      </trkpt>
      <trkpt lat="47.21173" lon="-1.5564">
        <ele>57</ele>
        <time>2021-08-28T12:49:36.000Z</time>
      </trkpt>
      <trkpt lat="47.21169" lon="-1.55656">
        <ele>57</ele>
        <time>2021-08-28T12:49:39.000Z</time>
      </trkpt>
      <trkpt lat="47.21165" lon="-1.55673">
        <ele>57</ele>
        <time>2021-08-28T12:49:43.000Z</time>
      </trkpt>
      <trkpt lat="47.21155" lon="-1.55679">
        <ele>57</ele>
        <time>2021-08-28T12:49:46.000Z</time>
      </trkpt>
      <trkpt lat="47.21144" lon="-1.55671">
        <ele>56</ele>
        <time>2021-08-28T12:49:49.000Z</time>
      </trkpt>
      <trkpt lat="47.21133" lon="-1.55672">
        <ele>56</ele>
        <time>2021-08-28T12:49:52.000Z</time>
      </trkpt>
      <trkpt lat="47.2113" lon="-1.5569">
        <ele>55</ele>
        <time>2021-08-28T12:49:54.000Z</time>
      </trkpt>
      <trkpt lat="47.21126" lon="-1.5571">
        <ele>54</ele>
        <time>2021-08-28T12:49:56.000Z</time>
      </trkpt>
      <trkpt lat="47.21121" lon="-1.55731">
        <ele>54</ele>
        <time>2021-08-28T12:49:58.000Z</time>
      </trkpt>
      <trkpt lat="47.21116" lon="-1.5575">
        <ele>54</ele>
        <time>2021-08-28T12:50:00.000Z</time>
      </trkpt>
      <trkpt lat="47.2111" lon="-1.55769">
        <ele>53</ele>
        <time>2021-08-28T12:50:02.000Z</time>
      </trkpt>
      <trkpt lat="47.21104" lon="-1.55786">
        <ele>53</ele>
        <time>2021-08-28T12:50:04.000Z</time>
      </trkpt>
      <trkpt lat="47.21097" lon="-1.55804">
        <ele>53</ele>
        <time>2021-08-28T12:50:06.000Z</time>
      </trkpt>
      <trkpt lat="47.2109" lon="-1.55822">
        <ele>53</ele>
        <time>2021-08-28T12:50:08.000Z</time>
      </trkpt>
      <trkpt lat="47.21083" lon="-1.55841">
        <ele>53</ele>
        <time>2021-08-28T12:50:10.000Z</time>
      </trkpt>
      <trkpt lat="47.21076" lon="-1.55861">
        <ele>53</ele>
        <time>2021-08-28T12:50:12.000Z</time>
      </trkpt>
      <trkpt lat="47.21069" lon="-1.55879">
        <ele>53</ele>
        <time>2021-08-28T12:50:14.000Z</time>
      </trkpt>
      <trkpt lat="47.21063" lon="-1.55896">
        <ele>53</ele>
        <time>2021-08-28T12:50:16.000Z</time>
      </trkpt>
      <trkpt lat="47.21057" lon="-1.55911">
        <ele>52</ele>
        <time>2021-08-28T12:50:18.000Z</time>
      </trkpt>
      <trkpt lat="47.21052" lon="-1.55923">
        <ele>52</ele>
        <time>2021-08-28T12:50:20.000Z</time>
      </trkpt>
      <trkpt lat="47.21048" lon="-1.55935">
        <ele>53</ele>
        <time>2021-08-28T12:50:22.000Z</time>
      </trkpt>
      <trkpt lat="47.21042" lon="-1.55952">
        <ele>54</ele>
        <time>2021-08-28T12:50:24.000Z</time>
      </trkpt>
      <trkpt lat="47.21036" lon="-1.55967">
        <ele>54</ele>
        <time>2021-08-28T12:50:26.000Z</time>
      </trkpt>
      <trkpt lat="47.2103" lon="-1.55983">
        <ele>54</ele>
        <time>2021-08-28T12:50:28.000Z</time>
      </trkpt>
      <trkpt lat="47.21024" lon="-1.56">
        <ele>55</ele>
        <time>2021-08-28T12:50:30.000Z</time>
      </trkpt>
      <trkpt lat="47.21018" lon="-1.56018">
        <ele>55</ele>
        <time>2021-08-28T12:50:32.000Z</time>
      </trkpt>
      <trkpt lat="47.21011" lon="-1.56036">
        <ele>56</ele>
        <time>2021-08-28T12:50:34.000Z</time>
      </trkpt>
      <trkpt lat="47.21003" lon="-1.56055">
        <ele>55</ele>
        <time>2021-08-28T12:50:36.000Z</time>
      </trkpt>
      <trkpt lat="47.20996" lon="-1.5607">
        <ele>56</ele>
        <time>2021-08-28T12:50:38.000Z</time>
      </trkpt>
      <trkpt lat="47.20988" lon="-1.56083">
        <ele>56</ele>
        <time>2021-08-28T12:50:40.000Z</time>
      </trkpt>
      <trkpt lat="47.20987" lon="-1.56098">
        <ele>55</ele>
        <time>2021-08-28T12:50:42.000Z</time>
      </trkpt>
      <trkpt lat="47.20991" lon="-1.56112">
        <ele>56</ele>
        <time>2021-08-28T12:50:45.000Z</time>
      </trkpt>
      <trkpt lat="47.20987" lon="-1.56125">
        <ele>57</ele>
        <time>2021-08-28T12:50:48.000Z</time>
      </trkpt>
      <trkpt lat="47.2098" lon="-1.56135">
        <ele>56</ele>
        <time>2021-08-28T12:50:50.000Z</time>
      </trkpt>
      <trkpt lat="47.20981" lon="-1.56152">
        <ele>56</ele>
        <time>2021-08-28T12:50:52.000Z</time>
      </trkpt>
      <trkpt lat="47.20986" lon="-1.56167">
        <ele>55</ele>
        <time>2021-08-28T12:50:55.000Z</time>
      </trkpt>
      <trkpt lat="47.20974" lon="-1.56169">
        <ele>55</ele>
        <time>2021-08-28T12:50:59.000Z</time>
      </trkpt>
      <trkpt lat="47.20965" lon="-1.56169">
        <ele>56</ele>
        <time>2021-08-28T12:51:01.000Z</time>
      </trkpt>
      <trkpt lat="47.20953" lon="-1.56166">
        <ele>58</ele>
        <time>2021-08-28T12:51:03.000Z</time>
      </trkpt>
      <trkpt lat="47.20939" lon="-1.56162">
        <ele>58</ele>
        <time>2021-08-28T12:51:05.000Z</time>
      </trkpt>
      <trkpt lat="47.20926" lon="-1.56158">
        <ele>58</ele>
        <time>2021-08-28T12:51:07.000Z</time>
      </trkpt>
      <trkpt lat="47.20913" lon="-1.56158">
        <ele>57</ele>
        <time>2021-08-28T12:51:09.000Z</time>
      </trkpt>
      <trkpt lat="47.20902" lon="-1.56155">
        <ele>57</ele>
        <time>2021-08-28T12:51:11.000Z</time>
      </trkpt>
      <trkpt lat="47.2089" lon="-1.56151">
        <ele>56</ele>
        <time>2021-08-28T12:51:13.000Z</time>
      </trkpt>
      <trkpt lat="47.2088" lon="-1.56149">
        <ele>56</ele>
        <time>2021-08-28T12:51:15.000Z</time>
      </trkpt>
      <trkpt lat="47.20868" lon="-1.56146">
        <ele>55</ele>
        <time>2021-08-28T12:51:17.000Z</time>
      </trkpt>
      <trkpt lat="47.20855" lon="-1.56141">
        <ele>55</ele>
        <time>2021-08-28T12:51:19.000Z</time>
      </trkpt>
      <trkpt lat="47.20844" lon="-1.56138">
        <ele>54</ele>
        <time>2021-08-28T12:51:21.000Z</time>
      </trkpt>
      <trkpt lat="47.20835" lon="-1.56149">
        <ele>53</ele>
        <time>2021-08-28T12:51:23.000Z</time>
      </trkpt>
      <trkpt lat="47.20834" lon="-1.56167">
        <ele>53</ele>
        <time>2021-08-28T12:51:25.000Z</time>
      </trkpt>
      <trkpt lat="47.20834" lon="-1.56187">
        <ele>53</ele>
        <time>2021-08-28T12:51:27.000Z</time>
      </trkpt>
      <trkpt lat="47.20834" lon="-1.56207">
        <ele>53</ele>
        <time>2021-08-28T12:51:29.000Z</time>
      </trkpt>
      <trkpt lat="47.20833" lon="-1.56226">
        <ele>53</ele>
        <time>2021-08-28T12:51:31.000Z</time>
      </trkpt>
      <trkpt lat="47.20833" lon="-1.56246">
        <ele>53</ele>
        <time>2021-08-28T12:51:33.000Z</time>
      </trkpt>
      <trkpt lat="47.20832" lon="-1.56266">
        <ele>53</ele>
        <time>2021-08-28T12:51:35.000Z</time>
      </trkpt>
      <trkpt lat="47.20832" lon="-1.56285">
        <ele>53</ele>
        <time>2021-08-28T12:51:37.000Z</time>
      </trkpt>
      <trkpt lat="47.2083" lon="-1.56305">
        <ele>52</ele>
        <time>2021-08-28T12:51:39.000Z</time>
      </trkpt>
      <trkpt lat="47.20826" lon="-1.56324">
        <ele>52</ele>
        <time>2021-08-28T12:51:41.000Z</time>
      </trkpt>
      <trkpt lat="47.20821" lon="-1.56343">
        <ele>52</ele>
        <time>2021-08-28T12:51:43.000Z</time>
      </trkpt>
      <trkpt lat="47.20816" lon="-1.56362">
        <ele>52</ele>
        <time>2021-08-28T12:51:45.000Z</time>
      </trkpt>
      <trkpt lat="47.20811" lon="-1.56382">
        <ele>52</ele>
        <time>2021-08-28T12:51:47.000Z</time>
      </trkpt>
      <trkpt lat="47.20807" lon="-1.56401">
        <ele>52</ele>
        <time>2021-08-28T12:51:49.000Z</time>
      </trkpt>
      <trkpt lat="47.20802" lon="-1.5642">
        <ele>52</ele>
        <time>2021-08-28T12:51:51.000Z</time>
      </trkpt>
      <trkpt lat="47.20797" lon="-1.56438">
        <ele>51</ele>
        <time>2021-08-28T12:51:53.000Z</time>
      </trkpt>
      <trkpt lat="47.20792" lon="-1.56456">
        <ele>51</ele>
        <time>2021-08-28T12:51:55.000Z</time>
      </trkpt>
      <trkpt lat="47.20787" lon="-1.56473">
        <ele>51</ele>
        <time>2021-08-28T12:51:57.000Z</time>
      </trkpt>
      <trkpt lat="47.20783" lon="-1.5649">
        <ele>51</ele>
        <time>2021-08-28T12:51:59.000Z</time>
      </trkpt>
      <trkpt lat="47.20779" lon="-1.56506">
        <ele>51</ele>
        <time>2021-08-28T12:52:01.000Z</time>
      </trkpt>
      <trkpt lat="47.20772" lon="-1.56517">
        <ele>51</ele>
        <time>2021-08-28T12:52:03.000Z</time>
      </trkpt>
      <trkpt lat="47.20762" lon="-1.56509">
        <ele>52</ele>
        <time>2021-08-28T12:52:05.000Z</time>
      </trkpt>
      <trkpt lat="47.20754" lon="-1.56501">
        <ele>51</ele>
        <time>2021-08-28T12:52:07.000Z</time>
      </trkpt>
      <trkpt lat="47.20747" lon="-1.56493">
        <ele>52</ele>
        <time>2021-08-28T12:52:09.000Z</time>
      </trkpt>
      <trkpt lat="47.20739" lon="-1.56502">
        <ele>54</ele>
        <time>2021-08-28T12:52:20.000Z</time>
      </trkpt>
      <trkpt lat="47.20736" lon="-1.56524">
        <ele>55</ele>
        <time>2021-08-28T12:52:23.000Z</time>
      </trkpt>
      <trkpt lat="47.2073" lon="-1.56544">
        <ele>56</ele>
        <time>2021-08-28T12:52:25.000Z</time>
      </trkpt>
      <trkpt lat="47.20718" lon="-1.56557">
        <ele>55</ele>
        <time>2021-08-28T12:52:27.000Z</time>
      </trkpt>
      <trkpt lat="47.20707" lon="-1.56565">
        <ele>55</ele>
        <time>2021-08-28T12:52:29.000Z</time>
      </trkpt>
      <trkpt lat="47.20696" lon="-1.56564">
        <ele>55</ele>
        <time>2021-08-28T12:52:31.000Z</time>
      </trkpt>
      <trkpt lat="47.20686" lon="-1.56572">
        <ele>55</ele>
        <time>2021-08-28T12:52:33.000Z</time>
      </trkpt>
      <trkpt lat="47.20676" lon="-1.56585">
        <ele>55</ele>
        <time>2021-08-28T12:52:35.000Z</time>
      </trkpt>
      <trkpt lat="47.20664" lon="-1.56597">
        <ele>54</ele>
        <time>2021-08-28T12:52:37.000Z</time>
      </trkpt>
      <trkpt lat="47.20649" lon="-1.56606">
        <ele>54</ele>
        <time>2021-08-28T12:52:39.000Z</time>
      </trkpt>
      <trkpt lat="47.20634" lon="-1.56614">
        <ele>54</ele>
        <time>2021-08-28T12:52:41.000Z</time>
      </trkpt>
      <trkpt lat="47.20619" lon="-1.56621">
        <ele>54</ele>
        <time>2021-08-28T12:52:43.000Z</time>
      </trkpt>
      <trkpt lat="47.20606" lon="-1.56628">
        <ele>54</ele>
        <time>2021-08-28T12:52:45.000Z</time>
      </trkpt>
      <trkpt lat="47.20593" lon="-1.56635">
        <ele>54</ele>
        <time>2021-08-28T12:52:47.000Z</time>
      </trkpt>
      <trkpt lat="47.2058" lon="-1.56646">
        <ele>54</ele>
        <time>2021-08-28T12:52:49.000Z</time>
      </trkpt>
      <trkpt lat="47.2057" lon="-1.56662">
        <ele>53</ele>
        <time>2021-08-28T12:52:51.000Z</time>
      </trkpt>
      <trkpt lat="47.20562" lon="-1.56677">
        <ele>53</ele>
        <time>2021-08-28T12:52:53.000Z</time>
      </trkpt>
      <trkpt lat="47.20554" lon="-1.56693">
        <ele>53</ele>
        <time>2021-08-28T12:52:55.000Z</time>
      </trkpt>
      <trkpt lat="47.20544" lon="-1.56707">
        <ele>53</ele>
        <time>2021-08-28T12:52:57.000Z</time>
      </trkpt>
      <trkpt lat="47.2053" lon="-1.56716">
        <ele>53</ele>
        <time>2021-08-28T12:52:59.000Z</time>
      </trkpt>
      <trkpt lat="47.20515" lon="-1.56714">
        <ele>53</ele>
        <time>2021-08-28T12:53:01.000Z</time>
      </trkpt>
      <trkpt lat="47.20502" lon="-1.56713">
        <ele>53</ele>
        <time>2021-08-28T12:53:03.000Z</time>
      </trkpt>
      <trkpt lat="47.20488" lon="-1.56711">
        <ele>52</ele>
        <time>2021-08-28T12:53:05.000Z</time>
      </trkpt>
      <trkpt lat="47.20475" lon="-1.56707">
        <ele>53</ele>
        <time>2021-08-28T12:53:07.000Z</time>
      </trkpt>
      <trkpt lat="47.2046" lon="-1.56705">
        <ele>53</ele>
        <time>2021-08-28T12:53:09.000Z</time>
      </trkpt>
      <trkpt lat="47.20446" lon="-1.56703">
        <ele>53</ele>
        <time>2021-08-28T12:53:11.000Z</time>
      </trkpt>
      <trkpt lat="47.20433" lon="-1.56702">
        <ele>54</ele>
        <time>2021-08-28T12:53:13.000Z</time>
      </trkpt>
      <trkpt lat="47.20421" lon="-1.567">
        <ele>56</ele>
        <time>2021-08-28T12:53:15.000Z</time>
      </trkpt>
      <trkpt lat="47.2041" lon="-1.56699">
        <ele>56</ele>
        <time>2021-08-28T12:53:17.000Z</time>
      </trkpt>
      <trkpt lat="47.20403" lon="-1.5671">
        <ele>57</ele>
        <time>2021-08-28T12:53:20.000Z</time>
      </trkpt>
      <trkpt lat="47.20397" lon="-1.56726">
        <ele>58</ele>
        <time>2021-08-28T12:53:22.000Z</time>
      </trkpt>
      <trkpt lat="47.20396" lon="-1.56746">
        <ele>58</ele>
        <time>2021-08-28T12:53:24.000Z</time>
      </trkpt>
      <trkpt lat="47.20395" lon="-1.56766">
        <ele>59</ele>
        <time>2021-08-28T12:53:26.000Z</time>
      </trkpt>
      <trkpt lat="47.20393" lon="-1.56784">
        <ele>61</ele>
        <time>2021-08-28T12:53:28.000Z</time>
      </trkpt>
      <trkpt lat="47.20392" lon="-1.56805">
        <ele>61</ele>
        <time>2021-08-28T12:53:30.000Z</time>
      </trkpt>
      <trkpt lat="47.2039" lon="-1.56825">
        <ele>62</ele>
        <time>2021-08-28T12:53:32.000Z</time>
      </trkpt>
      <trkpt lat="47.20389" lon="-1.56844">
        <ele>63</ele>
        <time>2021-08-28T12:53:34.000Z</time>
      </trkpt>
      <trkpt lat="47.20388" lon="-1.56864">
        <ele>64</ele>
        <time>2021-08-28T12:53:36.000Z</time>
      </trkpt>
      <trkpt lat="47.20387" lon="-1.56884">
        <ele>65</ele>
        <time>2021-08-28T12:53:38.000Z</time>
      </trkpt>
      <trkpt lat="47.20386" lon="-1.56905">
        <ele>65</ele>
        <time>2021-08-28T12:53:40.000Z</time>
      </trkpt>
      <trkpt lat="47.20384" lon="-1.56927">
        <ele>65</ele>
        <time>2021-08-28T12:53:42.000Z</time>
      </trkpt>
      <trkpt lat="47.2038" lon="-1.56944">
        <ele>61</ele>
        <time>2021-08-28T12:53:44.000Z</time>
      </trkpt>
      <trkpt lat="47.20377" lon="-1.56964">
        <ele>60</ele>
        <time>2021-08-28T12:53:46.000Z</time>
      </trkpt>
      <trkpt lat="47.20375" lon="-1.56984">
        <ele>58</ele>
        <time>2021-08-28T12:53:48.000Z</time>
      </trkpt>
      <trkpt lat="47.20372" lon="-1.57002">
        <ele>58</ele>
        <time>2021-08-28T12:53:50.000Z</time>
      </trkpt>
      <trkpt lat="47.2037" lon="-1.57022">
        <ele>58</ele>
        <time>2021-08-28T12:53:52.000Z</time>
      </trkpt>
      <trkpt lat="47.20367" lon="-1.57041">
        <ele>57</ele>
        <time>2021-08-28T12:53:54.000Z</time>
      </trkpt>
      <trkpt lat="47.2036" lon="-1.57056">
        <ele>56</ele>
        <time>2021-08-28T12:53:56.000Z</time>
      </trkpt>
      <trkpt lat="47.20354" lon="-1.5707">
        <ele>56</ele>
        <time>2021-08-28T12:53:58.000Z</time>
      </trkpt>
      <trkpt lat="47.20347" lon="-1.57085">
        <ele>55</ele>
        <time>2021-08-28T12:54:00.000Z</time>
      </trkpt>
      <trkpt lat="47.20338" lon="-1.57099">
        <ele>55</ele>
        <time>2021-08-28T12:54:02.000Z</time>
      </trkpt>
      <trkpt lat="47.20328" lon="-1.5711">
        <ele>55</ele>
        <time>2021-08-28T12:54:04.000Z</time>
      </trkpt>
      <trkpt lat="47.20316" lon="-1.57119">
        <ele>56</ele>
        <time>2021-08-28T12:54:06.000Z</time>
      </trkpt>
      <trkpt lat="47.20304" lon="-1.57127">
        <ele>56</ele>
        <time>2021-08-28T12:54:08.000Z</time>
      </trkpt>
      <trkpt lat="47.20291" lon="-1.57136">
        <ele>56</ele>
        <time>2021-08-28T12:54:10.000Z</time>
      </trkpt>
      <trkpt lat="47.20278" lon="-1.57144">
        <ele>56</ele>
        <time>2021-08-28T12:54:12.000Z</time>
      </trkpt>
      <trkpt lat="47.20265" lon="-1.57151">
        <ele>55</ele>
        <time>2021-08-28T12:54:14.000Z</time>
      </trkpt>
      <trkpt lat="47.20253" lon="-1.57159">
        <ele>56</ele>
        <time>2021-08-28T12:54:16.000Z</time>
      </trkpt>
      <trkpt lat="47.20241" lon="-1.57167">
        <ele>56</ele>
        <time>2021-08-28T12:54:18.000Z</time>
      </trkpt>
      <trkpt lat="47.20228" lon="-1.57176">
        <ele>56</ele>
        <time>2021-08-28T12:54:20.000Z</time>
      </trkpt>
      <trkpt lat="47.20215" lon="-1.57185">
        <ele>56</ele>
        <time>2021-08-28T12:54:22.000Z</time>
      </trkpt>
      <trkpt lat="47.20202" lon="-1.57193">
        <ele>55</ele>
        <time>2021-08-28T12:54:24.000Z</time>
      </trkpt>
      <trkpt lat="47.20189" lon="-1.57202">
        <ele>55</ele>
        <time>2021-08-28T12:54:26.000Z</time>
      </trkpt>
      <trkpt lat="47.20176" lon="-1.57211">
        <ele>55</ele>
        <time>2021-08-28T12:54:28.000Z</time>
      </trkpt>
      <trkpt lat="47.20163" lon="-1.57221">
        <ele>55</ele>
        <time>2021-08-28T12:54:30.000Z</time>
      </trkpt>
      <trkpt lat="47.2015" lon="-1.57229">
        <ele>55</ele>
        <time>2021-08-28T12:54:32.000Z</time>
      </trkpt>
      <trkpt lat="47.20137" lon="-1.57237">
        <ele>55</ele>
        <time>2021-08-28T12:54:34.000Z</time>
      </trkpt>
      <trkpt lat="47.20124" lon="-1.57246">
        <ele>56</ele>
        <time>2021-08-28T12:54:36.000Z</time>
      </trkpt>
      <trkpt lat="47.20111" lon="-1.57254">
        <ele>56</ele>
        <time>2021-08-28T12:54:38.000Z</time>
      </trkpt>
      <trkpt lat="47.20098" lon="-1.57262">
        <ele>56</ele>
        <time>2021-08-28T12:54:40.000Z</time>
      </trkpt>
      <trkpt lat="47.20085" lon="-1.57271">
        <ele>56</ele>
        <time>2021-08-28T12:54:42.000Z</time>
      </trkpt>
      <trkpt lat="47.20073" lon="-1.57282">
        <ele>56</ele>
        <time>2021-08-28T12:54:44.000Z</time>
      </trkpt>
      <trkpt lat="47.20061" lon="-1.57293">
        <ele>56</ele>
        <time>2021-08-28T12:54:46.000Z</time>
      </trkpt>
      <trkpt lat="47.20049" lon="-1.57302">
        <ele>56</ele>
        <time>2021-08-28T12:54:48.000Z</time>
      </trkpt>
      <trkpt lat="47.20036" lon="-1.57311">
        <ele>55</ele>
        <time>2021-08-28T12:54:50.000Z</time>
      </trkpt>
      <trkpt lat="47.20024" lon="-1.5732">
        <ele>56</ele>
        <time>2021-08-28T12:54:52.000Z</time>
      </trkpt>
      <trkpt lat="47.20011" lon="-1.57328">
        <ele>56</ele>
        <time>2021-08-28T12:54:54.000Z</time>
      </trkpt>
      <trkpt lat="47.2" lon="-1.57337">
        <ele>56</ele>
        <time>2021-08-28T12:54:56.000Z</time>
      </trkpt>
      <trkpt lat="47.19986" lon="-1.57338">
        <ele>57</ele>
        <time>2021-08-28T12:54:58.000Z</time>
      </trkpt>
      <trkpt lat="47.19979" lon="-1.57321">
        <ele>57</ele>
        <time>2021-08-28T12:55:00.000Z</time>
      </trkpt>
      <trkpt lat="47.19979" lon="-1.573">
        <ele>56</ele>
        <time>2021-08-28T12:55:02.000Z</time>
      </trkpt>
      <trkpt lat="47.19978" lon="-1.57281">
        <ele>56</ele>
        <time>2021-08-28T12:55:04.000Z</time>
      </trkpt>
      <trkpt lat="47.19978" lon="-1.57262">
        <ele>56</ele>
        <time>2021-08-28T12:55:06.000Z</time>
      </trkpt>
      <trkpt lat="47.19978" lon="-1.57243">
        <ele>56</ele>
        <time>2021-08-28T12:55:08.000Z</time>
      </trkpt>
      <trkpt lat="47.19978" lon="-1.57224">
        <ele>56</ele>
        <time>2021-08-28T12:55:10.000Z</time>
      </trkpt>
      <trkpt lat="47.19979" lon="-1.57204">
        <ele>55</ele>
        <time>2021-08-28T12:55:12.000Z</time>
      </trkpt>
      <trkpt lat="47.19979" lon="-1.57185">
        <ele>55</ele>
        <time>2021-08-28T12:55:14.000Z</time>
      </trkpt>
      <trkpt lat="47.19978" lon="-1.57165">
        <ele>55</ele>
        <time>2021-08-28T12:55:16.000Z</time>
      </trkpt>
      <trkpt lat="47.19976" lon="-1.57144">
        <ele>55</ele>
        <time>2021-08-28T12:55:18.000Z</time>
      </trkpt>
      <trkpt lat="47.19973" lon="-1.57126">
        <ele>55</ele>
        <time>2021-08-28T12:55:20.000Z</time>
      </trkpt>
      <trkpt lat="47.19968" lon="-1.57108">
        <ele>54</ele>
        <time>2021-08-28T12:55:22.000Z</time>
      </trkpt>
      <trkpt lat="47.19964" lon="-1.5709">
        <ele>54</ele>
        <time>2021-08-28T12:55:24.000Z</time>
      </trkpt>
      <trkpt lat="47.1996" lon="-1.57072">
        <ele>54</ele>
        <time>2021-08-28T12:55:26.000Z</time>
      </trkpt>
      <trkpt lat="47.19956" lon="-1.57054">
        <ele>53</ele>
        <time>2021-08-28T12:55:28.000Z</time>
      </trkpt>
      <trkpt lat="47.1995" lon="-1.57037">
        <ele>54</ele>
        <time>2021-08-28T12:55:30.000Z</time>
      </trkpt>
      <trkpt lat="47.1995" lon="-1.57019">
        <ele>53</ele>
        <time>2021-08-28T12:55:32.000Z</time>
      </trkpt>
      <trkpt lat="47.1995" lon="-1.57001">
        <ele>53</ele>
        <time>2021-08-28T12:55:34.000Z</time>
      </trkpt>
      <trkpt lat="47.1995" lon="-1.56983">
        <ele>53</ele>
        <time>2021-08-28T12:55:36.000Z</time>
      </trkpt>
      <trkpt lat="47.1995" lon="-1.56965">
        <ele>53</ele>
        <time>2021-08-28T12:55:38.000Z</time>
      </trkpt>
      <trkpt lat="47.1995" lon="-1.56947">
        <ele>53</ele>
        <time>2021-08-28T12:55:40.000Z</time>
      </trkpt>
      <trkpt lat="47.1995" lon="-1.56928">
        <ele>53</ele>
        <time>2021-08-28T12:55:42.000Z</time>
      </trkpt>
      <trkpt lat="47.1995" lon="-1.5691">
        <ele>53</ele>
        <time>2021-08-28T12:55:44.000Z</time>
      </trkpt>
      <trkpt lat="47.19951" lon="-1.56893">
        <ele>53</ele>
        <time>2021-08-28T12:55:46.000Z</time>
      </trkpt>
      <trkpt lat="47.1995" lon="-1.56875">
        <ele>53</ele>
        <time>2021-08-28T12:55:48.000Z</time>
      </trkpt>
      <trkpt lat="47.1995" lon="-1.56856">
        <ele>53</ele>
        <time>2021-08-28T12:55:50.000Z</time>
      </trkpt>
      <trkpt lat="47.1995" lon="-1.56839">
        <ele>53</ele>
        <time>2021-08-28T12:55:52.000Z</time>
      </trkpt>
      <trkpt lat="47.1995" lon="-1.56821">
        <ele>53</ele>
        <time>2021-08-28T12:55:54.000Z</time>
      </trkpt>
      <trkpt lat="47.19951" lon="-1.56802">
        <ele>53</ele>
        <time>2021-08-28T12:55:56.000Z</time>
      </trkpt>
      <trkpt lat="47.19951" lon="-1.56785">
        <ele>53</ele>
        <time>2021-08-28T12:55:58.000Z</time>
      </trkpt>
      <trkpt lat="47.19951" lon="-1.56767">
        <ele>53</ele>
        <time>2021-08-28T12:56:00.000Z</time>
      </trkpt>
      <trkpt lat="47.19951" lon="-1.5675">
        <ele>53</ele>
        <time>2021-08-28T12:56:02.000Z</time>
      </trkpt>
      <trkpt lat="47.19951" lon="-1.56732">
        <ele>53</ele>
        <time>2021-08-28T12:56:04.000Z</time>
      </trkpt>
      <trkpt lat="47.19951" lon="-1.56714">
        <ele>53</ele>
        <time>2021-08-28T12:56:06.000Z</time>
      </trkpt>
      <trkpt lat="47.19951" lon="-1.56696">
        <ele>53</ele>
        <time>2021-08-28T12:56:08.000Z</time>
      </trkpt>
      <trkpt lat="47.19952" lon="-1.56679">
        <ele>53</ele>
        <time>2021-08-28T12:56:10.000Z</time>
      </trkpt>
      <trkpt lat="47.19952" lon="-1.56661">
        <ele>53</ele>
        <time>2021-08-28T12:56:12.000Z</time>
      </trkpt>
      <trkpt lat="47.19952" lon="-1.56643">
        <ele>53</ele>
        <time>2021-08-28T12:56:14.000Z</time>
      </trkpt>
      <trkpt lat="47.19952" lon="-1.56625">
        <ele>53</ele>
        <time>2021-08-28T12:56:16.000Z</time>
      </trkpt>
      <trkpt lat="47.19952" lon="-1.56608">
        <ele>53</ele>
        <time>2021-08-28T12:56:18.000Z</time>
      </trkpt>
      <trkpt lat="47.19952" lon="-1.56591">
        <ele>53</ele>
        <time>2021-08-28T12:56:20.000Z</time>
      </trkpt>
      <trkpt lat="47.19952" lon="-1.56574">
        <ele>53</ele>
        <time>2021-08-28T12:56:22.000Z</time>
      </trkpt>
      <trkpt lat="47.19951" lon="-1.56556">
        <ele>53</ele>
        <time>2021-08-28T12:56:24.000Z</time>
      </trkpt>
      <trkpt lat="47.19951" lon="-1.56538">
        <ele>53</ele>
        <time>2021-08-28T12:56:26.000Z</time>
      </trkpt>
      <trkpt lat="47.19952" lon="-1.56521">
        <ele>53</ele>
        <time>2021-08-28T12:56:28.000Z</time>
      </trkpt>
      <trkpt lat="47.19952" lon="-1.56504">
        <ele>53</ele>
        <time>2021-08-28T12:56:30.000Z</time>
      </trkpt>
      <trkpt lat="47.19953" lon="-1.56486">
        <ele>53</ele>
        <time>2021-08-28T12:56:32.000Z</time>
      </trkpt>
      <trkpt lat="47.19954" lon="-1.56469">
        <ele>53</ele>
        <time>2021-08-28T12:56:34.000Z</time>
      </trkpt>
      <trkpt lat="47.19957" lon="-1.56451">
        <ele>53</ele>
        <time>2021-08-28T12:56:36.000Z</time>
      </trkpt>
      <trkpt lat="47.19961" lon="-1.56435">
        <ele>53</ele>
        <time>2021-08-28T12:56:38.000Z</time>
      </trkpt>
      <trkpt lat="47.19965" lon="-1.56418">
        <ele>53</ele>
        <time>2021-08-28T12:56:40.000Z</time>
      </trkpt>
      <trkpt lat="47.19968" lon="-1.56401">
        <ele>53</ele>
        <time>2021-08-28T12:56:42.000Z</time>
      </trkpt>
      <trkpt lat="47.1997" lon="-1.56383">
        <ele>53</ele>
        <time>2021-08-28T12:56:44.000Z</time>
      </trkpt>
      <trkpt lat="47.19971" lon="-1.56365">
        <ele>53</ele>
        <time>2021-08-28T12:56:46.000Z</time>
      </trkpt>
      <trkpt lat="47.19972" lon="-1.56348">
        <ele>53</ele>
        <time>2021-08-28T12:56:48.000Z</time>
      </trkpt>
      <trkpt lat="47.19973" lon="-1.5633">
        <ele>54</ele>
        <time>2021-08-28T12:56:50.000Z</time>
      </trkpt>
      <trkpt lat="47.19974" lon="-1.56313">
        <ele>54</ele>
        <time>2021-08-28T12:56:52.000Z</time>
      </trkpt>
      <trkpt lat="47.19976" lon="-1.56295">
        <ele>54</ele>
        <time>2021-08-28T12:56:54.000Z</time>
      </trkpt>
      <trkpt lat="47.19976" lon="-1.56277">
        <ele>53</ele>
        <time>2021-08-28T12:56:56.000Z</time>
      </trkpt>
      <trkpt lat="47.19976" lon="-1.5626">
        <ele>53</ele>
        <time>2021-08-28T12:56:58.000Z</time>
      </trkpt>
      <trkpt lat="47.19976" lon="-1.56244">
        <ele>53</ele>
        <time>2021-08-28T12:57:00.000Z</time>
      </trkpt>
      <trkpt lat="47.19976" lon="-1.5623">
        <ele>53</ele>
        <time>2021-08-28T12:57:02.000Z</time>
      </trkpt>
      <trkpt lat="47.19976" lon="-1.56211">
        <ele>54</ele>
        <time>2021-08-28T12:57:05.000Z</time>
      </trkpt>
      <trkpt lat="47.19976" lon="-1.56195">
        <ele>54</ele>
        <time>2021-08-28T12:57:08.000Z</time>
      </trkpt>
      <trkpt lat="47.19975" lon="-1.5618">
        <ele>53</ele>
        <time>2021-08-28T12:57:11.000Z</time>
      </trkpt>
      <trkpt lat="47.19969" lon="-1.56166">
        <ele>55</ele>
        <time>2021-08-28T12:57:17.000Z</time>
      </trkpt>
      <trkpt lat="47.19959" lon="-1.56163">
        <ele>55</ele>
        <time>2021-08-28T12:57:20.000Z</time>
      </trkpt>
      <trkpt lat="47.1995" lon="-1.56166">
        <ele>56</ele>
        <time>2021-08-28T12:57:22.000Z</time>
      </trkpt>
      <trkpt lat="47.1994" lon="-1.56167">
        <ele>56</ele>
        <time>2021-08-28T12:57:24.000Z</time>
      </trkpt>
      <trkpt lat="47.19927" lon="-1.5617">
        <ele>57</ele>
        <time>2021-08-28T12:57:26.000Z</time>
      </trkpt>
      <trkpt lat="47.19912" lon="-1.56174">
        <ele>57</ele>
        <time>2021-08-28T12:57:28.000Z</time>
      </trkpt>
      <trkpt lat="47.19897" lon="-1.56176">
        <ele>58</ele>
        <time>2021-08-28T12:57:30.000Z</time>
      </trkpt>
      <trkpt lat="47.19881" lon="-1.5618">
        <ele>58</ele>
        <time>2021-08-28T12:57:32.000Z</time>
      </trkpt>
      <trkpt lat="47.19865" lon="-1.56183">
        <ele>59</ele>
        <time>2021-08-28T12:57:34.000Z</time>
      </trkpt>
      <trkpt lat="47.19848" lon="-1.56186">
        <ele>59</ele>
        <time>2021-08-28T12:57:36.000Z</time>
      </trkpt>
      <trkpt lat="47.1983" lon="-1.5619">
        <ele>59</ele>
        <time>2021-08-28T12:57:38.000Z</time>
      </trkpt>
      <trkpt lat="47.19821" lon="-1.56192">
        <ele>59</ele>
        <time>2021-08-28T12:57:39.000Z</time>
      </trkpt>
      <trkpt lat="47.19812" lon="-1.56194">
        <ele>59</ele>
        <time>2021-08-28T12:57:40.000Z</time>
      </trkpt>
      <trkpt lat="47.19803" lon="-1.56195">
        <ele>59</ele>
        <time>2021-08-28T12:57:41.000Z</time>
      </trkpt>
      <trkpt lat="47.19785" lon="-1.56199">
        <ele>59</ele>
        <time>2021-08-28T12:57:43.000Z</time>
      </trkpt>
      <trkpt lat="47.19776" lon="-1.562">
        <ele>59</ele>
        <time>2021-08-28T12:57:44.000Z</time>
      </trkpt>
      <trkpt lat="47.19766" lon="-1.56202">
        <ele>59</ele>
        <time>2021-08-28T12:57:45.000Z</time>
      </trkpt>
      <trkpt lat="47.19757" lon="-1.56204">
        <ele>58</ele>
        <time>2021-08-28T12:57:46.000Z</time>
      </trkpt>
      <trkpt lat="47.19748" lon="-1.56206">
        <ele>58</ele>
        <time>2021-08-28T12:57:47.000Z</time>
      </trkpt>
      <trkpt lat="47.19738" lon="-1.56207">
        <ele>58</ele>
        <time>2021-08-28T12:57:48.000Z</time>
      </trkpt>
      <trkpt lat="47.19729" lon="-1.56209">
        <ele>57</ele>
        <time>2021-08-28T12:57:49.000Z</time>
      </trkpt>
      <trkpt lat="47.19719" lon="-1.56211">
        <ele>56</ele>
        <time>2021-08-28T12:57:50.000Z</time>
      </trkpt>
      <trkpt lat="47.19709" lon="-1.56212">
        <ele>56</ele>
        <time>2021-08-28T12:57:51.000Z</time>
      </trkpt>
      <trkpt lat="47.19699" lon="-1.56214">
        <ele>55</ele>
        <time>2021-08-28T12:57:52.000Z</time>
      </trkpt>
      <trkpt lat="47.19689" lon="-1.56216">
        <ele>55</ele>
        <time>2021-08-28T12:57:53.000Z</time>
      </trkpt>
      <trkpt lat="47.19679" lon="-1.56219">
        <ele>54</ele>
        <time>2021-08-28T12:57:54.000Z</time>
      </trkpt>
      <trkpt lat="47.19668" lon="-1.56222">
        <ele>54</ele>
        <time>2021-08-28T12:57:55.000Z</time>
      </trkpt>
      <trkpt lat="47.19657" lon="-1.56226">
        <ele>53</ele>
        <time>2021-08-28T12:57:56.000Z</time>
      </trkpt>
      <trkpt lat="47.19647" lon="-1.56229">
        <ele>53</ele>
        <time>2021-08-28T12:57:57.000Z</time>
      </trkpt>
      <trkpt lat="47.19638" lon="-1.56237">
        <ele>52</ele>
        <time>2021-08-28T12:57:58.000Z</time>
      </trkpt>
      <trkpt lat="47.19634" lon="-1.5626">
        <ele>52</ele>
        <time>2021-08-28T12:58:00.000Z</time>
      </trkpt>
      <trkpt lat="47.19633" lon="-1.56285">
        <ele>52</ele>
        <time>2021-08-28T12:58:02.000Z</time>
      </trkpt>
      <trkpt lat="47.19631" lon="-1.56309">
        <ele>52</ele>
        <time>2021-08-28T12:58:04.000Z</time>
      </trkpt>
      <trkpt lat="47.1963" lon="-1.56334">
        <ele>52</ele>
        <time>2021-08-28T12:58:06.000Z</time>
      </trkpt>
      <trkpt lat="47.1963" lon="-1.56359">
        <ele>52</ele>
        <time>2021-08-28T12:58:08.000Z</time>
      </trkpt>
      <trkpt lat="47.1963" lon="-1.56384">
        <ele>51</ele>
        <time>2021-08-28T12:58:10.000Z</time>
      </trkpt>
      <trkpt lat="47.19631" lon="-1.56409">
        <ele>51</ele>
        <time>2021-08-28T12:58:12.000Z</time>
      </trkpt>
      <trkpt lat="47.19631" lon="-1.56433">
        <ele>51</ele>
        <time>2021-08-28T12:58:14.000Z</time>
      </trkpt>
      <trkpt lat="47.19633" lon="-1.56457">
        <ele>51</ele>
        <time>2021-08-28T12:58:16.000Z</time>
      </trkpt>
      <trkpt lat="47.19633" lon="-1.56481">
        <ele>51</ele>
        <time>2021-08-28T12:58:18.000Z</time>
      </trkpt>
      <trkpt lat="47.19634" lon="-1.56506">
        <ele>51</ele>
        <time>2021-08-28T12:58:20.000Z</time>
      </trkpt>
      <trkpt lat="47.19633" lon="-1.5653">
        <ele>51</ele>
        <time>2021-08-28T12:58:22.000Z</time>
      </trkpt>
      <trkpt lat="47.19632" lon="-1.56555">
        <ele>51</ele>
        <time>2021-08-28T12:58:24.000Z</time>
      </trkpt>
      <trkpt lat="47.19631" lon="-1.56579">
        <ele>51</ele>
        <time>2021-08-28T12:58:26.000Z</time>
      </trkpt>
      <trkpt lat="47.1963" lon="-1.56604">
        <ele>52</ele>
        <time>2021-08-28T12:58:28.000Z</time>
      </trkpt>
      <trkpt lat="47.19628" lon="-1.56628">
        <ele>52</ele>
        <time>2021-08-28T12:58:30.000Z</time>
      </trkpt>
      <trkpt lat="47.19628" lon="-1.56653">
        <ele>53</ele>
        <time>2021-08-28T12:58:32.000Z</time>
      </trkpt>
      <trkpt lat="47.19627" lon="-1.56678">
        <ele>53</ele>
        <time>2021-08-28T12:58:34.000Z</time>
      </trkpt>
      <trkpt lat="47.19626" lon="-1.56702">
        <ele>54</ele>
        <time>2021-08-28T12:58:36.000Z</time>
      </trkpt>
      <trkpt lat="47.19625" lon="-1.56726">
        <ele>54</ele>
        <time>2021-08-28T12:58:38.000Z</time>
      </trkpt>
      <trkpt lat="47.19623" lon="-1.56749">
        <ele>54</ele>
        <time>2021-08-28T12:58:40.000Z</time>
      </trkpt>
      <trkpt lat="47.19621" lon="-1.56772">
        <ele>54</ele>
        <time>2021-08-28T12:58:42.000Z</time>
      </trkpt>
      <trkpt lat="47.1962" lon="-1.56795">
        <ele>54</ele>
        <time>2021-08-28T12:58:44.000Z</time>
      </trkpt>
      <trkpt lat="47.19618" lon="-1.56818">
        <ele>53</ele>
        <time>2021-08-28T12:58:46.000Z</time>
      </trkpt>
      <trkpt lat="47.19617" lon="-1.56841">
        <ele>54</ele>
        <time>2021-08-28T12:58:48.000Z</time>
      </trkpt>
      <trkpt lat="47.19616" lon="-1.56864">
        <ele>54</ele>
        <time>2021-08-28T12:58:50.000Z</time>
      </trkpt>
      <trkpt lat="47.19614" lon="-1.56886">
        <ele>54</ele>
        <time>2021-08-28T12:58:52.000Z</time>
      </trkpt>
      <trkpt lat="47.19612" lon="-1.56907">
        <ele>54</ele>
        <time>2021-08-28T12:58:54.000Z</time>
      </trkpt>
      <trkpt lat="47.19609" lon="-1.56929">
        <ele>53</ele>
        <time>2021-08-28T12:58:56.000Z</time>
      </trkpt>
      <trkpt lat="47.19608" lon="-1.56952">
        <ele>53</ele>
        <time>2021-08-28T12:58:58.000Z</time>
      </trkpt>
      <trkpt lat="47.19607" lon="-1.56975">
        <ele>53</ele>
        <time>2021-08-28T12:59:00.000Z</time>
      </trkpt>
      <trkpt lat="47.19606" lon="-1.56999">
        <ele>52</ele>
        <time>2021-08-28T12:59:02.000Z</time>
      </trkpt>
      <trkpt lat="47.19604" lon="-1.57023">
        <ele>52</ele>
        <time>2021-08-28T12:59:04.000Z</time>
      </trkpt>
      <trkpt lat="47.19603" lon="-1.57047">
        <ele>52</ele>
        <time>2021-08-28T12:59:06.000Z</time>
      </trkpt>
      <trkpt lat="47.19602" lon="-1.57071">
        <ele>52</ele>
        <time>2021-08-28T12:59:08.000Z</time>
      </trkpt>
      <trkpt lat="47.196" lon="-1.57093">
        <ele>52</ele>
        <time>2021-08-28T12:59:10.000Z</time>
      </trkpt>
      <trkpt lat="47.19598" lon="-1.57115">
        <ele>53</ele>
        <time>2021-08-28T12:59:12.000Z</time>
      </trkpt>
      <trkpt lat="47.19597" lon="-1.57137">
        <ele>53</ele>
        <time>2021-08-28T12:59:14.000Z</time>
      </trkpt>
      <trkpt lat="47.19596" lon="-1.57159">
        <ele>52</ele>
        <time>2021-08-28T12:59:16.000Z</time>
      </trkpt>
      <trkpt lat="47.19594" lon="-1.57182">
        <ele>52</ele>
        <time>2021-08-28T12:59:18.000Z</time>
      </trkpt>
      <trkpt lat="47.19593" lon="-1.57205">
        <ele>53</ele>
        <time>2021-08-28T12:59:20.000Z</time>
      </trkpt>
      <trkpt lat="47.19591" lon="-1.57228">
        <ele>52</ele>
        <time>2021-08-28T12:59:22.000Z</time>
      </trkpt>
      <trkpt lat="47.19589" lon="-1.57251">
        <ele>52</ele>
        <time>2021-08-28T12:59:24.000Z</time>
      </trkpt>
      <trkpt lat="47.19587" lon="-1.57273">
        <ele>52</ele>
        <time>2021-08-28T12:59:26.000Z</time>
      </trkpt>
      <trkpt lat="47.19586" lon="-1.57296">
        <ele>52</ele>
        <time>2021-08-28T12:59:28.000Z</time>
      </trkpt>
      <trkpt lat="47.19583" lon="-1.57331">
        <ele>52</ele>
        <time>2021-08-28T12:59:31.000Z</time>
      </trkpt>
      <trkpt lat="47.19579" lon="-1.57351">
        <ele>52</ele>
        <time>2021-08-28T12:59:33.000Z</time>
      </trkpt>
      <trkpt lat="47.19575" lon="-1.57371">
        <ele>52</ele>
        <time>2021-08-28T12:59:35.000Z</time>
      </trkpt>
      <trkpt lat="47.19571" lon="-1.57391">
        <ele>52</ele>
        <time>2021-08-28T12:59:37.000Z</time>
      </trkpt>
      <trkpt lat="47.19566" lon="-1.57411">
        <ele>52</ele>
        <time>2021-08-28T12:59:39.000Z</time>
      </trkpt>
      <trkpt lat="47.1956" lon="-1.57441">
        <ele>53</ele>
        <time>2021-08-28T12:59:42.000Z</time>
      </trkpt>
      <trkpt lat="47.19554" lon="-1.57474">
        <ele>53</ele>
        <time>2021-08-28T12:59:45.000Z</time>
      </trkpt>
      <trkpt lat="47.19549" lon="-1.57495">
        <ele>53</ele>
        <time>2021-08-28T12:59:47.000Z</time>
      </trkpt>
      <trkpt lat="47.19545" lon="-1.57517">
        <ele>53</ele>
        <time>2021-08-28T12:59:49.000Z</time>
      </trkpt>
      <trkpt lat="47.19541" lon="-1.57537">
        <ele>53</ele>
        <time>2021-08-28T12:59:51.000Z</time>
      </trkpt>
      <trkpt lat="47.19538" lon="-1.57558">
        <ele>53</ele>
        <time>2021-08-28T12:59:53.000Z</time>
      </trkpt>
      <trkpt lat="47.19531" lon="-1.57589">
        <ele>53</ele>
        <time>2021-08-28T12:59:56.000Z</time>
      </trkpt>
      <trkpt lat="47.19527" lon="-1.57609">
        <ele>52</ele>
        <time>2021-08-28T12:59:58.000Z</time>
      </trkpt>
      <trkpt lat="47.19522" lon="-1.57629">
        <ele>52</ele>
        <time>2021-08-28T13:00:00.000Z</time>
      </trkpt>
      <trkpt lat="47.19518" lon="-1.57648">
        <ele>52</ele>
        <time>2021-08-28T13:00:02.000Z</time>
      </trkpt>
      <trkpt lat="47.19515" lon="-1.57669">
        <ele>53</ele>
        <time>2021-08-28T13:00:04.000Z</time>
      </trkpt>
      <trkpt lat="47.19511" lon="-1.57689">
        <ele>53</ele>
        <time>2021-08-28T13:00:06.000Z</time>
      </trkpt>
      <trkpt lat="47.19507" lon="-1.57709">
        <ele>52</ele>
        <time>2021-08-28T13:00:08.000Z</time>
      </trkpt>
      <trkpt lat="47.19503" lon="-1.57729">
        <ele>52</ele>
        <time>2021-08-28T13:00:10.000Z</time>
      </trkpt>
      <trkpt lat="47.19498" lon="-1.57748">
        <ele>52</ele>
        <time>2021-08-28T13:00:12.000Z</time>
      </trkpt>
      <trkpt lat="47.19494" lon="-1.57768">
        <ele>52</ele>
        <time>2021-08-28T13:00:14.000Z</time>
      </trkpt>
      <trkpt lat="47.1949" lon="-1.57788">
        <ele>52</ele>
        <time>2021-08-28T13:00:16.000Z</time>
      </trkpt>
      <trkpt lat="47.19486" lon="-1.57808">
        <ele>53</ele>
        <time>2021-08-28T13:00:18.000Z</time>
      </trkpt>
      <trkpt lat="47.19483" lon="-1.57827">
        <ele>52</ele>
        <time>2021-08-28T13:00:20.000Z</time>
      </trkpt>
      <trkpt lat="47.1948" lon="-1.57847">
        <ele>52</ele>
        <time>2021-08-28T13:00:22.000Z</time>
      </trkpt>
      <trkpt lat="47.19478" lon="-1.57867">
        <ele>52</ele>
        <time>2021-08-28T13:00:24.000Z</time>
      </trkpt>
      <trkpt lat="47.19474" lon="-1.57887">
        <ele>52</ele>
        <time>2021-08-28T13:00:26.000Z</time>
      </trkpt>
      <trkpt lat="47.19471" lon="-1.57907">
        <ele>52</ele>
        <time>2021-08-28T13:00:28.000Z</time>
      </trkpt>
      <trkpt lat="47.19469" lon="-1.57928">
        <ele>52</ele>
        <time>2021-08-28T13:00:30.000Z</time>
      </trkpt>
      <trkpt lat="47.19467" lon="-1.57948">
        <ele>52</ele>
        <time>2021-08-28T13:00:32.000Z</time>
      </trkpt>
      <trkpt lat="47.19466" lon="-1.57967">
        <ele>52</ele>
        <time>2021-08-28T13:00:34.000Z</time>
      </trkpt>
      <trkpt lat="47.19464" lon="-1.57985">
        <ele>52</ele>
        <time>2021-08-28T13:00:36.000Z</time>
      </trkpt>
      <trkpt lat="47.19463" lon="-1.58004">
        <ele>51</ele>
        <time>2021-08-28T13:00:38.000Z</time>
      </trkpt>
      <trkpt lat="47.19461" lon="-1.58023">
        <ele>52</ele>
        <time>2021-08-28T13:00:40.000Z</time>
      </trkpt>
      <trkpt lat="47.19459" lon="-1.58041">
        <ele>52</ele>
        <time>2021-08-28T13:00:42.000Z</time>
      </trkpt>
      <trkpt lat="47.19457" lon="-1.58059">
        <ele>52</ele>
        <time>2021-08-28T13:00:44.000Z</time>
      </trkpt>
      <trkpt lat="47.19455" lon="-1.58076">
        <ele>52</ele>
        <time>2021-08-28T13:00:46.000Z</time>
      </trkpt>
      <trkpt lat="47.19452" lon="-1.58091">
        <ele>52</ele>
        <time>2021-08-28T13:00:48.000Z</time>
      </trkpt>
      <trkpt lat="47.19442" lon="-1.58105">
        <ele>53</ele>
        <time>2021-08-28T13:00:50.000Z</time>
      </trkpt>
      <trkpt lat="47.19432" lon="-1.58118">
        <ele>53</ele>
        <time>2021-08-28T13:00:52.000Z</time>
      </trkpt>
      <trkpt lat="47.1942" lon="-1.58131">
        <ele>53</ele>
        <time>2021-08-28T13:00:54.000Z</time>
      </trkpt>
      <trkpt lat="47.19409" lon="-1.58143">
        <ele>53</ele>
        <time>2021-08-28T13:00:56.000Z</time>
      </trkpt>
      <trkpt lat="47.194" lon="-1.58158">
        <ele>53</ele>
        <time>2021-08-28T13:00:58.000Z</time>
      </trkpt>
      <trkpt lat="47.19392" lon="-1.58174">
        <ele>53</ele>
        <time>2021-08-28T13:01:00.000Z</time>
      </trkpt>
      <trkpt lat="47.19385" lon="-1.58191">
        <ele>53</ele>
        <time>2021-08-28T13:01:02.000Z</time>
      </trkpt>
      <trkpt lat="47.19378" lon="-1.58208">
        <ele>53</ele>
        <time>2021-08-28T13:01:04.000Z</time>
      </trkpt>
      <trkpt lat="47.19371" lon="-1.58226">
        <ele>53</ele>
        <time>2021-08-28T13:01:06.000Z</time>
      </trkpt>
      <trkpt lat="47.19364" lon="-1.58245">
        <ele>53</ele>
        <time>2021-08-28T13:01:08.000Z</time>
      </trkpt>
      <trkpt lat="47.19358" lon="-1.58263">
        <ele>52</ele>
        <time>2021-08-28T13:01:10.000Z</time>
      </trkpt>
      <trkpt lat="47.19349" lon="-1.58278">
        <ele>53</ele>
        <time>2021-08-28T13:01:12.000Z</time>
      </trkpt>
      <trkpt lat="47.19338" lon="-1.5829">
        <ele>52</ele>
        <time>2021-08-28T13:01:14.000Z</time>
      </trkpt>
      <trkpt lat="47.19326" lon="-1.583">
        <ele>52</ele>
        <time>2021-08-28T13:01:16.000Z</time>
      </trkpt>
      <trkpt lat="47.19314" lon="-1.58311">
        <ele>53</ele>
        <time>2021-08-28T13:01:18.000Z</time>
      </trkpt>
      <trkpt lat="47.19303" lon="-1.58322">
        <ele>53</ele>
        <time>2021-08-28T13:01:20.000Z</time>
      </trkpt>
      <trkpt lat="47.19291" lon="-1.58332">
        <ele>53</ele>
        <time>2021-08-28T13:01:22.000Z</time>
      </trkpt>
      <trkpt lat="47.19279" lon="-1.58342">
        <ele>53</ele>
        <time>2021-08-28T13:01:24.000Z</time>
      </trkpt>
      <trkpt lat="47.19269" lon="-1.58355">
        <ele>53</ele>
        <time>2021-08-28T13:01:26.000Z</time>
      </trkpt>
      <trkpt lat="47.19257" lon="-1.58366">
        <ele>53</ele>
        <time>2021-08-28T13:01:28.000Z</time>
      </trkpt>
      <trkpt lat="47.19245" lon="-1.58377">
        <ele>53</ele>
        <time>2021-08-28T13:01:30.000Z</time>
      </trkpt>
      <trkpt lat="47.19233" lon="-1.58388">
        <ele>53</ele>
        <time>2021-08-28T13:01:32.000Z</time>
      </trkpt>
      <trkpt lat="47.19221" lon="-1.58398">
        <ele>53</ele>
        <time>2021-08-28T13:01:34.000Z</time>
      </trkpt>
      <trkpt lat="47.19209" lon="-1.58409">
        <ele>53</ele>
        <time>2021-08-28T13:01:36.000Z</time>
      </trkpt>
      <trkpt lat="47.19197" lon="-1.5842">
        <ele>53</ele>
        <time>2021-08-28T13:01:38.000Z</time>
      </trkpt>
      <trkpt lat="47.19186" lon="-1.58431">
        <ele>53</ele>
        <time>2021-08-28T13:01:40.000Z</time>
      </trkpt>
      <trkpt lat="47.19173" lon="-1.58442">
        <ele>52</ele>
        <time>2021-08-28T13:01:42.000Z</time>
      </trkpt>
      <trkpt lat="47.19162" lon="-1.58453">
        <ele>52</ele>
        <time>2021-08-28T13:01:44.000Z</time>
      </trkpt>
      <trkpt lat="47.19152" lon="-1.58465">
        <ele>53</ele>
        <time>2021-08-28T13:01:46.000Z</time>
      </trkpt>
      <trkpt lat="47.19143" lon="-1.58474">
        <ele>53</ele>
        <time>2021-08-28T13:01:48.000Z</time>
      </trkpt>
      <trkpt lat="47.19133" lon="-1.58484">
        <ele>53</ele>
        <time>2021-08-28T13:01:50.000Z</time>
      </trkpt>
      <trkpt lat="47.19122" lon="-1.58495">
        <ele>53</ele>
        <time>2021-08-28T13:01:52.000Z</time>
      </trkpt>
      <trkpt lat="47.1911" lon="-1.58506">
        <ele>53</ele>
        <time>2021-08-28T13:01:54.000Z</time>
      </trkpt>
      <trkpt lat="47.19098" lon="-1.58517">
        <ele>53</ele>
        <time>2021-08-28T13:01:56.000Z</time>
      </trkpt>
      <trkpt lat="47.19087" lon="-1.58528">
        <ele>53</ele>
        <time>2021-08-28T13:01:58.000Z</time>
      </trkpt>
      <trkpt lat="47.19076" lon="-1.58539">
        <ele>53</ele>
        <time>2021-08-28T13:02:00.000Z</time>
      </trkpt>
      <trkpt lat="47.19064" lon="-1.5855">
        <ele>53</ele>
        <time>2021-08-28T13:02:02.000Z</time>
      </trkpt>
      <trkpt lat="47.19054" lon="-1.58563">
        <ele>53</ele>
        <time>2021-08-28T13:02:04.000Z</time>
      </trkpt>
      <trkpt lat="47.19044" lon="-1.58573">
        <ele>53</ele>
        <time>2021-08-28T13:02:06.000Z</time>
      </trkpt>
      <trkpt lat="47.19033" lon="-1.58583">
        <ele>54</ele>
        <time>2021-08-28T13:02:08.000Z</time>
      </trkpt>
      <trkpt lat="47.19022" lon="-1.58595">
        <ele>53</ele>
        <time>2021-08-28T13:02:10.000Z</time>
      </trkpt>
      <trkpt lat="47.19011" lon="-1.58607">
        <ele>53</ele>
        <time>2021-08-28T13:02:12.000Z</time>
      </trkpt>
      <trkpt lat="47.18999" lon="-1.58618">
        <ele>53</ele>
        <time>2021-08-28T13:02:14.000Z</time>
      </trkpt>
      <trkpt lat="47.18988" lon="-1.58629">
        <ele>53</ele>
        <time>2021-08-28T13:02:16.000Z</time>
      </trkpt>
      <trkpt lat="47.18978" lon="-1.5864">
        <ele>53</ele>
        <time>2021-08-28T13:02:18.000Z</time>
      </trkpt>
      <trkpt lat="47.18966" lon="-1.58651">
        <ele>53</ele>
        <time>2021-08-28T13:02:20.000Z</time>
      </trkpt>
      <trkpt lat="47.18955" lon="-1.58662">
        <ele>53</ele>
        <time>2021-08-28T13:02:22.000Z</time>
      </trkpt>
      <trkpt lat="47.18943" lon="-1.58672">
        <ele>53</ele>
        <time>2021-08-28T13:02:24.000Z</time>
      </trkpt>
      <trkpt lat="47.18932" lon="-1.58683">
        <ele>54</ele>
        <time>2021-08-28T13:02:26.000Z</time>
      </trkpt>
      <trkpt lat="47.1892" lon="-1.58694">
        <ele>54</ele>
        <time>2021-08-28T13:02:28.000Z</time>
      </trkpt>
      <trkpt lat="47.18909" lon="-1.58705">
        <ele>54</ele>
        <time>2021-08-28T13:02:30.000Z</time>
      </trkpt>
      <trkpt lat="47.18896" lon="-1.58713">
        <ele>54</ele>
        <time>2021-08-28T13:02:32.000Z</time>
      </trkpt>
      <trkpt lat="47.18885" lon="-1.5872">
        <ele>54</ele>
        <time>2021-08-28T13:02:34.000Z</time>
      </trkpt>
      <trkpt lat="47.18873" lon="-1.58726">
        <ele>54</ele>
        <time>2021-08-28T13:02:36.000Z</time>
      </trkpt>
      <trkpt lat="47.18863" lon="-1.58732">
        <ele>55</ele>
        <time>2021-08-28T13:02:38.000Z</time>
      </trkpt>
      <trkpt lat="47.18853" lon="-1.58736">
        <ele>54</ele>
        <time>2021-08-28T13:02:40.000Z</time>
      </trkpt>
      <trkpt lat="47.18842" lon="-1.58742">
        <ele>54</ele>
        <time>2021-08-28T13:02:42.000Z</time>
      </trkpt>
      <trkpt lat="47.18834" lon="-1.5875">
        <ele>53</ele>
        <time>2021-08-28T13:02:44.000Z</time>
      </trkpt>
      <trkpt lat="47.18831" lon="-1.58765">
        <ele>53</ele>
        <time>2021-08-28T13:02:46.000Z</time>
      </trkpt>
      <trkpt lat="47.18827" lon="-1.58779">
        <ele>53</ele>
        <time>2021-08-28T13:02:48.000Z</time>
      </trkpt>
      <trkpt lat="47.18819" lon="-1.58793">
        <ele>53</ele>
        <time>2021-08-28T13:02:50.000Z</time>
      </trkpt>
      <trkpt lat="47.18807" lon="-1.58805">
        <ele>54</ele>
        <time>2021-08-28T13:02:52.000Z</time>
      </trkpt>
      <trkpt lat="47.18793" lon="-1.58815">
        <ele>54</ele>
        <time>2021-08-28T13:02:54.000Z</time>
      </trkpt>
      <trkpt lat="47.18786" lon="-1.58836">
        <ele>54</ele>
        <time>2021-08-28T13:02:56.000Z</time>
      </trkpt>
      <trkpt lat="47.18781" lon="-1.58858">
        <ele>53</ele>
        <time>2021-08-28T13:02:58.000Z</time>
      </trkpt>
      <trkpt lat="47.18777" lon="-1.58881">
        <ele>53</ele>
        <time>2021-08-28T13:03:00.000Z</time>
      </trkpt>
      <trkpt lat="47.18773" lon="-1.58904">
        <ele>53</ele>
        <time>2021-08-28T13:03:02.000Z</time>
      </trkpt>
      <trkpt lat="47.18771" lon="-1.58927">
        <ele>53</ele>
        <time>2021-08-28T13:03:04.000Z</time>
      </trkpt>
      <trkpt lat="47.18769" lon="-1.58949">
        <ele>53</ele>
        <time>2021-08-28T13:03:06.000Z</time>
      </trkpt>
      <trkpt lat="47.18767" lon="-1.5897">
        <ele>53</ele>
        <time>2021-08-28T13:03:08.000Z</time>
      </trkpt>
      <trkpt lat="47.18764" lon="-1.58992">
        <ele>53</ele>
        <time>2021-08-28T13:03:10.000Z</time>
      </trkpt>
      <trkpt lat="47.18761" lon="-1.59013">
        <ele>53</ele>
        <time>2021-08-28T13:03:12.000Z</time>
      </trkpt>
      <trkpt lat="47.18759" lon="-1.59035">
        <ele>53</ele>
        <time>2021-08-28T13:03:14.000Z</time>
      </trkpt>
      <trkpt lat="47.18757" lon="-1.59057">
        <ele>54</ele>
        <time>2021-08-28T13:03:16.000Z</time>
      </trkpt>
      <trkpt lat="47.18754" lon="-1.59079">
        <ele>54</ele>
        <time>2021-08-28T13:03:18.000Z</time>
      </trkpt>
      <trkpt lat="47.18752" lon="-1.59101">
        <ele>53</ele>
        <time>2021-08-28T13:03:20.000Z</time>
      </trkpt>
      <trkpt lat="47.1875" lon="-1.59123">
        <ele>53</ele>
        <time>2021-08-28T13:03:22.000Z</time>
      </trkpt>
      <trkpt lat="47.18747" lon="-1.59145">
        <ele>54</ele>
        <time>2021-08-28T13:03:24.000Z</time>
      </trkpt>
      <trkpt lat="47.18745" lon="-1.59168">
        <ele>54</ele>
        <time>2021-08-28T13:03:26.000Z</time>
      </trkpt>
      <trkpt lat="47.18743" lon="-1.5919">
        <ele>54</ele>
        <time>2021-08-28T13:03:28.000Z</time>
      </trkpt>
      <trkpt lat="47.18741" lon="-1.59212">
        <ele>54</ele>
        <time>2021-08-28T13:03:30.000Z</time>
      </trkpt>
      <trkpt lat="47.18738" lon="-1.59234">
        <ele>54</ele>
        <time>2021-08-28T13:03:32.000Z</time>
      </trkpt>
      <trkpt lat="47.18736" lon="-1.59257">
        <ele>54</ele>
        <time>2021-08-28T13:03:34.000Z</time>
      </trkpt>
      <trkpt lat="47.18734" lon="-1.5928">
        <ele>53</ele>
        <time>2021-08-28T13:03:36.000Z</time>
      </trkpt>
      <trkpt lat="47.18731" lon="-1.59302">
        <ele>53</ele>
        <time>2021-08-28T13:03:38.000Z</time>
      </trkpt>
      <trkpt lat="47.18728" lon="-1.59323">
        <ele>53</ele>
        <time>2021-08-28T13:03:40.000Z</time>
      </trkpt>
      <trkpt lat="47.18725" lon="-1.59345">
        <ele>53</ele>
        <time>2021-08-28T13:03:42.000Z</time>
      </trkpt>
      <trkpt lat="47.18723" lon="-1.59368">
        <ele>53</ele>
        <time>2021-08-28T13:03:44.000Z</time>
      </trkpt>
      <trkpt lat="47.18721" lon="-1.5939">
        <ele>53</ele>
        <time>2021-08-28T13:03:46.000Z</time>
      </trkpt>
      <trkpt lat="47.18719" lon="-1.59412">
        <ele>53</ele>
        <time>2021-08-28T13:03:48.000Z</time>
      </trkpt>
      <trkpt lat="47.18716" lon="-1.59435">
        <ele>53</ele>
        <time>2021-08-28T13:03:50.000Z</time>
      </trkpt>
      <trkpt lat="47.18713" lon="-1.59458">
        <ele>53</ele>
        <time>2021-08-28T13:03:52.000Z</time>
      </trkpt>
      <trkpt lat="47.18711" lon="-1.5948">
        <ele>53</ele>
        <time>2021-08-28T13:03:54.000Z</time>
      </trkpt>
      <trkpt lat="47.18709" lon="-1.59502">
        <ele>53</ele>
        <time>2021-08-28T13:03:56.000Z</time>
      </trkpt>
      <trkpt lat="47.18706" lon="-1.59523">
        <ele>53</ele>
        <time>2021-08-28T13:03:58.000Z</time>
      </trkpt>
      <trkpt lat="47.18703" lon="-1.59546">
        <ele>53</ele>
        <time>2021-08-28T13:04:00.000Z</time>
      </trkpt>
      <trkpt lat="47.18701" lon="-1.59569">
        <ele>53</ele>
        <time>2021-08-28T13:04:02.000Z</time>
      </trkpt>
      <trkpt lat="47.18698" lon="-1.59591">
        <ele>53</ele>
        <time>2021-08-28T13:04:04.000Z</time>
      </trkpt>
      <trkpt lat="47.18696" lon="-1.59613">
        <ele>53</ele>
        <time>2021-08-28T13:04:06.000Z</time>
      </trkpt>
      <trkpt lat="47.18693" lon="-1.59635">
        <ele>53</ele>
        <time>2021-08-28T13:04:08.000Z</time>
      </trkpt>
      <trkpt lat="47.1869" lon="-1.59656">
        <ele>53</ele>
        <time>2021-08-28T13:04:10.000Z</time>
      </trkpt>
      <trkpt lat="47.18687" lon="-1.59677">
        <ele>53</ele>
        <time>2021-08-28T13:04:12.000Z</time>
      </trkpt>
      <trkpt lat="47.18684" lon="-1.59697">
        <ele>53</ele>
        <time>2021-08-28T13:04:14.000Z</time>
      </trkpt>
      <trkpt lat="47.18682" lon="-1.59718">
        <ele>53</ele>
        <time>2021-08-28T13:04:16.000Z</time>
      </trkpt>
      <trkpt lat="47.18682" lon="-1.5974">
        <ele>53</ele>
        <time>2021-08-28T13:04:18.000Z</time>
      </trkpt>
      <trkpt lat="47.18682" lon="-1.59758">
        <ele>53</ele>
        <time>2021-08-28T13:04:20.000Z</time>
      </trkpt>
      <trkpt lat="47.18687" lon="-1.59776">
        <ele>52</ele>
        <time>2021-08-28T13:04:22.000Z</time>
      </trkpt>
      <trkpt lat="47.1869" lon="-1.59795">
        <ele>52</ele>
        <time>2021-08-28T13:04:24.000Z</time>
      </trkpt>
      <trkpt lat="47.1869" lon="-1.59813">
        <ele>53</ele>
        <time>2021-08-28T13:04:26.000Z</time>
      </trkpt>
      <trkpt lat="47.18685" lon="-1.59828">
        <ele>53</ele>
        <time>2021-08-28T13:04:28.000Z</time>
      </trkpt>
      <trkpt lat="47.18676" lon="-1.59841">
        <ele>53</ele>
        <time>2021-08-28T13:04:30.000Z</time>
      </trkpt>
      <trkpt lat="47.18663" lon="-1.59845">
        <ele>53</ele>
        <time>2021-08-28T13:04:32.000Z</time>
      </trkpt>
      <trkpt lat="47.18647" lon="-1.59845">
        <ele>53</ele>
        <time>2021-08-28T13:04:34.000Z</time>
      </trkpt>
      <trkpt lat="47.18634" lon="-1.59835">
        <ele>52</ele>
        <time>2021-08-28T13:04:36.000Z</time>
      </trkpt>
      <trkpt lat="47.18621" lon="-1.59831">
        <ele>51</ele>
        <time>2021-08-28T13:04:38.000Z</time>
      </trkpt>
      <trkpt lat="47.18615" lon="-1.59844">
        <ele>51</ele>
        <time>2021-08-28T13:04:40.000Z</time>
      </trkpt>
      <trkpt lat="47.18621" lon="-1.59858">
        <ele>52</ele>
        <time>2021-08-28T13:04:42.000Z</time>
      </trkpt>
      <trkpt lat="47.1862" lon="-1.59876">
        <ele>52</ele>
        <time>2021-08-28T13:04:44.000Z</time>
      </trkpt>
      <trkpt lat="47.18616" lon="-1.59895">
        <ele>52</ele>
        <time>2021-08-28T13:04:46.000Z</time>
      </trkpt>
      <trkpt lat="47.1861" lon="-1.59914">
        <ele>52</ele>
        <time>2021-08-28T13:04:48.000Z</time>
      </trkpt>
      <trkpt lat="47.18605" lon="-1.59934">
        <ele>53</ele>
        <time>2021-08-28T13:04:50.000Z</time>
      </trkpt>
      <trkpt lat="47.18599" lon="-1.59954">
        <ele>53</ele>
        <time>2021-08-28T13:04:52.000Z</time>
      </trkpt>
      <trkpt lat="47.18593" lon="-1.59974">
        <ele>53</ele>
        <time>2021-08-28T13:04:54.000Z</time>
      </trkpt>
      <trkpt lat="47.18587" lon="-1.59994">
        <ele>53</ele>
        <time>2021-08-28T13:04:56.000Z</time>
      </trkpt>
      <trkpt lat="47.18581" lon="-1.60013">
        <ele>53</ele>
        <time>2021-08-28T13:04:58.000Z</time>
      </trkpt>
      <trkpt lat="47.18574" lon="-1.60032">
        <ele>53</ele>
        <time>2021-08-28T13:05:00.000Z</time>
      </trkpt>
      <trkpt lat="47.18567" lon="-1.60052">
        <ele>53</ele>
        <time>2021-08-28T13:05:02.000Z</time>
      </trkpt>
      <trkpt lat="47.1856" lon="-1.6007">
        <ele>53</ele>
        <time>2021-08-28T13:05:04.000Z</time>
      </trkpt>
      <trkpt lat="47.18553" lon="-1.60089">
        <ele>53</ele>
        <time>2021-08-28T13:05:06.000Z</time>
      </trkpt>
      <trkpt lat="47.18545" lon="-1.60108">
        <ele>52</ele>
        <time>2021-08-28T13:05:08.000Z</time>
      </trkpt>
      <trkpt lat="47.18537" lon="-1.60127">
        <ele>52</ele>
        <time>2021-08-28T13:05:10.000Z</time>
      </trkpt>
      <trkpt lat="47.18529" lon="-1.60145">
        <ele>52</ele>
        <time>2021-08-28T13:05:12.000Z</time>
      </trkpt>
      <trkpt lat="47.18521" lon="-1.60163">
        <ele>52</ele>
        <time>2021-08-28T13:05:14.000Z</time>
      </trkpt>
      <trkpt lat="47.18512" lon="-1.60181">
        <ele>52</ele>
        <time>2021-08-28T13:05:16.000Z</time>
      </trkpt>
      <trkpt lat="47.18503" lon="-1.60199">
        <ele>52</ele>
        <time>2021-08-28T13:05:18.000Z</time>
      </trkpt>
      <trkpt lat="47.18494" lon="-1.60217">
        <ele>52</ele>
        <time>2021-08-28T13:05:20.000Z</time>
      </trkpt>
      <trkpt lat="47.18485" lon="-1.60234">
        <ele>52</ele>
        <time>2021-08-28T13:05:22.000Z</time>
      </trkpt>
      <trkpt lat="47.18476" lon="-1.60251">
        <ele>52</ele>
        <time>2021-08-28T13:05:24.000Z</time>
      </trkpt>
      <trkpt lat="47.18467" lon="-1.60268">
        <ele>52</ele>
        <time>2021-08-28T13:05:26.000Z</time>
      </trkpt>
      <trkpt lat="47.18458" lon="-1.60285">
        <ele>52</ele>
        <time>2021-08-28T13:05:28.000Z</time>
      </trkpt>
      <trkpt lat="47.18448" lon="-1.60302">
        <ele>52</ele>
        <time>2021-08-28T13:05:30.000Z</time>
      </trkpt>
      <trkpt lat="47.18438" lon="-1.60319">
        <ele>52</ele>
        <time>2021-08-28T13:05:32.000Z</time>
      </trkpt>
      <trkpt lat="47.18428" lon="-1.60335">
        <ele>52</ele>
        <time>2021-08-28T13:05:34.000Z</time>
      </trkpt>
      <trkpt lat="47.18417" lon="-1.6035">
        <ele>52</ele>
        <time>2021-08-28T13:05:36.000Z</time>
      </trkpt>
      <trkpt lat="47.18406" lon="-1.60365">
        <ele>52</ele>
        <time>2021-08-28T13:05:38.000Z</time>
      </trkpt>
      <trkpt lat="47.18395" lon="-1.6038">
        <ele>52</ele>
        <time>2021-08-28T13:05:40.000Z</time>
      </trkpt>
      <trkpt lat="47.18383" lon="-1.60395">
        <ele>52</ele>
        <time>2021-08-28T13:05:42.000Z</time>
      </trkpt>
      <trkpt lat="47.18372" lon="-1.60409">
        <ele>52</ele>
        <time>2021-08-28T13:05:44.000Z</time>
      </trkpt>
      <trkpt lat="47.18361" lon="-1.60424">
        <ele>52</ele>
        <time>2021-08-28T13:05:46.000Z</time>
      </trkpt>
      <trkpt lat="47.18349" lon="-1.60438">
        <ele>52</ele>
        <time>2021-08-28T13:05:48.000Z</time>
      </trkpt>
      <trkpt lat="47.18338" lon="-1.60452">
        <ele>52</ele>
        <time>2021-08-28T13:05:50.000Z</time>
      </trkpt>
      <trkpt lat="47.18326" lon="-1.60466">
        <ele>52</ele>
        <time>2021-08-28T13:05:52.000Z</time>
      </trkpt>
      <trkpt lat="47.18315" lon="-1.60479">
        <ele>53</ele>
        <time>2021-08-28T13:05:54.000Z</time>
      </trkpt>
      <trkpt lat="47.18303" lon="-1.60492">
        <ele>52</ele>
        <time>2021-08-28T13:05:56.000Z</time>
      </trkpt>
      <trkpt lat="47.18292" lon="-1.60506">
        <ele>52</ele>
        <time>2021-08-28T13:05:58.000Z</time>
      </trkpt>
      <trkpt lat="47.1828" lon="-1.60518">
        <ele>52</ele>
        <time>2021-08-28T13:06:00.000Z</time>
      </trkpt>
      <trkpt lat="47.18267" lon="-1.6053">
        <ele>52</ele>
        <time>2021-08-28T13:06:02.000Z</time>
      </trkpt>
      <trkpt lat="47.18255" lon="-1.60541">
        <ele>52</ele>
        <time>2021-08-28T13:06:04.000Z</time>
      </trkpt>
      <trkpt lat="47.18242" lon="-1.60551">
        <ele>53</ele>
        <time>2021-08-28T13:06:06.000Z</time>
      </trkpt>
      <trkpt lat="47.18229" lon="-1.6056">
        <ele>54</ele>
        <time>2021-08-28T13:06:08.000Z</time>
      </trkpt>
      <trkpt lat="47.18216" lon="-1.60568">
        <ele>54</ele>
        <time>2021-08-28T13:06:10.000Z</time>
      </trkpt>
      <trkpt lat="47.18204" lon="-1.60574">
        <ele>54</ele>
        <time>2021-08-28T13:06:12.000Z</time>
      </trkpt>
      <trkpt lat="47.18194" lon="-1.60577">
        <ele>54</ele>
        <time>2021-08-28T13:06:14.000Z</time>
      </trkpt>
      <trkpt lat="47.18188" lon="-1.60589">
        <ele>53</ele>
        <time>2021-08-28T13:06:17.000Z</time>
      </trkpt>
      <trkpt lat="47.18178" lon="-1.60604">
        <ele>54</ele>
        <time>2021-08-28T13:06:20.000Z</time>
      </trkpt>
      <trkpt lat="47.18166" lon="-1.60604">
        <ele>53</ele>
        <time>2021-08-28T13:06:22.000Z</time>
      </trkpt>
      <trkpt lat="47.18152" lon="-1.60605">
        <ele>54</ele>
        <time>2021-08-28T13:06:24.000Z</time>
      </trkpt>
      <trkpt lat="47.18138" lon="-1.60604">
        <ele>53</ele>
        <time>2021-08-28T13:06:26.000Z</time>
      </trkpt>
      <trkpt lat="47.18125" lon="-1.60601">
        <ele>53</ele>
        <time>2021-08-28T13:06:28.000Z</time>
      </trkpt>
      <trkpt lat="47.18112" lon="-1.60595">
        <ele>52</ele>
        <time>2021-08-28T13:06:30.000Z</time>
      </trkpt>
      <trkpt lat="47.18099" lon="-1.60591">
        <ele>52</ele>
        <time>2021-08-28T13:06:32.000Z</time>
      </trkpt>
      <trkpt lat="47.18085" lon="-1.60584">
        <ele>52</ele>
        <time>2021-08-28T13:06:34.000Z</time>
      </trkpt>
      <trkpt lat="47.18072" lon="-1.60576">
        <ele>51</ele>
        <time>2021-08-28T13:06:36.000Z</time>
      </trkpt>
      <trkpt lat="47.18059" lon="-1.60569">
        <ele>51</ele>
        <time>2021-08-28T13:06:38.000Z</time>
      </trkpt>
      <trkpt lat="47.18046" lon="-1.60562">
        <ele>51</ele>
        <time>2021-08-28T13:06:40.000Z</time>
      </trkpt>
      <trkpt lat="47.18034" lon="-1.60555">
        <ele>51</ele>
        <time>2021-08-28T13:06:42.000Z</time>
      </trkpt>
      <trkpt lat="47.1802" lon="-1.60553">
        <ele>51</ele>
        <time>2021-08-28T13:06:44.000Z</time>
      </trkpt>
      <trkpt lat="47.18007" lon="-1.60554">
        <ele>51</ele>
        <time>2021-08-28T13:06:46.000Z</time>
      </trkpt>
      <trkpt lat="47.17994" lon="-1.60557">
        <ele>51</ele>
        <time>2021-08-28T13:06:48.000Z</time>
      </trkpt>
      <trkpt lat="47.17982" lon="-1.60562">
        <ele>51</ele>
        <time>2021-08-28T13:06:50.000Z</time>
      </trkpt>
      <trkpt lat="47.17969" lon="-1.60567">
        <ele>51</ele>
        <time>2021-08-28T13:06:52.000Z</time>
      </trkpt>
      <trkpt lat="47.17957" lon="-1.60571">
        <ele>51</ele>
        <time>2021-08-28T13:06:54.000Z</time>
      </trkpt>
      <trkpt lat="47.17946" lon="-1.60577">
        <ele>51</ele>
        <time>2021-08-28T13:06:56.000Z</time>
      </trkpt>
      <trkpt lat="47.17935" lon="-1.60583">
        <ele>53</ele>
        <time>2021-08-28T13:06:58.000Z</time>
      </trkpt>
      <trkpt lat="47.17924" lon="-1.60585">
        <ele>53</ele>
        <time>2021-08-28T13:07:00.000Z</time>
      </trkpt>
      <trkpt lat="47.17913" lon="-1.60586">
        <ele>54</ele>
        <time>2021-08-28T13:07:02.000Z</time>
      </trkpt>
      <trkpt lat="47.17903" lon="-1.60596">
        <ele>54</ele>
        <time>2021-08-28T13:07:04.000Z</time>
      </trkpt>
      <trkpt lat="47.17898" lon="-1.60617">
        <ele>53</ele>
        <time>2021-08-28T13:07:06.000Z</time>
      </trkpt>
      <trkpt lat="47.17893" lon="-1.60636">
        <ele>52</ele>
        <time>2021-08-28T13:07:08.000Z</time>
      </trkpt>
      <trkpt lat="47.17887" lon="-1.60656">
        <ele>51</ele>
        <time>2021-08-28T13:07:10.000Z</time>
      </trkpt>
      <trkpt lat="47.1788" lon="-1.60676">
        <ele>51</ele>
        <time>2021-08-28T13:07:12.000Z</time>
      </trkpt>
      <trkpt lat="47.17875" lon="-1.60696">
        <ele>51</ele>
        <time>2021-08-28T13:07:14.000Z</time>
      </trkpt>
      <trkpt lat="47.1787" lon="-1.60717">
        <ele>51</ele>
        <time>2021-08-28T13:07:16.000Z</time>
      </trkpt>
      <trkpt lat="47.17865" lon="-1.60736">
        <ele>51</ele>
        <time>2021-08-28T13:07:18.000Z</time>
      </trkpt>
      <trkpt lat="47.17861" lon="-1.60756">
        <ele>51</ele>
        <time>2021-08-28T13:07:20.000Z</time>
      </trkpt>
      <trkpt lat="47.17857" lon="-1.60776">
        <ele>51</ele>
        <time>2021-08-28T13:07:22.000Z</time>
      </trkpt>
      <trkpt lat="47.17852" lon="-1.60794">
        <ele>51</ele>
        <time>2021-08-28T13:07:24.000Z</time>
      </trkpt>
      <trkpt lat="47.17848" lon="-1.60812">
        <ele>51</ele>
        <time>2021-08-28T13:07:26.000Z</time>
      </trkpt>
      <trkpt lat="47.17843" lon="-1.60831">
        <ele>51</ele>
        <time>2021-08-28T13:07:28.000Z</time>
      </trkpt>
      <trkpt lat="47.17837" lon="-1.60848">
        <ele>51</ele>
        <time>2021-08-28T13:07:30.000Z</time>
      </trkpt>
      <trkpt lat="47.17828" lon="-1.60863">
        <ele>51</ele>
        <time>2021-08-28T13:07:32.000Z</time>
      </trkpt>
      <trkpt lat="47.1782" lon="-1.60878">
        <ele>52</ele>
        <time>2021-08-28T13:07:34.000Z</time>
      </trkpt>
      <trkpt lat="47.17809" lon="-1.60891">
        <ele>52</ele>
        <time>2021-08-28T13:07:36.000Z</time>
      </trkpt>
      <trkpt lat="47.17797" lon="-1.609">
        <ele>52</ele>
        <time>2021-08-28T13:07:38.000Z</time>
      </trkpt>
      <trkpt lat="47.17785" lon="-1.6091">
        <ele>52</ele>
        <time>2021-08-28T13:07:40.000Z</time>
      </trkpt>
      <trkpt lat="47.17773" lon="-1.60919">
        <ele>53</ele>
        <time>2021-08-28T13:07:42.000Z</time>
      </trkpt>
      <trkpt lat="47.17762" lon="-1.60927">
        <ele>53</ele>
        <time>2021-08-28T13:07:44.000Z</time>
      </trkpt>
      <trkpt lat="47.17751" lon="-1.60936">
        <ele>53</ele>
        <time>2021-08-28T13:07:46.000Z</time>
      </trkpt>
      <trkpt lat="47.17739" lon="-1.60944">
        <ele>53</ele>
        <time>2021-08-28T13:07:48.000Z</time>
      </trkpt>
      <trkpt lat="47.17728" lon="-1.60952">
        <ele>53</ele>
        <time>2021-08-28T13:07:50.000Z</time>
      </trkpt>
      <trkpt lat="47.17716" lon="-1.60961">
        <ele>53</ele>
        <time>2021-08-28T13:07:52.000Z</time>
      </trkpt>
      <trkpt lat="47.17704" lon="-1.60968">
        <ele>53</ele>
        <time>2021-08-28T13:07:54.000Z</time>
      </trkpt>
      <trkpt lat="47.17691" lon="-1.60974">
        <ele>53</ele>
        <time>2021-08-28T13:07:56.000Z</time>
      </trkpt>
      <trkpt lat="47.17677" lon="-1.60973">
        <ele>53</ele>
        <time>2021-08-28T13:07:58.000Z</time>
      </trkpt>
      <trkpt lat="47.17662" lon="-1.60973">
        <ele>53</ele>
        <time>2021-08-28T13:08:00.000Z</time>
      </trkpt>
      <trkpt lat="47.17649" lon="-1.60981">
        <ele>53</ele>
        <time>2021-08-28T13:08:02.000Z</time>
      </trkpt>
      <trkpt lat="47.17637" lon="-1.60992">
        <ele>52</ele>
        <time>2021-08-28T13:08:04.000Z</time>
      </trkpt>
      <trkpt lat="47.17624" lon="-1.61002">
        <ele>52</ele>
        <time>2021-08-28T13:08:06.000Z</time>
      </trkpt>
      <trkpt lat="47.17612" lon="-1.61013">
        <ele>52</ele>
        <time>2021-08-28T13:08:08.000Z</time>
      </trkpt>
      <trkpt lat="47.176" lon="-1.61023">
        <ele>52</ele>
        <time>2021-08-28T13:08:10.000Z</time>
      </trkpt>
      <trkpt lat="47.17588" lon="-1.61033">
        <ele>52</ele>
        <time>2021-08-28T13:08:12.000Z</time>
      </trkpt>
      <trkpt lat="47.17576" lon="-1.61044">
        <ele>52</ele>
        <time>2021-08-28T13:08:14.000Z</time>
      </trkpt>
      <trkpt lat="47.17565" lon="-1.61055">
        <ele>52</ele>
        <time>2021-08-28T13:08:16.000Z</time>
      </trkpt>
      <trkpt lat="47.17553" lon="-1.61065">
        <ele>51</ele>
        <time>2021-08-28T13:08:18.000Z</time>
      </trkpt>
      <trkpt lat="47.17541" lon="-1.61074">
        <ele>51</ele>
        <time>2021-08-28T13:08:20.000Z</time>
      </trkpt>
      <trkpt lat="47.1753" lon="-1.61085">
        <ele>51</ele>
        <time>2021-08-28T13:08:22.000Z</time>
      </trkpt>
      <trkpt lat="47.17518" lon="-1.61095">
        <ele>51</ele>
        <time>2021-08-28T13:08:24.000Z</time>
      </trkpt>
      <trkpt lat="47.17506" lon="-1.61103">
        <ele>51</ele>
        <time>2021-08-28T13:08:26.000Z</time>
      </trkpt>
      <trkpt lat="47.17492" lon="-1.61105">
        <ele>51</ele>
        <time>2021-08-28T13:08:28.000Z</time>
      </trkpt>
      <trkpt lat="47.17479" lon="-1.61104">
        <ele>51</ele>
        <time>2021-08-28T13:08:30.000Z</time>
      </trkpt>
      <trkpt lat="47.17466" lon="-1.61097">
        <ele>52</ele>
        <time>2021-08-28T13:08:32.000Z</time>
      </trkpt>
      <trkpt lat="47.17456" lon="-1.61086">
        <ele>52</ele>
        <time>2021-08-28T13:08:34.000Z</time>
      </trkpt>
      <trkpt lat="47.17446" lon="-1.61073">
        <ele>52</ele>
        <time>2021-08-28T13:08:36.000Z</time>
      </trkpt>
      <trkpt lat="47.17438" lon="-1.61058">
        <ele>52</ele>
        <time>2021-08-28T13:08:38.000Z</time>
      </trkpt>
      <trkpt lat="47.17433" lon="-1.61043">
        <ele>53</ele>
        <time>2021-08-28T13:08:40.000Z</time>
      </trkpt>
      <trkpt lat="47.17429" lon="-1.61029">
        <ele>53</ele>
        <time>2021-08-28T13:08:42.000Z</time>
      </trkpt>
      <trkpt lat="47.17421" lon="-1.61019">
        <ele>53</ele>
        <time>2021-08-28T13:08:45.000Z</time>
      </trkpt>
      <trkpt lat="47.17421" lon="-1.61035">
        <ele>53</ele>
        <time>2021-08-28T13:08:48.000Z</time>
      </trkpt>
      <trkpt lat="47.17424" lon="-1.61048">
        <ele>54</ele>
        <time>2021-08-28T13:08:50.000Z</time>
      </trkpt>
      <trkpt lat="47.17429" lon="-1.61063">
        <ele>55</ele>
        <time>2021-08-28T13:08:52.000Z</time>
      </trkpt>
      <trkpt lat="47.17435" lon="-1.61078">
        <ele>55</ele>
        <time>2021-08-28T13:08:54.000Z</time>
      </trkpt>
      <trkpt lat="47.17441" lon="-1.61092">
        <ele>55</ele>
        <time>2021-08-28T13:08:56.000Z</time>
      </trkpt>
      <trkpt lat="47.17447" lon="-1.61106">
        <ele>56</ele>
        <time>2021-08-28T13:08:58.000Z</time>
      </trkpt>
      <trkpt lat="47.17453" lon="-1.61121">
        <ele>57</ele>
        <time>2021-08-28T13:09:00.000Z</time>
      </trkpt>
      <trkpt lat="47.17459" lon="-1.61135">
        <ele>58</ele>
        <time>2021-08-28T13:09:02.000Z</time>
      </trkpt>
      <trkpt lat="47.17464" lon="-1.6115">
        <ele>59</ele>
        <time>2021-08-28T13:09:04.000Z</time>
      </trkpt>
      <trkpt lat="47.1747" lon="-1.61163">
        <ele>59</ele>
        <time>2021-08-28T13:09:06.000Z</time>
      </trkpt>
      <trkpt lat="47.17476" lon="-1.61177">
        <ele>59</ele>
        <time>2021-08-28T13:09:08.000Z</time>
      </trkpt>
      <trkpt lat="47.17482" lon="-1.6119">
        <ele>58</ele>
        <time>2021-08-28T13:09:10.000Z</time>
      </trkpt>
      <trkpt lat="47.17488" lon="-1.61204">
        <ele>59</ele>
        <time>2021-08-28T13:09:12.000Z</time>
      </trkpt>
      <trkpt lat="47.17493" lon="-1.61218">
        <ele>59</ele>
        <time>2021-08-28T13:09:14.000Z</time>
      </trkpt>
      <trkpt lat="47.17498" lon="-1.61232">
        <ele>59</ele>
        <time>2021-08-28T13:09:16.000Z</time>
      </trkpt>
      <trkpt lat="47.17504" lon="-1.61245">
        <ele>59</ele>
        <time>2021-08-28T13:09:18.000Z</time>
      </trkpt>
      <trkpt lat="47.17511" lon="-1.61258">
        <ele>59</ele>
        <time>2021-08-28T13:09:20.000Z</time>
      </trkpt>
      <trkpt lat="47.17519" lon="-1.6127">
        <ele>60</ele>
        <time>2021-08-28T13:09:22.000Z</time>
      </trkpt>
      <trkpt lat="47.17528" lon="-1.6128">
        <ele>59</ele>
        <time>2021-08-28T13:09:24.000Z</time>
      </trkpt>
      <trkpt lat="47.17538" lon="-1.61288">
        <ele>60</ele>
        <time>2021-08-28T13:09:26.000Z</time>
      </trkpt>
      <trkpt lat="47.17549" lon="-1.61294">
        <ele>60</ele>
        <time>2021-08-28T13:09:28.000Z</time>
      </trkpt>
      <trkpt lat="47.17558" lon="-1.61305">
        <ele>60</ele>
        <time>2021-08-28T13:09:30.000Z</time>
      </trkpt>
      <trkpt lat="47.1756" lon="-1.61322">
        <ele>60</ele>
        <time>2021-08-28T13:09:32.000Z</time>
      </trkpt>
      <trkpt lat="47.17555" lon="-1.6134">
        <ele>60</ele>
        <time>2021-08-28T13:09:34.000Z</time>
      </trkpt>
      <trkpt lat="47.17546" lon="-1.61353">
        <ele>60</ele>
        <time>2021-08-28T13:09:36.000Z</time>
      </trkpt>
      <trkpt lat="47.17535" lon="-1.61364">
        <ele>60</ele>
        <time>2021-08-28T13:09:38.000Z</time>
      </trkpt>
      <trkpt lat="47.17528" lon="-1.6138">
        <ele>60</ele>
        <time>2021-08-28T13:09:40.000Z</time>
      </trkpt>
      <trkpt lat="47.17525" lon="-1.61397">
        <ele>59</ele>
        <time>2021-08-28T13:09:42.000Z</time>
      </trkpt>
      <trkpt lat="47.1752" lon="-1.61412">
        <ele>60</ele>
        <time>2021-08-28T13:09:44.000Z</time>
      </trkpt>
      <trkpt lat="47.17517" lon="-1.61428">
        <ele>61</ele>
        <time>2021-08-28T13:09:46.000Z</time>
      </trkpt>
      <trkpt lat="47.17514" lon="-1.61444">
        <ele>62</ele>
        <time>2021-08-28T13:09:48.000Z</time>
      </trkpt>
      <trkpt lat="47.17508" lon="-1.61457">
        <ele>62</ele>
        <time>2021-08-28T13:09:50.000Z</time>
      </trkpt>
      <trkpt lat="47.17499" lon="-1.61464">
        <ele>62</ele>
        <time>2021-08-28T13:09:52.000Z</time>
      </trkpt>
      <trkpt lat="47.17487" lon="-1.61469">
        <ele>63</ele>
        <time>2021-08-28T13:09:54.000Z</time>
      </trkpt>
      <trkpt lat="47.17475" lon="-1.61474">
        <ele>63</ele>
        <time>2021-08-28T13:09:56.000Z</time>
      </trkpt>
      <trkpt lat="47.17463" lon="-1.61478">
        <ele>63</ele>
        <time>2021-08-28T13:09:58.000Z</time>
      </trkpt>
      <trkpt lat="47.17452" lon="-1.61484">
        <ele>64</ele>
        <time>2021-08-28T13:10:00.000Z</time>
      </trkpt>
      <trkpt lat="47.17441" lon="-1.6149">
        <ele>64</ele>
        <time>2021-08-28T13:10:02.000Z</time>
      </trkpt>
      <trkpt lat="47.1743" lon="-1.61496">
        <ele>65</ele>
        <time>2021-08-28T13:10:04.000Z</time>
      </trkpt>
      <trkpt lat="47.1742" lon="-1.61503">
        <ele>65</ele>
        <time>2021-08-28T13:10:06.000Z</time>
      </trkpt>
      <trkpt lat="47.1741" lon="-1.61511">
        <ele>65</ele>
        <time>2021-08-28T13:10:08.000Z</time>
      </trkpt>
      <trkpt lat="47.174" lon="-1.61518">
        <ele>66</ele>
        <time>2021-08-28T13:10:10.000Z</time>
      </trkpt>
      <trkpt lat="47.1739" lon="-1.61526">
        <ele>66</ele>
        <time>2021-08-28T13:10:12.000Z</time>
      </trkpt>
      <trkpt lat="47.17382" lon="-1.61534">
        <ele>67</ele>
        <time>2021-08-28T13:10:14.000Z</time>
      </trkpt>
      <trkpt lat="47.17374" lon="-1.61542">
        <ele>67</ele>
        <time>2021-08-28T13:10:16.000Z</time>
      </trkpt>
      <trkpt lat="47.17366" lon="-1.61551">
        <ele>68</ele>
        <time>2021-08-28T13:10:18.000Z</time>
      </trkpt>
      <trkpt lat="47.17357" lon="-1.6156">
        <ele>69</ele>
        <time>2021-08-28T13:10:20.000Z</time>
      </trkpt>
      <trkpt lat="47.17349" lon="-1.6157">
        <ele>70</ele>
        <time>2021-08-28T13:10:22.000Z</time>
      </trkpt>
      <trkpt lat="47.1734" lon="-1.6158">
        <ele>70</ele>
        <time>2021-08-28T13:10:24.000Z</time>
      </trkpt>
      <trkpt lat="47.17332" lon="-1.61591">
        <ele>70</ele>
        <time>2021-08-28T13:10:26.000Z</time>
      </trkpt>
      <trkpt lat="47.17323" lon="-1.61601">
        <ele>70</ele>
        <time>2021-08-28T13:10:28.000Z</time>
      </trkpt>
      <trkpt lat="47.17315" lon="-1.61612">
        <ele>69</ele>
        <time>2021-08-28T13:10:30.000Z</time>
      </trkpt>
      <trkpt lat="47.17306" lon="-1.61624">
        <ele>69</ele>
        <time>2021-08-28T13:10:32.000Z</time>
      </trkpt>
      <trkpt lat="47.17299" lon="-1.61637">
        <ele>68</ele>
        <time>2021-08-28T13:10:34.000Z</time>
      </trkpt>
      <trkpt lat="47.17291" lon="-1.6165">
        <ele>69</ele>
        <time>2021-08-28T13:10:36.000Z</time>
      </trkpt>
      <trkpt lat="47.17285" lon="-1.61664">
        <ele>69</ele>
        <time>2021-08-28T13:10:38.000Z</time>
      </trkpt>
      <trkpt lat="47.17278" lon="-1.61678">
        <ele>69</ele>
        <time>2021-08-28T13:10:40.000Z</time>
      </trkpt>
      <trkpt lat="47.1727" lon="-1.61692">
        <ele>68</ele>
        <time>2021-08-28T13:10:42.000Z</time>
      </trkpt>
      <trkpt lat="47.17263" lon="-1.61707">
        <ele>67</ele>
        <time>2021-08-28T13:10:44.000Z</time>
      </trkpt>
      <trkpt lat="47.17256" lon="-1.61721">
        <ele>67</ele>
        <time>2021-08-28T13:10:46.000Z</time>
      </trkpt>
      <trkpt lat="47.17249" lon="-1.61736">
        <ele>67</ele>
        <time>2021-08-28T13:10:48.000Z</time>
      </trkpt>
      <trkpt lat="47.17244" lon="-1.61752">
        <ele>67</ele>
        <time>2021-08-28T13:10:50.000Z</time>
      </trkpt>
      <trkpt lat="47.17242" lon="-1.61769">
        <ele>67</ele>
        <time>2021-08-28T13:10:52.000Z</time>
      </trkpt>
      <trkpt lat="47.17234" lon="-1.61784">
        <ele>67</ele>
        <time>2021-08-28T13:10:54.000Z</time>
      </trkpt>
      <trkpt lat="47.17223" lon="-1.61793">
        <ele>67</ele>
        <time>2021-08-28T13:10:56.000Z</time>
      </trkpt>
      <trkpt lat="47.17212" lon="-1.61803">
        <ele>67</ele>
        <time>2021-08-28T13:10:58.000Z</time>
      </trkpt>
      <trkpt lat="47.17201" lon="-1.61812">
        <ele>67</ele>
        <time>2021-08-28T13:11:00.000Z</time>
      </trkpt>
      <trkpt lat="47.1719" lon="-1.61822">
        <ele>67</ele>
        <time>2021-08-28T13:11:02.000Z</time>
      </trkpt>
      <trkpt lat="47.1718" lon="-1.61832">
        <ele>67</ele>
        <time>2021-08-28T13:11:04.000Z</time>
      </trkpt>
      <trkpt lat="47.17169" lon="-1.61843">
        <ele>67</ele>
        <time>2021-08-28T13:11:06.000Z</time>
      </trkpt>
      <trkpt lat="47.17158" lon="-1.61853">
        <ele>67</ele>
        <time>2021-08-28T13:11:08.000Z</time>
      </trkpt>
      <trkpt lat="47.17146" lon="-1.61865">
        <ele>67</ele>
        <time>2021-08-28T13:11:10.000Z</time>
      </trkpt>
      <trkpt lat="47.17135" lon="-1.61875">
        <ele>67</ele>
        <time>2021-08-28T13:11:12.000Z</time>
      </trkpt>
      <trkpt lat="47.17124" lon="-1.61886">
        <ele>67</ele>
        <time>2021-08-28T13:11:14.000Z</time>
      </trkpt>
      <trkpt lat="47.17113" lon="-1.61896">
        <ele>67</ele>
        <time>2021-08-28T13:11:16.000Z</time>
      </trkpt>
      <trkpt lat="47.17102" lon="-1.61907">
        <ele>67</ele>
        <time>2021-08-28T13:11:18.000Z</time>
      </trkpt>
      <trkpt lat="47.17091" lon="-1.61918">
        <ele>67</ele>
        <time>2021-08-28T13:11:20.000Z</time>
      </trkpt>
      <trkpt lat="47.17081" lon="-1.61927">
        <ele>67</ele>
        <time>2021-08-28T13:11:22.000Z</time>
      </trkpt>
      <trkpt lat="47.17072" lon="-1.61936">
        <ele>67</ele>
        <time>2021-08-28T13:11:24.000Z</time>
      </trkpt>
      <trkpt lat="47.17061" lon="-1.61947">
        <ele>67</ele>
        <time>2021-08-28T13:11:26.000Z</time>
      </trkpt>
      <trkpt lat="47.17052" lon="-1.6196">
        <ele>67</ele>
        <time>2021-08-28T13:11:28.000Z</time>
      </trkpt>
      <trkpt lat="47.17043" lon="-1.61973">
        <ele>67</ele>
        <time>2021-08-28T13:11:30.000Z</time>
      </trkpt>
      <trkpt lat="47.17034" lon="-1.61987">
        <ele>67</ele>
        <time>2021-08-28T13:11:32.000Z</time>
      </trkpt>
      <trkpt lat="47.17024" lon="-1.62001">
        <ele>67</ele>
        <time>2021-08-28T13:11:34.000Z</time>
      </trkpt>
      <trkpt lat="47.17014" lon="-1.62014">
        <ele>67</ele>
        <time>2021-08-28T13:11:36.000Z</time>
      </trkpt>
      <trkpt lat="47.17005" lon="-1.62028">
        <ele>67</ele>
        <time>2021-08-28T13:11:38.000Z</time>
      </trkpt>
      <trkpt lat="47.16996" lon="-1.62044">
        <ele>67</ele>
        <time>2021-08-28T13:11:40.000Z</time>
      </trkpt>
      <trkpt lat="47.16988" lon="-1.6206">
        <ele>67</ele>
        <time>2021-08-28T13:11:42.000Z</time>
      </trkpt>
      <trkpt lat="47.1698" lon="-1.62075">
        <ele>67</ele>
        <time>2021-08-28T13:11:44.000Z</time>
      </trkpt>
      <trkpt lat="47.16972" lon="-1.62089">
        <ele>67</ele>
        <time>2021-08-28T13:11:46.000Z</time>
      </trkpt>
      <trkpt lat="47.16963" lon="-1.62103">
        <ele>67</ele>
        <time>2021-08-28T13:11:48.000Z</time>
      </trkpt>
      <trkpt lat="47.16956" lon="-1.62119">
        <ele>67</ele>
        <time>2021-08-28T13:11:50.000Z</time>
      </trkpt>
      <trkpt lat="47.16948" lon="-1.62135">
        <ele>67</ele>
        <time>2021-08-28T13:11:52.000Z</time>
      </trkpt>
      <trkpt lat="47.1694" lon="-1.6215">
        <ele>67</ele>
        <time>2021-08-28T13:11:54.000Z</time>
      </trkpt>
      <trkpt lat="47.16933" lon="-1.62166">
        <ele>67</ele>
        <time>2021-08-28T13:11:56.000Z</time>
      </trkpt>
      <trkpt lat="47.16926" lon="-1.62182">
        <ele>67</ele>
        <time>2021-08-28T13:11:58.000Z</time>
      </trkpt>
      <trkpt lat="47.16918" lon="-1.62196">
        <ele>67</ele>
        <time>2021-08-28T13:12:00.000Z</time>
      </trkpt>
      <trkpt lat="47.16909" lon="-1.6221">
        <ele>67</ele>
        <time>2021-08-28T13:12:02.000Z</time>
      </trkpt>
      <trkpt lat="47.169" lon="-1.62222">
        <ele>67</ele>
        <time>2021-08-28T13:12:04.000Z</time>
      </trkpt>
      <trkpt lat="47.16891" lon="-1.62234">
        <ele>68</ele>
        <time>2021-08-28T13:12:06.000Z</time>
      </trkpt>
      <trkpt lat="47.1688" lon="-1.62245">
        <ele>68</ele>
        <time>2021-08-28T13:12:08.000Z</time>
      </trkpt>
      <trkpt lat="47.1687" lon="-1.62257">
        <ele>68</ele>
        <time>2021-08-28T13:12:10.000Z</time>
      </trkpt>
      <trkpt lat="47.16861" lon="-1.62269">
        <ele>68</ele>
        <time>2021-08-28T13:12:12.000Z</time>
      </trkpt>
      <trkpt lat="47.16851" lon="-1.6228">
        <ele>68</ele>
        <time>2021-08-28T13:12:14.000Z</time>
      </trkpt>
      <trkpt lat="47.16842" lon="-1.62293">
        <ele>68</ele>
        <time>2021-08-28T13:12:16.000Z</time>
      </trkpt>
      <trkpt lat="47.16831" lon="-1.62304">
        <ele>69</ele>
        <time>2021-08-28T13:12:18.000Z</time>
      </trkpt>
      <trkpt lat="47.16821" lon="-1.62314">
        <ele>69</ele>
        <time>2021-08-28T13:12:20.000Z</time>
      </trkpt>
      <trkpt lat="47.1681" lon="-1.62323">
        <ele>69</ele>
        <time>2021-08-28T13:12:22.000Z</time>
      </trkpt>
      <trkpt lat="47.16798" lon="-1.6233">
        <ele>69</ele>
        <time>2021-08-28T13:12:24.000Z</time>
      </trkpt>
      <trkpt lat="47.16786" lon="-1.62336">
        <ele>69</ele>
        <time>2021-08-28T13:12:26.000Z</time>
      </trkpt>
      <trkpt lat="47.16774" lon="-1.62343">
        <ele>69</ele>
        <time>2021-08-28T13:12:28.000Z</time>
      </trkpt>
      <trkpt lat="47.16761" lon="-1.62351">
        <ele>68</ele>
        <time>2021-08-28T13:12:30.000Z</time>
      </trkpt>
      <trkpt lat="47.16749" lon="-1.6236">
        <ele>68</ele>
        <time>2021-08-28T13:12:32.000Z</time>
      </trkpt>
      <trkpt lat="47.16739" lon="-1.62373">
        <ele>67</ele>
        <time>2021-08-28T13:12:34.000Z</time>
      </trkpt>
      <trkpt lat="47.16732" lon="-1.62391">
        <ele>67</ele>
        <time>2021-08-28T13:12:36.000Z</time>
      </trkpt>
      <trkpt lat="47.16728" lon="-1.62411">
        <ele>67</ele>
        <time>2021-08-28T13:12:38.000Z</time>
      </trkpt>
      <trkpt lat="47.16727" lon="-1.6243">
        <ele>67</ele>
        <time>2021-08-28T13:12:40.000Z</time>
      </trkpt>
      <trkpt lat="47.16723" lon="-1.62446">
        <ele>66</ele>
        <time>2021-08-28T13:12:42.000Z</time>
      </trkpt>
      <trkpt lat="47.16719" lon="-1.62462">
        <ele>67</ele>
        <time>2021-08-28T13:12:44.000Z</time>
      </trkpt>
      <trkpt lat="47.16714" lon="-1.62487">
        <ele>66</ele>
        <time>2021-08-28T13:12:47.000Z</time>
      </trkpt>
      <trkpt lat="47.16723" lon="-1.62497">
        <ele>66</ele>
        <time>2021-08-28T13:12:49.000Z</time>
      </trkpt>
      <trkpt lat="47.16735" lon="-1.62501">
        <ele>66</ele>
        <time>2021-08-28T13:12:51.000Z</time>
      </trkpt>
      <trkpt lat="47.16746" lon="-1.62506">
        <ele>66</ele>
        <time>2021-08-28T13:12:53.000Z</time>
      </trkpt>
      <trkpt lat="47.16764" lon="-1.62515">
        <ele>67</ele>
        <time>2021-08-28T13:12:56.000Z</time>
      </trkpt>
      <trkpt lat="47.16775" lon="-1.62522">
        <ele>67</ele>
        <time>2021-08-28T13:12:58.000Z</time>
      </trkpt>
      <trkpt lat="47.16786" lon="-1.62529">
        <ele>68</ele>
        <time>2021-08-28T13:13:00.000Z</time>
      </trkpt>
      <trkpt lat="47.16796" lon="-1.62536">
        <ele>68</ele>
        <time>2021-08-28T13:13:02.000Z</time>
      </trkpt>
      <trkpt lat="47.16807" lon="-1.62544">
        <ele>68</ele>
        <time>2021-08-28T13:13:04.000Z</time>
      </trkpt>
      <trkpt lat="47.16817" lon="-1.62553">
        <ele>68</ele>
        <time>2021-08-28T13:13:06.000Z</time>
      </trkpt>
      <trkpt lat="47.16826" lon="-1.62565">
        <ele>67</ele>
        <time>2021-08-28T13:13:08.000Z</time>
      </trkpt>
      <trkpt lat="47.16833" lon="-1.62578">
        <ele>68</ele>
        <time>2021-08-28T13:13:10.000Z</time>
      </trkpt>
      <trkpt lat="47.16831" lon="-1.62594">
        <ele>69</ele>
        <time>2021-08-28T13:13:12.000Z</time>
      </trkpt>
      <trkpt lat="47.1682" lon="-1.62607">
        <ele>69</ele>
        <time>2021-08-28T13:13:14.000Z</time>
      </trkpt>
      <trkpt lat="47.16811" lon="-1.6262">
        <ele>69</ele>
        <time>2021-08-28T13:13:16.000Z</time>
      </trkpt>
      <trkpt lat="47.16803" lon="-1.62633">
        <ele>69</ele>
        <time>2021-08-28T13:13:18.000Z</time>
      </trkpt>
      <trkpt lat="47.16796" lon="-1.62643">
        <ele>68</ele>
        <time>2021-08-28T13:13:20.000Z</time>
      </trkpt>
      <trkpt lat="47.16789" lon="-1.62653">
        <ele>68</ele>
        <time>2021-08-28T13:13:22.000Z</time>
      </trkpt>
      <trkpt lat="47.1678" lon="-1.62658">
        <ele>68</ele>
        <time>2021-08-28T13:13:25.000Z</time>
      </trkpt>
    </trkseg>
  </trk>
</gpx>